<?xml version='1.0' encoding='UTF-8'?><gpx version="1.1" creator="JPX - https://github.com/jenetics/jpx" xmlns="http://www.topografix.com/GPX/1/1"><trk><trkseg><trkpt lat="42.1910249" lon="14.2206259"><ele>568.0</ele><time>2026-05-01T13:04:04.552Z</time></trkpt><trkpt lat="42.1909591" lon="14.2206469"><ele>568.0</ele><time>2026-05-01T13:04:05.534Z</time></trkpt><trkpt lat="42.1908732" lon="14.2206529"><ele>568.0</ele><time>2026-05-01T13:04:06.52Z</time></trkpt><trkpt lat="42.1907751" lon="14.2206462"><ele>568.0</ele><time>2026-05-01T13:04:07.518Z</time></trkpt><trkpt lat="42.1906736" lon="14.2206349"><ele>568.0</ele><time>2026-05-01T13:04:08.509Z</time></trkpt><trkpt lat="42.1905733" lon="14.2206035"><ele>568.5</ele><time>2026-05-01T13:04:09.5Z</time></trkpt><trkpt lat="42.1904793" lon="14.2205587"><ele>569.0</ele><time>2026-05-01T13:04:10.508Z</time></trkpt><trkpt lat="42.1903877" lon="14.2205172"><ele>569.5</ele><time>2026-05-01T13:04:11.502Z</time></trkpt><trkpt lat="42.190309" lon="14.2204828"><ele>570.0</ele><time>2026-05-01T13:04:12.509Z</time></trkpt><trkpt lat="42.1902469" lon="14.2204496"><ele>570.5</ele><time>2026-05-01T13:04:13.494Z</time></trkpt><trkpt lat="42.1901711" lon="14.2204139"><ele>571.0</ele><time>2026-05-01T13:04:15.513Z</time></trkpt><trkpt lat="42.1901161" lon="14.2203593"><ele>571.0</ele><time>2026-05-01T13:04:17.52Z</time></trkpt><trkpt lat="42.1900818" lon="14.2202817"><ele>571.0</ele><time>2026-05-01T13:04:24.544Z</time></trkpt><trkpt lat="42.1900703" lon="14.2201531"><ele>571.0</ele><time>2026-05-01T13:04:26.55Z</time></trkpt><trkpt lat="42.19002" lon="14.2200289"><ele>571.0</ele><time>2026-05-01T13:04:28.564Z</time></trkpt><trkpt lat="42.189925" lon="14.2199995"><ele>571.0</ele><time>2026-05-01T13:04:30.538Z</time></trkpt><trkpt lat="42.1898354" lon="14.2199623"><ele>571.0</ele><time>2026-05-01T13:04:32.532Z</time></trkpt><trkpt lat="42.1899365" lon="14.2199282"><ele>571.0</ele><time>2026-05-01T13:04:39.542Z</time></trkpt><trkpt lat="42.1900345" lon="14.2199195"><ele>571.0</ele><time>2026-05-01T13:04:40.538Z</time></trkpt><trkpt lat="42.1901346" lon="14.2198896"><ele>571.0</ele><time>2026-05-01T13:04:41.543Z</time></trkpt><trkpt lat="42.1902444" lon="14.2198383"><ele>571.0</ele><time>2026-05-01T13:04:42.534Z</time></trkpt><trkpt lat="42.1903525" lon="14.219778"><ele>567.75</ele><time>2026-05-01T13:04:43.54Z</time></trkpt><trkpt lat="42.1904659" lon="14.2197339"><ele>564.5</ele><time>2026-05-01T13:04:44.522Z</time></trkpt><trkpt lat="42.1905822" lon="14.2197101"><ele>561.25</ele><time>2026-05-01T13:04:45.522Z</time></trkpt><trkpt lat="42.1906994" lon="14.2196996"><ele>558.0</ele><time>2026-05-01T13:04:46.516Z</time></trkpt><trkpt lat="42.1908114" lon="14.2196883"><ele>556.75</ele><time>2026-05-01T13:04:47.516Z</time></trkpt><trkpt lat="42.190935" lon="14.2196989"><ele>555.5</ele><time>2026-05-01T13:04:48.517Z</time></trkpt><trkpt lat="42.1910702" lon="14.2197169"><ele>554.25</ele><time>2026-05-01T13:04:49.534Z</time></trkpt><trkpt lat="42.191198" lon="14.219733"><ele>553.0</ele><time>2026-05-01T13:04:50.521Z</time></trkpt><trkpt lat="42.191334" lon="14.2197473"><ele>553.0</ele><time>2026-05-01T13:04:51.528Z</time></trkpt><trkpt lat="42.191475" lon="14.2197694"><ele>553.0</ele><time>2026-05-01T13:04:52.539Z</time></trkpt><trkpt lat="42.1916213" lon="14.219801"><ele>553.0</ele><time>2026-05-01T13:04:53.54Z</time></trkpt><trkpt lat="42.1917728" lon="14.2198212"><ele>553.0</ele><time>2026-05-01T13:04:54.545Z</time></trkpt><trkpt lat="42.1919102" lon="14.2198275"><ele>554.75</ele><time>2026-05-01T13:04:55.548Z</time></trkpt><trkpt lat="42.1920461" lon="14.2198379"><ele>556.5</ele><time>2026-05-01T13:04:56.552Z</time></trkpt><trkpt lat="42.1921779" lon="14.2198353"><ele>558.25</ele><time>2026-05-01T13:04:57.553Z</time></trkpt><trkpt lat="42.1922957" lon="14.2198286"><ele>560.0</ele><time>2026-05-01T13:04:58.556Z</time></trkpt><trkpt lat="42.1924261" lon="14.2198636"><ele>560.0</ele><time>2026-05-01T13:04:59.538Z</time></trkpt><trkpt lat="42.1925306" lon="14.2199036"><ele>560.0</ele><time>2026-05-01T13:05:00.545Z</time></trkpt><trkpt lat="42.1926588" lon="14.2199777"><ele>560.0</ele><time>2026-05-01T13:05:01.547Z</time></trkpt><trkpt lat="42.1927677" lon="14.2200405"><ele>560.0</ele><time>2026-05-01T13:05:02.549Z</time></trkpt><trkpt lat="42.1928812" lon="14.2201193"><ele>560.0</ele><time>2026-05-01T13:05:03.525Z</time></trkpt><trkpt lat="42.1929911" lon="14.2202128"><ele>560.0</ele><time>2026-05-01T13:05:04.542Z</time></trkpt><trkpt lat="42.1930864" lon="14.2203147"><ele>560.0</ele><time>2026-05-01T13:05:05.539Z</time></trkpt><trkpt lat="42.1931901" lon="14.2204067"><ele>560.0</ele><time>2026-05-01T13:05:06.536Z</time></trkpt><trkpt lat="42.1932952" lon="14.2204783"><ele>558.0</ele><time>2026-05-01T13:05:07.545Z</time></trkpt><trkpt lat="42.1933957" lon="14.2205354"><ele>556.0</ele><time>2026-05-01T13:05:08.548Z</time></trkpt><trkpt lat="42.1935034" lon="14.2205618"><ele>554.0</ele><time>2026-05-01T13:05:09.546Z</time></trkpt><trkpt lat="42.1936139" lon="14.2205909"><ele>552.0</ele><time>2026-05-01T13:05:10.548Z</time></trkpt><trkpt lat="42.1937137" lon="14.220618"><ele>550.0</ele><time>2026-05-01T13:05:11.548Z</time></trkpt><trkpt lat="42.1937878" lon="14.2206475"><ele>550.0</ele><time>2026-05-01T13:05:12.543Z</time></trkpt><trkpt lat="42.1938509" lon="14.2206601"><ele>550.0</ele><time>2026-05-01T13:05:13.56Z</time></trkpt><trkpt lat="42.1939249" lon="14.2205352"><ele>550.0</ele><time>2026-05-01T13:05:15.547Z</time></trkpt><trkpt lat="42.1939235" lon="14.2204394"><ele>550.0</ele><time>2026-05-01T13:05:16.549Z</time></trkpt><trkpt lat="42.1938833" lon="14.2203555"><ele>550.0</ele><time>2026-05-01T13:05:17.555Z</time></trkpt><trkpt lat="42.1937922" lon="14.2202817"><ele>550.0</ele><time>2026-05-01T13:05:18.547Z</time></trkpt><trkpt lat="42.1936824" lon="14.2202278"><ele>550.0</ele><time>2026-05-01T13:05:19.549Z</time></trkpt><trkpt lat="42.1935756" lon="14.2201681"><ele>550.0</ele><time>2026-05-01T13:05:20.552Z</time></trkpt><trkpt lat="42.1934741" lon="14.2201117"><ele>550.0</ele><time>2026-05-01T13:05:21.549Z</time></trkpt><trkpt lat="42.1933879" lon="14.2200643"><ele>550.0</ele><time>2026-05-01T13:05:22.556Z</time></trkpt><trkpt lat="42.1932976" lon="14.2200203"><ele>550.0</ele><time>2026-05-01T13:05:23.556Z</time></trkpt><trkpt lat="42.1932137" lon="14.2199727"><ele>551.6666666666667</ele><time>2026-05-01T13:05:24.546Z</time></trkpt><trkpt lat="42.1931378" lon="14.2199304"><ele>553.3333333333334</ele><time>2026-05-01T13:05:25.54Z</time></trkpt><trkpt lat="42.1930564" lon="14.2198839"><ele>555.0</ele><time>2026-05-01T13:05:26.539Z</time></trkpt><trkpt lat="42.1929959" lon="14.2198397"><ele>556.6666666666666</ele><time>2026-05-01T13:05:27.53Z</time></trkpt><trkpt lat="42.1929329" lon="14.2197509"><ele>558.3333333333333</ele><time>2026-05-01T13:05:29.53Z</time></trkpt><trkpt lat="42.1929398" lon="14.2196519"><ele>560.0</ele><time>2026-05-01T13:05:31.556Z</time></trkpt><trkpt lat="42.1929578" lon="14.2195547"><ele>556.2</ele><time>2026-05-01T13:05:33.566Z</time></trkpt><trkpt lat="42.1930118" lon="14.2194557"><ele>552.4</ele><time>2026-05-01T13:05:35.56Z</time></trkpt><trkpt lat="42.1930881" lon="14.2193883"><ele>548.6</ele><time>2026-05-01T13:05:37.558Z</time></trkpt><trkpt lat="42.1931899" lon="14.2193315"><ele>544.8</ele><time>2026-05-01T13:05:39.558Z</time></trkpt><trkpt lat="42.1932827" lon="14.2192576"><ele>541.0</ele><time>2026-05-01T13:05:41.548Z</time></trkpt><trkpt lat="42.1933605" lon="14.2192206"><ele>541.0</ele><time>2026-05-01T13:05:43.537Z</time></trkpt><trkpt lat="42.1934481" lon="14.2192588"><ele>541.0</ele><time>2026-05-01T13:05:45.551Z</time></trkpt><trkpt lat="42.1935153" lon="14.2192555"><ele>541.0</ele><time>2026-05-01T13:05:55.569Z</time></trkpt><trkpt lat="42.1934449" lon="14.219192"><ele>541.0</ele><time>2026-05-01T13:05:59.55Z</time></trkpt><trkpt lat="42.1933355" lon="14.219196"><ele>541.0</ele><time>2026-05-01T13:06:01.533Z</time></trkpt><trkpt lat="42.1932594" lon="14.2192256"><ele>541.0</ele><time>2026-05-01T13:06:02.534Z</time></trkpt><trkpt lat="42.1931917" lon="14.2192689"><ele>540.5714285714287</ele><time>2026-05-01T13:06:03.526Z</time></trkpt><trkpt lat="42.1931213" lon="14.2193327"><ele>540.1428571428571</ele><time>2026-05-01T13:06:04.56Z</time></trkpt><trkpt lat="42.1930524" lon="14.2193966"><ele>539.7142857142858</ele><time>2026-05-01T13:06:05.544Z</time></trkpt><trkpt lat="42.1929987" lon="14.2194647"><ele>539.2857142857143</ele><time>2026-05-01T13:06:06.537Z</time></trkpt><trkpt lat="42.1929614" lon="14.2195448"><ele>538.8571428571429</ele><time>2026-05-01T13:06:07.542Z</time></trkpt><trkpt lat="42.1929376" lon="14.2196282"><ele>538.4285714285714</ele><time>2026-05-01T13:06:08.545Z</time></trkpt><trkpt lat="42.1929361" lon="14.2197222"><ele>538.0</ele><time>2026-05-01T13:06:09.539Z</time></trkpt><trkpt lat="42.1929502" lon="14.2198093"><ele>539.7142857142858</ele><time>2026-05-01T13:06:10.543Z</time></trkpt><trkpt lat="42.1929804" lon="14.2198855"><ele>541.4285714285714</ele><time>2026-05-01T13:06:11.541Z</time></trkpt><trkpt lat="42.1930289" lon="14.219948"><ele>543.1428571428571</ele><time>2026-05-01T13:06:12.542Z</time></trkpt><trkpt lat="42.1930875" lon="14.2199859"><ele>544.8571428571429</ele><time>2026-05-01T13:06:13.546Z</time></trkpt><trkpt lat="42.1931576" lon="14.2200075"><ele>546.5714285714286</ele><time>2026-05-01T13:06:14.545Z</time></trkpt><trkpt lat="42.1932556" lon="14.2200352"><ele>548.2857142857143</ele><time>2026-05-01T13:06:16.539Z</time></trkpt><trkpt lat="42.1933227" lon="14.2199766"><ele>550.0</ele><time>2026-05-01T13:06:19.545Z</time></trkpt><trkpt lat="42.193378" lon="14.2200229"><ele>550.0</ele><time>2026-05-01T13:06:23.551Z</time></trkpt><trkpt lat="42.1934604" lon="14.2200779"><ele>550.0</ele><time>2026-05-01T13:06:26.554Z</time></trkpt><trkpt lat="42.193524" lon="14.2201071"><ele>550.0</ele><time>2026-05-01T13:06:54.551Z</time></trkpt><trkpt lat="42.1936291" lon="14.220141"><ele>550.0</ele><time>2026-05-01T13:06:57.552Z</time></trkpt><trkpt lat="42.1937334" lon="14.2202055"><ele>550.0</ele><time>2026-05-01T13:06:59.548Z</time></trkpt><trkpt lat="42.1937892" lon="14.2202459"><ele>550.0</ele><time>2026-05-01T13:07:00.546Z</time></trkpt><trkpt lat="42.1939016" lon="14.220331"><ele>550.0</ele><time>2026-05-01T13:07:02.552Z</time></trkpt><trkpt lat="42.1939582" lon="14.2203965"><ele>550.0</ele><time>2026-05-01T13:07:03.543Z</time></trkpt><trkpt lat="42.1940064" lon="14.2204833"><ele>550.0</ele><time>2026-05-01T13:07:04.553Z</time></trkpt><trkpt lat="42.1940379" lon="14.2205957"><ele>550.0</ele><time>2026-05-01T13:07:05.551Z</time></trkpt><trkpt lat="42.1940726" lon="14.2207192"><ele>550.0</ele><time>2026-05-01T13:07:06.582Z</time></trkpt><trkpt lat="42.1941017" lon="14.2208683"><ele>546.0</ele><time>2026-05-01T13:07:07.548Z</time></trkpt><trkpt lat="42.1941011" lon="14.2210256"><ele>542.0</ele><time>2026-05-01T13:07:08.542Z</time></trkpt><trkpt lat="42.1940933" lon="14.2211701"><ele>538.0</ele><time>2026-05-01T13:07:09.541Z</time></trkpt><trkpt lat="42.1940924" lon="14.2213202"><ele>534.0</ele><time>2026-05-01T13:07:10.546Z</time></trkpt><trkpt lat="42.1940884" lon="14.2214862"><ele>532.75</ele><time>2026-05-01T13:07:11.548Z</time></trkpt><trkpt lat="42.1940778" lon="14.2216572"><ele>531.5</ele><time>2026-05-01T13:07:12.543Z</time></trkpt><trkpt lat="42.1940756" lon="14.221839"><ele>530.25</ele><time>2026-05-01T13:07:13.538Z</time></trkpt><trkpt lat="42.1940668" lon="14.222032"><ele>529.0</ele><time>2026-05-01T13:07:14.54Z</time></trkpt><trkpt lat="42.1940585" lon="14.2222282"><ele>527.25</ele><time>2026-05-01T13:07:15.542Z</time></trkpt><trkpt lat="42.1940481" lon="14.2224207"><ele>525.5</ele><time>2026-05-01T13:07:16.535Z</time></trkpt><trkpt lat="42.1940362" lon="14.2226065"><ele>523.75</ele><time>2026-05-01T13:07:17.544Z</time></trkpt><trkpt lat="42.1940377" lon="14.2227712"><ele>522.0</ele><time>2026-05-01T13:07:18.537Z</time></trkpt><trkpt lat="42.1940546" lon="14.2229432"><ele>522.0</ele><time>2026-05-01T13:07:19.541Z</time></trkpt><trkpt lat="42.1940649" lon="14.2231174"><ele>522.0</ele><time>2026-05-01T13:07:20.541Z</time></trkpt><trkpt lat="42.19409" lon="14.2232752"><ele>522.0</ele><time>2026-05-01T13:07:21.541Z</time></trkpt><trkpt lat="42.1941086" lon="14.2234336"><ele>522.0</ele><time>2026-05-01T13:07:22.543Z</time></trkpt><trkpt lat="42.1941194" lon="14.2235813"><ele>520.8000000000001</ele><time>2026-05-01T13:07:23.538Z</time></trkpt><trkpt lat="42.1941182" lon="14.2237018"><ele>519.6</ele><time>2026-05-01T13:07:24.544Z</time></trkpt><trkpt lat="42.1941513" lon="14.2238571"><ele>518.4000000000001</ele><time>2026-05-01T13:07:26.53Z</time></trkpt><trkpt lat="42.194259" lon="14.2239417"><ele>517.2</ele><time>2026-05-01T13:07:28.549Z</time></trkpt><trkpt lat="42.1943321" lon="14.2239158"><ele>516.0</ele><time>2026-05-01T13:07:29.529Z</time></trkpt><trkpt lat="42.1944093" lon="14.2238516"><ele>516.0</ele><time>2026-05-01T13:07:30.533Z</time></trkpt><trkpt lat="42.1944956" lon="14.2237736"><ele>516.0</ele><time>2026-05-01T13:07:31.531Z</time></trkpt><trkpt lat="42.1945828" lon="14.2236955"><ele>516.0</ele><time>2026-05-01T13:07:32.536Z</time></trkpt><trkpt lat="42.1946652" lon="14.223626"><ele>516.0</ele><time>2026-05-01T13:07:33.541Z</time></trkpt><trkpt lat="42.1947427" lon="14.223552"><ele>516.0</ele><time>2026-05-01T13:07:34.543Z</time></trkpt><trkpt lat="42.1948091" lon="14.2234766"><ele>514.8</ele><time>2026-05-01T13:07:35.543Z</time></trkpt><trkpt lat="42.194873" lon="14.2234063"><ele>513.6</ele><time>2026-05-01T13:07:36.558Z</time></trkpt><trkpt lat="42.1949437" lon="14.2233467"><ele>512.4</ele><time>2026-05-01T13:07:37.551Z</time></trkpt><trkpt lat="42.1950229" lon="14.223278"><ele>511.2</ele><time>2026-05-01T13:07:38.552Z</time></trkpt><trkpt lat="42.1951069" lon="14.2231981"><ele>510.0</ele><time>2026-05-01T13:07:39.557Z</time></trkpt><trkpt lat="42.1951956" lon="14.2231101"><ele>510.0</ele><time>2026-05-01T13:07:40.553Z</time></trkpt><trkpt lat="42.195282" lon="14.2230033"><ele>510.0</ele><time>2026-05-01T13:07:41.554Z</time></trkpt><trkpt lat="42.1953626" lon="14.2228927"><ele>510.0</ele><time>2026-05-01T13:07:42.553Z</time></trkpt><trkpt lat="42.1954352" lon="14.2227823"><ele>510.0</ele><time>2026-05-01T13:07:43.554Z</time></trkpt><trkpt lat="42.1955036" lon="14.2226757"><ele>510.0</ele><time>2026-05-01T13:07:44.554Z</time></trkpt><trkpt lat="42.1955648" lon="14.2225751"><ele>510.0</ele><time>2026-05-01T13:07:45.554Z</time></trkpt><trkpt lat="42.1956223" lon="14.222467"><ele>510.0</ele><time>2026-05-01T13:07:46.552Z</time></trkpt><trkpt lat="42.1956633" lon="14.2223456"><ele>510.0</ele><time>2026-05-01T13:07:47.548Z</time></trkpt><trkpt lat="42.1956957" lon="14.2222114"><ele>510.0</ele><time>2026-05-01T13:07:48.547Z</time></trkpt><trkpt lat="42.1957212" lon="14.2220691"><ele>510.0</ele><time>2026-05-01T13:07:49.553Z</time></trkpt><trkpt lat="42.1957496" lon="14.2219322"><ele>508.75</ele><time>2026-05-01T13:07:50.555Z</time></trkpt><trkpt lat="42.1957778" lon="14.2217885"><ele>507.5</ele><time>2026-05-01T13:07:51.554Z</time></trkpt><trkpt lat="42.1958041" lon="14.2216382"><ele>506.25</ele><time>2026-05-01T13:07:52.549Z</time></trkpt><trkpt lat="42.1958147" lon="14.221484"><ele>505.0</ele><time>2026-05-01T13:07:53.618Z</time></trkpt><trkpt lat="42.1958152" lon="14.2213288"><ele>505.0</ele><time>2026-05-01T13:07:54.626Z</time></trkpt><trkpt lat="42.1958145" lon="14.2211632"><ele>505.0</ele><time>2026-05-01T13:07:55.631Z</time></trkpt><trkpt lat="42.1958115" lon="14.2209986"><ele>505.0</ele><time>2026-05-01T13:07:56.631Z</time></trkpt><trkpt lat="42.1958085" lon="14.2208373"><ele>505.0</ele><time>2026-05-01T13:07:57.627Z</time></trkpt><trkpt lat="42.1958067" lon="14.2206837"><ele>505.4</ele><time>2026-05-01T13:07:58.652Z</time></trkpt><trkpt lat="42.1958136" lon="14.2205378"><ele>505.8</ele><time>2026-05-01T13:07:59.622Z</time></trkpt><trkpt lat="42.1958324" lon="14.2203981"><ele>506.20000000000005</ele><time>2026-05-01T13:08:00.628Z</time></trkpt><trkpt lat="42.1958599" lon="14.2202618"><ele>506.6</ele><time>2026-05-01T13:08:01.619Z</time></trkpt><trkpt lat="42.1958938" lon="14.2201255"><ele>507.0</ele><time>2026-05-01T13:08:02.597Z</time></trkpt><trkpt lat="42.1959432" lon="14.2199621"><ele>507.20000000000005</ele><time>2026-05-01T13:08:03.604Z</time></trkpt><trkpt lat="42.195994" lon="14.2198161"><ele>507.40000000000003</ele><time>2026-05-01T13:08:04.606Z</time></trkpt><trkpt lat="42.1960566" lon="14.2196979"><ele>507.59999999999997</ele><time>2026-05-01T13:08:05.601Z</time></trkpt><trkpt lat="42.1961341" lon="14.2195998"><ele>507.79999999999995</ele><time>2026-05-01T13:08:06.62Z</time></trkpt><trkpt lat="42.1962178" lon="14.2195166"><ele>508.0</ele><time>2026-05-01T13:08:07.633Z</time></trkpt><trkpt lat="42.1963025" lon="14.2194366"><ele>508.00000000000006</ele><time>2026-05-01T13:08:08.606Z</time></trkpt><trkpt lat="42.1963734" lon="14.219369"><ele>508.0</ele><time>2026-05-01T13:08:09.602Z</time></trkpt><trkpt lat="42.1964371" lon="14.219311"><ele>508.0</ele><time>2026-05-01T13:08:10.606Z</time></trkpt><trkpt lat="42.1964966" lon="14.2192732"><ele>508.0</ele><time>2026-05-01T13:08:11.603Z</time></trkpt><trkpt lat="42.196594" lon="14.219224"><ele>508.00000000000006</ele><time>2026-05-01T13:08:13.629Z</time></trkpt><trkpt lat="42.1967082" lon="14.2192252"><ele>508.0</ele><time>2026-05-01T13:08:15.601Z</time></trkpt><trkpt lat="42.1967765" lon="14.2192221"><ele>506.79999999999995</ele><time>2026-05-01T13:08:16.609Z</time></trkpt><trkpt lat="42.1968871" lon="14.2191518"><ele>505.59999999999997</ele><time>2026-05-01T13:08:18.63Z</time></trkpt><trkpt lat="42.1969644" lon="14.2191214"><ele>504.40000000000003</ele><time>2026-05-01T13:08:19.543Z</time></trkpt><trkpt lat="42.1970312" lon="14.2190814"><ele>503.20000000000005</ele><time>2026-05-01T13:08:20.545Z</time></trkpt><trkpt lat="42.1971302" lon="14.219083"><ele>502.0</ele><time>2026-05-01T13:08:21.531Z</time></trkpt><trkpt lat="42.1972408" lon="14.2190964"><ele>501.25</ele><time>2026-05-01T13:08:22.526Z</time></trkpt><trkpt lat="42.197363" lon="14.2190827"><ele>500.5</ele><time>2026-05-01T13:08:23.528Z</time></trkpt><trkpt lat="42.19749" lon="14.2190685"><ele>499.75</ele><time>2026-05-01T13:08:24.526Z</time></trkpt><trkpt lat="42.1976313" lon="14.2190416"><ele>499.0</ele><time>2026-05-01T13:08:25.524Z</time></trkpt><trkpt lat="42.1977721" lon="14.2190083"><ele>497.6666666666667</ele><time>2026-05-01T13:08:26.531Z</time></trkpt><trkpt lat="42.1979206" lon="14.218975"><ele>496.33333333333337</ele><time>2026-05-01T13:08:27.527Z</time></trkpt><trkpt lat="42.1980613" lon="14.2189247"><ele>495.0</ele><time>2026-05-01T13:08:28.563Z</time></trkpt><trkpt lat="42.1982158" lon="14.2188933"><ele>494.0</ele><time>2026-05-01T13:08:29.536Z</time></trkpt><trkpt lat="42.1983765" lon="14.2188592"><ele>493.0</ele><time>2026-05-01T13:08:30.534Z</time></trkpt><trkpt lat="42.1985148" lon="14.2188056"><ele>492.0</ele><time>2026-05-01T13:08:31.535Z</time></trkpt><trkpt lat="42.1986567" lon="14.2187563"><ele>492.0</ele><time>2026-05-01T13:08:32.538Z</time></trkpt><trkpt lat="42.1988014" lon="14.2186934"><ele>492.0</ele><time>2026-05-01T13:08:33.529Z</time></trkpt><trkpt lat="42.1989538" lon="14.2186215"><ele>492.0</ele><time>2026-05-01T13:08:34.534Z</time></trkpt><trkpt lat="42.1991051" lon="14.2185459"><ele>490.75</ele><time>2026-05-01T13:08:35.526Z</time></trkpt><trkpt lat="42.199249" lon="14.218497"><ele>489.5</ele><time>2026-05-01T13:08:36.526Z</time></trkpt><trkpt lat="42.1993899" lon="14.2184373"><ele>488.25</ele><time>2026-05-01T13:08:37.538Z</time></trkpt><trkpt lat="42.1995365" lon="14.2183855"><ele>487.0</ele><time>2026-05-01T13:08:38.554Z</time></trkpt><trkpt lat="42.1996738" lon="14.2183348"><ele>487.0</ele><time>2026-05-01T13:08:39.537Z</time></trkpt><trkpt lat="42.1998043" lon="14.218295"><ele>487.0</ele><time>2026-05-01T13:08:40.541Z</time></trkpt><trkpt lat="42.1999175" lon="14.2182666"><ele>487.0</ele><time>2026-05-01T13:08:41.533Z</time></trkpt><trkpt lat="42.2000456" lon="14.2182354"><ele>487.0</ele><time>2026-05-01T13:08:42.535Z</time></trkpt><trkpt lat="42.2001883" lon="14.2182305"><ele>486.0</ele><time>2026-05-01T13:08:43.533Z</time></trkpt><trkpt lat="42.2002916" lon="14.2182366"><ele>485.00000000000006</ele><time>2026-05-01T13:08:44.532Z</time></trkpt><trkpt lat="42.2003834" lon="14.2182353"><ele>484.00000000000006</ele><time>2026-05-01T13:08:45.532Z</time></trkpt><trkpt lat="42.2004517" lon="14.218215"><ele>483.0</ele><time>2026-05-01T13:08:46.533Z</time></trkpt><trkpt lat="42.200545" lon="14.2181536"><ele>482.0</ele><time>2026-05-01T13:08:48.535Z</time></trkpt><trkpt lat="42.200643" lon="14.2181112"><ele>480.6</ele><time>2026-05-01T13:08:50.53Z</time></trkpt><trkpt lat="42.2007265" lon="14.2180971"><ele>479.20000000000005</ele><time>2026-05-01T13:08:51.531Z</time></trkpt><trkpt lat="42.2008342" lon="14.2180757"><ele>477.8</ele><time>2026-05-01T13:08:52.533Z</time></trkpt><trkpt lat="42.2009538" lon="14.2180488"><ele>476.4</ele><time>2026-05-01T13:08:53.534Z</time></trkpt><trkpt lat="42.2010697" lon="14.2180214"><ele>475.0</ele><time>2026-05-01T13:08:54.535Z</time></trkpt><trkpt lat="42.201196" lon="14.2179936"><ele>475.0</ele><time>2026-05-01T13:08:55.527Z</time></trkpt><trkpt lat="42.2013301" lon="14.2179699"><ele>475.0</ele><time>2026-05-01T13:08:56.524Z</time></trkpt><trkpt lat="42.2014744" lon="14.2179523"><ele>475.0</ele><time>2026-05-01T13:08:57.527Z</time></trkpt><trkpt lat="42.2016326" lon="14.2179591"><ele>475.0</ele><time>2026-05-01T13:08:58.544Z</time></trkpt><trkpt lat="42.2018147" lon="14.2179788"><ele>474.0</ele><time>2026-05-01T13:08:59.52Z</time></trkpt><trkpt lat="42.2019887" lon="14.2180113"><ele>473.0</ele><time>2026-05-01T13:09:00.517Z</time></trkpt><trkpt lat="42.2021433" lon="14.2180603"><ele>472.0</ele><time>2026-05-01T13:09:01.519Z</time></trkpt><trkpt lat="42.2022985" lon="14.218102"><ele>471.25</ele><time>2026-05-01T13:09:02.514Z</time></trkpt><trkpt lat="42.2024426" lon="14.2181138"><ele>470.5</ele><time>2026-05-01T13:09:03.518Z</time></trkpt><trkpt lat="42.2025643" lon="14.2181241"><ele>469.75</ele><time>2026-05-01T13:09:04.515Z</time></trkpt><trkpt lat="42.2026822" lon="14.2181087"><ele>469.0</ele><time>2026-05-01T13:09:05.522Z</time></trkpt><trkpt lat="42.2028106" lon="14.218071"><ele>469.0</ele><time>2026-05-01T13:09:06.522Z</time></trkpt><trkpt lat="42.2029308" lon="14.2180529"><ele>469.0</ele><time>2026-05-01T13:09:07.517Z</time></trkpt><trkpt lat="42.203048" lon="14.2180218"><ele>469.0</ele><time>2026-05-01T13:09:08.525Z</time></trkpt><trkpt lat="42.2031537" lon="14.2179808"><ele>469.0</ele><time>2026-05-01T13:09:09.536Z</time></trkpt><trkpt lat="42.2032549" lon="14.2179143"><ele>466.75</ele><time>2026-05-01T13:09:10.528Z</time></trkpt><trkpt lat="42.2033613" lon="14.2178159"><ele>464.5</ele><time>2026-05-01T13:09:11.524Z</time></trkpt><trkpt lat="42.2034723" lon="14.2177106"><ele>462.25</ele><time>2026-05-01T13:09:12.53Z</time></trkpt><trkpt lat="42.2035804" lon="14.2176121"><ele>460.0</ele><time>2026-05-01T13:09:13.528Z</time></trkpt><trkpt lat="42.203688" lon="14.2175166"><ele>460.0</ele><time>2026-05-01T13:09:14.529Z</time></trkpt><trkpt lat="42.2037879" lon="14.2174304"><ele>460.0</ele><time>2026-05-01T13:09:15.526Z</time></trkpt><trkpt lat="42.2038851" lon="14.2173534"><ele>460.0</ele><time>2026-05-01T13:09:16.521Z</time></trkpt><trkpt lat="42.2039832" lon="14.2172943"><ele>460.0</ele><time>2026-05-01T13:09:17.522Z</time></trkpt><trkpt lat="42.2040818" lon="14.2172707"><ele>460.0</ele><time>2026-05-01T13:09:18.53Z</time></trkpt><trkpt lat="42.2041894" lon="14.217298"><ele>460.6</ele><time>2026-05-01T13:09:19.522Z</time></trkpt><trkpt lat="42.2042901" lon="14.2173211"><ele>461.2</ele><time>2026-05-01T13:09:20.528Z</time></trkpt><trkpt lat="42.2043842" lon="14.2173226"><ele>461.79999999999995</ele><time>2026-05-01T13:09:21.524Z</time></trkpt><trkpt lat="42.2044685" lon="14.2172916"><ele>462.4</ele><time>2026-05-01T13:09:22.526Z</time></trkpt><trkpt lat="42.2045604" lon="14.2172622"><ele>463.0</ele><time>2026-05-01T13:09:23.52Z</time></trkpt><trkpt lat="42.2046542" lon="14.2172228"><ele>463.00000000000006</ele><time>2026-05-01T13:09:24.531Z</time></trkpt><trkpt lat="42.2047455" lon="14.2171895"><ele>463.0</ele><time>2026-05-01T13:09:25.529Z</time></trkpt><trkpt lat="42.2048177" lon="14.2171559"><ele>463.0</ele><time>2026-05-01T13:09:26.53Z</time></trkpt><trkpt lat="42.2048876" lon="14.2171279"><ele>463.0</ele><time>2026-05-01T13:09:27.525Z</time></trkpt><trkpt lat="42.2050063" lon="14.2170737"><ele>463.00000000000006</ele><time>2026-05-01T13:09:29.527Z</time></trkpt><trkpt lat="42.2050683" lon="14.2170483"><ele>463.0</ele><time>2026-05-01T13:09:30.533Z</time></trkpt><trkpt lat="42.2051367" lon="14.2170326"><ele>462.33333333333337</ele><time>2026-05-01T13:09:31.527Z</time></trkpt><trkpt lat="42.2052105" lon="14.2170155"><ele>461.6666666666667</ele><time>2026-05-01T13:09:32.523Z</time></trkpt><trkpt lat="42.205283" lon="14.216995"><ele>461.0</ele><time>2026-05-01T13:09:33.521Z</time></trkpt><trkpt lat="42.2053506" lon="14.21697"><ele>460.33333333333337</ele><time>2026-05-01T13:09:34.528Z</time></trkpt><trkpt lat="42.2054206" lon="14.2169597"><ele>459.6666666666667</ele><time>2026-05-01T13:09:35.523Z</time></trkpt><trkpt lat="42.205521" lon="14.2169419"><ele>459.0</ele><time>2026-05-01T13:09:37.524Z</time></trkpt><trkpt lat="42.2056039" lon="14.2170315"><ele>459.0</ele><time>2026-05-01T13:09:39.525Z</time></trkpt><trkpt lat="42.205634" lon="14.2171212"><ele>459.0</ele><time>2026-05-01T13:09:40.543Z</time></trkpt><trkpt lat="42.2056694" lon="14.2172341"><ele>459.0</ele><time>2026-05-01T13:09:41.533Z</time></trkpt><trkpt lat="42.2057179" lon="14.2173326"><ele>459.0</ele><time>2026-05-01T13:09:42.53Z</time></trkpt><trkpt lat="42.2057541" lon="14.2174122"><ele>459.0</ele><time>2026-05-01T13:09:43.53Z</time></trkpt><trkpt lat="42.2057903" lon="14.2174986"><ele>459.0</ele><time>2026-05-01T13:09:44.526Z</time></trkpt><trkpt lat="42.2058314" lon="14.2175779"><ele>456.5</ele><time>2026-05-01T13:09:45.533Z</time></trkpt><trkpt lat="42.2058692" lon="14.2176676"><ele>454.0</ele><time>2026-05-01T13:09:46.535Z</time></trkpt><trkpt lat="42.2059177" lon="14.2177577"><ele>451.5</ele><time>2026-05-01T13:09:47.535Z</time></trkpt><trkpt lat="42.2059709" lon="14.2178635"><ele>449.0</ele><time>2026-05-01T13:09:48.534Z</time></trkpt><trkpt lat="42.2060219" lon="14.2179718"><ele>446.5</ele><time>2026-05-01T13:09:49.538Z</time></trkpt><trkpt lat="42.2060779" lon="14.2180831"><ele>444.0</ele><time>2026-05-01T13:09:50.539Z</time></trkpt><trkpt lat="42.2061439" lon="14.2181978"><ele>442.79999999999995</ele><time>2026-05-01T13:09:51.533Z</time></trkpt><trkpt lat="42.20622" lon="14.218297"><ele>441.59999999999997</ele><time>2026-05-01T13:09:52.535Z</time></trkpt><trkpt lat="42.2063083" lon="14.2183794"><ele>440.4</ele><time>2026-05-01T13:09:53.532Z</time></trkpt><trkpt lat="42.2064045" lon="14.2184513"><ele>439.2</ele><time>2026-05-01T13:09:54.537Z</time></trkpt><trkpt lat="42.206501" lon="14.2185067"><ele>438.0</ele><time>2026-05-01T13:09:55.537Z</time></trkpt><trkpt lat="42.2065894" lon="14.2185687"><ele>436.59999999999997</ele><time>2026-05-01T13:09:56.544Z</time></trkpt><trkpt lat="42.206676" lon="14.2186302"><ele>435.19999999999993</ele><time>2026-05-01T13:09:57.541Z</time></trkpt><trkpt lat="42.2067512" lon="14.2187129"><ele>433.8</ele><time>2026-05-01T13:09:58.554Z</time></trkpt><trkpt lat="42.2068147" lon="14.2188343"><ele>432.4</ele><time>2026-05-01T13:09:59.531Z</time></trkpt><trkpt lat="42.2068749" lon="14.2189771"><ele>431.0</ele><time>2026-05-01T13:10:00.545Z</time></trkpt><trkpt lat="42.2069431" lon="14.219119"><ele>430.4</ele><time>2026-05-01T13:10:01.543Z</time></trkpt><trkpt lat="42.2069981" lon="14.2192571"><ele>429.8</ele><time>2026-05-01T13:10:02.542Z</time></trkpt><trkpt lat="42.2070489" lon="14.2193891"><ele>429.19999999999993</ele><time>2026-05-01T13:10:03.541Z</time></trkpt><trkpt lat="42.2070924" lon="14.219516"><ele>428.59999999999997</ele><time>2026-05-01T13:10:04.536Z</time></trkpt><trkpt lat="42.2071378" lon="14.2196296"><ele>428.0</ele><time>2026-05-01T13:10:05.537Z</time></trkpt><trkpt lat="42.2071783" lon="14.2197382"><ele>427.3333333333333</ele><time>2026-05-01T13:10:06.542Z</time></trkpt><trkpt lat="42.2072337" lon="14.219846"><ele>426.66666666666663</ele><time>2026-05-01T13:10:07.542Z</time></trkpt><trkpt lat="42.2072915" lon="14.2199392"><ele>426.0</ele><time>2026-05-01T13:10:08.539Z</time></trkpt><trkpt lat="42.2073583" lon="14.2200007"><ele>425.33333333333337</ele><time>2026-05-01T13:10:09.538Z</time></trkpt><trkpt lat="42.2074292" lon="14.2200342"><ele>424.6666666666667</ele><time>2026-05-01T13:10:10.534Z</time></trkpt><trkpt lat="42.2075089" lon="14.2200352"><ele>424.0</ele><time>2026-05-01T13:10:11.554Z</time></trkpt><trkpt lat="42.2076167" lon="14.2200056"><ele>423.14285714285717</ele><time>2026-05-01T13:10:13.534Z</time></trkpt><trkpt lat="42.2076876" lon="14.2200012"><ele>422.2857142857143</ele><time>2026-05-01T13:10:16.553Z</time></trkpt><trkpt lat="42.2077565" lon="14.2200148"><ele>421.42857142857144</ele><time>2026-05-01T13:10:24.555Z</time></trkpt><trkpt lat="42.2078083" lon="14.2200721"><ele>420.57142857142856</ele><time>2026-05-01T13:10:26.557Z</time></trkpt><trkpt lat="42.2078261" lon="14.2201931"><ele>419.71428571428567</ele><time>2026-05-01T13:10:28.578Z</time></trkpt><trkpt lat="42.2078895" lon="14.2202393"><ele>418.85714285714283</ele><time>2026-05-01T13:10:31.56Z</time></trkpt><trkpt lat="42.2079478" lon="14.2202027"><ele>418.0</ele><time>2026-05-01T13:10:33.558Z</time></trkpt><trkpt lat="42.2080312" lon="14.2202063"><ele>418.00000000000006</ele><time>2026-05-01T13:10:36.563Z</time></trkpt><trkpt lat="42.2080949" lon="14.2202892"><ele>418.0</ele><time>2026-05-01T13:10:39.566Z</time></trkpt><trkpt lat="42.2081347" lon="14.2203642"><ele>418.0</ele><time>2026-05-01T13:10:41.56Z</time></trkpt><trkpt lat="42.2081966" lon="14.2204264"><ele>418.0</ele><time>2026-05-01T13:10:44.559Z</time></trkpt><trkpt lat="42.2082758" lon="14.2203738"><ele>418.00000000000006</ele><time>2026-05-01T13:10:46.563Z</time></trkpt><trkpt lat="42.2083803" lon="14.220297"><ele>418.0</ele><time>2026-05-01T13:10:48.564Z</time></trkpt><trkpt lat="42.2084385" lon="14.2202629"><ele>416.0</ele><time>2026-05-01T13:10:49.557Z</time></trkpt><trkpt lat="42.2084986" lon="14.2202169"><ele>414.0</ele><time>2026-05-01T13:10:50.557Z</time></trkpt><trkpt lat="42.2085544" lon="14.2201759"><ele>412.0</ele><time>2026-05-01T13:10:51.553Z</time></trkpt><trkpt lat="42.2086404" lon="14.2200945"><ele>410.0</ele><time>2026-05-01T13:10:53.552Z</time></trkpt><trkpt lat="42.2087513" lon="14.2199907"><ele>408.0</ele><time>2026-05-01T13:10:55.539Z</time></trkpt><trkpt lat="42.2088511" lon="14.2199345"><ele>408.0</ele><time>2026-05-01T13:10:57.535Z</time></trkpt><trkpt lat="42.2089491" lon="14.2199337"><ele>408.0</ele><time>2026-05-01T13:10:59.545Z</time></trkpt><trkpt lat="42.2090146" lon="14.2199506"><ele>408.0</ele><time>2026-05-01T13:11:00.536Z</time></trkpt><trkpt lat="42.2090822" lon="14.2199723"><ele>408.0</ele><time>2026-05-01T13:11:01.545Z</time></trkpt><trkpt lat="42.2091446" lon="14.2199918"><ele>408.0</ele><time>2026-05-01T13:11:02.542Z</time></trkpt><trkpt lat="42.209258" lon="14.220034"><ele>408.0</ele><time>2026-05-01T13:11:04.549Z</time></trkpt><trkpt lat="42.209359" lon="14.2200639"><ele>405.79999999999995</ele><time>2026-05-01T13:11:06.55Z</time></trkpt><trkpt lat="42.2094409" lon="14.220075"><ele>403.6</ele><time>2026-05-01T13:11:08.554Z</time></trkpt><trkpt lat="42.2095346" lon="14.2200621"><ele>401.4</ele><time>2026-05-01T13:11:10.557Z</time></trkpt><trkpt lat="42.2096405" lon="14.2199551"><ele>399.20000000000005</ele><time>2026-05-01T13:11:12.545Z</time></trkpt><trkpt lat="42.2096843" lon="14.2198669"><ele>397.0</ele><time>2026-05-01T13:11:13.565Z</time></trkpt><trkpt lat="42.2097272" lon="14.2197711"><ele>397.00000000000006</ele><time>2026-05-01T13:11:14.555Z</time></trkpt><trkpt lat="42.2097595" lon="14.2196821"><ele>397.0</ele><time>2026-05-01T13:11:15.549Z</time></trkpt><trkpt lat="42.2097837" lon="14.2195937"><ele>397.0</ele><time>2026-05-01T13:11:16.55Z</time></trkpt><trkpt lat="42.2097882" lon="14.2194485"><ele>397.0</ele><time>2026-05-01T13:11:18.555Z</time></trkpt><trkpt lat="42.2097906" lon="14.2193402"><ele>397.00000000000006</ele><time>2026-05-01T13:11:21.56Z</time></trkpt><trkpt lat="42.2098604" lon="14.2194369"><ele>397.0</ele><time>2026-05-01T13:11:25.56Z</time></trkpt><trkpt lat="42.2098571" lon="14.2195266"><ele>397.0</ele><time>2026-05-01T13:11:26.555Z</time></trkpt><trkpt lat="42.2098505" lon="14.2196456"><ele>397.0</ele><time>2026-05-01T13:11:27.551Z</time></trkpt><trkpt lat="42.2098476" lon="14.2197822"><ele>397.0</ele><time>2026-05-01T13:11:28.583Z</time></trkpt><trkpt lat="42.209842" lon="14.2199316"><ele>397.0</ele><time>2026-05-01T13:11:29.619Z</time></trkpt><trkpt lat="42.2098312" lon="14.2200913"><ele>397.0</ele><time>2026-05-01T13:11:30.623Z</time></trkpt><trkpt lat="42.2098243" lon="14.2202478"><ele>397.0</ele><time>2026-05-01T13:11:31.628Z</time></trkpt><trkpt lat="42.209822" lon="14.2203866"><ele>397.0</ele><time>2026-05-01T13:11:32.619Z</time></trkpt><trkpt lat="42.2098186" lon="14.2205062"><ele>397.0</ele><time>2026-05-01T13:11:33.619Z</time></trkpt><trkpt lat="42.2098241" lon="14.2206266"><ele>397.0</ele><time>2026-05-01T13:11:34.618Z</time></trkpt><trkpt lat="42.2098318" lon="14.2207181"><ele>397.0</ele><time>2026-05-01T13:11:36.613Z</time></trkpt><trkpt lat="42.2099049" lon="14.2208352"><ele>395.83333333333337</ele><time>2026-05-01T13:11:39.61Z</time></trkpt><trkpt lat="42.2100073" lon="14.2207708"><ele>394.6666666666667</ele><time>2026-05-01T13:11:41.54Z</time></trkpt><trkpt lat="42.2100738" lon="14.2207321"><ele>393.5</ele><time>2026-05-01T13:11:42.538Z</time></trkpt><trkpt lat="42.2101677" lon="14.220716"><ele>392.33333333333337</ele><time>2026-05-01T13:11:44.571Z</time></trkpt><trkpt lat="42.2102626" lon="14.2207235"><ele>391.1666666666667</ele><time>2026-05-01T13:11:47.544Z</time></trkpt><trkpt lat="42.2103315" lon="14.2207282"><ele>390.0</ele><time>2026-05-01T13:11:49.546Z</time></trkpt><trkpt lat="42.2103946" lon="14.2207765"><ele>390.0</ele><time>2026-05-01T13:11:51.543Z</time></trkpt><trkpt lat="42.2104479" lon="14.2208685"><ele>390.0</ele><time>2026-05-01T13:11:53.544Z</time></trkpt><trkpt lat="42.2105044" lon="14.2209166"><ele>390.0</ele><time>2026-05-01T13:11:55.539Z</time></trkpt><trkpt lat="42.210599" lon="14.220891"><ele>390.0</ele><time>2026-05-01T13:11:57.544Z</time></trkpt><trkpt lat="42.2106626" lon="14.2208592"><ele>390.0</ele><time>2026-05-01T13:11:58.562Z</time></trkpt><trkpt lat="42.2107298" lon="14.2208358"><ele>390.0</ele><time>2026-05-01T13:11:59.547Z</time></trkpt><trkpt lat="42.2107935" lon="14.2208158"><ele>389.1428571428571</ele><time>2026-05-01T13:12:00.547Z</time></trkpt><trkpt lat="42.2108587" lon="14.2208095"><ele>388.2857142857143</ele><time>2026-05-01T13:12:01.546Z</time></trkpt><trkpt lat="42.2109278" lon="14.2207968"><ele>387.42857142857144</ele><time>2026-05-01T13:12:02.554Z</time></trkpt><trkpt lat="42.2110012" lon="14.2207877"><ele>386.57142857142856</ele><time>2026-05-01T13:12:03.546Z</time></trkpt><trkpt lat="42.2110789" lon="14.2207775"><ele>385.7142857142857</ele><time>2026-05-01T13:12:04.549Z</time></trkpt><trkpt lat="42.2111571" lon="14.22076"><ele>384.85714285714283</ele><time>2026-05-01T13:12:05.545Z</time></trkpt><trkpt lat="42.2112332" lon="14.220743"><ele>384.0</ele><time>2026-05-01T13:12:06.548Z</time></trkpt><trkpt lat="42.2112996" lon="14.2207195"><ele>384.0</ele><time>2026-05-01T13:12:07.547Z</time></trkpt><trkpt lat="42.2113676" lon="14.2207042"><ele>384.0</ele><time>2026-05-01T13:12:08.556Z</time></trkpt><trkpt lat="42.2114397" lon="14.2206883"><ele>384.0</ele><time>2026-05-01T13:12:09.552Z</time></trkpt><trkpt lat="42.2115019" lon="14.2206581"><ele>384.0</ele><time>2026-05-01T13:12:10.558Z</time></trkpt><trkpt lat="42.211565" lon="14.2206332"><ele>384.0</ele><time>2026-05-01T13:12:11.555Z</time></trkpt><trkpt lat="42.2116862" lon="14.220601"><ele>384.0</ele><time>2026-05-01T13:12:13.556Z</time></trkpt><trkpt lat="42.2117503" lon="14.2205998"><ele>381.99999999999994</ele><time>2026-05-01T13:12:14.568Z</time></trkpt><trkpt lat="42.211833" lon="14.2205765"><ele>380.0</ele><time>2026-05-01T13:12:16.553Z</time></trkpt><trkpt lat="42.2119038" lon="14.2205475"><ele>378.0</ele><time>2026-05-01T13:12:32.564Z</time></trkpt><trkpt lat="42.2119612" lon="14.2205082"><ele>376.0</ele><time>2026-05-01T13:16:20.552Z</time></trkpt><trkpt lat="42.2120066" lon="14.2204472"><ele>374.0</ele><time>2026-05-01T13:16:24.558Z</time></trkpt><trkpt lat="42.2120397" lon="14.2203636"><ele>371.99999999999994</ele><time>2026-05-01T13:16:33.556Z</time></trkpt><trkpt lat="42.2120737" lon="14.2202875"><ele>370.0</ele><time>2026-05-01T13:16:57.563Z</time></trkpt><trkpt lat="42.2121376" lon="14.220254"><ele>369.99999999999994</ele><time>2026-05-01T13:17:03.551Z</time></trkpt><trkpt lat="42.2121988" lon="14.2202145"><ele>370.0</ele><time>2026-05-01T13:17:07.559Z</time></trkpt><trkpt lat="42.2122627" lon="14.2202264"><ele>370.0</ele><time>2026-05-01T13:17:11.555Z</time></trkpt><trkpt lat="42.2123205" lon="14.2202876"><ele>370.0</ele><time>2026-05-01T13:17:14.559Z</time></trkpt><trkpt lat="42.2123226" lon="14.2203972"><ele>370.0</ele><time>2026-05-01T13:17:16.552Z</time></trkpt><trkpt lat="42.2123074" lon="14.2204987"><ele>369.99999999999994</ele><time>2026-05-01T13:17:17.546Z</time></trkpt><trkpt lat="42.2123014" lon="14.2205865"><ele>370.0</ele><time>2026-05-01T13:17:18.548Z</time></trkpt><trkpt lat="42.2123251" lon="14.2207109"><ele>370.3333333333333</ele><time>2026-05-01T13:17:20.545Z</time></trkpt><trkpt lat="42.2123658" lon="14.220812"><ele>370.66666666666663</ele><time>2026-05-01T13:17:22.533Z</time></trkpt><trkpt lat="42.2124461" lon="14.2207966"><ele>371.0</ele><time>2026-05-01T13:17:41.563Z</time></trkpt><trkpt lat="42.2125037" lon="14.2207558"><ele>371.3333333333333</ele><time>2026-05-01T13:17:43.564Z</time></trkpt><trkpt lat="42.2125837" lon="14.2207216"><ele>371.6666666666667</ele><time>2026-05-01T13:18:06.563Z</time></trkpt><trkpt lat="42.2126755" lon="14.220672"><ele>372.0</ele><time>2026-05-01T13:18:08.567Z</time></trkpt><trkpt lat="42.2127708" lon="14.2206214"><ele>372.0</ele><time>2026-05-01T13:18:10.568Z</time></trkpt><trkpt lat="42.2128491" lon="14.2205849"><ele>372.0</ele><time>2026-05-01T13:18:16.551Z</time></trkpt><trkpt lat="42.2129248" lon="14.2205375"><ele>372.0</ele><time>2026-05-01T13:18:18.564Z</time></trkpt><trkpt lat="42.2129968" lon="14.2204655"><ele>372.0</ele><time>2026-05-01T13:18:20.565Z</time></trkpt><trkpt lat="42.2130558" lon="14.2204252"><ele>372.0</ele><time>2026-05-01T13:18:22.569Z</time></trkpt><trkpt lat="42.2131115" lon="14.2203775"><ele>372.0</ele><time>2026-05-01T13:18:25.565Z</time></trkpt><trkpt lat="42.2131866" lon="14.2203022"><ele>372.8</ele><time>2026-05-01T13:18:27.567Z</time></trkpt><trkpt lat="42.2132682" lon="14.2202104"><ele>373.6</ele><time>2026-05-01T13:18:29.557Z</time></trkpt><trkpt lat="42.2133772" lon="14.2201466"><ele>374.40000000000003</ele><time>2026-05-01T13:18:31.551Z</time></trkpt><trkpt lat="42.2134598" lon="14.2200863"><ele>375.20000000000005</ele><time>2026-05-01T13:18:33.556Z</time></trkpt><trkpt lat="42.2135362" lon="14.2199978"><ele>376.0</ele><time>2026-05-01T13:18:35.547Z</time></trkpt><trkpt lat="42.2136174" lon="14.2199103"><ele>376.0</ele><time>2026-05-01T13:18:37.549Z</time></trkpt><trkpt lat="42.2136748" lon="14.2198716"><ele>376.0</ele><time>2026-05-01T13:18:38.549Z</time></trkpt><trkpt lat="42.2137703" lon="14.2197717"><ele>376.0</ele><time>2026-05-01T13:18:40.55Z</time></trkpt><trkpt lat="42.2138542" lon="14.2196699"><ele>376.0</ele><time>2026-05-01T13:18:42.539Z</time></trkpt><trkpt lat="42.2139429" lon="14.219581"><ele>376.0</ele><time>2026-05-01T13:18:44.542Z</time></trkpt><trkpt lat="42.2140261" lon="14.2194955"><ele>374.20000000000005</ele><time>2026-05-01T13:18:46.544Z</time></trkpt><trkpt lat="42.2140922" lon="14.2193792"><ele>372.40000000000003</ele><time>2026-05-01T13:18:48.541Z</time></trkpt><trkpt lat="42.2141488" lon="14.2192633"><ele>370.6</ele><time>2026-05-01T13:18:50.547Z</time></trkpt><trkpt lat="42.2141901" lon="14.2191669"><ele>368.8</ele><time>2026-05-01T13:18:52.557Z</time></trkpt><trkpt lat="42.2142335" lon="14.2190417"><ele>367.0</ele><time>2026-05-01T13:18:54.542Z</time></trkpt><trkpt lat="42.2142885" lon="14.2189349"><ele>364.5</ele><time>2026-05-01T13:18:56.55Z</time></trkpt><trkpt lat="42.2143585" lon="14.2188364"><ele>362.0</ele><time>2026-05-01T13:18:58.566Z</time></trkpt><trkpt lat="42.2144167" lon="14.2187761"><ele>359.5</ele><time>2026-05-01T13:18:59.541Z</time></trkpt><trkpt lat="42.2144912" lon="14.2187287"><ele>357.0</ele><time>2026-05-01T13:19:00.544Z</time></trkpt><trkpt lat="42.2145554" lon="14.2186748"><ele>354.5</ele><time>2026-05-01T13:19:01.545Z</time></trkpt><trkpt lat="42.214619" lon="14.218601"><ele>352.0</ele><time>2026-05-01T13:19:02.55Z</time></trkpt><trkpt lat="42.2146773" lon="14.2185432"><ele>352.0</ele><time>2026-05-01T13:19:03.543Z</time></trkpt><trkpt lat="42.2147681" lon="14.2184358"><ele>352.0</ele><time>2026-05-01T13:19:05.538Z</time></trkpt><trkpt lat="42.2148551" lon="14.2183286"><ele>352.0</ele><time>2026-05-01T13:19:07.537Z</time></trkpt><trkpt lat="42.2149333" lon="14.2182312"><ele>352.0</ele><time>2026-05-01T13:19:09.54Z</time></trkpt><trkpt lat="42.2149929" lon="14.218161"><ele>352.0</ele><time>2026-05-01T13:19:10.547Z</time></trkpt><trkpt lat="42.2150529" lon="14.2180986"><ele>351.3333333333333</ele><time>2026-05-01T13:19:11.545Z</time></trkpt><trkpt lat="42.2151189" lon="14.218028"><ele>350.66666666666663</ele><time>2026-05-01T13:19:12.545Z</time></trkpt><trkpt lat="42.215181" lon="14.2179563"><ele>350.0</ele><time>2026-05-01T13:19:13.542Z</time></trkpt><trkpt lat="42.215246" lon="14.2179001"><ele>349.3333333333333</ele><time>2026-05-01T13:19:14.537Z</time></trkpt><trkpt lat="42.2153184" lon="14.2178518"><ele>348.6666666666667</ele><time>2026-05-01T13:19:15.54Z</time></trkpt><trkpt lat="42.21539" lon="14.2178087"><ele>348.0</ele><time>2026-05-01T13:19:16.545Z</time></trkpt><trkpt lat="42.2154605" lon="14.2177674"><ele>348.0</ele><time>2026-05-01T13:19:17.541Z</time></trkpt><trkpt lat="42.2155368" lon="14.2177253"><ele>348.0</ele><time>2026-05-01T13:19:18.545Z</time></trkpt><trkpt lat="42.2155926" lon="14.217675"><ele>348.0</ele><time>2026-05-01T13:19:19.541Z</time></trkpt><trkpt lat="42.2156487" lon="14.2176294"><ele>348.0</ele><time>2026-05-01T13:19:20.545Z</time></trkpt><trkpt lat="42.2157098" lon="14.2175735"><ele>348.0</ele><time>2026-05-01T13:19:21.542Z</time></trkpt><trkpt lat="42.2157676" lon="14.2175211"><ele>348.0</ele><time>2026-05-01T13:19:22.544Z</time></trkpt><trkpt lat="42.2158265" lon="14.2174681"><ele>348.0</ele><time>2026-05-01T13:19:23.544Z</time></trkpt><trkpt lat="42.2158822" lon="14.2174132"><ele>348.79999999999995</ele><time>2026-05-01T13:19:24.543Z</time></trkpt><trkpt lat="42.2159765" lon="14.2173255"><ele>349.6</ele><time>2026-05-01T13:19:26.543Z</time></trkpt><trkpt lat="42.2160611" lon="14.2172464"><ele>350.4</ele><time>2026-05-01T13:19:28.572Z</time></trkpt><trkpt lat="42.2161624" lon="14.2171601"><ele>351.20000000000005</ele><time>2026-05-01T13:19:30.541Z</time></trkpt><trkpt lat="42.2162465" lon="14.2170597"><ele>352.0</ele><time>2026-05-01T13:19:32.545Z</time></trkpt><trkpt lat="42.21634" lon="14.2169811"><ele>350.0</ele><time>2026-05-01T13:19:34.54Z</time></trkpt><trkpt lat="42.2164558" lon="14.2168763"><ele>348.0</ele><time>2026-05-01T13:19:36.537Z</time></trkpt><trkpt lat="42.2165233" lon="14.2168367"><ele>346.0</ele><time>2026-05-01T13:19:37.538Z</time></trkpt><trkpt lat="42.2166356" lon="14.2167873"><ele>344.0</ele><time>2026-05-01T13:19:39.541Z</time></trkpt><trkpt lat="42.2167329" lon="14.2167326"><ele>342.0</ele><time>2026-05-01T13:19:41.54Z</time></trkpt><trkpt lat="42.2168187" lon="14.2166723"><ele>342.0</ele><time>2026-05-01T13:19:43.542Z</time></trkpt><trkpt lat="42.2169403" lon="14.2166041"><ele>342.0</ele><time>2026-05-01T13:19:45.546Z</time></trkpt><trkpt lat="42.2170139" lon="14.2165494"><ele>342.0</ele><time>2026-05-01T13:19:46.542Z</time></trkpt><trkpt lat="42.2170779" lon="14.2164915"><ele>342.0</ele><time>2026-05-01T13:19:47.536Z</time></trkpt><trkpt lat="42.2171363" lon="14.2164284"><ele>342.0</ele><time>2026-05-01T13:19:48.538Z</time></trkpt><trkpt lat="42.2172062" lon="14.2163851"><ele>342.0</ele><time>2026-05-01T13:19:49.539Z</time></trkpt><trkpt lat="42.2172733" lon="14.2163486"><ele>341.1666666666667</ele><time>2026-05-01T13:19:50.538Z</time></trkpt><trkpt lat="42.217332" lon="14.2163127"><ele>340.3333333333333</ele><time>2026-05-01T13:19:51.535Z</time></trkpt><trkpt lat="42.2173949" lon="14.2162654"><ele>339.5</ele><time>2026-05-01T13:19:52.545Z</time></trkpt><trkpt lat="42.2174605" lon="14.2162227"><ele>338.66666666666663</ele><time>2026-05-01T13:19:53.538Z</time></trkpt><trkpt lat="42.2175744" lon="14.2162305"><ele>337.8333333333333</ele><time>2026-05-01T13:19:55.543Z</time></trkpt><trkpt lat="42.2176197" lon="14.2163513"><ele>337.0</ele><time>2026-05-01T13:19:57.548Z</time></trkpt><trkpt lat="42.217672" lon="14.2164606"><ele>338.40000000000003</ele><time>2026-05-01T13:19:59.556Z</time></trkpt><trkpt lat="42.2177315" lon="14.2165596"><ele>339.8</ele><time>2026-05-01T13:20:01.527Z</time></trkpt><trkpt lat="42.2177511" lon="14.2166859"><ele>341.2</ele><time>2026-05-01T13:20:03.528Z</time></trkpt><trkpt lat="42.2177418" lon="14.2168111"><ele>342.6</ele><time>2026-05-01T13:20:05.53Z</time></trkpt><trkpt lat="42.2176225" lon="14.2168548"><ele>344.0</ele><time>2026-05-01T13:20:07.546Z</time></trkpt><trkpt lat="42.2175468" lon="14.2168525"><ele>344.00000000000006</ele><time>2026-05-01T13:20:08.529Z</time></trkpt><trkpt lat="42.2174526" lon="14.2168655"><ele>344.0</ele><time>2026-05-01T13:20:10.551Z</time></trkpt><trkpt lat="42.2175039" lon="14.2169238"><ele>344.0</ele><time>2026-05-01T13:20:12.549Z</time></trkpt><trkpt lat="42.2175707" lon="14.2169302"><ele>344.0</ele><time>2026-05-01T13:20:13.559Z</time></trkpt><trkpt lat="42.2176426" lon="14.216926"><ele>344.0</ele><time>2026-05-01T13:20:14.542Z</time></trkpt><trkpt lat="42.2177229" lon="14.2169263"><ele>344.00000000000006</ele><time>2026-05-01T13:20:15.542Z</time></trkpt><trkpt lat="42.217788" lon="14.2169263"><ele>344.0</ele><time>2026-05-01T13:20:16.543Z</time></trkpt><trkpt lat="42.2178513" lon="14.2169053"><ele>344.0</ele><time>2026-05-01T13:20:17.546Z</time></trkpt><trkpt lat="42.2179241" lon="14.2168948"><ele>344.0</ele><time>2026-05-01T13:20:18.542Z</time></trkpt><trkpt lat="42.2179969" lon="14.216905"><ele>344.0</ele><time>2026-05-01T13:20:19.537Z</time></trkpt><trkpt lat="42.2180971" lon="14.2169772"><ele>344.0</ele><time>2026-05-01T13:20:21.541Z</time></trkpt><trkpt lat="42.2181545" lon="14.2170471"><ele>344.0</ele><time>2026-05-01T13:20:22.537Z</time></trkpt><trkpt lat="42.2182104" lon="14.21712"><ele>344.0</ele><time>2026-05-01T13:20:23.536Z</time></trkpt><trkpt lat="42.2182611" lon="14.2171792"><ele>344.5</ele><time>2026-05-01T13:20:24.539Z</time></trkpt><trkpt lat="42.2183364" lon="14.2172301"><ele>345.0</ele><time>2026-05-01T13:20:26.529Z</time></trkpt><trkpt lat="42.2183896" lon="14.2171664"><ele>345.5</ele><time>2026-05-01T13:20:28.592Z</time></trkpt><trkpt lat="42.2184167" lon="14.2170761"><ele>346.0</ele><time>2026-05-01T13:20:29.554Z</time></trkpt><trkpt lat="42.2184388" lon="14.2169671"><ele>346.5</ele><time>2026-05-01T13:20:30.555Z</time></trkpt><trkpt lat="42.2184839" lon="14.2168846"><ele>347.0</ele><time>2026-05-01T13:20:31.543Z</time></trkpt><trkpt lat="42.2185425" lon="14.2168096"><ele>347.0</ele><time>2026-05-01T13:20:32.543Z</time></trkpt><trkpt lat="42.2186209" lon="14.2167518"><ele>347.0</ele><time>2026-05-01T13:20:33.544Z</time></trkpt><trkpt lat="42.2187064" lon="14.2166958"><ele>347.0</ele><time>2026-05-01T13:20:34.545Z</time></trkpt><trkpt lat="42.2187894" lon="14.2166255"><ele>347.0</ele><time>2026-05-01T13:20:35.546Z</time></trkpt><trkpt lat="42.218874" lon="14.2165536"><ele>347.0</ele><time>2026-05-01T13:20:36.543Z</time></trkpt><trkpt lat="42.2189519" lon="14.2164762"><ele>345.8</ele><time>2026-05-01T13:20:37.548Z</time></trkpt><trkpt lat="42.2190203" lon="14.216389"><ele>344.6</ele><time>2026-05-01T13:20:38.564Z</time></trkpt><trkpt lat="42.2190896" lon="14.2162996"><ele>343.40000000000003</ele><time>2026-05-01T13:20:39.635Z</time></trkpt><trkpt lat="42.2191606" lon="14.2162108"><ele>342.20000000000005</ele><time>2026-05-01T13:20:40.629Z</time></trkpt><trkpt lat="42.2192258" lon="14.2161128"><ele>341.0</ele><time>2026-05-01T13:20:41.63Z</time></trkpt><trkpt lat="42.2192871" lon="14.2160085"><ele>341.0</ele><time>2026-05-01T13:20:42.632Z</time></trkpt><trkpt lat="42.2193388" lon="14.2158968"><ele>341.0</ele><time>2026-05-01T13:20:43.608Z</time></trkpt><trkpt lat="42.2193883" lon="14.2157733"><ele>341.0</ele><time>2026-05-01T13:20:44.613Z</time></trkpt><trkpt lat="42.219439" lon="14.2156454"><ele>341.0</ele><time>2026-05-01T13:20:45.612Z</time></trkpt><trkpt lat="42.2194917" lon="14.2155062"><ele>341.0</ele><time>2026-05-01T13:20:46.616Z</time></trkpt><trkpt lat="42.2195434" lon="14.2153686"><ele>339.0</ele><time>2026-05-01T13:20:47.63Z</time></trkpt><trkpt lat="42.2195922" lon="14.2152448"><ele>337.0</ele><time>2026-05-01T13:20:48.625Z</time></trkpt><trkpt lat="42.2196491" lon="14.2151241"><ele>335.0</ele><time>2026-05-01T13:20:49.642Z</time></trkpt><trkpt lat="42.2197069" lon="14.2149945"><ele>333.0</ele><time>2026-05-01T13:20:50.627Z</time></trkpt><trkpt lat="42.2197706" lon="14.2148597"><ele>331.0</ele><time>2026-05-01T13:20:51.612Z</time></trkpt><trkpt lat="42.2198356" lon="14.214724"><ele>330.0</ele><time>2026-05-01T13:20:52.611Z</time></trkpt><trkpt lat="42.2198976" lon="14.2145846"><ele>329.0</ele><time>2026-05-01T13:20:53.605Z</time></trkpt><trkpt lat="42.2199534" lon="14.2144437"><ele>328.0</ele><time>2026-05-01T13:20:54.606Z</time></trkpt><trkpt lat="42.2200001" lon="14.2143042"><ele>327.0</ele><time>2026-05-01T13:20:55.626Z</time></trkpt><trkpt lat="42.220042" lon="14.2141706"><ele>327.0</ele><time>2026-05-01T13:20:56.627Z</time></trkpt><trkpt lat="42.2200786" lon="14.2140538"><ele>327.0</ele><time>2026-05-01T13:20:57.619Z</time></trkpt><trkpt lat="42.2201104" lon="14.2139563"><ele>327.0</ele><time>2026-05-01T13:20:58.638Z</time></trkpt><trkpt lat="42.2201388" lon="14.2138749"><ele>327.0</ele><time>2026-05-01T13:20:59.631Z</time></trkpt><trkpt lat="42.2201143" lon="14.2137524"><ele>327.0</ele><time>2026-05-01T13:21:01.636Z</time></trkpt><trkpt lat="42.2200192" lon="14.2136437"><ele>326.0</ele><time>2026-05-01T13:21:03.514Z</time></trkpt><trkpt lat="42.2199378" lon="14.2136311"><ele>325.0</ele><time>2026-05-01T13:21:04.53Z</time></trkpt><trkpt lat="42.2198515" lon="14.2135459"><ele>324.0</ele><time>2026-05-01T13:21:06.539Z</time></trkpt><trkpt lat="42.2198614" lon="14.2134572"><ele>323.0</ele><time>2026-05-01T13:21:07.538Z</time></trkpt><trkpt lat="42.2199113" lon="14.2133548"><ele>322.0</ele><time>2026-05-01T13:21:08.528Z</time></trkpt><trkpt lat="42.2199685" lon="14.2132646"><ele>321.0</ele><time>2026-05-01T13:21:09.531Z</time></trkpt><trkpt lat="42.2200236" lon="14.2131689"><ele>321.20000000000005</ele><time>2026-05-01T13:21:10.523Z</time></trkpt><trkpt lat="42.2200843" lon="14.2130658"><ele>321.40000000000003</ele><time>2026-05-01T13:21:11.52Z</time></trkpt><trkpt lat="42.2201542" lon="14.2129648"><ele>321.6</ele><time>2026-05-01T13:21:12.524Z</time></trkpt><trkpt lat="42.2202397" lon="14.2128636"><ele>321.8</ele><time>2026-05-01T13:21:13.527Z</time></trkpt><trkpt lat="42.2203288" lon="14.2127594"><ele>322.0</ele><time>2026-05-01T13:21:14.53Z</time></trkpt><trkpt lat="42.220429" lon="14.2126529"><ele>322.0</ele><time>2026-05-01T13:21:15.532Z</time></trkpt><trkpt lat="42.2205216" lon="14.2125512"><ele>322.0</ele><time>2026-05-01T13:21:16.542Z</time></trkpt><trkpt lat="42.2206077" lon="14.2124463"><ele>322.0</ele><time>2026-05-01T13:21:17.54Z</time></trkpt><trkpt lat="42.2206996" lon="14.2123317"><ele>322.0</ele><time>2026-05-01T13:21:18.538Z</time></trkpt><trkpt lat="42.2207946" lon="14.2122161"><ele>321.5</ele><time>2026-05-01T13:21:19.545Z</time></trkpt><trkpt lat="42.2208827" lon="14.2120964"><ele>321.0</ele><time>2026-05-01T13:21:20.542Z</time></trkpt><trkpt lat="42.2209658" lon="14.2119646"><ele>320.5</ele><time>2026-05-01T13:21:21.54Z</time></trkpt><trkpt lat="42.2210564" lon="14.2118492"><ele>320.0</ele><time>2026-05-01T13:21:22.538Z</time></trkpt><trkpt lat="42.221161" lon="14.2117537"><ele>320.0</ele><time>2026-05-01T13:21:23.538Z</time></trkpt><trkpt lat="42.2212671" lon="14.2116773"><ele>320.0</ele><time>2026-05-01T13:21:24.538Z</time></trkpt><trkpt lat="42.2214048" lon="14.2116086"><ele>320.0</ele><time>2026-05-01T13:21:25.536Z</time></trkpt><trkpt lat="42.2215527" lon="14.2115348"><ele>320.0</ele><time>2026-05-01T13:21:26.543Z</time></trkpt><trkpt lat="42.2216738" lon="14.2114586"><ele>318.5</ele><time>2026-05-01T13:21:27.542Z</time></trkpt><trkpt lat="42.2218043" lon="14.2113932"><ele>317.0</ele><time>2026-05-01T13:21:28.554Z</time></trkpt><trkpt lat="42.2219114" lon="14.2113426"><ele>315.5</ele><time>2026-05-01T13:21:29.54Z</time></trkpt><trkpt lat="42.2220101" lon="14.2112903"><ele>314.0</ele><time>2026-05-01T13:21:30.539Z</time></trkpt><trkpt lat="42.2221028" lon="14.2112496"><ele>314.0</ele><time>2026-05-01T13:21:31.553Z</time></trkpt><trkpt lat="42.2222096" lon="14.2112251"><ele>314.0</ele><time>2026-05-01T13:21:32.542Z</time></trkpt><trkpt lat="42.222322" lon="14.2111896"><ele>314.0</ele><time>2026-05-01T13:21:33.541Z</time></trkpt><trkpt lat="42.222424" lon="14.2111518"><ele>314.0</ele><time>2026-05-01T13:21:34.54Z</time></trkpt><trkpt lat="42.2225186" lon="14.2111119"><ele>314.0</ele><time>2026-05-01T13:21:35.543Z</time></trkpt><trkpt lat="42.222615" lon="14.2110597"><ele>313.2</ele><time>2026-05-01T13:21:36.542Z</time></trkpt><trkpt lat="42.2227061" lon="14.2110014"><ele>312.4</ele><time>2026-05-01T13:21:37.54Z</time></trkpt><trkpt lat="42.2227987" lon="14.2109368"><ele>311.6</ele><time>2026-05-01T13:21:38.537Z</time></trkpt><trkpt lat="42.222885" lon="14.2108657"><ele>310.8</ele><time>2026-05-01T13:21:39.535Z</time></trkpt><trkpt lat="42.2229637" lon="14.2107929"><ele>310.0</ele><time>2026-05-01T13:21:40.544Z</time></trkpt><trkpt lat="42.2230373" lon="14.2107194"><ele>310.2</ele><time>2026-05-01T13:21:41.546Z</time></trkpt><trkpt lat="42.2231112" lon="14.2106474"><ele>310.4</ele><time>2026-05-01T13:21:42.541Z</time></trkpt><trkpt lat="42.2231794" lon="14.2105753"><ele>310.6</ele><time>2026-05-01T13:21:43.542Z</time></trkpt><trkpt lat="42.2232539" lon="14.2104875"><ele>310.8</ele><time>2026-05-01T13:21:44.536Z</time></trkpt><trkpt lat="42.2233361" lon="14.2103901"><ele>311.0</ele><time>2026-05-01T13:21:45.532Z</time></trkpt><trkpt lat="42.2234293" lon="14.2102738"><ele>310.6</ele><time>2026-05-01T13:21:46.542Z</time></trkpt><trkpt lat="42.223505" lon="14.2101606"><ele>310.20000000000005</ele><time>2026-05-01T13:21:47.542Z</time></trkpt><trkpt lat="42.223579" lon="14.2100587"><ele>309.79999999999995</ele><time>2026-05-01T13:21:48.545Z</time></trkpt><trkpt lat="42.2236535" lon="14.2099794"><ele>309.4</ele><time>2026-05-01T13:21:49.538Z</time></trkpt><trkpt lat="42.2237263" lon="14.2099012"><ele>309.0</ele><time>2026-05-01T13:21:50.542Z</time></trkpt><trkpt lat="42.2238037" lon="14.2098412"><ele>309.0</ele><time>2026-05-01T13:21:51.537Z</time></trkpt><trkpt lat="42.2238854" lon="14.2098153"><ele>309.0</ele><time>2026-05-01T13:21:52.534Z</time></trkpt><trkpt lat="42.2239852" lon="14.2098222"><ele>309.0</ele><time>2026-05-01T13:21:53.536Z</time></trkpt><trkpt lat="42.2241025" lon="14.2098628"><ele>309.0</ele><time>2026-05-01T13:21:54.54Z</time></trkpt><trkpt lat="42.2242052" lon="14.2098926"><ele>309.0</ele><time>2026-05-01T13:21:55.536Z</time></trkpt><trkpt lat="42.2243042" lon="14.2099016"><ele>309.0</ele><time>2026-05-01T13:21:56.528Z</time></trkpt><trkpt lat="42.2243893" lon="14.2098622"><ele>309.0</ele><time>2026-05-01T13:21:57.522Z</time></trkpt><trkpt lat="42.2244509" lon="14.2097934"><ele>309.0</ele><time>2026-05-01T13:21:58.547Z</time></trkpt><trkpt lat="42.2245035" lon="14.209703"><ele>309.0</ele><time>2026-05-01T13:21:59.532Z</time></trkpt><trkpt lat="42.2245463" lon="14.2096105"><ele>309.0</ele><time>2026-05-01T13:22:00.538Z</time></trkpt><trkpt lat="42.2245926" lon="14.209537"><ele>309.0</ele><time>2026-05-01T13:22:01.535Z</time></trkpt><trkpt lat="42.2246535" lon="14.2094664"><ele>309.3333333333333</ele><time>2026-05-01T13:22:02.549Z</time></trkpt><trkpt lat="42.2247138" lon="14.2093914"><ele>309.6666666666667</ele><time>2026-05-01T13:22:03.533Z</time></trkpt><trkpt lat="42.2247824" lon="14.2092991"><ele>310.0</ele><time>2026-05-01T13:22:04.533Z</time></trkpt><trkpt lat="42.2248452" lon="14.2092239"><ele>310.33333333333337</ele><time>2026-05-01T13:22:05.533Z</time></trkpt><trkpt lat="42.2249275" lon="14.2091825"><ele>310.6666666666667</ele><time>2026-05-01T13:22:06.535Z</time></trkpt><trkpt lat="42.2250172" lon="14.2091501"><ele>311.0</ele><time>2026-05-01T13:22:07.527Z</time></trkpt><trkpt lat="42.2251284" lon="14.209134"><ele>310.0</ele><time>2026-05-01T13:22:08.531Z</time></trkpt><trkpt lat="42.2252387" lon="14.2091165"><ele>309.0</ele><time>2026-05-01T13:22:09.524Z</time></trkpt><trkpt lat="42.2253665" lon="14.2090658"><ele>308.0</ele><time>2026-05-01T13:22:10.532Z</time></trkpt><trkpt lat="42.2255046" lon="14.2089758"><ele>307.0</ele><time>2026-05-01T13:22:11.537Z</time></trkpt><trkpt lat="42.2256483" lon="14.2088757"><ele>306.0</ele><time>2026-05-01T13:22:12.533Z</time></trkpt><trkpt lat="42.2257845" lon="14.2088088"><ele>305.0</ele><time>2026-05-01T13:22:13.521Z</time></trkpt><trkpt lat="42.2259014" lon="14.2087726"><ele>304.0</ele><time>2026-05-01T13:22:14.531Z</time></trkpt><trkpt lat="42.226001" lon="14.2087468"><ele>303.0</ele><time>2026-05-01T13:22:15.538Z</time></trkpt><trkpt lat="42.2260896" lon="14.2087236"><ele>303.0</ele><time>2026-05-01T13:22:16.54Z</time></trkpt><trkpt lat="42.2261566" lon="14.2086804"><ele>303.0</ele><time>2026-05-01T13:22:17.535Z</time></trkpt><trkpt lat="42.2262187" lon="14.2086167"><ele>303.0</ele><time>2026-05-01T13:22:18.518Z</time></trkpt><trkpt lat="42.2262681" lon="14.2085216"><ele>303.0</ele><time>2026-05-01T13:22:19.521Z</time></trkpt><trkpt lat="42.2263206" lon="14.2084041"><ele>303.0</ele><time>2026-05-01T13:22:20.534Z</time></trkpt><trkpt lat="42.2263738" lon="14.2082516"><ele>302.6</ele><time>2026-05-01T13:22:21.53Z</time></trkpt><trkpt lat="42.2264245" lon="14.2080944"><ele>302.20000000000005</ele><time>2026-05-01T13:22:22.534Z</time></trkpt><trkpt lat="42.2264822" lon="14.2079579"><ele>301.8</ele><time>2026-05-01T13:22:23.537Z</time></trkpt><trkpt lat="42.2265226" lon="14.2078272"><ele>301.40000000000003</ele><time>2026-05-01T13:22:24.535Z</time></trkpt><trkpt lat="42.2265507" lon="14.2077114"><ele>301.0</ele><time>2026-05-01T13:22:25.537Z</time></trkpt><trkpt lat="42.2265987" lon="14.2076052"><ele>300.5</ele><time>2026-05-01T13:22:26.531Z</time></trkpt><trkpt lat="42.226673" lon="14.2074959"><ele>300.0</ele><time>2026-05-01T13:22:27.529Z</time></trkpt><trkpt lat="42.2267725" lon="14.2073955"><ele>299.5</ele><time>2026-05-01T13:22:28.547Z</time></trkpt><trkpt lat="42.2268936" lon="14.2073048"><ele>299.0</ele><time>2026-05-01T13:22:29.53Z</time></trkpt><trkpt lat="42.227026" lon="14.2072281"><ele>298.75</ele><time>2026-05-01T13:22:30.538Z</time></trkpt><trkpt lat="42.2271654" lon="14.2071571"><ele>298.5</ele><time>2026-05-01T13:22:31.536Z</time></trkpt><trkpt lat="42.2272923" lon="14.2071023"><ele>298.25</ele><time>2026-05-01T13:22:32.537Z</time></trkpt><trkpt lat="42.2273961" lon="14.2070359"><ele>298.0</ele><time>2026-05-01T13:22:33.546Z</time></trkpt><trkpt lat="42.2274984" lon="14.2069771"><ele>297.2</ele><time>2026-05-01T13:22:34.533Z</time></trkpt><trkpt lat="42.2275801" lon="14.2068887"><ele>296.4</ele><time>2026-05-01T13:22:35.526Z</time></trkpt><trkpt lat="42.2276356" lon="14.2067751"><ele>295.59999999999997</ele><time>2026-05-01T13:22:36.525Z</time></trkpt><trkpt lat="42.227659" lon="14.2066352"><ele>294.8</ele><time>2026-05-01T13:22:37.527Z</time></trkpt><trkpt lat="42.2276894" lon="14.206472"><ele>294.0</ele><time>2026-05-01T13:22:38.526Z</time></trkpt><trkpt lat="42.2277293" lon="14.2063227"><ele>293.5</ele><time>2026-05-01T13:22:39.527Z</time></trkpt><trkpt lat="42.2277652" lon="14.2061942"><ele>293.0</ele><time>2026-05-01T13:22:40.525Z</time></trkpt><trkpt lat="42.2278042" lon="14.2060898"><ele>292.5</ele><time>2026-05-01T13:22:41.524Z</time></trkpt><trkpt lat="42.2278404" lon="14.2060004"><ele>292.0</ele><time>2026-05-01T13:22:42.529Z</time></trkpt><trkpt lat="42.2278603" lon="14.2059196"><ele>291.5</ele><time>2026-05-01T13:22:43.532Z</time></trkpt><trkpt lat="42.2278622" lon="14.2058226"><ele>291.0</ele><time>2026-05-01T13:22:44.528Z</time></trkpt><trkpt lat="42.2278458" lon="14.2057125"><ele>290.8333333333333</ele><time>2026-05-01T13:22:45.532Z</time></trkpt><trkpt lat="42.2277909" lon="14.2055989"><ele>290.6666666666667</ele><time>2026-05-01T13:22:46.537Z</time></trkpt><trkpt lat="42.2277401" lon="14.2054878"><ele>290.5</ele><time>2026-05-01T13:22:47.535Z</time></trkpt><trkpt lat="42.2277195" lon="14.2053796"><ele>290.33333333333337</ele><time>2026-05-01T13:22:48.525Z</time></trkpt><trkpt lat="42.2277262" lon="14.2052774"><ele>290.1666666666667</ele><time>2026-05-01T13:22:49.526Z</time></trkpt><trkpt lat="42.2277543" lon="14.2051807"><ele>290.0</ele><time>2026-05-01T13:22:50.529Z</time></trkpt><trkpt lat="42.2277918" lon="14.2051038"><ele>290.0</ele><time>2026-05-01T13:22:51.527Z</time></trkpt><trkpt lat="42.2278832" lon="14.2049903"><ele>290.0</ele><time>2026-05-01T13:22:53.529Z</time></trkpt><trkpt lat="42.2279397" lon="14.204947"><ele>290.0</ele><time>2026-05-01T13:22:54.528Z</time></trkpt><trkpt lat="42.2280248" lon="14.2049285"><ele>290.0</ele><time>2026-05-01T13:22:55.531Z</time></trkpt><trkpt lat="42.2281153" lon="14.2048998"><ele>290.0</ele><time>2026-05-01T13:22:56.536Z</time></trkpt><trkpt lat="42.2282041" lon="14.204847"><ele>290.0</ele><time>2026-05-01T13:22:57.535Z</time></trkpt><trkpt lat="42.2282769" lon="14.2047674"><ele>290.0</ele><time>2026-05-01T13:22:58.546Z</time></trkpt><trkpt lat="42.2283449" lon="14.2046584"><ele>290.0</ele><time>2026-05-01T13:22:59.529Z</time></trkpt><trkpt lat="42.2284027" lon="14.2045222"><ele>290.0</ele><time>2026-05-01T13:23:00.54Z</time></trkpt><trkpt lat="42.2284618" lon="14.2043818"><ele>290.0</ele><time>2026-05-01T13:23:01.533Z</time></trkpt><trkpt lat="42.2285056" lon="14.2042451"><ele>290.0</ele><time>2026-05-01T13:23:02.541Z</time></trkpt><trkpt lat="42.2285512" lon="14.2041357"><ele>290.0</ele><time>2026-05-01T13:23:03.537Z</time></trkpt><trkpt lat="42.2286013" lon="14.2040497"><ele>290.0</ele><time>2026-05-01T13:23:04.551Z</time></trkpt><trkpt lat="42.2286685" lon="14.2039842"><ele>290.0</ele><time>2026-05-01T13:23:05.532Z</time></trkpt><trkpt lat="42.228745" lon="14.20393"><ele>290.0</ele><time>2026-05-01T13:23:06.537Z</time></trkpt><trkpt lat="42.2288353" lon="14.2038896"><ele>290.0</ele><time>2026-05-01T13:23:07.538Z</time></trkpt><trkpt lat="42.2289261" lon="14.2038523"><ele>289.6</ele><time>2026-05-01T13:23:08.535Z</time></trkpt><trkpt lat="42.2290099" lon="14.2038169"><ele>289.2</ele><time>2026-05-01T13:23:09.537Z</time></trkpt><trkpt lat="42.2291075" lon="14.2037668"><ele>288.8</ele><time>2026-05-01T13:23:10.532Z</time></trkpt><trkpt lat="42.2292087" lon="14.2037048"><ele>288.4</ele><time>2026-05-01T13:23:11.534Z</time></trkpt><trkpt lat="42.2292888" lon="14.2036339"><ele>288.0</ele><time>2026-05-01T13:23:12.538Z</time></trkpt><trkpt lat="42.2293716" lon="14.2035627"><ele>288.0</ele><time>2026-05-01T13:23:13.539Z</time></trkpt><trkpt lat="42.2294485" lon="14.2034981"><ele>288.0</ele><time>2026-05-01T13:23:14.539Z</time></trkpt><trkpt lat="42.2295184" lon="14.2034154"><ele>288.0</ele><time>2026-05-01T13:23:15.537Z</time></trkpt><trkpt lat="42.2295675" lon="14.2033167"><ele>288.0</ele><time>2026-05-01T13:23:16.53Z</time></trkpt><trkpt lat="42.2295992" lon="14.2031858"><ele>288.0</ele><time>2026-05-01T13:23:17.528Z</time></trkpt><trkpt lat="42.2296167" lon="14.2030315"><ele>287.0</ele><time>2026-05-01T13:23:18.525Z</time></trkpt><trkpt lat="42.2296237" lon="14.2028511"><ele>286.0</ele><time>2026-05-01T13:23:19.532Z</time></trkpt><trkpt lat="42.2296206" lon="14.2026764"><ele>285.0</ele><time>2026-05-01T13:23:20.536Z</time></trkpt><trkpt lat="42.2296303" lon="14.2025296"><ele>284.0</ele><time>2026-05-01T13:23:21.525Z</time></trkpt><trkpt lat="42.2296684" lon="14.2023907"><ele>283.75</ele><time>2026-05-01T13:23:22.526Z</time></trkpt><trkpt lat="42.2297315" lon="14.2022458"><ele>283.5</ele><time>2026-05-01T13:23:23.522Z</time></trkpt><trkpt lat="42.2298081" lon="14.2021226"><ele>283.25</ele><time>2026-05-01T13:23:24.524Z</time></trkpt><trkpt lat="42.2298876" lon="14.2020036"><ele>283.0</ele><time>2026-05-01T13:23:25.523Z</time></trkpt><trkpt lat="42.2299697" lon="14.201901"><ele>283.0</ele><time>2026-05-01T13:23:26.529Z</time></trkpt><trkpt lat="42.2300641" lon="14.2018097"><ele>283.0</ele><time>2026-05-01T13:23:27.523Z</time></trkpt><trkpt lat="42.230176" lon="14.2017196"><ele>283.0</ele><time>2026-05-01T13:23:28.568Z</time></trkpt><trkpt lat="42.2303085" lon="14.2016466"><ele>283.0</ele><time>2026-05-01T13:23:29.528Z</time></trkpt><trkpt lat="42.230453" lon="14.2015715"><ele>282.75</ele><time>2026-05-01T13:23:30.536Z</time></trkpt><trkpt lat="42.2305801" lon="14.2014766"><ele>282.5</ele><time>2026-05-01T13:23:31.531Z</time></trkpt><trkpt lat="42.2306868" lon="14.2013639"><ele>282.25</ele><time>2026-05-01T13:23:32.538Z</time></trkpt><trkpt lat="42.2307866" lon="14.2012027"><ele>282.0</ele><time>2026-05-01T13:23:33.534Z</time></trkpt><trkpt lat="42.2308735" lon="14.2010298"><ele>282.0</ele><time>2026-05-01T13:23:34.535Z</time></trkpt><trkpt lat="42.2309299" lon="14.2008626"><ele>282.0</ele><time>2026-05-01T13:23:35.54Z</time></trkpt><trkpt lat="42.2310122" lon="14.2006904"><ele>282.0</ele><time>2026-05-01T13:23:36.542Z</time></trkpt><trkpt lat="42.231105" lon="14.200532"><ele>282.0</ele><time>2026-05-01T13:23:37.543Z</time></trkpt><trkpt lat="42.2312402" lon="14.2004078"><ele>281.0</ele><time>2026-05-01T13:23:38.559Z</time></trkpt><trkpt lat="42.2313672" lon="14.2002724"><ele>280.0</ele><time>2026-05-01T13:23:39.619Z</time></trkpt><trkpt lat="42.2314861" lon="14.2001273"><ele>279.0</ele><time>2026-05-01T13:23:40.615Z</time></trkpt><trkpt lat="42.2315946" lon="14.1999855"><ele>279.0</ele><time>2026-05-01T13:23:41.627Z</time></trkpt><trkpt lat="42.231697" lon="14.1998502"><ele>279.0</ele><time>2026-05-01T13:23:42.622Z</time></trkpt><trkpt lat="42.2317754" lon="14.1997418"><ele>279.0</ele><time>2026-05-01T13:23:43.629Z</time></trkpt><trkpt lat="42.2318524" lon="14.1996691"><ele>279.0</ele><time>2026-05-01T13:23:44.616Z</time></trkpt><trkpt lat="42.2319191" lon="14.1996007"><ele>279.0</ele><time>2026-05-01T13:23:45.62Z</time></trkpt><trkpt lat="42.2319629" lon="14.1995256"><ele>278.25</ele><time>2026-05-01T13:23:46.605Z</time></trkpt><trkpt lat="42.2320273" lon="14.1994082"><ele>277.5</ele><time>2026-05-01T13:23:47.602Z</time></trkpt><trkpt lat="42.2321015" lon="14.199276"><ele>276.75</ele><time>2026-05-01T13:23:48.601Z</time></trkpt><trkpt lat="42.2321827" lon="14.1991518"><ele>276.0</ele><time>2026-05-01T13:23:49.606Z</time></trkpt><trkpt lat="42.2322509" lon="14.1990172"><ele>275.2</ele><time>2026-05-01T13:23:50.619Z</time></trkpt><trkpt lat="42.2323182" lon="14.1989019"><ele>274.40000000000003</ele><time>2026-05-01T13:23:51.624Z</time></trkpt><trkpt lat="42.2323923" lon="14.1987817"><ele>273.6</ele><time>2026-05-01T13:23:52.623Z</time></trkpt><trkpt lat="42.2324638" lon="14.1986718"><ele>272.8</ele><time>2026-05-01T13:23:53.619Z</time></trkpt><trkpt lat="42.2325355" lon="14.1985628"><ele>272.0</ele><time>2026-05-01T13:23:54.629Z</time></trkpt><trkpt lat="42.2326066" lon="14.1984579"><ele>272.0</ele><time>2026-05-01T13:23:55.624Z</time></trkpt><trkpt lat="42.2326742" lon="14.1983538"><ele>272.0</ele><time>2026-05-01T13:23:56.626Z</time></trkpt><trkpt lat="42.2327437" lon="14.1982492"><ele>272.0</ele><time>2026-05-01T13:23:57.619Z</time></trkpt><trkpt lat="42.2328129" lon="14.1981471"><ele>272.0</ele><time>2026-05-01T13:23:58.637Z</time></trkpt><trkpt lat="42.2328664" lon="14.1980506"><ele>272.0</ele><time>2026-05-01T13:23:59.618Z</time></trkpt><trkpt lat="42.2328939" lon="14.1979704"><ele>271.0</ele><time>2026-05-01T13:24:00.61Z</time></trkpt><trkpt lat="42.2329343" lon="14.1978115"><ele>270.0</ele><time>2026-05-01T13:24:02.607Z</time></trkpt><trkpt lat="42.2329549" lon="14.1976709"><ele>269.0</ele><time>2026-05-01T13:24:04.604Z</time></trkpt><trkpt lat="42.2329703" lon="14.1975322"><ele>268.0</ele><time>2026-05-01T13:24:06.643Z</time></trkpt><trkpt lat="42.232991" lon="14.1974313"><ele>267.0</ele><time>2026-05-01T13:24:09.637Z</time></trkpt><trkpt lat="42.2329651" lon="14.1973513"><ele>267.0</ele><time>2026-05-01T13:24:29.546Z</time></trkpt><trkpt lat="42.232947" lon="14.1974903"><ele>267.0</ele><time>2026-05-01T13:24:33.542Z</time></trkpt><trkpt lat="42.2329278" lon="14.1976286"><ele>267.0</ele><time>2026-05-01T13:24:35.544Z</time></trkpt><trkpt lat="42.2329239" lon="14.1977287"><ele>267.0</ele><time>2026-05-01T13:24:37.556Z</time></trkpt><trkpt lat="42.2329876" lon="14.1977844"><ele>267.0</ele><time>2026-05-01T13:24:59.541Z</time></trkpt><trkpt lat="42.2330798" lon="14.1977941"><ele>267.0</ele><time>2026-05-01T13:25:01.541Z</time></trkpt><trkpt lat="42.2331453" lon="14.1977978"><ele>267.0</ele><time>2026-05-01T13:25:03.542Z</time></trkpt><trkpt lat="42.233223" lon="14.1977567"><ele>267.0</ele><time>2026-05-01T13:25:05.54Z</time></trkpt><trkpt lat="42.2333164" lon="14.1976606"><ele>267.0</ele><time>2026-05-01T13:25:07.533Z</time></trkpt><trkpt lat="42.2333716" lon="14.1976026"><ele>267.0</ele><time>2026-05-01T13:25:08.545Z</time></trkpt><trkpt lat="42.2334367" lon="14.1975468"><ele>267.0</ele><time>2026-05-01T13:25:09.532Z</time></trkpt><trkpt lat="42.2335004" lon="14.1974859"><ele>267.0</ele><time>2026-05-01T13:25:10.518Z</time></trkpt><trkpt lat="42.2335712" lon="14.1974361"><ele>267.0</ele><time>2026-05-01T13:25:11.53Z</time></trkpt><trkpt lat="42.2336395" lon="14.1973915"><ele>267.0</ele><time>2026-05-01T13:25:12.53Z</time></trkpt><trkpt lat="42.2336888" lon="14.1973156"><ele>267.0</ele><time>2026-05-01T13:25:13.526Z</time></trkpt><trkpt lat="42.2337324" lon="14.1972243"><ele>267.0</ele><time>2026-05-01T13:25:14.522Z</time></trkpt><trkpt lat="42.2337677" lon="14.1971123"><ele>267.0</ele><time>2026-05-01T13:25:15.528Z</time></trkpt><trkpt lat="42.2337992" lon="14.1970067"><ele>267.0</ele><time>2026-05-01T13:25:16.534Z</time></trkpt><trkpt lat="42.2338297" lon="14.1969217"><ele>267.0</ele><time>2026-05-01T13:25:17.531Z</time></trkpt><trkpt lat="42.2338792" lon="14.1968444"><ele>267.0</ele><time>2026-05-01T13:25:18.535Z</time></trkpt><trkpt lat="42.2339293" lon="14.1967601"><ele>267.0</ele><time>2026-05-01T13:25:19.533Z</time></trkpt><trkpt lat="42.2339733" lon="14.1966642"><ele>267.0</ele><time>2026-05-01T13:25:20.529Z</time></trkpt><trkpt lat="42.2340091" lon="14.1965646"><ele>267.0</ele><time>2026-05-01T13:25:21.526Z</time></trkpt><trkpt lat="42.2340339" lon="14.196466"><ele>266.8</ele><time>2026-05-01T13:25:22.532Z</time></trkpt><trkpt lat="42.2340603" lon="14.1963621"><ele>266.6</ele><time>2026-05-01T13:25:23.529Z</time></trkpt><trkpt lat="42.2340954" lon="14.1962564"><ele>266.40000000000003</ele><time>2026-05-01T13:25:24.528Z</time></trkpt><trkpt lat="42.2341425" lon="14.1961422"><ele>266.2</ele><time>2026-05-01T13:25:25.531Z</time></trkpt><trkpt lat="42.2341994" lon="14.1960265"><ele>266.0</ele><time>2026-05-01T13:25:26.527Z</time></trkpt><trkpt lat="42.2342488" lon="14.1959092"><ele>266.0</ele><time>2026-05-01T13:25:27.523Z</time></trkpt><trkpt lat="42.2342967" lon="14.1957976"><ele>266.0</ele><time>2026-05-01T13:25:28.542Z</time></trkpt><trkpt lat="42.2343438" lon="14.1957181"><ele>266.0</ele><time>2026-05-01T13:25:29.524Z</time></trkpt><trkpt lat="42.2344138" lon="14.195638"><ele>266.0</ele><time>2026-05-01T13:25:30.534Z</time></trkpt><trkpt lat="42.234488" lon="14.1955665"><ele>266.0</ele><time>2026-05-01T13:25:31.524Z</time></trkpt><trkpt lat="42.2345584" lon="14.195484"><ele>266.0</ele><time>2026-05-01T13:25:32.524Z</time></trkpt><trkpt lat="42.2346363" lon="14.1953892"><ele>266.0</ele><time>2026-05-01T13:25:33.528Z</time></trkpt><trkpt lat="42.2347124" lon="14.1952993"><ele>266.0</ele><time>2026-05-01T13:25:34.524Z</time></trkpt><trkpt lat="42.2347604" lon="14.1952137"><ele>266.0</ele><time>2026-05-01T13:25:35.522Z</time></trkpt><trkpt lat="42.2348158" lon="14.1951525"><ele>266.0</ele><time>2026-05-01T13:25:36.528Z</time></trkpt><trkpt lat="42.2348822" lon="14.1950983"><ele>266.0</ele><time>2026-05-01T13:25:37.523Z</time></trkpt><trkpt lat="42.2349552" lon="14.1950463"><ele>266.0</ele><time>2026-05-01T13:25:38.53Z</time></trkpt><trkpt lat="42.2350238" lon="14.1949834"><ele>266.0</ele><time>2026-05-01T13:25:39.553Z</time></trkpt><trkpt lat="42.2350916" lon="14.1949028"><ele>266.0</ele><time>2026-05-01T13:25:40.525Z</time></trkpt><trkpt lat="42.2351724" lon="14.1948022"><ele>266.0</ele><time>2026-05-01T13:25:41.53Z</time></trkpt><trkpt lat="42.2352574" lon="14.1947103"><ele>266.0</ele><time>2026-05-01T13:25:42.527Z</time></trkpt><trkpt lat="42.2353463" lon="14.1946317"><ele>266.0</ele><time>2026-05-01T13:25:43.532Z</time></trkpt><trkpt lat="42.2354273" lon="14.194567"><ele>265.83333333333337</ele><time>2026-05-01T13:25:44.533Z</time></trkpt><trkpt lat="42.2354921" lon="14.1945033"><ele>265.6666666666667</ele><time>2026-05-01T13:25:45.532Z</time></trkpt><trkpt lat="42.2355433" lon="14.1944441"><ele>265.5</ele><time>2026-05-01T13:25:46.534Z</time></trkpt><trkpt lat="42.2356111" lon="14.1943917"><ele>265.3333333333333</ele><time>2026-05-01T13:25:47.53Z</time></trkpt><trkpt lat="42.2356859" lon="14.1943497"><ele>265.16666666666663</ele><time>2026-05-01T13:25:48.535Z</time></trkpt><trkpt lat="42.2357688" lon="14.1943163"><ele>265.0</ele><time>2026-05-01T13:25:49.531Z</time></trkpt><trkpt lat="42.2358698" lon="14.1942753"><ele>265.0</ele><time>2026-05-01T13:25:50.531Z</time></trkpt><trkpt lat="42.2359565" lon="14.1942206"><ele>265.0</ele><time>2026-05-01T13:25:51.532Z</time></trkpt><trkpt lat="42.2360269" lon="14.1941425"><ele>265.0</ele><time>2026-05-01T13:25:52.527Z</time></trkpt><trkpt lat="42.2360809" lon="14.1940241"><ele>265.0</ele><time>2026-05-01T13:25:53.522Z</time></trkpt><trkpt lat="42.236133" lon="14.1939035"><ele>265.0</ele><time>2026-05-01T13:25:54.527Z</time></trkpt><trkpt lat="42.2361737" lon="14.1937898"><ele>264.4</ele><time>2026-05-01T13:25:55.53Z</time></trkpt><trkpt lat="42.2362044" lon="14.1936785"><ele>263.8</ele><time>2026-05-01T13:25:56.531Z</time></trkpt><trkpt lat="42.2362388" lon="14.1935463"><ele>263.2</ele><time>2026-05-01T13:25:57.543Z</time></trkpt><trkpt lat="42.2362756" lon="14.1934268"><ele>262.6</ele><time>2026-05-01T13:25:58.557Z</time></trkpt><trkpt lat="42.2363114" lon="14.1932848"><ele>262.0</ele><time>2026-05-01T13:25:59.54Z</time></trkpt><trkpt lat="42.2363423" lon="14.1931544"><ele>262.16666666666663</ele><time>2026-05-01T13:26:00.537Z</time></trkpt><trkpt lat="42.2363748" lon="14.1930132"><ele>262.3333333333333</ele><time>2026-05-01T13:26:01.539Z</time></trkpt><trkpt lat="42.236396" lon="14.1928865"><ele>262.5</ele><time>2026-05-01T13:26:02.539Z</time></trkpt><trkpt lat="42.2364097" lon="14.1927674"><ele>262.6666666666667</ele><time>2026-05-01T13:26:03.534Z</time></trkpt><trkpt lat="42.2364275" lon="14.1926779"><ele>262.83333333333337</ele><time>2026-05-01T13:26:04.538Z</time></trkpt><trkpt lat="42.236463" lon="14.1925846"><ele>263.0</ele><time>2026-05-01T13:26:05.537Z</time></trkpt><trkpt lat="42.2365049" lon="14.1924703"><ele>263.0</ele><time>2026-05-01T13:26:06.532Z</time></trkpt><trkpt lat="42.2365498" lon="14.1923401"><ele>263.0</ele><time>2026-05-01T13:26:07.533Z</time></trkpt><trkpt lat="42.2365983" lon="14.1921974"><ele>263.0</ele><time>2026-05-01T13:26:08.536Z</time></trkpt><trkpt lat="42.2366513" lon="14.1920412"><ele>263.0</ele><time>2026-05-01T13:26:09.55Z</time></trkpt><trkpt lat="42.236714" lon="14.1918726"><ele>261.5</ele><time>2026-05-01T13:26:10.54Z</time></trkpt><trkpt lat="42.2367859" lon="14.1917123"><ele>260.0</ele><time>2026-05-01T13:26:11.536Z</time></trkpt><trkpt lat="42.2368624" lon="14.1915588"><ele>258.5</ele><time>2026-05-01T13:26:12.539Z</time></trkpt><trkpt lat="42.2369449" lon="14.1914202"><ele>257.0</ele><time>2026-05-01T13:26:13.538Z</time></trkpt><trkpt lat="42.2370317" lon="14.1913174"><ele>256.0</ele><time>2026-05-01T13:26:14.535Z</time></trkpt><trkpt lat="42.23711" lon="14.1912215"><ele>255.0</ele><time>2026-05-01T13:26:15.529Z</time></trkpt><trkpt lat="42.2371563" lon="14.1911054"><ele>254.0</ele><time>2026-05-01T13:26:16.526Z</time></trkpt><trkpt lat="42.2371922" lon="14.1909726"><ele>253.0</ele><time>2026-05-01T13:26:17.528Z</time></trkpt><trkpt lat="42.2372162" lon="14.1908201"><ele>252.0</ele><time>2026-05-01T13:26:18.528Z</time></trkpt><trkpt lat="42.2372587" lon="14.1906554"><ele>252.25</ele><time>2026-05-01T13:26:19.533Z</time></trkpt><trkpt lat="42.2373255" lon="14.1905241"><ele>252.5</ele><time>2026-05-01T13:26:20.531Z</time></trkpt><trkpt lat="42.2373911" lon="14.1904068"><ele>252.75</ele><time>2026-05-01T13:26:21.527Z</time></trkpt><trkpt lat="42.2374639" lon="14.1902984"><ele>253.0</ele><time>2026-05-01T13:26:22.534Z</time></trkpt><trkpt lat="42.237559" lon="14.1902063"><ele>253.0</ele><time>2026-05-01T13:26:23.527Z</time></trkpt><trkpt lat="42.237674" lon="14.1901249"><ele>253.0</ele><time>2026-05-01T13:26:24.532Z</time></trkpt><trkpt lat="42.2377694" lon="14.1900147"><ele>253.0</ele><time>2026-05-01T13:26:25.528Z</time></trkpt><trkpt lat="42.237846" lon="14.1898823"><ele>253.0</ele><time>2026-05-01T13:26:26.525Z</time></trkpt><trkpt lat="42.2379023" lon="14.1897167"><ele>251.75</ele><time>2026-05-01T13:26:27.522Z</time></trkpt><trkpt lat="42.2379456" lon="14.1895583"><ele>250.5</ele><time>2026-05-01T13:26:28.541Z</time></trkpt><trkpt lat="42.2379678" lon="14.1893999"><ele>249.25</ele><time>2026-05-01T13:26:29.526Z</time></trkpt><trkpt lat="42.2379698" lon="14.1892467"><ele>248.0</ele><time>2026-05-01T13:26:30.532Z</time></trkpt><trkpt lat="42.2379685" lon="14.1890949"><ele>247.4</ele><time>2026-05-01T13:26:31.526Z</time></trkpt><trkpt lat="42.2379681" lon="14.1889514"><ele>246.8</ele><time>2026-05-01T13:26:32.558Z</time></trkpt><trkpt lat="42.237959" lon="14.1888129"><ele>246.2</ele><time>2026-05-01T13:26:33.538Z</time></trkpt><trkpt lat="42.2379552" lon="14.1886704"><ele>245.6</ele><time>2026-05-01T13:26:34.617Z</time></trkpt><trkpt lat="42.2379717" lon="14.1885378"><ele>245.0</ele><time>2026-05-01T13:26:35.526Z</time></trkpt><trkpt lat="42.2380276" lon="14.1884058"><ele>245.0</ele><time>2026-05-01T13:26:36.523Z</time></trkpt><trkpt lat="42.2380957" lon="14.1882861"><ele>245.0</ele><time>2026-05-01T13:26:37.525Z</time></trkpt><trkpt lat="42.2381593" lon="14.1881795"><ele>245.0</ele><time>2026-05-01T13:26:38.531Z</time></trkpt><trkpt lat="42.2382325" lon="14.1880995"><ele>245.0</ele><time>2026-05-01T13:26:39.531Z</time></trkpt><trkpt lat="42.238306" lon="14.1880267"><ele>245.0</ele><time>2026-05-01T13:26:40.551Z</time></trkpt><trkpt lat="42.2383604" lon="14.1879454"><ele>244.66666666666669</ele><time>2026-05-01T13:26:41.531Z</time></trkpt><trkpt lat="42.2383835" lon="14.1878608"><ele>244.33333333333334</ele><time>2026-05-01T13:26:42.532Z</time></trkpt><trkpt lat="42.2383709" lon="14.1877175"><ele>244.0</ele><time>2026-05-01T13:26:44.537Z</time></trkpt><trkpt lat="42.2383735" lon="14.1875768"><ele>243.66666666666669</ele><time>2026-05-01T13:26:46.531Z</time></trkpt><trkpt lat="42.238385" lon="14.1874871"><ele>243.33333333333334</ele><time>2026-05-01T13:26:47.531Z</time></trkpt><trkpt lat="42.2384401" lon="14.187375"><ele>243.0</ele><time>2026-05-01T13:26:49.523Z</time></trkpt><trkpt lat="42.2385486" lon="14.1873047"><ele>243.8</ele><time>2026-05-01T13:26:51.517Z</time></trkpt><trkpt lat="42.2386332" lon="14.1872737"><ele>244.60000000000002</ele><time>2026-05-01T13:26:52.529Z</time></trkpt><trkpt lat="42.2387437" lon="14.187239"><ele>245.39999999999998</ele><time>2026-05-01T13:26:53.52Z</time></trkpt><trkpt lat="42.2388542" lon="14.18724"><ele>246.2</ele><time>2026-05-01T13:26:54.524Z</time></trkpt><trkpt lat="42.2389256" lon="14.1872241"><ele>247.0</ele><time>2026-05-01T13:26:55.523Z</time></trkpt><trkpt lat="42.2389923" lon="14.1871645"><ele>247.39999999999998</ele><time>2026-05-01T13:26:56.534Z</time></trkpt><trkpt lat="42.2390512" lon="14.1870655"><ele>247.79999999999998</ele><time>2026-05-01T13:26:57.522Z</time></trkpt><trkpt lat="42.2391072" lon="14.1869702"><ele>248.2</ele><time>2026-05-01T13:26:58.542Z</time></trkpt><trkpt lat="42.2391531" lon="14.1868602"><ele>248.6</ele><time>2026-05-01T13:26:59.524Z</time></trkpt><trkpt lat="42.2392003" lon="14.1867508"><ele>249.0</ele><time>2026-05-01T13:27:00.518Z</time></trkpt><trkpt lat="42.239248" lon="14.1866272"><ele>250.0</ele><time>2026-05-01T13:27:01.518Z</time></trkpt><trkpt lat="42.2392941" lon="14.1865013"><ele>251.0</ele><time>2026-05-01T13:27:02.521Z</time></trkpt><trkpt lat="42.2393372" lon="14.1864033"><ele>252.0</ele><time>2026-05-01T13:27:03.522Z</time></trkpt><trkpt lat="42.23937" lon="14.1863299"><ele>253.0</ele><time>2026-05-01T13:27:04.522Z</time></trkpt><trkpt lat="42.2394096" lon="14.1862614"><ele>254.0</ele><time>2026-05-01T13:27:05.515Z</time></trkpt><trkpt lat="42.2394769" lon="14.1861874"><ele>255.0</ele><time>2026-05-01T13:27:06.52Z</time></trkpt><trkpt lat="42.2395566" lon="14.1861039"><ele>255.0</ele><time>2026-05-01T13:27:07.524Z</time></trkpt><trkpt lat="42.2396399" lon="14.1860112"><ele>255.0</ele><time>2026-05-01T13:27:08.522Z</time></trkpt><trkpt lat="42.2397146" lon="14.1859265"><ele>255.0</ele><time>2026-05-01T13:27:09.513Z</time></trkpt><trkpt lat="42.2397758" lon="14.1858279"><ele>255.0</ele><time>2026-05-01T13:27:10.523Z</time></trkpt><trkpt lat="42.2398377" lon="14.1857242"><ele>255.0</ele><time>2026-05-01T13:27:11.539Z</time></trkpt><trkpt lat="42.2398993" lon="14.1856268"><ele>254.6</ele><time>2026-05-01T13:27:12.526Z</time></trkpt><trkpt lat="42.2399439" lon="14.1855272"><ele>254.2</ele><time>2026-05-01T13:27:13.538Z</time></trkpt><trkpt lat="42.2399861" lon="14.1854004"><ele>253.8</ele><time>2026-05-01T13:27:14.533Z</time></trkpt><trkpt lat="42.2400397" lon="14.1852774"><ele>253.4</ele><time>2026-05-01T13:27:15.525Z</time></trkpt><trkpt lat="42.2401227" lon="14.1851794"><ele>253.0</ele><time>2026-05-01T13:27:16.536Z</time></trkpt><trkpt lat="42.2402115" lon="14.1850864"><ele>252.99999999999997</ele><time>2026-05-01T13:27:17.54Z</time></trkpt><trkpt lat="42.2402851" lon="14.1850098"><ele>253.0</ele><time>2026-05-01T13:27:18.537Z</time></trkpt><trkpt lat="42.2403452" lon="14.1849491"><ele>253.0</ele><time>2026-05-01T13:27:19.536Z</time></trkpt><trkpt lat="42.2404142" lon="14.1848551"><ele>253.0</ele><time>2026-05-01T13:27:21.543Z</time></trkpt><trkpt lat="42.2404722" lon="14.1847981"><ele>252.99999999999997</ele><time>2026-05-01T13:27:23.546Z</time></trkpt><trkpt lat="42.2405351" lon="14.1847378"><ele>253.0</ele><time>2026-05-01T13:27:37.541Z</time></trkpt><trkpt lat="42.2406057" lon="14.1846921"><ele>253.0</ele><time>2026-05-01T13:27:39.542Z</time></trkpt><trkpt lat="42.2406933" lon="14.1847314"><ele>253.0</ele><time>2026-05-01T13:27:41.543Z</time></trkpt><trkpt lat="42.2408129" lon="14.1848118"><ele>253.0</ele><time>2026-05-01T13:27:43.535Z</time></trkpt><trkpt lat="42.2408983" lon="14.1848683"><ele>253.0</ele><time>2026-05-01T13:27:44.534Z</time></trkpt><trkpt lat="42.241002" lon="14.1849348"><ele>253.0</ele><time>2026-05-01T13:27:45.538Z</time></trkpt><trkpt lat="42.2411006" lon="14.1850017"><ele>252.2</ele><time>2026-05-01T13:27:46.535Z</time></trkpt><trkpt lat="42.2411967" lon="14.1850566"><ele>251.4</ele><time>2026-05-01T13:27:47.531Z</time></trkpt><trkpt lat="42.2412891" lon="14.1851162"><ele>250.59999999999997</ele><time>2026-05-01T13:27:48.537Z</time></trkpt><trkpt lat="42.2413757" lon="14.1851682"><ele>249.79999999999998</ele><time>2026-05-01T13:27:49.533Z</time></trkpt><trkpt lat="42.2414683" lon="14.1851992"><ele>249.0</ele><time>2026-05-01T13:27:50.526Z</time></trkpt><trkpt lat="42.2415713" lon="14.1851892"><ele>248.39999999999998</ele><time>2026-05-01T13:27:51.537Z</time></trkpt><trkpt lat="42.2416607" lon="14.1851279"><ele>247.79999999999998</ele><time>2026-05-01T13:27:52.521Z</time></trkpt><trkpt lat="42.2417367" lon="14.1850314"><ele>247.20000000000002</ele><time>2026-05-01T13:27:53.528Z</time></trkpt><trkpt lat="42.2418051" lon="14.1849331"><ele>246.60000000000002</ele><time>2026-05-01T13:27:54.509Z</time></trkpt><trkpt lat="42.2418705" lon="14.1848242"><ele>246.0</ele><time>2026-05-01T13:27:55.516Z</time></trkpt><trkpt lat="42.2419457" lon="14.1847351"><ele>246.0</ele><time>2026-05-01T13:27:56.525Z</time></trkpt><trkpt lat="42.242019" lon="14.184629"><ele>246.00000000000003</ele><time>2026-05-01T13:27:57.528Z</time></trkpt><trkpt lat="42.242071" lon="14.1845045"><ele>246.00000000000003</ele><time>2026-05-01T13:27:58.541Z</time></trkpt><trkpt lat="42.2420935" lon="14.1843682"><ele>246.0</ele><time>2026-05-01T13:27:59.513Z</time></trkpt><trkpt lat="42.2421112" lon="14.1842296"><ele>246.0</ele><time>2026-05-01T13:28:00.522Z</time></trkpt><trkpt lat="42.2421015" lon="14.1840712"><ele>246.0</ele><time>2026-05-01T13:28:01.529Z</time></trkpt><trkpt lat="42.2421151" lon="14.1839233"><ele>246.00000000000003</ele><time>2026-05-01T13:28:02.528Z</time></trkpt><trkpt lat="42.2421496" lon="14.1837918"><ele>246.00000000000003</ele><time>2026-05-01T13:28:03.525Z</time></trkpt><trkpt lat="42.2421934" lon="14.1836651"><ele>246.0</ele><time>2026-05-01T13:28:04.527Z</time></trkpt><trkpt lat="42.2422513" lon="14.1835402"><ele>246.0</ele><time>2026-05-01T13:28:05.532Z</time></trkpt><trkpt lat="42.2423187" lon="14.1834203"><ele>246.20000000000002</ele><time>2026-05-01T13:28:06.528Z</time></trkpt><trkpt lat="42.2424014" lon="14.1833246"><ele>246.40000000000003</ele><time>2026-05-01T13:28:07.522Z</time></trkpt><trkpt lat="42.242491" lon="14.1832748"><ele>246.6</ele><time>2026-05-01T13:28:08.518Z</time></trkpt><trkpt lat="42.2425922" lon="14.1832666"><ele>246.8</ele><time>2026-05-01T13:28:09.511Z</time></trkpt><trkpt lat="42.2426937" lon="14.1832905"><ele>247.0</ele><time>2026-05-01T13:28:10.513Z</time></trkpt><trkpt lat="42.2428061" lon="14.1833339"><ele>247.0</ele><time>2026-05-01T13:28:11.503Z</time></trkpt><trkpt lat="42.2429021" lon="14.1833738"><ele>247.0</ele><time>2026-05-01T13:28:12.503Z</time></trkpt><trkpt lat="42.2429819" lon="14.1833945"><ele>247.0</ele><time>2026-05-01T13:28:13.523Z</time></trkpt><trkpt lat="42.2430987" lon="14.1834194"><ele>247.0</ele><time>2026-05-01T13:28:15.499Z</time></trkpt><trkpt lat="42.2432133" lon="14.183449"><ele>247.0</ele><time>2026-05-01T13:28:17.508Z</time></trkpt><trkpt lat="42.2433136" lon="14.1833944"><ele>247.0</ele><time>2026-05-01T13:28:19.525Z</time></trkpt><trkpt lat="42.243366" lon="14.1832982"><ele>247.0</ele><time>2026-05-01T13:28:21.526Z</time></trkpt><trkpt lat="42.2433377" lon="14.1831984"><ele>247.0</ele><time>2026-05-01T13:28:28.551Z</time></trkpt><trkpt lat="42.2432248" lon="14.1831059"><ele>247.0</ele><time>2026-05-01T13:28:30.513Z</time></trkpt><trkpt lat="42.2431239" lon="14.1830574"><ele>247.0</ele><time>2026-05-01T13:28:31.507Z</time></trkpt><trkpt lat="42.2430043" lon="14.1830079"><ele>247.66666666666666</ele><time>2026-05-01T13:28:32.513Z</time></trkpt><trkpt lat="42.2428703" lon="14.1829466"><ele>248.33333333333331</ele><time>2026-05-01T13:28:33.505Z</time></trkpt><trkpt lat="42.2427292" lon="14.1828635"><ele>249.0</ele><time>2026-05-01T13:28:34.517Z</time></trkpt><trkpt lat="42.2425743" lon="14.1827349"><ele>249.0</ele><time>2026-05-01T13:28:35.513Z</time></trkpt><trkpt lat="42.2424653" lon="14.1826034"><ele>249.0</ele><time>2026-05-01T13:28:36.512Z</time></trkpt><trkpt lat="42.2423935" lon="14.1824983"><ele>249.0</ele><time>2026-05-01T13:28:37.522Z</time></trkpt><trkpt lat="42.2423672" lon="14.1823697"><ele>249.0</ele><time>2026-05-01T13:28:39.529Z</time></trkpt><trkpt lat="42.2424592" lon="14.1822863"><ele>249.39999999999998</ele><time>2026-05-01T13:28:41.555Z</time></trkpt><trkpt lat="42.2425347" lon="14.1822441"><ele>249.79999999999998</ele><time>2026-05-01T13:28:42.55Z</time></trkpt><trkpt lat="42.2426373" lon="14.1822286"><ele>250.20000000000002</ele><time>2026-05-01T13:28:43.543Z</time></trkpt><trkpt lat="42.2427455" lon="14.182192"><ele>250.60000000000002</ele><time>2026-05-01T13:28:44.626Z</time></trkpt><trkpt lat="42.2428375" lon="14.1821465"><ele>251.0</ele><time>2026-05-01T13:28:45.617Z</time></trkpt><trkpt lat="42.2429261" lon="14.1820938"><ele>251.0</ele><time>2026-05-01T13:28:46.621Z</time></trkpt><trkpt lat="42.2430118" lon="14.1820482"><ele>251.00000000000003</ele><time>2026-05-01T13:28:47.612Z</time></trkpt><trkpt lat="42.2430986" lon="14.1820144"><ele>251.00000000000003</ele><time>2026-05-01T13:28:48.617Z</time></trkpt><trkpt lat="42.2431901" lon="14.1819793"><ele>251.0</ele><time>2026-05-01T13:28:49.617Z</time></trkpt><trkpt lat="42.2432822" lon="14.1819351"><ele>251.0</ele><time>2026-05-01T13:28:50.617Z</time></trkpt><trkpt lat="42.2433715" lon="14.1818853"><ele>250.0</ele><time>2026-05-01T13:28:51.618Z</time></trkpt><trkpt lat="42.2434618" lon="14.1818339"><ele>249.00000000000003</ele><time>2026-05-01T13:28:52.616Z</time></trkpt><trkpt lat="42.2435444" lon="14.1817932"><ele>248.00000000000003</ele><time>2026-05-01T13:28:53.621Z</time></trkpt><trkpt lat="42.2436262" lon="14.1817508"><ele>247.0</ele><time>2026-05-01T13:28:54.621Z</time></trkpt><trkpt lat="42.2437198" lon="14.1816808"><ele>246.0</ele><time>2026-05-01T13:28:55.619Z</time></trkpt><trkpt lat="42.2438178" lon="14.1816221"><ele>246.0</ele><time>2026-05-01T13:28:56.623Z</time></trkpt><trkpt lat="42.2439164" lon="14.1815704"><ele>246.00000000000003</ele><time>2026-05-01T13:28:57.622Z</time></trkpt><trkpt lat="42.2440126" lon="14.1815192"><ele>246.00000000000003</ele><time>2026-05-01T13:28:58.639Z</time></trkpt><trkpt lat="42.2441105" lon="14.1814682"><ele>246.0</ele><time>2026-05-01T13:28:59.622Z</time></trkpt><trkpt lat="42.2442101" lon="14.1814123"><ele>246.0</ele><time>2026-05-01T13:29:00.63Z</time></trkpt><trkpt lat="42.2443119" lon="14.1813524"><ele>245.0</ele><time>2026-05-01T13:29:01.626Z</time></trkpt><trkpt lat="42.2444171" lon="14.1812838"><ele>244.00000000000003</ele><time>2026-05-01T13:29:02.631Z</time></trkpt><trkpt lat="42.2445206" lon="14.1812141"><ele>243.00000000000003</ele><time>2026-05-01T13:29:03.629Z</time></trkpt><trkpt lat="42.2446185" lon="14.1811536"><ele>242.0</ele><time>2026-05-01T13:29:04.629Z</time></trkpt><trkpt lat="42.2447124" lon="14.1810937"><ele>241.0</ele><time>2026-05-01T13:29:05.623Z</time></trkpt><trkpt lat="42.2448013" lon="14.1810683"><ele>240.49999999999997</ele><time>2026-05-01T13:29:06.621Z</time></trkpt><trkpt lat="42.2448861" lon="14.1810691"><ele>240.0</ele><time>2026-05-01T13:29:07.611Z</time></trkpt><trkpt lat="42.2449632" lon="14.1810963"><ele>239.5</ele><time>2026-05-01T13:29:08.596Z</time></trkpt><trkpt lat="42.2450347" lon="14.1811264"><ele>239.0</ele><time>2026-05-01T13:29:09.598Z</time></trkpt><trkpt lat="42.2450999" lon="14.181172"><ele>238.49999999999997</ele><time>2026-05-01T13:29:10.595Z</time></trkpt><trkpt lat="42.245167" lon="14.1812415"><ele>238.0</ele><time>2026-05-01T13:29:11.598Z</time></trkpt><trkpt lat="42.2452473" lon="14.1813147"><ele>238.0</ele><time>2026-05-01T13:29:12.621Z</time></trkpt><trkpt lat="42.2453191" lon="14.1813778"><ele>238.0</ele><time>2026-05-01T13:29:13.625Z</time></trkpt><trkpt lat="42.2454177" lon="14.1814471"><ele>238.0</ele><time>2026-05-01T13:29:14.603Z</time></trkpt><trkpt lat="42.2455286" lon="14.1815079"><ele>238.0</ele><time>2026-05-01T13:29:15.617Z</time></trkpt><trkpt lat="42.2456453" lon="14.1815509"><ele>238.0</ele><time>2026-05-01T13:29:16.603Z</time></trkpt><trkpt lat="42.2457704" lon="14.1815828"><ele>237.75</ele><time>2026-05-01T13:29:17.516Z</time></trkpt><trkpt lat="42.2458835" lon="14.1816641"><ele>237.5</ele><time>2026-05-01T13:29:18.525Z</time></trkpt><trkpt lat="42.2459879" lon="14.1817555"><ele>237.25</ele><time>2026-05-01T13:29:19.537Z</time></trkpt><trkpt lat="42.2460866" lon="14.1818515"><ele>237.0</ele><time>2026-05-01T13:29:20.535Z</time></trkpt><trkpt lat="42.2462018" lon="14.1819087"><ele>237.0</ele><time>2026-05-01T13:29:21.524Z</time></trkpt><trkpt lat="42.2463426" lon="14.1819423"><ele>237.0</ele><time>2026-05-01T13:29:22.541Z</time></trkpt><trkpt lat="42.2464869" lon="14.181945"><ele>237.0</ele><time>2026-05-01T13:29:23.531Z</time></trkpt><trkpt lat="42.2466392" lon="14.1819317"><ele>237.0</ele><time>2026-05-01T13:29:24.534Z</time></trkpt><trkpt lat="42.2467745" lon="14.1819178"><ele>235.75</ele><time>2026-05-01T13:29:25.527Z</time></trkpt><trkpt lat="42.2469164" lon="14.1819627"><ele>234.5</ele><time>2026-05-01T13:29:26.539Z</time></trkpt><trkpt lat="42.2470302" lon="14.1820404"><ele>233.25</ele><time>2026-05-01T13:29:27.526Z</time></trkpt><trkpt lat="42.2471399" lon="14.1821226"><ele>232.0</ele><time>2026-05-01T13:29:28.546Z</time></trkpt><trkpt lat="42.2472301" lon="14.1822058"><ele>232.0</ele><time>2026-05-01T13:29:29.528Z</time></trkpt><trkpt lat="42.2473071" lon="14.1823178"><ele>232.0</ele><time>2026-05-01T13:29:30.528Z</time></trkpt><trkpt lat="42.2473725" lon="14.1824381"><ele>232.0</ele><time>2026-05-01T13:29:31.53Z</time></trkpt><trkpt lat="42.2474101" lon="14.1825522"><ele>232.0</ele><time>2026-05-01T13:29:32.527Z</time></trkpt><trkpt lat="42.2474441" lon="14.1826634"><ele>232.0</ele><time>2026-05-01T13:29:33.526Z</time></trkpt><trkpt lat="42.247464" lon="14.1827586"><ele>232.0</ele><time>2026-05-01T13:29:34.526Z</time></trkpt><trkpt lat="42.2475114" lon="14.1828428"><ele>232.0</ele><time>2026-05-01T13:29:35.536Z</time></trkpt><trkpt lat="42.2475931" lon="14.182911"><ele>232.0</ele><time>2026-05-01T13:29:36.533Z</time></trkpt><trkpt lat="42.2476806" lon="14.1829743"><ele>232.0</ele><time>2026-05-01T13:29:37.53Z</time></trkpt><trkpt lat="42.2477608" lon="14.1830322"><ele>232.0</ele><time>2026-05-01T13:29:38.528Z</time></trkpt><trkpt lat="42.2478414" lon="14.1830799"><ele>231.99999999999997</ele><time>2026-05-01T13:29:39.529Z</time></trkpt><trkpt lat="42.2479106" lon="14.1831579"><ele>232.0</ele><time>2026-05-01T13:29:40.524Z</time></trkpt><trkpt lat="42.2479656" lon="14.1832573"><ele>232.0</ele><time>2026-05-01T13:29:41.524Z</time></trkpt><trkpt lat="42.2480204" lon="14.1833464"><ele>232.0</ele><time>2026-05-01T13:29:42.533Z</time></trkpt><trkpt lat="42.24806" lon="14.1834492"><ele>231.99999999999997</ele><time>2026-05-01T13:29:43.531Z</time></trkpt><trkpt lat="42.2480889" lon="14.1835357"><ele>232.0</ele><time>2026-05-01T13:29:44.532Z</time></trkpt><trkpt lat="42.248098" lon="14.1836507"><ele>232.33333333333331</ele><time>2026-05-01T13:29:46.538Z</time></trkpt><trkpt lat="42.2481012" lon="14.1837587"><ele>232.66666666666666</ele><time>2026-05-01T13:29:50.528Z</time></trkpt><trkpt lat="42.2480746" lon="14.1838455"><ele>233.0</ele><time>2026-05-01T13:29:53.524Z</time></trkpt><trkpt lat="42.2480558" lon="14.1839283"><ele>233.33333333333331</ele><time>2026-05-01T13:29:56.542Z</time></trkpt><trkpt lat="42.2480327" lon="14.1840159"><ele>233.66666666666666</ele><time>2026-05-01T13:30:05.542Z</time></trkpt><trkpt lat="42.2480182" lon="14.1841455"><ele>234.0</ele><time>2026-05-01T13:30:08.543Z</time></trkpt><trkpt lat="42.247963" lon="14.1842102"><ele>233.0</ele><time>2026-05-01T13:30:10.547Z</time></trkpt><trkpt lat="42.2478953" lon="14.1842704"><ele>232.0</ele><time>2026-05-01T13:30:13.544Z</time></trkpt><trkpt lat="42.2478361" lon="14.1843415"><ele>231.0</ele><time>2026-05-01T13:30:15.544Z</time></trkpt><trkpt lat="42.2477638" lon="14.1843656"><ele>230.0</ele><time>2026-05-01T13:30:17.56Z</time></trkpt><trkpt lat="42.2476652" lon="14.1843775"><ele>229.0</ele><time>2026-05-01T13:30:20.547Z</time></trkpt><trkpt lat="42.2475889" lon="14.1843836"><ele>228.0</ele><time>2026-05-01T13:30:22.546Z</time></trkpt><trkpt lat="42.2475245" lon="14.1843737"><ele>228.0</ele><time>2026-05-01T13:30:24.546Z</time></trkpt><trkpt lat="42.247455" lon="14.1843607"><ele>228.0</ele><time>2026-05-01T13:30:26.545Z</time></trkpt><trkpt lat="42.2474035" lon="14.1844321"><ele>228.0</ele><time>2026-05-01T13:30:30.533Z</time></trkpt><trkpt lat="42.2474485" lon="14.1845457"><ele>228.0</ele><time>2026-05-01T13:30:32.53Z</time></trkpt><trkpt lat="42.2475043" lon="14.1846313"><ele>228.0</ele><time>2026-05-01T13:30:33.519Z</time></trkpt><trkpt lat="42.2475684" lon="14.1847224"><ele>228.0</ele><time>2026-05-01T13:30:34.526Z</time></trkpt><trkpt lat="42.2476207" lon="14.1848094"><ele>226.83333333333334</ele><time>2026-05-01T13:30:35.515Z</time></trkpt><trkpt lat="42.2476651" lon="14.1848804"><ele>225.66666666666669</ele><time>2026-05-01T13:30:36.513Z</time></trkpt><trkpt lat="42.2477076" lon="14.185015"><ele>224.5</ele><time>2026-05-01T13:30:38.51Z</time></trkpt><trkpt lat="42.2477215" lon="14.1851199"><ele>223.33333333333334</ele><time>2026-05-01T13:30:39.522Z</time></trkpt><trkpt lat="42.2477455" lon="14.1852149"><ele>222.16666666666669</ele><time>2026-05-01T13:30:40.522Z</time></trkpt><trkpt lat="42.2477639" lon="14.1853275"><ele>221.0</ele><time>2026-05-01T13:30:41.512Z</time></trkpt><trkpt lat="42.2477952" lon="14.1854374"><ele>221.00000000000003</ele><time>2026-05-01T13:30:42.501Z</time></trkpt><trkpt lat="42.2478273" lon="14.1855403"><ele>221.0</ele><time>2026-05-01T13:30:43.507Z</time></trkpt><trkpt lat="42.247872" lon="14.1856404"><ele>221.0</ele><time>2026-05-01T13:30:44.508Z</time></trkpt><trkpt lat="42.2479195" lon="14.1857391"><ele>221.0</ele><time>2026-05-01T13:30:45.507Z</time></trkpt><trkpt lat="42.2479666" lon="14.1858347"><ele>221.00000000000003</ele><time>2026-05-01T13:30:46.506Z</time></trkpt><trkpt lat="42.2480066" lon="14.1859163"><ele>221.0</ele><time>2026-05-01T13:30:47.504Z</time></trkpt><trkpt lat="42.2480525" lon="14.1859979"><ele>221.0</ele><time>2026-05-01T13:30:48.528Z</time></trkpt><trkpt lat="42.248112" lon="14.1860948"><ele>221.00000000000003</ele><time>2026-05-01T13:30:49.515Z</time></trkpt><trkpt lat="42.2481615" lon="14.1861953"><ele>221.00000000000003</ele><time>2026-05-01T13:30:50.513Z</time></trkpt><trkpt lat="42.2482258" lon="14.1862783"><ele>221.0</ele><time>2026-05-01T13:30:51.505Z</time></trkpt><trkpt lat="42.2482997" lon="14.186347"><ele>221.0</ele><time>2026-05-01T13:30:52.502Z</time></trkpt><trkpt lat="42.2483823" lon="14.1863977"><ele>221.0</ele><time>2026-05-01T13:30:53.504Z</time></trkpt><trkpt lat="42.2484864" lon="14.1864337"><ele>221.00000000000003</ele><time>2026-05-01T13:30:54.51Z</time></trkpt><trkpt lat="42.2485984" lon="14.1864785"><ele>221.00000000000003</ele><time>2026-05-01T13:30:55.514Z</time></trkpt><trkpt lat="42.2486908" lon="14.1865241"><ele>221.0</ele><time>2026-05-01T13:30:56.505Z</time></trkpt><trkpt lat="42.24877" lon="14.1865587"><ele>221.0</ele><time>2026-05-01T13:30:57.503Z</time></trkpt><trkpt lat="42.2488551" lon="14.1866058"><ele>221.00000000000003</ele><time>2026-05-01T13:30:59.509Z</time></trkpt><trkpt lat="42.2489493" lon="14.1865867"><ele>221.0</ele><time>2026-05-01T13:31:02.541Z</time></trkpt><trkpt lat="42.2490577" lon="14.186584"><ele>221.0</ele><time>2026-05-01T13:31:04.533Z</time></trkpt><trkpt lat="42.2491568" lon="14.1865611"><ele>221.0</ele><time>2026-05-01T13:31:06.524Z</time></trkpt><trkpt lat="42.2492104" lon="14.1866351"><ele>221.00000000000003</ele><time>2026-05-01T13:31:08.547Z</time></trkpt><trkpt lat="42.249207" lon="14.1867201"><ele>221.0</ele><time>2026-05-01T13:31:09.546Z</time></trkpt><trkpt lat="42.24919" lon="14.1868253"><ele>221.0</ele><time>2026-05-01T13:31:10.55Z</time></trkpt><trkpt lat="42.2491711" lon="14.186951"><ele>221.00000000000003</ele><time>2026-05-01T13:31:11.535Z</time></trkpt><trkpt lat="42.2491609" lon="14.1870858"><ele>221.00000000000003</ele><time>2026-05-01T13:31:12.534Z</time></trkpt><trkpt lat="42.2491468" lon="14.1872432"><ele>221.0</ele><time>2026-05-01T13:31:13.538Z</time></trkpt><trkpt lat="42.2491385" lon="14.1874001"><ele>221.0</ele><time>2026-05-01T13:31:14.538Z</time></trkpt><trkpt lat="42.2491263" lon="14.1875522"><ele>221.16666666666669</ele><time>2026-05-01T13:31:15.53Z</time></trkpt><trkpt lat="42.2491194" lon="14.187664"><ele>221.33333333333334</ele><time>2026-05-01T13:31:16.536Z</time></trkpt><trkpt lat="42.2491102" lon="14.1877641"><ele>221.5</ele><time>2026-05-01T13:31:17.535Z</time></trkpt><trkpt lat="42.2490985" lon="14.1878579"><ele>221.66666666666669</ele><time>2026-05-01T13:31:18.54Z</time></trkpt><trkpt lat="42.2490768" lon="14.1880136"><ele>221.83333333333334</ele><time>2026-05-01T13:31:20.534Z</time></trkpt><trkpt lat="42.2490423" lon="14.1881277"><ele>222.0</ele><time>2026-05-01T13:31:22.535Z</time></trkpt><trkpt lat="42.2490142" lon="14.1882066"><ele>222.0</ele><time>2026-05-01T13:31:23.531Z</time></trkpt><trkpt lat="42.2489811" lon="14.1882946"><ele>222.0</ele><time>2026-05-01T13:31:24.535Z</time></trkpt><trkpt lat="42.2489577" lon="14.1884534"><ele>222.0</ele><time>2026-05-01T13:31:26.527Z</time></trkpt><trkpt lat="42.2490544" lon="14.1885607"><ele>222.0</ele><time>2026-05-01T13:31:28.541Z</time></trkpt><trkpt lat="42.2491286" lon="14.1885911"><ele>222.0</ele><time>2026-05-01T13:31:29.536Z</time></trkpt><trkpt lat="42.249221" lon="14.1885981"><ele>222.0</ele><time>2026-05-01T13:31:30.532Z</time></trkpt><trkpt lat="42.2493274" lon="14.1886018"><ele>222.0</ele><time>2026-05-01T13:31:31.524Z</time></trkpt><trkpt lat="42.2494438" lon="14.1886145"><ele>222.0</ele><time>2026-05-01T13:31:32.529Z</time></trkpt><trkpt lat="42.2495587" lon="14.1886412"><ele>222.0</ele><time>2026-05-01T13:31:33.526Z</time></trkpt><trkpt lat="42.2496792" lon="14.1886783"><ele>221.5</ele><time>2026-05-01T13:31:34.545Z</time></trkpt><trkpt lat="42.2498037" lon="14.1887346"><ele>221.0</ele><time>2026-05-01T13:31:35.539Z</time></trkpt><trkpt lat="42.2499301" lon="14.1887938"><ele>220.5</ele><time>2026-05-01T13:31:36.607Z</time></trkpt><trkpt lat="42.2500481" lon="14.1888621"><ele>220.0</ele><time>2026-05-01T13:31:37.612Z</time></trkpt><trkpt lat="42.2501667" lon="14.1889403"><ele>221.25</ele><time>2026-05-01T13:31:38.623Z</time></trkpt><trkpt lat="42.2502852" lon="14.189022"><ele>222.5</ele><time>2026-05-01T13:31:39.62Z</time></trkpt><trkpt lat="42.2504045" lon="14.1890978"><ele>223.75</ele><time>2026-05-01T13:31:40.622Z</time></trkpt><trkpt lat="42.2505204" lon="14.1891564"><ele>225.0</ele><time>2026-05-01T13:31:41.614Z</time></trkpt><trkpt lat="42.2506361" lon="14.1891856"><ele>225.0</ele><time>2026-05-01T13:31:42.615Z</time></trkpt><trkpt lat="42.2507536" lon="14.1891842"><ele>225.0</ele><time>2026-05-01T13:31:43.616Z</time></trkpt><trkpt lat="42.2508762" lon="14.1891358"><ele>225.0</ele><time>2026-05-01T13:31:44.586Z</time></trkpt><trkpt lat="42.2509957" lon="14.1890469"><ele>225.0</ele><time>2026-05-01T13:31:45.6Z</time></trkpt><trkpt lat="42.2511083" lon="14.1889376"><ele>224.83333333333334</ele><time>2026-05-01T13:31:46.595Z</time></trkpt><trkpt lat="42.2512392" lon="14.1889084"><ele>224.66666666666669</ele><time>2026-05-01T13:31:48.619Z</time></trkpt><trkpt lat="42.2513096" lon="14.1888601"><ele>224.5</ele><time>2026-05-01T13:31:49.62Z</time></trkpt><trkpt lat="42.251373" lon="14.1888129"><ele>224.33333333333334</ele><time>2026-05-01T13:31:50.639Z</time></trkpt><trkpt lat="42.2514337" lon="14.1887684"><ele>224.16666666666669</ele><time>2026-05-01T13:31:51.62Z</time></trkpt><trkpt lat="42.2514901" lon="14.188729"><ele>224.0</ele><time>2026-05-01T13:31:52.619Z</time></trkpt><trkpt lat="42.2515497" lon="14.1886848"><ele>224.00000000000003</ele><time>2026-05-01T13:31:53.623Z</time></trkpt><trkpt lat="42.2516149" lon="14.1886328"><ele>224.0</ele><time>2026-05-01T13:31:54.624Z</time></trkpt><trkpt lat="42.2516709" lon="14.1885904"><ele>224.0</ele><time>2026-05-01T13:31:55.619Z</time></trkpt><trkpt lat="42.2517264" lon="14.1885091"><ele>224.0</ele><time>2026-05-01T13:31:57.613Z</time></trkpt><trkpt lat="42.2517446" lon="14.1883877"><ele>224.00000000000003</ele><time>2026-05-01T13:31:59.521Z</time></trkpt><trkpt lat="42.2517242" lon="14.1882938"><ele>224.0</ele><time>2026-05-01T13:32:00.533Z</time></trkpt><trkpt lat="42.2517369" lon="14.1881426"><ele>223.39999999999998</ele><time>2026-05-01T13:32:02.531Z</time></trkpt><trkpt lat="42.2518104" lon="14.1879835"><ele>222.79999999999998</ele><time>2026-05-01T13:32:04.531Z</time></trkpt><trkpt lat="42.2518614" lon="14.1879096"><ele>222.20000000000002</ele><time>2026-05-01T13:32:05.526Z</time></trkpt><trkpt lat="42.2519196" lon="14.1878254"><ele>221.60000000000002</ele><time>2026-05-01T13:32:06.531Z</time></trkpt><trkpt lat="42.2519755" lon="14.187749"><ele>221.0</ele><time>2026-05-01T13:32:07.527Z</time></trkpt><trkpt lat="42.2520405" lon="14.1876845"><ele>221.00000000000003</ele><time>2026-05-01T13:32:08.53Z</time></trkpt><trkpt lat="42.2521056" lon="14.18762"><ele>221.0</ele><time>2026-05-01T13:32:09.521Z</time></trkpt><trkpt lat="42.2521644" lon="14.1875304"><ele>221.0</ele><time>2026-05-01T13:32:10.526Z</time></trkpt><trkpt lat="42.2522162" lon="14.1874237"><ele>221.0</ele><time>2026-05-01T13:32:11.524Z</time></trkpt><trkpt lat="42.252242" lon="14.1873298"><ele>221.00000000000003</ele><time>2026-05-01T13:32:12.519Z</time></trkpt><trkpt lat="42.252253" lon="14.1872378"><ele>221.0</ele><time>2026-05-01T13:32:14.524Z</time></trkpt><trkpt lat="42.2522683" lon="14.1871492"><ele>220.83333333333334</ele><time>2026-05-01T13:32:22.548Z</time></trkpt><trkpt lat="42.2522707" lon="14.187058"><ele>220.66666666666669</ele><time>2026-05-01T13:32:25.545Z</time></trkpt><trkpt lat="42.2523381" lon="14.1870158"><ele>220.5</ele><time>2026-05-01T13:32:29.546Z</time></trkpt><trkpt lat="42.2524018" lon="14.1869799"><ele>220.33333333333331</ele><time>2026-05-01T13:32:34.55Z</time></trkpt><trkpt lat="42.2524238" lon="14.186884"><ele>220.16666666666666</ele><time>2026-05-01T13:32:36.549Z</time></trkpt><trkpt lat="42.2524616" lon="14.1867739"><ele>220.0</ele><time>2026-05-01T13:32:38.542Z</time></trkpt><trkpt lat="42.2525344" lon="14.1866592"><ele>220.0</ele><time>2026-05-01T13:32:40.54Z</time></trkpt><trkpt lat="42.2526048" lon="14.186529"><ele>220.0</ele><time>2026-05-01T13:32:42.541Z</time></trkpt><trkpt lat="42.2526659" lon="14.1863935"><ele>220.0</ele><time>2026-05-01T13:32:44.536Z</time></trkpt><trkpt lat="42.2527098" lon="14.1862849"><ele>220.0</ele><time>2026-05-01T13:32:46.533Z</time></trkpt><trkpt lat="42.2527616" lon="14.1861706"><ele>220.0</ele><time>2026-05-01T13:32:48.538Z</time></trkpt><trkpt lat="42.2528334" lon="14.1860383"><ele>218.8</ele><time>2026-05-01T13:32:50.531Z</time></trkpt><trkpt lat="42.2528911" lon="14.185929"><ele>217.6</ele><time>2026-05-01T13:32:52.556Z</time></trkpt><trkpt lat="42.2529407" lon="14.1858167"><ele>216.39999999999998</ele><time>2026-05-01T13:32:54.543Z</time></trkpt><trkpt lat="42.2529953" lon="14.1856875"><ele>215.2</ele><time>2026-05-01T13:32:56.534Z</time></trkpt><trkpt lat="42.2530378" lon="14.1855881"><ele>214.0</ele><time>2026-05-01T13:32:58.555Z</time></trkpt><trkpt lat="42.2530522" lon="14.1854929"><ele>213.16666666666666</ele><time>2026-05-01T13:33:00.548Z</time></trkpt><trkpt lat="42.2531047" lon="14.1854254"><ele>212.33333333333331</ele><time>2026-05-01T13:33:03.545Z</time></trkpt><trkpt lat="42.2531669" lon="14.185439"><ele>211.5</ele><time>2026-05-01T13:33:05.536Z</time></trkpt><trkpt lat="42.2532389" lon="14.1854919"><ele>210.66666666666669</ele><time>2026-05-01T13:33:07.527Z</time></trkpt><trkpt lat="42.2533496" lon="14.1855601"><ele>209.83333333333334</ele><time>2026-05-01T13:33:09.523Z</time></trkpt><trkpt lat="42.2534089" lon="14.1855962"><ele>209.0</ele><time>2026-05-01T13:33:10.525Z</time></trkpt><trkpt lat="42.253512" lon="14.1856604"><ele>209.85714285714286</ele><time>2026-05-01T13:33:12.525Z</time></trkpt><trkpt lat="42.2535695" lon="14.1857014"><ele>210.71428571428572</ele><time>2026-05-01T13:33:13.518Z</time></trkpt><trkpt lat="42.2536386" lon="14.1857367"><ele>211.57142857142856</ele><time>2026-05-01T13:33:14.522Z</time></trkpt><trkpt lat="42.2536907" lon="14.1857864"><ele>212.42857142857144</ele><time>2026-05-01T13:33:15.515Z</time></trkpt><trkpt lat="42.2537577" lon="14.1858549"><ele>213.2857142857143</ele><time>2026-05-01T13:33:17.532Z</time></trkpt><trkpt lat="42.2537321" lon="14.185935"><ele>214.14285714285714</ele><time>2026-05-01T13:33:19.537Z</time></trkpt><trkpt lat="42.2537215" lon="14.1860446"><ele>215.0</ele><time>2026-05-01T13:33:21.54Z</time></trkpt><trkpt lat="42.2537491" lon="14.1861338"><ele>215.00000000000003</ele><time>2026-05-01T13:34:01.549Z</time></trkpt><trkpt lat="42.2537689" lon="14.1862154"><ele>215.0</ele><time>2026-05-01T13:34:04.541Z</time></trkpt><trkpt lat="42.2538558" lon="14.1862016"><ele>215.0</ele><time>2026-05-01T13:34:08.551Z</time></trkpt><trkpt lat="42.2539459" lon="14.1862034"><ele>215.0</ele><time>2026-05-01T13:34:11.539Z</time></trkpt><trkpt lat="42.254" lon="14.1862737"><ele>215.00000000000003</ele><time>2026-05-01T13:34:18.54Z</time></trkpt><trkpt lat="42.2540613" lon="14.1863147"><ele>215.0</ele><time>2026-05-01T13:34:21.537Z</time></trkpt><trkpt lat="42.2541379" lon="14.1863465"><ele>213.50000000000003</ele><time>2026-05-01T13:34:26.538Z</time></trkpt><trkpt lat="42.2541592" lon="14.1862442"><ele>212.0</ele><time>2026-05-01T13:34:32.542Z</time></trkpt><trkpt lat="42.2541693" lon="14.1861579"><ele>210.5</ele><time>2026-05-01T13:34:34.539Z</time></trkpt><trkpt lat="42.2542242" lon="14.186066"><ele>209.0</ele><time>2026-05-01T13:34:36.538Z</time></trkpt><trkpt lat="42.2542722" lon="14.1859936"><ele>207.50000000000003</ele><time>2026-05-01T13:34:37.529Z</time></trkpt><trkpt lat="42.254349" lon="14.185959"><ele>206.0</ele><time>2026-05-01T13:34:39.523Z</time></trkpt><trkpt lat="42.2544631" lon="14.1860349"><ele>206.0</ele><time>2026-05-01T13:34:41.531Z</time></trkpt><trkpt lat="42.2545451" lon="14.1861066"><ele>206.0</ele><time>2026-05-01T13:34:42.554Z</time></trkpt><trkpt lat="42.2546314" lon="14.1861729"><ele>206.0</ele><time>2026-05-01T13:34:43.546Z</time></trkpt><trkpt lat="42.25471" lon="14.1862231"><ele>206.0</ele><time>2026-05-01T13:34:44.543Z</time></trkpt><trkpt lat="42.2547758" lon="14.1862654"><ele>206.0</ele><time>2026-05-01T13:34:45.535Z</time></trkpt><trkpt lat="42.2548656" lon="14.1863396"><ele>205.66666666666669</ele><time>2026-05-01T13:34:47.531Z</time></trkpt><trkpt lat="42.2549165" lon="14.1863989"><ele>205.33333333333334</ele><time>2026-05-01T13:35:06.555Z</time></trkpt><trkpt lat="42.2549697" lon="14.1864473"><ele>205.0</ele><time>2026-05-01T13:35:54.543Z</time></trkpt><trkpt lat="42.2551034" lon="14.186463"><ele>204.66666666666669</ele><time>2026-05-01T13:35:56.545Z</time></trkpt><trkpt lat="42.255172" lon="14.1864708"><ele>204.33333333333334</ele><time>2026-05-01T13:35:57.548Z</time></trkpt><trkpt lat="42.2552618" lon="14.1865201"><ele>204.0</ele><time>2026-05-01T13:35:59.54Z</time></trkpt><trkpt lat="42.2553212" lon="14.1865943"><ele>204.0</ele><time>2026-05-01T13:36:01.545Z</time></trkpt><trkpt lat="42.2553841" lon="14.1866158"><ele>204.0</ele><time>2026-05-01T13:36:14.553Z</time></trkpt><trkpt lat="42.2554297" lon="14.1865416"><ele>204.0</ele><time>2026-05-01T13:36:18.552Z</time></trkpt><trkpt lat="42.2554853" lon="14.1864973"><ele>204.0</ele><time>2026-05-01T13:36:22.562Z</time></trkpt><trkpt lat="42.2555477" lon="14.1864509"><ele>204.0</ele><time>2026-05-01T13:36:42.559Z</time></trkpt><trkpt lat="42.2556102" lon="14.186414"><ele>204.0</ele><time>2026-05-01T13:36:45.556Z</time></trkpt><trkpt lat="42.2556694" lon="14.1863605"><ele>204.0</ele><time>2026-05-01T13:36:51.557Z</time></trkpt><trkpt lat="42.2557381" lon="14.1863283"><ele>204.16666666666666</ele><time>2026-05-01T13:37:09.562Z</time></trkpt><trkpt lat="42.2558054" lon="14.1862399"><ele>204.33333333333331</ele><time>2026-05-01T13:37:56.566Z</time></trkpt><trkpt lat="42.2558338" lon="14.1861442"><ele>204.5</ele><time>2026-05-01T13:37:58.578Z</time></trkpt><trkpt lat="42.2558548" lon="14.186041"><ele>204.66666666666666</ele><time>2026-05-01T13:38:00.558Z</time></trkpt><trkpt lat="42.2558644" lon="14.185919"><ele>204.83333333333331</ele><time>2026-05-01T13:38:04.561Z</time></trkpt><trkpt lat="42.255894" lon="14.1858314"><ele>205.0</ele><time>2026-05-01T13:38:07.565Z</time></trkpt><trkpt lat="42.2559484" lon="14.1857706"><ele>205.99999999999997</ele><time>2026-05-01T13:39:53.565Z</time></trkpt><trkpt lat="42.2560299" lon="14.185677"><ele>207.0</ele><time>2026-05-01T13:39:56.557Z</time></trkpt><trkpt lat="42.256084" lon="14.1856084"><ele>208.0</ele><time>2026-05-01T13:39:58.581Z</time></trkpt><trkpt lat="42.2561264" lon="14.1855107"><ele>209.0</ele><time>2026-05-01T13:40:01.56Z</time></trkpt><trkpt lat="42.2561723" lon="14.18545"><ele>209.99999999999997</ele><time>2026-05-01T13:40:04.555Z</time></trkpt><trkpt lat="42.2562198" lon="14.1853691"><ele>211.0</ele><time>2026-05-01T13:40:07.545Z</time></trkpt><trkpt lat="42.256262" lon="14.185294"><ele>211.0</ele><time>2026-05-01T13:41:40.556Z</time></trkpt><trkpt lat="42.2563057" lon="14.1852236"><ele>211.0</ele><time>2026-05-01T13:41:44.551Z</time></trkpt><trkpt lat="42.256351" lon="14.1851597"><ele>211.0</ele><time>2026-05-01T13:41:46.55Z</time></trkpt><trkpt lat="42.2564334" lon="14.185129"><ele>211.0</ele><time>2026-05-01T13:41:56.554Z</time></trkpt><trkpt lat="42.2565097" lon="14.1851325"><ele>211.0</ele><time>2026-05-01T13:42:00.562Z</time></trkpt><trkpt lat="42.2565705" lon="14.1851606"><ele>211.0</ele><time>2026-05-01T13:42:09.558Z</time></trkpt><trkpt lat="42.2566488" lon="14.1851712"><ele>211.0</ele><time>2026-05-01T13:42:14.548Z</time></trkpt><trkpt lat="42.256694" lon="14.1850872"><ele>213.0</ele><time>2026-05-01T13:42:16.552Z</time></trkpt><trkpt lat="42.2567348" lon="14.185016"><ele>215.0</ele><time>2026-05-01T13:42:17.546Z</time></trkpt><trkpt lat="42.2567822" lon="14.1849179"><ele>217.00000000000003</ele><time>2026-05-01T13:42:18.529Z</time></trkpt><trkpt lat="42.256851" lon="14.1848128"><ele>219.0</ele><time>2026-05-01T13:42:19.534Z</time></trkpt><trkpt lat="42.2569225" lon="14.1847127"><ele>221.0</ele><time>2026-05-01T13:42:20.545Z</time></trkpt><trkpt lat="42.256995" lon="14.1846291"><ele>222.00000000000003</ele><time>2026-05-01T13:42:21.537Z</time></trkpt><trkpt lat="42.2570705" lon="14.1845803"><ele>223.0</ele><time>2026-05-01T13:42:22.537Z</time></trkpt><trkpt lat="42.2571333" lon="14.1845398"><ele>224.0</ele><time>2026-05-01T13:42:23.535Z</time></trkpt><trkpt lat="42.257203" lon="14.1845072"><ele>225.0</ele><time>2026-05-01T13:42:24.539Z</time></trkpt><trkpt lat="42.2572681" lon="14.1844642"><ele>226.00000000000003</ele><time>2026-05-01T13:42:25.541Z</time></trkpt><trkpt lat="42.2573315" lon="14.1843991"><ele>227.0</ele><time>2026-05-01T13:42:26.545Z</time></trkpt><trkpt lat="42.2574169" lon="14.1843155"><ele>227.33333333333334</ele><time>2026-05-01T13:42:27.545Z</time></trkpt><trkpt lat="42.2574861" lon="14.1842384"><ele>227.66666666666669</ele><time>2026-05-01T13:42:28.566Z</time></trkpt><trkpt lat="42.2575368" lon="14.18417"><ele>228.0</ele><time>2026-05-01T13:42:29.549Z</time></trkpt><trkpt lat="42.2575814" lon="14.1840357"><ele>228.33333333333331</ele><time>2026-05-01T13:42:31.563Z</time></trkpt><trkpt lat="42.2575985" lon="14.1839437"><ele>228.66666666666666</ele><time>2026-05-01T13:42:32.561Z</time></trkpt><trkpt lat="42.2576111" lon="14.1838388"><ele>229.0</ele><time>2026-05-01T13:42:33.551Z</time></trkpt><trkpt lat="42.2576088" lon="14.1837293"><ele>229.99999999999997</ele><time>2026-05-01T13:42:34.546Z</time></trkpt><trkpt lat="42.2575979" lon="14.1836089"><ele>231.0</ele><time>2026-05-01T13:42:35.554Z</time></trkpt><trkpt lat="42.2575763" lon="14.1834984"><ele>232.0</ele><time>2026-05-01T13:42:36.552Z</time></trkpt><trkpt lat="42.2575539" lon="14.1833985"><ele>233.0</ele><time>2026-05-01T13:42:37.553Z</time></trkpt><trkpt lat="42.2575333" lon="14.1832988"><ele>233.99999999999997</ele><time>2026-05-01T13:42:38.553Z</time></trkpt><trkpt lat="42.2575128" lon="14.183204"><ele>235.0</ele><time>2026-05-01T13:42:39.553Z</time></trkpt><trkpt lat="42.2574915" lon="14.1831145"><ele>236.83333333333331</ele><time>2026-05-01T13:42:40.584Z</time></trkpt><trkpt lat="42.257474" lon="14.1830301"><ele>238.66666666666666</ele><time>2026-05-01T13:42:41.555Z</time></trkpt><trkpt lat="42.257426" lon="14.1828715"><ele>240.5</ele><time>2026-05-01T13:42:43.544Z</time></trkpt><trkpt lat="42.2573806" lon="14.182801"><ele>242.33333333333331</ele><time>2026-05-01T13:42:44.556Z</time></trkpt><trkpt lat="42.2573226" lon="14.1827578"><ele>244.16666666666666</ele><time>2026-05-01T13:42:45.554Z</time></trkpt><trkpt lat="42.2572551" lon="14.1827282"><ele>246.0</ele><time>2026-05-01T13:42:46.56Z</time></trkpt><trkpt lat="42.2571803" lon="14.1827112"><ele>246.33333333333334</ele><time>2026-05-01T13:42:47.562Z</time></trkpt><trkpt lat="42.2571126" lon="14.1826941"><ele>246.66666666666669</ele><time>2026-05-01T13:42:48.558Z</time></trkpt><trkpt lat="42.2570237" lon="14.1826098"><ele>247.0</ele><time>2026-05-01T13:42:50.567Z</time></trkpt><trkpt lat="42.2570339" lon="14.1824669"><ele>247.33333333333334</ele><time>2026-05-01T13:42:52.564Z</time></trkpt><trkpt lat="42.257061" lon="14.1823796"><ele>247.66666666666669</ele><time>2026-05-01T13:42:53.565Z</time></trkpt><trkpt lat="42.2570668" lon="14.1822947"><ele>248.0</ele><time>2026-05-01T13:42:54.555Z</time></trkpt><trkpt lat="42.2570841" lon="14.1821853"><ele>249.4</ele><time>2026-05-01T13:42:56.55Z</time></trkpt><trkpt lat="42.2571568" lon="14.1821118"><ele>250.8</ele><time>2026-05-01T13:42:58.566Z</time></trkpt><trkpt lat="42.257215" lon="14.1820552"><ele>252.2</ele><time>2026-05-01T13:42:59.548Z</time></trkpt><trkpt lat="42.2572745" lon="14.1819531"><ele>253.6</ele><time>2026-05-01T13:43:00.559Z</time></trkpt><trkpt lat="42.2573327" lon="14.1818453"><ele>255.0</ele><time>2026-05-01T13:43:01.549Z</time></trkpt><trkpt lat="42.2573829" lon="14.1817232"><ele>255.0</ele><time>2026-05-01T13:43:02.554Z</time></trkpt><trkpt lat="42.2574217" lon="14.1815829"><ele>255.0</ele><time>2026-05-01T13:43:03.625Z</time></trkpt><trkpt lat="42.2574512" lon="14.1814554"><ele>255.0</ele><time>2026-05-01T13:43:04.634Z</time></trkpt><trkpt lat="42.2574753" lon="14.1813539"><ele>255.0</ele><time>2026-05-01T13:43:05.613Z</time></trkpt><trkpt lat="42.2575339" lon="14.18122"><ele>255.0</ele><time>2026-05-01T13:43:07.631Z</time></trkpt><trkpt lat="42.2575936" lon="14.1811117"><ele>256.8</ele><time>2026-05-01T13:43:09.638Z</time></trkpt><trkpt lat="42.2576588" lon="14.1809877"><ele>258.6</ele><time>2026-05-01T13:43:11.644Z</time></trkpt><trkpt lat="42.2577269" lon="14.1808618"><ele>260.4</ele><time>2026-05-01T13:43:13.627Z</time></trkpt><trkpt lat="42.2577697" lon="14.1807893"><ele>262.2</ele><time>2026-05-01T13:43:14.633Z</time></trkpt><trkpt lat="42.2578166" lon="14.1807096"><ele>264.0</ele><time>2026-05-01T13:43:15.628Z</time></trkpt><trkpt lat="42.2578735" lon="14.1805296"><ele>266.1666666666667</ele><time>2026-05-01T13:43:17.623Z</time></trkpt><trkpt lat="42.2578899" lon="14.1804152"><ele>268.3333333333333</ele><time>2026-05-01T13:43:18.623Z</time></trkpt><trkpt lat="42.2579017" lon="14.1802988"><ele>270.5</ele><time>2026-05-01T13:43:19.628Z</time></trkpt><trkpt lat="42.2579123" lon="14.1801801"><ele>272.66666666666663</ele><time>2026-05-01T13:43:20.621Z</time></trkpt><trkpt lat="42.2579219" lon="14.1800589"><ele>274.8333333333333</ele><time>2026-05-01T13:43:21.611Z</time></trkpt><trkpt lat="42.2579302" lon="14.1799302"><ele>277.0</ele><time>2026-05-01T13:43:22.61Z</time></trkpt><trkpt lat="42.2579402" lon="14.1797993"><ele>278.8333333333333</ele><time>2026-05-01T13:43:23.605Z</time></trkpt><trkpt lat="42.2579437" lon="14.1796662"><ele>280.66666666666663</ele><time>2026-05-01T13:43:24.625Z</time></trkpt><trkpt lat="42.2579403" lon="14.1795582"><ele>282.5</ele><time>2026-05-01T13:43:25.62Z</time></trkpt><trkpt lat="42.2579372" lon="14.1794506"><ele>284.3333333333333</ele><time>2026-05-01T13:43:26.631Z</time></trkpt><trkpt lat="42.2579485" lon="14.1792919"><ele>286.1666666666667</ele><time>2026-05-01T13:43:28.642Z</time></trkpt><trkpt lat="42.2579642" lon="14.1791953"><ele>288.0</ele><time>2026-05-01T13:43:29.606Z</time></trkpt><trkpt lat="42.2579794" lon="14.1790801"><ele>290.0</ele><time>2026-05-01T13:43:30.625Z</time></trkpt><trkpt lat="42.257998" lon="14.1789491"><ele>292.0</ele><time>2026-05-01T13:43:31.612Z</time></trkpt><trkpt lat="42.2580146" lon="14.1787871"><ele>294.0</ele><time>2026-05-01T13:43:32.517Z</time></trkpt><trkpt lat="42.2580601" lon="14.1786607"><ele>296.0</ele><time>2026-05-01T13:43:33.535Z</time></trkpt><trkpt lat="42.258078" lon="14.1785418"><ele>298.0</ele><time>2026-05-01T13:43:34.533Z</time></trkpt><trkpt lat="42.2580818" lon="14.1784133"><ele>298.0</ele><time>2026-05-01T13:43:35.525Z</time></trkpt><trkpt lat="42.2580913" lon="14.1783032"><ele>298.0</ele><time>2026-05-01T13:43:36.529Z</time></trkpt><trkpt lat="42.2581142" lon="14.1782145"><ele>298.0</ele><time>2026-05-01T13:43:37.525Z</time></trkpt><trkpt lat="42.2581251" lon="14.1780704"><ele>298.0</ele><time>2026-05-01T13:43:39.533Z</time></trkpt><trkpt lat="42.2581179" lon="14.1779704"><ele>298.0</ele><time>2026-05-01T13:43:40.541Z</time></trkpt><trkpt lat="42.2580717" lon="14.17784"><ele>298.0</ele><time>2026-05-01T13:43:42.549Z</time></trkpt><trkpt lat="42.2579626" lon="14.1777697"><ele>299.4</ele><time>2026-05-01T13:43:44.536Z</time></trkpt><trkpt lat="42.2578614" lon="14.1776851"><ele>300.8</ele><time>2026-05-01T13:43:46.537Z</time></trkpt><trkpt lat="42.2577366" lon="14.1776854"><ele>302.2</ele><time>2026-05-01T13:43:48.529Z</time></trkpt><trkpt lat="42.2576695" lon="14.1777184"><ele>303.6</ele><time>2026-05-01T13:43:49.542Z</time></trkpt><trkpt lat="42.257604" lon="14.1777187"><ele>305.0</ele><time>2026-05-01T13:43:50.534Z</time></trkpt><trkpt lat="42.257475" lon="14.1776782"><ele>305.0</ele><time>2026-05-01T13:43:52.531Z</time></trkpt><trkpt lat="42.257402" lon="14.177698"><ele>305.0</ele><time>2026-05-01T13:43:53.546Z</time></trkpt><trkpt lat="42.2573242" lon="14.177752"><ele>305.0</ele><time>2026-05-01T13:43:54.536Z</time></trkpt><trkpt lat="42.2572184" lon="14.1778127"><ele>305.0</ele><time>2026-05-01T13:43:56.544Z</time></trkpt><trkpt lat="42.257153" lon="14.1779182"><ele>305.0</ele><time>2026-05-01T13:43:58.561Z</time></trkpt><trkpt lat="42.2570814" lon="14.1779532"><ele>306.83333333333337</ele><time>2026-05-01T13:44:02.557Z</time></trkpt><trkpt lat="42.2570261" lon="14.1778948"><ele>308.6666666666667</ele><time>2026-05-01T13:44:11.551Z</time></trkpt><trkpt lat="42.2570537" lon="14.1777615"><ele>310.5</ele><time>2026-05-01T13:44:13.574Z</time></trkpt><trkpt lat="42.2570821" lon="14.1776668"><ele>312.3333333333333</ele><time>2026-05-01T13:44:14.549Z</time></trkpt><trkpt lat="42.2571058" lon="14.1775606"><ele>314.16666666666663</ele><time>2026-05-01T13:44:15.55Z</time></trkpt><trkpt lat="42.2571364" lon="14.1774632"><ele>316.0</ele><time>2026-05-01T13:44:16.542Z</time></trkpt><trkpt lat="42.2571809" lon="14.1773617"><ele>315.8</ele><time>2026-05-01T13:44:17.535Z</time></trkpt><trkpt lat="42.257241" lon="14.1772545"><ele>315.6</ele><time>2026-05-01T13:44:18.536Z</time></trkpt><trkpt lat="42.2573088" lon="14.177133"><ele>315.4</ele><time>2026-05-01T13:44:19.543Z</time></trkpt><trkpt lat="42.2573687" lon="14.1770089"><ele>315.2</ele><time>2026-05-01T13:44:20.534Z</time></trkpt><trkpt lat="42.2574133" lon="14.1769102"><ele>315.0</ele><time>2026-05-01T13:44:21.542Z</time></trkpt><trkpt lat="42.2574412" lon="14.1768133"><ele>315.0</ele><time>2026-05-01T13:44:22.539Z</time></trkpt><trkpt lat="42.2574658" lon="14.1767211"><ele>315.0</ele><time>2026-05-01T13:44:23.541Z</time></trkpt><trkpt lat="42.2574869" lon="14.1766384"><ele>315.0</ele><time>2026-05-01T13:44:24.543Z</time></trkpt><trkpt lat="42.2575318" lon="14.1764999"><ele>315.0</ele><time>2026-05-01T13:44:26.542Z</time></trkpt><trkpt lat="42.2575522" lon="14.176402"><ele>315.0</ele><time>2026-05-01T13:44:28.569Z</time></trkpt><trkpt lat="42.257595" lon="14.1763189"><ele>315.0</ele><time>2026-05-01T13:44:32.554Z</time></trkpt><trkpt lat="42.2575996" lon="14.1762104"><ele>316.2857142857143</ele><time>2026-05-01T13:44:35.543Z</time></trkpt><trkpt lat="42.2575475" lon="14.1761189"><ele>317.57142857142856</ele><time>2026-05-01T13:44:37.541Z</time></trkpt><trkpt lat="42.2574891" lon="14.1760628"><ele>318.8571428571429</ele><time>2026-05-01T13:44:38.544Z</time></trkpt><trkpt lat="42.2574358" lon="14.1760143"><ele>320.1428571428571</ele><time>2026-05-01T13:44:39.543Z</time></trkpt><trkpt lat="42.2573836" lon="14.1759634"><ele>321.42857142857144</ele><time>2026-05-01T13:44:40.537Z</time></trkpt><trkpt lat="42.2573313" lon="14.1759141"><ele>322.7142857142857</ele><time>2026-05-01T13:44:41.54Z</time></trkpt><trkpt lat="42.2572827" lon="14.1758554"><ele>324.0</ele><time>2026-05-01T13:44:42.533Z</time></trkpt><trkpt lat="42.2572558" lon="14.1757359"><ele>324.8333333333333</ele><time>2026-05-01T13:44:44.548Z</time></trkpt><trkpt lat="42.2572272" lon="14.1756046"><ele>325.6666666666667</ele><time>2026-05-01T13:44:46.549Z</time></trkpt><trkpt lat="42.2571931" lon="14.1754946"><ele>326.5</ele><time>2026-05-01T13:44:48.56Z</time></trkpt><trkpt lat="42.257167" lon="14.1753787"><ele>327.33333333333337</ele><time>2026-05-01T13:44:50.546Z</time></trkpt><trkpt lat="42.257181" lon="14.1752815"><ele>328.1666666666667</ele><time>2026-05-01T13:44:51.542Z</time></trkpt><trkpt lat="42.2572123" lon="14.1751744"><ele>329.0</ele><time>2026-05-01T13:44:52.543Z</time></trkpt><trkpt lat="42.2572566" lon="14.1750478"><ele>329.0</ele><time>2026-05-01T13:44:53.54Z</time></trkpt><trkpt lat="42.2573105" lon="14.174905"><ele>329.0</ele><time>2026-05-01T13:44:54.547Z</time></trkpt><trkpt lat="42.2573651" lon="14.1747543"><ele>329.0</ele><time>2026-05-01T13:44:55.546Z</time></trkpt><trkpt lat="42.2574352" lon="14.174594"><ele>329.0</ele><time>2026-05-01T13:44:56.55Z</time></trkpt><trkpt lat="42.2575032" lon="14.1744271"><ele>331.0</ele><time>2026-05-01T13:44:57.549Z</time></trkpt><trkpt lat="42.2575731" lon="14.1742782"><ele>333.0</ele><time>2026-05-01T13:44:58.557Z</time></trkpt><trkpt lat="42.2576179" lon="14.1741573"><ele>335.0</ele><time>2026-05-01T13:44:59.54Z</time></trkpt><trkpt lat="42.257672" lon="14.1740565"><ele>337.0</ele><time>2026-05-01T13:45:00.554Z</time></trkpt><trkpt lat="42.2577241" lon="14.1739472"><ele>339.0</ele><time>2026-05-01T13:45:01.548Z</time></trkpt><trkpt lat="42.2577809" lon="14.1738372"><ele>340.4</ele><time>2026-05-01T13:45:02.538Z</time></trkpt><trkpt lat="42.2578365" lon="14.173731"><ele>341.79999999999995</ele><time>2026-05-01T13:45:03.535Z</time></trkpt><trkpt lat="42.2579044" lon="14.1736298"><ele>343.20000000000005</ele><time>2026-05-01T13:45:04.531Z</time></trkpt><trkpt lat="42.2579732" lon="14.173531"><ele>344.6</ele><time>2026-05-01T13:45:05.528Z</time></trkpt><trkpt lat="42.2580402" lon="14.1734396"><ele>346.0</ele><time>2026-05-01T13:45:06.527Z</time></trkpt><trkpt lat="42.2581112" lon="14.1733643"><ele>345.66666666666663</ele><time>2026-05-01T13:45:07.526Z</time></trkpt><trkpt lat="42.2581835" lon="14.1732903"><ele>345.3333333333333</ele><time>2026-05-01T13:45:08.523Z</time></trkpt><trkpt lat="42.2582494" lon="14.1732277"><ele>345.0</ele><time>2026-05-01T13:45:09.526Z</time></trkpt><trkpt lat="42.2583036" lon="14.1731742"><ele>344.6666666666667</ele><time>2026-05-01T13:45:10.528Z</time></trkpt><trkpt lat="42.2583827" lon="14.1731147"><ele>344.33333333333337</ele><time>2026-05-01T13:45:12.53Z</time></trkpt><trkpt lat="42.258438" lon="14.1730094"><ele>344.0</ele><time>2026-05-01T13:45:39.536Z</time></trkpt><trkpt lat="42.2584683" lon="14.1729346"><ele>346.6</ele><time>2026-05-01T13:45:40.529Z</time></trkpt><trkpt lat="42.2585078" lon="14.1728445"><ele>349.2</ele><time>2026-05-01T13:45:41.516Z</time></trkpt><trkpt lat="42.2585628" lon="14.1727448"><ele>351.8</ele><time>2026-05-01T13:45:42.518Z</time></trkpt><trkpt lat="42.2586219" lon="14.1726561"><ele>354.40000000000003</ele><time>2026-05-01T13:45:43.51Z</time></trkpt><trkpt lat="42.2586882" lon="14.172559"><ele>357.0</ele><time>2026-05-01T13:45:44.514Z</time></trkpt><trkpt lat="42.2587566" lon="14.1724705"><ele>357.0</ele><time>2026-05-01T13:45:45.535Z</time></trkpt><trkpt lat="42.2588189" lon="14.1723832"><ele>357.0</ele><time>2026-05-01T13:45:46.517Z</time></trkpt><trkpt lat="42.2588826" lon="14.1723069"><ele>357.0</ele><time>2026-05-01T13:45:47.517Z</time></trkpt><trkpt lat="42.2589536" lon="14.1722341"><ele>357.0</ele><time>2026-05-01T13:45:48.517Z</time></trkpt><trkpt lat="42.2590202" lon="14.1721641"><ele>357.0</ele><time>2026-05-01T13:45:49.52Z</time></trkpt><trkpt lat="42.2590902" lon="14.1720902"><ele>357.0</ele><time>2026-05-01T13:45:50.522Z</time></trkpt><trkpt lat="42.2591634" lon="14.1720187"><ele>360.20000000000005</ele><time>2026-05-01T13:45:51.52Z</time></trkpt><trkpt lat="42.2592389" lon="14.1719473"><ele>363.4</ele><time>2026-05-01T13:45:52.523Z</time></trkpt><trkpt lat="42.2593133" lon="14.1718681"><ele>366.6</ele><time>2026-05-01T13:45:53.515Z</time></trkpt><trkpt lat="42.2593892" lon="14.1717847"><ele>369.79999999999995</ele><time>2026-05-01T13:45:54.52Z</time></trkpt><trkpt lat="42.2594602" lon="14.171686"><ele>373.0</ele><time>2026-05-01T13:45:55.515Z</time></trkpt><trkpt lat="42.2595027" lon="14.1715771"><ele>372.5</ele><time>2026-05-01T13:45:56.502Z</time></trkpt><trkpt lat="42.259524" lon="14.1714947"><ele>372.0</ele><time>2026-05-01T13:45:57.513Z</time></trkpt><trkpt lat="42.259561" lon="14.1714092"><ele>371.5</ele><time>2026-05-01T13:45:59.518Z</time></trkpt><trkpt lat="42.259614" lon="14.1713011"><ele>371.0</ele><time>2026-05-01T13:46:01.53Z</time></trkpt><trkpt lat="42.2596728" lon="14.1712299"><ele>370.5</ele><time>2026-05-01T13:46:03.531Z</time></trkpt><trkpt lat="42.2597362" lon="14.1711459"><ele>370.0</ele><time>2026-05-01T13:46:05.528Z</time></trkpt><trkpt lat="42.2597864" lon="14.1710896"><ele>370.0</ele><time>2026-05-01T13:46:06.517Z</time></trkpt><trkpt lat="42.2598596" lon="14.1710168"><ele>370.0</ele><time>2026-05-01T13:46:07.535Z</time></trkpt><trkpt lat="42.2599451" lon="14.1709379"><ele>370.0</ele><time>2026-05-01T13:46:08.605Z</time></trkpt><trkpt lat="42.2600253" lon="14.1708581"><ele>370.0</ele><time>2026-05-01T13:46:09.608Z</time></trkpt><trkpt lat="42.2601014" lon="14.1707788"><ele>370.0</ele><time>2026-05-01T13:46:10.612Z</time></trkpt><trkpt lat="42.2601796" lon="14.1706983"><ele>369.4</ele><time>2026-05-01T13:46:11.613Z</time></trkpt><trkpt lat="42.2602612" lon="14.1706183"><ele>368.8</ele><time>2026-05-01T13:46:12.617Z</time></trkpt><trkpt lat="42.2603456" lon="14.1705383"><ele>368.20000000000005</ele><time>2026-05-01T13:46:13.61Z</time></trkpt><trkpt lat="42.2604328" lon="14.1704562"><ele>367.6</ele><time>2026-05-01T13:46:14.609Z</time></trkpt><trkpt lat="42.2605188" lon="14.1703754"><ele>367.0</ele><time>2026-05-01T13:46:15.609Z</time></trkpt><trkpt lat="42.2606074" lon="14.1702906"><ele>364.6</ele><time>2026-05-01T13:46:16.625Z</time></trkpt><trkpt lat="42.2606886" lon="14.1702048"><ele>362.20000000000005</ele><time>2026-05-01T13:46:17.603Z</time></trkpt><trkpt lat="42.2607644" lon="14.1701171"><ele>359.8</ele><time>2026-05-01T13:46:18.605Z</time></trkpt><trkpt lat="42.2608396" lon="14.1700169"><ele>357.4</ele><time>2026-05-01T13:46:19.607Z</time></trkpt><trkpt lat="42.2609011" lon="14.1699343"><ele>355.0</ele><time>2026-05-01T13:46:20.61Z</time></trkpt><trkpt lat="42.2609535" lon="14.1698675"><ele>353.8333333333333</ele><time>2026-05-01T13:46:21.597Z</time></trkpt><trkpt lat="42.2610098" lon="14.1697345"><ele>352.66666666666663</ele><time>2026-05-01T13:46:23.598Z</time></trkpt><trkpt lat="42.261026" lon="14.1696479"><ele>351.5</ele><time>2026-05-01T13:46:24.589Z</time></trkpt><trkpt lat="42.2610364" lon="14.1695479"><ele>350.3333333333333</ele><time>2026-05-01T13:46:25.585Z</time></trkpt><trkpt lat="42.2610395" lon="14.1694608"><ele>349.1666666666667</ele><time>2026-05-01T13:46:26.587Z</time></trkpt><trkpt lat="42.2610433" lon="14.1693656"><ele>348.0</ele><time>2026-05-01T13:46:27.597Z</time></trkpt><trkpt lat="42.2610468" lon="14.1692737"><ele>348.0</ele><time>2026-05-01T13:46:28.634Z</time></trkpt><trkpt lat="42.2610484" lon="14.1691748"><ele>348.0</ele><time>2026-05-01T13:46:29.611Z</time></trkpt><trkpt lat="42.2610488" lon="14.1690722"><ele>348.0</ele><time>2026-05-01T13:46:30.613Z</time></trkpt><trkpt lat="42.2610441" lon="14.1689738"><ele>348.0</ele><time>2026-05-01T13:46:31.607Z</time></trkpt><trkpt lat="42.2610342" lon="14.1688811"><ele>348.0</ele><time>2026-05-01T13:46:32.594Z</time></trkpt><trkpt lat="42.2610253" lon="14.1687814"><ele>348.0</ele><time>2026-05-01T13:46:33.591Z</time></trkpt><trkpt lat="42.2610212" lon="14.1686849"><ele>348.0</ele><time>2026-05-01T13:46:34.589Z</time></trkpt><trkpt lat="42.2610276" lon="14.1685763"><ele>347.0</ele><time>2026-05-01T13:46:35.587Z</time></trkpt><trkpt lat="42.261048" lon="14.1684562"><ele>346.0</ele><time>2026-05-01T13:46:36.606Z</time></trkpt><trkpt lat="42.2610783" lon="14.1683347"><ele>345.0</ele><time>2026-05-01T13:46:37.606Z</time></trkpt><trkpt lat="42.2611136" lon="14.1682127"><ele>344.0</ele><time>2026-05-01T13:46:38.587Z</time></trkpt><trkpt lat="42.261148" lon="14.1680862"><ele>343.0</ele><time>2026-05-01T13:46:39.593Z</time></trkpt><trkpt lat="42.2611788" lon="14.1679663"><ele>341.5</ele><time>2026-05-01T13:46:40.585Z</time></trkpt><trkpt lat="42.2612006" lon="14.1678476"><ele>340.0</ele><time>2026-05-01T13:46:41.591Z</time></trkpt><trkpt lat="42.2612065" lon="14.1677366"><ele>338.5</ele><time>2026-05-01T13:46:42.602Z</time></trkpt><trkpt lat="42.2612054" lon="14.1676326"><ele>337.0</ele><time>2026-05-01T13:46:43.6Z</time></trkpt><trkpt lat="42.2611946" lon="14.1674835"><ele>335.5</ele><time>2026-05-01T13:46:45.582Z</time></trkpt><trkpt lat="42.2611866" lon="14.167381"><ele>334.0</ele><time>2026-05-01T13:46:47.599Z</time></trkpt><trkpt lat="42.2611759" lon="14.1672789"><ele>331.5</ele><time>2026-05-01T13:47:03.614Z</time></trkpt><trkpt lat="42.2611841" lon="14.1671913"><ele>329.0</ele><time>2026-05-01T13:47:09.622Z</time></trkpt><trkpt lat="42.2611619" lon="14.1670401"><ele>326.5</ele><time>2026-05-01T13:47:14.525Z</time></trkpt><trkpt lat="42.2612253" lon="14.166941"><ele>324.0</ele><time>2026-05-01T13:47:16.541Z</time></trkpt><trkpt lat="42.261303" lon="14.1669355"><ele>321.5</ele><time>2026-05-01T13:47:17.536Z</time></trkpt><trkpt lat="42.26138" lon="14.1669759"><ele>319.0</ele><time>2026-05-01T13:47:18.541Z</time></trkpt><trkpt lat="42.2614638" lon="14.1670606"><ele>318.66666666666663</ele><time>2026-05-01T13:47:19.516Z</time></trkpt><trkpt lat="42.2615482" lon="14.1671414"><ele>318.3333333333333</ele><time>2026-05-01T13:47:20.527Z</time></trkpt><trkpt lat="42.2616298" lon="14.1672317"><ele>318.0</ele><time>2026-05-01T13:47:21.527Z</time></trkpt><trkpt lat="42.2616876" lon="14.1673099"><ele>317.6666666666667</ele><time>2026-05-01T13:47:22.526Z</time></trkpt><trkpt lat="42.2617473" lon="14.1673725"><ele>317.33333333333337</ele><time>2026-05-01T13:47:23.523Z</time></trkpt><trkpt lat="42.2617998" lon="14.1674365"><ele>317.0</ele><time>2026-05-01T13:47:24.524Z</time></trkpt><trkpt lat="42.2618476" lon="14.1674977"><ele>317.0</ele><time>2026-05-01T13:47:25.527Z</time></trkpt><trkpt lat="42.2619434" lon="14.1676127"><ele>317.0</ele><time>2026-05-01T13:47:27.521Z</time></trkpt><trkpt lat="42.261991" lon="14.1676726"><ele>317.0</ele><time>2026-05-01T13:47:28.541Z</time></trkpt><trkpt lat="42.2620402" lon="14.1677421"><ele>317.0</ele><time>2026-05-01T13:47:29.519Z</time></trkpt><trkpt lat="42.2620976" lon="14.1677856"><ele>317.0</ele><time>2026-05-01T13:47:30.52Z</time></trkpt><trkpt lat="42.2622114" lon="14.1677639"><ele>317.0</ele><time>2026-05-01T13:47:32.516Z</time></trkpt><trkpt lat="42.2622888" lon="14.1677143"><ele>312.5</ele><time>2026-05-01T13:47:33.516Z</time></trkpt><trkpt lat="42.2623667" lon="14.1676784"><ele>308.0</ele><time>2026-05-01T13:47:34.522Z</time></trkpt><trkpt lat="42.2624425" lon="14.1676481"><ele>303.5</ele><time>2026-05-01T13:47:35.525Z</time></trkpt><trkpt lat="42.2625195" lon="14.1676283"><ele>299.0</ele><time>2026-05-01T13:47:36.522Z</time></trkpt><trkpt lat="42.2625904" lon="14.1676374"><ele>294.5</ele><time>2026-05-01T13:47:37.518Z</time></trkpt><trkpt lat="42.2626639" lon="14.1676691"><ele>290.0</ele><time>2026-05-01T13:47:38.52Z</time></trkpt><trkpt lat="42.2627333" lon="14.1677172"><ele>290.0</ele><time>2026-05-01T13:47:39.52Z</time></trkpt><trkpt lat="42.2628013" lon="14.1677793"><ele>290.0</ele><time>2026-05-01T13:47:40.518Z</time></trkpt><trkpt lat="42.2628805" lon="14.1678368"><ele>290.0</ele><time>2026-05-01T13:47:41.517Z</time></trkpt><trkpt lat="42.2629558" lon="14.1678906"><ele>290.0</ele><time>2026-05-01T13:47:42.519Z</time></trkpt><trkpt lat="42.2630337" lon="14.1679417"><ele>290.0</ele><time>2026-05-01T13:47:43.521Z</time></trkpt><trkpt lat="42.2631122" lon="14.1679957"><ele>290.0</ele><time>2026-05-01T13:47:44.516Z</time></trkpt><trkpt lat="42.2632001" lon="14.16806"><ele>287.25</ele><time>2026-05-01T13:47:45.512Z</time></trkpt><trkpt lat="42.263296" lon="14.1681382"><ele>284.5</ele><time>2026-05-01T13:47:46.516Z</time></trkpt><trkpt lat="42.2634115" lon="14.1682281"><ele>281.75</ele><time>2026-05-01T13:47:47.524Z</time></trkpt><trkpt lat="42.2635303" lon="14.1683185"><ele>279.0</ele><time>2026-05-01T13:47:48.525Z</time></trkpt><trkpt lat="42.2636543" lon="14.1683938"><ele>279.0</ele><time>2026-05-01T13:47:49.536Z</time></trkpt><trkpt lat="42.26378" lon="14.1684419"><ele>279.0</ele><time>2026-05-01T13:47:50.519Z</time></trkpt><trkpt lat="42.2638967" lon="14.1684574"><ele>279.0</ele><time>2026-05-01T13:47:51.514Z</time></trkpt><trkpt lat="42.2639867" lon="14.1684561"><ele>279.0</ele><time>2026-05-01T13:47:52.512Z</time></trkpt><trkpt lat="42.2640617" lon="14.1684342"><ele>279.0</ele><time>2026-05-01T13:47:53.513Z</time></trkpt><trkpt lat="42.2641259" lon="14.1684134"><ele>276.1666666666667</ele><time>2026-05-01T13:47:54.519Z</time></trkpt><trkpt lat="42.2641849" lon="14.168383"><ele>273.3333333333333</ele><time>2026-05-01T13:47:55.52Z</time></trkpt><trkpt lat="42.2642985" lon="14.168292"><ele>270.5</ele><time>2026-05-01T13:47:57.517Z</time></trkpt><trkpt lat="42.2643439" lon="14.1682177"><ele>267.66666666666663</ele><time>2026-05-01T13:47:58.532Z</time></trkpt><trkpt lat="42.2643819" lon="14.1681399"><ele>264.8333333333333</ele><time>2026-05-01T13:47:59.517Z</time></trkpt><trkpt lat="42.2644167" lon="14.1680502"><ele>262.0</ele><time>2026-05-01T13:48:00.52Z</time></trkpt><trkpt lat="42.2644509" lon="14.1679472"><ele>260.5</ele><time>2026-05-01T13:48:01.523Z</time></trkpt><trkpt lat="42.2644893" lon="14.1678411"><ele>259.0</ele><time>2026-05-01T13:48:02.531Z</time></trkpt><trkpt lat="42.2645335" lon="14.1677369"><ele>257.5</ele><time>2026-05-01T13:48:03.527Z</time></trkpt><trkpt lat="42.2645738" lon="14.1676361"><ele>256.0</ele><time>2026-05-01T13:48:04.534Z</time></trkpt><trkpt lat="42.2646225" lon="14.1675349"><ele>254.49999999999997</ele><time>2026-05-01T13:48:05.529Z</time></trkpt><trkpt lat="42.2646718" lon="14.1674448"><ele>253.0</ele><time>2026-05-01T13:48:06.529Z</time></trkpt><trkpt lat="42.2647231" lon="14.16737"><ele>248.33333333333331</ele><time>2026-05-01T13:48:07.519Z</time></trkpt><trkpt lat="42.2647864" lon="14.1673265"><ele>243.66666666666666</ele><time>2026-05-01T13:48:08.522Z</time></trkpt><trkpt lat="42.264849" lon="14.1673118"><ele>239.0</ele><time>2026-05-01T13:48:09.527Z</time></trkpt><trkpt lat="42.26496" lon="14.1673015"><ele>234.33333333333331</ele><time>2026-05-01T13:48:11.53Z</time></trkpt><trkpt lat="42.2650547" lon="14.1672312"><ele>229.66666666666666</ele><time>2026-05-01T13:48:13.531Z</time></trkpt><trkpt lat="42.2651066" lon="14.1671766"><ele>225.0</ele><time>2026-05-01T13:48:14.536Z</time></trkpt><trkpt lat="42.2651904" lon="14.1670459"><ele>225.00000000000003</ele><time>2026-05-01T13:48:16.534Z</time></trkpt><trkpt lat="42.2652437" lon="14.1669792"><ele>225.0</ele><time>2026-05-01T13:48:17.523Z</time></trkpt><trkpt lat="42.2652864" lon="14.1669146"><ele>225.00000000000003</ele><time>2026-05-01T13:48:18.534Z</time></trkpt><trkpt lat="42.2653303" lon="14.1668483"><ele>225.00000000000003</ele><time>2026-05-01T13:48:19.529Z</time></trkpt><trkpt lat="42.2653712" lon="14.1667772"><ele>225.0</ele><time>2026-05-01T13:48:20.548Z</time></trkpt><trkpt lat="42.2654266" lon="14.1666999"><ele>225.00000000000003</ele><time>2026-05-01T13:48:21.529Z</time></trkpt><trkpt lat="42.2654776" lon="14.1666202"><ele>225.00000000000003</ele><time>2026-05-01T13:48:22.528Z</time></trkpt><trkpt lat="42.2655164" lon="14.1665527"><ele>221.6</ele><time>2026-05-01T13:48:23.525Z</time></trkpt><trkpt lat="42.2656011" lon="14.1664516"><ele>218.2</ele><time>2026-05-01T13:48:25.531Z</time></trkpt><trkpt lat="42.2656878" lon="14.1663272"><ele>214.8</ele><time>2026-05-01T13:48:27.526Z</time></trkpt><trkpt lat="42.2657505" lon="14.1662585"><ele>211.4</ele><time>2026-05-01T13:48:28.549Z</time></trkpt><trkpt lat="42.2658104" lon="14.1661823"><ele>208.0</ele><time>2026-05-01T13:48:29.534Z</time></trkpt><trkpt lat="42.2658651" lon="14.1660898"><ele>207.99999999999997</ele><time>2026-05-01T13:48:30.534Z</time></trkpt><trkpt lat="42.2659086" lon="14.1660004"><ele>208.0</ele><time>2026-05-01T13:48:31.531Z</time></trkpt><trkpt lat="42.2659392" lon="14.1658916"><ele>208.0</ele><time>2026-05-01T13:48:32.536Z</time></trkpt><trkpt lat="42.2659631" lon="14.1657859"><ele>208.0</ele><time>2026-05-01T13:48:33.531Z</time></trkpt><trkpt lat="42.2659862" lon="14.1656993"><ele>207.99999999999997</ele><time>2026-05-01T13:48:34.532Z</time></trkpt><trkpt lat="42.2660248" lon="14.1655765"><ele>208.0</ele><time>2026-05-01T13:48:36.524Z</time></trkpt><trkpt lat="42.2661168" lon="14.1655856"><ele>208.0</ele><time>2026-05-01T13:48:39.531Z</time></trkpt><trkpt lat="42.2661698" lon="14.1656563"><ele>208.0</ele><time>2026-05-01T13:48:41.541Z</time></trkpt><trkpt lat="42.2662064" lon="14.1657705"><ele>208.0</ele><time>2026-05-01T13:48:43.537Z</time></trkpt><trkpt lat="42.2662403" lon="14.1659305"><ele>208.0</ele><time>2026-05-01T13:48:45.521Z</time></trkpt><trkpt lat="42.2662497" lon="14.1660148"><ele>208.0</ele><time>2026-05-01T13:48:46.523Z</time></trkpt><trkpt lat="42.2662844" lon="14.1661762"><ele>207.99999999999997</ele><time>2026-05-01T13:48:48.525Z</time></trkpt><trkpt lat="42.2663036" lon="14.1662611"><ele>208.0</ele><time>2026-05-01T13:48:49.527Z</time></trkpt><trkpt lat="42.2663399" lon="14.1664149"><ele>208.0</ele><time>2026-05-01T13:48:51.554Z</time></trkpt><trkpt lat="42.2663594" lon="14.1665046"><ele>208.0</ele><time>2026-05-01T13:48:52.527Z</time></trkpt><trkpt lat="42.266388" lon="14.1666017"><ele>207.99999999999997</ele><time>2026-05-01T13:48:53.518Z</time></trkpt><trkpt lat="42.2664301" lon="14.1666923"><ele>208.0</ele><time>2026-05-01T13:48:54.527Z</time></trkpt><trkpt lat="42.2664756" lon="14.1667841"><ele>207.66666666666666</ele><time>2026-05-01T13:48:55.53Z</time></trkpt><trkpt lat="42.2665174" lon="14.1668751"><ele>207.33333333333331</ele><time>2026-05-01T13:48:56.533Z</time></trkpt><trkpt lat="42.2665592" lon="14.166975"><ele>207.0</ele><time>2026-05-01T13:48:57.521Z</time></trkpt><trkpt lat="42.266606" lon="14.1670908"><ele>206.66666666666669</ele><time>2026-05-01T13:48:58.544Z</time></trkpt><trkpt lat="42.2666518" lon="14.1671979"><ele>206.33333333333334</ele><time>2026-05-01T13:48:59.522Z</time></trkpt><trkpt lat="42.2666972" lon="14.1672934"><ele>206.0</ele><time>2026-05-01T13:49:00.532Z</time></trkpt><trkpt lat="42.2667338" lon="14.1673799"><ele>206.00000000000003</ele><time>2026-05-01T13:49:01.529Z</time></trkpt><trkpt lat="42.2667639" lon="14.1674733"><ele>206.0</ele><time>2026-05-01T13:49:02.524Z</time></trkpt><trkpt lat="42.2667936" lon="14.1675693"><ele>206.0</ele><time>2026-05-01T13:49:03.521Z</time></trkpt><trkpt lat="42.2668313" lon="14.1676642"><ele>206.0</ele><time>2026-05-01T13:49:04.525Z</time></trkpt><trkpt lat="42.2668731" lon="14.1677613"><ele>206.00000000000003</ele><time>2026-05-01T13:49:05.523Z</time></trkpt><trkpt lat="42.2669356" lon="14.1678373"><ele>206.0</ele><time>2026-05-01T13:49:06.525Z</time></trkpt><trkpt lat="42.2669854" lon="14.1679209"><ele>206.00000000000003</ele><time>2026-05-01T13:49:07.53Z</time></trkpt><trkpt lat="42.2670293" lon="14.1680045"><ele>206.0</ele><time>2026-05-01T13:49:08.529Z</time></trkpt><trkpt lat="42.2670708" lon="14.1680854"><ele>206.0</ele><time>2026-05-01T13:49:09.529Z</time></trkpt><trkpt lat="42.2671234" lon="14.168165"><ele>206.0</ele><time>2026-05-01T13:49:10.53Z</time></trkpt><trkpt lat="42.267184" lon="14.1682455"><ele>206.00000000000003</ele><time>2026-05-01T13:49:11.533Z</time></trkpt><trkpt lat="42.2672423" lon="14.1683194"><ele>206.0</ele><time>2026-05-01T13:49:12.531Z</time></trkpt><trkpt lat="42.2673012" lon="14.1683875"><ele>202.66666666666669</ele><time>2026-05-01T13:49:13.534Z</time></trkpt><trkpt lat="42.2673521" lon="14.1684599"><ele>199.33333333333334</ele><time>2026-05-01T13:49:14.533Z</time></trkpt><trkpt lat="42.2673978" lon="14.1685295"><ele>196.0</ele><time>2026-05-01T13:49:15.533Z</time></trkpt><trkpt lat="42.2674457" lon="14.1685935"><ele>192.66666666666669</ele><time>2026-05-01T13:49:16.534Z</time></trkpt><trkpt lat="42.2675306" lon="14.1687183"><ele>189.33333333333334</ele><time>2026-05-01T13:49:18.528Z</time></trkpt><trkpt lat="42.2676051" lon="14.1687877"><ele>186.0</ele><time>2026-05-01T13:49:20.519Z</time></trkpt><trkpt lat="42.2676701" lon="14.1687017"><ele>186.0</ele><time>2026-05-01T13:49:23.537Z</time></trkpt><trkpt lat="42.2676685" lon="14.1686093"><ele>186.0</ele><time>2026-05-01T13:49:25.535Z</time></trkpt><trkpt lat="42.2676692" lon="14.1684938"><ele>186.0</ele><time>2026-05-01T13:49:27.537Z</time></trkpt><trkpt lat="42.267683" lon="14.1683282"><ele>186.0</ele><time>2026-05-01T13:49:29.546Z</time></trkpt><trkpt lat="42.2677069" lon="14.1681973"><ele>186.0</ele><time>2026-05-01T13:49:31.537Z</time></trkpt><trkpt lat="42.2677266" lon="14.168106"><ele>186.0</ele><time>2026-05-01T13:49:33.541Z</time></trkpt><trkpt lat="42.2677316" lon="14.1680013"><ele>185.33333333333334</ele><time>2026-05-01T13:49:36.546Z</time></trkpt><trkpt lat="42.2677448" lon="14.1679076"><ele>184.66666666666666</ele><time>2026-05-01T13:49:38.546Z</time></trkpt><trkpt lat="42.2677378" lon="14.1677717"><ele>184.0</ele><time>2026-05-01T13:49:40.539Z</time></trkpt><trkpt lat="42.2677193" lon="14.1676132"><ele>183.33333333333331</ele><time>2026-05-01T13:49:42.536Z</time></trkpt><trkpt lat="42.2677118" lon="14.1675242"><ele>182.66666666666666</ele><time>2026-05-01T13:49:43.535Z</time></trkpt><trkpt lat="42.26771" lon="14.1674374"><ele>182.0</ele><time>2026-05-01T13:49:44.538Z</time></trkpt><trkpt lat="42.2677141" lon="14.1673517"><ele>181.16666666666666</ele><time>2026-05-01T13:49:45.539Z</time></trkpt><trkpt lat="42.2677146" lon="14.1672604"><ele>180.33333333333331</ele><time>2026-05-01T13:49:46.538Z</time></trkpt><trkpt lat="42.2677115" lon="14.1671587"><ele>179.5</ele><time>2026-05-01T13:49:47.538Z</time></trkpt><trkpt lat="42.2676976" lon="14.1670537"><ele>178.66666666666666</ele><time>2026-05-01T13:49:48.539Z</time></trkpt><trkpt lat="42.2676871" lon="14.1669626"><ele>177.83333333333334</ele><time>2026-05-01T13:49:49.539Z</time></trkpt><trkpt lat="42.267685" lon="14.1668754"><ele>177.0</ele><time>2026-05-01T13:49:50.541Z</time></trkpt><trkpt lat="42.2676747" lon="14.1667106"><ele>177.0</ele><time>2026-05-01T13:49:52.552Z</time></trkpt><trkpt lat="42.267686" lon="14.1665596"><ele>177.0</ele><time>2026-05-01T13:49:54.536Z</time></trkpt><trkpt lat="42.2676983" lon="14.1664569"><ele>177.0</ele><time>2026-05-01T13:49:55.534Z</time></trkpt><trkpt lat="42.2677178" lon="14.1663538"><ele>177.0</ele><time>2026-05-01T13:49:56.534Z</time></trkpt><trkpt lat="42.2677375" lon="14.1662613"><ele>177.0</ele><time>2026-05-01T13:49:57.533Z</time></trkpt><trkpt lat="42.2677915" lon="14.1661188"><ele>176.5</ele><time>2026-05-01T13:49:59.531Z</time></trkpt><trkpt lat="42.2678829" lon="14.166038"><ele>176.0</ele><time>2026-05-01T13:50:01.538Z</time></trkpt><trkpt lat="42.2679966" lon="14.1659567"><ele>175.5</ele><time>2026-05-01T13:50:03.539Z</time></trkpt><trkpt lat="42.2680936" lon="14.1658442"><ele>175.0</ele><time>2026-05-01T13:50:05.54Z</time></trkpt><trkpt lat="42.2681365" lon="14.1656883"><ele>174.16666666666669</ele><time>2026-05-01T13:50:07.533Z</time></trkpt><trkpt lat="42.2681455" lon="14.1656035"><ele>173.33333333333334</ele><time>2026-05-01T13:50:08.529Z</time></trkpt><trkpt lat="42.2681301" lon="14.1654752"><ele>172.5</ele><time>2026-05-01T13:50:10.537Z</time></trkpt><trkpt lat="42.2681082" lon="14.1653006"><ele>171.66666666666666</ele><time>2026-05-01T13:50:12.534Z</time></trkpt><trkpt lat="42.268099" lon="14.165207"><ele>170.83333333333331</ele><time>2026-05-01T13:50:13.533Z</time></trkpt><trkpt lat="42.2680883" lon="14.1651184"><ele>170.0</ele><time>2026-05-01T13:50:14.533Z</time></trkpt><trkpt lat="42.2680698" lon="14.1649674"><ele>167.8</ele><time>2026-05-01T13:50:16.533Z</time></trkpt><trkpt lat="42.2680785" lon="14.1648397"><ele>165.6</ele><time>2026-05-01T13:50:18.541Z</time></trkpt><trkpt lat="42.2680786" lon="14.1646665"><ele>163.4</ele><time>2026-05-01T13:50:20.533Z</time></trkpt><trkpt lat="42.2680737" lon="14.1645156"><ele>161.2</ele><time>2026-05-01T13:50:22.535Z</time></trkpt><trkpt lat="42.2680799" lon="14.1643744"><ele>159.0</ele><time>2026-05-01T13:50:24.531Z</time></trkpt><trkpt lat="42.2680712" lon="14.1642199"><ele>159.0</ele><time>2026-05-01T13:50:26.524Z</time></trkpt><trkpt lat="42.2680731" lon="14.1640499"><ele>159.0</ele><time>2026-05-01T13:50:28.547Z</time></trkpt><trkpt lat="42.2680632" lon="14.16388"><ele>159.0</ele><time>2026-05-01T13:50:30.534Z</time></trkpt><trkpt lat="42.2680715" lon="14.1637075"><ele>159.0</ele><time>2026-05-01T13:50:32.532Z</time></trkpt><trkpt lat="42.2680894" lon="14.1636164"><ele>156.4</ele><time>2026-05-01T13:50:33.529Z</time></trkpt><trkpt lat="42.2681241" lon="14.1634735"><ele>153.8</ele><time>2026-05-01T13:50:35.526Z</time></trkpt><trkpt lat="42.2681646" lon="14.1633581"><ele>151.2</ele><time>2026-05-01T13:50:37.529Z</time></trkpt><trkpt lat="42.2682098" lon="14.1632062"><ele>148.6</ele><time>2026-05-01T13:50:39.531Z</time></trkpt><trkpt lat="42.2682401" lon="14.1631101"><ele>146.0</ele><time>2026-05-01T13:50:40.537Z</time></trkpt><trkpt lat="42.268278" lon="14.163025"><ele>146.0</ele><time>2026-05-01T13:50:41.531Z</time></trkpt><trkpt lat="42.2683203" lon="14.1629402"><ele>146.0</ele><time>2026-05-01T13:50:42.533Z</time></trkpt><trkpt lat="42.2683573" lon="14.1628459"><ele>146.0</ele><time>2026-05-01T13:50:43.534Z</time></trkpt><trkpt lat="42.2684031" lon="14.1627433"><ele>146.0</ele><time>2026-05-01T13:50:44.534Z</time></trkpt><trkpt lat="42.2684512" lon="14.1626424"><ele>146.0</ele><time>2026-05-01T13:50:45.538Z</time></trkpt><trkpt lat="42.268502" lon="14.162536"><ele>146.0</ele><time>2026-05-01T13:50:46.539Z</time></trkpt><trkpt lat="42.2685518" lon="14.1624376"><ele>147.66666666666666</ele><time>2026-05-01T13:50:47.602Z</time></trkpt><trkpt lat="42.2686132" lon="14.1623409"><ele>149.33333333333331</ele><time>2026-05-01T13:50:48.605Z</time></trkpt><trkpt lat="42.2686673" lon="14.1622751"><ele>151.0</ele><time>2026-05-01T13:50:49.597Z</time></trkpt><trkpt lat="42.2687362" lon="14.1622395"><ele>152.66666666666666</ele><time>2026-05-01T13:50:50.599Z</time></trkpt><trkpt lat="42.2688077" lon="14.1622342"><ele>154.33333333333334</ele><time>2026-05-01T13:50:51.592Z</time></trkpt><trkpt lat="42.2688827" lon="14.1622282"><ele>156.0</ele><time>2026-05-01T13:50:52.588Z</time></trkpt><trkpt lat="42.2689543" lon="14.1622025"><ele>156.0</ele><time>2026-05-01T13:50:53.586Z</time></trkpt><trkpt lat="42.2690246" lon="14.1621762"><ele>156.0</ele><time>2026-05-01T13:50:54.598Z</time></trkpt><trkpt lat="42.2690943" lon="14.1621514"><ele>156.0</ele><time>2026-05-01T13:50:55.596Z</time></trkpt><trkpt lat="42.2691986" lon="14.162221"><ele>156.0</ele><time>2026-05-01T13:50:59.521Z</time></trkpt><trkpt lat="42.2692441" lon="14.162137"><ele>156.0</ele><time>2026-05-01T13:51:00.523Z</time></trkpt><trkpt lat="42.2692728" lon="14.1620482"><ele>156.0</ele><time>2026-05-01T13:51:01.517Z</time></trkpt><trkpt lat="42.2692756" lon="14.1619454"><ele>156.0</ele><time>2026-05-01T13:51:02.531Z</time></trkpt><trkpt lat="42.2692618" lon="14.1618409"><ele>156.0</ele><time>2026-05-01T13:51:03.523Z</time></trkpt><trkpt lat="42.2692517" lon="14.1617418"><ele>156.0</ele><time>2026-05-01T13:51:04.524Z</time></trkpt><trkpt lat="42.2692371" lon="14.1616383"><ele>156.0</ele><time>2026-05-01T13:51:05.521Z</time></trkpt><trkpt lat="42.2692226" lon="14.1615346"><ele>156.0</ele><time>2026-05-01T13:51:06.524Z</time></trkpt><trkpt lat="42.2692051" lon="14.1614274"><ele>156.0</ele><time>2026-05-01T13:51:07.522Z</time></trkpt><trkpt lat="42.2691922" lon="14.1613175"><ele>157.0</ele><time>2026-05-01T13:51:08.528Z</time></trkpt><trkpt lat="42.2691793" lon="14.1612169"><ele>158.0</ele><time>2026-05-01T13:51:09.526Z</time></trkpt><trkpt lat="42.2691649" lon="14.1611089"><ele>159.0</ele><time>2026-05-01T13:51:10.52Z</time></trkpt><trkpt lat="42.2691505" lon="14.1610175"><ele>160.0</ele><time>2026-05-01T13:51:11.524Z</time></trkpt><trkpt lat="42.2691274" lon="14.1609261"><ele>161.0</ele><time>2026-05-01T13:51:12.522Z</time></trkpt><trkpt lat="42.2690939" lon="14.1608309"><ele>162.0</ele><time>2026-05-01T13:51:13.522Z</time></trkpt><trkpt lat="42.2690435" lon="14.160774"><ele>163.0</ele><time>2026-05-01T13:51:14.518Z</time></trkpt><trkpt lat="42.26898" lon="14.1607396"><ele>164.8</ele><time>2026-05-01T13:51:15.513Z</time></trkpt><trkpt lat="42.2689014" lon="14.160733"><ele>166.60000000000002</ele><time>2026-05-01T13:51:16.511Z</time></trkpt><trkpt lat="42.2688141" lon="14.1607414"><ele>168.39999999999998</ele><time>2026-05-01T13:51:17.512Z</time></trkpt><trkpt lat="42.26871" lon="14.1607642"><ele>170.2</ele><time>2026-05-01T13:51:18.517Z</time></trkpt><trkpt lat="42.2686099" lon="14.1607773"><ele>172.0</ele><time>2026-05-01T13:51:19.507Z</time></trkpt><trkpt lat="42.2685292" lon="14.1608161"><ele>172.0</ele><time>2026-05-01T13:51:20.506Z</time></trkpt><trkpt lat="42.2684695" lon="14.1608674"><ele>172.0</ele><time>2026-05-01T13:51:21.501Z</time></trkpt><trkpt lat="42.2684027" lon="14.160887"><ele>172.0</ele><time>2026-05-01T13:51:22.506Z</time></trkpt><trkpt lat="42.2683309" lon="14.1608869"><ele>172.0</ele><time>2026-05-01T13:51:23.509Z</time></trkpt><trkpt lat="42.2682669" lon="14.1608856"><ele>172.0</ele><time>2026-05-01T13:51:24.518Z</time></trkpt><trkpt lat="42.2681814" lon="14.1609174"><ele>172.0</ele><time>2026-05-01T13:51:26.514Z</time></trkpt><trkpt lat="42.2680817" lon="14.160971"><ele>172.0</ele><time>2026-05-01T13:51:28.535Z</time></trkpt><trkpt lat="42.2679569" lon="14.160974"><ele>172.0</ele><time>2026-05-01T13:51:30.521Z</time></trkpt><trkpt lat="42.2678929" lon="14.1609787"><ele>172.0</ele><time>2026-05-01T13:51:31.518Z</time></trkpt><trkpt lat="42.2678272" lon="14.1609801"><ele>172.0</ele><time>2026-05-01T13:51:32.519Z</time></trkpt><trkpt lat="42.2677216" lon="14.1609604"><ele>172.0</ele><time>2026-05-01T13:51:34.52Z</time></trkpt><trkpt lat="42.2676434" lon="14.1609181"><ele>172.0</ele><time>2026-05-01T13:51:36.524Z</time></trkpt><trkpt lat="42.2675959" lon="14.1608314"><ele>175.39999999999998</ele><time>2026-05-01T13:51:38.529Z</time></trkpt><trkpt lat="42.2676257" lon="14.1606979"><ele>178.79999999999998</ele><time>2026-05-01T13:51:40.527Z</time></trkpt><trkpt lat="42.2677193" lon="14.1605799"><ele>182.2</ele><time>2026-05-01T13:51:42.518Z</time></trkpt><trkpt lat="42.2677884" lon="14.1605171"><ele>185.6</ele><time>2026-05-01T13:51:43.512Z</time></trkpt><trkpt lat="42.2678662" lon="14.1604486"><ele>189.0</ele><time>2026-05-01T13:51:44.523Z</time></trkpt><trkpt lat="42.2679412" lon="14.1603716"><ele>189.0</ele><time>2026-05-01T13:51:45.521Z</time></trkpt><trkpt lat="42.2680025" lon="14.1603143"><ele>189.0</ele><time>2026-05-01T13:51:46.522Z</time></trkpt><trkpt lat="42.2680624" lon="14.1602642"><ele>189.0</ele><time>2026-05-01T13:51:47.521Z</time></trkpt><trkpt lat="42.2681314" lon="14.1601072"><ele>189.0</ele><time>2026-05-01T13:51:49.526Z</time></trkpt><trkpt lat="42.2681746" lon="14.1600057"><ele>189.0</ele><time>2026-05-01T13:51:50.529Z</time></trkpt><trkpt lat="42.2682234" lon="14.1599101"><ele>191.16666666666666</ele><time>2026-05-01T13:51:51.527Z</time></trkpt><trkpt lat="42.2682665" lon="14.1598274"><ele>193.33333333333331</ele><time>2026-05-01T13:51:52.528Z</time></trkpt><trkpt lat="42.2683057" lon="14.1597245"><ele>195.5</ele><time>2026-05-01T13:51:53.527Z</time></trkpt><trkpt lat="42.2683382" lon="14.159639"><ele>197.66666666666666</ele><time>2026-05-01T13:51:54.529Z</time></trkpt><trkpt lat="42.268371" lon="14.1595528"><ele>199.83333333333331</ele><time>2026-05-01T13:51:55.526Z</time></trkpt><trkpt lat="42.2683909" lon="14.1594469"><ele>202.0</ele><time>2026-05-01T13:51:56.542Z</time></trkpt><trkpt lat="42.2683999" lon="14.1593448"><ele>201.99999999999997</ele><time>2026-05-01T13:51:57.526Z</time></trkpt><trkpt lat="42.2683948" lon="14.15925"><ele>202.0</ele><time>2026-05-01T13:51:58.537Z</time></trkpt><trkpt lat="42.2683949" lon="14.159138"><ele>202.0</ele><time>2026-05-01T13:51:59.518Z</time></trkpt><trkpt lat="42.268384" lon="14.1590185"><ele>202.0</ele><time>2026-05-01T13:52:00.521Z</time></trkpt><trkpt lat="42.268376" lon="14.1588991"><ele>201.99999999999997</ele><time>2026-05-01T13:52:01.516Z</time></trkpt><trkpt lat="42.268358" lon="14.158777"><ele>202.0</ele><time>2026-05-01T13:52:02.519Z</time></trkpt><trkpt lat="42.2683437" lon="14.1586428"><ele>203.83333333333331</ele><time>2026-05-01T13:52:03.527Z</time></trkpt><trkpt lat="42.268334" lon="14.1585099"><ele>205.66666666666666</ele><time>2026-05-01T13:52:04.517Z</time></trkpt><trkpt lat="42.2683289" lon="14.1584058"><ele>207.5</ele><time>2026-05-01T13:52:05.519Z</time></trkpt><trkpt lat="42.26833" lon="14.1582885"><ele>209.33333333333331</ele><time>2026-05-01T13:52:06.519Z</time></trkpt><trkpt lat="42.2683395" lon="14.1581602"><ele>211.16666666666666</ele><time>2026-05-01T13:52:07.515Z</time></trkpt><trkpt lat="42.2683483" lon="14.1580389"><ele>213.0</ele><time>2026-05-01T13:52:08.52Z</time></trkpt><trkpt lat="42.2683486" lon="14.1579122"><ele>214.5</ele><time>2026-05-01T13:52:09.521Z</time></trkpt><trkpt lat="42.2683552" lon="14.1577948"><ele>216.0</ele><time>2026-05-01T13:52:10.517Z</time></trkpt><trkpt lat="42.2683596" lon="14.1576885"><ele>217.5</ele><time>2026-05-01T13:52:11.518Z</time></trkpt><trkpt lat="42.2683872" lon="14.1576103"><ele>219.0</ele><time>2026-05-01T13:52:12.517Z</time></trkpt><trkpt lat="42.2684245" lon="14.1575365"><ele>220.5</ele><time>2026-05-01T13:52:13.519Z</time></trkpt><trkpt lat="42.2684773" lon="14.1573926"><ele>222.0</ele><time>2026-05-01T13:52:15.52Z</time></trkpt><trkpt lat="42.2685181" lon="14.1572658"><ele>225.2</ele><time>2026-05-01T13:52:17.516Z</time></trkpt><trkpt lat="42.2685861" lon="14.1572103"><ele>228.39999999999998</ele><time>2026-05-01T13:52:19.527Z</time></trkpt><trkpt lat="42.2687019" lon="14.1571968"><ele>231.60000000000002</ele><time>2026-05-01T13:52:21.53Z</time></trkpt><trkpt lat="42.2687924" lon="14.1571894"><ele>234.8</ele><time>2026-05-01T13:52:22.507Z</time></trkpt><trkpt lat="42.2688939" lon="14.1571937"><ele>238.0</ele><time>2026-05-01T13:52:23.512Z</time></trkpt><trkpt lat="42.2689812" lon="14.1572265"><ele>238.16666666666666</ele><time>2026-05-01T13:52:24.514Z</time></trkpt><trkpt lat="42.2690682" lon="14.1572479"><ele>238.33333333333331</ele><time>2026-05-01T13:52:25.513Z</time></trkpt><trkpt lat="42.2691536" lon="14.1572737"><ele>238.5</ele><time>2026-05-01T13:52:26.516Z</time></trkpt><trkpt lat="42.2692249" lon="14.1572946"><ele>238.66666666666669</ele><time>2026-05-01T13:52:27.523Z</time></trkpt><trkpt lat="42.2692945" lon="14.1572922"><ele>238.83333333333334</ele><time>2026-05-01T13:52:28.534Z</time></trkpt><trkpt lat="42.2693657" lon="14.1572984"><ele>239.0</ele><time>2026-05-01T13:52:29.512Z</time></trkpt><trkpt lat="42.2694328" lon="14.1573192"><ele>239.0</ele><time>2026-05-01T13:52:30.516Z</time></trkpt><trkpt lat="42.2695519" lon="14.1573405"><ele>238.99999999999997</ele><time>2026-05-01T13:52:32.519Z</time></trkpt><trkpt lat="42.2696667" lon="14.1573028"><ele>238.99999999999997</ele><time>2026-05-01T13:52:34.514Z</time></trkpt><trkpt lat="42.2697395" lon="14.157233"><ele>239.0</ele><time>2026-05-01T13:52:35.524Z</time></trkpt><trkpt lat="42.2698211" lon="14.157143"><ele>239.0</ele><time>2026-05-01T13:52:36.527Z</time></trkpt><trkpt lat="42.2698921" lon="14.1570443"><ele>238.39999999999998</ele><time>2026-05-01T13:52:37.527Z</time></trkpt><trkpt lat="42.2699541" lon="14.1569478"><ele>237.79999999999998</ele><time>2026-05-01T13:52:38.523Z</time></trkpt><trkpt lat="42.2700015" lon="14.1568361"><ele>237.20000000000002</ele><time>2026-05-01T13:52:39.514Z</time></trkpt><trkpt lat="42.2700273" lon="14.1567205"><ele>236.60000000000002</ele><time>2026-05-01T13:52:40.52Z</time></trkpt><trkpt lat="42.2700519" lon="14.1565973"><ele>236.0</ele><time>2026-05-01T13:52:41.522Z</time></trkpt><trkpt lat="42.2700702" lon="14.1564619"><ele>237.50000000000003</ele><time>2026-05-01T13:52:42.526Z</time></trkpt><trkpt lat="42.2700967" lon="14.1563342"><ele>239.0</ele><time>2026-05-01T13:52:43.525Z</time></trkpt><trkpt lat="42.2701255" lon="14.1562205"><ele>240.5</ele><time>2026-05-01T13:52:44.525Z</time></trkpt><trkpt lat="42.2701553" lon="14.156115"><ele>242.0</ele><time>2026-05-01T13:52:45.529Z</time></trkpt><trkpt lat="42.2701869" lon="14.1560016"><ele>243.50000000000003</ele><time>2026-05-01T13:52:46.529Z</time></trkpt><trkpt lat="42.2702285" lon="14.1558965"><ele>245.0</ele><time>2026-05-01T13:52:47.531Z</time></trkpt><trkpt lat="42.270269" lon="14.1557885"><ele>246.16666666666669</ele><time>2026-05-01T13:52:48.533Z</time></trkpt><trkpt lat="42.270302" lon="14.1556975"><ele>247.33333333333334</ele><time>2026-05-01T13:52:49.526Z</time></trkpt><trkpt lat="42.2703106" lon="14.1556098"><ele>248.5</ele><time>2026-05-01T13:52:50.523Z</time></trkpt><trkpt lat="42.2702951" lon="14.1555237"><ele>249.66666666666669</ele><time>2026-05-01T13:52:51.523Z</time></trkpt><trkpt lat="42.270234" lon="14.1554688"><ele>250.83333333333334</ele><time>2026-05-01T13:52:53.526Z</time></trkpt><trkpt lat="42.2701248" lon="14.1554783"><ele>252.0</ele><time>2026-05-01T13:52:56.541Z</time></trkpt><trkpt lat="42.2700145" lon="14.1554976"><ele>252.0</ele><time>2026-05-01T13:52:58.56Z</time></trkpt><trkpt lat="42.2699399" lon="14.1555481"><ele>252.0</ele><time>2026-05-01T13:52:59.537Z</time></trkpt><trkpt lat="42.2698723" lon="14.1555798"><ele>252.0</ele><time>2026-05-01T13:53:00.542Z</time></trkpt><trkpt lat="42.2697633" lon="14.1555778"><ele>252.0</ele><time>2026-05-01T13:53:02.529Z</time></trkpt><trkpt lat="42.2696988" lon="14.1554238"><ele>252.0</ele><time>2026-05-01T13:53:04.532Z</time></trkpt><trkpt lat="42.2697044" lon="14.1553241"><ele>252.0</ele><time>2026-05-01T13:53:05.527Z</time></trkpt><trkpt lat="42.269737" lon="14.1552349"><ele>252.0</ele><time>2026-05-01T13:53:06.528Z</time></trkpt><trkpt lat="42.2697866" lon="14.1551391"><ele>252.0</ele><time>2026-05-01T13:53:07.519Z</time></trkpt><trkpt lat="42.2698413" lon="14.1550536"><ele>252.0</ele><time>2026-05-01T13:53:08.533Z</time></trkpt><trkpt lat="42.269897" lon="14.1549718"><ele>252.0</ele><time>2026-05-01T13:53:09.532Z</time></trkpt><trkpt lat="42.2699595" lon="14.1548761"><ele>252.0</ele><time>2026-05-01T13:53:10.533Z</time></trkpt><trkpt lat="42.2700118" lon="14.1547638"><ele>254.39999999999998</ele><time>2026-05-01T13:53:11.528Z</time></trkpt><trkpt lat="42.270065" lon="14.1546401"><ele>256.79999999999995</ele><time>2026-05-01T13:53:12.53Z</time></trkpt><trkpt lat="42.2701207" lon="14.1545243"><ele>259.2</ele><time>2026-05-01T13:53:13.53Z</time></trkpt><trkpt lat="42.2701708" lon="14.1544163"><ele>261.59999999999997</ele><time>2026-05-01T13:53:14.525Z</time></trkpt><trkpt lat="42.2702184" lon="14.1543319"><ele>264.0</ele><time>2026-05-01T13:53:15.53Z</time></trkpt><trkpt lat="42.2702726" lon="14.1542496"><ele>264.0</ele><time>2026-05-01T13:53:16.528Z</time></trkpt><trkpt lat="42.2703274" lon="14.1541499"><ele>264.0</ele><time>2026-05-01T13:53:17.53Z</time></trkpt><trkpt lat="42.2703879" lon="14.1540371"><ele>264.0</ele><time>2026-05-01T13:53:18.529Z</time></trkpt><trkpt lat="42.270455" lon="14.1539369"><ele>264.0</ele><time>2026-05-01T13:53:19.528Z</time></trkpt><trkpt lat="42.2705265" lon="14.1538489"><ele>264.0</ele><time>2026-05-01T13:53:20.531Z</time></trkpt><trkpt lat="42.2706048" lon="14.1537538"><ele>265.2</ele><time>2026-05-01T13:53:21.553Z</time></trkpt><trkpt lat="42.2706817" lon="14.1536524"><ele>266.4</ele><time>2026-05-01T13:53:22.615Z</time></trkpt><trkpt lat="42.2707591" lon="14.1535512"><ele>267.6</ele><time>2026-05-01T13:53:23.616Z</time></trkpt><trkpt lat="42.2708275" lon="14.1534554"><ele>268.8</ele><time>2026-05-01T13:53:24.611Z</time></trkpt><trkpt lat="42.2708894" lon="14.1533587"><ele>270.0</ele><time>2026-05-01T13:53:25.609Z</time></trkpt><trkpt lat="42.2709416" lon="14.1532658"><ele>271.5</ele><time>2026-05-01T13:53:26.601Z</time></trkpt><trkpt lat="42.2709928" lon="14.1531834"><ele>273.0</ele><time>2026-05-01T13:53:27.592Z</time></trkpt><trkpt lat="42.2710172" lon="14.1530965"><ele>274.5</ele><time>2026-05-01T13:54:02.619Z</time></trkpt><trkpt lat="42.2710555" lon="14.1530078"><ele>276.0</ele><time>2026-05-01T13:55:26.629Z</time></trkpt><trkpt lat="42.2710716" lon="14.1528985"><ele>277.5</ele><time>2026-05-01T13:55:28.624Z</time></trkpt><trkpt lat="42.2710969" lon="14.1528016"><ele>279.0</ele><time>2026-05-01T13:55:42.545Z</time></trkpt><trkpt lat="42.2711815" lon="14.1527552"><ele>279.0</ele><time>2026-05-01T13:55:45.542Z</time></trkpt><trkpt lat="42.271277" lon="14.1527414"><ele>279.0</ele><time>2026-05-01T13:55:47.54Z</time></trkpt><trkpt lat="42.271394" lon="14.1527326"><ele>279.0</ele><time>2026-05-01T13:55:49.525Z</time></trkpt><trkpt lat="42.2714714" lon="14.1527212"><ele>279.0</ele><time>2026-05-01T13:55:50.529Z</time></trkpt><trkpt lat="42.2715424" lon="14.1527098"><ele>279.0</ele><time>2026-05-01T13:55:51.524Z</time></trkpt><trkpt lat="42.2716587" lon="14.152673"><ele>276.2</ele><time>2026-05-01T13:55:53.533Z</time></trkpt><trkpt lat="42.2717658" lon="14.152663"><ele>273.4</ele><time>2026-05-01T13:55:55.536Z</time></trkpt><trkpt lat="42.27186" lon="14.1527173"><ele>270.6</ele><time>2026-05-01T13:55:57.548Z</time></trkpt><trkpt lat="42.2719369" lon="14.1527964"><ele>267.8</ele><time>2026-05-01T13:55:59.531Z</time></trkpt><trkpt lat="42.2719997" lon="14.1528855"><ele>265.0</ele><time>2026-05-01T13:56:01.536Z</time></trkpt><trkpt lat="42.2720514" lon="14.1529728"><ele>265.0</ele><time>2026-05-01T13:56:03.558Z</time></trkpt><trkpt lat="42.2721261" lon="14.1530729"><ele>265.0</ele><time>2026-05-01T13:56:05.526Z</time></trkpt><trkpt lat="42.2721896" lon="14.1532197"><ele>265.0</ele><time>2026-05-01T13:56:07.526Z</time></trkpt><trkpt lat="42.2722545" lon="14.1533542"><ele>265.0</ele><time>2026-05-01T13:56:09.529Z</time></trkpt><trkpt lat="42.2723382" lon="14.1534527"><ele>260.4</ele><time>2026-05-01T13:56:11.528Z</time></trkpt><trkpt lat="42.2724167" lon="14.1535487"><ele>255.8</ele><time>2026-05-01T13:56:13.527Z</time></trkpt><trkpt lat="42.2724898" lon="14.1536694"><ele>251.2</ele><time>2026-05-01T13:56:15.523Z</time></trkpt><trkpt lat="42.2725577" lon="14.1537771"><ele>246.6</ele><time>2026-05-01T13:56:17.524Z</time></trkpt><trkpt lat="42.2725846" lon="14.1538713"><ele>242.0</ele><time>2026-05-01T13:56:19.532Z</time></trkpt><trkpt lat="42.272641" lon="14.153945"><ele>242.00000000000003</ele><time>2026-05-01T13:56:21.528Z</time></trkpt><trkpt lat="42.27273" lon="14.1540004"><ele>242.0</ele><time>2026-05-01T13:56:23.544Z</time></trkpt><trkpt lat="42.2727879" lon="14.1540353"><ele>242.0</ele><time>2026-05-01T13:56:24.541Z</time></trkpt><trkpt lat="42.2728458" lon="14.1540822"><ele>242.0</ele><time>2026-05-01T13:56:25.534Z</time></trkpt><trkpt lat="42.2729293" lon="14.1541651"><ele>242.00000000000003</ele><time>2026-05-01T13:56:27.532Z</time></trkpt><trkpt lat="42.2730152" lon="14.1542212"><ele>242.0</ele><time>2026-05-01T13:56:29.539Z</time></trkpt><trkpt lat="42.273117" lon="14.1542812"><ele>236.39999999999998</ele><time>2026-05-01T13:56:31.539Z</time></trkpt><trkpt lat="42.2732315" lon="14.1543315"><ele>230.79999999999998</ele><time>2026-05-01T13:56:33.536Z</time></trkpt><trkpt lat="42.2733231" lon="14.1544122"><ele>225.2</ele><time>2026-05-01T13:56:35.537Z</time></trkpt><trkpt lat="42.2733779" lon="14.1545026"><ele>219.6</ele><time>2026-05-01T13:56:37.535Z</time></trkpt><trkpt lat="42.2733988" lon="14.1545832"><ele>214.0</ele><time>2026-05-01T13:56:39.536Z</time></trkpt><trkpt lat="42.2734153" lon="14.1546903"><ele>213.99999999999997</ele><time>2026-05-01T13:56:43.541Z</time></trkpt><trkpt lat="42.2734454" lon="14.1547892"><ele>214.0</ele><time>2026-05-01T13:56:45.544Z</time></trkpt><trkpt lat="42.2734606" lon="14.154884"><ele>214.0</ele><time>2026-05-01T13:56:47.547Z</time></trkpt><trkpt lat="42.2734792" lon="14.1549953"><ele>214.0</ele><time>2026-05-01T13:56:49.544Z</time></trkpt><trkpt lat="42.2735407" lon="14.1550801"><ele>213.99999999999997</ele><time>2026-05-01T13:56:51.542Z</time></trkpt><trkpt lat="42.2736223" lon="14.155146"><ele>214.0</ele><time>2026-05-01T13:56:53.541Z</time></trkpt><trkpt lat="42.2737128" lon="14.1552062"><ele>211.49999999999997</ele><time>2026-05-01T13:56:55.518Z</time></trkpt><trkpt lat="42.2738048" lon="14.1552669"><ele>209.0</ele><time>2026-05-01T13:56:57.529Z</time></trkpt><trkpt lat="42.2738894" lon="14.1553777"><ele>206.5</ele><time>2026-05-01T13:56:59.526Z</time></trkpt><trkpt lat="42.2739265" lon="14.1554515"><ele>204.0</ele><time>2026-05-01T13:57:00.524Z</time></trkpt><trkpt lat="42.2739603" lon="14.1555251"><ele>201.49999999999997</ele><time>2026-05-01T13:57:01.521Z</time></trkpt><trkpt lat="42.2739936" lon="14.1555977"><ele>199.0</ele><time>2026-05-01T13:57:02.532Z</time></trkpt><trkpt lat="42.2740644" lon="14.1556741"><ele>197.83333333333331</ele><time>2026-05-01T13:57:04.532Z</time></trkpt><trkpt lat="42.2741683" lon="14.1556855"><ele>196.66666666666666</ele><time>2026-05-01T13:57:06.539Z</time></trkpt><trkpt lat="42.2742411" lon="14.1557873"><ele>195.5</ele><time>2026-05-01T13:57:08.542Z</time></trkpt><trkpt lat="42.2742641" lon="14.1558786"><ele>194.33333333333331</ele><time>2026-05-01T13:57:10.547Z</time></trkpt><trkpt lat="42.2742831" lon="14.1559726"><ele>193.16666666666666</ele><time>2026-05-01T13:57:13.543Z</time></trkpt><trkpt lat="42.2743024" lon="14.1560928"><ele>192.0</ele><time>2026-05-01T13:57:17.543Z</time></trkpt><trkpt lat="42.2743449" lon="14.1561954"><ele>191.0</ele><time>2026-05-01T13:57:19.542Z</time></trkpt><trkpt lat="42.2743927" lon="14.1563039"><ele>190.0</ele><time>2026-05-01T13:57:21.545Z</time></trkpt><trkpt lat="42.2744245" lon="14.1564178"><ele>189.0</ele><time>2026-05-01T13:57:23.531Z</time></trkpt><trkpt lat="42.2744501" lon="14.1565204"><ele>188.0</ele><time>2026-05-01T13:57:25.542Z</time></trkpt><trkpt lat="42.2744989" lon="14.1565804"><ele>187.0</ele><time>2026-05-01T13:57:27.543Z</time></trkpt><trkpt lat="42.2745562" lon="14.1566275"><ele>186.0</ele><time>2026-05-01T13:57:29.546Z</time></trkpt><trkpt lat="42.2746135" lon="14.1566692"><ele>183.57142857142858</ele><time>2026-05-01T13:57:31.541Z</time></trkpt><trkpt lat="42.274678" lon="14.1566874"><ele>181.14285714285714</ele><time>2026-05-01T13:57:33.534Z</time></trkpt><trkpt lat="42.2747445" lon="14.1566748"><ele>178.71428571428572</ele><time>2026-05-01T13:57:35.535Z</time></trkpt><trkpt lat="42.2748036" lon="14.1566255"><ele>176.28571428571428</ele><time>2026-05-01T13:57:38.539Z</time></trkpt><trkpt lat="42.2748618" lon="14.1565924"><ele>173.85714285714286</ele><time>2026-05-01T13:57:40.536Z</time></trkpt><trkpt lat="42.2749258" lon="14.1565971"><ele>171.42857142857144</ele><time>2026-05-01T13:57:50.542Z</time></trkpt><trkpt lat="42.2749921" lon="14.1565885"><ele>169.0</ele><time>2026-05-01T13:57:56.546Z</time></trkpt><trkpt lat="42.2750657" lon="14.1566009"><ele>169.71428571428572</ele><time>2026-05-01T13:58:01.539Z</time></trkpt><trkpt lat="42.2751433" lon="14.1565616"><ele>170.42857142857142</ele><time>2026-05-01T13:58:12.537Z</time></trkpt><trkpt lat="42.2752046" lon="14.1565136"><ele>171.14285714285714</ele><time>2026-05-01T13:58:15.54Z</time></trkpt><trkpt lat="42.2752698" lon="14.1564838"><ele>171.85714285714286</ele><time>2026-05-01T13:58:18.538Z</time></trkpt><trkpt lat="42.2753262" lon="14.1564413"><ele>172.57142857142858</ele><time>2026-05-01T13:58:22.542Z</time></trkpt><trkpt lat="42.2753918" lon="14.1564174"><ele>173.28571428571428</ele><time>2026-05-01T13:58:43.541Z</time></trkpt><trkpt lat="42.2754566" lon="14.1564545"><ele>174.0</ele><time>2026-05-01T13:58:47.543Z</time></trkpt><trkpt lat="42.2754965" lon="14.1565494"><ele>171.6</ele><time>2026-05-01T13:58:51.512Z</time></trkpt><trkpt lat="42.27552" lon="14.1566719"><ele>169.2</ele><time>2026-05-01T13:58:53.507Z</time></trkpt><trkpt lat="42.2755845" lon="14.1567958"><ele>166.79999999999998</ele><time>2026-05-01T13:58:55.516Z</time></trkpt><trkpt lat="42.2756469" lon="14.1568659"><ele>164.39999999999998</ele><time>2026-05-01T13:58:57.525Z</time></trkpt><trkpt lat="42.2757284" lon="14.1568178"><ele>162.0</ele><time>2026-05-01T13:58:59.541Z</time></trkpt><trkpt lat="42.2758363" lon="14.1567231"><ele>162.57142857142858</ele><time>2026-05-01T13:59:01.532Z</time></trkpt><trkpt lat="42.2758969" lon="14.1566451"><ele>163.14285714285714</ele><time>2026-05-01T13:59:02.545Z</time></trkpt><trkpt lat="42.2759537" lon="14.156586"><ele>163.71428571428572</ele><time>2026-05-01T13:59:03.538Z</time></trkpt><trkpt lat="42.2760111" lon="14.1565322"><ele>164.28571428571428</ele><time>2026-05-01T13:59:04.541Z</time></trkpt><trkpt lat="42.2760813" lon="14.1564877"><ele>164.85714285714286</ele><time>2026-05-01T13:59:05.535Z</time></trkpt><trkpt lat="42.2761509" lon="14.1564534"><ele>165.42857142857142</ele><time>2026-05-01T13:59:06.533Z</time></trkpt><trkpt lat="42.2762142" lon="14.1564248"><ele>166.0</ele><time>2026-05-01T13:59:07.537Z</time></trkpt><trkpt lat="42.2762731" lon="14.1563872"><ele>166.0</ele><time>2026-05-01T13:59:08.537Z</time></trkpt><trkpt lat="42.2763294" lon="14.1563463"><ele>166.0</ele><time>2026-05-01T13:59:09.555Z</time></trkpt><trkpt lat="42.2764395" lon="14.1562495"><ele>166.0</ele><time>2026-05-01T13:59:11.537Z</time></trkpt><trkpt lat="42.2764908" lon="14.1562"><ele>166.0</ele><time>2026-05-01T13:59:12.534Z</time></trkpt><trkpt lat="42.2765569" lon="14.1561528"><ele>166.0</ele><time>2026-05-01T13:59:13.533Z</time></trkpt><trkpt lat="42.2766226" lon="14.1561024"><ele>166.0</ele><time>2026-05-01T13:59:14.553Z</time></trkpt><trkpt lat="42.2766906" lon="14.1560591"><ele>164.33333333333334</ele><time>2026-05-01T13:59:15.542Z</time></trkpt><trkpt lat="42.2767615" lon="14.1560281"><ele>162.66666666666669</ele><time>2026-05-01T13:59:16.547Z</time></trkpt><trkpt lat="42.276838" lon="14.1559871"><ele>161.0</ele><time>2026-05-01T13:59:17.543Z</time></trkpt><trkpt lat="42.2769228" lon="14.155937"><ele>159.33333333333334</ele><time>2026-05-01T13:59:18.547Z</time></trkpt><trkpt lat="42.2770098" lon="14.1558864"><ele>157.66666666666666</ele><time>2026-05-01T13:59:19.54Z</time></trkpt><trkpt lat="42.2770869" lon="14.1558411"><ele>156.0</ele><time>2026-05-01T13:59:20.546Z</time></trkpt><trkpt lat="42.2771525" lon="14.1557997"><ele>156.0</ele><time>2026-05-01T13:59:21.547Z</time></trkpt><trkpt lat="42.2772233" lon="14.1557542"><ele>156.0</ele><time>2026-05-01T13:59:22.548Z</time></trkpt><trkpt lat="42.2773168" lon="14.155702"><ele>156.0</ele><time>2026-05-01T13:59:24.539Z</time></trkpt><trkpt lat="42.2773906" lon="14.1556613"><ele>156.0</ele><time>2026-05-01T13:59:26.547Z</time></trkpt><trkpt lat="42.2774497" lon="14.15563"><ele>156.0</ele><time>2026-05-01T13:59:27.535Z</time></trkpt><trkpt lat="42.2775222" lon="14.1555892"><ele>156.0</ele><time>2026-05-01T13:59:28.562Z</time></trkpt><trkpt lat="42.2775999" lon="14.1555503"><ele>156.0</ele><time>2026-05-01T13:59:29.557Z</time></trkpt><trkpt lat="42.2776704" lon="14.1555083"><ele>156.0</ele><time>2026-05-01T13:59:30.559Z</time></trkpt><trkpt lat="42.2777434" lon="14.1554564"><ele>156.0</ele><time>2026-05-01T13:59:31.56Z</time></trkpt><trkpt lat="42.2778201" lon="14.1554119"><ele>156.0</ele><time>2026-05-01T13:59:32.56Z</time></trkpt><trkpt lat="42.2778946" lon="14.1553641"><ele>156.0</ele><time>2026-05-01T13:59:33.557Z</time></trkpt><trkpt lat="42.2779675" lon="14.1553191"><ele>156.0</ele><time>2026-05-01T13:59:34.555Z</time></trkpt><trkpt lat="42.278037" lon="14.1552734"><ele>154.0</ele><time>2026-05-01T13:59:35.554Z</time></trkpt><trkpt lat="42.2781062" lon="14.1552361"><ele>152.0</ele><time>2026-05-01T13:59:36.552Z</time></trkpt><trkpt lat="42.2781724" lon="14.1551925"><ele>150.0</ele><time>2026-05-01T13:59:37.552Z</time></trkpt><trkpt lat="42.2782363" lon="14.1551587"><ele>148.0</ele><time>2026-05-01T13:59:38.556Z</time></trkpt><trkpt lat="42.2783087" lon="14.1551411"><ele>146.0</ele><time>2026-05-01T13:59:39.553Z</time></trkpt><trkpt lat="42.278382" lon="14.155111"><ele>144.0</ele><time>2026-05-01T13:59:40.573Z</time></trkpt><trkpt lat="42.2784442" lon="14.1550757"><ele>142.0</ele><time>2026-05-01T13:59:41.552Z</time></trkpt><trkpt lat="42.2785084" lon="14.1550412"><ele>142.0</ele><time>2026-05-01T13:59:42.557Z</time></trkpt><trkpt lat="42.2786212" lon="14.1549722"><ele>142.0</ele><time>2026-05-01T13:59:44.55Z</time></trkpt><trkpt lat="42.2786786" lon="14.1549317"><ele>142.0</ele><time>2026-05-01T13:59:45.543Z</time></trkpt><trkpt lat="42.2787502" lon="14.1548912"><ele>142.0</ele><time>2026-05-01T13:59:46.54Z</time></trkpt><trkpt lat="42.2788125" lon="14.1548464"><ele>142.0</ele><time>2026-05-01T13:59:47.547Z</time></trkpt><trkpt lat="42.2788776" lon="14.1547928"><ele>142.0</ele><time>2026-05-01T13:59:48.549Z</time></trkpt><trkpt lat="42.2789583" lon="14.1547352"><ele>141.79999999999998</ele><time>2026-05-01T13:59:49.543Z</time></trkpt><trkpt lat="42.2790388" lon="14.1546901"><ele>141.6</ele><time>2026-05-01T13:59:50.548Z</time></trkpt><trkpt lat="42.27912" lon="14.1546396"><ele>141.39999999999998</ele><time>2026-05-01T13:59:51.543Z</time></trkpt><trkpt lat="42.2791991" lon="14.1545899"><ele>141.2</ele><time>2026-05-01T13:59:52.548Z</time></trkpt><trkpt lat="42.2792812" lon="14.154533"><ele>141.0</ele><time>2026-05-01T13:59:53.54Z</time></trkpt><trkpt lat="42.2793665" lon="14.1544716"><ele>141.0</ele><time>2026-05-01T13:59:54.624Z</time></trkpt><trkpt lat="42.2794428" lon="14.1544161"><ele>141.0</ele><time>2026-05-01T13:59:55.623Z</time></trkpt><trkpt lat="42.2795161" lon="14.1543649"><ele>141.0</ele><time>2026-05-01T13:59:56.62Z</time></trkpt><trkpt lat="42.2795854" lon="14.1543161"><ele>141.0</ele><time>2026-05-01T13:59:57.626Z</time></trkpt><trkpt lat="42.2796675" lon="14.1542848"><ele>141.0</ele><time>2026-05-01T13:59:58.619Z</time></trkpt><trkpt lat="42.279737" lon="14.1542328"><ele>141.0</ele><time>2026-05-01T13:59:59.614Z</time></trkpt><trkpt lat="42.2798115" lon="14.1541843"><ele>141.33333333333334</ele><time>2026-05-01T14:00:00.61Z</time></trkpt><trkpt lat="42.2798838" lon="14.1541434"><ele>141.66666666666666</ele><time>2026-05-01T14:00:01.593Z</time></trkpt><trkpt lat="42.2799451" lon="14.1541049"><ele>142.0</ele><time>2026-05-01T14:00:02.611Z</time></trkpt><trkpt lat="42.2800077" lon="14.1540609"><ele>142.33333333333331</ele><time>2026-05-01T14:00:03.594Z</time></trkpt><trkpt lat="42.2800717" lon="14.1540163"><ele>142.66666666666666</ele><time>2026-05-01T14:00:04.602Z</time></trkpt><trkpt lat="42.2801408" lon="14.1539753"><ele>143.0</ele><time>2026-05-01T14:00:05.614Z</time></trkpt><trkpt lat="42.2802242" lon="14.1539391"><ele>143.0</ele><time>2026-05-01T14:00:06.62Z</time></trkpt><trkpt lat="42.2803021" lon="14.1538984"><ele>143.0</ele><time>2026-05-01T14:00:07.611Z</time></trkpt><trkpt lat="42.2803756" lon="14.1538526"><ele>143.0</ele><time>2026-05-01T14:00:08.617Z</time></trkpt><trkpt lat="42.2804607" lon="14.1538055"><ele>143.0</ele><time>2026-05-01T14:00:09.615Z</time></trkpt><trkpt lat="42.2805497" lon="14.1537574"><ele>143.0</ele><time>2026-05-01T14:00:10.626Z</time></trkpt><trkpt lat="42.2806478" lon="14.153711"><ele>141.0</ele><time>2026-05-01T14:00:11.62Z</time></trkpt><trkpt lat="42.2807463" lon="14.1536699"><ele>139.0</ele><time>2026-05-01T14:00:12.611Z</time></trkpt><trkpt lat="42.2808435" lon="14.153635"><ele>137.0</ele><time>2026-05-01T14:00:13.606Z</time></trkpt><trkpt lat="42.2809212" lon="14.1536063"><ele>135.0</ele><time>2026-05-01T14:00:14.605Z</time></trkpt><trkpt lat="42.2809884" lon="14.1535738"><ele>133.0</ele><time>2026-05-01T14:00:15.607Z</time></trkpt><trkpt lat="42.2810897" lon="14.1535394"><ele>133.0</ele><time>2026-05-01T14:00:17.612Z</time></trkpt><trkpt lat="42.2811932" lon="14.1535081"><ele>133.0</ele><time>2026-05-01T14:00:19.616Z</time></trkpt><trkpt lat="42.281285" lon="14.1534779"><ele>133.0</ele><time>2026-05-01T14:00:21.619Z</time></trkpt><trkpt lat="42.2813732" lon="14.1534174"><ele>133.0</ele><time>2026-05-01T14:00:23.603Z</time></trkpt><trkpt lat="42.2814443" lon="14.153313"><ele>133.0</ele><time>2026-05-01T14:00:25.601Z</time></trkpt><trkpt lat="42.2815309" lon="14.15321"><ele>130.83333333333334</ele><time>2026-05-01T14:00:27.612Z</time></trkpt><trkpt lat="42.2816267" lon="14.1531777"><ele>128.66666666666669</ele><time>2026-05-01T14:00:28.605Z</time></trkpt><trkpt lat="42.2817162" lon="14.1531465"><ele>126.5</ele><time>2026-05-01T14:00:29.597Z</time></trkpt><trkpt lat="42.2818103" lon="14.1531355"><ele>124.33333333333334</ele><time>2026-05-01T14:00:30.595Z</time></trkpt><trkpt lat="42.2818865" lon="14.1531179"><ele>122.16666666666667</ele><time>2026-05-01T14:00:31.595Z</time></trkpt><trkpt lat="42.2819526" lon="14.1531003"><ele>120.0</ele><time>2026-05-01T14:00:32.609Z</time></trkpt><trkpt lat="42.2820324" lon="14.1530565"><ele>120.0</ele><time>2026-05-01T14:00:33.526Z</time></trkpt><trkpt lat="42.282093" lon="14.1530248"><ele>120.0</ele><time>2026-05-01T14:00:34.518Z</time></trkpt><trkpt lat="42.2821619" lon="14.1530023"><ele>120.0</ele><time>2026-05-01T14:00:35.521Z</time></trkpt><trkpt lat="42.2822325" lon="14.1529883"><ele>120.0</ele><time>2026-05-01T14:00:36.519Z</time></trkpt><trkpt lat="42.2823425" lon="14.1529688"><ele>120.0</ele><time>2026-05-01T14:00:38.515Z</time></trkpt><trkpt lat="42.2824312" lon="14.1529816"><ele>120.0</ele><time>2026-05-01T14:00:41.531Z</time></trkpt><trkpt lat="42.2824961" lon="14.152955"><ele>119.8</ele><time>2026-05-01T14:00:43.527Z</time></trkpt><trkpt lat="42.2825073" lon="14.1528517"><ele>119.6</ele><time>2026-05-01T14:00:46.524Z</time></trkpt><trkpt lat="42.2824655" lon="14.1526847"><ele>119.4</ele><time>2026-05-01T14:00:48.522Z</time></trkpt><trkpt lat="42.282439" lon="14.152568"><ele>119.2</ele><time>2026-05-01T14:00:49.526Z</time></trkpt><trkpt lat="42.2824176" lon="14.1524665"><ele>119.0</ele><time>2026-05-01T14:00:50.522Z</time></trkpt><trkpt lat="42.2823859" lon="14.1523609"><ele>119.0</ele><time>2026-05-01T14:00:51.521Z</time></trkpt><trkpt lat="42.282356" lon="14.1522687"><ele>119.0</ele><time>2026-05-01T14:00:52.531Z</time></trkpt><trkpt lat="42.2823162" lon="14.1521483"><ele>119.0</ele><time>2026-05-01T14:00:54.52Z</time></trkpt><trkpt lat="42.282383" lon="14.1521086"><ele>119.0</ele><time>2026-05-01T14:00:57.531Z</time></trkpt><trkpt lat="42.2825136" lon="14.1521392"><ele>119.0</ele><time>2026-05-01T14:00:59.544Z</time></trkpt><trkpt lat="42.2825859" lon="14.1521493"><ele>118.99999999999999</ele><time>2026-05-01T14:01:00.53Z</time></trkpt><trkpt lat="42.2826541" lon="14.1521486"><ele>119.0</ele><time>2026-05-01T14:01:01.533Z</time></trkpt><trkpt lat="42.2827299" lon="14.1521535"><ele>119.0</ele><time>2026-05-01T14:01:02.537Z</time></trkpt><trkpt lat="42.2828161" lon="14.1521586"><ele>119.0</ele><time>2026-05-01T14:01:03.534Z</time></trkpt><trkpt lat="42.2829032" lon="14.1521547"><ele>118.99999999999999</ele><time>2026-05-01T14:01:04.537Z</time></trkpt><trkpt lat="42.2829722" lon="14.1521216"><ele>119.0</ele><time>2026-05-01T14:01:05.531Z</time></trkpt><trkpt lat="42.2830289" lon="14.1520681"><ele>118.99999999999999</ele><time>2026-05-01T14:01:06.533Z</time></trkpt><trkpt lat="42.2830655" lon="14.1519955"><ele>119.0</ele><time>2026-05-01T14:01:07.531Z</time></trkpt><trkpt lat="42.2830876" lon="14.1519011"><ele>119.0</ele><time>2026-05-01T14:01:08.53Z</time></trkpt><trkpt lat="42.2830939" lon="14.1518066"><ele>119.0</ele><time>2026-05-01T14:01:09.536Z</time></trkpt><trkpt lat="42.2831065" lon="14.1517152"><ele>118.99999999999999</ele><time>2026-05-01T14:01:10.543Z</time></trkpt><trkpt lat="42.2831208" lon="14.1516294"><ele>119.0</ele><time>2026-05-01T14:01:11.544Z</time></trkpt><trkpt lat="42.2831512" lon="14.1514613"><ele>119.80000000000001</ele><time>2026-05-01T14:01:13.554Z</time></trkpt><trkpt lat="42.2831725" lon="14.1513031"><ele>120.60000000000001</ele><time>2026-05-01T14:01:15.541Z</time></trkpt><trkpt lat="42.2832036" lon="14.1511678"><ele>121.4</ele><time>2026-05-01T14:01:17.537Z</time></trkpt><trkpt lat="42.2832038" lon="14.151063"><ele>122.2</ele><time>2026-05-01T14:01:20.544Z</time></trkpt><trkpt lat="42.2831178" lon="14.150946"><ele>123.0</ele><time>2026-05-01T14:01:22.547Z</time></trkpt><trkpt lat="42.2830355" lon="14.1508981"><ele>123.0</ele><time>2026-05-01T14:01:23.532Z</time></trkpt><trkpt lat="42.2829512" lon="14.150861"><ele>123.00000000000001</ele><time>2026-05-01T14:01:24.533Z</time></trkpt><trkpt lat="42.2828728" lon="14.1508157"><ele>123.00000000000001</ele><time>2026-05-01T14:01:25.53Z</time></trkpt><trkpt lat="42.2827964" lon="14.150758"><ele>123.0</ele><time>2026-05-01T14:01:26.529Z</time></trkpt><trkpt lat="42.2827121" lon="14.1506867"><ele>123.0</ele><time>2026-05-01T14:01:27.533Z</time></trkpt><trkpt lat="42.2826312" lon="14.1505976"><ele>125.25</ele><time>2026-05-01T14:01:28.534Z</time></trkpt><trkpt lat="42.2825555" lon="14.1504888"><ele>127.5</ele><time>2026-05-01T14:01:29.534Z</time></trkpt><trkpt lat="42.2824864" lon="14.1503594"><ele>129.75</ele><time>2026-05-01T14:01:30.533Z</time></trkpt><trkpt lat="42.2824163" lon="14.1502201"><ele>132.0</ele><time>2026-05-01T14:01:31.535Z</time></trkpt><trkpt lat="42.2823473" lon="14.1500778"><ele>132.0</ele><time>2026-05-01T14:01:32.534Z</time></trkpt><trkpt lat="42.2822732" lon="14.1499293"><ele>132.0</ele><time>2026-05-01T14:01:33.54Z</time></trkpt><trkpt lat="42.2821981" lon="14.1497799"><ele>132.0</ele><time>2026-05-01T14:01:34.536Z</time></trkpt><trkpt lat="42.2821169" lon="14.1496241"><ele>132.0</ele><time>2026-05-01T14:01:35.519Z</time></trkpt><trkpt lat="42.282043" lon="14.1494748"><ele>131.0</ele><time>2026-05-01T14:01:36.521Z</time></trkpt><trkpt lat="42.2819691" lon="14.1493405"><ele>130.0</ele><time>2026-05-01T14:01:37.522Z</time></trkpt><trkpt lat="42.2818997" lon="14.1492143"><ele>129.0</ele><time>2026-05-01T14:01:38.522Z</time></trkpt><trkpt lat="42.2818313" lon="14.1490897"><ele>128.0</ele><time>2026-05-01T14:01:39.525Z</time></trkpt><trkpt lat="42.2817762" lon="14.1489521"><ele>128.0</ele><time>2026-05-01T14:01:40.534Z</time></trkpt><trkpt lat="42.2817059" lon="14.1488201"><ele>128.0</ele><time>2026-05-01T14:01:41.523Z</time></trkpt><trkpt lat="42.2816427" lon="14.1486869"><ele>128.0</ele><time>2026-05-01T14:01:42.527Z</time></trkpt><trkpt lat="42.2815759" lon="14.1485344"><ele>128.0</ele><time>2026-05-01T14:01:43.527Z</time></trkpt><trkpt lat="42.2815045" lon="14.1484084"><ele>127.99999999999999</ele><time>2026-05-01T14:01:44.544Z</time></trkpt><trkpt lat="42.281454" lon="14.1482922"><ele>128.0</ele><time>2026-05-01T14:01:45.521Z</time></trkpt><trkpt lat="42.2814027" lon="14.1481892"><ele>128.0</ele><time>2026-05-01T14:01:46.521Z</time></trkpt><trkpt lat="42.2813723" lon="14.1481024"><ele>128.0</ele><time>2026-05-01T14:01:47.519Z</time></trkpt><trkpt lat="42.2813427" lon="14.1480204"><ele>127.99999999999999</ele><time>2026-05-01T14:01:48.523Z</time></trkpt><trkpt lat="42.2813043" lon="14.1479081"><ele>128.0</ele><time>2026-05-01T14:01:50.526Z</time></trkpt><trkpt lat="42.281277" lon="14.1478186"><ele>128.14285714285714</ele><time>2026-05-01T14:01:53.531Z</time></trkpt><trkpt lat="42.2812424" lon="14.1477366"><ele>128.28571428571428</ele><time>2026-05-01T14:01:55.538Z</time></trkpt><trkpt lat="42.2812061" lon="14.1476619"><ele>128.42857142857142</ele><time>2026-05-01T14:01:58.549Z</time></trkpt><trkpt lat="42.2812239" lon="14.1475729"><ele>128.57142857142856</ele><time>2026-05-01T14:02:01.537Z</time></trkpt><trkpt lat="42.2813067" lon="14.1475335"><ele>128.71428571428572</ele><time>2026-05-01T14:02:04.545Z</time></trkpt><trkpt lat="42.2813728" lon="14.1474767"><ele>128.85714285714283</ele><time>2026-05-01T14:02:18.546Z</time></trkpt><trkpt lat="42.2814361" lon="14.1474132"><ele>129.0</ele><time>2026-05-01T14:02:20.546Z</time></trkpt><trkpt lat="42.2814927" lon="14.1473308"><ele>129.4</ele><time>2026-05-01T14:02:22.544Z</time></trkpt><trkpt lat="42.2815426" lon="14.1472219"><ele>129.8</ele><time>2026-05-01T14:02:24.545Z</time></trkpt><trkpt lat="42.2815969" lon="14.1470813"><ele>130.2</ele><time>2026-05-01T14:02:26.543Z</time></trkpt><trkpt lat="42.2816237" lon="14.1469174"><ele>130.6</ele><time>2026-05-01T14:02:28.547Z</time></trkpt><trkpt lat="42.2816028" lon="14.1467795"><ele>131.0</ele><time>2026-05-01T14:02:30.537Z</time></trkpt><trkpt lat="42.2815815" lon="14.1466274"><ele>131.83333333333331</ele><time>2026-05-01T14:02:32.54Z</time></trkpt><trkpt lat="42.2815563" lon="14.1464594"><ele>132.66666666666666</ele><time>2026-05-01T14:02:34.546Z</time></trkpt><trkpt lat="42.2815404" lon="14.1463673"><ele>133.5</ele><time>2026-05-01T14:02:35.549Z</time></trkpt><trkpt lat="42.2815166" lon="14.146272"><ele>134.33333333333334</ele><time>2026-05-01T14:02:36.539Z</time></trkpt><trkpt lat="42.2814963" lon="14.1461691"><ele>135.16666666666669</ele><time>2026-05-01T14:02:37.546Z</time></trkpt><trkpt lat="42.2814728" lon="14.1460695"><ele>136.0</ele><time>2026-05-01T14:02:38.541Z</time></trkpt><trkpt lat="42.2814492" lon="14.1459783"><ele>135.99999999999997</ele><time>2026-05-01T14:02:39.534Z</time></trkpt><trkpt lat="42.281434" lon="14.1458848"><ele>136.0</ele><time>2026-05-01T14:02:41.541Z</time></trkpt><trkpt lat="42.2814036" lon="14.1458059"><ele>136.0</ele><time>2026-05-01T14:02:44.554Z</time></trkpt><trkpt lat="42.2813627" lon="14.1456792"><ele>136.0</ele><time>2026-05-01T14:02:46.587Z</time></trkpt><trkpt lat="42.2813286" lon="14.1456028"><ele>136.0</ele><time>2026-05-01T14:02:47.542Z</time></trkpt><trkpt lat="42.2812848" lon="14.1455279"><ele>135.99999999999997</ele><time>2026-05-01T14:02:48.552Z</time></trkpt><trkpt lat="42.2812451" lon="14.1454609"><ele>136.0</ele><time>2026-05-01T14:02:49.549Z</time></trkpt><trkpt lat="42.2812079" lon="14.1453703"><ele>137.0</ele><time>2026-05-01T14:02:50.545Z</time></trkpt><trkpt lat="42.2811886" lon="14.1452652"><ele>138.0</ele><time>2026-05-01T14:02:51.539Z</time></trkpt><trkpt lat="42.2811935" lon="14.1451649"><ele>139.0</ele><time>2026-05-01T14:02:52.541Z</time></trkpt><trkpt lat="42.2812068" lon="14.1450515"><ele>140.0</ele><time>2026-05-01T14:02:53.545Z</time></trkpt><trkpt lat="42.2812221" lon="14.1449318"><ele>141.0</ele><time>2026-05-01T14:02:54.545Z</time></trkpt><trkpt lat="42.2812398" lon="14.144811"><ele>142.0</ele><time>2026-05-01T14:02:55.545Z</time></trkpt><trkpt lat="42.2812485" lon="14.1446937"><ele>143.33333333333334</ele><time>2026-05-01T14:02:56.547Z</time></trkpt><trkpt lat="42.2812614" lon="14.1445826"><ele>144.66666666666669</ele><time>2026-05-01T14:02:57.547Z</time></trkpt><trkpt lat="42.28127" lon="14.1444675"><ele>146.0</ele><time>2026-05-01T14:02:58.556Z</time></trkpt><trkpt lat="42.281278" lon="14.1443533"><ele>147.33333333333334</ele><time>2026-05-01T14:02:59.549Z</time></trkpt><trkpt lat="42.2812854" lon="14.1442419"><ele>148.66666666666666</ele><time>2026-05-01T14:03:00.547Z</time></trkpt><trkpt lat="42.2812954" lon="14.1441274"><ele>150.0</ele><time>2026-05-01T14:03:01.547Z</time></trkpt><trkpt lat="42.2813138" lon="14.1440265"><ele>151.83333333333334</ele><time>2026-05-01T14:03:02.544Z</time></trkpt><trkpt lat="42.2813283" lon="14.1439342"><ele>153.66666666666666</ele><time>2026-05-01T14:03:03.543Z</time></trkpt><trkpt lat="42.2813366" lon="14.1438399"><ele>155.5</ele><time>2026-05-01T14:03:04.538Z</time></trkpt><trkpt lat="42.2813537" lon="14.1436975"><ele>157.33333333333331</ele><time>2026-05-01T14:03:06.539Z</time></trkpt><trkpt lat="42.281368" lon="14.14361"><ele>159.16666666666666</ele><time>2026-05-01T14:03:08.559Z</time></trkpt><trkpt lat="42.2813641" lon="14.1434764"><ele>161.0</ele><time>2026-05-01T14:03:10.559Z</time></trkpt><trkpt lat="42.2813385" lon="14.143367"><ele>161.0</ele><time>2026-05-01T14:03:12.553Z</time></trkpt><trkpt lat="42.2813039" lon="14.1432626"><ele>161.0</ele><time>2026-05-01T14:03:14.546Z</time></trkpt><trkpt lat="42.2812843" lon="14.1431388"><ele>161.0</ele><time>2026-05-01T14:03:16.574Z</time></trkpt><trkpt lat="42.2812342" lon="14.1429912"><ele>161.0</ele><time>2026-05-01T14:03:18.541Z</time></trkpt><trkpt lat="42.2812729" lon="14.1428669"><ele>161.0</ele><time>2026-05-01T14:03:20.539Z</time></trkpt><trkpt lat="42.2813764" lon="14.1427797"><ele>162.5</ele><time>2026-05-01T14:03:22.541Z</time></trkpt><trkpt lat="42.2814228" lon="14.1427176"><ele>164.0</ele><time>2026-05-01T14:03:23.54Z</time></trkpt><trkpt lat="42.2814678" lon="14.1426497"><ele>165.5</ele><time>2026-05-01T14:03:24.54Z</time></trkpt><trkpt lat="42.2815182" lon="14.1425807"><ele>167.0</ele><time>2026-05-01T14:03:25.542Z</time></trkpt><trkpt lat="42.2815989" lon="14.142464"><ele>168.5</ele><time>2026-05-01T14:03:27.537Z</time></trkpt><trkpt lat="42.2815902" lon="14.1423732"><ele>170.0</ele><time>2026-05-01T14:03:29.549Z</time></trkpt><trkpt lat="42.2814966" lon="14.1423483"><ele>173.14285714285714</ele><time>2026-05-01T14:03:31.557Z</time></trkpt><trkpt lat="42.2814289" lon="14.1423424"><ele>176.28571428571428</ele><time>2026-05-01T14:03:32.553Z</time></trkpt><trkpt lat="42.2813608" lon="14.1423169"><ele>179.42857142857142</ele><time>2026-05-01T14:03:33.54Z</time></trkpt><trkpt lat="42.2812935" lon="14.1423041"><ele>182.57142857142856</ele><time>2026-05-01T14:03:34.551Z</time></trkpt><trkpt lat="42.2812289" lon="14.1422876"><ele>185.71428571428572</ele><time>2026-05-01T14:03:35.546Z</time></trkpt><trkpt lat="42.2811534" lon="14.1422649"><ele>188.85714285714283</ele><time>2026-05-01T14:03:36.546Z</time></trkpt><trkpt lat="42.281092" lon="14.1422358"><ele>192.0</ele><time>2026-05-01T14:03:37.546Z</time></trkpt><trkpt lat="42.2809965" lon="14.1421549"><ele>192.0</ele><time>2026-05-01T14:03:39.555Z</time></trkpt><trkpt lat="42.2809466" lon="14.1420414"><ele>192.0</ele><time>2026-05-01T14:03:41.548Z</time></trkpt><trkpt lat="42.2809486" lon="14.1419264"><ele>192.0</ele><time>2026-05-01T14:03:43.545Z</time></trkpt><trkpt lat="42.2809375" lon="14.1417728"><ele>192.0</ele><time>2026-05-01T14:03:45.54Z</time></trkpt><trkpt lat="42.2809156" lon="14.1416839"><ele>192.0</ele><time>2026-05-01T14:03:46.529Z</time></trkpt><trkpt lat="42.2808919" lon="14.1415112"><ele>192.0</ele><time>2026-05-01T14:03:48.525Z</time></trkpt><trkpt lat="42.2808749" lon="14.1414166"><ele>192.0</ele><time>2026-05-01T14:03:49.533Z</time></trkpt><trkpt lat="42.2808669" lon="14.1413179"><ele>192.0</ele><time>2026-05-01T14:03:50.533Z</time></trkpt><trkpt lat="42.2808533" lon="14.141223"><ele>192.0</ele><time>2026-05-01T14:03:51.534Z</time></trkpt><trkpt lat="42.2808154" lon="14.1410684"><ele>192.0</ele><time>2026-05-01T14:03:53.533Z</time></trkpt><trkpt lat="42.2808025" lon="14.1409769"><ele>192.0</ele><time>2026-05-01T14:03:55.546Z</time></trkpt><trkpt lat="42.2809031" lon="14.1409048"><ele>192.0</ele><time>2026-05-01T14:04:01.546Z</time></trkpt><trkpt lat="42.2810361" lon="14.1408357"><ele>192.0</ele><time>2026-05-01T14:04:03.531Z</time></trkpt><trkpt lat="42.2811322" lon="14.1407813"><ele>192.0</ele><time>2026-05-01T14:04:04.529Z</time></trkpt><trkpt lat="42.2812394" lon="14.1407122"><ele>192.0</ele><time>2026-05-01T14:04:05.536Z</time></trkpt><trkpt lat="42.2813472" lon="14.1406581"><ele>194.83333333333334</ele><time>2026-05-01T14:04:06.532Z</time></trkpt><trkpt lat="42.2814595" lon="14.1406164"><ele>197.66666666666669</ele><time>2026-05-01T14:04:07.524Z</time></trkpt><trkpt lat="42.2815413" lon="14.1405847"><ele>200.5</ele><time>2026-05-01T14:04:08.53Z</time></trkpt><trkpt lat="42.2816049" lon="14.1405499"><ele>203.33333333333334</ele><time>2026-05-01T14:04:09.541Z</time></trkpt><trkpt lat="42.2816773" lon="14.1404904"><ele>206.16666666666669</ele><time>2026-05-01T14:04:10.541Z</time></trkpt><trkpt lat="42.2817447" lon="14.1404149"><ele>209.0</ele><time>2026-05-01T14:04:11.532Z</time></trkpt><trkpt lat="42.281808" lon="14.1403273"><ele>209.00000000000003</ele><time>2026-05-01T14:04:12.544Z</time></trkpt><trkpt lat="42.2818704" lon="14.1402481"><ele>209.0</ele><time>2026-05-01T14:04:13.54Z</time></trkpt><trkpt lat="42.2819293" lon="14.1401754"><ele>209.0</ele><time>2026-05-01T14:04:14.543Z</time></trkpt><trkpt lat="42.2819738" lon="14.140103"><ele>209.0</ele><time>2026-05-01T14:04:15.551Z</time></trkpt><trkpt lat="42.2820077" lon="14.1400285"><ele>209.00000000000003</ele><time>2026-05-01T14:04:16.544Z</time></trkpt><trkpt lat="42.282082" lon="14.1399096"><ele>209.0</ele><time>2026-05-01T14:04:18.56Z</time></trkpt><trkpt lat="42.2821406" lon="14.1398378"><ele>209.79999999999998</ele><time>2026-05-01T14:04:20.541Z</time></trkpt><trkpt lat="42.2822015" lon="14.13975"><ele>210.6</ele><time>2026-05-01T14:04:26.539Z</time></trkpt><trkpt lat="42.2822962" lon="14.1396563"><ele>211.4</ele><time>2026-05-01T14:04:28.541Z</time></trkpt><trkpt lat="42.2823604" lon="14.1395883"><ele>212.2</ele><time>2026-05-01T14:04:29.537Z</time></trkpt><trkpt lat="42.2824389" lon="14.1395056"><ele>213.0</ele><time>2026-05-01T14:04:30.539Z</time></trkpt><trkpt lat="42.2825249" lon="14.1393967"><ele>213.0</ele><time>2026-05-01T14:04:31.54Z</time></trkpt><trkpt lat="42.2826144" lon="14.139276"><ele>213.0</ele><time>2026-05-01T14:04:32.542Z</time></trkpt><trkpt lat="42.2827065" lon="14.13914"><ele>213.0</ele><time>2026-05-01T14:04:33.544Z</time></trkpt><trkpt lat="42.2827995" lon="14.1390031"><ele>213.0</ele><time>2026-05-01T14:04:34.541Z</time></trkpt><trkpt lat="42.2828891" lon="14.1388906"><ele>213.66666666666666</ele><time>2026-05-01T14:04:35.541Z</time></trkpt><trkpt lat="42.2829566" lon="14.1387817"><ele>214.33333333333331</ele><time>2026-05-01T14:04:36.535Z</time></trkpt><trkpt lat="42.2830184" lon="14.13868"><ele>215.0</ele><time>2026-05-01T14:04:37.533Z</time></trkpt><trkpt lat="42.2830862" lon="14.138601"><ele>215.66666666666666</ele><time>2026-05-01T14:04:38.541Z</time></trkpt><trkpt lat="42.2831432" lon="14.1385256"><ele>216.33333333333331</ele><time>2026-05-01T14:04:39.532Z</time></trkpt><trkpt lat="42.283192" lon="14.1384612"><ele>217.0</ele><time>2026-05-01T14:04:40.528Z</time></trkpt><trkpt lat="42.283286" lon="14.1383888"><ele>216.99999999999997</ele><time>2026-05-01T14:04:42.531Z</time></trkpt><trkpt lat="42.2833425" lon="14.1383264"><ele>217.0</ele><time>2026-05-01T14:04:44.531Z</time></trkpt><trkpt lat="42.2833122" lon="14.1382187"><ele>217.0</ele><time>2026-05-01T14:04:47.521Z</time></trkpt><trkpt lat="42.2832438" lon="14.1381999"><ele>217.0</ele><time>2026-05-01T14:04:48.526Z</time></trkpt><trkpt lat="42.2831656" lon="14.1381772"><ele>216.99999999999997</ele><time>2026-05-01T14:04:49.529Z</time></trkpt><trkpt lat="42.2830845" lon="14.1381497"><ele>217.0</ele><time>2026-05-01T14:04:50.512Z</time></trkpt><trkpt lat="42.2830215" lon="14.1381261"><ele>214.33333333333331</ele><time>2026-05-01T14:04:51.509Z</time></trkpt><trkpt lat="42.2829185" lon="14.1380948"><ele>211.66666666666666</ele><time>2026-05-01T14:04:53.51Z</time></trkpt><trkpt lat="42.2828531" lon="14.1381161"><ele>209.0</ele><time>2026-05-01T14:04:55.521Z</time></trkpt><trkpt lat="42.2827755" lon="14.1381045"><ele>206.33333333333331</ele><time>2026-05-01T14:04:58.526Z</time></trkpt><trkpt lat="42.2827122" lon="14.1380791"><ele>203.66666666666666</ele><time>2026-05-01T14:05:13.52Z</time></trkpt><trkpt lat="42.282714" lon="14.137966"><ele>201.0</ele><time>2026-05-01T14:05:17.521Z</time></trkpt><trkpt lat="42.2827912" lon="14.1379095"><ele>201.0</ele><time>2026-05-01T14:05:20.539Z</time></trkpt><trkpt lat="42.2828551" lon="14.1378504"><ele>201.0</ele><time>2026-05-01T14:05:22.522Z</time></trkpt><trkpt lat="42.2829083" lon="14.1378021"><ele>201.0</ele><time>2026-05-01T14:05:24.523Z</time></trkpt><trkpt lat="42.2829586" lon="14.137708"><ele>201.0</ele><time>2026-05-01T14:05:27.516Z</time></trkpt><trkpt lat="42.2829698" lon="14.1375792"><ele>201.0</ele><time>2026-05-01T14:05:29.52Z</time></trkpt><trkpt lat="42.282946" lon="14.1374354"><ele>201.0</ele><time>2026-05-01T14:05:31.511Z</time></trkpt><trkpt lat="42.2829017" lon="14.1373037"><ele>202.20000000000002</ele><time>2026-05-01T14:05:33.511Z</time></trkpt><trkpt lat="42.2828388" lon="14.1371761"><ele>203.4</ele><time>2026-05-01T14:05:35.506Z</time></trkpt><trkpt lat="42.2827977" lon="14.1370162"><ele>204.6</ele><time>2026-05-01T14:05:37.508Z</time></trkpt><trkpt lat="42.2827879" lon="14.1369226"><ele>205.8</ele><time>2026-05-01T14:05:38.513Z</time></trkpt><trkpt lat="42.2827835" lon="14.1368228"><ele>207.0</ele><time>2026-05-01T14:05:39.511Z</time></trkpt><trkpt lat="42.2827837" lon="14.1367235"><ele>208.39999999999998</ele><time>2026-05-01T14:05:40.51Z</time></trkpt><trkpt lat="42.2827592" lon="14.1365418"><ele>209.79999999999998</ele><time>2026-05-01T14:05:42.509Z</time></trkpt><trkpt lat="42.2827313" lon="14.136441"><ele>211.2</ele><time>2026-05-01T14:05:43.507Z</time></trkpt><trkpt lat="42.2826972" lon="14.136333"><ele>212.6</ele><time>2026-05-01T14:05:44.507Z</time></trkpt><trkpt lat="42.2826661" lon="14.1362174"><ele>214.0</ele><time>2026-05-01T14:05:45.502Z</time></trkpt><trkpt lat="42.2826373" lon="14.1361203"><ele>213.99999999999997</ele><time>2026-05-01T14:05:46.502Z</time></trkpt><trkpt lat="42.2825866" lon="14.136037"><ele>214.0</ele><time>2026-05-01T14:05:47.504Z</time></trkpt><trkpt lat="42.2825212" lon="14.1359691"><ele>214.0</ele><time>2026-05-01T14:05:48.507Z</time></trkpt><trkpt lat="42.2824575" lon="14.135897"><ele>214.0</ele><time>2026-05-01T14:05:49.51Z</time></trkpt><trkpt lat="42.2824016" lon="14.1358193"><ele>213.99999999999997</ele><time>2026-05-01T14:05:50.511Z</time></trkpt><trkpt lat="42.2823562" lon="14.1357185"><ele>214.0</ele><time>2026-05-01T14:05:51.521Z</time></trkpt><trkpt lat="42.2823216" lon="14.1356219"><ele>212.66666666666666</ele><time>2026-05-01T14:05:52.509Z</time></trkpt><trkpt lat="42.2822964" lon="14.1355418"><ele>211.33333333333331</ele><time>2026-05-01T14:05:53.51Z</time></trkpt><trkpt lat="42.2822783" lon="14.1354574"><ele>210.0</ele><time>2026-05-01T14:05:54.503Z</time></trkpt><trkpt lat="42.2822723" lon="14.1353633"><ele>208.66666666666669</ele><time>2026-05-01T14:05:55.505Z</time></trkpt><trkpt lat="42.2822706" lon="14.1352521"><ele>207.33333333333334</ele><time>2026-05-01T14:05:56.505Z</time></trkpt><trkpt lat="42.2822581" lon="14.1351413"><ele>206.0</ele><time>2026-05-01T14:05:57.51Z</time></trkpt><trkpt lat="42.2822403" lon="14.1350269"><ele>206.00000000000003</ele><time>2026-05-01T14:05:58.517Z</time></trkpt><trkpt lat="42.2822264" lon="14.1349111"><ele>206.0</ele><time>2026-05-01T14:05:59.509Z</time></trkpt><trkpt lat="42.2822134" lon="14.1347991"><ele>206.0</ele><time>2026-05-01T14:06:00.515Z</time></trkpt><trkpt lat="42.2821902" lon="14.1346934"><ele>206.0</ele><time>2026-05-01T14:06:01.509Z</time></trkpt><trkpt lat="42.282171" lon="14.1345869"><ele>206.00000000000003</ele><time>2026-05-01T14:06:02.511Z</time></trkpt><trkpt lat="42.2821631" lon="14.1344811"><ele>206.0</ele><time>2026-05-01T14:06:03.508Z</time></trkpt><trkpt lat="42.2821489" lon="14.1343816"><ele>207.8</ele><time>2026-05-01T14:06:04.511Z</time></trkpt><trkpt lat="42.2821277" lon="14.1342718"><ele>209.60000000000002</ele><time>2026-05-01T14:06:05.509Z</time></trkpt><trkpt lat="42.282096" lon="14.1341585"><ele>211.4</ele><time>2026-05-01T14:06:06.51Z</time></trkpt><trkpt lat="42.2820752" lon="14.1340344"><ele>213.2</ele><time>2026-05-01T14:06:07.508Z</time></trkpt><trkpt lat="42.2820582" lon="14.1339071"><ele>215.0</ele><time>2026-05-01T14:06:08.514Z</time></trkpt><trkpt lat="42.282041" lon="14.1337715"><ele>215.83333333333334</ele><time>2026-05-01T14:06:09.512Z</time></trkpt><trkpt lat="42.2820227" lon="14.1336378"><ele>216.66666666666669</ele><time>2026-05-01T14:06:10.515Z</time></trkpt><trkpt lat="42.2820052" lon="14.1335065"><ele>217.5</ele><time>2026-05-01T14:06:11.518Z</time></trkpt><trkpt lat="42.281994" lon="14.1333766"><ele>218.33333333333331</ele><time>2026-05-01T14:06:12.515Z</time></trkpt><trkpt lat="42.2819849" lon="14.1332659"><ele>219.16666666666666</ele><time>2026-05-01T14:06:13.497Z</time></trkpt><trkpt lat="42.2819704" lon="14.1331818"><ele>220.0</ele><time>2026-05-01T14:06:14.501Z</time></trkpt><trkpt lat="42.2818857" lon="14.1331294"><ele>220.8</ele><time>2026-05-01T14:06:16.509Z</time></trkpt><trkpt lat="42.2818147" lon="14.1331274"><ele>221.6</ele><time>2026-05-01T14:06:17.522Z</time></trkpt><trkpt lat="42.2816989" lon="14.1330714"><ele>222.39999999999998</ele><time>2026-05-01T14:06:19.515Z</time></trkpt><trkpt lat="42.2815939" lon="14.1329792"><ele>223.2</ele><time>2026-05-01T14:06:21.513Z</time></trkpt><trkpt lat="42.2814843" lon="14.1329606"><ele>224.0</ele><time>2026-05-01T14:06:23.506Z</time></trkpt><trkpt lat="42.2813468" lon="14.1330034"><ele>224.0</ele><time>2026-05-01T14:06:25.504Z</time></trkpt><trkpt lat="42.2812537" lon="14.1330293"><ele>223.99999999999997</ele><time>2026-05-01T14:06:26.511Z</time></trkpt><trkpt lat="42.2811618" lon="14.1330596"><ele>223.99999999999997</ele><time>2026-05-01T14:06:27.506Z</time></trkpt><trkpt lat="42.2810866" lon="14.1331103"><ele>224.0</ele><time>2026-05-01T14:06:28.534Z</time></trkpt><trkpt lat="42.2810247" lon="14.1331451"><ele>224.0</ele><time>2026-05-01T14:06:29.518Z</time></trkpt><trkpt lat="42.280906" lon="14.133129"><ele>224.00000000000003</ele><time>2026-05-01T14:06:31.528Z</time></trkpt><trkpt lat="42.2808476" lon="14.1330698"><ele>224.0</ele><time>2026-05-01T14:06:32.526Z</time></trkpt><trkpt lat="42.2807985" lon="14.1329982"><ele>224.0</ele><time>2026-05-01T14:06:33.521Z</time></trkpt><trkpt lat="42.2807403" lon="14.1329143"><ele>224.0</ele><time>2026-05-01T14:06:34.528Z</time></trkpt><trkpt lat="42.2806752" lon="14.1328339"><ele>224.00000000000003</ele><time>2026-05-01T14:06:35.531Z</time></trkpt><trkpt lat="42.2806021" lon="14.1327717"><ele>224.0</ele><time>2026-05-01T14:06:36.524Z</time></trkpt><trkpt lat="42.280509" lon="14.1327234"><ele>222.83333333333334</ele><time>2026-05-01T14:06:37.534Z</time></trkpt><trkpt lat="42.2804206" lon="14.132692"><ele>221.66666666666669</ele><time>2026-05-01T14:06:38.602Z</time></trkpt><trkpt lat="42.2803463" lon="14.1326503"><ele>220.5</ele><time>2026-05-01T14:06:39.603Z</time></trkpt><trkpt lat="42.2802808" lon="14.1326173"><ele>219.33333333333331</ele><time>2026-05-01T14:06:40.607Z</time></trkpt><trkpt lat="42.2802112" lon="14.1325857"><ele>218.16666666666666</ele><time>2026-05-01T14:06:41.587Z</time></trkpt><trkpt lat="42.2801303" lon="14.1325412"><ele>217.0</ele><time>2026-05-01T14:06:42.582Z</time></trkpt><trkpt lat="42.2800461" lon="14.1324884"><ele>216.99999999999997</ele><time>2026-05-01T14:06:43.592Z</time></trkpt><trkpt lat="42.2799713" lon="14.1324445"><ele>217.0</ele><time>2026-05-01T14:06:44.588Z</time></trkpt><trkpt lat="42.2799029" lon="14.1323899"><ele>217.0</ele><time>2026-05-01T14:06:45.601Z</time></trkpt><trkpt lat="42.2798479" lon="14.1322679"><ele>217.0</ele><time>2026-05-01T14:06:47.508Z</time></trkpt><trkpt lat="42.2798556" lon="14.1321654"><ele>216.99999999999997</ele><time>2026-05-01T14:06:48.514Z</time></trkpt><trkpt lat="42.2798507" lon="14.1320517"><ele>217.0</ele><time>2026-05-01T14:06:49.514Z</time></trkpt><trkpt lat="42.2798236" lon="14.1319348"><ele>217.99999999999997</ele><time>2026-05-01T14:06:50.517Z</time></trkpt><trkpt lat="42.2797846" lon="14.1318047"><ele>219.0</ele><time>2026-05-01T14:06:51.517Z</time></trkpt><trkpt lat="42.2797466" lon="14.1316883"><ele>220.0</ele><time>2026-05-01T14:06:52.519Z</time></trkpt><trkpt lat="42.2797211" lon="14.131589"><ele>221.0</ele><time>2026-05-01T14:06:53.525Z</time></trkpt><trkpt lat="42.2797071" lon="14.1315025"><ele>221.99999999999997</ele><time>2026-05-01T14:06:54.511Z</time></trkpt><trkpt lat="42.2797445" lon="14.1314319"><ele>223.0</ele><time>2026-05-01T14:06:57.524Z</time></trkpt><trkpt lat="42.2798541" lon="14.1314544"><ele>226.49999999999997</ele><time>2026-05-01T14:06:59.514Z</time></trkpt><trkpt lat="42.2799331" lon="14.1314808"><ele>230.0</ele><time>2026-05-01T14:07:00.51Z</time></trkpt><trkpt lat="42.280014" lon="14.1315075"><ele>233.5</ele><time>2026-05-01T14:07:01.518Z</time></trkpt><trkpt lat="42.280107" lon="14.1315212"><ele>237.0</ele><time>2026-05-01T14:07:02.517Z</time></trkpt><trkpt lat="42.2801927" lon="14.1315148"><ele>240.49999999999997</ele><time>2026-05-01T14:07:03.518Z</time></trkpt><trkpt lat="42.280277" lon="14.1315113"><ele>244.0</ele><time>2026-05-01T14:07:04.519Z</time></trkpt><trkpt lat="42.280368" lon="14.1314959"><ele>243.99999999999997</ele><time>2026-05-01T14:07:05.517Z</time></trkpt><trkpt lat="42.2804545" lon="14.1314803"><ele>244.0</ele><time>2026-05-01T14:07:06.52Z</time></trkpt><trkpt lat="42.2805371" lon="14.1314575"><ele>244.0</ele><time>2026-05-01T14:07:07.515Z</time></trkpt><trkpt lat="42.2806204" lon="14.131432"><ele>244.0</ele><time>2026-05-01T14:07:08.518Z</time></trkpt><trkpt lat="42.2807039" lon="14.1313996"><ele>243.99999999999997</ele><time>2026-05-01T14:07:09.515Z</time></trkpt><trkpt lat="42.2807832" lon="14.1313418"><ele>244.0</ele><time>2026-05-01T14:07:10.504Z</time></trkpt><trkpt lat="42.2808613" lon="14.1312567"><ele>243.6</ele><time>2026-05-01T14:07:11.519Z</time></trkpt><trkpt lat="42.2809159" lon="14.131148"><ele>243.2</ele><time>2026-05-01T14:07:12.515Z</time></trkpt><trkpt lat="42.2809531" lon="14.1310224"><ele>242.79999999999998</ele><time>2026-05-01T14:07:13.516Z</time></trkpt><trkpt lat="42.280984" lon="14.1308912"><ele>242.39999999999998</ele><time>2026-05-01T14:07:14.516Z</time></trkpt><trkpt lat="42.2810115" lon="14.1307489"><ele>242.0</ele><time>2026-05-01T14:07:15.517Z</time></trkpt><trkpt lat="42.2810477" lon="14.1306055"><ele>243.2</ele><time>2026-05-01T14:07:16.518Z</time></trkpt><trkpt lat="42.2810745" lon="14.1304693"><ele>244.39999999999998</ele><time>2026-05-01T14:07:17.513Z</time></trkpt><trkpt lat="42.2811012" lon="14.1303356"><ele>245.60000000000002</ele><time>2026-05-01T14:07:18.521Z</time></trkpt><trkpt lat="42.2811191" lon="14.1301951"><ele>246.8</ele><time>2026-05-01T14:07:19.518Z</time></trkpt><trkpt lat="42.281118" lon="14.1300589"><ele>248.0</ele><time>2026-05-01T14:07:20.511Z</time></trkpt><trkpt lat="42.281077" lon="14.1299453"><ele>248.0</ele><time>2026-05-01T14:07:21.504Z</time></trkpt><trkpt lat="42.2810046" lon="14.1298519"><ele>248.0</ele><time>2026-05-01T14:07:22.504Z</time></trkpt><trkpt lat="42.2809062" lon="14.1298072"><ele>248.0</ele><time>2026-05-01T14:07:23.514Z</time></trkpt><trkpt lat="42.2808056" lon="14.1298199"><ele>248.0</ele><time>2026-05-01T14:07:24.53Z</time></trkpt><trkpt lat="42.2807179" lon="14.129893"><ele>248.0</ele><time>2026-05-01T14:07:25.514Z</time></trkpt><trkpt lat="42.280638" lon="14.1300011"><ele>249.2</ele><time>2026-05-01T14:07:26.513Z</time></trkpt><trkpt lat="42.280562" lon="14.1301102"><ele>250.4</ele><time>2026-05-01T14:07:27.511Z</time></trkpt><trkpt lat="42.2804885" lon="14.130214"><ele>251.59999999999997</ele><time>2026-05-01T14:07:28.52Z</time></trkpt><trkpt lat="42.2804177" lon="14.1303124"><ele>252.79999999999998</ele><time>2026-05-01T14:07:29.511Z</time></trkpt><trkpt lat="42.2803421" lon="14.1303912"><ele>254.0</ele><time>2026-05-01T14:07:30.522Z</time></trkpt><trkpt lat="42.2802554" lon="14.1304541"><ele>254.0</ele><time>2026-05-01T14:07:31.513Z</time></trkpt><trkpt lat="42.2801599" lon="14.1305008"><ele>253.99999999999997</ele><time>2026-05-01T14:07:32.508Z</time></trkpt><trkpt lat="42.2800654" lon="14.1305191"><ele>253.99999999999997</ele><time>2026-05-01T14:07:33.51Z</time></trkpt><trkpt lat="42.2799682" lon="14.1304905"><ele>254.0</ele><time>2026-05-01T14:07:34.505Z</time></trkpt><trkpt lat="42.2798703" lon="14.1304248"><ele>254.0</ele><time>2026-05-01T14:07:35.508Z</time></trkpt><trkpt lat="42.2797719" lon="14.1303558"><ele>253.6</ele><time>2026-05-01T14:07:36.518Z</time></trkpt><trkpt lat="42.2796759" lon="14.1302852"><ele>253.2</ele><time>2026-05-01T14:07:37.515Z</time></trkpt><trkpt lat="42.27958" lon="14.1302155"><ele>252.79999999999998</ele><time>2026-05-01T14:07:38.512Z</time></trkpt><trkpt lat="42.2794931" lon="14.1301566"><ele>252.39999999999998</ele><time>2026-05-01T14:07:39.511Z</time></trkpt><trkpt lat="42.2794076" lon="14.1300931"><ele>252.0</ele><time>2026-05-01T14:07:40.507Z</time></trkpt><trkpt lat="42.2793305" lon="14.1300204"><ele>252.0</ele><time>2026-05-01T14:07:41.503Z</time></trkpt><trkpt lat="42.2792875" lon="14.1299166"><ele>252.0</ele><time>2026-05-01T14:07:42.505Z</time></trkpt><trkpt lat="42.2792776" lon="14.1298028"><ele>252.0</ele><time>2026-05-01T14:07:43.506Z</time></trkpt><trkpt lat="42.2793125" lon="14.1296908"><ele>252.0</ele><time>2026-05-01T14:07:44.514Z</time></trkpt><trkpt lat="42.2793845" lon="14.1295929"><ele>252.0</ele><time>2026-05-01T14:07:45.518Z</time></trkpt><trkpt lat="42.2794816" lon="14.1295565"><ele>253.6</ele><time>2026-05-01T14:07:46.518Z</time></trkpt><trkpt lat="42.2795789" lon="14.1295508"><ele>255.2</ele><time>2026-05-01T14:07:47.514Z</time></trkpt><trkpt lat="42.2796926" lon="14.1295549"><ele>256.8</ele><time>2026-05-01T14:07:48.51Z</time></trkpt><trkpt lat="42.2797994" lon="14.1295376"><ele>258.4</ele><time>2026-05-01T14:07:49.501Z</time></trkpt><trkpt lat="42.2799008" lon="14.1294785"><ele>260.0</ele><time>2026-05-01T14:07:50.504Z</time></trkpt><trkpt lat="42.2799779" lon="14.1293812"><ele>260.0</ele><time>2026-05-01T14:07:51.515Z</time></trkpt><trkpt lat="42.2800365" lon="14.1292204"><ele>260.0</ele><time>2026-05-01T14:07:52.522Z</time></trkpt><trkpt lat="42.2800899" lon="14.1290408"><ele>260.0</ele><time>2026-05-01T14:07:53.517Z</time></trkpt><trkpt lat="42.280148" lon="14.1288645"><ele>260.0</ele><time>2026-05-01T14:07:54.517Z</time></trkpt><trkpt lat="42.2802079" lon="14.128697"><ele>262.75</ele><time>2026-05-01T14:07:55.534Z</time></trkpt><trkpt lat="42.2802653" lon="14.1285297"><ele>265.5</ele><time>2026-05-01T14:07:56.521Z</time></trkpt><trkpt lat="42.2803254" lon="14.1283786"><ele>268.25</ele><time>2026-05-01T14:07:57.514Z</time></trkpt><trkpt lat="42.2804061" lon="14.1282539"><ele>271.0</ele><time>2026-05-01T14:07:58.516Z</time></trkpt><trkpt lat="42.28051" lon="14.1281542"><ele>272.5</ele><time>2026-05-01T14:07:59.519Z</time></trkpt><trkpt lat="42.2806376" lon="14.1280798"><ele>274.0</ele><time>2026-05-01T14:08:00.514Z</time></trkpt><trkpt lat="42.2807693" lon="14.1280322"><ele>275.5</ele><time>2026-05-01T14:08:01.515Z</time></trkpt><trkpt lat="42.2808929" lon="14.1279889"><ele>277.0</ele><time>2026-05-01T14:08:02.519Z</time></trkpt><trkpt lat="42.2809918" lon="14.1279384"><ele>277.0</ele><time>2026-05-01T14:08:03.51Z</time></trkpt><trkpt lat="42.2810729" lon="14.1278659"><ele>277.0</ele><time>2026-05-01T14:08:04.519Z</time></trkpt><trkpt lat="42.2811164" lon="14.1277554"><ele>277.0</ele><time>2026-05-01T14:08:05.513Z</time></trkpt><trkpt lat="42.2811345" lon="14.1276339"><ele>277.0</ele><time>2026-05-01T14:08:06.506Z</time></trkpt><trkpt lat="42.2811127" lon="14.1274892"><ele>277.0</ele><time>2026-05-01T14:08:07.506Z</time></trkpt><trkpt lat="42.2810606" lon="14.1273589"><ele>279.2</ele><time>2026-05-01T14:08:08.509Z</time></trkpt><trkpt lat="42.280996" lon="14.12726"><ele>281.4</ele><time>2026-05-01T14:08:09.509Z</time></trkpt><trkpt lat="42.280909" lon="14.1272167"><ele>283.6</ele><time>2026-05-01T14:08:10.516Z</time></trkpt><trkpt lat="42.2808021" lon="14.1272131"><ele>285.8</ele><time>2026-05-01T14:08:11.508Z</time></trkpt><trkpt lat="42.2806727" lon="14.1272355"><ele>288.0</ele><time>2026-05-01T14:08:12.507Z</time></trkpt><trkpt lat="42.2805332" lon="14.1272798"><ele>288.0</ele><time>2026-05-01T14:08:13.508Z</time></trkpt><trkpt lat="42.2803904" lon="14.1273073"><ele>288.0</ele><time>2026-05-01T14:08:14.516Z</time></trkpt><trkpt lat="42.2802574" lon="14.1273314"><ele>288.0</ele><time>2026-05-01T14:08:15.516Z</time></trkpt><trkpt lat="42.2801129" lon="14.1273507"><ele>288.0</ele><time>2026-05-01T14:08:16.521Z</time></trkpt><trkpt lat="42.2799727" lon="14.1273744"><ele>286.5</ele><time>2026-05-01T14:08:17.521Z</time></trkpt><trkpt lat="42.2798282" lon="14.1274006"><ele>285.0</ele><time>2026-05-01T14:08:18.524Z</time></trkpt><trkpt lat="42.2796808" lon="14.1274185"><ele>283.5</ele><time>2026-05-01T14:08:19.524Z</time></trkpt><trkpt lat="42.2795519" lon="14.1274279"><ele>282.0</ele><time>2026-05-01T14:08:20.527Z</time></trkpt><trkpt lat="42.2794205" lon="14.1274491"><ele>282.0</ele><time>2026-05-01T14:08:21.526Z</time></trkpt><trkpt lat="42.2792983" lon="14.1274631"><ele>282.0</ele><time>2026-05-01T14:08:22.523Z</time></trkpt><trkpt lat="42.2791979" lon="14.1274733"><ele>282.0</ele><time>2026-05-01T14:08:23.524Z</time></trkpt><trkpt lat="42.2791261" lon="14.1274812"><ele>282.0</ele><time>2026-05-01T14:08:24.52Z</time></trkpt><trkpt lat="42.2790138" lon="14.1274913"><ele>282.0</ele><time>2026-05-01T14:08:26.554Z</time></trkpt><trkpt lat="42.2789451" lon="14.1274948"><ele>282.3333333333333</ele><time>2026-05-01T14:08:27.536Z</time></trkpt><trkpt lat="42.2788709" lon="14.1274958"><ele>282.6666666666667</ele><time>2026-05-01T14:08:28.547Z</time></trkpt><trkpt lat="42.2787923" lon="14.1274984"><ele>283.0</ele><time>2026-05-01T14:08:29.544Z</time></trkpt><trkpt lat="42.2787099" lon="14.127486"><ele>283.33333333333337</ele><time>2026-05-01T14:08:30.545Z</time></trkpt><trkpt lat="42.2786279" lon="14.1274525"><ele>283.6666666666667</ele><time>2026-05-01T14:08:31.538Z</time></trkpt><trkpt lat="42.2785529" lon="14.1273915"><ele>284.0</ele><time>2026-05-01T14:08:32.538Z</time></trkpt><trkpt lat="42.278493" lon="14.1273154"><ele>284.6666666666667</ele><time>2026-05-01T14:08:33.529Z</time></trkpt><trkpt lat="42.2784454" lon="14.1272143"><ele>285.33333333333337</ele><time>2026-05-01T14:08:34.539Z</time></trkpt><trkpt lat="42.2784166" lon="14.1270996"><ele>286.0</ele><time>2026-05-01T14:08:35.537Z</time></trkpt><trkpt lat="42.2784102" lon="14.1269979"><ele>286.6666666666667</ele><time>2026-05-01T14:08:36.544Z</time></trkpt><trkpt lat="42.2784179" lon="14.1268942"><ele>287.3333333333333</ele><time>2026-05-01T14:08:37.534Z</time></trkpt><trkpt lat="42.2784371" lon="14.126799"><ele>288.0</ele><time>2026-05-01T14:08:38.53Z</time></trkpt><trkpt lat="42.2784765" lon="14.1267186"><ele>288.0</ele><time>2026-05-01T14:08:39.53Z</time></trkpt><trkpt lat="42.2785215" lon="14.1266519"><ele>288.0</ele><time>2026-05-01T14:08:40.533Z</time></trkpt><trkpt lat="42.2785733" lon="14.1265967"><ele>288.0</ele><time>2026-05-01T14:08:41.525Z</time></trkpt><trkpt lat="42.2786801" lon="14.1265553"><ele>288.0</ele><time>2026-05-01T14:08:43.528Z</time></trkpt><trkpt lat="42.2787715" lon="14.1265492"><ele>288.0</ele><time>2026-05-01T14:08:45.538Z</time></trkpt><trkpt lat="42.2788776" lon="14.1265242"><ele>288.0</ele><time>2026-05-01T14:08:47.527Z</time></trkpt><trkpt lat="42.2789605" lon="14.1265064"><ele>289.3333333333333</ele><time>2026-05-01T14:08:48.531Z</time></trkpt><trkpt lat="42.2790275" lon="14.126498"><ele>290.6666666666667</ele><time>2026-05-01T14:08:49.53Z</time></trkpt><trkpt lat="42.279104" lon="14.1264441"><ele>292.0</ele><time>2026-05-01T14:08:51.527Z</time></trkpt><trkpt lat="42.2790324" lon="14.1264066"><ele>293.33333333333337</ele><time>2026-05-01T14:08:54.524Z</time></trkpt><trkpt lat="42.2789679" lon="14.1264306"><ele>294.6666666666667</ele><time>2026-05-01T14:08:55.52Z</time></trkpt><trkpt lat="42.2788677" lon="14.1264594"><ele>296.0</ele><time>2026-05-01T14:08:56.516Z</time></trkpt><trkpt lat="42.2786908" lon="14.1265051"><ele>294.40000000000003</ele><time>2026-05-01T14:08:57.552Z</time></trkpt><trkpt lat="42.2786029" lon="14.1265702"><ele>292.8</ele><time>2026-05-01T14:08:58.6Z</time></trkpt><trkpt lat="42.2785141" lon="14.1266736"><ele>291.20000000000005</ele><time>2026-05-01T14:08:59.605Z</time></trkpt><trkpt lat="42.2784627" lon="14.126793"><ele>289.6</ele><time>2026-05-01T14:09:00.585Z</time></trkpt><trkpt lat="42.2784459" lon="14.1269244"><ele>288.0</ele><time>2026-05-01T14:09:01.579Z</time></trkpt><trkpt lat="42.2783822" lon="14.1270445"><ele>288.0</ele><time>2026-05-01T14:09:02.58Z</time></trkpt><trkpt lat="42.2784171" lon="14.1271863"><ele>288.0</ele><time>2026-05-01T14:09:03.578Z</time></trkpt><trkpt lat="42.2784691" lon="14.1273071"><ele>288.0</ele><time>2026-05-01T14:09:04.595Z</time></trkpt><trkpt lat="42.278533" lon="14.1273982"><ele>288.0</ele><time>2026-05-01T14:09:05.593Z</time></trkpt><trkpt lat="42.2786042" lon="14.1274609"><ele>288.0</ele><time>2026-05-01T14:09:06.585Z</time></trkpt><trkpt lat="42.278682" lon="14.1274909"><ele>287.3333333333333</ele><time>2026-05-01T14:09:07.586Z</time></trkpt><trkpt lat="42.2787632" lon="14.1275027"><ele>286.6666666666667</ele><time>2026-05-01T14:09:08.582Z</time></trkpt><trkpt lat="42.2788472" lon="14.1275056"><ele>286.0</ele><time>2026-05-01T14:09:09.583Z</time></trkpt><trkpt lat="42.2789236" lon="14.1274985"><ele>285.33333333333337</ele><time>2026-05-01T14:09:10.6Z</time></trkpt><trkpt lat="42.2789881" lon="14.1274949"><ele>284.6666666666667</ele><time>2026-05-01T14:09:11.597Z</time></trkpt><trkpt lat="42.2790792" lon="14.1274943"><ele>284.0</ele><time>2026-05-01T14:09:13.6Z</time></trkpt><trkpt lat="42.2791429" lon="14.1274905"><ele>283.6666666666667</ele><time>2026-05-01T14:09:19.622Z</time></trkpt><trkpt lat="42.2792077" lon="14.1274528"><ele>283.33333333333337</ele><time>2026-05-01T14:09:24.626Z</time></trkpt><trkpt lat="42.2792724" lon="14.1274317"><ele>283.0</ele><time>2026-05-01T14:09:26.622Z</time></trkpt><trkpt lat="42.2793349" lon="14.1274625"><ele>282.6666666666667</ele><time>2026-05-01T14:09:29.621Z</time></trkpt><trkpt lat="42.2793919" lon="14.1275378"><ele>282.3333333333333</ele><time>2026-05-01T14:09:31.542Z</time></trkpt><trkpt lat="42.279326" lon="14.1275962"><ele>282.0</ele><time>2026-05-01T14:09:33.524Z</time></trkpt><trkpt lat="42.2791998" lon="14.1276181"><ele>282.0</ele><time>2026-05-01T14:09:35.518Z</time></trkpt><trkpt lat="42.2791281" lon="14.1276224"><ele>282.0</ele><time>2026-05-01T14:09:36.522Z</time></trkpt><trkpt lat="42.2790565" lon="14.1276248"><ele>282.0</ele><time>2026-05-01T14:09:37.519Z</time></trkpt><trkpt lat="42.2789814" lon="14.1276316"><ele>282.0</ele><time>2026-05-01T14:09:38.516Z</time></trkpt><trkpt lat="42.2789048" lon="14.1276326"><ele>282.0</ele><time>2026-05-01T14:09:39.524Z</time></trkpt><trkpt lat="42.278826" lon="14.1276334"><ele>282.0</ele><time>2026-05-01T14:09:40.525Z</time></trkpt><trkpt lat="42.2787504" lon="14.1276315"><ele>282.3333333333333</ele><time>2026-05-01T14:09:41.522Z</time></trkpt><trkpt lat="42.2786796" lon="14.1276257"><ele>282.6666666666667</ele><time>2026-05-01T14:09:42.517Z</time></trkpt><trkpt lat="42.2786073" lon="14.1276243"><ele>283.0</ele><time>2026-05-01T14:09:43.523Z</time></trkpt><trkpt lat="42.2785258" lon="14.127613"><ele>283.33333333333337</ele><time>2026-05-01T14:09:44.522Z</time></trkpt><trkpt lat="42.2784282" lon="14.1276159"><ele>283.6666666666667</ele><time>2026-05-01T14:09:45.521Z</time></trkpt><trkpt lat="42.2783348" lon="14.1276114"><ele>284.0</ele><time>2026-05-01T14:09:46.517Z</time></trkpt><trkpt lat="42.2782299" lon="14.1276015"><ele>284.0</ele><time>2026-05-01T14:09:47.515Z</time></trkpt><trkpt lat="42.2781186" lon="14.1275835"><ele>284.0</ele><time>2026-05-01T14:09:48.511Z</time></trkpt><trkpt lat="42.2780021" lon="14.1275572"><ele>284.0</ele><time>2026-05-01T14:09:49.517Z</time></trkpt><trkpt lat="42.2778839" lon="14.1275192"><ele>284.0</ele><time>2026-05-01T14:09:50.525Z</time></trkpt><trkpt lat="42.2777582" lon="14.1274731"><ele>284.5</ele><time>2026-05-01T14:09:51.526Z</time></trkpt><trkpt lat="42.277637" lon="14.1274313"><ele>285.0</ele><time>2026-05-01T14:09:52.522Z</time></trkpt><trkpt lat="42.2775253" lon="14.127394"><ele>285.5</ele><time>2026-05-01T14:09:53.524Z</time></trkpt><trkpt lat="42.2774146" lon="14.1273743"><ele>286.0</ele><time>2026-05-01T14:09:54.522Z</time></trkpt><trkpt lat="42.2773044" lon="14.1273737"><ele>287.2</ele><time>2026-05-01T14:09:55.516Z</time></trkpt><trkpt lat="42.2771994" lon="14.1273923"><ele>288.40000000000003</ele><time>2026-05-01T14:09:56.519Z</time></trkpt><trkpt lat="42.2770952" lon="14.1274035"><ele>289.6</ele><time>2026-05-01T14:09:57.522Z</time></trkpt><trkpt lat="42.2769975" lon="14.1273829"><ele>290.8</ele><time>2026-05-01T14:09:58.515Z</time></trkpt><trkpt lat="42.2768996" lon="14.1273342"><ele>292.0</ele><time>2026-05-01T14:09:59.532Z</time></trkpt><trkpt lat="42.2768022" lon="14.1272768"><ele>292.66666666666663</ele><time>2026-05-01T14:10:00.521Z</time></trkpt><trkpt lat="42.2767095" lon="14.1272281"><ele>293.3333333333333</ele><time>2026-05-01T14:10:01.521Z</time></trkpt><trkpt lat="42.2766312" lon="14.1271862"><ele>294.0</ele><time>2026-05-01T14:10:02.515Z</time></trkpt><trkpt lat="42.2765655" lon="14.1271704"><ele>294.6666666666667</ele><time>2026-05-01T14:10:03.506Z</time></trkpt><trkpt lat="42.276493" lon="14.127254"><ele>295.33333333333337</ele><time>2026-05-01T14:10:05.514Z</time></trkpt><trkpt lat="42.276447" lon="14.1273297"><ele>296.0</ele><time>2026-05-01T14:10:06.514Z</time></trkpt><trkpt lat="42.2763932" lon="14.1274222"><ele>296.0</ele><time>2026-05-01T14:10:07.506Z</time></trkpt><trkpt lat="42.2763223" lon="14.1275457"><ele>296.0</ele><time>2026-05-01T14:10:08.518Z</time></trkpt><trkpt lat="42.276249" lon="14.127674"><ele>296.0</ele><time>2026-05-01T14:10:09.523Z</time></trkpt><trkpt lat="42.2761732" lon="14.1277935"><ele>296.0</ele><time>2026-05-01T14:10:10.519Z</time></trkpt><trkpt lat="42.276087" lon="14.1278953"><ele>296.0</ele><time>2026-05-01T14:10:11.52Z</time></trkpt><trkpt lat="42.2759963" lon="14.1279645"><ele>296.0</ele><time>2026-05-01T14:10:12.517Z</time></trkpt><trkpt lat="42.2759031" lon="14.1280111"><ele>296.0</ele><time>2026-05-01T14:10:13.521Z</time></trkpt><trkpt lat="42.2757962" lon="14.1280331"><ele>296.0</ele><time>2026-05-01T14:10:14.523Z</time></trkpt><trkpt lat="42.2756868" lon="14.128041"><ele>296.0</ele><time>2026-05-01T14:10:15.518Z</time></trkpt><trkpt lat="42.275565" lon="14.1280632"><ele>296.8</ele><time>2026-05-01T14:10:16.52Z</time></trkpt><trkpt lat="42.2754508" lon="14.1281093"><ele>297.6</ele><time>2026-05-01T14:10:17.517Z</time></trkpt><trkpt lat="42.2753602" lon="14.128183"><ele>298.4</ele><time>2026-05-01T14:10:18.51Z</time></trkpt><trkpt lat="42.2752892" lon="14.1282559"><ele>299.2</ele><time>2026-05-01T14:10:19.514Z</time></trkpt><trkpt lat="42.2752327" lon="14.1283232"><ele>300.0</ele><time>2026-05-01T14:10:20.517Z</time></trkpt><trkpt lat="42.2751326" lon="14.1283397"><ele>300.6</ele><time>2026-05-01T14:10:22.514Z</time></trkpt><trkpt lat="42.2750781" lon="14.1282144"><ele>301.2</ele><time>2026-05-01T14:10:24.514Z</time></trkpt><trkpt lat="42.2750581" lon="14.1280885"><ele>301.8</ele><time>2026-05-01T14:10:25.522Z</time></trkpt><trkpt lat="42.2750264" lon="14.1279439"><ele>302.4</ele><time>2026-05-01T14:10:26.512Z</time></trkpt><trkpt lat="42.274988" lon="14.1277855"><ele>303.0</ele><time>2026-05-01T14:10:27.515Z</time></trkpt><trkpt lat="42.2749451" lon="14.1276038"><ele>303.0</ele><time>2026-05-01T14:10:28.518Z</time></trkpt><trkpt lat="42.2748957" lon="14.1274249"><ele>303.0</ele><time>2026-05-01T14:10:29.523Z</time></trkpt><trkpt lat="42.2748436" lon="14.1272528"><ele>303.0</ele><time>2026-05-01T14:10:30.534Z</time></trkpt><trkpt lat="42.2747917" lon="14.1270928"><ele>303.0</ele><time>2026-05-01T14:10:31.526Z</time></trkpt><trkpt lat="42.2747465" lon="14.1269261"><ele>302.2</ele><time>2026-05-01T14:10:32.525Z</time></trkpt><trkpt lat="42.2747085" lon="14.1267779"><ele>301.4</ele><time>2026-05-01T14:10:33.519Z</time></trkpt><trkpt lat="42.2746817" lon="14.1266363"><ele>300.59999999999997</ele><time>2026-05-01T14:10:34.521Z</time></trkpt><trkpt lat="42.27466" lon="14.1265103"><ele>299.8</ele><time>2026-05-01T14:10:35.524Z</time></trkpt><trkpt lat="42.274632" lon="14.1263794"><ele>299.0</ele><time>2026-05-01T14:10:36.521Z</time></trkpt><trkpt lat="42.2746104" lon="14.1262453"><ele>297.25</ele><time>2026-05-01T14:10:37.518Z</time></trkpt><trkpt lat="42.2746148" lon="14.1260988"><ele>295.5</ele><time>2026-05-01T14:10:38.517Z</time></trkpt><trkpt lat="42.2746355" lon="14.1259404"><ele>293.75</ele><time>2026-05-01T14:10:39.518Z</time></trkpt><trkpt lat="42.2746673" lon="14.1257823"><ele>292.0</ele><time>2026-05-01T14:10:40.517Z</time></trkpt><trkpt lat="42.2747147" lon="14.1256236"><ele>292.0</ele><time>2026-05-01T14:10:41.527Z</time></trkpt><trkpt lat="42.2747669" lon="14.1254728"><ele>292.0</ele><time>2026-05-01T14:10:42.526Z</time></trkpt><trkpt lat="42.274819" lon="14.1253165"><ele>292.0</ele><time>2026-05-01T14:10:43.526Z</time></trkpt><trkpt lat="42.2748626" lon="14.1251839"><ele>292.0</ele><time>2026-05-01T14:10:44.524Z</time></trkpt><trkpt lat="42.2748986" lon="14.1250769"><ele>292.0</ele><time>2026-05-01T14:10:45.525Z</time></trkpt><trkpt lat="42.2749315" lon="14.1249825"><ele>297.8333333333333</ele><time>2026-05-01T14:10:46.529Z</time></trkpt><trkpt lat="42.2749601" lon="14.1248902"><ele>303.66666666666663</ele><time>2026-05-01T14:10:47.525Z</time></trkpt><trkpt lat="42.2749999" lon="14.1247901"><ele>309.5</ele><time>2026-05-01T14:10:48.523Z</time></trkpt><trkpt lat="42.2750479" lon="14.1246887"><ele>315.3333333333333</ele><time>2026-05-01T14:10:49.523Z</time></trkpt><trkpt lat="42.2751021" lon="14.1245776"><ele>321.1666666666667</ele><time>2026-05-01T14:10:50.528Z</time></trkpt><trkpt lat="42.2751576" lon="14.1244669"><ele>327.0</ele><time>2026-05-01T14:10:51.524Z</time></trkpt><trkpt lat="42.275202" lon="14.1243841"><ele>327.0</ele><time>2026-05-01T14:10:52.519Z</time></trkpt><trkpt lat="42.2752752" lon="14.1242868"><ele>327.0</ele><time>2026-05-01T14:10:54.52Z</time></trkpt><trkpt lat="42.2754045" lon="14.1242367"><ele>327.0</ele><time>2026-05-01T14:10:56.511Z</time></trkpt><trkpt lat="42.2754929" lon="14.1242397"><ele>327.0</ele><time>2026-05-01T14:10:57.528Z</time></trkpt><trkpt lat="42.2755831" lon="14.12424"><ele>327.0</ele><time>2026-05-01T14:10:58.532Z</time></trkpt><trkpt lat="42.275661" lon="14.124229"><ele>326.0</ele><time>2026-05-01T14:10:59.527Z</time></trkpt><trkpt lat="42.2757389" lon="14.124219"><ele>325.0</ele><time>2026-05-01T14:11:00.531Z</time></trkpt><trkpt lat="42.275817" lon="14.12421"><ele>324.0</ele><time>2026-05-01T14:11:01.544Z</time></trkpt><trkpt lat="42.2759014" lon="14.1242074"><ele>323.0</ele><time>2026-05-01T14:11:02.529Z</time></trkpt><trkpt lat="42.2759835" lon="14.1242021"><ele>322.0</ele><time>2026-05-01T14:11:03.533Z</time></trkpt><trkpt lat="42.2760489" lon="14.1241937"><ele>321.0</ele><time>2026-05-01T14:11:04.523Z</time></trkpt><trkpt lat="42.2761109" lon="14.1241607"><ele>321.0</ele><time>2026-05-01T14:11:06.534Z</time></trkpt><trkpt lat="42.2761838" lon="14.1241319"><ele>321.0</ele><time>2026-05-01T14:11:18.545Z</time></trkpt><trkpt lat="42.2763064" lon="14.1241146"><ele>321.0</ele><time>2026-05-01T14:11:20.535Z</time></trkpt><trkpt lat="42.2763752" lon="14.124114"><ele>321.0</ele><time>2026-05-01T14:11:21.532Z</time></trkpt><trkpt lat="42.2764597" lon="14.1241027"><ele>321.0</ele><time>2026-05-01T14:11:23.536Z</time></trkpt><trkpt lat="42.2765334" lon="14.1241162"><ele>321.0</ele><time>2026-05-01T14:11:26.547Z</time></trkpt><trkpt lat="42.2765986" lon="14.1240947"><ele>320.3333333333333</ele><time>2026-05-01T14:11:29.546Z</time></trkpt><trkpt lat="42.2765389" lon="14.1240327"><ele>319.6666666666667</ele><time>2026-05-01T14:11:32.548Z</time></trkpt><trkpt lat="42.2764794" lon="14.1240049"><ele>319.0</ele><time>2026-05-01T14:11:33.525Z</time></trkpt><trkpt lat="42.2764108" lon="14.1239567"><ele>318.33333333333337</ele><time>2026-05-01T14:11:34.525Z</time></trkpt><trkpt lat="42.2763353" lon="14.1238644"><ele>317.6666666666667</ele><time>2026-05-01T14:11:35.527Z</time></trkpt><trkpt lat="42.2762587" lon="14.1237595"><ele>317.0</ele><time>2026-05-01T14:11:36.536Z</time></trkpt><trkpt lat="42.2761989" lon="14.1236467"><ele>317.0</ele><time>2026-05-01T14:11:37.605Z</time></trkpt><trkpt lat="42.2761377" lon="14.1235286"><ele>317.0</ele><time>2026-05-01T14:11:38.608Z</time></trkpt><trkpt lat="42.2760816" lon="14.1234622"><ele>317.0</ele><time>2026-05-01T14:11:39.607Z</time></trkpt><trkpt lat="42.2760149" lon="14.1234281"><ele>317.0</ele><time>2026-05-01T14:11:40.592Z</time></trkpt><trkpt lat="42.2759718" lon="14.1233656"><ele>317.0</ele><time>2026-05-01T14:11:41.508Z</time></trkpt><trkpt lat="42.2759013" lon="14.1233435"><ele>317.0</ele><time>2026-05-01T14:11:42.507Z</time></trkpt><trkpt lat="42.275819" lon="14.1233252"><ele>317.0</ele><time>2026-05-01T14:11:43.504Z</time></trkpt><trkpt lat="42.2757333" lon="14.1233"><ele>317.0</ele><time>2026-05-01T14:11:44.525Z</time></trkpt><trkpt lat="42.2756504" lon="14.1232753"><ele>317.0</ele><time>2026-05-01T14:11:45.524Z</time></trkpt><trkpt lat="42.275571" lon="14.1232493"><ele>317.0</ele><time>2026-05-01T14:11:46.524Z</time></trkpt><trkpt lat="42.2754852" lon="14.1232258"><ele>317.0</ele><time>2026-05-01T14:11:47.528Z</time></trkpt><trkpt lat="42.2753962" lon="14.1231944"><ele>317.0</ele><time>2026-05-01T14:11:48.528Z</time></trkpt><trkpt lat="42.2753064" lon="14.1231726"><ele>316.5</ele><time>2026-05-01T14:11:49.53Z</time></trkpt><trkpt lat="42.2752156" lon="14.1231561"><ele>316.0</ele><time>2026-05-01T14:11:50.53Z</time></trkpt><trkpt lat="42.27513" lon="14.1231391"><ele>315.5</ele><time>2026-05-01T14:11:51.531Z</time></trkpt><trkpt lat="42.2750547" lon="14.1231229"><ele>315.0</ele><time>2026-05-01T14:11:52.528Z</time></trkpt><trkpt lat="42.2749454" lon="14.1231013"><ele>314.5</ele><time>2026-05-01T14:11:54.527Z</time></trkpt><trkpt lat="42.2748787" lon="14.1231038"><ele>314.0</ele><time>2026-05-01T14:11:56.539Z</time></trkpt><trkpt lat="42.2748122" lon="14.1231057"><ele>315.0</ele><time>2026-05-01T14:12:00.543Z</time></trkpt><trkpt lat="42.2747466" lon="14.1230976"><ele>316.0</ele><time>2026-05-01T14:12:02.543Z</time></trkpt><trkpt lat="42.2746412" lon="14.1230789"><ele>317.0</ele><time>2026-05-01T14:12:04.526Z</time></trkpt><trkpt lat="42.2745555" lon="14.1230653"><ele>318.0</ele><time>2026-05-01T14:12:06.533Z</time></trkpt><trkpt lat="42.2744881" lon="14.1230547"><ele>319.0</ele><time>2026-05-01T14:12:08.537Z</time></trkpt><trkpt lat="42.2744033" lon="14.1230225"><ele>320.0</ele><time>2026-05-01T14:12:10.533Z</time></trkpt><trkpt lat="42.2743443" lon="14.1229829"><ele>320.0</ele><time>2026-05-01T14:12:11.528Z</time></trkpt><trkpt lat="42.2742815" lon="14.1229449"><ele>320.0</ele><time>2026-05-01T14:12:12.53Z</time></trkpt><trkpt lat="42.2742253" lon="14.1229049"><ele>320.0</ele><time>2026-05-01T14:12:13.527Z</time></trkpt><trkpt lat="42.2741221" lon="14.1228192"><ele>320.0</ele><time>2026-05-01T14:12:15.521Z</time></trkpt><trkpt lat="42.2740719" lon="14.1227551"><ele>320.0</ele><time>2026-05-01T14:12:16.517Z</time></trkpt><trkpt lat="42.274036" lon="14.1226708"><ele>320.0</ele><time>2026-05-01T14:12:17.523Z</time></trkpt><trkpt lat="42.274013" lon="14.1225911"><ele>320.0</ele><time>2026-05-01T14:12:18.528Z</time></trkpt><trkpt lat="42.2739853" lon="14.1224976"><ele>320.0</ele><time>2026-05-01T14:12:20.536Z</time></trkpt><trkpt lat="42.2739678" lon="14.1224112"><ele>320.0</ele><time>2026-05-01T14:15:53.553Z</time></trkpt><trkpt lat="42.2738988" lon="14.1223473"><ele>320.0</ele><time>2026-05-01T14:15:55.558Z</time></trkpt><trkpt lat="42.2738021" lon="14.1222564"><ele>320.0</ele><time>2026-05-01T14:15:57.547Z</time></trkpt><trkpt lat="42.2737264" lon="14.1221613"><ele>320.0</ele><time>2026-05-01T14:15:59.543Z</time></trkpt><trkpt lat="42.2736781" lon="14.1220277"><ele>316.83333333333337</ele><time>2026-05-01T14:16:01.55Z</time></trkpt><trkpt lat="42.273658" lon="14.1219409"><ele>313.6666666666667</ele><time>2026-05-01T14:16:02.531Z</time></trkpt><trkpt lat="42.2736353" lon="14.1218305"><ele>310.5</ele><time>2026-05-01T14:16:03.548Z</time></trkpt><trkpt lat="42.2736031" lon="14.1217251"><ele>307.3333333333333</ele><time>2026-05-01T14:16:04.548Z</time></trkpt><trkpt lat="42.2735682" lon="14.1216349"><ele>304.16666666666663</ele><time>2026-05-01T14:16:05.54Z</time></trkpt><trkpt lat="42.2735188" lon="14.1215566"><ele>301.0</ele><time>2026-05-01T14:16:06.53Z</time></trkpt><trkpt lat="42.2734601" lon="14.1214961"><ele>300.40000000000003</ele><time>2026-05-01T14:16:07.533Z</time></trkpt><trkpt lat="42.2733993" lon="14.1214429"><ele>299.8</ele><time>2026-05-01T14:16:08.545Z</time></trkpt><trkpt lat="42.2733104" lon="14.1213558"><ele>299.20000000000005</ele><time>2026-05-01T14:16:10.559Z</time></trkpt><trkpt lat="42.2732584" lon="14.1212431"><ele>298.6</ele><time>2026-05-01T14:16:12.535Z</time></trkpt><trkpt lat="42.273205" lon="14.1211024"><ele>298.0</ele><time>2026-05-01T14:16:14.543Z</time></trkpt><trkpt lat="42.2730895" lon="14.1209996"><ele>297.0</ele><time>2026-05-01T14:16:16.547Z</time></trkpt><trkpt lat="42.2730098" lon="14.1209664"><ele>296.0</ele><time>2026-05-01T14:16:17.544Z</time></trkpt><trkpt lat="42.2729333" lon="14.1209276"><ele>295.0</ele><time>2026-05-01T14:16:18.548Z</time></trkpt><trkpt lat="42.2728721" lon="14.1208752"><ele>294.0</ele><time>2026-05-01T14:16:19.548Z</time></trkpt><trkpt lat="42.2728126" lon="14.1208231"><ele>293.0</ele><time>2026-05-01T14:16:20.545Z</time></trkpt><trkpt lat="42.2727068" lon="14.120757"><ele>292.0</ele><time>2026-05-01T14:16:22.545Z</time></trkpt><trkpt lat="42.2725969" lon="14.1206975"><ele>290.5</ele><time>2026-05-01T14:16:24.542Z</time></trkpt><trkpt lat="42.272503" lon="14.1206214"><ele>289.0</ele><time>2026-05-01T14:16:26.546Z</time></trkpt><trkpt lat="42.2724403" lon="14.120565"><ele>287.5</ele><time>2026-05-01T14:16:27.539Z</time></trkpt><trkpt lat="42.2723803" lon="14.1205036"><ele>286.0</ele><time>2026-05-01T14:16:28.559Z</time></trkpt><trkpt lat="42.2723128" lon="14.12044"><ele>284.5</ele><time>2026-05-01T14:16:29.548Z</time></trkpt><trkpt lat="42.2722486" lon="14.1203897"><ele>283.0</ele><time>2026-05-01T14:16:30.554Z</time></trkpt><trkpt lat="42.2721882" lon="14.1203408"><ele>282.66666666666663</ele><time>2026-05-01T14:16:31.55Z</time></trkpt><trkpt lat="42.2721268" lon="14.1202951"><ele>282.3333333333333</ele><time>2026-05-01T14:16:32.555Z</time></trkpt><trkpt lat="42.2720685" lon="14.1202458"><ele>282.0</ele><time>2026-05-01T14:16:33.55Z</time></trkpt><trkpt lat="42.271962" lon="14.1201498"><ele>281.6666666666667</ele><time>2026-05-01T14:16:35.545Z</time></trkpt><trkpt lat="42.2719044" lon="14.1200926"><ele>281.33333333333337</ele><time>2026-05-01T14:16:36.553Z</time></trkpt><trkpt lat="42.2718364" lon="14.1200326"><ele>281.0</ele><time>2026-05-01T14:16:37.546Z</time></trkpt><trkpt lat="42.2717615" lon="14.1199813"><ele>281.0</ele><time>2026-05-01T14:16:38.542Z</time></trkpt><trkpt lat="42.2716905" lon="14.1199392"><ele>281.0</ele><time>2026-05-01T14:16:39.55Z</time></trkpt><trkpt lat="42.2715793" lon="14.1198604"><ele>281.0</ele><time>2026-05-01T14:16:41.571Z</time></trkpt><trkpt lat="42.2715261" lon="14.1198035"><ele>281.0</ele><time>2026-05-01T14:16:42.555Z</time></trkpt><trkpt lat="42.2714828" lon="14.1197294"><ele>281.0</ele><time>2026-05-01T14:16:43.551Z</time></trkpt><trkpt lat="42.2714424" lon="14.1196363"><ele>281.0</ele><time>2026-05-01T14:16:44.552Z</time></trkpt><trkpt lat="42.2714138" lon="14.1195247"><ele>280.40000000000003</ele><time>2026-05-01T14:16:45.546Z</time></trkpt><trkpt lat="42.2713819" lon="14.1194027"><ele>279.8</ele><time>2026-05-01T14:16:46.555Z</time></trkpt><trkpt lat="42.2713441" lon="14.1192898"><ele>279.20000000000005</ele><time>2026-05-01T14:16:47.624Z</time></trkpt><trkpt lat="42.2713006" lon="14.1191884"><ele>278.6</ele><time>2026-05-01T14:16:48.638Z</time></trkpt><trkpt lat="42.2712614" lon="14.1190839"><ele>278.0</ele><time>2026-05-01T14:16:49.544Z</time></trkpt><trkpt lat="42.2712054" lon="14.1189555"><ele>277.2</ele><time>2026-05-01T14:16:51.549Z</time></trkpt><trkpt lat="42.2711178" lon="14.1188301"><ele>276.4</ele><time>2026-05-01T14:16:53.549Z</time></trkpt><trkpt lat="42.2710661" lon="14.1187783"><ele>275.59999999999997</ele><time>2026-05-01T14:16:54.536Z</time></trkpt><trkpt lat="42.2709708" lon="14.1187629"><ele>274.8</ele><time>2026-05-01T14:16:56.547Z</time></trkpt><trkpt lat="42.2708952" lon="14.1187664"><ele>274.0</ele><time>2026-05-01T14:16:58.557Z</time></trkpt><trkpt lat="42.2707656" lon="14.1187656"><ele>274.0</ele><time>2026-05-01T14:17:00.538Z</time></trkpt><trkpt lat="42.270684" lon="14.118756"><ele>274.0</ele><time>2026-05-01T14:17:01.547Z</time></trkpt><trkpt lat="42.2705914" lon="14.1187429"><ele>274.0</ele><time>2026-05-01T14:17:02.545Z</time></trkpt><trkpt lat="42.2704976" lon="14.1187245"><ele>274.0</ele><time>2026-05-01T14:17:03.539Z</time></trkpt><trkpt lat="42.2704082" lon="14.1187039"><ele>274.0</ele><time>2026-05-01T14:17:04.548Z</time></trkpt><trkpt lat="42.2703271" lon="14.1186851"><ele>274.0</ele><time>2026-05-01T14:17:05.545Z</time></trkpt><trkpt lat="42.2702555" lon="14.1186483"><ele>275.3333333333333</ele><time>2026-05-01T14:17:06.532Z</time></trkpt><trkpt lat="42.2701705" lon="14.1185973"><ele>276.66666666666663</ele><time>2026-05-01T14:17:08.536Z</time></trkpt><trkpt lat="42.2700687" lon="14.1185376"><ele>278.0</ele><time>2026-05-01T14:18:28.546Z</time></trkpt><trkpt lat="42.2700018" lon="14.1185021"><ele>279.3333333333333</ele><time>2026-05-01T14:18:29.546Z</time></trkpt><trkpt lat="42.2699339" lon="14.1184596"><ele>280.6666666666667</ele><time>2026-05-01T14:18:30.542Z</time></trkpt><trkpt lat="42.2698581" lon="14.1184131"><ele>282.0</ele><time>2026-05-01T14:18:32.563Z</time></trkpt><trkpt lat="42.2697913" lon="14.1183766"><ele>280.6666666666667</ele><time>2026-05-01T14:18:37.555Z</time></trkpt><trkpt lat="42.2697297" lon="14.1183221"><ele>279.3333333333333</ele><time>2026-05-01T14:18:41.55Z</time></trkpt><trkpt lat="42.2696586" lon="14.1182491"><ele>278.0</ele><time>2026-05-01T14:20:32.554Z</time></trkpt><trkpt lat="42.2695764" lon="14.1181541"><ele>276.66666666666663</ele><time>2026-05-01T14:20:34.541Z</time></trkpt><trkpt lat="42.2695299" lon="14.1180899"><ele>275.3333333333333</ele><time>2026-05-01T14:20:35.541Z</time></trkpt><trkpt lat="42.2694848" lon="14.1180212"><ele>274.0</ele><time>2026-05-01T14:20:36.539Z</time></trkpt><trkpt lat="42.2694478" lon="14.1179491"><ele>273.28571428571433</ele><time>2026-05-01T14:20:37.541Z</time></trkpt><trkpt lat="42.2694129" lon="14.1178765"><ele>272.57142857142856</ele><time>2026-05-01T14:20:38.541Z</time></trkpt><trkpt lat="42.2693907" lon="14.1177794"><ele>271.8571428571429</ele><time>2026-05-01T14:20:39.535Z</time></trkpt><trkpt lat="42.2693762" lon="14.1176896"><ele>271.14285714285717</ele><time>2026-05-01T14:20:40.537Z</time></trkpt><trkpt lat="42.2693704" lon="14.1176044"><ele>270.42857142857144</ele><time>2026-05-01T14:20:41.539Z</time></trkpt><trkpt lat="42.2693852" lon="14.1175181"><ele>269.7142857142857</ele><time>2026-05-01T14:20:42.53Z</time></trkpt><trkpt lat="42.2694068" lon="14.1174188"><ele>269.0</ele><time>2026-05-01T14:20:43.532Z</time></trkpt><trkpt lat="42.269443" lon="14.1173341"><ele>267.57142857142856</ele><time>2026-05-01T14:20:44.534Z</time></trkpt><trkpt lat="42.26948" lon="14.1172444"><ele>266.14285714285717</ele><time>2026-05-01T14:20:45.537Z</time></trkpt><trkpt lat="42.26953" lon="14.117161"><ele>264.7142857142857</ele><time>2026-05-01T14:20:46.545Z</time></trkpt><trkpt lat="42.2695643" lon="14.1170811"><ele>263.2857142857143</ele><time>2026-05-01T14:20:47.548Z</time></trkpt><trkpt lat="42.2695928" lon="14.1169972"><ele>261.8571428571429</ele><time>2026-05-01T14:20:48.56Z</time></trkpt><trkpt lat="42.2696052" lon="14.1169037"><ele>260.42857142857144</ele><time>2026-05-01T14:20:49.539Z</time></trkpt><trkpt lat="42.2696085" lon="14.1168083"><ele>259.0</ele><time>2026-05-01T14:20:50.542Z</time></trkpt><trkpt lat="42.2696082" lon="14.1167188"><ele>259.0</ele><time>2026-05-01T14:20:51.539Z</time></trkpt><trkpt lat="42.2695981" lon="14.1166286"><ele>259.0</ele><time>2026-05-01T14:20:52.547Z</time></trkpt><trkpt lat="42.2695912" lon="14.1165367"><ele>259.0</ele><time>2026-05-01T14:20:53.545Z</time></trkpt><trkpt lat="42.26959" lon="14.1164312"><ele>259.0</ele><time>2026-05-01T14:20:54.539Z</time></trkpt><trkpt lat="42.2695922" lon="14.1163254"><ele>259.0</ele><time>2026-05-01T14:20:55.542Z</time></trkpt><trkpt lat="42.2695918" lon="14.1162322"><ele>259.0</ele><time>2026-05-01T14:20:56.547Z</time></trkpt><trkpt lat="42.2695838" lon="14.1161337"><ele>259.0</ele><time>2026-05-01T14:20:57.547Z</time></trkpt><trkpt lat="42.269572" lon="14.1160387"><ele>258.14285714285717</ele><time>2026-05-01T14:20:58.547Z</time></trkpt><trkpt lat="42.2695512" lon="14.1159489"><ele>257.2857142857143</ele><time>2026-05-01T14:20:59.541Z</time></trkpt><trkpt lat="42.2695163" lon="14.1158654"><ele>256.42857142857144</ele><time>2026-05-01T14:21:00.528Z</time></trkpt><trkpt lat="42.2694767" lon="14.1157845"><ele>255.57142857142858</ele><time>2026-05-01T14:21:01.544Z</time></trkpt><trkpt lat="42.2694248" lon="14.1157194"><ele>254.71428571428572</ele><time>2026-05-01T14:21:02.551Z</time></trkpt><trkpt lat="42.2693541" lon="14.1156677"><ele>253.8571428571429</ele><time>2026-05-01T14:21:03.539Z</time></trkpt><trkpt lat="42.2692824" lon="14.115626"><ele>253.00000000000003</ele><time>2026-05-01T14:21:04.545Z</time></trkpt><trkpt lat="42.2692139" lon="14.1155796"><ele>251.99999999999997</ele><time>2026-05-01T14:21:05.535Z</time></trkpt><trkpt lat="42.2691507" lon="14.1155204"><ele>251.0</ele><time>2026-05-01T14:21:06.538Z</time></trkpt><trkpt lat="42.2691034" lon="14.1154396"><ele>250.0</ele><time>2026-05-01T14:21:07.536Z</time></trkpt><trkpt lat="42.2690671" lon="14.115359"><ele>249.0</ele><time>2026-05-01T14:21:08.539Z</time></trkpt><trkpt lat="42.2690319" lon="14.1152807"><ele>247.99999999999997</ele><time>2026-05-01T14:21:09.538Z</time></trkpt><trkpt lat="42.2689819" lon="14.1151501"><ele>247.0</ele><time>2026-05-01T14:21:11.54Z</time></trkpt><trkpt lat="42.2689696" lon="14.115052"><ele>247.0</ele><time>2026-05-01T14:21:13.548Z</time></trkpt><trkpt lat="42.2689453" lon="14.1149357"><ele>247.0</ele><time>2026-05-01T14:21:15.541Z</time></trkpt><trkpt lat="42.2688921" lon="14.1148114"><ele>247.0</ele><time>2026-05-01T14:21:17.535Z</time></trkpt><trkpt lat="42.2688349" lon="14.1146801"><ele>247.0</ele><time>2026-05-01T14:21:19.541Z</time></trkpt><trkpt lat="42.2688094" lon="14.114531"><ele>247.0</ele><time>2026-05-01T14:21:21.526Z</time></trkpt><trkpt lat="42.2687895" lon="14.1143895"><ele>243.39999999999998</ele><time>2026-05-01T14:21:23.541Z</time></trkpt><trkpt lat="42.2687554" lon="14.1142512"><ele>239.79999999999998</ele><time>2026-05-01T14:21:25.534Z</time></trkpt><trkpt lat="42.2687253" lon="14.1140842"><ele>236.2</ele><time>2026-05-01T14:21:27.542Z</time></trkpt><trkpt lat="42.2686758" lon="14.113956"><ele>232.6</ele><time>2026-05-01T14:21:29.544Z</time></trkpt><trkpt lat="42.2685895" lon="14.1138715"><ele>229.0</ele><time>2026-05-01T14:21:31.539Z</time></trkpt><trkpt lat="42.2684782" lon="14.1138009"><ele>228.99999999999997</ele><time>2026-05-01T14:21:33.544Z</time></trkpt><trkpt lat="42.2684209" lon="14.1137513"><ele>229.0</ele><time>2026-05-01T14:21:34.548Z</time></trkpt><trkpt lat="42.2683639" lon="14.113704"><ele>229.0</ele><time>2026-05-01T14:21:35.544Z</time></trkpt><trkpt lat="42.2682539" lon="14.1136156"><ele>229.0</ele><time>2026-05-01T14:21:37.536Z</time></trkpt><trkpt lat="42.2681814" lon="14.1135737"><ele>228.99999999999997</ele><time>2026-05-01T14:21:38.549Z</time></trkpt><trkpt lat="42.268111" lon="14.1135258"><ele>229.0</ele><time>2026-05-01T14:21:39.561Z</time></trkpt><trkpt lat="42.2680429" lon="14.1134509"><ele>228.6</ele><time>2026-05-01T14:21:40.556Z</time></trkpt><trkpt lat="42.2679768" lon="14.1133554"><ele>228.2</ele><time>2026-05-01T14:21:41.558Z</time></trkpt><trkpt lat="42.2679172" lon="14.1132471"><ele>227.79999999999998</ele><time>2026-05-01T14:21:42.628Z</time></trkpt><trkpt lat="42.2678617" lon="14.113141"><ele>227.39999999999998</ele><time>2026-05-01T14:21:43.627Z</time></trkpt><trkpt lat="42.2678198" lon="14.113029"><ele>227.0</ele><time>2026-05-01T14:21:44.618Z</time></trkpt><trkpt lat="42.2677873" lon="14.1129428"><ele>227.85714285714286</ele><time>2026-05-01T14:21:45.629Z</time></trkpt><trkpt lat="42.2677438" lon="14.1128672"><ele>228.71428571428572</ele><time>2026-05-01T14:21:46.608Z</time></trkpt><trkpt lat="42.2676905" lon="14.1127985"><ele>229.57142857142858</ele><time>2026-05-01T14:21:47.604Z</time></trkpt><trkpt lat="42.267631" lon="14.1127308"><ele>230.42857142857144</ele><time>2026-05-01T14:21:48.613Z</time></trkpt><trkpt lat="42.2675763" lon="14.1126661"><ele>231.28571428571428</ele><time>2026-05-01T14:21:49.606Z</time></trkpt><trkpt lat="42.2675254" lon="14.1126116"><ele>232.14285714285717</ele><time>2026-05-01T14:21:50.65Z</time></trkpt><trkpt lat="42.2674782" lon="14.1125429"><ele>233.0</ele><time>2026-05-01T14:21:51.627Z</time></trkpt><trkpt lat="42.2674443" lon="14.1124617"><ele>232.2</ele><time>2026-05-01T14:21:52.636Z</time></trkpt><trkpt lat="42.2674176" lon="14.1123662"><ele>231.4</ele><time>2026-05-01T14:21:53.633Z</time></trkpt><trkpt lat="42.2673739" lon="14.112253"><ele>230.59999999999997</ele><time>2026-05-01T14:21:54.605Z</time></trkpt><trkpt lat="42.2673429" lon="14.1121261"><ele>229.79999999999998</ele><time>2026-05-01T14:21:55.612Z</time></trkpt><trkpt lat="42.2673149" lon="14.1119981"><ele>229.0</ele><time>2026-05-01T14:21:56.609Z</time></trkpt><trkpt lat="42.2672871" lon="14.1118774"><ele>232.0</ele><time>2026-05-01T14:21:57.609Z</time></trkpt><trkpt lat="42.2672571" lon="14.1117542"><ele>234.99999999999997</ele><time>2026-05-01T14:21:58.628Z</time></trkpt><trkpt lat="42.2672253" lon="14.1116329"><ele>237.99999999999997</ele><time>2026-05-01T14:21:59.627Z</time></trkpt><trkpt lat="42.2671909" lon="14.1115145"><ele>241.0</ele><time>2026-05-01T14:22:00.633Z</time></trkpt><trkpt lat="42.2671521" lon="14.1113871"><ele>244.0</ele><time>2026-05-01T14:22:01.634Z</time></trkpt><trkpt lat="42.2671125" lon="14.1112576"><ele>244.0</ele><time>2026-05-01T14:22:02.634Z</time></trkpt><trkpt lat="42.2670644" lon="14.1111075"><ele>243.99999999999997</ele><time>2026-05-01T14:22:03.629Z</time></trkpt><trkpt lat="42.2670212" lon="14.1109829"><ele>243.99999999999997</ele><time>2026-05-01T14:22:04.63Z</time></trkpt><trkpt lat="42.2669797" lon="14.1108617"><ele>244.0</ele><time>2026-05-01T14:22:05.626Z</time></trkpt><trkpt lat="42.2669468" lon="14.110753"><ele>244.0</ele><time>2026-05-01T14:22:06.625Z</time></trkpt><trkpt lat="42.2669146" lon="14.1106426"><ele>244.49999999999997</ele><time>2026-05-01T14:22:07.611Z</time></trkpt><trkpt lat="42.266888" lon="14.1105408"><ele>245.0</ele><time>2026-05-01T14:22:08.616Z</time></trkpt><trkpt lat="42.2668612" lon="14.1104185"><ele>245.5</ele><time>2026-05-01T14:22:09.613Z</time></trkpt><trkpt lat="42.2668365" lon="14.1103097"><ele>246.0</ele><time>2026-05-01T14:22:10.614Z</time></trkpt><trkpt lat="42.2668135" lon="14.1101942"><ele>246.49999999999997</ele><time>2026-05-01T14:22:11.628Z</time></trkpt><trkpt lat="42.2667951" lon="14.1100686"><ele>247.0</ele><time>2026-05-01T14:22:12.628Z</time></trkpt><trkpt lat="42.2667792" lon="14.1099428"><ele>248.66666666666666</ele><time>2026-05-01T14:22:13.625Z</time></trkpt><trkpt lat="42.2667578" lon="14.1098284"><ele>250.33333333333331</ele><time>2026-05-01T14:22:14.606Z</time></trkpt><trkpt lat="42.266723" lon="14.109744"><ele>252.0</ele><time>2026-05-01T14:22:15.602Z</time></trkpt><trkpt lat="42.2666669" lon="14.1096055"><ele>253.66666666666669</ele><time>2026-05-01T14:22:17.511Z</time></trkpt><trkpt lat="42.2666263" lon="14.1095221"><ele>255.33333333333334</ele><time>2026-05-01T14:22:18.534Z</time></trkpt><trkpt lat="42.2665832" lon="14.1094308"><ele>257.0</ele><time>2026-05-01T14:22:19.535Z</time></trkpt><trkpt lat="42.2665329" lon="14.1093411"><ele>257.0</ele><time>2026-05-01T14:22:20.535Z</time></trkpt><trkpt lat="42.266487" lon="14.1092458"><ele>257.0</ele><time>2026-05-01T14:22:21.544Z</time></trkpt><trkpt lat="42.2664434" lon="14.1091508"><ele>257.0</ele><time>2026-05-01T14:22:22.539Z</time></trkpt><trkpt lat="42.2663977" lon="14.1090555"><ele>257.0</ele><time>2026-05-01T14:22:23.543Z</time></trkpt><trkpt lat="42.2663465" lon="14.1089574"><ele>257.0</ele><time>2026-05-01T14:22:24.54Z</time></trkpt><trkpt lat="42.2662971" lon="14.1088711"><ele>257.0</ele><time>2026-05-01T14:22:25.544Z</time></trkpt><trkpt lat="42.2662522" lon="14.1087978"><ele>258.6666666666667</ele><time>2026-05-01T14:22:26.55Z</time></trkpt><trkpt lat="42.2662024" lon="14.1087284"><ele>260.33333333333337</ele><time>2026-05-01T14:22:27.551Z</time></trkpt><trkpt lat="42.2661445" lon="14.1086473"><ele>262.0</ele><time>2026-05-01T14:22:28.549Z</time></trkpt><trkpt lat="42.2660881" lon="14.1085541"><ele>263.6666666666667</ele><time>2026-05-01T14:22:29.546Z</time></trkpt><trkpt lat="42.2660261" lon="14.1084636"><ele>265.3333333333333</ele><time>2026-05-01T14:22:30.544Z</time></trkpt><trkpt lat="42.2659702" lon="14.108371"><ele>267.0</ele><time>2026-05-01T14:22:31.551Z</time></trkpt><trkpt lat="42.2659087" lon="14.1082755"><ele>267.3333333333333</ele><time>2026-05-01T14:22:32.551Z</time></trkpt><trkpt lat="42.2658584" lon="14.1081753"><ele>267.6666666666667</ele><time>2026-05-01T14:22:33.546Z</time></trkpt><trkpt lat="42.2658103" lon="14.1080683"><ele>268.0</ele><time>2026-05-01T14:22:34.54Z</time></trkpt><trkpt lat="42.2657705" lon="14.1079663"><ele>268.33333333333337</ele><time>2026-05-01T14:22:35.542Z</time></trkpt><trkpt lat="42.2657339" lon="14.1078564"><ele>268.6666666666667</ele><time>2026-05-01T14:22:36.549Z</time></trkpt><trkpt lat="42.265696" lon="14.1077431"><ele>269.0</ele><time>2026-05-01T14:22:37.545Z</time></trkpt><trkpt lat="42.2656552" lon="14.1076331"><ele>269.2</ele><time>2026-05-01T14:22:38.549Z</time></trkpt><trkpt lat="42.2656095" lon="14.1075238"><ele>269.4</ele><time>2026-05-01T14:22:39.542Z</time></trkpt><trkpt lat="42.2655493" lon="14.1074169"><ele>269.6</ele><time>2026-05-01T14:22:40.531Z</time></trkpt><trkpt lat="42.2654783" lon="14.1073072"><ele>269.8</ele><time>2026-05-01T14:22:41.545Z</time></trkpt><trkpt lat="42.2654201" lon="14.1071879"><ele>270.0</ele><time>2026-05-01T14:22:42.542Z</time></trkpt><trkpt lat="42.2653686" lon="14.1070593"><ele>270.0</ele><time>2026-05-01T14:22:43.547Z</time></trkpt><trkpt lat="42.2653163" lon="14.1069402"><ele>270.0</ele><time>2026-05-01T14:22:44.547Z</time></trkpt><trkpt lat="42.2652683" lon="14.106839"><ele>270.0</ele><time>2026-05-01T14:22:45.538Z</time></trkpt><trkpt lat="42.2652292" lon="14.1067557"><ele>270.0</ele><time>2026-05-01T14:22:46.546Z</time></trkpt><trkpt lat="42.2651748" lon="14.1066483"><ele>270.0</ele><time>2026-05-01T14:22:48.534Z</time></trkpt><trkpt lat="42.2652021" lon="14.106744"><ele>270.0</ele><time>2026-05-01T14:23:39.558Z</time></trkpt><trkpt lat="42.2652453" lon="14.1068356"><ele>270.0</ele><time>2026-05-01T14:23:43.551Z</time></trkpt><trkpt lat="42.2652856" lon="14.1069221"><ele>270.0</ele><time>2026-05-01T14:23:46.553Z</time></trkpt><trkpt lat="42.2653158" lon="14.107005"><ele>270.0</ele><time>2026-05-01T14:23:49.546Z</time></trkpt><trkpt lat="42.2653772" lon="14.1069653"><ele>270.0</ele><time>2026-05-01T14:25:19.559Z</time></trkpt><trkpt lat="42.2654303" lon="14.1068734"><ele>270.0</ele><time>2026-05-01T14:25:23.555Z</time></trkpt><trkpt lat="42.265483" lon="14.106772"><ele>270.0</ele><time>2026-05-01T14:25:26.559Z</time></trkpt><trkpt lat="42.2655238" lon="14.1066967"><ele>270.0</ele><time>2026-05-01T14:25:28.56Z</time></trkpt><trkpt lat="42.2655632" lon="14.106618"><ele>270.0</ele><time>2026-05-01T14:25:30.549Z</time></trkpt><trkpt lat="42.2656109" lon="14.1065349"><ele>270.0</ele><time>2026-05-01T14:25:32.556Z</time></trkpt><trkpt lat="42.2656752" lon="14.106457"><ele>270.0</ele><time>2026-05-01T14:25:35.555Z</time></trkpt><trkpt lat="42.2657538" lon="14.1063994"><ele>270.0</ele><time>2026-05-01T14:25:39.55Z</time></trkpt><trkpt lat="42.265812" lon="14.1063603"><ele>270.0</ele><time>2026-05-01T14:25:41.553Z</time></trkpt><trkpt lat="42.2658791" lon="14.1063206"><ele>265.8333333333333</ele><time>2026-05-01T14:25:43.553Z</time></trkpt><trkpt lat="42.2659672" lon="14.1062534"><ele>261.6666666666667</ele><time>2026-05-01T14:25:46.553Z</time></trkpt><trkpt lat="42.2660285" lon="14.1061887"><ele>257.5</ele><time>2026-05-01T14:25:48.549Z</time></trkpt><trkpt lat="42.2660728" lon="14.1061278"><ele>253.33333333333334</ele><time>2026-05-01T14:25:50.551Z</time></trkpt><trkpt lat="42.2661257" lon="14.1060276"><ele>249.16666666666669</ele><time>2026-05-01T14:25:53.555Z</time></trkpt><trkpt lat="42.2661625" lon="14.1059332"><ele>245.0</ele><time>2026-05-01T14:25:55.556Z</time></trkpt><trkpt lat="42.2661909" lon="14.1058241"><ele>241.71428571428572</ele><time>2026-05-01T14:25:58.584Z</time></trkpt><trkpt lat="42.2662096" lon="14.1057334"><ele>238.42857142857144</ele><time>2026-05-01T14:26:03.551Z</time></trkpt><trkpt lat="42.2662262" lon="14.1056513"><ele>235.14285714285714</ele><time>2026-05-01T14:26:07.551Z</time></trkpt><trkpt lat="42.2662454" lon="14.1055639"><ele>231.85714285714286</ele><time>2026-05-01T14:26:13.547Z</time></trkpt><trkpt lat="42.2662596" lon="14.1054743"><ele>228.57142857142858</ele><time>2026-05-01T14:26:18.548Z</time></trkpt><trkpt lat="42.2662739" lon="14.1053837"><ele>225.28571428571428</ele><time>2026-05-01T14:26:24.554Z</time></trkpt><trkpt lat="42.2663035" lon="14.1052929"><ele>222.0</ele><time>2026-05-01T14:26:30.56Z</time></trkpt><trkpt lat="42.2663341" lon="14.1051917"><ele>222.0</ele><time>2026-05-01T14:26:34.554Z</time></trkpt><trkpt lat="42.2663688" lon="14.1051006"><ele>222.0</ele><time>2026-05-01T14:26:36.553Z</time></trkpt><trkpt lat="42.266415" lon="14.105023"><ele>222.0</ele><time>2026-05-01T14:28:52.555Z</time></trkpt><trkpt lat="42.2664731" lon="14.1049475"><ele>222.0</ele><time>2026-05-01T14:28:54.556Z</time></trkpt><trkpt lat="42.2665451" lon="14.1048692"><ele>222.0</ele><time>2026-05-01T14:28:56.562Z</time></trkpt><trkpt lat="42.2666589" lon="14.1047787"><ele>219.33333333333334</ele><time>2026-05-01T14:28:58.555Z</time></trkpt><trkpt lat="42.266726" lon="14.1047541"><ele>216.66666666666669</ele><time>2026-05-01T14:28:59.553Z</time></trkpt><trkpt lat="42.2667991" lon="14.1047379"><ele>214.0</ele><time>2026-05-01T14:29:00.554Z</time></trkpt><trkpt lat="42.2669172" lon="14.1047304"><ele>211.33333333333334</ele><time>2026-05-01T14:29:02.556Z</time></trkpt><trkpt lat="42.2669811" lon="14.1047289"><ele>208.66666666666669</ele><time>2026-05-01T14:29:03.56Z</time></trkpt><trkpt lat="42.2670516" lon="14.1047205"><ele>206.0</ele><time>2026-05-01T14:29:04.545Z</time></trkpt><trkpt lat="42.2671306" lon="14.1047025"><ele>206.00000000000003</ele><time>2026-05-01T14:29:05.55Z</time></trkpt><trkpt lat="42.2672102" lon="14.1046842"><ele>206.0</ele><time>2026-05-01T14:29:06.568Z</time></trkpt><trkpt lat="42.2672793" lon="14.1046688"><ele>206.0</ele><time>2026-05-01T14:29:07.551Z</time></trkpt><trkpt lat="42.2673501" lon="14.1046413"><ele>206.0</ele><time>2026-05-01T14:29:08.56Z</time></trkpt><trkpt lat="42.2674156" lon="14.1046193"><ele>206.00000000000003</ele><time>2026-05-01T14:29:09.559Z</time></trkpt><trkpt lat="42.2674984" lon="14.1045948"><ele>206.0</ele><time>2026-05-01T14:29:10.554Z</time></trkpt><trkpt lat="42.2675896" lon="14.1045828"><ele>206.60000000000002</ele><time>2026-05-01T14:29:11.559Z</time></trkpt><trkpt lat="42.2676839" lon="14.104574"><ele>207.2</ele><time>2026-05-01T14:29:12.635Z</time></trkpt><trkpt lat="42.2677761" lon="14.1045632"><ele>207.8</ele><time>2026-05-01T14:29:13.638Z</time></trkpt><trkpt lat="42.2678715" lon="14.1045529"><ele>208.39999999999998</ele><time>2026-05-01T14:29:14.634Z</time></trkpt><trkpt lat="42.2679703" lon="14.1045355"><ele>209.0</ele><time>2026-05-01T14:29:15.633Z</time></trkpt><trkpt lat="42.2680666" lon="14.1045186"><ele>210.0</ele><time>2026-05-01T14:29:16.637Z</time></trkpt><trkpt lat="42.2681639" lon="14.1044977"><ele>211.0</ele><time>2026-05-01T14:29:17.639Z</time></trkpt><trkpt lat="42.2682582" lon="14.1044711"><ele>211.99999999999997</ele><time>2026-05-01T14:29:18.63Z</time></trkpt><trkpt lat="42.2683483" lon="14.1044464"><ele>213.0</ele><time>2026-05-01T14:29:19.635Z</time></trkpt><trkpt lat="42.2684365" lon="14.1044225"><ele>214.0</ele><time>2026-05-01T14:29:20.632Z</time></trkpt><trkpt lat="42.2685098" lon="14.104405"><ele>214.0</ele><time>2026-05-01T14:29:21.639Z</time></trkpt><trkpt lat="42.2686249" lon="14.1043908"><ele>213.99999999999997</ele><time>2026-05-01T14:29:23.635Z</time></trkpt><trkpt lat="42.2687352" lon="14.104411"><ele>213.99999999999997</ele><time>2026-05-01T14:29:25.616Z</time></trkpt><trkpt lat="42.2688609" lon="14.1044403"><ele>214.0</ele><time>2026-05-01T14:29:27.614Z</time></trkpt><trkpt lat="42.2689255" lon="14.1044608"><ele>214.0</ele><time>2026-05-01T14:29:28.618Z</time></trkpt><trkpt lat="42.268998" lon="14.1044845"><ele>213.83333333333331</ele><time>2026-05-01T14:29:29.637Z</time></trkpt><trkpt lat="42.269078" lon="14.1045064"><ele>213.66666666666666</ele><time>2026-05-01T14:29:30.643Z</time></trkpt><trkpt lat="42.2691607" lon="14.1045279"><ele>213.5</ele><time>2026-05-01T14:29:31.641Z</time></trkpt><trkpt lat="42.2692297" lon="14.1045614"><ele>213.33333333333331</ele><time>2026-05-01T14:29:32.634Z</time></trkpt><trkpt lat="42.2693025" lon="14.1045959"><ele>213.16666666666666</ele><time>2026-05-01T14:29:33.633Z</time></trkpt><trkpt lat="42.2693816" lon="14.1046313"><ele>213.0</ele><time>2026-05-01T14:29:34.64Z</time></trkpt><trkpt lat="42.2694638" lon="14.1046484"><ele>213.0</ele><time>2026-05-01T14:29:35.618Z</time></trkpt><trkpt lat="42.2695581" lon="14.1046462"><ele>213.0</ele><time>2026-05-01T14:29:36.619Z</time></trkpt><trkpt lat="42.2696578" lon="14.1046301"><ele>213.0</ele><time>2026-05-01T14:29:37.617Z</time></trkpt><trkpt lat="42.2697503" lon="14.1046128"><ele>213.0</ele><time>2026-05-01T14:29:38.622Z</time></trkpt><trkpt lat="42.2698372" lon="14.104603"><ele>213.0</ele><time>2026-05-01T14:29:39.64Z</time></trkpt><trkpt lat="42.2699178" lon="14.1045935"><ele>213.83333333333334</ele><time>2026-05-01T14:29:40.639Z</time></trkpt><trkpt lat="42.269999" lon="14.104605"><ele>214.66666666666669</ele><time>2026-05-01T14:29:41.631Z</time></trkpt><trkpt lat="42.2700803" lon="14.1046137"><ele>215.5</ele><time>2026-05-01T14:29:42.638Z</time></trkpt><trkpt lat="42.2701634" lon="14.1046226"><ele>216.33333333333334</ele><time>2026-05-01T14:29:43.637Z</time></trkpt><trkpt lat="42.2702275" lon="14.1046271"><ele>217.16666666666669</ele><time>2026-05-01T14:29:44.635Z</time></trkpt><trkpt lat="42.270321" lon="14.1046332"><ele>218.0</ele><time>2026-05-01T14:29:45.63Z</time></trkpt><trkpt lat="42.2704123" lon="14.1046327"><ele>218.0</ele><time>2026-05-01T14:29:46.636Z</time></trkpt><trkpt lat="42.2704904" lon="14.1046291"><ele>218.0</ele><time>2026-05-01T14:29:47.64Z</time></trkpt><trkpt lat="42.2705591" lon="14.1046246"><ele>218.0</ele><time>2026-05-01T14:29:48.632Z</time></trkpt><trkpt lat="42.2706548" lon="14.1045992"><ele>218.0</ele><time>2026-05-01T14:29:50.641Z</time></trkpt><trkpt lat="42.2707626" lon="14.1045739"><ele>218.0</ele><time>2026-05-01T14:29:52.646Z</time></trkpt><trkpt lat="42.2708748" lon="14.1045524"><ele>217.60000000000002</ele><time>2026-05-01T14:29:54.612Z</time></trkpt><trkpt lat="42.2709991" lon="14.1045165"><ele>217.20000000000002</ele><time>2026-05-01T14:29:56.616Z</time></trkpt><trkpt lat="42.271076" lon="14.1044933"><ele>216.8</ele><time>2026-05-01T14:29:57.53Z</time></trkpt><trkpt lat="42.2711586" lon="14.1044584"><ele>216.4</ele><time>2026-05-01T14:29:58.554Z</time></trkpt><trkpt lat="42.2712523" lon="14.104437"><ele>216.0</ele><time>2026-05-01T14:29:59.553Z</time></trkpt><trkpt lat="42.2713438" lon="14.1044308"><ele>216.0</ele><time>2026-05-01T14:30:00.554Z</time></trkpt><trkpt lat="42.2714291" lon="14.1044231"><ele>216.0</ele><time>2026-05-01T14:30:01.553Z</time></trkpt><trkpt lat="42.2715149" lon="14.1044254"><ele>216.0</ele><time>2026-05-01T14:30:02.553Z</time></trkpt><trkpt lat="42.2715926" lon="14.1044152"><ele>216.0</ele><time>2026-05-01T14:30:03.545Z</time></trkpt><trkpt lat="42.2716662" lon="14.1043849"><ele>216.0</ele><time>2026-05-01T14:30:04.535Z</time></trkpt><trkpt lat="42.2717444" lon="14.10432"><ele>216.0</ele><time>2026-05-01T14:30:05.56Z</time></trkpt><trkpt lat="42.2718254" lon="14.1042409"><ele>214.60000000000002</ele><time>2026-05-01T14:30:06.545Z</time></trkpt><trkpt lat="42.2718945" lon="14.1041657"><ele>213.20000000000002</ele><time>2026-05-01T14:30:07.546Z</time></trkpt><trkpt lat="42.2719492" lon="14.1041001"><ele>211.8</ele><time>2026-05-01T14:30:08.543Z</time></trkpt><trkpt lat="42.2720006" lon="14.1040269"><ele>210.39999999999998</ele><time>2026-05-01T14:30:09.538Z</time></trkpt><trkpt lat="42.2720589" lon="14.1038849"><ele>209.0</ele><time>2026-05-01T14:30:11.551Z</time></trkpt><trkpt lat="42.2721107" lon="14.1037228"><ele>206.2</ele><time>2026-05-01T14:30:13.54Z</time></trkpt><trkpt lat="42.2721292" lon="14.1036211"><ele>203.39999999999998</ele><time>2026-05-01T14:30:14.555Z</time></trkpt><trkpt lat="42.2721614" lon="14.1034987"><ele>200.6</ele><time>2026-05-01T14:30:15.551Z</time></trkpt><trkpt lat="42.2721953" lon="14.1033504"><ele>197.8</ele><time>2026-05-01T14:30:16.542Z</time></trkpt><trkpt lat="42.272216" lon="14.1031842"><ele>195.0</ele><time>2026-05-01T14:30:17.552Z</time></trkpt><trkpt lat="42.272224" lon="14.1030272"><ele>193.16666666666666</ele><time>2026-05-01T14:30:18.548Z</time></trkpt><trkpt lat="42.2722292" lon="14.1028911"><ele>191.33333333333334</ele><time>2026-05-01T14:30:19.539Z</time></trkpt><trkpt lat="42.2722493" lon="14.1027739"><ele>189.5</ele><time>2026-05-01T14:30:20.534Z</time></trkpt><trkpt lat="42.2722808" lon="14.1026781"><ele>187.66666666666669</ele><time>2026-05-01T14:30:21.529Z</time></trkpt><trkpt lat="42.27233" lon="14.1026054"><ele>185.83333333333334</ele><time>2026-05-01T14:30:22.533Z</time></trkpt><trkpt lat="42.272408" lon="14.1025447"><ele>184.0</ele><time>2026-05-01T14:30:23.528Z</time></trkpt><trkpt lat="42.2724921" lon="14.102479"><ele>185.6</ele><time>2026-05-01T14:30:24.543Z</time></trkpt><trkpt lat="42.2725793" lon="14.1024212"><ele>187.2</ele><time>2026-05-01T14:30:25.54Z</time></trkpt><trkpt lat="42.2726751" lon="14.1023627"><ele>188.79999999999998</ele><time>2026-05-01T14:30:26.55Z</time></trkpt><trkpt lat="42.2727594" lon="14.1022826"><ele>190.39999999999998</ele><time>2026-05-01T14:30:27.542Z</time></trkpt><trkpt lat="42.2728304" lon="14.1021906"><ele>192.0</ele><time>2026-05-01T14:30:28.542Z</time></trkpt><trkpt lat="42.272875" lon="14.1020768"><ele>192.0</ele><time>2026-05-01T14:30:29.532Z</time></trkpt><trkpt lat="42.2728984" lon="14.1019591"><ele>192.0</ele><time>2026-05-01T14:30:30.541Z</time></trkpt><trkpt lat="42.2729245" lon="14.1018526"><ele>192.0</ele><time>2026-05-01T14:30:31.549Z</time></trkpt><trkpt lat="42.2729481" lon="14.1017541"><ele>192.0</ele><time>2026-05-01T14:30:32.553Z</time></trkpt><trkpt lat="42.2729793" lon="14.1016598"><ele>192.0</ele><time>2026-05-01T14:30:33.543Z</time></trkpt><trkpt lat="42.2730178" lon="14.1015731"><ele>192.0</ele><time>2026-05-01T14:30:34.548Z</time></trkpt><trkpt lat="42.2730696" lon="14.1014943"><ele>191.83333333333334</ele><time>2026-05-01T14:30:35.542Z</time></trkpt><trkpt lat="42.2731241" lon="14.1014361"><ele>191.66666666666666</ele><time>2026-05-01T14:30:36.56Z</time></trkpt><trkpt lat="42.2732012" lon="14.1013918"><ele>191.5</ele><time>2026-05-01T14:30:37.539Z</time></trkpt><trkpt lat="42.2732851" lon="14.1013932"><ele>191.33333333333331</ele><time>2026-05-01T14:30:38.552Z</time></trkpt><trkpt lat="42.2733751" lon="14.1014233"><ele>191.16666666666666</ele><time>2026-05-01T14:30:39.542Z</time></trkpt><trkpt lat="42.2734669" lon="14.1014729"><ele>191.0</ele><time>2026-05-01T14:30:40.551Z</time></trkpt><trkpt lat="42.2735708" lon="14.1015353"><ele>189.5</ele><time>2026-05-01T14:30:41.55Z</time></trkpt><trkpt lat="42.2736826" lon="14.1015925"><ele>188.0</ele><time>2026-05-01T14:30:42.55Z</time></trkpt><trkpt lat="42.2738009" lon="14.1016434"><ele>186.5</ele><time>2026-05-01T14:30:43.543Z</time></trkpt><trkpt lat="42.2739187" lon="14.1017026"><ele>185.0</ele><time>2026-05-01T14:30:44.539Z</time></trkpt><trkpt lat="42.2740355" lon="14.1017468"><ele>185.0</ele><time>2026-05-01T14:30:45.545Z</time></trkpt><trkpt lat="42.2741601" lon="14.1017855"><ele>185.0</ele><time>2026-05-01T14:30:46.545Z</time></trkpt><trkpt lat="42.2742784" lon="14.101788"><ele>185.0</ele><time>2026-05-01T14:30:47.539Z</time></trkpt><trkpt lat="42.2743978" lon="14.101771"><ele>185.0</ele><time>2026-05-01T14:30:48.537Z</time></trkpt><trkpt lat="42.2745" lon="14.1017343"><ele>185.0</ele><time>2026-05-01T14:30:49.543Z</time></trkpt><trkpt lat="42.2745868" lon="14.1016847"><ele>185.0</ele><time>2026-05-01T14:30:50.55Z</time></trkpt><trkpt lat="42.2746708" lon="14.1016183"><ele>185.0</ele><time>2026-05-01T14:30:51.545Z</time></trkpt><trkpt lat="42.2747509" lon="14.1015387"><ele>185.0</ele><time>2026-05-01T14:30:52.552Z</time></trkpt><trkpt lat="42.2748173" lon="14.1014526"><ele>185.0</ele><time>2026-05-01T14:30:53.551Z</time></trkpt><trkpt lat="42.2748734" lon="14.1013566"><ele>183.8</ele><time>2026-05-01T14:30:54.549Z</time></trkpt><trkpt lat="42.2749135" lon="14.1012655"><ele>182.6</ele><time>2026-05-01T14:30:55.542Z</time></trkpt><trkpt lat="42.2749538" lon="14.1011575"><ele>181.39999999999998</ele><time>2026-05-01T14:30:56.545Z</time></trkpt><trkpt lat="42.2749903" lon="14.1010347"><ele>180.2</ele><time>2026-05-01T14:30:57.54Z</time></trkpt><trkpt lat="42.2750323" lon="14.1008963"><ele>179.0</ele><time>2026-05-01T14:30:58.55Z</time></trkpt><trkpt lat="42.2750838" lon="14.1007638"><ele>177.75</ele><time>2026-05-01T14:30:59.557Z</time></trkpt><trkpt lat="42.2751393" lon="14.1006241"><ele>176.5</ele><time>2026-05-01T14:31:00.554Z</time></trkpt><trkpt lat="42.275195" lon="14.1004781"><ele>175.25</ele><time>2026-05-01T14:31:01.557Z</time></trkpt><trkpt lat="42.2752505" lon="14.1003267"><ele>174.0</ele><time>2026-05-01T14:31:02.554Z</time></trkpt><trkpt lat="42.2753112" lon="14.1001724"><ele>174.0</ele><time>2026-05-01T14:31:03.547Z</time></trkpt><trkpt lat="42.2753857" lon="14.1000247"><ele>174.0</ele><time>2026-05-01T14:31:04.552Z</time></trkpt><trkpt lat="42.2754494" lon="14.099879"><ele>174.0</ele><time>2026-05-01T14:31:05.547Z</time></trkpt><trkpt lat="42.2754912" lon="14.0997409"><ele>174.0</ele><time>2026-05-01T14:31:06.556Z</time></trkpt><trkpt lat="42.2755225" lon="14.0995919"><ele>174.2</ele><time>2026-05-01T14:31:07.533Z</time></trkpt><trkpt lat="42.2755277" lon="14.0994471"><ele>174.39999999999998</ele><time>2026-05-01T14:31:08.555Z</time></trkpt><trkpt lat="42.2755107" lon="14.0993027"><ele>174.6</ele><time>2026-05-01T14:31:09.539Z</time></trkpt><trkpt lat="42.275481" lon="14.0991564"><ele>174.8</ele><time>2026-05-01T14:31:10.553Z</time></trkpt><trkpt lat="42.2754569" lon="14.0990194"><ele>175.0</ele><time>2026-05-01T14:31:11.545Z</time></trkpt><trkpt lat="42.2754301" lon="14.0988926"><ele>176.0</ele><time>2026-05-01T14:31:12.545Z</time></trkpt><trkpt lat="42.2754058" lon="14.0987635"><ele>177.0</ele><time>2026-05-01T14:31:13.547Z</time></trkpt><trkpt lat="42.2753764" lon="14.0986229"><ele>178.0</ele><time>2026-05-01T14:31:14.551Z</time></trkpt><trkpt lat="42.2753524" lon="14.0984817"><ele>179.0</ele><time>2026-05-01T14:31:15.545Z</time></trkpt><trkpt lat="42.2753283" lon="14.0983506"><ele>180.0</ele><time>2026-05-01T14:31:16.547Z</time></trkpt><trkpt lat="42.2753228" lon="14.0982163"><ele>180.0</ele><time>2026-05-01T14:31:17.553Z</time></trkpt><trkpt lat="42.2753175" lon="14.0980946"><ele>180.0</ele><time>2026-05-01T14:31:18.554Z</time></trkpt><trkpt lat="42.2753125" lon="14.0979771"><ele>180.0</ele><time>2026-05-01T14:31:19.556Z</time></trkpt><trkpt lat="42.2753089" lon="14.0978702"><ele>180.0</ele><time>2026-05-01T14:31:20.551Z</time></trkpt><trkpt lat="42.2753171" lon="14.0977526"><ele>180.0</ele><time>2026-05-01T14:31:21.551Z</time></trkpt><trkpt lat="42.2753267" lon="14.0976175"><ele>180.0</ele><time>2026-05-01T14:31:22.548Z</time></trkpt><trkpt lat="42.2753326" lon="14.0974862"><ele>179.0</ele><time>2026-05-01T14:31:23.551Z</time></trkpt><trkpt lat="42.2753395" lon="14.0973664"><ele>178.0</ele><time>2026-05-01T14:31:24.55Z</time></trkpt><trkpt lat="42.2753495" lon="14.0972487"><ele>177.0</ele><time>2026-05-01T14:31:25.547Z</time></trkpt><trkpt lat="42.2753642" lon="14.0971173"><ele>176.0</ele><time>2026-05-01T14:31:26.553Z</time></trkpt><trkpt lat="42.2753843" lon="14.0969832"><ele>175.0</ele><time>2026-05-01T14:31:27.549Z</time></trkpt><trkpt lat="42.2753992" lon="14.0968414"><ele>175.0</ele><time>2026-05-01T14:31:28.553Z</time></trkpt><trkpt lat="42.2754179" lon="14.096696"><ele>175.0</ele><time>2026-05-01T14:31:29.549Z</time></trkpt><trkpt lat="42.2754312" lon="14.0965369"><ele>175.0</ele><time>2026-05-01T14:31:30.551Z</time></trkpt><trkpt lat="42.2754517" lon="14.0963792"><ele>175.0</ele><time>2026-05-01T14:31:31.552Z</time></trkpt><trkpt lat="42.2754682" lon="14.0962209"><ele>173.6</ele><time>2026-05-01T14:31:32.556Z</time></trkpt><trkpt lat="42.2754814" lon="14.0960694"><ele>172.2</ele><time>2026-05-01T14:31:33.549Z</time></trkpt><trkpt lat="42.2755134" lon="14.0959297"><ele>170.8</ele><time>2026-05-01T14:31:34.548Z</time></trkpt><trkpt lat="42.2755529" lon="14.0957901"><ele>169.4</ele><time>2026-05-01T14:31:35.549Z</time></trkpt><trkpt lat="42.2755847" lon="14.0956478"><ele>168.0</ele><time>2026-05-01T14:31:36.545Z</time></trkpt><trkpt lat="42.2756034" lon="14.0955134"><ele>167.4</ele><time>2026-05-01T14:31:37.56Z</time></trkpt><trkpt lat="42.2756119" lon="14.0953959"><ele>166.8</ele><time>2026-05-01T14:31:38.543Z</time></trkpt><trkpt lat="42.2756156" lon="14.0953023"><ele>166.2</ele><time>2026-05-01T14:31:39.535Z</time></trkpt><trkpt lat="42.2756362" lon="14.0951572"><ele>165.6</ele><time>2026-05-01T14:31:41.538Z</time></trkpt><trkpt lat="42.2757314" lon="14.0950816"><ele>165.0</ele><time>2026-05-01T14:31:43.547Z</time></trkpt><trkpt lat="42.2758237" lon="14.0950415"><ele>165.0</ele><time>2026-05-01T14:31:44.542Z</time></trkpt><trkpt lat="42.2759374" lon="14.0949968"><ele>165.0</ele><time>2026-05-01T14:31:45.54Z</time></trkpt><trkpt lat="42.2760563" lon="14.0949388"><ele>165.0</ele><time>2026-05-01T14:31:46.538Z</time></trkpt><trkpt lat="42.2761749" lon="14.0948833"><ele>165.0</ele><time>2026-05-01T14:31:47.544Z</time></trkpt><trkpt lat="42.2762815" lon="14.0948176"><ele>162.25</ele><time>2026-05-01T14:31:48.545Z</time></trkpt><trkpt lat="42.2763848" lon="14.0947533"><ele>159.5</ele><time>2026-05-01T14:31:49.542Z</time></trkpt><trkpt lat="42.2764893" lon="14.0946917"><ele>156.75</ele><time>2026-05-01T14:31:50.547Z</time></trkpt><trkpt lat="42.2766019" lon="14.0946211"><ele>154.0</ele><time>2026-05-01T14:31:51.542Z</time></trkpt><trkpt lat="42.2767011" lon="14.094542"><ele>154.0</ele><time>2026-05-01T14:31:52.544Z</time></trkpt><trkpt lat="42.2767883" lon="14.094435"><ele>154.0</ele><time>2026-05-01T14:31:53.542Z</time></trkpt><trkpt lat="42.276855" lon="14.094302"><ele>154.0</ele><time>2026-05-01T14:31:54.541Z</time></trkpt><trkpt lat="42.27689" lon="14.094163"><ele>154.0</ele><time>2026-05-01T14:31:55.543Z</time></trkpt><trkpt lat="42.2769157" lon="14.0940276"><ele>154.0</ele><time>2026-05-01T14:31:56.531Z</time></trkpt><trkpt lat="42.2769374" lon="14.0938961"><ele>152.5</ele><time>2026-05-01T14:31:57.537Z</time></trkpt><trkpt lat="42.2769551" lon="14.0937757"><ele>151.0</ele><time>2026-05-01T14:31:58.546Z</time></trkpt><trkpt lat="42.2769714" lon="14.0936617"><ele>149.5</ele><time>2026-05-01T14:31:59.542Z</time></trkpt><trkpt lat="42.2769944" lon="14.0935634"><ele>148.0</ele><time>2026-05-01T14:32:00.541Z</time></trkpt><trkpt lat="42.2770149" lon="14.0934656"><ele>146.5</ele><time>2026-05-01T14:32:01.543Z</time></trkpt><trkpt lat="42.2770345" lon="14.0933498"><ele>145.0</ele><time>2026-05-01T14:32:02.546Z</time></trkpt><trkpt lat="42.2770496" lon="14.0932472"><ele>143.2</ele><time>2026-05-01T14:32:03.545Z</time></trkpt><trkpt lat="42.2770666" lon="14.0931396"><ele>141.4</ele><time>2026-05-01T14:32:04.535Z</time></trkpt><trkpt lat="42.2770933" lon="14.0930108"><ele>139.6</ele><time>2026-05-01T14:32:05.531Z</time></trkpt><trkpt lat="42.2771194" lon="14.0928758"><ele>137.8</ele><time>2026-05-01T14:32:06.558Z</time></trkpt><trkpt lat="42.2771396" lon="14.0927311"><ele>136.0</ele><time>2026-05-01T14:32:07.626Z</time></trkpt><trkpt lat="42.2771516" lon="14.0925866"><ele>136.0</ele><time>2026-05-01T14:32:08.64Z</time></trkpt><trkpt lat="42.2771567" lon="14.0924454"><ele>136.0</ele><time>2026-05-01T14:32:09.627Z</time></trkpt><trkpt lat="42.2771576" lon="14.0922985"><ele>136.0</ele><time>2026-05-01T14:32:10.631Z</time></trkpt><trkpt lat="42.2771627" lon="14.0921504"><ele>136.0</ele><time>2026-05-01T14:32:11.631Z</time></trkpt><trkpt lat="42.2771662" lon="14.0919883"><ele>136.0</ele><time>2026-05-01T14:32:12.629Z</time></trkpt><trkpt lat="42.2771697" lon="14.0918264"><ele>135.25</ele><time>2026-05-01T14:32:13.629Z</time></trkpt><trkpt lat="42.2771809" lon="14.0916758"><ele>134.5</ele><time>2026-05-01T14:32:14.629Z</time></trkpt><trkpt lat="42.2772018" lon="14.0915311"><ele>133.75</ele><time>2026-05-01T14:32:15.63Z</time></trkpt><trkpt lat="42.2772379" lon="14.0913731"><ele>133.0</ele><time>2026-05-01T14:32:16.622Z</time></trkpt><trkpt lat="42.2772858" lon="14.0912239"><ele>133.0</ele><time>2026-05-01T14:32:17.601Z</time></trkpt><trkpt lat="42.277355" lon="14.0910587"><ele>133.0</ele><time>2026-05-01T14:32:19.604Z</time></trkpt><trkpt lat="42.2774674" lon="14.0909982"><ele>133.0</ele><time>2026-05-01T14:32:21.548Z</time></trkpt><trkpt lat="42.2775632" lon="14.0910301"><ele>133.0</ele><time>2026-05-01T14:32:22.551Z</time></trkpt><trkpt lat="42.2776651" lon="14.091092"><ele>133.0</ele><time>2026-05-01T14:32:23.545Z</time></trkpt><trkpt lat="42.2777597" lon="14.0911571"><ele>133.0</ele><time>2026-05-01T14:32:24.545Z</time></trkpt><trkpt lat="42.2778425" lon="14.0912173"><ele>133.0</ele><time>2026-05-01T14:32:25.54Z</time></trkpt><trkpt lat="42.2779113" lon="14.0912489"><ele>133.0</ele><time>2026-05-01T14:32:26.535Z</time></trkpt><trkpt lat="42.278024" lon="14.0911958"><ele>133.0</ele><time>2026-05-01T14:32:28.542Z</time></trkpt><trkpt lat="42.2780522" lon="14.0911033"><ele>133.0</ele><time>2026-05-01T14:32:29.541Z</time></trkpt><trkpt lat="42.2780549" lon="14.0909805"><ele>133.0</ele><time>2026-05-01T14:32:30.533Z</time></trkpt><trkpt lat="42.2780378" lon="14.0908546"><ele>133.0</ele><time>2026-05-01T14:32:31.536Z</time></trkpt><trkpt lat="42.2780228" lon="14.0907435"><ele>133.0</ele><time>2026-05-01T14:32:32.529Z</time></trkpt><trkpt lat="42.2780083" lon="14.0906593"><ele>133.0</ele><time>2026-05-01T14:32:33.526Z</time></trkpt><trkpt lat="42.2780175" lon="14.0905661"><ele>133.0</ele><time>2026-05-01T14:32:35.529Z</time></trkpt><trkpt lat="42.2780798" lon="14.0906024"><ele>129.75</ele><time>2026-05-01T14:32:37.539Z</time></trkpt><trkpt lat="42.2781469" lon="14.0907323"><ele>126.5</ele><time>2026-05-01T14:32:39.568Z</time></trkpt><trkpt lat="42.2781887" lon="14.0908537"><ele>123.25</ele><time>2026-05-01T14:32:40.536Z</time></trkpt><trkpt lat="42.2782332" lon="14.0909899"><ele>120.0</ele><time>2026-05-01T14:32:41.538Z</time></trkpt><trkpt lat="42.2782949" lon="14.0911494"><ele>120.0</ele><time>2026-05-01T14:32:42.53Z</time></trkpt><trkpt lat="42.2783446" lon="14.0913298"><ele>120.0</ele><time>2026-05-01T14:32:43.529Z</time></trkpt><trkpt lat="42.2783904" lon="14.0915236"><ele>120.0</ele><time>2026-05-01T14:32:44.525Z</time></trkpt><trkpt lat="42.2784307" lon="14.0917419"><ele>121.33333333333334</ele><time>2026-05-01T14:32:45.531Z</time></trkpt><trkpt lat="42.2784696" lon="14.0919482"><ele>122.66666666666667</ele><time>2026-05-01T14:32:46.535Z</time></trkpt><trkpt lat="42.2784989" lon="14.0921461"><ele>124.0</ele><time>2026-05-01T14:32:47.537Z</time></trkpt><trkpt lat="42.2785305" lon="14.0923387"><ele>124.25</ele><time>2026-05-01T14:32:48.538Z</time></trkpt><trkpt lat="42.2785586" lon="14.0925209"><ele>124.5</ele><time>2026-05-01T14:32:49.536Z</time></trkpt><trkpt lat="42.2785755" lon="14.0926804"><ele>124.75</ele><time>2026-05-01T14:32:50.54Z</time></trkpt><trkpt lat="42.2786029" lon="14.0928289"><ele>125.0</ele><time>2026-05-01T14:32:51.535Z</time></trkpt><trkpt lat="42.2786563" lon="14.0929657"><ele>125.0</ele><time>2026-05-01T14:32:52.535Z</time></trkpt><trkpt lat="42.2787151" lon="14.0930754"><ele>125.0</ele><time>2026-05-01T14:32:53.532Z</time></trkpt><trkpt lat="42.2787947" lon="14.0931584"><ele>125.0</ele><time>2026-05-01T14:32:54.526Z</time></trkpt><trkpt lat="42.2788788" lon="14.0932102"><ele>125.0</ele><time>2026-05-01T14:32:55.534Z</time></trkpt><trkpt lat="42.2789835" lon="14.0932252"><ele>125.0</ele><time>2026-05-01T14:32:56.537Z</time></trkpt><trkpt lat="42.279091" lon="14.0931935"><ele>123.2</ele><time>2026-05-01T14:32:57.534Z</time></trkpt><trkpt lat="42.2792001" lon="14.0931475"><ele>121.4</ele><time>2026-05-01T14:32:58.535Z</time></trkpt><trkpt lat="42.2793055" lon="14.0931295"><ele>119.6</ele><time>2026-05-01T14:32:59.526Z</time></trkpt><trkpt lat="42.279407" lon="14.0931362"><ele>117.8</ele><time>2026-05-01T14:33:00.537Z</time></trkpt><trkpt lat="42.2795036" lon="14.0931898"><ele>116.0</ele><time>2026-05-01T14:33:01.537Z</time></trkpt><trkpt lat="42.2795806" lon="14.0932923"><ele>116.0</ele><time>2026-05-01T14:33:02.527Z</time></trkpt><trkpt lat="42.279648" lon="14.0934117"><ele>116.0</ele><time>2026-05-01T14:33:03.521Z</time></trkpt><trkpt lat="42.2797247" lon="14.0935233"><ele>116.0</ele><time>2026-05-01T14:33:04.52Z</time></trkpt><trkpt lat="42.2798072" lon="14.0936317"><ele>116.0</ele><time>2026-05-01T14:33:05.517Z</time></trkpt><trkpt lat="42.2798779" lon="14.0937276"><ele>116.0</ele><time>2026-05-01T14:33:06.517Z</time></trkpt><trkpt lat="42.2799373" lon="14.0938097"><ele>113.49999999999999</ele><time>2026-05-01T14:33:07.522Z</time></trkpt><trkpt lat="42.2799929" lon="14.0938557"><ele>111.0</ele><time>2026-05-01T14:33:08.521Z</time></trkpt><trkpt lat="42.2800412" lon="14.0939135"><ele>108.5</ele><time>2026-05-01T14:33:09.523Z</time></trkpt><trkpt lat="42.2800931" lon="14.093985"><ele>106.0</ele><time>2026-05-01T14:33:10.533Z</time></trkpt><trkpt lat="42.2801252" lon="14.0940799"><ele>103.49999999999999</ele><time>2026-05-01T14:33:11.52Z</time></trkpt><trkpt lat="42.2801431" lon="14.0941995"><ele>101.0</ele><time>2026-05-01T14:33:12.516Z</time></trkpt><trkpt lat="42.2801515" lon="14.0943207"><ele>100.8</ele><time>2026-05-01T14:33:13.52Z</time></trkpt><trkpt lat="42.2801457" lon="14.0944526"><ele>100.6</ele><time>2026-05-01T14:33:14.527Z</time></trkpt><trkpt lat="42.2801336" lon="14.0945977"><ele>100.4</ele><time>2026-05-01T14:33:15.524Z</time></trkpt><trkpt lat="42.2801413" lon="14.0947456"><ele>100.2</ele><time>2026-05-01T14:33:16.527Z</time></trkpt><trkpt lat="42.2801448" lon="14.0949002"><ele>100.0</ele><time>2026-05-01T14:33:17.526Z</time></trkpt><trkpt lat="42.2801552" lon="14.0950687"><ele>100.0</ele><time>2026-05-01T14:33:18.525Z</time></trkpt><trkpt lat="42.2801634" lon="14.0952526"><ele>100.0</ele><time>2026-05-01T14:33:19.522Z</time></trkpt><trkpt lat="42.280176" lon="14.0954492"><ele>100.0</ele><time>2026-05-01T14:33:20.534Z</time></trkpt><trkpt lat="42.2801987" lon="14.0956711"><ele>100.0</ele><time>2026-05-01T14:33:21.535Z</time></trkpt><trkpt lat="42.2802084" lon="14.0958691"><ele>100.0</ele><time>2026-05-01T14:33:22.536Z</time></trkpt><trkpt lat="42.28023" lon="14.0960569"><ele>100.0</ele><time>2026-05-01T14:33:23.537Z</time></trkpt><trkpt lat="42.280258" lon="14.0962398"><ele>100.0</ele><time>2026-05-01T14:33:24.531Z</time></trkpt><trkpt lat="42.2802777" lon="14.0964143"><ele>100.0</ele><time>2026-05-01T14:33:25.532Z</time></trkpt><trkpt lat="42.2803124" lon="14.0965901"><ele>100.75</ele><time>2026-05-01T14:33:26.532Z</time></trkpt><trkpt lat="42.2803598" lon="14.0967752"><ele>101.5</ele><time>2026-05-01T14:33:27.53Z</time></trkpt><trkpt lat="42.2804016" lon="14.0969527"><ele>102.25</ele><time>2026-05-01T14:33:28.532Z</time></trkpt><trkpt lat="42.2804421" lon="14.0971362"><ele>103.0</ele><time>2026-05-01T14:33:29.527Z</time></trkpt><trkpt lat="42.2804442" lon="14.0973214"><ele>103.0</ele><time>2026-05-01T14:33:30.523Z</time></trkpt><trkpt lat="42.2804381" lon="14.0975143"><ele>103.0</ele><time>2026-05-01T14:33:31.534Z</time></trkpt><trkpt lat="42.2804595" lon="14.0976722"><ele>103.0</ele><time>2026-05-01T14:33:32.539Z</time></trkpt><trkpt lat="42.2804907" lon="14.0978698"><ele>103.0</ele><time>2026-05-01T14:33:33.538Z</time></trkpt><trkpt lat="42.2805183" lon="14.0980459"><ele>103.0</ele><time>2026-05-01T14:33:34.537Z</time></trkpt><trkpt lat="42.2805644" lon="14.0982262"><ele>103.0</ele><time>2026-05-01T14:33:35.538Z</time></trkpt><trkpt lat="42.2806047" lon="14.0984246"><ele>103.0</ele><time>2026-05-01T14:33:36.541Z</time></trkpt><trkpt lat="42.2806537" lon="14.0986232"><ele>103.0</ele><time>2026-05-01T14:33:37.545Z</time></trkpt><trkpt lat="42.2807039" lon="14.0988168"><ele>104.75</ele><time>2026-05-01T14:33:38.542Z</time></trkpt><trkpt lat="42.2807354" lon="14.0989944"><ele>106.5</ele><time>2026-05-01T14:33:39.541Z</time></trkpt><trkpt lat="42.2807727" lon="14.0991737"><ele>108.25</ele><time>2026-05-01T14:33:40.547Z</time></trkpt><trkpt lat="42.2808128" lon="14.0993387"><ele>110.0</ele><time>2026-05-01T14:33:41.55Z</time></trkpt><trkpt lat="42.2808418" lon="14.0994623"><ele>111.16666666666666</ele><time>2026-05-01T14:33:42.535Z</time></trkpt><trkpt lat="42.2808682" lon="14.0995838"><ele>112.33333333333333</ele><time>2026-05-01T14:33:43.541Z</time></trkpt><trkpt lat="42.2808943" lon="14.0996999"><ele>113.5</ele><time>2026-05-01T14:33:44.55Z</time></trkpt><trkpt lat="42.280921" lon="14.0997867"><ele>114.66666666666666</ele><time>2026-05-01T14:33:45.541Z</time></trkpt><trkpt lat="42.280951" lon="14.0999259"><ele>115.83333333333333</ele><time>2026-05-01T14:33:47.546Z</time></trkpt><trkpt lat="42.280982" lon="14.1000319"><ele>117.0</ele><time>2026-05-01T14:33:49.548Z</time></trkpt><trkpt lat="42.281036" lon="14.1001"><ele>118.16666666666667</ele><time>2026-05-01T14:33:51.564Z</time></trkpt><trkpt lat="42.2810919" lon="14.1002057"><ele>119.33333333333334</ele><time>2026-05-01T14:33:53.551Z</time></trkpt><trkpt lat="42.2811199" lon="14.1002839"><ele>120.5</ele><time>2026-05-01T14:33:54.551Z</time></trkpt><trkpt lat="42.2811583" lon="14.1003558"><ele>121.66666666666667</ele><time>2026-05-01T14:33:55.539Z</time></trkpt><trkpt lat="42.2812315" lon="14.1004911"><ele>122.83333333333334</ele><time>2026-05-01T14:33:57.531Z</time></trkpt><trkpt lat="42.2812849" lon="14.1005991"><ele>124.0</ele><time>2026-05-01T14:33:59.528Z</time></trkpt><trkpt lat="42.2813252" lon="14.1006658"><ele>124.00000000000001</ele><time>2026-05-01T14:34:00.528Z</time></trkpt><trkpt lat="42.281372" lon="14.1007455"><ele>124.0</ele><time>2026-05-01T14:34:01.528Z</time></trkpt><trkpt lat="42.2814054" lon="14.1008379"><ele>124.0</ele><time>2026-05-01T14:34:02.527Z</time></trkpt><trkpt lat="42.2814498" lon="14.1009307"><ele>124.0</ele><time>2026-05-01T14:34:03.53Z</time></trkpt><trkpt lat="42.2814932" lon="14.1010265"><ele>124.00000000000001</ele><time>2026-05-01T14:34:04.526Z</time></trkpt><trkpt lat="42.2815416" lon="14.1011218"><ele>124.0</ele><time>2026-05-01T14:34:05.528Z</time></trkpt><trkpt lat="42.2815821" lon="14.1012273"><ele>124.0</ele><time>2026-05-01T14:34:06.536Z</time></trkpt><trkpt lat="42.2816321" lon="14.1013368"><ele>124.0</ele><time>2026-05-01T14:34:07.53Z</time></trkpt><trkpt lat="42.2816849" lon="14.1014472"><ele>124.0</ele><time>2026-05-01T14:34:08.615Z</time></trkpt><trkpt lat="42.2817347" lon="14.1015494"><ele>124.0</ele><time>2026-05-01T14:34:09.618Z</time></trkpt><trkpt lat="42.2817815" lon="14.1016493"><ele>124.0</ele><time>2026-05-01T14:34:10.619Z</time></trkpt><trkpt lat="42.2818268" lon="14.1017548"><ele>125.50000000000001</ele><time>2026-05-01T14:34:11.62Z</time></trkpt><trkpt lat="42.2818712" lon="14.1018557"><ele>127.0</ele><time>2026-05-01T14:34:12.629Z</time></trkpt><trkpt lat="42.281911" lon="14.1019464"><ele>128.5</ele><time>2026-05-01T14:34:13.615Z</time></trkpt><trkpt lat="42.2819486" lon="14.1020432"><ele>130.0</ele><time>2026-05-01T14:34:14.621Z</time></trkpt><trkpt lat="42.281993" lon="14.1021483"><ele>131.5</ele><time>2026-05-01T14:34:15.616Z</time></trkpt><trkpt lat="42.2820403" lon="14.1022617"><ele>133.0</ele><time>2026-05-01T14:34:16.62Z</time></trkpt><trkpt lat="42.2820888" lon="14.1023764"><ele>134.5</ele><time>2026-05-01T14:34:17.622Z</time></trkpt><trkpt lat="42.2821352" lon="14.1024823"><ele>136.0</ele><time>2026-05-01T14:34:18.619Z</time></trkpt><trkpt lat="42.2821864" lon="14.1025764"><ele>137.5</ele><time>2026-05-01T14:34:19.621Z</time></trkpt><trkpt lat="42.2822309" lon="14.1026606"><ele>139.0</ele><time>2026-05-01T14:34:20.621Z</time></trkpt><trkpt lat="42.2822748" lon="14.102745"><ele>140.5</ele><time>2026-05-01T14:34:21.616Z</time></trkpt><trkpt lat="42.2823075" lon="14.1028422"><ele>142.0</ele><time>2026-05-01T14:34:22.621Z</time></trkpt><trkpt lat="42.2823445" lon="14.1029473"><ele>139.4</ele><time>2026-05-01T14:34:23.618Z</time></trkpt><trkpt lat="42.2823862" lon="14.1030542"><ele>136.79999999999998</ele><time>2026-05-01T14:34:24.602Z</time></trkpt><trkpt lat="42.2824323" lon="14.1031633"><ele>134.2</ele><time>2026-05-01T14:34:25.606Z</time></trkpt><trkpt lat="42.2824801" lon="14.1032715"><ele>131.6</ele><time>2026-05-01T14:34:26.606Z</time></trkpt><trkpt lat="42.2825294" lon="14.1033924"><ele>129.0</ele><time>2026-05-01T14:34:27.601Z</time></trkpt><trkpt lat="42.2825772" lon="14.1035064"><ele>129.0</ele><time>2026-05-01T14:34:28.624Z</time></trkpt><trkpt lat="42.2826268" lon="14.1036195"><ele>129.0</ele><time>2026-05-01T14:34:29.621Z</time></trkpt><trkpt lat="42.2826747" lon="14.1037334"><ele>129.0</ele><time>2026-05-01T14:34:30.616Z</time></trkpt><trkpt lat="42.282719" lon="14.1038433"><ele>129.0</ele><time>2026-05-01T14:34:31.618Z</time></trkpt><trkpt lat="42.2827584" lon="14.1039501"><ele>129.0</ele><time>2026-05-01T14:34:32.623Z</time></trkpt><trkpt lat="42.2827891" lon="14.1040298"><ele>129.0</ele><time>2026-05-01T14:34:33.618Z</time></trkpt><trkpt lat="42.2828378" lon="14.1041666"><ele>130.4</ele><time>2026-05-01T14:34:35.609Z</time></trkpt><trkpt lat="42.2828854" lon="14.1043031"><ele>131.8</ele><time>2026-05-01T14:34:37.594Z</time></trkpt><trkpt lat="42.2829285" lon="14.1044431"><ele>133.2</ele><time>2026-05-01T14:34:39.592Z</time></trkpt><trkpt lat="42.2829843" lon="14.1046071"><ele>134.6</ele><time>2026-05-01T14:34:41.608Z</time></trkpt><trkpt lat="42.2830192" lon="14.1047031"><ele>136.0</ele><time>2026-05-01T14:34:42.618Z</time></trkpt><trkpt lat="42.2830534" lon="14.1047918"><ele>136.0</ele><time>2026-05-01T14:34:43.631Z</time></trkpt><trkpt lat="42.2830874" lon="14.1048667"><ele>136.0</ele><time>2026-05-01T14:34:44.597Z</time></trkpt><trkpt lat="42.2831229" lon="14.1049507"><ele>136.0</ele><time>2026-05-01T14:34:45.598Z</time></trkpt><trkpt lat="42.2831578" lon="14.1050458"><ele>136.0</ele><time>2026-05-01T14:34:46.597Z</time></trkpt><trkpt lat="42.2831991" lon="14.1051525"><ele>136.0</ele><time>2026-05-01T14:34:47.602Z</time></trkpt><trkpt lat="42.2832387" lon="14.1052596"><ele>136.0</ele><time>2026-05-01T14:34:48.617Z</time></trkpt><trkpt lat="42.283277" lon="14.1053689"><ele>134.66666666666669</ele><time>2026-05-01T14:34:49.617Z</time></trkpt><trkpt lat="42.2833125" lon="14.1054789"><ele>133.33333333333334</ele><time>2026-05-01T14:34:50.617Z</time></trkpt><trkpt lat="42.2833463" lon="14.1055828"><ele>132.0</ele><time>2026-05-01T14:34:51.619Z</time></trkpt><trkpt lat="42.2833822" lon="14.1056867"><ele>130.66666666666666</ele><time>2026-05-01T14:34:52.618Z</time></trkpt><trkpt lat="42.2834141" lon="14.105781"><ele>129.33333333333331</ele><time>2026-05-01T14:34:53.622Z</time></trkpt><trkpt lat="42.2834461" lon="14.1058763"><ele>128.0</ele><time>2026-05-01T14:34:54.615Z</time></trkpt><trkpt lat="42.2834753" lon="14.1059616"><ele>127.99999999999999</ele><time>2026-05-01T14:34:55.617Z</time></trkpt><trkpt lat="42.2835081" lon="14.106043"><ele>128.0</ele><time>2026-05-01T14:34:56.622Z</time></trkpt><trkpt lat="42.2835432" lon="14.1061232"><ele>128.0</ele><time>2026-05-01T14:34:57.614Z</time></trkpt><trkpt lat="42.2835795" lon="14.1062102"><ele>128.0</ele><time>2026-05-01T14:34:58.618Z</time></trkpt><trkpt lat="42.2836109" lon="14.1063047"><ele>127.99999999999999</ele><time>2026-05-01T14:34:59.62Z</time></trkpt><trkpt lat="42.2836416" lon="14.1064049"><ele>128.0</ele><time>2026-05-01T14:35:00.623Z</time></trkpt><trkpt lat="42.2836743" lon="14.1065083"><ele>129.33333333333331</ele><time>2026-05-01T14:35:01.617Z</time></trkpt><trkpt lat="42.2837097" lon="14.1066112"><ele>130.66666666666666</ele><time>2026-05-01T14:35:02.619Z</time></trkpt><trkpt lat="42.2837463" lon="14.1067203"><ele>132.0</ele><time>2026-05-01T14:35:03.618Z</time></trkpt><trkpt lat="42.2837808" lon="14.1068297"><ele>133.33333333333334</ele><time>2026-05-01T14:35:04.596Z</time></trkpt><trkpt lat="42.2838138" lon="14.1069265"><ele>134.66666666666669</ele><time>2026-05-01T14:35:05.595Z</time></trkpt><trkpt lat="42.2838472" lon="14.1070261"><ele>136.0</ele><time>2026-05-01T14:35:06.599Z</time></trkpt><trkpt lat="42.2838829" lon="14.1071306"><ele>136.0</ele><time>2026-05-01T14:35:07.597Z</time></trkpt><trkpt lat="42.2839197" lon="14.1072457"><ele>136.0</ele><time>2026-05-01T14:35:08.613Z</time></trkpt><trkpt lat="42.2839531" lon="14.1073504"><ele>136.0</ele><time>2026-05-01T14:35:09.617Z</time></trkpt><trkpt lat="42.2839823" lon="14.1074407"><ele>136.0</ele><time>2026-05-01T14:35:10.618Z</time></trkpt><trkpt lat="42.2840115" lon="14.10753"><ele>136.0</ele><time>2026-05-01T14:35:11.619Z</time></trkpt><trkpt lat="42.2840413" lon="14.1076167"><ele>136.0</ele><time>2026-05-01T14:35:12.62Z</time></trkpt><trkpt lat="42.284066" lon="14.1076971"><ele>135.42857142857142</ele><time>2026-05-01T14:35:13.618Z</time></trkpt><trkpt lat="42.2840931" lon="14.1077922"><ele>134.85714285714286</ele><time>2026-05-01T14:35:14.631Z</time></trkpt><trkpt lat="42.2841204" lon="14.1078833"><ele>134.28571428571428</ele><time>2026-05-01T14:35:15.618Z</time></trkpt><trkpt lat="42.2841492" lon="14.1079705"><ele>133.71428571428572</ele><time>2026-05-01T14:35:16.622Z</time></trkpt><trkpt lat="42.2841798" lon="14.108059"><ele>133.14285714285714</ele><time>2026-05-01T14:35:17.622Z</time></trkpt><trkpt lat="42.2842116" lon="14.1081519"><ele>132.57142857142856</ele><time>2026-05-01T14:35:18.598Z</time></trkpt><trkpt lat="42.2842406" lon="14.1082433"><ele>132.0</ele><time>2026-05-01T14:35:19.597Z</time></trkpt><trkpt lat="42.2842673" lon="14.1083231"><ele>132.0</ele><time>2026-05-01T14:35:20.599Z</time></trkpt><trkpt lat="42.2843006" lon="14.1084219"><ele>132.0</ele><time>2026-05-01T14:35:22.61Z</time></trkpt><trkpt lat="42.2843253" lon="14.1085071"><ele>132.0</ele><time>2026-05-01T14:35:26.627Z</time></trkpt><trkpt lat="42.2843691" lon="14.1086288"><ele>132.0</ele><time>2026-05-01T14:35:29.622Z</time></trkpt><trkpt lat="42.2844099" lon="14.1087586"><ele>132.0</ele><time>2026-05-01T14:35:31.629Z</time></trkpt><trkpt lat="42.2844426" lon="14.108857"><ele>132.0</ele><time>2026-05-01T14:35:32.62Z</time></trkpt><trkpt lat="42.2844919" lon="14.1089853"><ele>133.0</ele><time>2026-05-01T14:35:34.621Z</time></trkpt><trkpt lat="42.2845245" lon="14.1090893"><ele>134.0</ele><time>2026-05-01T14:35:36.62Z</time></trkpt><trkpt lat="42.2845652" lon="14.1091973"><ele>135.0</ele><time>2026-05-01T14:35:38.618Z</time></trkpt><trkpt lat="42.284621" lon="14.1093598"><ele>136.0</ele><time>2026-05-01T14:35:40.62Z</time></trkpt><trkpt lat="42.2846507" lon="14.1094519"><ele>137.0</ele><time>2026-05-01T14:35:41.616Z</time></trkpt><trkpt lat="42.2846833" lon="14.1095488"><ele>137.0</ele><time>2026-05-01T14:35:42.621Z</time></trkpt><trkpt lat="42.284722" lon="14.1096384"><ele>137.0</ele><time>2026-05-01T14:35:43.6Z</time></trkpt><trkpt lat="42.2847626" lon="14.1097333"><ele>137.0</ele><time>2026-05-01T14:35:44.602Z</time></trkpt><trkpt lat="42.2848069" lon="14.1098342"><ele>137.0</ele><time>2026-05-01T14:35:45.607Z</time></trkpt><trkpt lat="42.2848518" lon="14.1099427"><ele>137.0</ele><time>2026-05-01T14:35:46.595Z</time></trkpt><trkpt lat="42.2848957" lon="14.1100578"><ele>137.0</ele><time>2026-05-01T14:35:47.617Z</time></trkpt><trkpt lat="42.2849373" lon="14.1101797"><ele>136.66666666666666</ele><time>2026-05-01T14:35:48.618Z</time></trkpt><trkpt lat="42.2849734" lon="14.110298"><ele>136.33333333333331</ele><time>2026-05-01T14:35:49.614Z</time></trkpt><trkpt lat="42.2850086" lon="14.1104079"><ele>136.0</ele><time>2026-05-01T14:35:50.622Z</time></trkpt><trkpt lat="42.2850384" lon="14.1105101"><ele>135.66666666666666</ele><time>2026-05-01T14:35:51.62Z</time></trkpt><trkpt lat="42.2850677" lon="14.1106236"><ele>135.33333333333334</ele><time>2026-05-01T14:35:52.613Z</time></trkpt><trkpt lat="42.2850971" lon="14.1107353"><ele>135.0</ele><time>2026-05-01T14:35:53.618Z</time></trkpt><trkpt lat="42.2851235" lon="14.110828"><ele>135.0</ele><time>2026-05-01T14:35:54.617Z</time></trkpt><trkpt lat="42.2851475" lon="14.1109289"><ele>135.0</ele><time>2026-05-01T14:35:55.616Z</time></trkpt><trkpt lat="42.2851697" lon="14.1110278"><ele>135.0</ele><time>2026-05-01T14:35:56.618Z</time></trkpt><trkpt lat="42.2851927" lon="14.1111244"><ele>135.0</ele><time>2026-05-01T14:35:57.617Z</time></trkpt><trkpt lat="42.2852145" lon="14.111213"><ele>135.0</ele><time>2026-05-01T14:35:58.622Z</time></trkpt><trkpt lat="42.2852349" lon="14.1112952"><ele>135.0</ele><time>2026-05-01T14:35:59.619Z</time></trkpt><trkpt lat="42.2852699" lon="14.1114385"><ele>135.66666666666666</ele><time>2026-05-01T14:36:01.621Z</time></trkpt><trkpt lat="42.2853055" lon="14.1115774"><ele>136.33333333333334</ele><time>2026-05-01T14:36:03.613Z</time></trkpt><trkpt lat="42.2853394" lon="14.111681"><ele>137.0</ele><time>2026-05-01T14:36:05.607Z</time></trkpt><trkpt lat="42.2853665" lon="14.1117592"><ele>137.66666666666669</ele><time>2026-05-01T14:36:07.626Z</time></trkpt><trkpt lat="42.2853683" lon="14.1118529"><ele>138.33333333333334</ele><time>2026-05-01T14:36:09.624Z</time></trkpt><trkpt lat="42.2854069" lon="14.1119632"><ele>139.0</ele><time>2026-05-01T14:36:11.622Z</time></trkpt><trkpt lat="42.2854693" lon="14.1120795"><ele>139.0</ele><time>2026-05-01T14:36:13.602Z</time></trkpt><trkpt lat="42.2855119" lon="14.1121431"><ele>139.0</ele><time>2026-05-01T14:36:14.609Z</time></trkpt><trkpt lat="42.2855621" lon="14.1122123"><ele>139.0</ele><time>2026-05-01T14:36:15.599Z</time></trkpt><trkpt lat="42.2856199" lon="14.1123258"><ele>139.0</ele><time>2026-05-01T14:36:16.632Z</time></trkpt><trkpt lat="42.2856733" lon="14.1124107"><ele>139.0</ele><time>2026-05-01T14:36:17.606Z</time></trkpt><trkpt lat="42.2857199" lon="14.1124874"><ele>139.0</ele><time>2026-05-01T14:36:18.607Z</time></trkpt><trkpt lat="42.2857742" lon="14.1125689"><ele>137.2</ele><time>2026-05-01T14:36:19.604Z</time></trkpt><trkpt lat="42.2858323" lon="14.1126535"><ele>135.4</ele><time>2026-05-01T14:36:20.606Z</time></trkpt><trkpt lat="42.2858931" lon="14.1127424"><ele>133.6</ele><time>2026-05-01T14:36:21.607Z</time></trkpt><trkpt lat="42.2859555" lon="14.1128363"><ele>131.8</ele><time>2026-05-01T14:36:22.605Z</time></trkpt><trkpt lat="42.2860161" lon="14.1129333"><ele>130.0</ele><time>2026-05-01T14:36:23.608Z</time></trkpt><trkpt lat="42.2860776" lon="14.1130384"><ele>130.0</ele><time>2026-05-01T14:36:24.605Z</time></trkpt><trkpt lat="42.2861223" lon="14.1131354"><ele>130.0</ele><time>2026-05-01T14:36:25.606Z</time></trkpt><trkpt lat="42.286156" lon="14.1132169"><ele>130.0</ele><time>2026-05-01T14:36:26.611Z</time></trkpt><trkpt lat="42.2861844" lon="14.113306"><ele>130.0</ele><time>2026-05-01T14:36:27.616Z</time></trkpt><trkpt lat="42.2862109" lon="14.1134028"><ele>130.0</ele><time>2026-05-01T14:36:28.618Z</time></trkpt><trkpt lat="42.2862231" lon="14.1135038"><ele>130.0</ele><time>2026-05-01T14:36:29.619Z</time></trkpt><trkpt lat="42.286233" lon="14.1136087"><ele>131.5</ele><time>2026-05-01T14:36:30.614Z</time></trkpt><trkpt lat="42.2862442" lon="14.113717"><ele>133.0</ele><time>2026-05-01T14:36:31.616Z</time></trkpt><trkpt lat="42.2862536" lon="14.1138073"><ele>134.5</ele><time>2026-05-01T14:36:32.612Z</time></trkpt><trkpt lat="42.2862675" lon="14.1139529"><ele>136.0</ele><time>2026-05-01T14:36:34.604Z</time></trkpt><trkpt lat="42.2862754" lon="14.1140599"><ele>137.5</ele><time>2026-05-01T14:36:36.616Z</time></trkpt><trkpt lat="42.2862849" lon="14.1142049"><ele>139.0</ele><time>2026-05-01T14:36:38.614Z</time></trkpt><trkpt lat="42.2862996" lon="14.114359"><ele>139.83333333333334</ele><time>2026-05-01T14:36:40.602Z</time></trkpt><trkpt lat="42.2863143" lon="14.1145288"><ele>140.66666666666669</ele><time>2026-05-01T14:36:42.591Z</time></trkpt><trkpt lat="42.2863241" lon="14.1146419"><ele>141.5</ele><time>2026-05-01T14:36:43.589Z</time></trkpt><trkpt lat="42.2863313" lon="14.1147451"><ele>142.33333333333334</ele><time>2026-05-01T14:36:44.589Z</time></trkpt><trkpt lat="42.2863373" lon="14.1148341"><ele>143.16666666666666</ele><time>2026-05-01T14:36:45.594Z</time></trkpt><trkpt lat="42.2863469" lon="14.1149201"><ele>144.0</ele><time>2026-05-01T14:36:46.607Z</time></trkpt><trkpt lat="42.286367" lon="14.1150119"><ele>145.00000000000003</ele><time>2026-05-01T14:36:47.618Z</time></trkpt><trkpt lat="42.2863873" lon="14.1151066"><ele>146.0</ele><time>2026-05-01T14:36:48.608Z</time></trkpt><trkpt lat="42.286405" lon="14.1151996"><ele>147.0</ele><time>2026-05-01T14:36:49.593Z</time></trkpt><trkpt lat="42.2864282" lon="14.1152948"><ele>148.0</ele><time>2026-05-01T14:36:50.592Z</time></trkpt><trkpt lat="42.2864508" lon="14.115384"><ele>149.0</ele><time>2026-05-01T14:36:51.595Z</time></trkpt><trkpt lat="42.2864714" lon="14.1154691"><ele>150.00000000000003</ele><time>2026-05-01T14:36:52.595Z</time></trkpt><trkpt lat="42.2864939" lon="14.1155491"><ele>151.0</ele><time>2026-05-01T14:36:53.617Z</time></trkpt><trkpt lat="42.2865204" lon="14.1156283"><ele>151.4</ele><time>2026-05-01T14:36:54.615Z</time></trkpt><trkpt lat="42.2865267" lon="14.1157402"><ele>151.8</ele><time>2026-05-01T14:36:56.61Z</time></trkpt><trkpt lat="42.2865043" lon="14.1158787"><ele>152.20000000000002</ele><time>2026-05-01T14:37:05.624Z</time></trkpt><trkpt lat="42.2864844" lon="14.1159965"><ele>152.6</ele><time>2026-05-01T14:37:07.623Z</time></trkpt><trkpt lat="42.2864287" lon="14.116137"><ele>153.0</ele><time>2026-05-01T14:37:09.605Z</time></trkpt><trkpt lat="42.28635" lon="14.1162859"><ele>153.0</ele><time>2026-05-01T14:37:11.607Z</time></trkpt><trkpt lat="42.2863095" lon="14.116354"><ele>153.0</ele><time>2026-05-01T14:37:12.605Z</time></trkpt><trkpt lat="42.2862577" lon="14.1164443"><ele>153.0</ele><time>2026-05-01T14:37:13.623Z</time></trkpt><trkpt lat="42.2862012" lon="14.1165968"><ele>153.0</ele><time>2026-05-01T14:37:15.616Z</time></trkpt><trkpt lat="42.286179" lon="14.1166765"><ele>153.0</ele><time>2026-05-01T14:37:16.592Z</time></trkpt><trkpt lat="42.2861511" lon="14.1168453"><ele>152.66666666666666</ele><time>2026-05-01T14:37:18.604Z</time></trkpt><trkpt lat="42.2861265" lon="14.1169551"><ele>152.33333333333334</ele><time>2026-05-01T14:37:19.508Z</time></trkpt><trkpt lat="42.2861285" lon="14.1170513"><ele>152.0</ele><time>2026-05-01T14:37:20.524Z</time></trkpt><trkpt lat="42.2861191" lon="14.1171561"><ele>151.66666666666669</ele><time>2026-05-01T14:37:21.526Z</time></trkpt><trkpt lat="42.2861091" lon="14.1172599"><ele>151.33333333333334</ele><time>2026-05-01T14:37:22.524Z</time></trkpt><trkpt lat="42.2861041" lon="14.1173672"><ele>151.0</ele><time>2026-05-01T14:37:23.523Z</time></trkpt><trkpt lat="42.2861028" lon="14.117479"><ele>151.0</ele><time>2026-05-01T14:37:24.524Z</time></trkpt><trkpt lat="42.2860997" lon="14.1176092"><ele>151.0</ele><time>2026-05-01T14:37:25.525Z</time></trkpt><trkpt lat="42.2860903" lon="14.1177322"><ele>151.0</ele><time>2026-05-01T14:37:26.528Z</time></trkpt><trkpt lat="42.2860828" lon="14.11784"><ele>151.0</ele><time>2026-05-01T14:37:27.52Z</time></trkpt><trkpt lat="42.2860614" lon="14.1179453"><ele>151.0</ele><time>2026-05-01T14:37:28.527Z</time></trkpt><trkpt lat="42.286035" lon="14.1180409"><ele>151.0</ele><time>2026-05-01T14:37:29.526Z</time></trkpt><trkpt lat="42.2860013" lon="14.1181376"><ele>151.66666666666669</ele><time>2026-05-01T14:37:30.524Z</time></trkpt><trkpt lat="42.285966" lon="14.1182355"><ele>152.33333333333334</ele><time>2026-05-01T14:37:31.529Z</time></trkpt><trkpt lat="42.2859366" lon="14.118338"><ele>153.0</ele><time>2026-05-01T14:37:32.523Z</time></trkpt><trkpt lat="42.285908" lon="14.1184439"><ele>153.66666666666666</ele><time>2026-05-01T14:37:33.522Z</time></trkpt><trkpt lat="42.2858872" lon="14.1185387"><ele>154.33333333333331</ele><time>2026-05-01T14:37:34.524Z</time></trkpt><trkpt lat="42.2858606" lon="14.1186283"><ele>155.0</ele><time>2026-05-01T14:37:35.518Z</time></trkpt><trkpt lat="42.2858371" lon="14.1187753"><ele>155.0</ele><time>2026-05-01T14:37:37.52Z</time></trkpt><trkpt lat="42.2858322" lon="14.1188627"><ele>155.0</ele><time>2026-05-01T14:37:38.518Z</time></trkpt><trkpt lat="42.2858313" lon="14.1189505"><ele>155.0</ele><time>2026-05-01T14:37:39.52Z</time></trkpt><trkpt lat="42.2858234" lon="14.1190405"><ele>155.0</ele><time>2026-05-01T14:37:40.518Z</time></trkpt><trkpt lat="42.2857832" lon="14.1191984"><ele>155.0</ele><time>2026-05-01T14:37:42.519Z</time></trkpt><trkpt lat="42.2857463" lon="14.1192709"><ele>155.0</ele><time>2026-05-01T14:37:43.521Z</time></trkpt><trkpt lat="42.2856992" lon="14.1193423"><ele>155.83333333333331</ele><time>2026-05-01T14:37:44.522Z</time></trkpt><trkpt lat="42.2856537" lon="14.1194033"><ele>156.66666666666666</ele><time>2026-05-01T14:37:45.52Z</time></trkpt><trkpt lat="42.2855485" lon="14.1195024"><ele>157.5</ele><time>2026-05-01T14:37:47.525Z</time></trkpt><trkpt lat="42.2854896" lon="14.1195601"><ele>158.33333333333334</ele><time>2026-05-01T14:37:48.522Z</time></trkpt><trkpt lat="42.2854264" lon="14.1196211"><ele>159.16666666666669</ele><time>2026-05-01T14:37:49.533Z</time></trkpt><trkpt lat="42.2853703" lon="14.119667"><ele>160.0</ele><time>2026-05-01T14:37:50.523Z</time></trkpt><trkpt lat="42.2852601" lon="14.1197613"><ele>162.0</ele><time>2026-05-01T14:37:52.52Z</time></trkpt><trkpt lat="42.285204" lon="14.1198061"><ele>164.0</ele><time>2026-05-01T14:37:53.524Z</time></trkpt><trkpt lat="42.2851502" lon="14.1198507"><ele>166.0</ele><time>2026-05-01T14:37:54.517Z</time></trkpt><trkpt lat="42.285037" lon="14.1199246"><ele>168.0</ele><time>2026-05-01T14:37:56.523Z</time></trkpt><trkpt lat="42.284973" lon="14.1199729"><ele>170.0</ele><time>2026-05-01T14:37:57.522Z</time></trkpt><trkpt lat="42.2849022" lon="14.1200342"><ele>172.0</ele><time>2026-05-01T14:37:58.528Z</time></trkpt><trkpt lat="42.2848392" lon="14.1200877"><ele>175.39999999999998</ele><time>2026-05-01T14:37:59.523Z</time></trkpt><trkpt lat="42.2847348" lon="14.1201823"><ele>178.79999999999998</ele><time>2026-05-01T14:38:01.526Z</time></trkpt><trkpt lat="42.2846526" lon="14.120268"><ele>182.2</ele><time>2026-05-01T14:38:03.515Z</time></trkpt><trkpt lat="42.2845874" lon="14.120353"><ele>185.6</ele><time>2026-05-01T14:38:05.518Z</time></trkpt><trkpt lat="42.2845157" lon="14.1204819"><ele>189.0</ele><time>2026-05-01T14:38:07.521Z</time></trkpt><trkpt lat="42.2844899" lon="14.120572"><ele>189.0</ele><time>2026-05-01T14:38:08.52Z</time></trkpt><trkpt lat="42.2844765" lon="14.1206688"><ele>189.0</ele><time>2026-05-01T14:38:09.522Z</time></trkpt><trkpt lat="42.2844632" lon="14.1207585"><ele>189.0</ele><time>2026-05-01T14:38:10.523Z</time></trkpt><trkpt lat="42.2844489" lon="14.1208485"><ele>189.0</ele><time>2026-05-01T14:38:11.521Z</time></trkpt><trkpt lat="42.2844134" lon="14.1209825"><ele>189.0</ele><time>2026-05-01T14:38:13.522Z</time></trkpt><trkpt lat="42.2843952" lon="14.1211581"><ele>189.0</ele><time>2026-05-01T14:38:15.521Z</time></trkpt><trkpt lat="42.2843884" lon="14.1212701"><ele>189.0</ele><time>2026-05-01T14:38:16.523Z</time></trkpt><trkpt lat="42.2843776" lon="14.1213932"><ele>189.0</ele><time>2026-05-01T14:38:17.52Z</time></trkpt><trkpt lat="42.2843683" lon="14.1215067"><ele>189.0</ele><time>2026-05-01T14:38:18.527Z</time></trkpt><trkpt lat="42.2843632" lon="14.1216133"><ele>189.0</ele><time>2026-05-01T14:38:19.518Z</time></trkpt><trkpt lat="42.2843462" lon="14.1217144"><ele>189.0</ele><time>2026-05-01T14:38:20.539Z</time></trkpt><trkpt lat="42.2843255" lon="14.1218191"><ele>189.0</ele><time>2026-05-01T14:38:21.524Z</time></trkpt><trkpt lat="42.2842967" lon="14.1219251"><ele>189.0</ele><time>2026-05-01T14:38:22.529Z</time></trkpt><trkpt lat="42.2842745" lon="14.1220091"><ele>189.0</ele><time>2026-05-01T14:38:23.521Z</time></trkpt><trkpt lat="42.2841881" lon="14.1221238"><ele>189.0</ele><time>2026-05-01T14:38:25.512Z</time></trkpt><trkpt lat="42.2840706" lon="14.1221794"><ele>189.0</ele><time>2026-05-01T14:38:27.514Z</time></trkpt><trkpt lat="42.2839968" lon="14.122189"><ele>189.0</ele><time>2026-05-01T14:38:28.518Z</time></trkpt><trkpt lat="42.2839119" lon="14.1221718"><ele>193.33333333333334</ele><time>2026-05-01T14:38:29.51Z</time></trkpt><trkpt lat="42.2838477" lon="14.1221168"><ele>197.66666666666669</ele><time>2026-05-01T14:38:30.512Z</time></trkpt><trkpt lat="42.2838032" lon="14.1220562"><ele>202.0</ele><time>2026-05-01T14:38:31.518Z</time></trkpt><trkpt lat="42.2837576" lon="14.1219867"><ele>206.33333333333334</ele><time>2026-05-01T14:38:32.53Z</time></trkpt><trkpt lat="42.2837163" lon="14.1218922"><ele>210.66666666666669</ele><time>2026-05-01T14:38:34.522Z</time></trkpt><trkpt lat="42.2836708" lon="14.1217974"><ele>215.0</ele><time>2026-05-01T14:38:36.533Z</time></trkpt><trkpt lat="42.2835998" lon="14.1216721"><ele>215.0</ele><time>2026-05-01T14:38:38.527Z</time></trkpt><trkpt lat="42.283556" lon="14.1216045"><ele>215.0</ele><time>2026-05-01T14:38:39.518Z</time></trkpt><trkpt lat="42.2834928" lon="14.1215004"><ele>215.0</ele><time>2026-05-01T14:38:41.526Z</time></trkpt><trkpt lat="42.283435" lon="14.1213861"><ele>215.0</ele><time>2026-05-01T14:38:43.527Z</time></trkpt><trkpt lat="42.2833733" lon="14.1212555"><ele>215.0</ele><time>2026-05-01T14:38:45.53Z</time></trkpt><trkpt lat="42.2833165" lon="14.1211571"><ele>215.0</ele><time>2026-05-01T14:38:47.535Z</time></trkpt><trkpt lat="42.2832573" lon="14.1210227"><ele>215.0</ele><time>2026-05-01T14:38:49.539Z</time></trkpt><trkpt lat="42.283215" lon="14.1208921"><ele>215.0</ele><time>2026-05-01T14:38:51.546Z</time></trkpt><trkpt lat="42.2831751" lon="14.1207539"><ele>215.0</ele><time>2026-05-01T14:38:53.532Z</time></trkpt><trkpt lat="42.2831482" lon="14.1206546"><ele>215.0</ele><time>2026-05-01T14:38:54.53Z</time></trkpt><trkpt lat="42.2831171" lon="14.1205492"><ele>218.0</ele><time>2026-05-01T14:38:55.531Z</time></trkpt><trkpt lat="42.2830847" lon="14.1204301"><ele>221.0</ele><time>2026-05-01T14:38:56.531Z</time></trkpt><trkpt lat="42.2830453" lon="14.1202931"><ele>224.0</ele><time>2026-05-01T14:38:57.533Z</time></trkpt><trkpt lat="42.2830132" lon="14.1201463"><ele>227.0</ele><time>2026-05-01T14:38:58.537Z</time></trkpt><trkpt lat="42.2829661" lon="14.1199955"><ele>230.0</ele><time>2026-05-01T14:38:59.535Z</time></trkpt><trkpt lat="42.2829225" lon="14.1198663"><ele>230.00000000000003</ele><time>2026-05-01T14:39:00.533Z</time></trkpt><trkpt lat="42.2828852" lon="14.1197581"><ele>230.0</ele><time>2026-05-01T14:39:01.536Z</time></trkpt><trkpt lat="42.2828626" lon="14.1196627"><ele>230.0</ele><time>2026-05-01T14:39:02.534Z</time></trkpt><trkpt lat="42.2828337" lon="14.1195682"><ele>230.0</ele><time>2026-05-01T14:39:03.534Z</time></trkpt><trkpt lat="42.2828091" lon="14.1194859"><ele>230.00000000000003</ele><time>2026-05-01T14:39:04.539Z</time></trkpt><trkpt lat="42.2827845" lon="14.1193842"><ele>230.0</ele><time>2026-05-01T14:39:05.536Z</time></trkpt><trkpt lat="42.2827603" lon="14.1192856"><ele>230.00000000000003</ele><time>2026-05-01T14:39:06.537Z</time></trkpt><trkpt lat="42.2827331" lon="14.1191873"><ele>230.0</ele><time>2026-05-01T14:39:07.536Z</time></trkpt><trkpt lat="42.282703" lon="14.1190832"><ele>230.0</ele><time>2026-05-01T14:39:08.533Z</time></trkpt><trkpt lat="42.2826639" lon="14.1189825"><ele>230.0</ele><time>2026-05-01T14:39:09.534Z</time></trkpt><trkpt lat="42.2826356" lon="14.1188931"><ele>230.00000000000003</ele><time>2026-05-01T14:39:10.531Z</time></trkpt><trkpt lat="42.2826061" lon="14.1188007"><ele>230.0</ele><time>2026-05-01T14:39:12.531Z</time></trkpt><trkpt lat="42.2825801" lon="14.1187217"><ele>229.2</ele><time>2026-05-01T14:39:14.545Z</time></trkpt><trkpt lat="42.2825534" lon="14.1186271"><ele>228.4</ele><time>2026-05-01T14:39:21.546Z</time></trkpt><trkpt lat="42.2825059" lon="14.118465"><ele>227.60000000000002</ele><time>2026-05-01T14:39:23.543Z</time></trkpt><trkpt lat="42.282472" lon="14.1183506"><ele>226.8</ele><time>2026-05-01T14:39:24.545Z</time></trkpt><trkpt lat="42.2824348" lon="14.1182303"><ele>226.0</ele><time>2026-05-01T14:39:25.546Z</time></trkpt><trkpt lat="42.2823869" lon="14.1181089"><ele>225.4</ele><time>2026-05-01T14:39:26.552Z</time></trkpt><trkpt lat="42.2823416" lon="14.1179957"><ele>224.8</ele><time>2026-05-01T14:39:27.616Z</time></trkpt><trkpt lat="42.2822937" lon="14.1178886"><ele>224.20000000000002</ele><time>2026-05-01T14:39:28.625Z</time></trkpt><trkpt lat="42.2822458" lon="14.1177963"><ele>223.60000000000002</ele><time>2026-05-01T14:39:29.614Z</time></trkpt><trkpt lat="42.2822043" lon="14.1177212"><ele>223.0</ele><time>2026-05-01T14:39:30.597Z</time></trkpt><trkpt lat="42.2821218" lon="14.1176245"><ele>223.0</ele><time>2026-05-01T14:39:32.596Z</time></trkpt><trkpt lat="42.2820512" lon="14.1175853"><ele>223.0</ele><time>2026-05-01T14:39:35.61Z</time></trkpt><trkpt lat="42.2819908" lon="14.1176933"><ele>223.0</ele><time>2026-05-01T14:39:39.523Z</time></trkpt><trkpt lat="42.2820065" lon="14.117834"><ele>223.0</ele><time>2026-05-01T14:39:40.531Z</time></trkpt><trkpt lat="42.282006" lon="14.1179848"><ele>223.0</ele><time>2026-05-01T14:39:41.532Z</time></trkpt><trkpt lat="42.2820032" lon="14.1181311"><ele>224.25</ele><time>2026-05-01T14:39:42.532Z</time></trkpt><trkpt lat="42.2819895" lon="14.1182894"><ele>225.5</ele><time>2026-05-01T14:39:43.529Z</time></trkpt><trkpt lat="42.2819833" lon="14.1184623"><ele>226.75</ele><time>2026-05-01T14:39:44.527Z</time></trkpt><trkpt lat="42.2819721" lon="14.1186409"><ele>228.0</ele><time>2026-05-01T14:39:45.532Z</time></trkpt><trkpt lat="42.2819522" lon="14.1188322"><ele>228.0</ele><time>2026-05-01T14:39:46.535Z</time></trkpt><trkpt lat="42.2819321" lon="14.1190269"><ele>228.0</ele><time>2026-05-01T14:39:47.535Z</time></trkpt><trkpt lat="42.281903" lon="14.1192271"><ele>228.0</ele><time>2026-05-01T14:39:48.536Z</time></trkpt><trkpt lat="42.2818859" lon="14.1194335"><ele>230.66666666666669</ele><time>2026-05-01T14:39:49.532Z</time></trkpt><trkpt lat="42.2818845" lon="14.119641"><ele>233.33333333333334</ele><time>2026-05-01T14:39:50.537Z</time></trkpt><trkpt lat="42.2819037" lon="14.1198437"><ele>236.0</ele><time>2026-05-01T14:39:51.527Z</time></trkpt><trkpt lat="42.2819352" lon="14.1200451"><ele>237.5</ele><time>2026-05-01T14:39:52.527Z</time></trkpt><trkpt lat="42.2819802" lon="14.1202301"><ele>239.0</ele><time>2026-05-01T14:39:53.562Z</time></trkpt><trkpt lat="42.2820349" lon="14.1204008"><ele>240.5</ele><time>2026-05-01T14:39:54.53Z</time></trkpt><trkpt lat="42.2820728" lon="14.1205617"><ele>242.0</ele><time>2026-05-01T14:39:55.531Z</time></trkpt><trkpt lat="42.2820923" lon="14.1207238"><ele>243.5</ele><time>2026-05-01T14:39:56.528Z</time></trkpt><trkpt lat="42.2821052" lon="14.1208918"><ele>245.0</ele><time>2026-05-01T14:39:57.526Z</time></trkpt><trkpt lat="42.282101" lon="14.1210734"><ele>246.5</ele><time>2026-05-01T14:39:58.53Z</time></trkpt><trkpt lat="42.2820863" lon="14.1212565"><ele>248.0</ele><time>2026-05-01T14:39:59.526Z</time></trkpt><trkpt lat="42.2820566" lon="14.121428"><ele>249.0</ele><time>2026-05-01T14:40:00.519Z</time></trkpt><trkpt lat="42.282017" lon="14.1216015"><ele>250.0</ele><time>2026-05-01T14:40:01.529Z</time></trkpt><trkpt lat="42.2819832" lon="14.1217685"><ele>251.0</ele><time>2026-05-01T14:40:02.53Z</time></trkpt><trkpt lat="42.281973" lon="14.1219375"><ele>252.0</ele><time>2026-05-01T14:40:03.52Z</time></trkpt><trkpt lat="42.2819888" lon="14.122107"><ele>252.0</ele><time>2026-05-01T14:40:04.519Z</time></trkpt><trkpt lat="42.2820148" lon="14.1222799"><ele>252.0</ele><time>2026-05-01T14:40:05.517Z</time></trkpt><trkpt lat="42.2820479" lon="14.1224525"><ele>252.0</ele><time>2026-05-01T14:40:06.52Z</time></trkpt><trkpt lat="42.282085" lon="14.1226162"><ele>252.0</ele><time>2026-05-01T14:40:07.513Z</time></trkpt><trkpt lat="42.2821136" lon="14.1227889"><ele>253.75</ele><time>2026-05-01T14:40:08.517Z</time></trkpt><trkpt lat="42.2821334" lon="14.1229654"><ele>255.5</ele><time>2026-05-01T14:40:09.523Z</time></trkpt><trkpt lat="42.2821424" lon="14.1231341"><ele>257.25</ele><time>2026-05-01T14:40:10.521Z</time></trkpt><trkpt lat="42.282145" lon="14.1232996"><ele>259.0</ele><time>2026-05-01T14:40:11.525Z</time></trkpt><trkpt lat="42.2821468" lon="14.1234572"><ele>262.0</ele><time>2026-05-01T14:40:12.532Z</time></trkpt><trkpt lat="42.2821463" lon="14.12363"><ele>265.0</ele><time>2026-05-01T14:40:13.534Z</time></trkpt><trkpt lat="42.2821484" lon="14.1238058"><ele>268.0</ele><time>2026-05-01T14:40:14.542Z</time></trkpt><trkpt lat="42.2821527" lon="14.1239804"><ele>271.0</ele><time>2026-05-01T14:40:15.533Z</time></trkpt><trkpt lat="42.2821598" lon="14.1241645"><ele>273.0</ele><time>2026-05-01T14:40:16.54Z</time></trkpt><trkpt lat="42.2821638" lon="14.1243408"><ele>275.0</ele><time>2026-05-01T14:40:17.535Z</time></trkpt><trkpt lat="42.2821755" lon="14.1245128"><ele>277.0</ele><time>2026-05-01T14:40:18.534Z</time></trkpt><trkpt lat="42.2821866" lon="14.1246814"><ele>279.0</ele><time>2026-05-01T14:40:19.533Z</time></trkpt><trkpt lat="42.2822011" lon="14.1248482"><ele>281.75</ele><time>2026-05-01T14:40:20.534Z</time></trkpt><trkpt lat="42.2822171" lon="14.1250162"><ele>284.5</ele><time>2026-05-01T14:40:21.532Z</time></trkpt><trkpt lat="42.2822294" lon="14.1251866"><ele>287.25</ele><time>2026-05-01T14:40:22.532Z</time></trkpt><trkpt lat="42.2822488" lon="14.1253527"><ele>290.0</ele><time>2026-05-01T14:40:23.545Z</time></trkpt><trkpt lat="42.2822642" lon="14.1255282"><ele>289.75</ele><time>2026-05-01T14:40:24.529Z</time></trkpt><trkpt lat="42.2822865" lon="14.1257041"><ele>289.5</ele><time>2026-05-01T14:40:25.529Z</time></trkpt><trkpt lat="42.2823043" lon="14.1258837"><ele>289.25</ele><time>2026-05-01T14:40:26.534Z</time></trkpt><trkpt lat="42.2823219" lon="14.1260522"><ele>289.0</ele><time>2026-05-01T14:40:27.53Z</time></trkpt><trkpt lat="42.2823405" lon="14.1262061"><ele>289.0</ele><time>2026-05-01T14:40:28.535Z</time></trkpt><trkpt lat="42.2823686" lon="14.1263424"><ele>289.0</ele><time>2026-05-01T14:40:29.528Z</time></trkpt><trkpt lat="42.2824163" lon="14.126464"><ele>289.0</ele><time>2026-05-01T14:40:30.528Z</time></trkpt><trkpt lat="42.2824689" lon="14.1265798"><ele>289.0</ele><time>2026-05-01T14:40:31.529Z</time></trkpt><trkpt lat="42.2825148" lon="14.1267091"><ele>289.0</ele><time>2026-05-01T14:40:32.536Z</time></trkpt><trkpt lat="42.2825611" lon="14.1268179"><ele>290.8333333333333</ele><time>2026-05-01T14:40:33.524Z</time></trkpt><trkpt lat="42.2826025" lon="14.1269084"><ele>292.66666666666663</ele><time>2026-05-01T14:40:34.52Z</time></trkpt><trkpt lat="42.2826374" lon="14.1269934"><ele>294.5</ele><time>2026-05-01T14:40:36.516Z</time></trkpt><trkpt lat="42.2826554" lon="14.1270913"><ele>296.3333333333333</ele><time>2026-05-01T14:40:43.536Z</time></trkpt><trkpt lat="42.2827144" lon="14.127225"><ele>298.1666666666667</ele><time>2026-05-01T14:40:45.523Z</time></trkpt><trkpt lat="42.2827739" lon="14.1273308"><ele>300.0</ele><time>2026-05-01T14:40:46.521Z</time></trkpt><trkpt lat="42.2828347" lon="14.1274527"><ele>300.25</ele><time>2026-05-01T14:40:47.524Z</time></trkpt><trkpt lat="42.2829046" lon="14.1275831"><ele>300.5</ele><time>2026-05-01T14:40:48.532Z</time></trkpt><trkpt lat="42.2829798" lon="14.1277145"><ele>300.75</ele><time>2026-05-01T14:40:49.527Z</time></trkpt><trkpt lat="42.2830624" lon="14.1278433"><ele>301.0</ele><time>2026-05-01T14:40:50.533Z</time></trkpt><trkpt lat="42.2831422" lon="14.1279727"><ele>301.2</ele><time>2026-05-01T14:40:51.535Z</time></trkpt><trkpt lat="42.283214" lon="14.1281055"><ele>301.40000000000003</ele><time>2026-05-01T14:40:52.539Z</time></trkpt><trkpt lat="42.2832824" lon="14.1282198"><ele>301.6</ele><time>2026-05-01T14:40:53.531Z</time></trkpt><trkpt lat="42.2833483" lon="14.1283323"><ele>301.8</ele><time>2026-05-01T14:40:54.545Z</time></trkpt><trkpt lat="42.2834054" lon="14.1284351"><ele>302.0</ele><time>2026-05-01T14:40:55.532Z</time></trkpt><trkpt lat="42.2834609" lon="14.1285211"><ele>302.0</ele><time>2026-05-01T14:40:56.531Z</time></trkpt><trkpt lat="42.2835234" lon="14.1285869"><ele>302.0</ele><time>2026-05-01T14:40:57.53Z</time></trkpt><trkpt lat="42.2835874" lon="14.1286423"><ele>302.0</ele><time>2026-05-01T14:40:58.536Z</time></trkpt><trkpt lat="42.2836632" lon="14.1286757"><ele>302.0</ele><time>2026-05-01T14:40:59.53Z</time></trkpt><trkpt lat="42.2837439" lon="14.1286997"><ele>302.0</ele><time>2026-05-01T14:41:00.521Z</time></trkpt><trkpt lat="42.2838382" lon="14.1287135"><ele>302.0</ele><time>2026-05-01T14:41:01.524Z</time></trkpt><trkpt lat="42.2839288" lon="14.128716"><ele>302.4</ele><time>2026-05-01T14:41:02.531Z</time></trkpt><trkpt lat="42.2840307" lon="14.1287119"><ele>302.79999999999995</ele><time>2026-05-01T14:41:03.522Z</time></trkpt><trkpt lat="42.2841341" lon="14.1287241"><ele>303.2</ele><time>2026-05-01T14:41:04.528Z</time></trkpt><trkpt lat="42.2842383" lon="14.1287572"><ele>303.59999999999997</ele><time>2026-05-01T14:41:05.521Z</time></trkpt><trkpt lat="42.284341" lon="14.128819"><ele>304.0</ele><time>2026-05-01T14:41:06.514Z</time></trkpt><trkpt lat="42.2844322" lon="14.1288986"><ele>304.0</ele><time>2026-05-01T14:41:07.514Z</time></trkpt><trkpt lat="42.2845214" lon="14.1290087"><ele>304.0</ele><time>2026-05-01T14:41:08.512Z</time></trkpt><trkpt lat="42.2846156" lon="14.129128"><ele>304.0</ele><time>2026-05-01T14:41:09.521Z</time></trkpt><trkpt lat="42.2847131" lon="14.1292317"><ele>304.0</ele><time>2026-05-01T14:41:10.519Z</time></trkpt><trkpt lat="42.2848036" lon="14.1293338"><ele>303.5</ele><time>2026-05-01T14:41:11.516Z</time></trkpt><trkpt lat="42.2848937" lon="14.129422"><ele>303.0</ele><time>2026-05-01T14:41:12.519Z</time></trkpt><trkpt lat="42.2849829" lon="14.1295262"><ele>302.5</ele><time>2026-05-01T14:41:13.514Z</time></trkpt><trkpt lat="42.2850708" lon="14.1296474"><ele>302.0</ele><time>2026-05-01T14:41:14.514Z</time></trkpt><trkpt lat="42.2851623" lon="14.1297637"><ele>302.0</ele><time>2026-05-01T14:41:15.517Z</time></trkpt><trkpt lat="42.2852428" lon="14.1298869"><ele>302.0</ele><time>2026-05-01T14:41:16.522Z</time></trkpt><trkpt lat="42.2853228" lon="14.1300037"><ele>302.0</ele><time>2026-05-01T14:41:17.523Z</time></trkpt><trkpt lat="42.2853982" lon="14.1301324"><ele>302.0</ele><time>2026-05-01T14:41:18.522Z</time></trkpt><trkpt lat="42.2854788" lon="14.1302401"><ele>301.0</ele><time>2026-05-01T14:41:19.521Z</time></trkpt><trkpt lat="42.2855521" lon="14.1303575"><ele>300.0</ele><time>2026-05-01T14:41:20.528Z</time></trkpt><trkpt lat="42.2856264" lon="14.1304897"><ele>299.0</ele><time>2026-05-01T14:41:21.528Z</time></trkpt><trkpt lat="42.2856975" lon="14.1306403"><ele>298.0</ele><time>2026-05-01T14:41:22.534Z</time></trkpt><trkpt lat="42.2857713" lon="14.1307947"><ele>298.0</ele><time>2026-05-01T14:41:23.538Z</time></trkpt><trkpt lat="42.2858441" lon="14.1309518"><ele>298.0</ele><time>2026-05-01T14:41:24.531Z</time></trkpt><trkpt lat="42.2859233" lon="14.1311212"><ele>298.0</ele><time>2026-05-01T14:41:25.534Z</time></trkpt><trkpt lat="42.2860347" lon="14.1312701"><ele>298.0</ele><time>2026-05-01T14:41:26.535Z</time></trkpt><trkpt lat="42.2861219" lon="14.1314117"><ele>298.0</ele><time>2026-05-01T14:41:27.531Z</time></trkpt><trkpt lat="42.2862002" lon="14.131532"><ele>298.0</ele><time>2026-05-01T14:41:28.529Z</time></trkpt><trkpt lat="42.2862745" lon="14.1316466"><ele>298.0</ele><time>2026-05-01T14:41:29.54Z</time></trkpt><trkpt lat="42.2863512" lon="14.1317448"><ele>298.0</ele><time>2026-05-01T14:41:30.537Z</time></trkpt><trkpt lat="42.2864853" lon="14.1319691"><ele>296.5</ele><time>2026-05-01T14:41:32.533Z</time></trkpt><trkpt lat="42.2865497" lon="14.132085"><ele>295.0</ele><time>2026-05-01T14:41:33.525Z</time></trkpt><trkpt lat="42.2866087" lon="14.1322132"><ele>293.5</ele><time>2026-05-01T14:41:34.531Z</time></trkpt><trkpt lat="42.2866659" lon="14.1323565"><ele>292.0</ele><time>2026-05-01T14:41:35.524Z</time></trkpt><trkpt lat="42.2867183" lon="14.1325153"><ele>292.0</ele><time>2026-05-01T14:41:36.524Z</time></trkpt><trkpt lat="42.2867531" lon="14.1326908"><ele>292.0</ele><time>2026-05-01T14:41:37.528Z</time></trkpt><trkpt lat="42.2867792" lon="14.1328763"><ele>292.0</ele><time>2026-05-01T14:41:38.53Z</time></trkpt><trkpt lat="42.2868087" lon="14.1330603"><ele>292.0</ele><time>2026-05-01T14:41:39.518Z</time></trkpt><trkpt lat="42.2868398" lon="14.1332276"><ele>290.5</ele><time>2026-05-01T14:41:40.526Z</time></trkpt><trkpt lat="42.2869039" lon="14.1333549"><ele>289.0</ele><time>2026-05-01T14:41:41.53Z</time></trkpt><trkpt lat="42.2870008" lon="14.1334264"><ele>287.5</ele><time>2026-05-01T14:41:42.541Z</time></trkpt><trkpt lat="42.287112" lon="14.1334736"><ele>286.0</ele><time>2026-05-01T14:41:43.541Z</time></trkpt><trkpt lat="42.287244" lon="14.1335303"><ele>286.75</ele><time>2026-05-01T14:41:44.617Z</time></trkpt><trkpt lat="42.2873779" lon="14.1335878"><ele>287.5</ele><time>2026-05-01T14:41:45.621Z</time></trkpt><trkpt lat="42.2875125" lon="14.1336387"><ele>288.25</ele><time>2026-05-01T14:41:46.611Z</time></trkpt><trkpt lat="42.2876369" lon="14.1336833"><ele>289.0</ele><time>2026-05-01T14:41:47.612Z</time></trkpt><trkpt lat="42.2877399" lon="14.1337149"><ele>289.0</ele><time>2026-05-01T14:41:48.609Z</time></trkpt><trkpt lat="42.2878207" lon="14.1337464"><ele>289.0</ele><time>2026-05-01T14:41:49.606Z</time></trkpt><trkpt lat="42.287897" lon="14.1337847"><ele>289.0</ele><time>2026-05-01T14:41:50.608Z</time></trkpt><trkpt lat="42.2879733" lon="14.1338491"><ele>289.0</ele><time>2026-05-01T14:41:51.602Z</time></trkpt><trkpt lat="42.2880362" lon="14.1339327"><ele>289.0</ele><time>2026-05-01T14:41:52.6Z</time></trkpt><trkpt lat="42.2880915" lon="14.1340404"><ele>289.0</ele><time>2026-05-01T14:41:53.581Z</time></trkpt><trkpt lat="42.288146" lon="14.1341644"><ele>290.8</ele><time>2026-05-01T14:41:54.603Z</time></trkpt><trkpt lat="42.288223" lon="14.1342834"><ele>292.59999999999997</ele><time>2026-05-01T14:41:55.594Z</time></trkpt><trkpt lat="42.2882863" lon="14.1344065"><ele>294.4</ele><time>2026-05-01T14:41:56.609Z</time></trkpt><trkpt lat="42.2883536" lon="14.1345198"><ele>296.2</ele><time>2026-05-01T14:41:57.605Z</time></trkpt><trkpt lat="42.2884271" lon="14.134631"><ele>298.0</ele><time>2026-05-01T14:41:58.603Z</time></trkpt><trkpt lat="42.2885054" lon="14.1347335"><ele>298.0</ele><time>2026-05-01T14:41:59.599Z</time></trkpt><trkpt lat="42.288589" lon="14.1348165"><ele>298.0</ele><time>2026-05-01T14:42:00.585Z</time></trkpt><trkpt lat="42.2886782" lon="14.1348875"><ele>298.0</ele><time>2026-05-01T14:42:01.59Z</time></trkpt><trkpt lat="42.288768" lon="14.1349497"><ele>298.0</ele><time>2026-05-01T14:42:02.584Z</time></trkpt><trkpt lat="42.2888554" lon="14.1350101"><ele>298.0</ele><time>2026-05-01T14:42:03.584Z</time></trkpt><trkpt lat="42.2889397" lon="14.1350911"><ele>300.4</ele><time>2026-05-01T14:42:04.608Z</time></trkpt><trkpt lat="42.2890245" lon="14.135177"><ele>302.8</ele><time>2026-05-01T14:42:05.607Z</time></trkpt><trkpt lat="42.2891107" lon="14.1352666"><ele>305.2</ele><time>2026-05-01T14:42:06.602Z</time></trkpt><trkpt lat="42.2891975" lon="14.1353564"><ele>307.6</ele><time>2026-05-01T14:42:07.607Z</time></trkpt><trkpt lat="42.2892838" lon="14.1354563"><ele>310.0</ele><time>2026-05-01T14:42:08.608Z</time></trkpt><trkpt lat="42.2893728" lon="14.1355568"><ele>310.0</ele><time>2026-05-01T14:42:09.612Z</time></trkpt><trkpt lat="42.2894663" lon="14.135649"><ele>310.0</ele><time>2026-05-01T14:42:10.605Z</time></trkpt><trkpt lat="42.2895612" lon="14.1357226"><ele>310.0</ele><time>2026-05-01T14:42:11.605Z</time></trkpt><trkpt lat="42.2896659" lon="14.1357806"><ele>310.0</ele><time>2026-05-01T14:42:12.585Z</time></trkpt><trkpt lat="42.2897762" lon="14.1358127"><ele>310.2</ele><time>2026-05-01T14:42:13.589Z</time></trkpt><trkpt lat="42.2898885" lon="14.1358411"><ele>310.4</ele><time>2026-05-01T14:42:14.586Z</time></trkpt><trkpt lat="42.2900016" lon="14.1358687"><ele>310.6</ele><time>2026-05-01T14:42:15.586Z</time></trkpt><trkpt lat="42.2900988" lon="14.1359046"><ele>310.8</ele><time>2026-05-01T14:42:16.606Z</time></trkpt><trkpt lat="42.2902004" lon="14.1359325"><ele>311.0</ele><time>2026-05-01T14:42:17.607Z</time></trkpt><trkpt lat="42.2903035" lon="14.1359587"><ele>311.0</ele><time>2026-05-01T14:42:18.602Z</time></trkpt><trkpt lat="42.290395" lon="14.1359834"><ele>311.0</ele><time>2026-05-01T14:42:19.602Z</time></trkpt><trkpt lat="42.2904838" lon="14.1360079"><ele>311.0</ele><time>2026-05-01T14:42:20.613Z</time></trkpt><trkpt lat="42.2905711" lon="14.1360304"><ele>311.0</ele><time>2026-05-01T14:42:21.609Z</time></trkpt><trkpt lat="42.2906625" lon="14.136059"><ele>311.0</ele><time>2026-05-01T14:42:22.614Z</time></trkpt><trkpt lat="42.2907543" lon="14.1360854"><ele>312.0</ele><time>2026-05-01T14:42:23.611Z</time></trkpt><trkpt lat="42.2908449" lon="14.1361132"><ele>313.0</ele><time>2026-05-01T14:42:24.611Z</time></trkpt><trkpt lat="42.2909293" lon="14.13613"><ele>314.0</ele><time>2026-05-01T14:42:25.613Z</time></trkpt><trkpt lat="42.2910057" lon="14.1361321"><ele>315.0</ele><time>2026-05-01T14:42:26.614Z</time></trkpt><trkpt lat="42.2910711" lon="14.1361187"><ele>316.0</ele><time>2026-05-01T14:42:27.618Z</time></trkpt><trkpt lat="42.2911744" lon="14.1360793"><ele>317.0</ele><time>2026-05-01T14:42:29.59Z</time></trkpt><trkpt lat="42.2912675" lon="14.1360389"><ele>317.0</ele><time>2026-05-01T14:42:31.592Z</time></trkpt><trkpt lat="42.2913763" lon="14.1360108"><ele>317.0</ele><time>2026-05-01T14:42:33.615Z</time></trkpt><trkpt lat="42.291447" lon="14.1359297"><ele>317.0</ele><time>2026-05-01T14:42:35.593Z</time></trkpt><trkpt lat="42.2914497" lon="14.1358133"><ele>317.0</ele><time>2026-05-01T14:42:37.514Z</time></trkpt><trkpt lat="42.2914022" lon="14.1357466"><ele>317.0</ele><time>2026-05-01T14:42:38.527Z</time></trkpt><trkpt lat="42.2913296" lon="14.135678"><ele>317.0</ele><time>2026-05-01T14:42:40.543Z</time></trkpt><trkpt lat="42.2912742" lon="14.1356306"><ele>319.2</ele><time>2026-05-01T14:42:44.546Z</time></trkpt><trkpt lat="42.2912221" lon="14.1355618"><ele>321.4</ele><time>2026-05-01T14:42:57.542Z</time></trkpt><trkpt lat="42.2911405" lon="14.1354237"><ele>323.59999999999997</ele><time>2026-05-01T14:42:59.531Z</time></trkpt><trkpt lat="42.2911084" lon="14.1353221"><ele>325.79999999999995</ele><time>2026-05-01T14:43:00.529Z</time></trkpt><trkpt lat="42.2910811" lon="14.1352165"><ele>328.0</ele><time>2026-05-01T14:43:01.528Z</time></trkpt><trkpt lat="42.2910442" lon="14.1350995"><ele>328.0</ele><time>2026-05-01T14:43:02.541Z</time></trkpt><trkpt lat="42.2910101" lon="14.1349964"><ele>328.0</ele><time>2026-05-01T14:43:03.523Z</time></trkpt><trkpt lat="42.2909753" lon="14.1349084"><ele>328.0</ele><time>2026-05-01T14:43:04.525Z</time></trkpt><trkpt lat="42.2909317" lon="14.1348153"><ele>328.0</ele><time>2026-05-01T14:43:06.52Z</time></trkpt><trkpt lat="42.2908937" lon="14.134724"><ele>328.0</ele><time>2026-05-01T14:43:08.531Z</time></trkpt><trkpt lat="42.2908748" lon="14.1346054"><ele>328.0</ele><time>2026-05-01T14:43:10.529Z</time></trkpt><trkpt lat="42.2908213" lon="14.1344333"><ele>326.59999999999997</ele><time>2026-05-01T14:43:12.527Z</time></trkpt><trkpt lat="42.2907797" lon="14.1343294"><ele>325.2</ele><time>2026-05-01T14:43:13.534Z</time></trkpt><trkpt lat="42.2907281" lon="14.1342243"><ele>323.8</ele><time>2026-05-01T14:43:14.532Z</time></trkpt><trkpt lat="42.2906711" lon="14.1341184"><ele>322.4</ele><time>2026-05-01T14:43:15.529Z</time></trkpt><trkpt lat="42.2906086" lon="14.1340331"><ele>321.0</ele><time>2026-05-01T14:43:16.529Z</time></trkpt><trkpt lat="42.2905252" lon="14.1339623"><ele>320.6</ele><time>2026-05-01T14:43:17.53Z</time></trkpt><trkpt lat="42.2904305" lon="14.1339079"><ele>320.20000000000005</ele><time>2026-05-01T14:43:18.528Z</time></trkpt><trkpt lat="42.2903342" lon="14.1338579"><ele>319.79999999999995</ele><time>2026-05-01T14:43:19.523Z</time></trkpt><trkpt lat="42.2902459" lon="14.133812"><ele>319.4</ele><time>2026-05-01T14:43:20.524Z</time></trkpt><trkpt lat="42.2901647" lon="14.1337753"><ele>319.0</ele><time>2026-05-01T14:43:21.518Z</time></trkpt><trkpt lat="42.2900782" lon="14.133694"><ele>319.0</ele><time>2026-05-01T14:43:22.517Z</time></trkpt><trkpt lat="42.2899989" lon="14.1335917"><ele>319.0</ele><time>2026-05-01T14:43:23.51Z</time></trkpt><trkpt lat="42.28994" lon="14.1334765"><ele>319.0</ele><time>2026-05-01T14:43:24.515Z</time></trkpt><trkpt lat="42.2898929" lon="14.1333636"><ele>319.0</ele><time>2026-05-01T14:43:25.518Z</time></trkpt><trkpt lat="42.2898492" lon="14.1332564"><ele>319.0</ele><time>2026-05-01T14:43:26.525Z</time></trkpt><trkpt lat="42.2897968" lon="14.1331662"><ele>318.16666666666663</ele><time>2026-05-01T14:43:27.52Z</time></trkpt><trkpt lat="42.2897411" lon="14.1331008"><ele>317.3333333333333</ele><time>2026-05-01T14:43:28.522Z</time></trkpt><trkpt lat="42.2896801" lon="14.1330454"><ele>316.5</ele><time>2026-05-01T14:43:29.541Z</time></trkpt><trkpt lat="42.2896279" lon="14.1329905"><ele>315.6666666666667</ele><time>2026-05-01T14:43:30.525Z</time></trkpt><trkpt lat="42.2895878" lon="14.1328327"><ele>314.83333333333337</ele><time>2026-05-01T14:43:32.52Z</time></trkpt><trkpt lat="42.2896066" lon="14.1327344"><ele>314.0</ele><time>2026-05-01T14:43:33.515Z</time></trkpt><trkpt lat="42.2896321" lon="14.1326162"><ele>314.0</ele><time>2026-05-01T14:43:34.523Z</time></trkpt><trkpt lat="42.2896643" lon="14.1324911"><ele>314.0</ele><time>2026-05-01T14:43:35.529Z</time></trkpt><trkpt lat="42.2896835" lon="14.1323689"><ele>314.0</ele><time>2026-05-01T14:43:36.528Z</time></trkpt><trkpt lat="42.2897104" lon="14.1322523"><ele>314.0</ele><time>2026-05-01T14:43:37.53Z</time></trkpt><trkpt lat="42.2897387" lon="14.1321443"><ele>314.0</ele><time>2026-05-01T14:43:38.534Z</time></trkpt><trkpt lat="42.2897571" lon="14.1320403"><ele>314.0</ele><time>2026-05-01T14:43:39.536Z</time></trkpt><trkpt lat="42.289784" lon="14.1319399"><ele>313.2857142857143</ele><time>2026-05-01T14:43:40.531Z</time></trkpt><trkpt lat="42.2898268" lon="14.1318543"><ele>312.57142857142856</ele><time>2026-05-01T14:43:41.527Z</time></trkpt><trkpt lat="42.2898856" lon="14.131758"><ele>311.8571428571429</ele><time>2026-05-01T14:43:43.523Z</time></trkpt><trkpt lat="42.2899088" lon="14.1316784"><ele>311.1428571428571</ele><time>2026-05-01T14:43:46.545Z</time></trkpt><trkpt lat="42.2899469" lon="14.1316066"><ele>310.42857142857144</ele><time>2026-05-01T14:43:57.546Z</time></trkpt><trkpt lat="42.2899871" lon="14.1315267"><ele>309.7142857142857</ele><time>2026-05-01T14:43:59.56Z</time></trkpt><trkpt lat="42.290036" lon="14.1314589"><ele>309.0</ele><time>2026-05-01T14:44:01.551Z</time></trkpt><trkpt lat="42.2900789" lon="14.131374"><ele>306.3333333333333</ele><time>2026-05-01T14:44:05.546Z</time></trkpt><trkpt lat="42.2901151" lon="14.1312721"><ele>303.6666666666667</ele><time>2026-05-01T14:44:09.54Z</time></trkpt><trkpt lat="42.2901457" lon="14.1311756"><ele>301.0</ele><time>2026-05-01T14:44:12.548Z</time></trkpt><trkpt lat="42.2901666" lon="14.1310833"><ele>298.33333333333337</ele><time>2026-05-01T14:44:15.543Z</time></trkpt><trkpt lat="42.2901984" lon="14.1309541"><ele>295.6666666666667</ele><time>2026-05-01T14:44:18.548Z</time></trkpt><trkpt lat="42.2902289" lon="14.1308355"><ele>293.0</ele><time>2026-05-01T14:44:20.541Z</time></trkpt><trkpt lat="42.290265" lon="14.1306722"><ele>290.33333333333337</ele><time>2026-05-01T14:44:22.538Z</time></trkpt><trkpt lat="42.2902854" lon="14.1305912"><ele>287.6666666666667</ele><time>2026-05-01T14:44:23.538Z</time></trkpt><trkpt lat="42.290327" lon="14.1304387"><ele>285.0</ele><time>2026-05-01T14:44:25.534Z</time></trkpt><trkpt lat="42.2903548" lon="14.1303594"><ele>282.3333333333333</ele><time>2026-05-01T14:44:26.535Z</time></trkpt><trkpt lat="42.2903756" lon="14.1302555"><ele>279.66666666666663</ele><time>2026-05-01T14:44:27.534Z</time></trkpt><trkpt lat="42.2903873" lon="14.1301574"><ele>277.0</ele><time>2026-05-01T14:44:28.538Z</time></trkpt><trkpt lat="42.2903935" lon="14.1300633"><ele>277.0</ele><time>2026-05-01T14:44:29.536Z</time></trkpt><trkpt lat="42.2903948" lon="14.1299699"><ele>277.0</ele><time>2026-05-01T14:44:30.536Z</time></trkpt><trkpt lat="42.2903895" lon="14.129879"><ele>277.0</ele><time>2026-05-01T14:44:31.561Z</time></trkpt><trkpt lat="42.2903783" lon="14.1297842"><ele>277.0</ele><time>2026-05-01T14:44:32.538Z</time></trkpt><trkpt lat="42.2903738" lon="14.1296918"><ele>277.0</ele><time>2026-05-01T14:44:33.533Z</time></trkpt><trkpt lat="42.2903624" lon="14.1296013"><ele>277.0</ele><time>2026-05-01T14:44:34.533Z</time></trkpt><trkpt lat="42.2903512" lon="14.1295101"><ele>277.0</ele><time>2026-05-01T14:44:35.534Z</time></trkpt><trkpt lat="42.2903467" lon="14.1294183"><ele>275.66666666666663</ele><time>2026-05-01T14:44:36.531Z</time></trkpt><trkpt lat="42.2903389" lon="14.1292439"><ele>274.3333333333333</ele><time>2026-05-01T14:44:38.527Z</time></trkpt><trkpt lat="42.2903459" lon="14.1291426"><ele>273.0</ele><time>2026-05-01T14:44:39.527Z</time></trkpt><trkpt lat="42.2903594" lon="14.1290464"><ele>271.6666666666667</ele><time>2026-05-01T14:44:40.528Z</time></trkpt><trkpt lat="42.2903645" lon="14.1289585"><ele>270.33333333333337</ele><time>2026-05-01T14:44:41.531Z</time></trkpt><trkpt lat="42.2903721" lon="14.1288687"><ele>269.0</ele><time>2026-05-01T14:44:42.531Z</time></trkpt><trkpt lat="42.2903908" lon="14.1287086"><ele>266.14285714285717</ele><time>2026-05-01T14:44:44.531Z</time></trkpt><trkpt lat="42.2904058" lon="14.1286193"><ele>263.28571428571433</ele><time>2026-05-01T14:44:45.534Z</time></trkpt><trkpt lat="42.2904149" lon="14.1285242"><ele>260.42857142857144</ele><time>2026-05-01T14:44:46.535Z</time></trkpt><trkpt lat="42.2904212" lon="14.1284368"><ele>257.57142857142856</ele><time>2026-05-01T14:44:47.533Z</time></trkpt><trkpt lat="42.2904354" lon="14.1283512"><ele>254.7142857142857</ele><time>2026-05-01T14:44:48.534Z</time></trkpt><trkpt lat="42.290446" lon="14.1282573"><ele>251.85714285714283</ele><time>2026-05-01T14:44:49.536Z</time></trkpt><trkpt lat="42.2904606" lon="14.1281547"><ele>249.0</ele><time>2026-05-01T14:44:50.536Z</time></trkpt><trkpt lat="42.2904752" lon="14.128059"><ele>244.79999999999998</ele><time>2026-05-01T14:44:51.538Z</time></trkpt><trkpt lat="42.2904879" lon="14.12797"><ele>240.59999999999997</ele><time>2026-05-01T14:44:52.538Z</time></trkpt><trkpt lat="42.2905044" lon="14.1278157"><ele>236.4</ele><time>2026-05-01T14:44:54.538Z</time></trkpt><trkpt lat="42.2905174" lon="14.1276824"><ele>232.2</ele><time>2026-05-01T14:44:56.54Z</time></trkpt><trkpt lat="42.29054" lon="14.1275363"><ele>228.0</ele><time>2026-05-01T14:44:58.539Z</time></trkpt><trkpt lat="42.2905745" lon="14.1273702"><ele>227.2</ele><time>2026-05-01T14:45:00.539Z</time></trkpt><trkpt lat="42.2905933" lon="14.1272035"><ele>226.4</ele><time>2026-05-01T14:45:02.529Z</time></trkpt><trkpt lat="42.29062" lon="14.1270478"><ele>225.59999999999997</ele><time>2026-05-01T14:45:04.521Z</time></trkpt><trkpt lat="42.290639" lon="14.1268669"><ele>224.79999999999998</ele><time>2026-05-01T14:45:06.522Z</time></trkpt><trkpt lat="42.2906401" lon="14.1267711"><ele>224.0</ele><time>2026-05-01T14:45:07.517Z</time></trkpt><trkpt lat="42.2906366" lon="14.1266776"><ele>224.0</ele><time>2026-05-01T14:45:08.522Z</time></trkpt><trkpt lat="42.2906232" lon="14.1265896"><ele>224.0</ele><time>2026-05-01T14:45:09.518Z</time></trkpt><trkpt lat="42.2906115" lon="14.1264986"><ele>224.0</ele><time>2026-05-01T14:45:10.519Z</time></trkpt><trkpt lat="42.2905976" lon="14.1264083"><ele>224.0</ele><time>2026-05-01T14:45:11.516Z</time></trkpt><trkpt lat="42.2905817" lon="14.1263196"><ele>224.0</ele><time>2026-05-01T14:45:12.515Z</time></trkpt><trkpt lat="42.2905703" lon="14.1262207"><ele>224.0</ele><time>2026-05-01T14:45:13.516Z</time></trkpt><trkpt lat="42.290558" lon="14.1261252"><ele>224.0</ele><time>2026-05-01T14:45:14.522Z</time></trkpt><trkpt lat="42.2905461" lon="14.1259498"><ele>219.6</ele><time>2026-05-01T14:45:16.516Z</time></trkpt><trkpt lat="42.2905436" lon="14.1258564"><ele>215.2</ele><time>2026-05-01T14:45:17.518Z</time></trkpt><trkpt lat="42.29053" lon="14.1257032"><ele>210.79999999999998</ele><time>2026-05-01T14:45:19.516Z</time></trkpt><trkpt lat="42.2905164" lon="14.1255709"><ele>206.39999999999998</ele><time>2026-05-01T14:45:21.517Z</time></trkpt><trkpt lat="42.2904992" lon="14.1254433"><ele>202.0</ele><time>2026-05-01T14:45:23.521Z</time></trkpt><trkpt lat="42.2904915" lon="14.1253061"><ele>201.39999999999998</ele><time>2026-05-01T14:45:25.518Z</time></trkpt><trkpt lat="42.2905025" lon="14.1251401"><ele>200.79999999999998</ele><time>2026-05-01T14:45:27.516Z</time></trkpt><trkpt lat="42.2905106" lon="14.1249844"><ele>200.2</ele><time>2026-05-01T14:45:29.51Z</time></trkpt><trkpt lat="42.2905255" lon="14.1248963"><ele>199.6</ele><time>2026-05-01T14:45:31.523Z</time></trkpt><trkpt lat="42.2905839" lon="14.1248165"><ele>199.0</ele><time>2026-05-01T14:45:35.517Z</time></trkpt><trkpt lat="42.290632" lon="14.1247104"><ele>198.0</ele><time>2026-05-01T14:45:37.522Z</time></trkpt><trkpt lat="42.2906813" lon="14.1246026"><ele>197.0</ele><time>2026-05-01T14:45:39.509Z</time></trkpt><trkpt lat="42.2907365" lon="14.1244914"><ele>196.0</ele><time>2026-05-01T14:45:41.51Z</time></trkpt><trkpt lat="42.2907887" lon="14.1244031"><ele>195.0</ele><time>2026-05-01T14:45:43.516Z</time></trkpt><trkpt lat="42.2908377" lon="14.1242823"><ele>194.0</ele><time>2026-05-01T14:45:45.509Z</time></trkpt><trkpt lat="42.2908756" lon="14.124162"><ele>190.39999999999998</ele><time>2026-05-01T14:45:47.503Z</time></trkpt><trkpt lat="42.2909275" lon="14.12405"><ele>186.8</ele><time>2026-05-01T14:45:49.51Z</time></trkpt><trkpt lat="42.290955" lon="14.1238962"><ele>183.2</ele><time>2026-05-01T14:45:51.518Z</time></trkpt><trkpt lat="42.2909793" lon="14.1237453"><ele>179.60000000000002</ele><time>2026-05-01T14:45:53.518Z</time></trkpt><trkpt lat="42.2909966" lon="14.1236157"><ele>176.0</ele><time>2026-05-01T14:45:55.514Z</time></trkpt><trkpt lat="42.2909634" lon="14.1234967"><ele>176.0</ele><time>2026-05-01T14:45:57.512Z</time></trkpt><trkpt lat="42.2909365" lon="14.1234106"><ele>176.0</ele><time>2026-05-01T14:45:58.515Z</time></trkpt><trkpt lat="42.2908966" lon="14.1233214"><ele>176.0</ele><time>2026-05-01T14:45:59.518Z</time></trkpt><trkpt lat="42.2908615" lon="14.1232289"><ele>176.0</ele><time>2026-05-01T14:46:00.516Z</time></trkpt><trkpt lat="42.290831" lon="14.1231356"><ele>176.0</ele><time>2026-05-01T14:46:01.512Z</time></trkpt><trkpt lat="42.2907997" lon="14.1230218"><ele>176.0</ele><time>2026-05-01T14:46:03.524Z</time></trkpt><trkpt lat="42.2907718" lon="14.1229387"><ele>173.5</ele><time>2026-05-01T14:46:05.522Z</time></trkpt><trkpt lat="42.2907553" lon="14.122837"><ele>171.0</ele><time>2026-05-01T14:46:07.521Z</time></trkpt><trkpt lat="42.2907315" lon="14.1227551"><ele>168.5</ele><time>2026-05-01T14:46:09.514Z</time></trkpt><trkpt lat="42.2907076" lon="14.1226618"><ele>166.0</ele><time>2026-05-01T14:46:11.516Z</time></trkpt><trkpt lat="42.290704" lon="14.1225532"><ele>163.5</ele><time>2026-05-01T14:46:13.512Z</time></trkpt><trkpt lat="42.2907553" lon="14.1224582"><ele>161.0</ele><time>2026-05-01T14:46:16.519Z</time></trkpt><trkpt lat="42.2908292" lon="14.122393"><ele>161.0</ele><time>2026-05-01T14:46:19.513Z</time></trkpt><trkpt lat="42.2908925" lon="14.1223284"><ele>161.0</ele><time>2026-05-01T14:46:21.512Z</time></trkpt><trkpt lat="42.2909714" lon="14.1222535"><ele>161.0</ele><time>2026-05-01T14:46:23.511Z</time></trkpt><trkpt lat="42.2910095" lon="14.1221682"><ele>161.0</ele><time>2026-05-01T14:46:25.5Z</time></trkpt><trkpt lat="42.2909971" lon="14.1220478"><ele>161.0</ele><time>2026-05-01T14:46:27.496Z</time></trkpt><trkpt lat="42.2909838" lon="14.1219612"><ele>161.0</ele><time>2026-05-01T14:46:28.507Z</time></trkpt><trkpt lat="42.2909859" lon="14.1218623"><ele>161.0</ele><time>2026-05-01T14:46:29.499Z</time></trkpt><trkpt lat="42.2910199" lon="14.1217555"><ele>161.0</ele><time>2026-05-01T14:46:31.517Z</time></trkpt><trkpt lat="42.2910937" lon="14.1216323"><ele>161.0</ele><time>2026-05-01T14:46:33.502Z</time></trkpt><trkpt lat="42.2911314" lon="14.1215577"><ele>161.0</ele><time>2026-05-01T14:46:34.522Z</time></trkpt><trkpt lat="42.2911867" lon="14.1214764"><ele>161.0</ele><time>2026-05-01T14:46:35.509Z</time></trkpt><trkpt lat="42.2912398" lon="14.1213763"><ele>161.0</ele><time>2026-05-01T14:46:36.508Z</time></trkpt><trkpt lat="42.2912857" lon="14.1212895"><ele>161.0</ele><time>2026-05-01T14:46:37.508Z</time></trkpt><trkpt lat="42.2913226" lon="14.1212147"><ele>161.0</ele><time>2026-05-01T14:46:38.506Z</time></trkpt><trkpt lat="42.2907315" lon="14.1227551"><ele>161.0</ele><time>2026-05-01T14:46:09.514Z</time></trkpt><trkpt lat="42.2907076" lon="14.1226618"><ele>161.0</ele><time>2026-05-01T14:46:11.516Z</time></trkpt><trkpt lat="42.290704" lon="14.1225532"><ele>161.0</ele><time>2026-05-01T14:46:13.512Z</time></trkpt><trkpt lat="42.2907553" lon="14.1224582"><ele>161.0</ele><time>2026-05-01T14:46:16.519Z</time></trkpt><trkpt lat="42.2908292" lon="14.122393"><ele>161.0</ele><time>2026-05-01T14:46:19.513Z</time></trkpt><trkpt lat="42.2908925" lon="14.1223284"><ele>161.0</ele><time>2026-05-01T14:46:21.512Z</time></trkpt><trkpt lat="42.2909714" lon="14.1222535"><ele>161.0</ele><time>2026-05-01T14:46:23.511Z</time></trkpt><trkpt lat="42.2910095" lon="14.1221682"><ele>161.0</ele><time>2026-05-01T14:46:25.5Z</time></trkpt><trkpt lat="42.2909971" lon="14.1220478"><ele>161.0</ele><time>2026-05-01T14:46:27.496Z</time></trkpt><trkpt lat="42.2909838" lon="14.1219612"><ele>161.0</ele><time>2026-05-01T14:46:28.507Z</time></trkpt><trkpt lat="42.2909859" lon="14.1218623"><ele>161.0</ele><time>2026-05-01T14:46:29.499Z</time></trkpt><trkpt lat="42.2910199" lon="14.1217555"><ele>161.0</ele><time>2026-05-01T14:46:31.517Z</time></trkpt><trkpt lat="42.2910937" lon="14.1216323"><ele>162.66666666666666</ele><time>2026-05-01T14:46:33.502Z</time></trkpt><trkpt lat="42.2911314" lon="14.1215577"><ele>164.33333333333331</ele><time>2026-05-01T14:46:34.522Z</time></trkpt><trkpt lat="42.2911867" lon="14.1214764"><ele>166.0</ele><time>2026-05-01T14:46:35.509Z</time></trkpt><trkpt lat="42.2912398" lon="14.1213763"><ele>167.66666666666666</ele><time>2026-05-01T14:46:36.508Z</time></trkpt><trkpt lat="42.2912857" lon="14.1212895"><ele>169.33333333333334</ele><time>2026-05-01T14:46:37.508Z</time></trkpt><trkpt lat="42.2913226" lon="14.1212147"><ele>171.0</ele><time>2026-05-01T14:46:38.506Z</time></trkpt><trkpt lat="42.2913766" lon="14.1210998"><ele>172.5</ele><time>2026-05-01T14:46:40.529Z</time></trkpt><trkpt lat="42.2914339" lon="14.1209685"><ele>174.0</ele><time>2026-05-01T14:46:42.518Z</time></trkpt><trkpt lat="42.2915057" lon="14.1208184"><ele>175.5</ele><time>2026-05-01T14:46:44.506Z</time></trkpt><trkpt lat="42.291541" lon="14.1207404"><ele>177.0</ele><time>2026-05-01T14:46:45.507Z</time></trkpt><trkpt lat="42.291579" lon="14.120671"><ele>178.5</ele><time>2026-05-01T14:46:46.51Z</time></trkpt><trkpt lat="42.2916182" lon="14.1205954"><ele>180.0</ele><time>2026-05-01T14:46:47.513Z</time></trkpt><trkpt lat="42.291654" lon="14.1205242"><ele>182.83333333333334</ele><time>2026-05-01T14:46:48.513Z</time></trkpt><trkpt lat="42.291704" lon="14.1204172"><ele>185.66666666666669</ele><time>2026-05-01T14:46:50.509Z</time></trkpt><trkpt lat="42.2917461" lon="14.1203408"><ele>188.5</ele><time>2026-05-01T14:49:48.513Z</time></trkpt><trkpt lat="42.2917827" lon="14.1202449"><ele>191.33333333333334</ele><time>2026-05-01T14:49:51.513Z</time></trkpt><trkpt lat="42.2918199" lon="14.1201722"><ele>194.16666666666669</ele><time>2026-05-01T14:49:54.515Z</time></trkpt><trkpt lat="42.2918292" lon="14.1200691"><ele>197.0</ele><time>2026-05-01T14:59:28.528Z</time></trkpt><trkpt lat="42.2918285" lon="14.1199728"><ele>200.00000000000003</ele><time>2026-05-01T14:59:30.528Z</time></trkpt><trkpt lat="42.2918162" lon="14.1198482"><ele>203.0</ele><time>2026-05-01T14:59:32.531Z</time></trkpt><trkpt lat="42.2918086" lon="14.1197345"><ele>206.0</ele><time>2026-05-01T14:59:34.529Z</time></trkpt><trkpt lat="42.291773" lon="14.1195993"><ele>209.0</ele><time>2026-05-01T14:59:36.515Z</time></trkpt><trkpt lat="42.2917248" lon="14.1195024"><ele>212.00000000000003</ele><time>2026-05-01T14:59:38.52Z</time></trkpt><trkpt lat="42.2917909" lon="14.1194693"><ele>215.0</ele><time>2026-05-01T15:02:02.515Z</time></trkpt><trkpt lat="42.2918889" lon="14.1195231"><ele>215.0</ele><time>2026-05-01T15:02:04.511Z</time></trkpt><trkpt lat="42.2920108" lon="14.1195517"><ele>215.0</ele><time>2026-05-01T15:02:06.507Z</time></trkpt><trkpt lat="42.2921017" lon="14.1194995"><ele>215.0</ele><time>2026-05-01T15:02:08.506Z</time></trkpt><trkpt lat="42.2922094" lon="14.1194215"><ele>215.0</ele><time>2026-05-01T15:02:10.513Z</time></trkpt><trkpt lat="42.2922718" lon="14.1193742"><ele>215.0</ele><time>2026-05-01T15:02:11.51Z</time></trkpt><trkpt lat="42.2923309" lon="14.1193325"><ele>218.0</ele><time>2026-05-01T15:02:12.509Z</time></trkpt><trkpt lat="42.2923871" lon="14.1192938"><ele>221.0</ele><time>2026-05-01T15:02:13.509Z</time></trkpt><trkpt lat="42.2924491" lon="14.1192539"><ele>224.0</ele><time>2026-05-01T15:02:14.511Z</time></trkpt><trkpt lat="42.2925554" lon="14.1191692"><ele>227.0</ele><time>2026-05-01T15:02:16.509Z</time></trkpt><trkpt lat="42.2926468" lon="14.1190865"><ele>230.0</ele><time>2026-05-01T15:02:18.511Z</time></trkpt><trkpt lat="42.2927298" lon="14.1189792"><ele>233.4</ele><time>2026-05-01T15:02:20.511Z</time></trkpt><trkpt lat="42.2928254" lon="14.1188725"><ele>236.8</ele><time>2026-05-01T15:02:22.509Z</time></trkpt><trkpt lat="42.2929325" lon="14.118777"><ele>240.2</ele><time>2026-05-01T15:02:24.507Z</time></trkpt><trkpt lat="42.292992" lon="14.1187202"><ele>243.6</ele><time>2026-05-01T15:02:25.506Z</time></trkpt><trkpt lat="42.2930837" lon="14.118626"><ele>247.0</ele><time>2026-05-01T15:02:27.509Z</time></trkpt><trkpt lat="42.2931008" lon="14.1185417"><ele>246.99999999999997</ele><time>2026-05-01T15:02:29.525Z</time></trkpt><trkpt lat="42.2930475" lon="14.1183909"><ele>247.0</ele><time>2026-05-01T15:02:31.518Z</time></trkpt><trkpt lat="42.2930298" lon="14.1183016"><ele>247.0</ele><time>2026-05-01T15:02:32.512Z</time></trkpt><trkpt lat="42.2930156" lon="14.1181869"><ele>247.0</ele><time>2026-05-01T15:02:34.54Z</time></trkpt><trkpt lat="42.2930429" lon="14.1181044"><ele>246.99999999999997</ele><time>2026-05-01T15:02:39.536Z</time></trkpt><trkpt lat="42.2930558" lon="14.1181906"><ele>247.0</ele><time>2026-05-01T15:17:44.515Z</time></trkpt><trkpt lat="42.2929901" lon="14.1181503"><ele>246.0</ele><time>2026-05-01T15:18:25.521Z</time></trkpt><trkpt lat="42.292917" lon="14.1181274"><ele>245.0</ele><time>2026-05-01T15:18:28.53Z</time></trkpt><trkpt lat="42.2928185" lon="14.118074"><ele>244.0</ele><time>2026-05-01T15:18:32.53Z</time></trkpt><trkpt lat="42.2927284" lon="14.1180376"><ele>243.0</ele><time>2026-05-01T15:18:34.523Z</time></trkpt><trkpt lat="42.2926351" lon="14.118014"><ele>242.0</ele><time>2026-05-01T15:18:36.525Z</time></trkpt><trkpt lat="42.2925535" lon="14.1179754"><ele>242.0</ele><time>2026-05-01T15:18:38.53Z</time></trkpt><trkpt lat="42.2924663" lon="14.1179262"><ele>242.0</ele><time>2026-05-01T15:18:40.522Z</time></trkpt><trkpt lat="42.2923892" lon="14.1178305"><ele>242.0</ele><time>2026-05-01T15:18:42.511Z</time></trkpt><trkpt lat="42.292368" lon="14.1176927"><ele>242.0</ele><time>2026-05-01T15:18:44.508Z</time></trkpt><trkpt lat="42.2923997" lon="14.1175522"><ele>242.0</ele><time>2026-05-01T15:18:46.505Z</time></trkpt><trkpt lat="42.2925105" lon="14.1175117"><ele>242.00000000000003</ele><time>2026-05-01T15:18:48.509Z</time></trkpt><trkpt lat="42.2925827" lon="14.1175283"><ele>242.0</ele><time>2026-05-01T15:18:49.512Z</time></trkpt><trkpt lat="42.2926451" lon="14.1175686"><ele>242.0</ele><time>2026-05-01T15:18:50.519Z</time></trkpt><trkpt lat="42.2927031" lon="14.1176232"><ele>242.0</ele><time>2026-05-01T15:18:51.522Z</time></trkpt><trkpt lat="42.2928078" lon="14.1177066"><ele>242.00000000000003</ele><time>2026-05-01T15:18:53.524Z</time></trkpt><trkpt lat="42.2929028" lon="14.1177893"><ele>242.0</ele><time>2026-05-01T15:18:55.518Z</time></trkpt><trkpt lat="42.2929814" lon="14.1178125"><ele>242.0</ele><time>2026-05-01T15:18:57.511Z</time></trkpt><trkpt lat="42.2930694" lon="14.117793"><ele>242.0</ele><time>2026-05-01T15:18:59.505Z</time></trkpt><trkpt lat="42.2931557" lon="14.117712"><ele>242.0</ele><time>2026-05-01T15:19:01.504Z</time></trkpt><trkpt lat="42.2931409" lon="14.1175603"><ele>242.0</ele><time>2026-05-01T15:19:03.5Z</time></trkpt><trkpt lat="42.2930991" lon="14.1174824"><ele>242.0</ele><time>2026-05-01T15:19:04.504Z</time></trkpt><trkpt lat="42.2930388" lon="14.117409"><ele>239.39999999999998</ele><time>2026-05-01T15:19:05.505Z</time></trkpt><trkpt lat="42.2929653" lon="14.1173433"><ele>236.79999999999998</ele><time>2026-05-01T15:19:06.514Z</time></trkpt><trkpt lat="42.2928856" lon="14.1172824"><ele>234.2</ele><time>2026-05-01T15:19:07.519Z</time></trkpt><trkpt lat="42.2928079" lon="14.1171887"><ele>231.6</ele><time>2026-05-01T15:19:08.519Z</time></trkpt><trkpt lat="42.2927389" lon="14.117102"><ele>229.0</ele><time>2026-05-01T15:19:09.516Z</time></trkpt><trkpt lat="42.2926778" lon="14.1170101"><ele>228.99999999999997</ele><time>2026-05-01T15:19:10.523Z</time></trkpt><trkpt lat="42.2926314" lon="14.116914"><ele>229.0</ele><time>2026-05-01T15:19:11.524Z</time></trkpt><trkpt lat="42.2925858" lon="14.1168185"><ele>229.0</ele><time>2026-05-01T15:19:12.525Z</time></trkpt><trkpt lat="42.2925434" lon="14.1167269"><ele>229.0</ele><time>2026-05-01T15:19:13.527Z</time></trkpt><trkpt lat="42.2925005" lon="14.1166374"><ele>228.99999999999997</ele><time>2026-05-01T15:19:14.527Z</time></trkpt><trkpt lat="42.2924517" lon="14.1165458"><ele>229.0</ele><time>2026-05-01T15:19:15.522Z</time></trkpt><trkpt lat="42.2923947" lon="14.11646"><ele>226.2</ele><time>2026-05-01T15:19:16.527Z</time></trkpt><trkpt lat="42.2923339" lon="14.1163735"><ele>223.39999999999998</ele><time>2026-05-01T15:19:17.525Z</time></trkpt><trkpt lat="42.292267" lon="14.1162799"><ele>220.6</ele><time>2026-05-01T15:19:18.525Z</time></trkpt><trkpt lat="42.2921936" lon="14.1161828"><ele>217.8</ele><time>2026-05-01T15:19:19.526Z</time></trkpt><trkpt lat="42.2921129" lon="14.116079"><ele>215.0</ele><time>2026-05-01T15:19:20.528Z</time></trkpt><trkpt lat="42.2920249" lon="14.1159838"><ele>215.0</ele><time>2026-05-01T15:19:21.531Z</time></trkpt><trkpt lat="42.2919379" lon="14.1158756"><ele>215.0</ele><time>2026-05-01T15:19:22.529Z</time></trkpt><trkpt lat="42.2918456" lon="14.1157571"><ele>215.0</ele><time>2026-05-01T15:19:23.536Z</time></trkpt><trkpt lat="42.2917583" lon="14.1156376"><ele>215.0</ele><time>2026-05-01T15:19:24.533Z</time></trkpt><trkpt lat="42.2916783" lon="14.1155175"><ele>214.4</ele><time>2026-05-01T15:19:25.527Z</time></trkpt><trkpt lat="42.2915958" lon="14.1154095"><ele>213.8</ele><time>2026-05-01T15:19:26.533Z</time></trkpt><trkpt lat="42.2915229" lon="14.1152966"><ele>213.2</ele><time>2026-05-01T15:19:27.532Z</time></trkpt><trkpt lat="42.2914593" lon="14.1151866"><ele>212.6</ele><time>2026-05-01T15:19:28.536Z</time></trkpt><trkpt lat="42.2913995" lon="14.1150887"><ele>212.0</ele><time>2026-05-01T15:19:29.531Z</time></trkpt><trkpt lat="42.2913427" lon="14.1149888"><ele>213.5</ele><time>2026-05-01T15:19:30.531Z</time></trkpt><trkpt lat="42.291289" lon="14.1148813"><ele>215.0</ele><time>2026-05-01T15:19:31.528Z</time></trkpt><trkpt lat="42.2912323" lon="14.1147506"><ele>216.5</ele><time>2026-05-01T15:19:32.529Z</time></trkpt><trkpt lat="42.2911692" lon="14.1146102"><ele>218.0</ele><time>2026-05-01T15:19:33.527Z</time></trkpt><trkpt lat="42.2911058" lon="14.1144529"><ele>218.0</ele><time>2026-05-01T15:19:34.518Z</time></trkpt><trkpt lat="42.2910244" lon="14.1142805"><ele>218.0</ele><time>2026-05-01T15:19:35.519Z</time></trkpt><trkpt lat="42.2909427" lon="14.114092"><ele>218.0</ele><time>2026-05-01T15:19:36.519Z</time></trkpt><trkpt lat="42.2908598" lon="14.1138992"><ele>216.66666666666669</ele><time>2026-05-01T15:19:37.524Z</time></trkpt><trkpt lat="42.2907751" lon="14.113713"><ele>215.33333333333331</ele><time>2026-05-01T15:19:38.528Z</time></trkpt><trkpt lat="42.2906891" lon="14.1135332"><ele>214.0</ele><time>2026-05-01T15:19:39.527Z</time></trkpt><trkpt lat="42.2906153" lon="14.1133724"><ele>216.5</ele><time>2026-05-01T15:19:40.524Z</time></trkpt><trkpt lat="42.2905469" lon="14.1132064"><ele>219.0</ele><time>2026-05-01T15:19:41.528Z</time></trkpt><trkpt lat="42.2904948" lon="14.113042"><ele>221.5</ele><time>2026-05-01T15:19:42.529Z</time></trkpt><trkpt lat="42.2904516" lon="14.1128573"><ele>224.0</ele><time>2026-05-01T15:19:43.526Z</time></trkpt><trkpt lat="42.2903993" lon="14.1126658"><ele>224.0</ele><time>2026-05-01T15:19:44.526Z</time></trkpt><trkpt lat="42.2903524" lon="14.112468"><ele>224.0</ele><time>2026-05-01T15:19:45.527Z</time></trkpt><trkpt lat="42.2903128" lon="14.1122729"><ele>224.0</ele><time>2026-05-01T15:19:46.53Z</time></trkpt><trkpt lat="42.2902759" lon="14.1120793"><ele>222.75</ele><time>2026-05-01T15:19:47.525Z</time></trkpt><trkpt lat="42.2902428" lon="14.1118874"><ele>221.5</ele><time>2026-05-01T15:19:48.53Z</time></trkpt><trkpt lat="42.2902021" lon="14.1116893"><ele>220.25</ele><time>2026-05-01T15:19:49.529Z</time></trkpt><trkpt lat="42.2901703" lon="14.1115006"><ele>219.0</ele><time>2026-05-01T15:19:50.523Z</time></trkpt><trkpt lat="42.2901375" lon="14.1113211"><ele>217.25</ele><time>2026-05-01T15:19:51.527Z</time></trkpt><trkpt lat="42.2901366" lon="14.1111464"><ele>215.5</ele><time>2026-05-01T15:19:52.521Z</time></trkpt><trkpt lat="42.2901521" lon="14.1109743"><ele>213.75</ele><time>2026-05-01T15:19:53.519Z</time></trkpt><trkpt lat="42.290196" lon="14.1108142"><ele>212.0</ele><time>2026-05-01T15:19:54.526Z</time></trkpt><trkpt lat="42.2902566" lon="14.1106547"><ele>212.39999999999998</ele><time>2026-05-01T15:19:55.517Z</time></trkpt><trkpt lat="42.2903094" lon="14.1105101"><ele>212.79999999999998</ele><time>2026-05-01T15:19:56.524Z</time></trkpt><trkpt lat="42.2903539" lon="14.1103776"><ele>213.2</ele><time>2026-05-01T15:19:57.522Z</time></trkpt><trkpt lat="42.2904252" lon="14.1102734"><ele>213.6</ele><time>2026-05-01T15:19:58.533Z</time></trkpt><trkpt lat="42.2905198" lon="14.1101943"><ele>214.0</ele><time>2026-05-01T15:19:59.525Z</time></trkpt><trkpt lat="42.2906323" lon="14.1101352"><ele>214.0</ele><time>2026-05-01T15:20:00.53Z</time></trkpt><trkpt lat="42.2907551" lon="14.1100532"><ele>214.0</ele><time>2026-05-01T15:20:01.526Z</time></trkpt><trkpt lat="42.2908658" lon="14.1099408"><ele>214.0</ele><time>2026-05-01T15:20:02.549Z</time></trkpt><trkpt lat="42.2909782" lon="14.1098305"><ele>214.0</ele><time>2026-05-01T15:20:03.615Z</time></trkpt><trkpt lat="42.291086" lon="14.1097155"><ele>212.25</ele><time>2026-05-01T15:20:04.617Z</time></trkpt><trkpt lat="42.2911831" lon="14.1095999"><ele>210.5</ele><time>2026-05-01T15:20:05.616Z</time></trkpt><trkpt lat="42.291275" lon="14.1094857"><ele>208.75</ele><time>2026-05-01T15:20:06.625Z</time></trkpt><trkpt lat="42.2913669" lon="14.109388"><ele>207.0</ele><time>2026-05-01T15:20:07.615Z</time></trkpt><trkpt lat="42.29147" lon="14.1092929"><ele>211.25</ele><time>2026-05-01T15:20:08.608Z</time></trkpt><trkpt lat="42.2915865" lon="14.1092077"><ele>215.5</ele><time>2026-05-01T15:20:09.598Z</time></trkpt><trkpt lat="42.2917032" lon="14.1091308"><ele>219.75</ele><time>2026-05-01T15:20:10.594Z</time></trkpt><trkpt lat="42.2918273" lon="14.1090591"><ele>224.0</ele><time>2026-05-01T15:20:11.587Z</time></trkpt><trkpt lat="42.291946" lon="14.1089784"><ele>223.5</ele><time>2026-05-01T15:20:12.591Z</time></trkpt><trkpt lat="42.292053" lon="14.1088759"><ele>223.0</ele><time>2026-05-01T15:20:13.591Z</time></trkpt><trkpt lat="42.2921542" lon="14.108774"><ele>222.5</ele><time>2026-05-01T15:20:14.615Z</time></trkpt><trkpt lat="42.2922528" lon="14.1086659"><ele>222.0</ele><time>2026-05-01T15:20:15.605Z</time></trkpt><trkpt lat="42.2923459" lon="14.1085451"><ele>222.0</ele><time>2026-05-01T15:20:16.606Z</time></trkpt><trkpt lat="42.2924304" lon="14.1084054"><ele>222.0</ele><time>2026-05-01T15:20:17.604Z</time></trkpt><trkpt lat="42.292507" lon="14.1082464"><ele>222.0</ele><time>2026-05-01T15:20:18.584Z</time></trkpt><trkpt lat="42.2925793" lon="14.1080816"><ele>222.0</ele><time>2026-05-01T15:20:19.597Z</time></trkpt><trkpt lat="42.2926496" lon="14.1079143"><ele>223.25</ele><time>2026-05-01T15:20:20.602Z</time></trkpt><trkpt lat="42.2927149" lon="14.1077516"><ele>224.5</ele><time>2026-05-01T15:20:21.599Z</time></trkpt><trkpt lat="42.2927764" lon="14.1075844"><ele>225.75</ele><time>2026-05-01T15:20:22.617Z</time></trkpt><trkpt lat="42.2928362" lon="14.1074103"><ele>227.0</ele><time>2026-05-01T15:20:23.62Z</time></trkpt><trkpt lat="42.2928978" lon="14.107228"><ele>228.0</ele><time>2026-05-01T15:20:24.622Z</time></trkpt><trkpt lat="42.2929657" lon="14.1070451"><ele>229.0</ele><time>2026-05-01T15:20:25.616Z</time></trkpt><trkpt lat="42.2930346" lon="14.1068598"><ele>230.0</ele><time>2026-05-01T15:20:26.62Z</time></trkpt><trkpt lat="42.2931001" lon="14.10668"><ele>226.75</ele><time>2026-05-01T15:20:27.626Z</time></trkpt><trkpt lat="42.2931631" lon="14.1065063"><ele>223.5</ele><time>2026-05-01T15:20:28.626Z</time></trkpt><trkpt lat="42.2932247" lon="14.1063426"><ele>220.25</ele><time>2026-05-01T15:20:29.628Z</time></trkpt><trkpt lat="42.2932946" lon="14.1061903"><ele>217.0</ele><time>2026-05-01T15:20:30.62Z</time></trkpt><trkpt lat="42.2933694" lon="14.1060501"><ele>217.0</ele><time>2026-05-01T15:20:31.619Z</time></trkpt><trkpt lat="42.2934532" lon="14.1059206"><ele>217.0</ele><time>2026-05-01T15:20:32.608Z</time></trkpt><trkpt lat="42.2935441" lon="14.1057934"><ele>217.0</ele><time>2026-05-01T15:20:33.605Z</time></trkpt><trkpt lat="42.2936393" lon="14.1056648"><ele>217.0</ele><time>2026-05-01T15:20:34.6Z</time></trkpt><trkpt lat="42.2937323" lon="14.1055334"><ele>217.75</ele><time>2026-05-01T15:20:35.605Z</time></trkpt><trkpt lat="42.2938267" lon="14.1053947"><ele>218.5</ele><time>2026-05-01T15:20:36.621Z</time></trkpt><trkpt lat="42.2939165" lon="14.1052436"><ele>219.25</ele><time>2026-05-01T15:20:37.624Z</time></trkpt><trkpt lat="42.2940021" lon="14.1050831"><ele>220.0</ele><time>2026-05-01T15:20:38.62Z</time></trkpt><trkpt lat="42.2940829" lon="14.1049215"><ele>217.25</ele><time>2026-05-01T15:20:39.627Z</time></trkpt><trkpt lat="42.2941642" lon="14.1047584"><ele>214.5</ele><time>2026-05-01T15:20:40.626Z</time></trkpt><trkpt lat="42.2942457" lon="14.1046002"><ele>211.75</ele><time>2026-05-01T15:20:41.629Z</time></trkpt><trkpt lat="42.2943275" lon="14.104441"><ele>209.0</ele><time>2026-05-01T15:20:42.628Z</time></trkpt><trkpt lat="42.2944073" lon="14.1042818"><ele>209.0</ele><time>2026-05-01T15:20:43.627Z</time></trkpt><trkpt lat="42.2944861" lon="14.1041213"><ele>209.0</ele><time>2026-05-01T15:20:44.625Z</time></trkpt><trkpt lat="42.2945649" lon="14.1039637"><ele>209.0</ele><time>2026-05-01T15:20:45.626Z</time></trkpt><trkpt lat="42.2946412" lon="14.1038018"><ele>209.0</ele><time>2026-05-01T15:20:46.628Z</time></trkpt><trkpt lat="42.2947166" lon="14.1036358"><ele>207.75</ele><time>2026-05-01T15:20:47.627Z</time></trkpt><trkpt lat="42.2947934" lon="14.1034727"><ele>206.5</ele><time>2026-05-01T15:20:48.626Z</time></trkpt><trkpt lat="42.2948679" lon="14.1033127"><ele>205.25</ele><time>2026-05-01T15:20:49.626Z</time></trkpt><trkpt lat="42.2949455" lon="14.1031518"><ele>204.0</ele><time>2026-05-01T15:20:50.631Z</time></trkpt><trkpt lat="42.2950213" lon="14.102994"><ele>204.0</ele><time>2026-05-01T15:20:51.626Z</time></trkpt><trkpt lat="42.2950998" lon="14.1028431"><ele>204.0</ele><time>2026-05-01T15:20:52.626Z</time></trkpt><trkpt lat="42.2951815" lon="14.1026942"><ele>204.0</ele><time>2026-05-01T15:20:53.632Z</time></trkpt><trkpt lat="42.2952678" lon="14.1025449"><ele>204.0</ele><time>2026-05-01T15:20:54.634Z</time></trkpt><trkpt lat="42.2953557" lon="14.1023975"><ele>203.75</ele><time>2026-05-01T15:20:55.627Z</time></trkpt><trkpt lat="42.2954475" lon="14.1022563"><ele>203.5</ele><time>2026-05-01T15:20:56.624Z</time></trkpt><trkpt lat="42.2955414" lon="14.102123"><ele>203.25</ele><time>2026-05-01T15:20:57.624Z</time></trkpt><trkpt lat="42.2956413" lon="14.1019931"><ele>203.0</ele><time>2026-05-01T15:20:58.629Z</time></trkpt><trkpt lat="42.2957486" lon="14.1018664"><ele>202.75</ele><time>2026-05-01T15:20:59.628Z</time></trkpt><trkpt lat="42.2958642" lon="14.1017399"><ele>202.5</ele><time>2026-05-01T15:21:00.632Z</time></trkpt><trkpt lat="42.2959716" lon="14.1015992"><ele>202.25</ele><time>2026-05-01T15:21:01.622Z</time></trkpt><trkpt lat="42.2960728" lon="14.101448"><ele>202.0</ele><time>2026-05-01T15:21:02.628Z</time></trkpt><trkpt lat="42.2961713" lon="14.1012989"><ele>202.75</ele><time>2026-05-01T15:21:03.632Z</time></trkpt><trkpt lat="42.2962697" lon="14.1011579"><ele>203.5</ele><time>2026-05-01T15:21:04.635Z</time></trkpt><trkpt lat="42.2963705" lon="14.1010275"><ele>204.25</ele><time>2026-05-01T15:21:05.632Z</time></trkpt><trkpt lat="42.2964739" lon="14.1008889"><ele>205.0</ele><time>2026-05-01T15:21:06.634Z</time></trkpt><trkpt lat="42.2965838" lon="14.1007618"><ele>203.75</ele><time>2026-05-01T15:21:07.625Z</time></trkpt><trkpt lat="42.2966954" lon="14.1006426"><ele>202.5</ele><time>2026-05-01T15:21:08.626Z</time></trkpt><trkpt lat="42.2968118" lon="14.1005346"><ele>201.25</ele><time>2026-05-01T15:21:09.634Z</time></trkpt><trkpt lat="42.2969277" lon="14.1004208"><ele>200.0</ele><time>2026-05-01T15:21:10.614Z</time></trkpt><trkpt lat="42.2970382" lon="14.1002992"><ele>200.0</ele><time>2026-05-01T15:21:11.607Z</time></trkpt><trkpt lat="42.2971519" lon="14.1001653"><ele>200.0</ele><time>2026-05-01T15:21:12.611Z</time></trkpt><trkpt lat="42.2972507" lon="14.1000184"><ele>200.0</ele><time>2026-05-01T15:21:13.613Z</time></trkpt><trkpt lat="42.2973465" lon="14.0998654"><ele>200.0</ele><time>2026-05-01T15:21:14.628Z</time></trkpt><trkpt lat="42.2974366" lon="14.0997105"><ele>196.0</ele><time>2026-05-01T15:21:15.627Z</time></trkpt><trkpt lat="42.2975044" lon="14.0995478"><ele>192.0</ele><time>2026-05-01T15:21:16.624Z</time></trkpt><trkpt lat="42.2975586" lon="14.0993771"><ele>188.0</ele><time>2026-05-01T15:21:17.626Z</time></trkpt><trkpt lat="42.297597" lon="14.0991974"><ele>184.0</ele><time>2026-05-01T15:21:18.61Z</time></trkpt><trkpt lat="42.2976194" lon="14.098998"><ele>182.75</ele><time>2026-05-01T15:21:19.608Z</time></trkpt><trkpt lat="42.2976312" lon="14.0987993"><ele>181.5</ele><time>2026-05-01T15:21:20.61Z</time></trkpt><trkpt lat="42.297637" lon="14.0986058"><ele>180.25</ele><time>2026-05-01T15:21:21.617Z</time></trkpt><trkpt lat="42.297641" lon="14.0984412"><ele>179.0</ele><time>2026-05-01T15:21:22.627Z</time></trkpt><trkpt lat="42.2976432" lon="14.0983035"><ele>179.16666666666666</ele><time>2026-05-01T15:21:23.618Z</time></trkpt><trkpt lat="42.2976449" lon="14.0981767"><ele>179.33333333333331</ele><time>2026-05-01T15:21:24.623Z</time></trkpt><trkpt lat="42.2976554" lon="14.0980686"><ele>179.5</ele><time>2026-05-01T15:21:25.62Z</time></trkpt><trkpt lat="42.2976674" lon="14.0979649"><ele>179.66666666666666</ele><time>2026-05-01T15:21:26.632Z</time></trkpt><trkpt lat="42.2976838" lon="14.0978613"><ele>179.83333333333334</ele><time>2026-05-01T15:21:27.625Z</time></trkpt><trkpt lat="42.2977071" lon="14.0977628"><ele>180.0</ele><time>2026-05-01T15:21:28.615Z</time></trkpt><trkpt lat="42.2977263" lon="14.0976764"><ele>180.0</ele><time>2026-05-01T15:21:29.613Z</time></trkpt><trkpt lat="42.2978038" lon="14.0976734"><ele>180.0</ele><time>2026-05-01T15:21:32.536Z</time></trkpt><trkpt lat="42.2978008" lon="14.0978289"><ele>180.0</ele><time>2026-05-01T15:21:34.538Z</time></trkpt><trkpt lat="42.2977961" lon="14.0979204"><ele>180.0</ele><time>2026-05-01T15:21:35.525Z</time></trkpt><trkpt lat="42.2978206" lon="14.0980094"><ele>180.0</ele><time>2026-05-01T15:21:36.535Z</time></trkpt><trkpt lat="42.297879" lon="14.0980904"><ele>180.0</ele><time>2026-05-01T15:21:37.532Z</time></trkpt><trkpt lat="42.2979599" lon="14.0981242"><ele>180.0</ele><time>2026-05-01T15:21:38.531Z</time></trkpt><trkpt lat="42.2980373" lon="14.0981452"><ele>180.0</ele><time>2026-05-01T15:21:39.534Z</time></trkpt><trkpt lat="42.298108" lon="14.0981809"><ele>180.0</ele><time>2026-05-01T15:21:40.527Z</time></trkpt><trkpt lat="42.2981722" lon="14.0982294"><ele>180.0</ele><time>2026-05-01T15:21:41.521Z</time></trkpt><trkpt lat="42.2982218" lon="14.098298"><ele>180.0</ele><time>2026-05-01T15:21:42.524Z</time></trkpt><trkpt lat="42.2982631" lon="14.0983635"><ele>180.0</ele><time>2026-05-01T15:21:43.522Z</time></trkpt><trkpt lat="42.2983202" lon="14.0984249"><ele>180.0</ele><time>2026-05-01T15:21:44.531Z</time></trkpt><trkpt lat="42.2983929" lon="14.0984732"><ele>176.0</ele><time>2026-05-01T15:21:45.532Z</time></trkpt><trkpt lat="42.2984715" lon="14.0985286"><ele>172.0</ele><time>2026-05-01T15:21:46.522Z</time></trkpt><trkpt lat="42.2985655" lon="14.0985921"><ele>168.0</ele><time>2026-05-01T15:21:47.526Z</time></trkpt><trkpt lat="42.2986551" lon="14.0986411"><ele>164.0</ele><time>2026-05-01T15:21:48.531Z</time></trkpt><trkpt lat="42.298747" lon="14.0986605"><ele>160.0</ele><time>2026-05-01T15:21:49.533Z</time></trkpt><trkpt lat="42.2988489" lon="14.0986827"><ele>155.8</ele><time>2026-05-01T15:21:50.537Z</time></trkpt><trkpt lat="42.2989529" lon="14.0987042"><ele>151.6</ele><time>2026-05-01T15:21:51.538Z</time></trkpt><trkpt lat="42.2990626" lon="14.0987274"><ele>147.4</ele><time>2026-05-01T15:21:52.539Z</time></trkpt><trkpt lat="42.2991783" lon="14.098748"><ele>143.2</ele><time>2026-05-01T15:21:53.549Z</time></trkpt><trkpt lat="42.299291" lon="14.0987679"><ele>139.0</ele><time>2026-05-01T15:21:54.547Z</time></trkpt><trkpt lat="42.2994058" lon="14.0987875"><ele>139.0</ele><time>2026-05-01T15:21:55.541Z</time></trkpt><trkpt lat="42.299516" lon="14.0987832"><ele>139.0</ele><time>2026-05-01T15:21:56.537Z</time></trkpt><trkpt lat="42.2996282" lon="14.0987763"><ele>139.0</ele><time>2026-05-01T15:21:57.545Z</time></trkpt><trkpt lat="42.2997366" lon="14.0987545"><ele>139.0</ele><time>2026-05-01T15:21:58.544Z</time></trkpt><trkpt lat="42.2998421" lon="14.0987296"><ele>139.0</ele><time>2026-05-01T15:21:59.545Z</time></trkpt><trkpt lat="42.2999449" lon="14.0987102"><ele>135.75</ele><time>2026-05-01T15:22:00.544Z</time></trkpt><trkpt lat="42.300048" lon="14.0986871"><ele>132.5</ele><time>2026-05-01T15:22:01.543Z</time></trkpt><trkpt lat="42.3001542" lon="14.0986402"><ele>129.25</ele><time>2026-05-01T15:22:02.547Z</time></trkpt><trkpt lat="42.300267" lon="14.0985882"><ele>126.0</ele><time>2026-05-01T15:22:03.539Z</time></trkpt><trkpt lat="42.3003677" lon="14.0985065"><ele>126.0</ele><time>2026-05-01T15:22:04.54Z</time></trkpt><trkpt lat="42.3004673" lon="14.0984128"><ele>126.0</ele><time>2026-05-01T15:22:05.542Z</time></trkpt><trkpt lat="42.300569" lon="14.0983242"><ele>126.0</ele><time>2026-05-01T15:22:06.536Z</time></trkpt><trkpt lat="42.3006508" lon="14.0982298"><ele>126.0</ele><time>2026-05-01T15:22:07.541Z</time></trkpt><trkpt lat="42.3007325" lon="14.0981336"><ele>123.0</ele><time>2026-05-01T15:22:08.54Z</time></trkpt><trkpt lat="42.3008189" lon="14.0980451"><ele>120.0</ele><time>2026-05-01T15:22:09.546Z</time></trkpt><trkpt lat="42.3009031" lon="14.0979663"><ele>117.0</ele><time>2026-05-01T15:22:10.547Z</time></trkpt><trkpt lat="42.300999" lon="14.0979077"><ele>114.0</ele><time>2026-05-01T15:22:11.535Z</time></trkpt><trkpt lat="42.3011034" lon="14.0978647"><ele>111.0</ele><time>2026-05-01T15:22:12.547Z</time></trkpt><trkpt lat="42.3012204" lon="14.0978334"><ele>111.0</ele><time>2026-05-01T15:22:13.543Z</time></trkpt><trkpt lat="42.3013283" lon="14.0978085"><ele>111.0</ele><time>2026-05-01T15:22:14.534Z</time></trkpt><trkpt lat="42.3014328" lon="14.0978125"><ele>111.0</ele><time>2026-05-01T15:22:15.541Z</time></trkpt><trkpt lat="42.3015187" lon="14.0978183"><ele>111.0</ele><time>2026-05-01T15:22:16.544Z</time></trkpt><trkpt lat="42.3015918" lon="14.0978243"><ele>111.0</ele><time>2026-05-01T15:22:17.534Z</time></trkpt><trkpt lat="42.3016648" lon="14.09782"><ele>111.0</ele><time>2026-05-01T15:22:19.542Z</time></trkpt><trkpt lat="42.3016881" lon="14.0976929"><ele>110.0</ele><time>2026-05-01T15:22:21.554Z</time></trkpt><trkpt lat="42.3016861" lon="14.0975853"><ele>109.0</ele><time>2026-05-01T15:22:22.533Z</time></trkpt><trkpt lat="42.3017013" lon="14.0974493"><ele>108.0</ele><time>2026-05-01T15:22:23.535Z</time></trkpt><trkpt lat="42.3017278" lon="14.097297"><ele>107.0</ele><time>2026-05-01T15:22:24.539Z</time></trkpt><trkpt lat="42.3017572" lon="14.0971395"><ele>106.0</ele><time>2026-05-01T15:22:25.537Z</time></trkpt><trkpt lat="42.3017828" lon="14.0969661"><ele>105.75</ele><time>2026-05-01T15:22:26.538Z</time></trkpt><trkpt lat="42.3018115" lon="14.0967865"><ele>105.5</ele><time>2026-05-01T15:22:27.547Z</time></trkpt><trkpt lat="42.3018432" lon="14.0966056"><ele>105.25</ele><time>2026-05-01T15:22:28.538Z</time></trkpt><trkpt lat="42.3018733" lon="14.0964037"><ele>105.0</ele><time>2026-05-01T15:22:29.537Z</time></trkpt><trkpt lat="42.3019006" lon="14.0961957"><ele>105.33333333333334</ele><time>2026-05-01T15:22:30.547Z</time></trkpt><trkpt lat="42.3019301" lon="14.095977"><ele>105.66666666666667</ele><time>2026-05-01T15:22:31.549Z</time></trkpt><trkpt lat="42.3019623" lon="14.0957613"><ele>106.0</ele><time>2026-05-01T15:22:32.545Z</time></trkpt><trkpt lat="42.3019937" lon="14.0955478"><ele>106.0</ele><time>2026-05-01T15:22:33.549Z</time></trkpt><trkpt lat="42.3020209" lon="14.0953423"><ele>106.0</ele><time>2026-05-01T15:22:34.545Z</time></trkpt><trkpt lat="42.3020413" lon="14.0951552"><ele>106.0</ele><time>2026-05-01T15:22:35.543Z</time></trkpt><trkpt lat="42.3020585" lon="14.094985"><ele>106.0</ele><time>2026-05-01T15:22:36.554Z</time></trkpt><trkpt lat="42.3020606" lon="14.0948346"><ele>105.8</ele><time>2026-05-01T15:22:37.536Z</time></trkpt><trkpt lat="42.3020619" lon="14.0946986"><ele>105.6</ele><time>2026-05-01T15:22:38.539Z</time></trkpt><trkpt lat="42.3020428" lon="14.0945651"><ele>105.4</ele><time>2026-05-01T15:22:39.54Z</time></trkpt><trkpt lat="42.3019957" lon="14.0944189"><ele>105.2</ele><time>2026-05-01T15:22:40.538Z</time></trkpt><trkpt lat="42.3019629" lon="14.094271"><ele>105.0</ele><time>2026-05-01T15:22:41.542Z</time></trkpt><trkpt lat="42.3019434" lon="14.0941207"><ele>105.2</ele><time>2026-05-01T15:22:42.545Z</time></trkpt><trkpt lat="42.3019212" lon="14.0939798"><ele>105.4</ele><time>2026-05-01T15:22:43.53Z</time></trkpt><trkpt lat="42.3018719" lon="14.0938651"><ele>105.6</ele><time>2026-05-01T15:22:44.545Z</time></trkpt><trkpt lat="42.3017948" lon="14.0937481"><ele>105.8</ele><time>2026-05-01T15:22:45.533Z</time></trkpt><trkpt lat="42.3017068" lon="14.0936316"><ele>106.0</ele><time>2026-05-01T15:22:46.543Z</time></trkpt><trkpt lat="42.3016455" lon="14.0935258"><ele>106.00000000000001</ele><time>2026-05-01T15:22:47.526Z</time></trkpt><trkpt lat="42.3016323" lon="14.0934156"><ele>106.0</ele><time>2026-05-01T15:22:48.539Z</time></trkpt><trkpt lat="42.3016551" lon="14.0933289"><ele>106.0</ele><time>2026-05-01T15:22:49.517Z</time></trkpt><trkpt lat="42.3017179" lon="14.0932752"><ele>106.0</ele><time>2026-05-01T15:22:50.538Z</time></trkpt><trkpt lat="42.301804" lon="14.0932391"><ele>106.00000000000001</ele><time>2026-05-01T15:22:51.528Z</time></trkpt><trkpt lat="42.3019084" lon="14.0932074"><ele>106.0</ele><time>2026-05-01T15:22:52.529Z</time></trkpt><trkpt lat="42.3020173" lon="14.0931671"><ele>108.25</ele><time>2026-05-01T15:22:53.542Z</time></trkpt><trkpt lat="42.3021314" lon="14.0931275"><ele>110.5</ele><time>2026-05-01T15:22:54.539Z</time></trkpt><trkpt lat="42.3022498" lon="14.0930763"><ele>112.75</ele><time>2026-05-01T15:22:55.53Z</time></trkpt><trkpt lat="42.3023767" lon="14.0930132"><ele>115.0</ele><time>2026-05-01T15:22:56.542Z</time></trkpt><trkpt lat="42.3024927" lon="14.0929483"><ele>115.0</ele><time>2026-05-01T15:22:57.543Z</time></trkpt><trkpt lat="42.3025995" lon="14.0928796"><ele>115.0</ele><time>2026-05-01T15:22:58.544Z</time></trkpt><trkpt lat="42.3027055" lon="14.0928179"><ele>115.0</ele><time>2026-05-01T15:22:59.545Z</time></trkpt><trkpt lat="42.3028096" lon="14.0927643"><ele>115.0</ele><time>2026-05-01T15:23:00.547Z</time></trkpt><trkpt lat="42.3029044" lon="14.0926908"><ele>115.0</ele><time>2026-05-01T15:23:01.542Z</time></trkpt><trkpt lat="42.3030015" lon="14.0925749"><ele>115.0</ele><time>2026-05-01T15:23:02.541Z</time></trkpt><trkpt lat="42.3030987" lon="14.092436"><ele>115.0</ele><time>2026-05-01T15:23:03.542Z</time></trkpt><trkpt lat="42.3032011" lon="14.092287"><ele>115.0</ele><time>2026-05-01T15:23:04.543Z</time></trkpt><trkpt lat="42.3032971" lon="14.092138"><ele>114.0</ele><time>2026-05-01T15:23:05.541Z</time></trkpt><trkpt lat="42.3034191" lon="14.0920016"><ele>113.0</ele><time>2026-05-01T15:23:06.552Z</time></trkpt><trkpt lat="42.3035295" lon="14.091893"><ele>112.0</ele><time>2026-05-01T15:23:07.534Z</time></trkpt><trkpt lat="42.3036527" lon="14.0918022"><ele>111.0</ele><time>2026-05-01T15:23:08.536Z</time></trkpt><trkpt lat="42.3037801" lon="14.0917236"><ele>111.25</ele><time>2026-05-01T15:23:09.536Z</time></trkpt><trkpt lat="42.3039191" lon="14.0916496"><ele>111.5</ele><time>2026-05-01T15:23:10.538Z</time></trkpt><trkpt lat="42.3040571" lon="14.0915856"><ele>111.75</ele><time>2026-05-01T15:23:11.537Z</time></trkpt><trkpt lat="42.3041879" lon="14.0915168"><ele>112.0</ele><time>2026-05-01T15:23:12.537Z</time></trkpt><trkpt lat="42.30432" lon="14.0914492"><ele>112.0</ele><time>2026-05-01T15:23:13.537Z</time></trkpt><trkpt lat="42.3044542" lon="14.0913589"><ele>112.0</ele><time>2026-05-01T15:23:14.533Z</time></trkpt><trkpt lat="42.3046014" lon="14.0912774"><ele>112.0</ele><time>2026-05-01T15:23:15.537Z</time></trkpt><trkpt lat="42.3047406" lon="14.091201"><ele>109.0</ele><time>2026-05-01T15:23:16.544Z</time></trkpt><trkpt lat="42.3048638" lon="14.0911291"><ele>106.0</ele><time>2026-05-01T15:23:17.536Z</time></trkpt><trkpt lat="42.3049883" lon="14.0910464"><ele>103.0</ele><time>2026-05-01T15:23:18.539Z</time></trkpt><trkpt lat="42.3051156" lon="14.090959"><ele>100.0</ele><time>2026-05-01T15:23:19.542Z</time></trkpt><trkpt lat="42.3052383" lon="14.090879"><ele>100.0</ele><time>2026-05-01T15:23:20.54Z</time></trkpt><trkpt lat="42.3053452" lon="14.0908064"><ele>100.0</ele><time>2026-05-01T15:23:21.545Z</time></trkpt><trkpt lat="42.3054491" lon="14.0907475"><ele>100.0</ele><time>2026-05-01T15:23:22.545Z</time></trkpt><trkpt lat="42.305547" lon="14.0906906"><ele>100.0</ele><time>2026-05-01T15:23:23.545Z</time></trkpt><trkpt lat="42.3056428" lon="14.0906237"><ele>100.0</ele><time>2026-05-01T15:23:24.545Z</time></trkpt><trkpt lat="42.3057438" lon="14.0905612"><ele>99.2</ele><time>2026-05-01T15:23:25.537Z</time></trkpt><trkpt lat="42.3058269" lon="14.090501"><ele>98.4</ele><time>2026-05-01T15:23:26.547Z</time></trkpt><trkpt lat="42.3059065" lon="14.0904272"><ele>97.6</ele><time>2026-05-01T15:23:27.539Z</time></trkpt><trkpt lat="42.3059855" lon="14.0903687"><ele>96.8</ele><time>2026-05-01T15:23:28.538Z</time></trkpt><trkpt lat="42.3060737" lon="14.0903048"><ele>96.0</ele><time>2026-05-01T15:23:29.543Z</time></trkpt><trkpt lat="42.3061647" lon="14.090229"><ele>96.0</ele><time>2026-05-01T15:23:30.542Z</time></trkpt><trkpt lat="42.3062508" lon="14.0901433"><ele>96.0</ele><time>2026-05-01T15:23:31.535Z</time></trkpt><trkpt lat="42.3063343" lon="14.0900419"><ele>96.0</ele><time>2026-05-01T15:23:32.542Z</time></trkpt><trkpt lat="42.3064063" lon="14.0899179"><ele>96.0</ele><time>2026-05-01T15:23:33.534Z</time></trkpt><trkpt lat="42.3064615" lon="14.0897964"><ele>96.0</ele><time>2026-05-01T15:23:34.545Z</time></trkpt><trkpt lat="42.306513" lon="14.08968"><ele>95.5</ele><time>2026-05-01T15:23:35.541Z</time></trkpt><trkpt lat="42.3065543" lon="14.0895609"><ele>95.0</ele><time>2026-05-01T15:23:36.55Z</time></trkpt><trkpt lat="42.3065886" lon="14.089464"><ele>94.5</ele><time>2026-05-01T15:23:37.54Z</time></trkpt><trkpt lat="42.3066378" lon="14.0894026"><ele>94.0</ele><time>2026-05-01T15:23:38.536Z</time></trkpt><trkpt lat="42.3067044" lon="14.0893696"><ele>93.5</ele><time>2026-05-01T15:23:39.525Z</time></trkpt><trkpt lat="42.3067871" lon="14.089367"><ele>93.0</ele><time>2026-05-01T15:23:40.546Z</time></trkpt><trkpt lat="42.306886" lon="14.0894"><ele>93.0</ele><time>2026-05-01T15:23:41.541Z</time></trkpt><trkpt lat="42.3069784" lon="14.0894557"><ele>93.0</ele><time>2026-05-01T15:23:42.542Z</time></trkpt><trkpt lat="42.3070632" lon="14.0895079"><ele>93.0</ele><time>2026-05-01T15:23:43.54Z</time></trkpt><trkpt lat="42.3071427" lon="14.0895453"><ele>93.0</ele><time>2026-05-01T15:23:44.536Z</time></trkpt><trkpt lat="42.3072175" lon="14.0895824"><ele>93.0</ele><time>2026-05-01T15:23:45.536Z</time></trkpt><trkpt lat="42.3072805" lon="14.0896133"><ele>93.0</ele><time>2026-05-01T15:23:46.538Z</time></trkpt><trkpt lat="42.3073446" lon="14.0896259"><ele>92.80000000000001</ele><time>2026-05-01T15:23:47.53Z</time></trkpt><trkpt lat="42.3074429" lon="14.0896184"><ele>92.6</ele><time>2026-05-01T15:23:49.532Z</time></trkpt><trkpt lat="42.3075186" lon="14.0896082"><ele>92.4</ele><time>2026-05-01T15:23:52.547Z</time></trkpt><trkpt lat="42.3075922" lon="14.0896479"><ele>92.19999999999999</ele><time>2026-05-01T15:24:14.548Z</time></trkpt><trkpt lat="42.3077285" lon="14.0897024"><ele>92.0</ele><time>2026-05-01T15:24:16.54Z</time></trkpt><trkpt lat="42.3078412" lon="14.0897555"><ele>92.0</ele><time>2026-05-01T15:24:17.556Z</time></trkpt><trkpt lat="42.3079519" lon="14.0897956"><ele>92.0</ele><time>2026-05-01T15:24:18.618Z</time></trkpt><trkpt lat="42.3080857" lon="14.0898344"><ele>92.0</ele><time>2026-05-01T15:24:19.622Z</time></trkpt><trkpt lat="42.3081995" lon="14.0898667"><ele>92.0</ele><time>2026-05-01T15:24:20.622Z</time></trkpt><trkpt lat="42.3083329" lon="14.0899059"><ele>89.5</ele><time>2026-05-01T15:24:21.626Z</time></trkpt><trkpt lat="42.3084557" lon="14.0899482"><ele>87.0</ele><time>2026-05-01T15:24:22.629Z</time></trkpt><trkpt lat="42.3085829" lon="14.0899875"><ele>84.5</ele><time>2026-05-01T15:24:23.633Z</time></trkpt><trkpt lat="42.3086909" lon="14.0900258"><ele>82.0</ele><time>2026-05-01T15:24:24.641Z</time></trkpt><trkpt lat="42.3087907" lon="14.0900622"><ele>82.0</ele><time>2026-05-01T15:24:25.624Z</time></trkpt><trkpt lat="42.3088656" lon="14.0900842"><ele>82.0</ele><time>2026-05-01T15:24:26.614Z</time></trkpt><trkpt lat="42.3089623" lon="14.0901162"><ele>82.0</ele><time>2026-05-01T15:24:28.538Z</time></trkpt><trkpt lat="42.3090493" lon="14.0901138"><ele>82.0</ele><time>2026-05-01T15:24:33.537Z</time></trkpt><trkpt lat="42.3091143" lon="14.0901677"><ele>82.0</ele><time>2026-05-01T15:24:35.534Z</time></trkpt><trkpt lat="42.3091841" lon="14.0902881"><ele>81.19999999999999</ele><time>2026-05-01T15:24:37.535Z</time></trkpt><trkpt lat="42.3092435" lon="14.0904647"><ele>80.39999999999999</ele><time>2026-05-01T15:24:39.526Z</time></trkpt><trkpt lat="42.3092676" lon="14.0905765"><ele>79.6</ele><time>2026-05-01T15:24:40.531Z</time></trkpt><trkpt lat="42.3092837" lon="14.0906764"><ele>78.8</ele><time>2026-05-01T15:24:41.53Z</time></trkpt><trkpt lat="42.3092971" lon="14.0907697"><ele>78.0</ele><time>2026-05-01T15:24:42.534Z</time></trkpt><trkpt lat="42.3093511" lon="14.0909081"><ele>77.66666666666667</ele><time>2026-05-01T15:24:44.541Z</time></trkpt><trkpt lat="42.309447" lon="14.0909788"><ele>77.33333333333333</ele><time>2026-05-01T15:24:46.547Z</time></trkpt><trkpt lat="42.309507" lon="14.0910135"><ele>77.0</ele><time>2026-05-01T15:24:47.545Z</time></trkpt><trkpt lat="42.3095625" lon="14.0910628"><ele>76.66666666666666</ele><time>2026-05-01T15:24:48.551Z</time></trkpt><trkpt lat="42.309613" lon="14.0911282"><ele>76.33333333333333</ele><time>2026-05-01T15:24:49.545Z</time></trkpt><trkpt lat="42.3096636" lon="14.0911993"><ele>76.0</ele><time>2026-05-01T15:24:50.549Z</time></trkpt><trkpt lat="42.3097186" lon="14.0912707"><ele>76.83333333333333</ele><time>2026-05-01T15:24:51.548Z</time></trkpt><trkpt lat="42.309777" lon="14.0913523"><ele>77.66666666666666</ele><time>2026-05-01T15:24:52.548Z</time></trkpt><trkpt lat="42.3098435" lon="14.0914397"><ele>78.5</ele><time>2026-05-01T15:24:53.552Z</time></trkpt><trkpt lat="42.3099014" lon="14.0915267"><ele>79.33333333333333</ele><time>2026-05-01T15:24:54.55Z</time></trkpt><trkpt lat="42.3099473" lon="14.0916097"><ele>80.16666666666667</ele><time>2026-05-01T15:24:55.542Z</time></trkpt><trkpt lat="42.3100007" lon="14.0917067"><ele>81.0</ele><time>2026-05-01T15:24:56.547Z</time></trkpt><trkpt lat="42.3100513" lon="14.0918106"><ele>82.0</ele><time>2026-05-01T15:24:57.54Z</time></trkpt><trkpt lat="42.3101118" lon="14.0919202"><ele>83.0</ele><time>2026-05-01T15:24:58.541Z</time></trkpt><trkpt lat="42.3101724" lon="14.0920262"><ele>84.0</ele><time>2026-05-01T15:24:59.542Z</time></trkpt><trkpt lat="42.310241" lon="14.0921215"><ele>85.0</ele><time>2026-05-01T15:25:00.542Z</time></trkpt><trkpt lat="42.3103099" lon="14.0922114"><ele>86.0</ele><time>2026-05-01T15:25:01.54Z</time></trkpt><trkpt lat="42.3103819" lon="14.0923102"><ele>86.0</ele><time>2026-05-01T15:25:02.541Z</time></trkpt><trkpt lat="42.3104444" lon="14.0924177"><ele>86.0</ele><time>2026-05-01T15:25:03.542Z</time></trkpt><trkpt lat="42.3104988" lon="14.0925228"><ele>86.0</ele><time>2026-05-01T15:25:04.536Z</time></trkpt><trkpt lat="42.3105618" lon="14.0926378"><ele>86.0</ele><time>2026-05-01T15:25:05.536Z</time></trkpt><trkpt lat="42.3106281" lon="14.0927487"><ele>86.0</ele><time>2026-05-01T15:25:06.537Z</time></trkpt><trkpt lat="42.3106954" lon="14.0928566"><ele>87.19999999999999</ele><time>2026-05-01T15:25:07.536Z</time></trkpt><trkpt lat="42.3107626" lon="14.092972"><ele>88.39999999999999</ele><time>2026-05-01T15:25:08.534Z</time></trkpt><trkpt lat="42.3108383" lon="14.0930895"><ele>89.6</ele><time>2026-05-01T15:25:09.536Z</time></trkpt><trkpt lat="42.3109082" lon="14.093195"><ele>90.8</ele><time>2026-05-01T15:25:10.539Z</time></trkpt><trkpt lat="42.3109722" lon="14.0932913"><ele>92.0</ele><time>2026-05-01T15:25:11.541Z</time></trkpt><trkpt lat="42.3110331" lon="14.0933729"><ele>92.83333333333334</ele><time>2026-05-01T15:25:12.537Z</time></trkpt><trkpt lat="42.3110917" lon="14.0934502"><ele>93.66666666666667</ele><time>2026-05-01T15:25:13.539Z</time></trkpt><trkpt lat="42.3111532" lon="14.0935361"><ele>94.5</ele><time>2026-05-01T15:25:14.534Z</time></trkpt><trkpt lat="42.3112066" lon="14.0936344"><ele>95.33333333333334</ele><time>2026-05-01T15:25:15.533Z</time></trkpt><trkpt lat="42.3112642" lon="14.0937337"><ele>96.16666666666667</ele><time>2026-05-01T15:25:16.539Z</time></trkpt><trkpt lat="42.3113107" lon="14.0938236"><ele>97.0</ele><time>2026-05-01T15:25:17.538Z</time></trkpt><trkpt lat="42.3113952" lon="14.0939183"><ele>96.8</ele><time>2026-05-01T15:25:19.529Z</time></trkpt><trkpt lat="42.3114724" lon="14.0938531"><ele>96.6</ele><time>2026-05-01T15:25:22.54Z</time></trkpt><trkpt lat="42.3115136" lon="14.093712"><ele>96.39999999999999</ele><time>2026-05-01T15:25:24.541Z</time></trkpt><trkpt lat="42.3115754" lon="14.0935642"><ele>96.19999999999999</ele><time>2026-05-01T15:25:26.546Z</time></trkpt><trkpt lat="42.3116112" lon="14.0934894"><ele>96.0</ele><time>2026-05-01T15:25:27.54Z</time></trkpt><trkpt lat="42.3116502" lon="14.0933974"><ele>96.0</ele><time>2026-05-01T15:25:28.533Z</time></trkpt><trkpt lat="42.3116977" lon="14.0932958"><ele>96.0</ele><time>2026-05-01T15:25:29.538Z</time></trkpt><trkpt lat="42.3117641" lon="14.0931883"><ele>96.0</ele><time>2026-05-01T15:25:30.532Z</time></trkpt><trkpt lat="42.3118464" lon="14.0930621"><ele>96.0</ele><time>2026-05-01T15:25:31.539Z</time></trkpt><trkpt lat="42.3119291" lon="14.0929215"><ele>95.5</ele><time>2026-05-01T15:25:32.54Z</time></trkpt><trkpt lat="42.3120154" lon="14.0927627"><ele>95.0</ele><time>2026-05-01T15:25:33.539Z</time></trkpt><trkpt lat="42.3121091" lon="14.0925909"><ele>94.5</ele><time>2026-05-01T15:25:34.538Z</time></trkpt><trkpt lat="42.3121878" lon="14.0924343"><ele>94.0</ele><time>2026-05-01T15:25:35.533Z</time></trkpt><trkpt lat="42.3122559" lon="14.0923047"><ele>94.0</ele><time>2026-05-01T15:25:36.533Z</time></trkpt><trkpt lat="42.3123221" lon="14.0922074"><ele>94.0</ele><time>2026-05-01T15:25:37.535Z</time></trkpt><trkpt lat="42.3123921" lon="14.0921064"><ele>94.0</ele><time>2026-05-01T15:25:38.541Z</time></trkpt><trkpt lat="42.312464" lon="14.0920083"><ele>94.0</ele><time>2026-05-01T15:25:39.531Z</time></trkpt><trkpt lat="42.3125481" lon="14.0919262"><ele>94.0</ele><time>2026-05-01T15:25:40.529Z</time></trkpt><trkpt lat="42.3126441" lon="14.091851"><ele>94.0</ele><time>2026-05-01T15:25:41.537Z</time></trkpt><trkpt lat="42.3127474" lon="14.0917694"><ele>94.0</ele><time>2026-05-01T15:25:42.548Z</time></trkpt><trkpt lat="42.3128558" lon="14.0916745"><ele>94.0</ele><time>2026-05-01T15:25:43.55Z</time></trkpt><trkpt lat="42.3129493" lon="14.0915633"><ele>94.0</ele><time>2026-05-01T15:25:44.533Z</time></trkpt><trkpt lat="42.3130254" lon="14.091438"><ele>94.0</ele><time>2026-05-01T15:25:45.521Z</time></trkpt><trkpt lat="42.3130815" lon="14.0913006"><ele>94.0</ele><time>2026-05-01T15:25:46.549Z</time></trkpt><trkpt lat="42.3130991" lon="14.0911553"><ele>94.0</ele><time>2026-05-01T15:25:47.521Z</time></trkpt><trkpt lat="42.3131145" lon="14.0909871"><ele>94.0</ele><time>2026-05-01T15:25:48.532Z</time></trkpt><trkpt lat="42.3131326" lon="14.090789"><ele>94.0</ele><time>2026-05-01T15:25:49.532Z</time></trkpt><trkpt lat="42.313166" lon="14.0905736"><ele>94.0</ele><time>2026-05-01T15:25:50.538Z</time></trkpt><trkpt lat="42.3131891" lon="14.0903647"><ele>94.0</ele><time>2026-05-01T15:25:51.543Z</time></trkpt><trkpt lat="42.3132236" lon="14.0901852"><ele>94.0</ele><time>2026-05-01T15:25:52.534Z</time></trkpt><trkpt lat="42.3132417" lon="14.0900319"><ele>94.0</ele><time>2026-05-01T15:25:53.554Z</time></trkpt><trkpt lat="42.3132636" lon="14.0898791"><ele>94.0</ele><time>2026-05-01T15:25:54.542Z</time></trkpt><trkpt lat="42.313295" lon="14.0897212"><ele>94.0</ele><time>2026-05-01T15:25:55.538Z</time></trkpt><trkpt lat="42.3133288" lon="14.089548"><ele>93.5</ele><time>2026-05-01T15:25:56.539Z</time></trkpt><trkpt lat="42.3133657" lon="14.0893673"><ele>93.0</ele><time>2026-05-01T15:25:57.534Z</time></trkpt><trkpt lat="42.3134191" lon="14.0892094"><ele>92.5</ele><time>2026-05-01T15:25:58.541Z</time></trkpt><trkpt lat="42.3134691" lon="14.0890543"><ele>92.0</ele><time>2026-05-01T15:25:59.541Z</time></trkpt><trkpt lat="42.3135221" lon="14.0889074"><ele>91.5</ele><time>2026-05-01T15:26:00.541Z</time></trkpt><trkpt lat="42.3135666" lon="14.0887592"><ele>91.0</ele><time>2026-05-01T15:26:01.541Z</time></trkpt><trkpt lat="42.31362" lon="14.0885973"><ele>90.5</ele><time>2026-05-01T15:26:02.537Z</time></trkpt><trkpt lat="42.3136961" lon="14.088437"><ele>90.0</ele><time>2026-05-01T15:26:03.54Z</time></trkpt><trkpt lat="42.3138006" lon="14.0882832"><ele>88.0</ele><time>2026-05-01T15:26:04.534Z</time></trkpt><trkpt lat="42.3139375" lon="14.0881244"><ele>86.0</ele><time>2026-05-01T15:26:05.53Z</time></trkpt><trkpt lat="42.3140733" lon="14.0879441"><ele>84.0</ele><time>2026-05-01T15:26:06.533Z</time></trkpt><trkpt lat="42.3142088" lon="14.0877737"><ele>84.0</ele><time>2026-05-01T15:26:07.527Z</time></trkpt><trkpt lat="42.3143292" lon="14.0876154"><ele>84.0</ele><time>2026-05-01T15:26:08.53Z</time></trkpt><trkpt lat="42.3144415" lon="14.0874753"><ele>84.0</ele><time>2026-05-01T15:26:09.54Z</time></trkpt><trkpt lat="42.3145393" lon="14.0873404"><ele>83.5</ele><time>2026-05-01T15:26:10.534Z</time></trkpt><trkpt lat="42.3146393" lon="14.0872066"><ele>83.0</ele><time>2026-05-01T15:26:11.537Z</time></trkpt><trkpt lat="42.3147346" lon="14.0870942"><ele>82.5</ele><time>2026-05-01T15:26:12.54Z</time></trkpt><trkpt lat="42.3148438" lon="14.0869919"><ele>82.0</ele><time>2026-05-01T15:26:13.549Z</time></trkpt><trkpt lat="42.3149583" lon="14.0868981"><ele>81.25</ele><time>2026-05-01T15:26:14.543Z</time></trkpt><trkpt lat="42.3150588" lon="14.0868259"><ele>80.5</ele><time>2026-05-01T15:26:15.533Z</time></trkpt><trkpt lat="42.3151543" lon="14.0867567"><ele>79.75</ele><time>2026-05-01T15:26:16.536Z</time></trkpt><trkpt lat="42.3152636" lon="14.0867197"><ele>79.0</ele><time>2026-05-01T15:26:17.535Z</time></trkpt><trkpt lat="42.3153797" lon="14.0867121"><ele>79.0</ele><time>2026-05-01T15:26:18.533Z</time></trkpt><trkpt lat="42.3155061" lon="14.0867058"><ele>79.0</ele><time>2026-05-01T15:26:19.528Z</time></trkpt><trkpt lat="42.3156372" lon="14.0867262"><ele>79.0</ele><time>2026-05-01T15:26:20.529Z</time></trkpt><trkpt lat="42.3157818" lon="14.0867711"><ele>79.0</ele><time>2026-05-01T15:26:21.559Z</time></trkpt><trkpt lat="42.3159431" lon="14.0868004"><ele>79.25</ele><time>2026-05-01T15:26:22.624Z</time></trkpt><trkpt lat="42.3161138" lon="14.0868246"><ele>79.5</ele><time>2026-05-01T15:26:23.536Z</time></trkpt><trkpt lat="42.3162537" lon="14.0868344"><ele>79.75</ele><time>2026-05-01T15:26:24.531Z</time></trkpt><trkpt lat="42.3163846" lon="14.0868821"><ele>80.0</ele><time>2026-05-01T15:26:25.527Z</time></trkpt><trkpt lat="42.3165269" lon="14.0869464"><ele>79.0</ele><time>2026-05-01T15:26:26.532Z</time></trkpt><trkpt lat="42.316666" lon="14.0870346"><ele>78.0</ele><time>2026-05-01T15:26:27.533Z</time></trkpt><trkpt lat="42.3168117" lon="14.0871361"><ele>77.0</ele><time>2026-05-01T15:26:28.535Z</time></trkpt><trkpt lat="42.3169557" lon="14.0872278"><ele>77.0</ele><time>2026-05-01T15:26:29.533Z</time></trkpt><trkpt lat="42.3171076" lon="14.0873046"><ele>77.0</ele><time>2026-05-01T15:26:30.534Z</time></trkpt><trkpt lat="42.3172321" lon="14.0873831"><ele>77.0</ele><time>2026-05-01T15:26:31.533Z</time></trkpt><trkpt lat="42.3173608" lon="14.087458"><ele>77.0</ele><time>2026-05-01T15:26:32.542Z</time></trkpt><trkpt lat="42.3174895" lon="14.0875335"><ele>74.5</ele><time>2026-05-01T15:26:33.533Z</time></trkpt><trkpt lat="42.3176014" lon="14.087618"><ele>72.0</ele><time>2026-05-01T15:26:34.537Z</time></trkpt><trkpt lat="42.3177238" lon="14.0877055"><ele>69.5</ele><time>2026-05-01T15:26:35.536Z</time></trkpt><trkpt lat="42.3178182" lon="14.0878051"><ele>67.0</ele><time>2026-05-01T15:26:36.534Z</time></trkpt><trkpt lat="42.3179053" lon="14.0879087"><ele>67.0</ele><time>2026-05-01T15:26:37.533Z</time></trkpt><trkpt lat="42.3179775" lon="14.0880198"><ele>67.0</ele><time>2026-05-01T15:26:38.538Z</time></trkpt><trkpt lat="42.3180485" lon="14.0881252"><ele>67.0</ele><time>2026-05-01T15:26:39.534Z</time></trkpt><trkpt lat="42.3181242" lon="14.0882255"><ele>67.0</ele><time>2026-05-01T15:26:40.531Z</time></trkpt><trkpt lat="42.3182103" lon="14.0882896"><ele>67.0</ele><time>2026-05-01T15:26:41.535Z</time></trkpt><trkpt lat="42.3182936" lon="14.0883204"><ele>66.4</ele><time>2026-05-01T15:26:42.534Z</time></trkpt><trkpt lat="42.3183799" lon="14.0883369"><ele>65.80000000000001</ele><time>2026-05-01T15:26:43.536Z</time></trkpt><trkpt lat="42.3184728" lon="14.0883439"><ele>65.2</ele><time>2026-05-01T15:26:44.538Z</time></trkpt><trkpt lat="42.3185657" lon="14.0883477"><ele>64.60000000000001</ele><time>2026-05-01T15:26:45.536Z</time></trkpt><trkpt lat="42.3186666" lon="14.0883674"><ele>64.0</ele><time>2026-05-01T15:26:46.531Z</time></trkpt><trkpt lat="42.3187679" lon="14.0883974"><ele>64.0</ele><time>2026-05-01T15:26:47.536Z</time></trkpt><trkpt lat="42.318879" lon="14.0884458"><ele>64.0</ele><time>2026-05-01T15:26:48.536Z</time></trkpt><trkpt lat="42.3189939" lon="14.0885047"><ele>64.0</ele><time>2026-05-01T15:26:49.538Z</time></trkpt><trkpt lat="42.319102" lon="14.0885497"><ele>64.0</ele><time>2026-05-01T15:26:50.54Z</time></trkpt><trkpt lat="42.3192134" lon="14.0885836"><ele>63.666666666666664</ele><time>2026-05-01T15:26:51.539Z</time></trkpt><trkpt lat="42.3193114" lon="14.0886029"><ele>63.33333333333333</ele><time>2026-05-01T15:26:52.538Z</time></trkpt><trkpt lat="42.3194052" lon="14.0886257"><ele>63.0</ele><time>2026-05-01T15:26:53.538Z</time></trkpt><trkpt lat="42.3194837" lon="14.0886618"><ele>62.66666666666667</ele><time>2026-05-01T15:26:54.529Z</time></trkpt><trkpt lat="42.3195553" lon="14.0886617"><ele>62.333333333333336</ele><time>2026-05-01T15:26:56.527Z</time></trkpt><trkpt lat="42.3195903" lon="14.0885433"><ele>62.0</ele><time>2026-05-01T15:26:58.527Z</time></trkpt><trkpt lat="42.3196285" lon="14.0884511"><ele>62.00000000000001</ele><time>2026-05-01T15:26:59.523Z</time></trkpt><trkpt lat="42.3196764" lon="14.0883526"><ele>62.0</ele><time>2026-05-01T15:27:00.531Z</time></trkpt><trkpt lat="42.3197291" lon="14.0882436"><ele>62.0</ele><time>2026-05-01T15:27:01.533Z</time></trkpt><trkpt lat="42.319784" lon="14.0881659"><ele>62.0</ele><time>2026-05-01T15:27:02.523Z</time></trkpt><trkpt lat="42.3198241" lon="14.0880725"><ele>62.00000000000001</ele><time>2026-05-01T15:27:03.524Z</time></trkpt><trkpt lat="42.3198642" lon="14.0879784"><ele>62.0</ele><time>2026-05-01T15:27:04.531Z</time></trkpt><trkpt lat="42.3199203" lon="14.0878811"><ele>61.833333333333336</ele><time>2026-05-01T15:27:05.528Z</time></trkpt><trkpt lat="42.3199775" lon="14.0877628"><ele>61.66666666666667</ele><time>2026-05-01T15:27:06.527Z</time></trkpt><trkpt lat="42.3200232" lon="14.0876613"><ele>61.5</ele><time>2026-05-01T15:27:07.528Z</time></trkpt><trkpt lat="42.3200676" lon="14.0875778"><ele>61.33333333333333</ele><time>2026-05-01T15:27:08.529Z</time></trkpt><trkpt lat="42.3201127" lon="14.0874959"><ele>61.166666666666664</ele><time>2026-05-01T15:27:09.53Z</time></trkpt><trkpt lat="42.3201579" lon="14.0874233"><ele>61.0</ele><time>2026-05-01T15:27:10.522Z</time></trkpt><trkpt lat="42.3202562" lon="14.087352"><ele>61.0</ele><time>2026-05-01T15:27:12.517Z</time></trkpt><trkpt lat="42.320338" lon="14.0873289"><ele>60.99999999999999</ele><time>2026-05-01T15:27:16.534Z</time></trkpt><trkpt lat="42.3203848" lon="14.0873876"><ele>60.99999999999999</ele><time>2026-05-01T15:27:18.537Z</time></trkpt><trkpt lat="42.3204425" lon="14.0875482"><ele>61.0</ele><time>2026-05-01T15:27:20.519Z</time></trkpt><trkpt lat="42.3204958" lon="14.0876689"><ele>61.0</ele><time>2026-05-01T15:27:21.517Z</time></trkpt><trkpt lat="42.3205533" lon="14.0877948"><ele>60.8</ele><time>2026-05-01T15:27:22.521Z</time></trkpt><trkpt lat="42.3206098" lon="14.0879069"><ele>60.599999999999994</ele><time>2026-05-01T15:27:23.532Z</time></trkpt><trkpt lat="42.320661" lon="14.08801"><ele>60.4</ele><time>2026-05-01T15:27:24.532Z</time></trkpt><trkpt lat="42.3207131" lon="14.0881086"><ele>60.2</ele><time>2026-05-01T15:27:25.534Z</time></trkpt><trkpt lat="42.3207637" lon="14.0882111"><ele>60.0</ele><time>2026-05-01T15:27:26.534Z</time></trkpt><trkpt lat="42.3208149" lon="14.088317"><ele>60.0</ele><time>2026-05-01T15:27:27.535Z</time></trkpt><trkpt lat="42.3208574" lon="14.0884151"><ele>60.0</ele><time>2026-05-01T15:27:28.535Z</time></trkpt><trkpt lat="42.3209053" lon="14.0885143"><ele>60.0</ele><time>2026-05-01T15:27:29.536Z</time></trkpt><trkpt lat="42.3209529" lon="14.0886138"><ele>60.0</ele><time>2026-05-01T15:27:30.536Z</time></trkpt><trkpt lat="42.3210036" lon="14.0887148"><ele>60.0</ele><time>2026-05-01T15:27:31.549Z</time></trkpt><trkpt lat="42.3210582" lon="14.0888097"><ele>60.0</ele><time>2026-05-01T15:27:32.538Z</time></trkpt><trkpt lat="42.3211064" lon="14.0888981"><ele>60.0</ele><time>2026-05-01T15:27:33.538Z</time></trkpt><trkpt lat="42.3211568" lon="14.0889892"><ele>60.0</ele><time>2026-05-01T15:27:34.536Z</time></trkpt><trkpt lat="42.3211997" lon="14.0890717"><ele>60.0</ele><time>2026-05-01T15:27:35.535Z</time></trkpt><trkpt lat="42.3212427" lon="14.0891518"><ele>60.0</ele><time>2026-05-01T15:27:36.532Z</time></trkpt><trkpt lat="42.3212763" lon="14.0892458"><ele>60.0</ele><time>2026-05-01T15:27:37.536Z</time></trkpt><trkpt lat="42.3213285" lon="14.0893489"><ele>60.0</ele><time>2026-05-01T15:27:38.536Z</time></trkpt><trkpt lat="42.3213858" lon="14.0894668"><ele>59.8</ele><time>2026-05-01T15:27:39.533Z</time></trkpt><trkpt lat="42.3214375" lon="14.0895843"><ele>59.6</ele><time>2026-05-01T15:27:40.538Z</time></trkpt><trkpt lat="42.3214844" lon="14.0896945"><ele>59.400000000000006</ele><time>2026-05-01T15:27:41.548Z</time></trkpt><trkpt lat="42.3215331" lon="14.0898053"><ele>59.2</ele><time>2026-05-01T15:27:42.536Z</time></trkpt><trkpt lat="42.3215848" lon="14.0899095"><ele>59.0</ele><time>2026-05-01T15:27:43.531Z</time></trkpt><trkpt lat="42.3216286" lon="14.0900204"><ele>58.800000000000004</ele><time>2026-05-01T15:27:44.534Z</time></trkpt><trkpt lat="42.3216764" lon="14.090126"><ele>58.60000000000001</ele><time>2026-05-01T15:27:45.534Z</time></trkpt><trkpt lat="42.321723" lon="14.0902346"><ele>58.4</ele><time>2026-05-01T15:27:46.532Z</time></trkpt><trkpt lat="42.3217761" lon="14.0903405"><ele>58.2</ele><time>2026-05-01T15:27:47.534Z</time></trkpt><trkpt lat="42.3218316" lon="14.0904456"><ele>58.0</ele><time>2026-05-01T15:27:48.537Z</time></trkpt><trkpt lat="42.3218816" lon="14.0905544"><ele>58.0</ele><time>2026-05-01T15:27:49.533Z</time></trkpt><trkpt lat="42.3219332" lon="14.090666"><ele>58.0</ele><time>2026-05-01T15:27:50.529Z</time></trkpt><trkpt lat="42.3219927" lon="14.090767"><ele>58.0</ele><time>2026-05-01T15:27:51.544Z</time></trkpt><trkpt lat="42.3220528" lon="14.0908703"><ele>58.0</ele><time>2026-05-01T15:27:52.537Z</time></trkpt><trkpt lat="42.3221004" lon="14.090972"><ele>58.0</ele><time>2026-05-01T15:27:53.543Z</time></trkpt><trkpt lat="42.3221489" lon="14.0910785"><ele>58.0</ele><time>2026-05-01T15:27:54.538Z</time></trkpt><trkpt lat="42.3222025" lon="14.0911864"><ele>58.0</ele><time>2026-05-01T15:27:55.534Z</time></trkpt><trkpt lat="42.3222591" lon="14.0912946"><ele>58.0</ele><time>2026-05-01T15:27:56.53Z</time></trkpt><trkpt lat="42.3223169" lon="14.0914073"><ele>58.0</ele><time>2026-05-01T15:27:57.541Z</time></trkpt><trkpt lat="42.322377" lon="14.0915299"><ele>58.0</ele><time>2026-05-01T15:27:58.538Z</time></trkpt><trkpt lat="42.3224297" lon="14.0916562"><ele>58.2</ele><time>2026-05-01T15:27:59.539Z</time></trkpt><trkpt lat="42.3224765" lon="14.0917656"><ele>58.4</ele><time>2026-05-01T15:28:00.535Z</time></trkpt><trkpt lat="42.3225311" lon="14.0918822"><ele>58.60000000000001</ele><time>2026-05-01T15:28:01.55Z</time></trkpt><trkpt lat="42.3225854" lon="14.0919978"><ele>58.800000000000004</ele><time>2026-05-01T15:28:02.541Z</time></trkpt><trkpt lat="42.322646" lon="14.092115"><ele>59.0</ele><time>2026-05-01T15:28:03.534Z</time></trkpt><trkpt lat="42.3227069" lon="14.0922308"><ele>59.0</ele><time>2026-05-01T15:28:04.536Z</time></trkpt><trkpt lat="42.3227588" lon="14.092344"><ele>59.00000000000001</ele><time>2026-05-01T15:28:05.531Z</time></trkpt><trkpt lat="42.3228158" lon="14.0924695"><ele>59.00000000000001</ele><time>2026-05-01T15:28:06.533Z</time></trkpt><trkpt lat="42.3228678" lon="14.0925899"><ele>59.0</ele><time>2026-05-01T15:28:07.533Z</time></trkpt><trkpt lat="42.3229123" lon="14.0926983"><ele>59.0</ele><time>2026-05-01T15:28:08.533Z</time></trkpt><trkpt lat="42.3229543" lon="14.0927926"><ele>58.800000000000004</ele><time>2026-05-01T15:28:09.531Z</time></trkpt><trkpt lat="42.3229958" lon="14.0928799"><ele>58.60000000000001</ele><time>2026-05-01T15:28:10.532Z</time></trkpt><trkpt lat="42.3230467" lon="14.0929791"><ele>58.4</ele><time>2026-05-01T15:28:11.541Z</time></trkpt><trkpt lat="42.3231037" lon="14.0930933"><ele>58.2</ele><time>2026-05-01T15:28:12.518Z</time></trkpt><trkpt lat="42.3231572" lon="14.093206"><ele>58.0</ele><time>2026-05-01T15:28:13.52Z</time></trkpt><trkpt lat="42.323216" lon="14.0933322"><ele>58.0</ele><time>2026-05-01T15:28:14.517Z</time></trkpt><trkpt lat="42.3232701" lon="14.0934647"><ele>58.0</ele><time>2026-05-01T15:28:15.513Z</time></trkpt><trkpt lat="42.3233348" lon="14.0936048"><ele>58.0</ele><time>2026-05-01T15:28:16.518Z</time></trkpt><trkpt lat="42.323407" lon="14.0937357"><ele>58.0</ele><time>2026-05-01T15:28:17.513Z</time></trkpt><trkpt lat="42.3234676" lon="14.0938636"><ele>58.0</ele><time>2026-05-01T15:28:18.517Z</time></trkpt><trkpt lat="42.3235141" lon="14.0939848"><ele>58.0</ele><time>2026-05-01T15:28:19.516Z</time></trkpt><trkpt lat="42.3235576" lon="14.0941045"><ele>58.0</ele><time>2026-05-01T15:28:20.513Z</time></trkpt><trkpt lat="42.3235993" lon="14.0942294"><ele>58.0</ele><time>2026-05-01T15:28:21.524Z</time></trkpt><trkpt lat="42.3236364" lon="14.0943741"><ele>58.0</ele><time>2026-05-01T15:28:22.516Z</time></trkpt><trkpt lat="42.3236735" lon="14.0945242"><ele>58.0</ele><time>2026-05-01T15:28:23.515Z</time></trkpt><trkpt lat="42.323701" lon="14.0946748"><ele>58.0</ele><time>2026-05-01T15:28:24.513Z</time></trkpt><trkpt lat="42.3237306" lon="14.0948301"><ele>58.0</ele><time>2026-05-01T15:28:25.516Z</time></trkpt><trkpt lat="42.3237565" lon="14.0949918"><ele>58.0</ele><time>2026-05-01T15:28:26.518Z</time></trkpt><trkpt lat="42.3237908" lon="14.095145"><ele>58.0</ele><time>2026-05-01T15:28:27.512Z</time></trkpt><trkpt lat="42.3238328" lon="14.0953056"><ele>58.0</ele><time>2026-05-01T15:28:28.518Z</time></trkpt><trkpt lat="42.3238649" lon="14.0954677"><ele>58.0</ele><time>2026-05-01T15:28:29.515Z</time></trkpt><trkpt lat="42.3238975" lon="14.0956386"><ele>58.0</ele><time>2026-05-01T15:28:30.517Z</time></trkpt><trkpt lat="42.323926" lon="14.095813"><ele>58.0</ele><time>2026-05-01T15:28:31.529Z</time></trkpt><trkpt lat="42.3239536" lon="14.0959777"><ele>58.0</ele><time>2026-05-01T15:28:32.515Z</time></trkpt><trkpt lat="42.3239904" lon="14.0961474"><ele>58.0</ele><time>2026-05-01T15:28:33.509Z</time></trkpt><trkpt lat="42.3240336" lon="14.0963195"><ele>58.0</ele><time>2026-05-01T15:28:34.506Z</time></trkpt><trkpt lat="42.3240734" lon="14.0964988"><ele>58.0</ele><time>2026-05-01T15:28:35.513Z</time></trkpt><trkpt lat="42.3241065" lon="14.0966785"><ele>58.0</ele><time>2026-05-01T15:28:36.507Z</time></trkpt><trkpt lat="42.3241416" lon="14.0968647"><ele>58.0</ele><time>2026-05-01T15:28:37.508Z</time></trkpt><trkpt lat="42.324178" lon="14.0970407"><ele>58.0</ele><time>2026-05-01T15:28:38.512Z</time></trkpt><trkpt lat="42.3242184" lon="14.0972216"><ele>58.0</ele><time>2026-05-01T15:28:39.511Z</time></trkpt><trkpt lat="42.3242474" lon="14.0974002"><ele>58.0</ele><time>2026-05-01T15:28:40.512Z</time></trkpt><trkpt lat="42.3242953" lon="14.0975837"><ele>58.0</ele><time>2026-05-01T15:28:41.518Z</time></trkpt><trkpt lat="42.3243427" lon="14.0977704"><ele>58.0</ele><time>2026-05-01T15:28:42.515Z</time></trkpt><trkpt lat="42.3244051" lon="14.0979334"><ele>57.75</ele><time>2026-05-01T15:28:43.509Z</time></trkpt><trkpt lat="42.3244796" lon="14.0980974"><ele>57.5</ele><time>2026-05-01T15:28:44.516Z</time></trkpt><trkpt lat="42.324564" lon="14.098255"><ele>57.25</ele><time>2026-05-01T15:28:45.513Z</time></trkpt><trkpt lat="42.3246543" lon="14.0984049"><ele>57.0</ele><time>2026-05-01T15:28:46.513Z</time></trkpt><trkpt lat="42.3247497" lon="14.0985422"><ele>56.75</ele><time>2026-05-01T15:28:47.511Z</time></trkpt><trkpt lat="42.3248482" lon="14.0986881"><ele>56.5</ele><time>2026-05-01T15:28:48.51Z</time></trkpt><trkpt lat="42.324954" lon="14.0988321"><ele>56.25</ele><time>2026-05-01T15:28:49.51Z</time></trkpt><trkpt lat="42.3250424" lon="14.0989661"><ele>56.0</ele><time>2026-05-01T15:28:50.511Z</time></trkpt><trkpt lat="42.3251098" lon="14.0990848"><ele>56.0</ele><time>2026-05-01T15:28:51.518Z</time></trkpt><trkpt lat="42.3251794" lon="14.0992029"><ele>56.0</ele><time>2026-05-01T15:28:52.502Z</time></trkpt><trkpt lat="42.3252489" lon="14.0993144"><ele>56.0</ele><time>2026-05-01T15:28:53.516Z</time></trkpt><trkpt lat="42.3253204" lon="14.0994312"><ele>56.0</ele><time>2026-05-01T15:28:54.517Z</time></trkpt><trkpt lat="42.3253915" lon="14.0995634"><ele>56.0</ele><time>2026-05-01T15:28:55.512Z</time></trkpt><trkpt lat="42.3254644" lon="14.0996833"><ele>56.0</ele><time>2026-05-01T15:28:56.518Z</time></trkpt><trkpt lat="42.3255376" lon="14.0997972"><ele>56.0</ele><time>2026-05-01T15:28:57.519Z</time></trkpt><trkpt lat="42.3256106" lon="14.0999136"><ele>56.0</ele><time>2026-05-01T15:28:58.518Z</time></trkpt><trkpt lat="42.325684" lon="14.1000305"><ele>55.4</ele><time>2026-05-01T15:28:59.543Z</time></trkpt><trkpt lat="42.3257583" lon="14.1001459"><ele>54.8</ele><time>2026-05-01T15:29:00.611Z</time></trkpt><trkpt lat="42.3258342" lon="14.1002594"><ele>54.199999999999996</ele><time>2026-05-01T15:29:01.618Z</time></trkpt><trkpt lat="42.3259072" lon="14.1003735"><ele>53.599999999999994</ele><time>2026-05-01T15:29:02.613Z</time></trkpt><trkpt lat="42.3259789" lon="14.1004806"><ele>53.0</ele><time>2026-05-01T15:29:03.606Z</time></trkpt><trkpt lat="42.326045" lon="14.100585"><ele>53.00000000000001</ele><time>2026-05-01T15:29:04.603Z</time></trkpt><trkpt lat="42.3260975" lon="14.100691"><ele>53.0</ele><time>2026-05-01T15:29:05.606Z</time></trkpt><trkpt lat="42.3261371" lon="14.1007977"><ele>53.0</ele><time>2026-05-01T15:29:06.607Z</time></trkpt><trkpt lat="42.3261603" lon="14.1009027"><ele>53.0</ele><time>2026-05-01T15:29:07.601Z</time></trkpt><trkpt lat="42.3261785" lon="14.1010069"><ele>53.00000000000001</ele><time>2026-05-01T15:29:08.588Z</time></trkpt><trkpt lat="42.3262111" lon="14.1011034"><ele>53.0</ele><time>2026-05-01T15:29:09.585Z</time></trkpt><trkpt lat="42.326261" lon="14.1011825"><ele>53.333333333333336</ele><time>2026-05-01T15:29:10.582Z</time></trkpt><trkpt lat="42.326353" lon="14.1012918"><ele>53.66666666666667</ele><time>2026-05-01T15:29:12.602Z</time></trkpt><trkpt lat="42.3264362" lon="14.1013267"><ele>54.0</ele><time>2026-05-01T15:29:13.519Z</time></trkpt><trkpt lat="42.3265074" lon="14.1013757"><ele>54.33333333333333</ele><time>2026-05-01T15:29:14.509Z</time></trkpt><trkpt lat="42.3265644" lon="14.101444"><ele>54.666666666666664</ele><time>2026-05-01T15:29:15.523Z</time></trkpt><trkpt lat="42.3266077" lon="14.1015121"><ele>55.0</ele><time>2026-05-01T15:29:16.521Z</time></trkpt><trkpt lat="42.326648" lon="14.1015798"><ele>55.0</ele><time>2026-05-01T15:29:17.52Z</time></trkpt><trkpt lat="42.3266989" lon="14.1016685"><ele>55.0</ele><time>2026-05-01T15:29:18.519Z</time></trkpt><trkpt lat="42.3267658" lon="14.1017688"><ele>55.0</ele><time>2026-05-01T15:29:19.515Z</time></trkpt><trkpt lat="42.3268307" lon="14.1018669"><ele>55.0</ele><time>2026-05-01T15:29:20.518Z</time></trkpt><trkpt lat="42.3268949" lon="14.1019636"><ele>55.0</ele><time>2026-05-01T15:29:21.518Z</time></trkpt><trkpt lat="42.3269613" lon="14.1020719"><ele>55.0</ele><time>2026-05-01T15:29:22.518Z</time></trkpt><trkpt lat="42.3270206" lon="14.1021838"><ele>55.0</ele><time>2026-05-01T15:29:23.52Z</time></trkpt><trkpt lat="42.3270828" lon="14.1022982"><ele>55.0</ele><time>2026-05-01T15:29:24.517Z</time></trkpt><trkpt lat="42.3271449" lon="14.1024171"><ele>55.0</ele><time>2026-05-01T15:29:25.509Z</time></trkpt><trkpt lat="42.3271991" lon="14.1025383"><ele>55.0</ele><time>2026-05-01T15:29:26.518Z</time></trkpt><trkpt lat="42.3272418" lon="14.1026663"><ele>53.8</ele><time>2026-05-01T15:29:27.517Z</time></trkpt><trkpt lat="42.3272854" lon="14.1027962"><ele>52.6</ele><time>2026-05-01T15:29:28.511Z</time></trkpt><trkpt lat="42.3273192" lon="14.1029272"><ele>51.400000000000006</ele><time>2026-05-01T15:29:29.516Z</time></trkpt><trkpt lat="42.3273686" lon="14.1030524"><ele>50.2</ele><time>2026-05-01T15:29:30.52Z</time></trkpt><trkpt lat="42.3274061" lon="14.1031827"><ele>49.0</ele><time>2026-05-01T15:29:31.518Z</time></trkpt><trkpt lat="42.3274429" lon="14.1033127"><ele>49.0</ele><time>2026-05-01T15:29:32.519Z</time></trkpt><trkpt lat="42.3274748" lon="14.1034455"><ele>49.0</ele><time>2026-05-01T15:29:33.516Z</time></trkpt><trkpt lat="42.3275109" lon="14.1035788"><ele>49.0</ele><time>2026-05-01T15:29:34.513Z</time></trkpt><trkpt lat="42.3275542" lon="14.1037114"><ele>49.0</ele><time>2026-05-01T15:29:35.514Z</time></trkpt><trkpt lat="42.3275963" lon="14.103851"><ele>49.0</ele><time>2026-05-01T15:29:36.517Z</time></trkpt><trkpt lat="42.3276423" lon="14.1039842"><ele>48.5</ele><time>2026-05-01T15:29:37.516Z</time></trkpt><trkpt lat="42.3276876" lon="14.1041161"><ele>48.0</ele><time>2026-05-01T15:29:38.516Z</time></trkpt><trkpt lat="42.3277279" lon="14.1042582"><ele>47.5</ele><time>2026-05-01T15:29:39.515Z</time></trkpt><trkpt lat="42.3277784" lon="14.1044036"><ele>47.0</ele><time>2026-05-01T15:29:40.516Z</time></trkpt><trkpt lat="42.3278283" lon="14.1045619"><ele>47.0</ele><time>2026-05-01T15:29:41.515Z</time></trkpt><trkpt lat="42.327875" lon="14.1047239"><ele>47.0</ele><time>2026-05-01T15:29:42.515Z</time></trkpt><trkpt lat="42.327925" lon="14.1048959"><ele>47.0</ele><time>2026-05-01T15:29:43.516Z</time></trkpt><trkpt lat="42.3279843" lon="14.1050744"><ele>47.0</ele><time>2026-05-01T15:29:44.514Z</time></trkpt><trkpt lat="42.3280427" lon="14.1052566"><ele>46.666666666666664</ele><time>2026-05-01T15:29:45.512Z</time></trkpt><trkpt lat="42.3281015" lon="14.1054395"><ele>46.333333333333336</ele><time>2026-05-01T15:29:46.511Z</time></trkpt><trkpt lat="42.328169" lon="14.1056311"><ele>46.0</ele><time>2026-05-01T15:29:47.513Z</time></trkpt><trkpt lat="42.3282301" lon="14.105817"><ele>46.0</ele><time>2026-05-01T15:29:48.514Z</time></trkpt><trkpt lat="42.3282904" lon="14.1059973"><ele>46.0</ele><time>2026-05-01T15:29:49.517Z</time></trkpt><trkpt lat="42.3283418" lon="14.1061626"><ele>46.0</ele><time>2026-05-01T15:29:50.514Z</time></trkpt><trkpt lat="42.3283929" lon="14.1063228"><ele>46.0</ele><time>2026-05-01T15:29:51.511Z</time></trkpt><trkpt lat="42.3284426" lon="14.1064981"><ele>46.0</ele><time>2026-05-01T15:29:52.515Z</time></trkpt><trkpt lat="42.3284915" lon="14.10668"><ele>46.0</ele><time>2026-05-01T15:29:53.515Z</time></trkpt><trkpt lat="42.3285412" lon="14.1068532"><ele>46.0</ele><time>2026-05-01T15:29:54.514Z</time></trkpt><trkpt lat="42.328581" lon="14.1070158"><ele>46.0</ele><time>2026-05-01T15:29:55.517Z</time></trkpt><trkpt lat="42.3286242" lon="14.1071593"><ele>46.0</ele><time>2026-05-01T15:29:56.513Z</time></trkpt><trkpt lat="42.328678" lon="14.1073297"><ele>46.0</ele><time>2026-05-01T15:29:57.519Z</time></trkpt><trkpt lat="42.328733" lon="14.1074856"><ele>46.0</ele><time>2026-05-01T15:29:58.519Z</time></trkpt><trkpt lat="42.3287831" lon="14.1076371"><ele>46.0</ele><time>2026-05-01T15:29:59.52Z</time></trkpt><trkpt lat="42.3288394" lon="14.1077921"><ele>46.0</ele><time>2026-05-01T15:30:00.525Z</time></trkpt><trkpt lat="42.3288904" lon="14.1079469"><ele>46.0</ele><time>2026-05-01T15:30:01.518Z</time></trkpt><trkpt lat="42.3289383" lon="14.1080837"><ele>46.0</ele><time>2026-05-01T15:30:02.523Z</time></trkpt><trkpt lat="42.3289848" lon="14.1082104"><ele>46.0</ele><time>2026-05-01T15:30:03.517Z</time></trkpt><trkpt lat="42.3290298" lon="14.1083367"><ele>46.0</ele><time>2026-05-01T15:30:04.518Z</time></trkpt><trkpt lat="42.3290749" lon="14.1084732"><ele>45.4</ele><time>2026-05-01T15:30:05.518Z</time></trkpt><trkpt lat="42.3291167" lon="14.1086171"><ele>44.8</ele><time>2026-05-01T15:30:06.518Z</time></trkpt><trkpt lat="42.3291594" lon="14.1087615"><ele>44.199999999999996</ele><time>2026-05-01T15:30:07.515Z</time></trkpt><trkpt lat="42.3292037" lon="14.1088991"><ele>43.599999999999994</ele><time>2026-05-01T15:30:08.514Z</time></trkpt><trkpt lat="42.3292483" lon="14.1090328"><ele>43.0</ele><time>2026-05-01T15:30:09.517Z</time></trkpt><trkpt lat="42.3292948" lon="14.1091617"><ele>43.0</ele><time>2026-05-01T15:30:10.516Z</time></trkpt><trkpt lat="42.329339" lon="14.1092991"><ele>43.0</ele><time>2026-05-01T15:30:11.512Z</time></trkpt><trkpt lat="42.3293811" lon="14.1094445"><ele>43.0</ele><time>2026-05-01T15:30:12.517Z</time></trkpt><trkpt lat="42.3294193" lon="14.1095831"><ele>43.0</ele><time>2026-05-01T15:30:13.513Z</time></trkpt><trkpt lat="42.3294626" lon="14.1097134"><ele>43.0</ele><time>2026-05-01T15:30:14.51Z</time></trkpt><trkpt lat="42.3295064" lon="14.1098456"><ele>43.2</ele><time>2026-05-01T15:30:15.506Z</time></trkpt><trkpt lat="42.3295418" lon="14.109964"><ele>43.4</ele><time>2026-05-01T15:30:16.518Z</time></trkpt><trkpt lat="42.3295733" lon="14.1100802"><ele>43.6</ele><time>2026-05-01T15:30:17.518Z</time></trkpt><trkpt lat="42.3296115" lon="14.1101941"><ele>43.800000000000004</ele><time>2026-05-01T15:30:18.515Z</time></trkpt><trkpt lat="42.3296449" lon="14.1103146"><ele>44.0</ele><time>2026-05-01T15:30:19.516Z</time></trkpt><trkpt lat="42.3296841" lon="14.1104289"><ele>44.0</ele><time>2026-05-01T15:30:20.519Z</time></trkpt><trkpt lat="42.3297211" lon="14.1105433"><ele>44.0</ele><time>2026-05-01T15:30:21.519Z</time></trkpt><trkpt lat="42.3297541" lon="14.1106532"><ele>44.0</ele><time>2026-05-01T15:30:22.517Z</time></trkpt><trkpt lat="42.3297901" lon="14.1107625"><ele>44.0</ele><time>2026-05-01T15:30:23.518Z</time></trkpt><trkpt lat="42.3298283" lon="14.1108839"><ele>44.0</ele><time>2026-05-01T15:30:24.52Z</time></trkpt><trkpt lat="42.3298591" lon="14.111009"><ele>43.800000000000004</ele><time>2026-05-01T15:30:25.517Z</time></trkpt><trkpt lat="42.329901" lon="14.1111251"><ele>43.6</ele><time>2026-05-01T15:30:26.523Z</time></trkpt><trkpt lat="42.3299404" lon="14.1112433"><ele>43.4</ele><time>2026-05-01T15:30:27.521Z</time></trkpt><trkpt lat="42.3299782" lon="14.1113602"><ele>43.2</ele><time>2026-05-01T15:30:28.516Z</time></trkpt><trkpt lat="42.3300123" lon="14.1114795"><ele>43.0</ele><time>2026-05-01T15:30:29.519Z</time></trkpt><trkpt lat="42.3300486" lon="14.1115853"><ele>43.0</ele><time>2026-05-01T15:30:30.521Z</time></trkpt><trkpt lat="42.3300774" lon="14.1116875"><ele>43.0</ele><time>2026-05-01T15:30:31.52Z</time></trkpt><trkpt lat="42.3301086" lon="14.1117995"><ele>43.0</ele><time>2026-05-01T15:30:32.52Z</time></trkpt><trkpt lat="42.3301473" lon="14.1119185"><ele>43.0</ele><time>2026-05-01T15:30:33.516Z</time></trkpt><trkpt lat="42.3301815" lon="14.1120335"><ele>43.0</ele><time>2026-05-01T15:30:34.516Z</time></trkpt><trkpt lat="42.3302182" lon="14.112145"><ele>43.0</ele><time>2026-05-01T15:30:35.515Z</time></trkpt><trkpt lat="42.3302563" lon="14.1122724"><ele>43.0</ele><time>2026-05-01T15:30:36.51Z</time></trkpt><trkpt lat="42.3303064" lon="14.112387"><ele>43.0</ele><time>2026-05-01T15:30:37.516Z</time></trkpt><trkpt lat="42.3303461" lon="14.1125085"><ele>43.0</ele><time>2026-05-01T15:30:38.514Z</time></trkpt><trkpt lat="42.3303762" lon="14.1126097"><ele>43.0</ele><time>2026-05-01T15:30:39.514Z</time></trkpt><trkpt lat="42.3304066" lon="14.1127077"><ele>43.0</ele><time>2026-05-01T15:30:40.535Z</time></trkpt><trkpt lat="42.3304296" lon="14.1128081"><ele>43.0</ele><time>2026-05-01T15:30:41.512Z</time></trkpt><trkpt lat="42.3304579" lon="14.1129193"><ele>43.0</ele><time>2026-05-01T15:30:42.515Z</time></trkpt><trkpt lat="42.3304658" lon="14.1130301"><ele>43.0</ele><time>2026-05-01T15:30:43.51Z</time></trkpt><trkpt lat="42.330454" lon="14.1131322"><ele>43.0</ele><time>2026-05-01T15:30:44.513Z</time></trkpt><trkpt lat="42.3304531" lon="14.1132197"><ele>43.0</ele><time>2026-05-01T15:30:45.504Z</time></trkpt><trkpt lat="42.3304909" lon="14.1132947"><ele>43.0</ele><time>2026-05-01T15:30:46.513Z</time></trkpt><trkpt lat="42.3305556" lon="14.1133598"><ele>43.0</ele><time>2026-05-01T15:30:47.513Z</time></trkpt><trkpt lat="42.3306283" lon="14.1134508"><ele>42.0</ele><time>2026-05-01T15:30:48.511Z</time></trkpt><trkpt lat="42.3306853" lon="14.1135601"><ele>41.0</ele><time>2026-05-01T15:30:49.507Z</time></trkpt><trkpt lat="42.3307265" lon="14.113685"><ele>40.0</ele><time>2026-05-01T15:30:50.516Z</time></trkpt><trkpt lat="42.3307636" lon="14.1138171"><ele>39.0</ele><time>2026-05-01T15:30:51.517Z</time></trkpt><trkpt lat="42.330795" lon="14.1139403"><ele>38.0</ele><time>2026-05-01T15:30:52.514Z</time></trkpt><trkpt lat="42.3308305" lon="14.1140669"><ele>38.0</ele><time>2026-05-01T15:30:53.521Z</time></trkpt><trkpt lat="42.3308633" lon="14.1141962"><ele>38.0</ele><time>2026-05-01T15:30:54.512Z</time></trkpt><trkpt lat="42.3308996" lon="14.1143224"><ele>38.0</ele><time>2026-05-01T15:30:55.513Z</time></trkpt><trkpt lat="42.3309321" lon="14.1144377"><ele>38.0</ele><time>2026-05-01T15:30:56.512Z</time></trkpt><trkpt lat="42.3309654" lon="14.1145434"><ele>38.0</ele><time>2026-05-01T15:30:57.515Z</time></trkpt><trkpt lat="42.3309981" lon="14.114644"><ele>38.0</ele><time>2026-05-01T15:30:58.518Z</time></trkpt><trkpt lat="42.3310306" lon="14.1147454"><ele>38.0</ele><time>2026-05-01T15:30:59.522Z</time></trkpt><trkpt lat="42.3310656" lon="14.1148534"><ele>38.0</ele><time>2026-05-01T15:31:00.52Z</time></trkpt><trkpt lat="42.3311069" lon="14.1149689"><ele>38.0</ele><time>2026-05-01T15:31:01.515Z</time></trkpt><trkpt lat="42.3311437" lon="14.1150767"><ele>38.0</ele><time>2026-05-01T15:31:02.519Z</time></trkpt><trkpt lat="42.3311806" lon="14.1151756"><ele>38.0</ele><time>2026-05-01T15:31:03.514Z</time></trkpt><trkpt lat="42.3312095" lon="14.1152655"><ele>38.0</ele><time>2026-05-01T15:31:04.515Z</time></trkpt><trkpt lat="42.3312373" lon="14.1153449"><ele>38.0</ele><time>2026-05-01T15:31:05.513Z</time></trkpt><trkpt lat="42.3312635" lon="14.1154272"><ele>38.0</ele><time>2026-05-01T15:31:06.514Z</time></trkpt><trkpt lat="42.3312884" lon="14.1155093"><ele>38.0</ele><time>2026-05-01T15:31:07.516Z</time></trkpt><trkpt lat="42.3313231" lon="14.1156056"><ele>38.0</ele><time>2026-05-01T15:31:08.511Z</time></trkpt><trkpt lat="42.331362" lon="14.1157127"><ele>38.0</ele><time>2026-05-01T15:31:09.516Z</time></trkpt><trkpt lat="42.3313939" lon="14.1158348"><ele>38.0</ele><time>2026-05-01T15:31:10.513Z</time></trkpt><trkpt lat="42.331437" lon="14.1159635"><ele>38.0</ele><time>2026-05-01T15:31:11.509Z</time></trkpt><trkpt lat="42.3314863" lon="14.1160942"><ele>38.0</ele><time>2026-05-01T15:31:12.509Z</time></trkpt><trkpt lat="42.3315436" lon="14.1162462"><ele>38.0</ele><time>2026-05-01T15:31:13.51Z</time></trkpt><trkpt lat="42.3316021" lon="14.1164077"><ele>38.0</ele><time>2026-05-01T15:31:14.509Z</time></trkpt><trkpt lat="42.3316614" lon="14.1165872"><ele>38.0</ele><time>2026-05-01T15:31:15.504Z</time></trkpt><trkpt lat="42.3317211" lon="14.116772"><ele>38.0</ele><time>2026-05-01T15:31:16.506Z</time></trkpt><trkpt lat="42.3317728" lon="14.1169669"><ele>38.0</ele><time>2026-05-01T15:31:17.514Z</time></trkpt><trkpt lat="42.3318242" lon="14.1171451"><ele>38.0</ele><time>2026-05-01T15:31:18.519Z</time></trkpt><trkpt lat="42.331874" lon="14.1173179"><ele>38.0</ele><time>2026-05-01T15:31:19.515Z</time></trkpt><trkpt lat="42.3319296" lon="14.1174938"><ele>38.0</ele><time>2026-05-01T15:31:20.514Z</time></trkpt><trkpt lat="42.3319975" lon="14.1176847"><ele>38.0</ele><time>2026-05-01T15:31:21.514Z</time></trkpt><trkpt lat="42.3320627" lon="14.1178858"><ele>38.0</ele><time>2026-05-01T15:31:22.514Z</time></trkpt><trkpt lat="42.332113" lon="14.1180797"><ele>38.0</ele><time>2026-05-01T15:31:23.537Z</time></trkpt><trkpt lat="42.332172" lon="14.1182652"><ele>38.0</ele><time>2026-05-01T15:31:24.604Z</time></trkpt><trkpt lat="42.3322354" lon="14.1184575"><ele>38.0</ele><time>2026-05-01T15:31:25.6Z</time></trkpt><trkpt lat="42.33231" lon="14.1186667"><ele>38.0</ele><time>2026-05-01T15:31:26.605Z</time></trkpt><trkpt lat="42.3323834" lon="14.1188871"><ele>38.0</ele><time>2026-05-01T15:31:27.607Z</time></trkpt><trkpt lat="42.3324489" lon="14.1190986"><ele>37.666666666666664</ele><time>2026-05-01T15:31:28.606Z</time></trkpt><trkpt lat="42.3325077" lon="14.1192922"><ele>37.333333333333336</ele><time>2026-05-01T15:31:29.605Z</time></trkpt><trkpt lat="42.332568" lon="14.119486"><ele>37.0</ele><time>2026-05-01T15:31:30.605Z</time></trkpt><trkpt lat="42.3326266" lon="14.1196791"><ele>37.0</ele><time>2026-05-01T15:31:31.601Z</time></trkpt><trkpt lat="42.332685" lon="14.1198795"><ele>37.0</ele><time>2026-05-01T15:31:32.602Z</time></trkpt><trkpt lat="42.3327445" lon="14.1200689"><ele>37.0</ele><time>2026-05-01T15:31:33.598Z</time></trkpt><trkpt lat="42.3328001" lon="14.1202537"><ele>37.75</ele><time>2026-05-01T15:31:34.599Z</time></trkpt><trkpt lat="42.3328149" lon="14.1204327"><ele>38.5</ele><time>2026-05-01T15:31:35.604Z</time></trkpt><trkpt lat="42.3328682" lon="14.1206126"><ele>39.25</ele><time>2026-05-01T15:31:36.603Z</time></trkpt><trkpt lat="42.3329245" lon="14.1207957"><ele>40.0</ele><time>2026-05-01T15:31:37.602Z</time></trkpt><trkpt lat="42.3329832" lon="14.1209706"><ele>40.0</ele><time>2026-05-01T15:31:38.601Z</time></trkpt><trkpt lat="42.3330401" lon="14.1211444"><ele>40.0</ele><time>2026-05-01T15:31:39.603Z</time></trkpt><trkpt lat="42.333096" lon="14.1213155"><ele>40.0</ele><time>2026-05-01T15:31:40.602Z</time></trkpt><trkpt lat="42.3331516" lon="14.1214898"><ele>40.0</ele><time>2026-05-01T15:31:41.598Z</time></trkpt><trkpt lat="42.3332057" lon="14.1216602"><ele>40.5</ele><time>2026-05-01T15:31:42.596Z</time></trkpt><trkpt lat="42.3332583" lon="14.1218277"><ele>41.0</ele><time>2026-05-01T15:31:43.601Z</time></trkpt><trkpt lat="42.3333143" lon="14.1219981"><ele>41.5</ele><time>2026-05-01T15:31:44.603Z</time></trkpt><trkpt lat="42.3333724" lon="14.1221738"><ele>42.0</ele><time>2026-05-01T15:31:45.598Z</time></trkpt><trkpt lat="42.333428" lon="14.1223423"><ele>42.5</ele><time>2026-05-01T15:31:46.603Z</time></trkpt><trkpt lat="42.3334807" lon="14.1225074"><ele>43.0</ele><time>2026-05-01T15:31:47.601Z</time></trkpt><trkpt lat="42.333537" lon="14.1226761"><ele>43.5</ele><time>2026-05-01T15:31:48.606Z</time></trkpt><trkpt lat="42.3335929" lon="14.12285"><ele>44.0</ele><time>2026-05-01T15:31:49.607Z</time></trkpt><trkpt lat="42.333649" lon="14.1230197"><ele>44.0</ele><time>2026-05-01T15:31:50.607Z</time></trkpt><trkpt lat="42.3337013" lon="14.1231798"><ele>44.0</ele><time>2026-05-01T15:31:51.604Z</time></trkpt><trkpt lat="42.3337495" lon="14.1233326"><ele>44.0</ele><time>2026-05-01T15:31:52.604Z</time></trkpt><trkpt lat="42.3338006" lon="14.1234942"><ele>44.0</ele><time>2026-05-01T15:31:53.607Z</time></trkpt><trkpt lat="42.3338504" lon="14.1236579"><ele>43.5</ele><time>2026-05-01T15:31:54.605Z</time></trkpt><trkpt lat="42.3339024" lon="14.1238233"><ele>43.0</ele><time>2026-05-01T15:31:55.602Z</time></trkpt><trkpt lat="42.3339593" lon="14.1239942"><ele>42.5</ele><time>2026-05-01T15:31:56.608Z</time></trkpt><trkpt lat="42.3340105" lon="14.1241544"><ele>42.0</ele><time>2026-05-01T15:31:57.604Z</time></trkpt><trkpt lat="42.3340604" lon="14.1243154"><ele>41.75</ele><time>2026-05-01T15:31:58.603Z</time></trkpt><trkpt lat="42.3341155" lon="14.1244875"><ele>41.5</ele><time>2026-05-01T15:31:59.61Z</time></trkpt><trkpt lat="42.3341735" lon="14.1246619"><ele>41.25</ele><time>2026-05-01T15:32:00.605Z</time></trkpt><trkpt lat="42.3342305" lon="14.1248403"><ele>41.0</ele><time>2026-05-01T15:32:01.604Z</time></trkpt><trkpt lat="42.3342861" lon="14.1250189"><ele>41.5</ele><time>2026-05-01T15:32:02.608Z</time></trkpt><trkpt lat="42.3343407" lon="14.1251888"><ele>42.0</ele><time>2026-05-01T15:32:03.601Z</time></trkpt><trkpt lat="42.334391" lon="14.1253517"><ele>42.5</ele><time>2026-05-01T15:32:04.606Z</time></trkpt><trkpt lat="42.3344439" lon="14.1255258"><ele>43.0</ele><time>2026-05-01T15:32:05.602Z</time></trkpt><trkpt lat="42.3344965" lon="14.1256996"><ele>43.5</ele><time>2026-05-01T15:32:06.602Z</time></trkpt><trkpt lat="42.3345499" lon="14.1258749"><ele>44.0</ele><time>2026-05-01T15:32:07.603Z</time></trkpt><trkpt lat="42.3346053" lon="14.1260511"><ele>44.5</ele><time>2026-05-01T15:32:08.605Z</time></trkpt><trkpt lat="42.3346585" lon="14.1262258"><ele>45.0</ele><time>2026-05-01T15:32:09.604Z</time></trkpt><trkpt lat="42.3347141" lon="14.1264029"><ele>45.25</ele><time>2026-05-01T15:32:10.602Z</time></trkpt><trkpt lat="42.3347744" lon="14.1265893"><ele>45.5</ele><time>2026-05-01T15:32:11.603Z</time></trkpt><trkpt lat="42.334832" lon="14.1267639"><ele>45.75</ele><time>2026-05-01T15:32:12.603Z</time></trkpt><trkpt lat="42.3348865" lon="14.1269269"><ele>46.0</ele><time>2026-05-01T15:32:13.602Z</time></trkpt><trkpt lat="42.33494" lon="14.1270883"><ele>46.0</ele><time>2026-05-01T15:32:14.6Z</time></trkpt><trkpt lat="42.3349922" lon="14.1272585"><ele>46.0</ele><time>2026-05-01T15:32:15.603Z</time></trkpt><trkpt lat="42.3350422" lon="14.1274363"><ele>46.0</ele><time>2026-05-01T15:32:16.604Z</time></trkpt><trkpt lat="42.3350902" lon="14.1276086"><ele>46.0</ele><time>2026-05-01T15:32:17.597Z</time></trkpt><trkpt lat="42.335146" lon="14.1277803"><ele>46.5</ele><time>2026-05-01T15:32:18.609Z</time></trkpt><trkpt lat="42.3351999" lon="14.1279493"><ele>47.0</ele><time>2026-05-01T15:32:19.604Z</time></trkpt><trkpt lat="42.3352497" lon="14.1281186"><ele>47.5</ele><time>2026-05-01T15:32:20.606Z</time></trkpt><trkpt lat="42.335302" lon="14.1282922"><ele>48.0</ele><time>2026-05-01T15:32:21.603Z</time></trkpt><trkpt lat="42.3353594" lon="14.128469"><ele>48.25</ele><time>2026-05-01T15:32:22.601Z</time></trkpt><trkpt lat="42.3354179" lon="14.128642"><ele>48.5</ele><time>2026-05-01T15:32:23.606Z</time></trkpt><trkpt lat="42.3354741" lon="14.1288039"><ele>48.75</ele><time>2026-05-01T15:32:24.601Z</time></trkpt><trkpt lat="42.3355292" lon="14.1289731"><ele>49.0</ele><time>2026-05-01T15:32:25.604Z</time></trkpt><trkpt lat="42.3355863" lon="14.1291445"><ele>49.25</ele><time>2026-05-01T15:32:26.604Z</time></trkpt><trkpt lat="42.3356431" lon="14.1293182"><ele>49.5</ele><time>2026-05-01T15:32:27.608Z</time></trkpt><trkpt lat="42.335699" lon="14.1294925"><ele>49.75</ele><time>2026-05-01T15:32:28.603Z</time></trkpt><trkpt lat="42.3357562" lon="14.1296731"><ele>50.0</ele><time>2026-05-01T15:32:29.601Z</time></trkpt><trkpt lat="42.3358095" lon="14.1298449"><ele>50.5</ele><time>2026-05-01T15:32:30.604Z</time></trkpt><trkpt lat="42.3358608" lon="14.1300158"><ele>51.0</ele><time>2026-05-01T15:32:31.599Z</time></trkpt><trkpt lat="42.3359095" lon="14.1301766"><ele>51.5</ele><time>2026-05-01T15:32:32.609Z</time></trkpt><trkpt lat="42.3359557" lon="14.1303383"><ele>52.0</ele><time>2026-05-01T15:32:33.602Z</time></trkpt><trkpt lat="42.3360076" lon="14.1305032"><ele>52.0</ele><time>2026-05-01T15:32:34.594Z</time></trkpt><trkpt lat="42.3360599" lon="14.1306756"><ele>52.0</ele><time>2026-05-01T15:32:35.599Z</time></trkpt><trkpt lat="42.3361125" lon="14.1308416"><ele>52.0</ele><time>2026-05-01T15:32:36.6Z</time></trkpt><trkpt lat="42.3361589" lon="14.1309998"><ele>52.0</ele><time>2026-05-01T15:32:37.598Z</time></trkpt><trkpt lat="42.3362062" lon="14.1311604"><ele>52.0</ele><time>2026-05-01T15:32:38.599Z</time></trkpt><trkpt lat="42.3362536" lon="14.131325"><ele>52.0</ele><time>2026-05-01T15:32:39.598Z</time></trkpt><trkpt lat="42.3363021" lon="14.131487"><ele>52.0</ele><time>2026-05-01T15:32:40.597Z</time></trkpt><trkpt lat="42.3363519" lon="14.1316392"><ele>52.0</ele><time>2026-05-01T15:32:41.594Z</time></trkpt><trkpt lat="42.3364011" lon="14.1317798"><ele>52.0</ele><time>2026-05-01T15:32:42.594Z</time></trkpt><trkpt lat="42.3364541" lon="14.1319227"><ele>52.0</ele><time>2026-05-01T15:32:43.592Z</time></trkpt><trkpt lat="42.3365161" lon="14.1320767"><ele>52.0</ele><time>2026-05-01T15:32:44.59Z</time></trkpt><trkpt lat="42.3365912" lon="14.1322228"><ele>52.0</ele><time>2026-05-01T15:32:45.59Z</time></trkpt><trkpt lat="42.3366708" lon="14.1323446"><ele>52.5</ele><time>2026-05-01T15:32:46.585Z</time></trkpt><trkpt lat="42.3367575" lon="14.1324719"><ele>53.0</ele><time>2026-05-01T15:32:47.571Z</time></trkpt><trkpt lat="42.3368582" lon="14.1325749"><ele>53.5</ele><time>2026-05-01T15:32:48.576Z</time></trkpt><trkpt lat="42.3369576" lon="14.1326778"><ele>54.0</ele><time>2026-05-01T15:32:49.58Z</time></trkpt><trkpt lat="42.3370535" lon="14.1327673"><ele>54.0</ele><time>2026-05-01T15:32:50.582Z</time></trkpt><trkpt lat="42.3371624" lon="14.1328341"><ele>54.0</ele><time>2026-05-01T15:32:51.593Z</time></trkpt><trkpt lat="42.3372822" lon="14.1329167"><ele>54.0</ele><time>2026-05-01T15:32:52.595Z</time></trkpt><trkpt lat="42.3374105" lon="14.1329806"><ele>54.0</ele><time>2026-05-01T15:32:53.594Z</time></trkpt><trkpt lat="42.3375417" lon="14.1330304"><ele>54.25</ele><time>2026-05-01T15:32:54.603Z</time></trkpt><trkpt lat="42.3376771" lon="14.1330732"><ele>54.5</ele><time>2026-05-01T15:32:55.603Z</time></trkpt><trkpt lat="42.3378065" lon="14.1331114"><ele>54.75</ele><time>2026-05-01T15:32:56.581Z</time></trkpt><trkpt lat="42.3379334" lon="14.1331468"><ele>55.0</ele><time>2026-05-01T15:32:57.583Z</time></trkpt><trkpt lat="42.3380629" lon="14.1331844"><ele>55.0</ele><time>2026-05-01T15:32:58.582Z</time></trkpt><trkpt lat="42.3381876" lon="14.1332177"><ele>55.0</ele><time>2026-05-01T15:32:59.583Z</time></trkpt><trkpt lat="42.3383115" lon="14.1332469"><ele>55.0</ele><time>2026-05-01T15:33:00.603Z</time></trkpt><trkpt lat="42.3384348" lon="14.1332772"><ele>55.0</ele><time>2026-05-01T15:33:01.599Z</time></trkpt><trkpt lat="42.3385593" lon="14.1333101"><ele>55.0</ele><time>2026-05-01T15:33:02.6Z</time></trkpt><trkpt lat="42.3386868" lon="14.1333447"><ele>55.0</ele><time>2026-05-01T15:33:03.599Z</time></trkpt><trkpt lat="42.3388077" lon="14.1333779"><ele>55.0</ele><time>2026-05-01T15:33:04.598Z</time></trkpt><trkpt lat="42.3389226" lon="14.1334071"><ele>55.0</ele><time>2026-05-01T15:33:05.597Z</time></trkpt><trkpt lat="42.3390303" lon="14.1334344"><ele>55.2</ele><time>2026-05-01T15:33:06.6Z</time></trkpt><trkpt lat="42.3391392" lon="14.1334631"><ele>55.4</ele><time>2026-05-01T15:33:07.595Z</time></trkpt><trkpt lat="42.3392455" lon="14.133491"><ele>55.599999999999994</ele><time>2026-05-01T15:33:08.595Z</time></trkpt><trkpt lat="42.3393528" lon="14.1335237"><ele>55.8</ele><time>2026-05-01T15:33:09.597Z</time></trkpt><trkpt lat="42.3394559" lon="14.133556"><ele>56.0</ele><time>2026-05-01T15:33:10.596Z</time></trkpt><trkpt lat="42.3395613" lon="14.1335845"><ele>56.0</ele><time>2026-05-01T15:33:11.598Z</time></trkpt><trkpt lat="42.3396634" lon="14.1336107"><ele>55.99999999999999</ele><time>2026-05-01T15:33:12.596Z</time></trkpt><trkpt lat="42.3397675" lon="14.133641"><ele>55.99999999999999</ele><time>2026-05-01T15:33:13.594Z</time></trkpt><trkpt lat="42.3398691" lon="14.1336718"><ele>56.0</ele><time>2026-05-01T15:33:14.599Z</time></trkpt><trkpt lat="42.3399627" lon="14.1337033"><ele>56.0</ele><time>2026-05-01T15:33:15.597Z</time></trkpt><trkpt lat="42.340052" lon="14.1337319"><ele>55.833333333333336</ele><time>2026-05-01T15:33:16.599Z</time></trkpt><trkpt lat="42.3401285" lon="14.1337542"><ele>55.66666666666667</ele><time>2026-05-01T15:33:17.594Z</time></trkpt><trkpt lat="42.3401931" lon="14.133773"><ele>55.5</ele><time>2026-05-01T15:33:18.594Z</time></trkpt><trkpt lat="42.3402575" lon="14.1337941"><ele>55.33333333333333</ele><time>2026-05-01T15:33:19.595Z</time></trkpt><trkpt lat="42.3403467" lon="14.1338301"><ele>55.166666666666664</ele><time>2026-05-01T15:33:21.596Z</time></trkpt><trkpt lat="42.3404097" lon="14.1338684"><ele>55.0</ele><time>2026-05-01T15:33:25.597Z</time></trkpt><trkpt lat="42.3404707" lon="14.1339459"><ele>54.6</ele><time>2026-05-01T15:33:28.605Z</time></trkpt><trkpt lat="42.3405598" lon="14.1340237"><ele>54.2</ele><time>2026-05-01T15:33:30.597Z</time></trkpt><trkpt lat="42.3406732" lon="14.1340114"><ele>53.8</ele><time>2026-05-01T15:33:32.591Z</time></trkpt><trkpt lat="42.340723" lon="14.1338656"><ele>53.4</ele><time>2026-05-01T15:33:34.581Z</time></trkpt><trkpt lat="42.3407128" lon="14.1337708"><ele>53.0</ele><time>2026-05-01T15:33:35.58Z</time></trkpt><trkpt lat="42.3406861" lon="14.1336814"><ele>53.0</ele><time>2026-05-01T15:33:36.6Z</time></trkpt><trkpt lat="42.340687" lon="14.1335892"><ele>53.0</ele><time>2026-05-01T15:33:37.502Z</time></trkpt><trkpt lat="42.3406907" lon="14.1334796"><ele>53.0</ele><time>2026-05-01T15:33:38.499Z</time></trkpt><trkpt lat="42.3407287" lon="14.1333678"><ele>53.0</ele><time>2026-05-01T15:33:39.496Z</time></trkpt><trkpt lat="42.3407894" lon="14.1332451"><ele>53.0</ele><time>2026-05-01T15:33:40.493Z</time></trkpt><trkpt lat="42.3408611" lon="14.1331203"><ele>52.5</ele><time>2026-05-01T15:33:41.493Z</time></trkpt><trkpt lat="42.3409361" lon="14.1329903"><ele>52.0</ele><time>2026-05-01T15:33:42.508Z</time></trkpt><trkpt lat="42.3410022" lon="14.1328602"><ele>51.5</ele><time>2026-05-01T15:33:43.502Z</time></trkpt><trkpt lat="42.3410808" lon="14.1327481"><ele>51.0</ele><time>2026-05-01T15:33:44.506Z</time></trkpt><trkpt lat="42.3411537" lon="14.1326357"><ele>51.0</ele><time>2026-05-01T15:33:45.504Z</time></trkpt><trkpt lat="42.3412351" lon="14.1325331"><ele>51.0</ele><time>2026-05-01T15:33:46.507Z</time></trkpt><trkpt lat="42.34131" lon="14.1324236"><ele>51.0</ele><time>2026-05-01T15:33:47.499Z</time></trkpt><trkpt lat="42.3413916" lon="14.132309"><ele>51.0</ele><time>2026-05-01T15:33:48.501Z</time></trkpt><trkpt lat="42.3414689" lon="14.1321764"><ele>50.25</ele><time>2026-05-01T15:33:49.506Z</time></trkpt><trkpt lat="42.3415319" lon="14.1320369"><ele>49.5</ele><time>2026-05-01T15:33:50.501Z</time></trkpt><trkpt lat="42.3415767" lon="14.1318901"><ele>48.75</ele><time>2026-05-01T15:33:51.505Z</time></trkpt><trkpt lat="42.3416192" lon="14.1317365"><ele>48.0</ele><time>2026-05-01T15:33:52.501Z</time></trkpt><trkpt lat="42.3416643" lon="14.1315919"><ele>47.8</ele><time>2026-05-01T15:33:53.508Z</time></trkpt><trkpt lat="42.3417087" lon="14.1314463"><ele>47.599999999999994</ele><time>2026-05-01T15:33:54.493Z</time></trkpt><trkpt lat="42.3417344" lon="14.1313126"><ele>47.400000000000006</ele><time>2026-05-01T15:33:55.492Z</time></trkpt><trkpt lat="42.3417829" lon="14.1312038"><ele>47.2</ele><time>2026-05-01T15:33:56.493Z</time></trkpt><trkpt lat="42.3418326" lon="14.1310996"><ele>47.0</ele><time>2026-05-01T15:33:57.495Z</time></trkpt><trkpt lat="42.341878" lon="14.130987"><ele>47.0</ele><time>2026-05-01T15:33:58.492Z</time></trkpt><trkpt lat="42.3419025" lon="14.1308472"><ele>47.0</ele><time>2026-05-01T15:33:59.498Z</time></trkpt><trkpt lat="42.3419157" lon="14.1306734"><ele>47.0</ele><time>2026-05-01T15:34:00.502Z</time></trkpt><trkpt lat="42.3419495" lon="14.1305281"><ele>47.0</ele><time>2026-05-01T15:34:01.497Z</time></trkpt><trkpt lat="42.3419798" lon="14.1303865"><ele>46.83333333333333</ele><time>2026-05-01T15:34:02.498Z</time></trkpt><trkpt lat="42.3419941" lon="14.1302651"><ele>46.666666666666664</ele><time>2026-05-01T15:34:03.492Z</time></trkpt><trkpt lat="42.3420275" lon="14.130163"><ele>46.5</ele><time>2026-05-01T15:34:04.485Z</time></trkpt><trkpt lat="42.3420509" lon="14.1300647"><ele>46.333333333333336</ele><time>2026-05-01T15:34:05.486Z</time></trkpt><trkpt lat="42.3420542" lon="14.1299717"><ele>46.16666666666667</ele><time>2026-05-01T15:34:06.48Z</time></trkpt><trkpt lat="42.3420553" lon="14.1298754"><ele>46.0</ele><time>2026-05-01T15:34:07.489Z</time></trkpt><trkpt lat="42.3420553" lon="14.1297825"><ele>45.66666666666667</ele><time>2026-05-01T15:34:08.491Z</time></trkpt><trkpt lat="42.3420903" lon="14.1296406"><ele>45.333333333333336</ele><time>2026-05-01T15:34:10.497Z</time></trkpt><trkpt lat="42.3421358" lon="14.1295766"><ele>45.0</ele><time>2026-05-01T15:34:11.502Z</time></trkpt><trkpt lat="42.3421764" lon="14.1294992"><ele>44.666666666666664</ele><time>2026-05-01T15:34:12.494Z</time></trkpt><trkpt lat="42.3422029" lon="14.1294186"><ele>44.33333333333333</ele><time>2026-05-01T15:34:13.495Z</time></trkpt><trkpt lat="42.3421772" lon="14.1292686"><ele>44.0</ele><time>2026-05-01T15:34:15.494Z</time></trkpt><trkpt lat="42.3421195" lon="14.1292091"><ele>44.0</ele><time>2026-05-01T15:34:16.495Z</time></trkpt><trkpt lat="42.3420423" lon="14.129155"><ele>44.0</ele><time>2026-05-01T15:34:17.496Z</time></trkpt><trkpt lat="42.3419642" lon="14.1290917"><ele>44.0</ele><time>2026-05-01T15:34:18.494Z</time></trkpt><trkpt lat="42.3418945" lon="14.1290004"><ele>44.0</ele><time>2026-05-01T15:34:19.491Z</time></trkpt><trkpt lat="42.3418522" lon="14.1288706"><ele>44.0</ele><time>2026-05-01T15:34:20.495Z</time></trkpt><trkpt lat="42.3418262" lon="14.1287281"><ele>42.75</ele><time>2026-05-01T15:34:21.493Z</time></trkpt><trkpt lat="42.3418016" lon="14.1285666"><ele>41.5</ele><time>2026-05-01T15:34:22.494Z</time></trkpt><trkpt lat="42.3417685" lon="14.1283857"><ele>40.25</ele><time>2026-05-01T15:34:23.495Z</time></trkpt><trkpt lat="42.3417417" lon="14.1281826"><ele>39.0</ele><time>2026-05-01T15:34:24.491Z</time></trkpt><trkpt lat="42.3417053" lon="14.1279728"><ele>38.333333333333336</ele><time>2026-05-01T15:34:25.495Z</time></trkpt><trkpt lat="42.341674" lon="14.1277686"><ele>37.66666666666667</ele><time>2026-05-01T15:34:26.497Z</time></trkpt><trkpt lat="42.3416399" lon="14.1275549"><ele>37.0</ele><time>2026-05-01T15:34:27.498Z</time></trkpt><trkpt lat="42.3416081" lon="14.1273578"><ele>36.333333333333336</ele><time>2026-05-01T15:34:28.505Z</time></trkpt><trkpt lat="42.341575" lon="14.1271493"><ele>35.666666666666664</ele><time>2026-05-01T15:34:29.507Z</time></trkpt><trkpt lat="42.3415418" lon="14.1269428"><ele>35.0</ele><time>2026-05-01T15:34:30.509Z</time></trkpt><trkpt lat="42.341508" lon="14.1267321"><ele>34.0</ele><time>2026-05-01T15:34:31.506Z</time></trkpt><trkpt lat="42.3414749" lon="14.1265137"><ele>33.0</ele><time>2026-05-01T15:34:32.505Z</time></trkpt><trkpt lat="42.3414353" lon="14.1263135"><ele>32.0</ele><time>2026-05-01T15:34:33.504Z</time></trkpt><trkpt lat="42.3413937" lon="14.1260909"><ele>32.666666666666664</ele><time>2026-05-01T15:34:34.505Z</time></trkpt><trkpt lat="42.3413612" lon="14.1258727"><ele>33.333333333333336</ele><time>2026-05-01T15:34:35.504Z</time></trkpt><trkpt lat="42.3413281" lon="14.1256465"><ele>34.0</ele><time>2026-05-01T15:34:36.506Z</time></trkpt><trkpt lat="42.3412879" lon="14.1254226"><ele>34.0</ele><time>2026-05-01T15:34:37.507Z</time></trkpt><trkpt lat="42.3412409" lon="14.1252104"><ele>34.0</ele><time>2026-05-01T15:34:38.509Z</time></trkpt><trkpt lat="42.3412013" lon="14.12499"><ele>34.0</ele><time>2026-05-01T15:34:39.503Z</time></trkpt><trkpt lat="42.3411631" lon="14.1247737"><ele>34.333333333333336</ele><time>2026-05-01T15:34:40.509Z</time></trkpt><trkpt lat="42.3411269" lon="14.1245611"><ele>34.666666666666664</ele><time>2026-05-01T15:34:41.506Z</time></trkpt><trkpt lat="42.3410867" lon="14.1243415"><ele>35.0</ele><time>2026-05-01T15:34:42.509Z</time></trkpt><trkpt lat="42.3410487" lon="14.1241265"><ele>35.33333333333333</ele><time>2026-05-01T15:34:43.506Z</time></trkpt><trkpt lat="42.3410135" lon="14.1239089"><ele>35.666666666666664</ele><time>2026-05-01T15:34:44.508Z</time></trkpt><trkpt lat="42.3409741" lon="14.1236959"><ele>36.0</ele><time>2026-05-01T15:34:45.501Z</time></trkpt><trkpt lat="42.3409443" lon="14.1234716"><ele>36.0</ele><time>2026-05-01T15:34:46.506Z</time></trkpt><trkpt lat="42.3409131" lon="14.1232609"><ele>36.0</ele><time>2026-05-01T15:34:47.508Z</time></trkpt><trkpt lat="42.340891" lon="14.1230681"><ele>36.0</ele><time>2026-05-01T15:34:48.508Z</time></trkpt><trkpt lat="42.3408595" lon="14.1228772"><ele>36.0</ele><time>2026-05-01T15:34:49.51Z</time></trkpt><trkpt lat="42.3408322" lon="14.1226861"><ele>35.75</ele><time>2026-05-01T15:34:50.513Z</time></trkpt><trkpt lat="42.3407989" lon="14.1224863"><ele>35.5</ele><time>2026-05-01T15:34:51.511Z</time></trkpt><trkpt lat="42.3407869" lon="14.122302"><ele>35.25</ele><time>2026-05-01T15:34:52.504Z</time></trkpt><trkpt lat="42.3408009" lon="14.1221124"><ele>35.0</ele><time>2026-05-01T15:34:53.509Z</time></trkpt><trkpt lat="42.340828" lon="14.1219428"><ele>34.8</ele><time>2026-05-01T15:34:54.505Z</time></trkpt><trkpt lat="42.3408759" lon="14.1217887"><ele>34.6</ele><time>2026-05-01T15:34:55.498Z</time></trkpt><trkpt lat="42.3409495" lon="14.1216851"><ele>34.4</ele><time>2026-05-01T15:34:56.506Z</time></trkpt><trkpt lat="42.3410178" lon="14.1215871"><ele>34.2</ele><time>2026-05-01T15:34:57.513Z</time></trkpt><trkpt lat="42.3410859" lon="14.1215132"><ele>34.0</ele><time>2026-05-01T15:34:58.52Z</time></trkpt><trkpt lat="42.3411611" lon="14.1214435"><ele>33.2</ele><time>2026-05-01T15:34:59.518Z</time></trkpt><trkpt lat="42.3412031" lon="14.1213381"><ele>32.4</ele><time>2026-05-01T15:35:00.514Z</time></trkpt><trkpt lat="42.3412226" lon="14.1212126"><ele>31.6</ele><time>2026-05-01T15:35:01.506Z</time></trkpt><trkpt lat="42.3412341" lon="14.121073"><ele>30.8</ele><time>2026-05-01T15:35:02.518Z</time></trkpt><trkpt lat="42.3412453" lon="14.1209282"><ele>30.0</ele><time>2026-05-01T15:35:03.51Z</time></trkpt><trkpt lat="42.3412935" lon="14.1207953"><ele>30.0</ele><time>2026-05-01T15:35:04.506Z</time></trkpt><trkpt lat="42.3413673" lon="14.1206624"><ele>30.0</ele><time>2026-05-01T15:35:05.514Z</time></trkpt><trkpt lat="42.3414556" lon="14.1205286"><ele>30.0</ele><time>2026-05-01T15:35:06.515Z</time></trkpt><trkpt lat="42.3415487" lon="14.1203745"><ele>30.0</ele><time>2026-05-01T15:35:07.505Z</time></trkpt><trkpt lat="42.3416606" lon="14.1202201"><ele>30.333333333333336</ele><time>2026-05-01T15:35:08.509Z</time></trkpt><trkpt lat="42.3417618" lon="14.1200436"><ele>30.666666666666668</ele><time>2026-05-01T15:35:09.506Z</time></trkpt><trkpt lat="42.3418527" lon="14.119873"><ele>31.0</ele><time>2026-05-01T15:35:10.508Z</time></trkpt><trkpt lat="42.3419504" lon="14.1196996"><ele>31.0</ele><time>2026-05-01T15:35:11.507Z</time></trkpt><trkpt lat="42.3420624" lon="14.1195236"><ele>31.0</ele><time>2026-05-01T15:35:12.511Z</time></trkpt><trkpt lat="42.3421577" lon="14.1193514"><ele>31.0</ele><time>2026-05-01T15:35:13.507Z</time></trkpt><trkpt lat="42.3422425" lon="14.1191646"><ele>31.666666666666668</ele><time>2026-05-01T15:35:14.51Z</time></trkpt><trkpt lat="42.3423373" lon="14.1189881"><ele>32.333333333333336</ele><time>2026-05-01T15:35:15.504Z</time></trkpt><trkpt lat="42.3424209" lon="14.1187866"><ele>33.0</ele><time>2026-05-01T15:35:16.503Z</time></trkpt><trkpt lat="42.3424855" lon="14.1185811"><ele>33.0</ele><time>2026-05-01T15:35:17.511Z</time></trkpt><trkpt lat="42.3425437" lon="14.1183725"><ele>33.0</ele><time>2026-05-01T15:35:18.506Z</time></trkpt><trkpt lat="42.3425883" lon="14.1181621"><ele>33.0</ele><time>2026-05-01T15:35:19.513Z</time></trkpt><trkpt lat="42.3426306" lon="14.117948"><ele>35.0</ele><time>2026-05-01T15:35:20.517Z</time></trkpt><trkpt lat="42.342662" lon="14.1177196"><ele>37.0</ele><time>2026-05-01T15:35:21.512Z</time></trkpt><trkpt lat="42.3427016" lon="14.1175107"><ele>39.0</ele><time>2026-05-01T15:35:22.515Z</time></trkpt><trkpt lat="42.3427397" lon="14.1173059"><ele>41.0</ele><time>2026-05-01T15:35:23.515Z</time></trkpt><trkpt lat="42.3427792" lon="14.117105"><ele>43.0</ele><time>2026-05-01T15:35:24.512Z</time></trkpt><trkpt lat="42.3428245" lon="14.116897"><ele>45.0</ele><time>2026-05-01T15:35:25.509Z</time></trkpt><trkpt lat="42.3428647" lon="14.1166751"><ele>45.333333333333336</ele><time>2026-05-01T15:35:26.505Z</time></trkpt><trkpt lat="42.3429016" lon="14.1164501"><ele>45.66666666666667</ele><time>2026-05-01T15:35:27.511Z</time></trkpt><trkpt lat="42.3429432" lon="14.1162347"><ele>46.0</ele><time>2026-05-01T15:35:28.516Z</time></trkpt><trkpt lat="42.3429822" lon="14.1160332"><ele>46.0</ele><time>2026-05-01T15:35:29.512Z</time></trkpt><trkpt lat="42.343021" lon="14.1158407"><ele>46.0</ele><time>2026-05-01T15:35:30.514Z</time></trkpt><trkpt lat="42.343059" lon="14.1156418"><ele>46.0</ele><time>2026-05-01T15:35:31.509Z</time></trkpt><trkpt lat="42.3430908" lon="14.1154471"><ele>46.0</ele><time>2026-05-01T15:35:32.514Z</time></trkpt><trkpt lat="42.3431157" lon="14.1152564"><ele>46.5</ele><time>2026-05-01T15:35:33.514Z</time></trkpt><trkpt lat="42.3431376" lon="14.1150936"><ele>47.0</ele><time>2026-05-01T15:35:34.509Z</time></trkpt><trkpt lat="42.3431634" lon="14.1149257"><ele>47.5</ele><time>2026-05-01T15:35:35.532Z</time></trkpt><trkpt lat="42.3431853" lon="14.1147411"><ele>48.0</ele><time>2026-05-01T15:35:36.595Z</time></trkpt><trkpt lat="42.3432094" lon="14.1145609"><ele>48.0</ele><time>2026-05-01T15:35:37.598Z</time></trkpt><trkpt lat="42.3432342" lon="14.1143961"><ele>48.0</ele><time>2026-05-01T15:35:38.601Z</time></trkpt><trkpt lat="42.3432548" lon="14.114241"><ele>48.0</ele><time>2026-05-01T15:35:39.601Z</time></trkpt><trkpt lat="42.3432764" lon="14.1140836"><ele>48.0</ele><time>2026-05-01T15:35:40.601Z</time></trkpt><trkpt lat="42.3432984" lon="14.1139251"><ele>47.75</ele><time>2026-05-01T15:35:41.601Z</time></trkpt><trkpt lat="42.3433206" lon="14.1137586"><ele>47.5</ele><time>2026-05-01T15:35:42.6Z</time></trkpt><trkpt lat="42.3433453" lon="14.1135832"><ele>47.25</ele><time>2026-05-01T15:35:43.602Z</time></trkpt><trkpt lat="42.3433685" lon="14.113409"><ele>47.0</ele><time>2026-05-01T15:35:44.6Z</time></trkpt><trkpt lat="42.3433902" lon="14.1132466"><ele>47.0</ele><time>2026-05-01T15:35:45.602Z</time></trkpt><trkpt lat="42.343411" lon="14.1130968"><ele>47.0</ele><time>2026-05-01T15:35:46.6Z</time></trkpt><trkpt lat="42.3434193" lon="14.1129482"><ele>47.0</ele><time>2026-05-01T15:35:47.602Z</time></trkpt><trkpt lat="42.3434389" lon="14.1128077"><ele>47.0</ele><time>2026-05-01T15:35:48.603Z</time></trkpt><trkpt lat="42.343455" lon="14.1126708"><ele>47.0</ele><time>2026-05-01T15:35:49.601Z</time></trkpt><trkpt lat="42.3434711" lon="14.1125421"><ele>47.0</ele><time>2026-05-01T15:35:50.6Z</time></trkpt><trkpt lat="42.343488" lon="14.1124225"><ele>47.0</ele><time>2026-05-01T15:35:51.599Z</time></trkpt><trkpt lat="42.3435046" lon="14.1123157"><ele>47.0</ele><time>2026-05-01T15:35:52.599Z</time></trkpt><trkpt lat="42.3435179" lon="14.1122153"><ele>47.0</ele><time>2026-05-01T15:35:53.604Z</time></trkpt><trkpt lat="42.3435312" lon="14.112124"><ele>47.0</ele><time>2026-05-01T15:35:54.596Z</time></trkpt><trkpt lat="42.3435468" lon="14.1120406"><ele>47.0</ele><time>2026-05-01T15:35:55.603Z</time></trkpt><trkpt lat="42.3435634" lon="14.111944"><ele>47.0</ele><time>2026-05-01T15:35:56.603Z</time></trkpt><trkpt lat="42.343577" lon="14.1118486"><ele>47.0</ele><time>2026-05-01T15:35:57.604Z</time></trkpt><trkpt lat="42.3435912" lon="14.111754"><ele>47.0</ele><time>2026-05-01T15:35:58.602Z</time></trkpt><trkpt lat="42.343609" lon="14.1116522"><ele>47.0</ele><time>2026-05-01T15:35:59.598Z</time></trkpt><trkpt lat="42.3436347" lon="14.1115628"><ele>47.0</ele><time>2026-05-01T15:36:00.602Z</time></trkpt><trkpt lat="42.3437217" lon="14.1114873"><ele>47.0</ele><time>2026-05-01T15:36:02.582Z</time></trkpt><trkpt lat="42.343828" lon="14.1115211"><ele>47.2</ele><time>2026-05-01T15:36:04.497Z</time></trkpt><trkpt lat="42.3439017" lon="14.1115864"><ele>47.400000000000006</ele><time>2026-05-01T15:36:05.487Z</time></trkpt><trkpt lat="42.3439938" lon="14.1116364"><ele>47.599999999999994</ele><time>2026-05-01T15:36:06.508Z</time></trkpt><trkpt lat="42.3440816" lon="14.1116916"><ele>47.8</ele><time>2026-05-01T15:36:07.502Z</time></trkpt><trkpt lat="42.3441847" lon="14.1117555"><ele>48.0</ele><time>2026-05-01T15:36:08.499Z</time></trkpt><trkpt lat="42.3442973" lon="14.11181"><ele>48.0</ele><time>2026-05-01T15:36:09.498Z</time></trkpt><trkpt lat="42.344426" lon="14.1118814"><ele>48.0</ele><time>2026-05-01T15:36:10.506Z</time></trkpt><trkpt lat="42.3445627" lon="14.1119633"><ele>48.0</ele><time>2026-05-01T15:36:11.503Z</time></trkpt><trkpt lat="42.3446962" lon="14.112054"><ele>48.0</ele><time>2026-05-01T15:36:12.502Z</time></trkpt><trkpt lat="42.3448363" lon="14.1121566"><ele>47.0</ele><time>2026-05-01T15:36:13.5Z</time></trkpt><trkpt lat="42.3449671" lon="14.1122541"><ele>46.0</ele><time>2026-05-01T15:36:14.504Z</time></trkpt><trkpt lat="42.3451082" lon="14.112336"><ele>45.0</ele><time>2026-05-01T15:36:15.504Z</time></trkpt><trkpt lat="42.3452504" lon="14.1123947"><ele>45.333333333333336</ele><time>2026-05-01T15:36:16.5Z</time></trkpt><trkpt lat="42.3454021" lon="14.1124481"><ele>45.66666666666667</ele><time>2026-05-01T15:36:17.498Z</time></trkpt><trkpt lat="42.3455597" lon="14.1125017"><ele>46.0</ele><time>2026-05-01T15:36:18.508Z</time></trkpt><trkpt lat="42.3457106" lon="14.1125392"><ele>46.0</ele><time>2026-05-01T15:36:19.506Z</time></trkpt><trkpt lat="42.3458809" lon="14.1125895"><ele>46.0</ele><time>2026-05-01T15:36:20.511Z</time></trkpt><trkpt lat="42.3460492" lon="14.1126409"><ele>46.0</ele><time>2026-05-01T15:36:21.509Z</time></trkpt><trkpt lat="42.3462096" lon="14.1127017"><ele>46.0</ele><time>2026-05-01T15:36:22.503Z</time></trkpt><trkpt lat="42.3463728" lon="14.1127688"><ele>46.0</ele><time>2026-05-01T15:36:23.511Z</time></trkpt><trkpt lat="42.3465211" lon="14.1128402"><ele>46.0</ele><time>2026-05-01T15:36:24.507Z</time></trkpt><trkpt lat="42.3466714" lon="14.1129083"><ele>45.333333333333336</ele><time>2026-05-01T15:36:25.502Z</time></trkpt><trkpt lat="42.3468236" lon="14.1129848"><ele>44.666666666666664</ele><time>2026-05-01T15:36:26.509Z</time></trkpt><trkpt lat="42.3469771" lon="14.1130761"><ele>44.0</ele><time>2026-05-01T15:36:27.508Z</time></trkpt><trkpt lat="42.3471329" lon="14.1131489"><ele>44.33333333333333</ele><time>2026-05-01T15:36:28.511Z</time></trkpt><trkpt lat="42.3472874" lon="14.1132259"><ele>44.666666666666664</ele><time>2026-05-01T15:36:29.512Z</time></trkpt><trkpt lat="42.347448" lon="14.1133058"><ele>45.0</ele><time>2026-05-01T15:36:30.515Z</time></trkpt><trkpt lat="42.3476034" lon="14.1133896"><ele>45.0</ele><time>2026-05-01T15:36:31.515Z</time></trkpt><trkpt lat="42.3477445" lon="14.1134556"><ele>45.0</ele><time>2026-05-01T15:36:32.513Z</time></trkpt><trkpt lat="42.3478821" lon="14.1135203"><ele>45.0</ele><time>2026-05-01T15:36:33.511Z</time></trkpt><trkpt lat="42.3480096" lon="14.1135732"><ele>45.0</ele><time>2026-05-01T15:36:34.515Z</time></trkpt><trkpt lat="42.3481367" lon="14.1136284"><ele>45.0</ele><time>2026-05-01T15:36:35.511Z</time></trkpt><trkpt lat="42.3482658" lon="14.1136682"><ele>45.0</ele><time>2026-05-01T15:36:36.503Z</time></trkpt><trkpt lat="42.3483974" lon="14.1136724"><ele>45.0</ele><time>2026-05-01T15:36:37.502Z</time></trkpt><trkpt lat="42.3485442" lon="14.1136369"><ele>45.0</ele><time>2026-05-01T15:36:38.509Z</time></trkpt><trkpt lat="42.3486813" lon="14.1135609"><ele>45.0</ele><time>2026-05-01T15:36:39.506Z</time></trkpt><trkpt lat="42.3488226" lon="14.1134659"><ele>45.0</ele><time>2026-05-01T15:36:40.512Z</time></trkpt><trkpt lat="42.3489682" lon="14.1133751"><ele>45.0</ele><time>2026-05-01T15:36:41.513Z</time></trkpt><trkpt lat="42.3491148" lon="14.1132814"><ele>44.0</ele><time>2026-05-01T15:36:42.509Z</time></trkpt><trkpt lat="42.3492625" lon="14.1131831"><ele>43.0</ele><time>2026-05-01T15:36:43.508Z</time></trkpt><trkpt lat="42.3493905" lon="14.1130868"><ele>42.0</ele><time>2026-05-01T15:36:44.508Z</time></trkpt><trkpt lat="42.349501" lon="14.1130102"><ele>41.0</ele><time>2026-05-01T15:36:45.511Z</time></trkpt><trkpt lat="42.3496204" lon="14.1129367"><ele>41.75</ele><time>2026-05-01T15:36:46.51Z</time></trkpt><trkpt lat="42.3497464" lon="14.1128579"><ele>42.5</ele><time>2026-05-01T15:36:47.51Z</time></trkpt><trkpt lat="42.3498652" lon="14.1127678"><ele>43.25</ele><time>2026-05-01T15:36:48.508Z</time></trkpt><trkpt lat="42.349977" lon="14.1126953"><ele>44.0</ele><time>2026-05-01T15:36:49.51Z</time></trkpt><trkpt lat="42.3500863" lon="14.112619"><ele>44.0</ele><time>2026-05-01T15:36:50.512Z</time></trkpt><trkpt lat="42.35022" lon="14.1125581"><ele>44.0</ele><time>2026-05-01T15:36:51.507Z</time></trkpt><trkpt lat="42.3503559" lon="14.1125162"><ele>44.0</ele><time>2026-05-01T15:36:52.509Z</time></trkpt><trkpt lat="42.3505045" lon="14.1124955"><ele>44.0</ele><time>2026-05-01T15:36:53.51Z</time></trkpt><trkpt lat="42.350644" lon="14.1124972"><ele>44.0</ele><time>2026-05-01T15:36:54.506Z</time></trkpt><trkpt lat="42.3507781" lon="14.1125253"><ele>44.0</ele><time>2026-05-01T15:36:55.512Z</time></trkpt><trkpt lat="42.3509324" lon="14.1125603"><ele>44.0</ele><time>2026-05-01T15:36:56.506Z</time></trkpt><trkpt lat="42.351084" lon="14.1125977"><ele>44.0</ele><time>2026-05-01T15:36:57.507Z</time></trkpt><trkpt lat="42.3512441" lon="14.112652"><ele>42.666666666666664</ele><time>2026-05-01T15:36:58.507Z</time></trkpt><trkpt lat="42.3513944" lon="14.112716"><ele>41.333333333333336</ele><time>2026-05-01T15:36:59.507Z</time></trkpt><trkpt lat="42.3515354" lon="14.1127834"><ele>40.0</ele><time>2026-05-01T15:37:00.508Z</time></trkpt><trkpt lat="42.3516867" lon="14.1128466"><ele>40.0</ele><time>2026-05-01T15:37:01.509Z</time></trkpt><trkpt lat="42.3518264" lon="14.1129014"><ele>40.0</ele><time>2026-05-01T15:37:02.508Z</time></trkpt><trkpt lat="42.3519683" lon="14.1129612"><ele>40.0</ele><time>2026-05-01T15:37:03.508Z</time></trkpt><trkpt lat="42.3520986" lon="14.1130246"><ele>40.0</ele><time>2026-05-01T15:37:04.508Z</time></trkpt><trkpt lat="42.3522412" lon="14.1130993"><ele>38.66666666666667</ele><time>2026-05-01T15:37:05.506Z</time></trkpt><trkpt lat="42.3523806" lon="14.1131507"><ele>37.333333333333336</ele><time>2026-05-01T15:37:06.496Z</time></trkpt><trkpt lat="42.3525279" lon="14.1132039"><ele>36.0</ele><time>2026-05-01T15:37:07.502Z</time></trkpt><trkpt lat="42.3526787" lon="14.1132488"><ele>36.0</ele><time>2026-05-01T15:37:08.506Z</time></trkpt><trkpt lat="42.3528243" lon="14.1132952"><ele>36.0</ele><time>2026-05-01T15:37:09.501Z</time></trkpt><trkpt lat="42.3529662" lon="14.1133598"><ele>36.0</ele><time>2026-05-01T15:37:10.502Z</time></trkpt><trkpt lat="42.3531237" lon="14.113421"><ele>35.666666666666664</ele><time>2026-05-01T15:37:11.505Z</time></trkpt><trkpt lat="42.3532746" lon="14.1134762"><ele>35.33333333333333</ele><time>2026-05-01T15:37:12.504Z</time></trkpt><trkpt lat="42.3534234" lon="14.1135411"><ele>35.0</ele><time>2026-05-01T15:37:13.504Z</time></trkpt><trkpt lat="42.3535728" lon="14.1136077"><ele>35.0</ele><time>2026-05-01T15:37:14.506Z</time></trkpt><trkpt lat="42.3537223" lon="14.113669"><ele>35.0</ele><time>2026-05-01T15:37:15.507Z</time></trkpt><trkpt lat="42.3538682" lon="14.113732"><ele>35.0</ele><time>2026-05-01T15:37:16.513Z</time></trkpt><trkpt lat="42.3540131" lon="14.1137917"><ele>35.33333333333333</ele><time>2026-05-01T15:37:17.505Z</time></trkpt><trkpt lat="42.3541549" lon="14.1138599"><ele>35.666666666666664</ele><time>2026-05-01T15:37:18.505Z</time></trkpt><trkpt lat="42.3543064" lon="14.1139201"><ele>36.0</ele><time>2026-05-01T15:37:19.508Z</time></trkpt><trkpt lat="42.3544612" lon="14.1139796"><ele>36.0</ele><time>2026-05-01T15:37:20.513Z</time></trkpt><trkpt lat="42.354617" lon="14.1140402"><ele>36.0</ele><time>2026-05-01T15:37:21.506Z</time></trkpt><trkpt lat="42.3547721" lon="14.1140943"><ele>36.0</ele><time>2026-05-01T15:37:22.51Z</time></trkpt><trkpt lat="42.3549131" lon="14.1141423"><ele>36.333333333333336</ele><time>2026-05-01T15:37:23.51Z</time></trkpt><trkpt lat="42.355048" lon="14.1142007"><ele>36.66666666666667</ele><time>2026-05-01T15:37:24.506Z</time></trkpt><trkpt lat="42.3551959" lon="14.1142642"><ele>37.0</ele><time>2026-05-01T15:37:25.509Z</time></trkpt><trkpt lat="42.355343" lon="14.1143209"><ele>37.0</ele><time>2026-05-01T15:37:26.504Z</time></trkpt><trkpt lat="42.3554914" lon="14.1143889"><ele>37.0</ele><time>2026-05-01T15:37:27.51Z</time></trkpt><trkpt lat="42.355647" lon="14.1144575"><ele>37.0</ele><time>2026-05-01T15:37:28.507Z</time></trkpt><trkpt lat="42.3558005" lon="14.1145287"><ele>40.333333333333336</ele><time>2026-05-01T15:37:29.506Z</time></trkpt><trkpt lat="42.3559638" lon="14.1145834"><ele>43.666666666666664</ele><time>2026-05-01T15:37:30.502Z</time></trkpt><trkpt lat="42.356118" lon="14.114642"><ele>47.0</ele><time>2026-05-01T15:37:31.504Z</time></trkpt><trkpt lat="42.3562641" lon="14.1146859"><ele>47.666666666666664</ele><time>2026-05-01T15:37:32.499Z</time></trkpt><trkpt lat="42.3564173" lon="14.1147415"><ele>48.33333333333333</ele><time>2026-05-01T15:37:33.498Z</time></trkpt><trkpt lat="42.3565704" lon="14.1148033"><ele>49.0</ele><time>2026-05-01T15:37:34.496Z</time></trkpt><trkpt lat="42.3567361" lon="14.114866"><ele>46.33333333333333</ele><time>2026-05-01T15:37:35.503Z</time></trkpt><trkpt lat="42.3569086" lon="14.114938"><ele>43.666666666666664</ele><time>2026-05-01T15:37:36.503Z</time></trkpt><trkpt lat="42.3570747" lon="14.1150134"><ele>41.0</ele><time>2026-05-01T15:37:37.502Z</time></trkpt><trkpt lat="42.3572274" lon="14.1150852"><ele>41.0</ele><time>2026-05-01T15:37:38.504Z</time></trkpt><trkpt lat="42.3573731" lon="14.115143"><ele>41.0</ele><time>2026-05-01T15:37:39.5Z</time></trkpt><trkpt lat="42.3575021" lon="14.1151829"><ele>41.0</ele><time>2026-05-01T15:37:40.504Z</time></trkpt><trkpt lat="42.3576478" lon="14.1152285"><ele>41.0</ele><time>2026-05-01T15:37:41.499Z</time></trkpt><trkpt lat="42.357797" lon="14.1152914"><ele>41.0</ele><time>2026-05-01T15:37:42.508Z</time></trkpt><trkpt lat="42.3579507" lon="14.1153568"><ele>41.0</ele><time>2026-05-01T15:37:43.503Z</time></trkpt><trkpt lat="42.3580999" lon="14.1154259"><ele>41.0</ele><time>2026-05-01T15:37:44.504Z</time></trkpt><trkpt lat="42.3582562" lon="14.1155"><ele>41.0</ele><time>2026-05-01T15:37:45.507Z</time></trkpt><trkpt lat="42.3584213" lon="14.1155724"><ele>41.0</ele><time>2026-05-01T15:37:46.506Z</time></trkpt><trkpt lat="42.358588" lon="14.1156321"><ele>41.0</ele><time>2026-05-01T15:37:47.508Z</time></trkpt><trkpt lat="42.3587608" lon="14.1157025"><ele>39.33333333333333</ele><time>2026-05-01T15:37:48.504Z</time></trkpt><trkpt lat="42.3589343" lon="14.1157809"><ele>37.666666666666664</ele><time>2026-05-01T15:37:49.502Z</time></trkpt><trkpt lat="42.3591139" lon="14.1158514"><ele>36.0</ele><time>2026-05-01T15:37:50.509Z</time></trkpt><trkpt lat="42.3592868" lon="14.1159155"><ele>36.0</ele><time>2026-05-01T15:37:51.501Z</time></trkpt><trkpt lat="42.3594566" lon="14.1159652"><ele>36.0</ele><time>2026-05-01T15:37:52.501Z</time></trkpt><trkpt lat="42.3596355" lon="14.1160402"><ele>36.0</ele><time>2026-05-01T15:37:53.499Z</time></trkpt><trkpt lat="42.3597973" lon="14.116122"><ele>36.333333333333336</ele><time>2026-05-01T15:37:54.502Z</time></trkpt><trkpt lat="42.3599605" lon="14.1162065"><ele>36.66666666666667</ele><time>2026-05-01T15:37:55.499Z</time></trkpt><trkpt lat="42.3601285" lon="14.1162867"><ele>37.0</ele><time>2026-05-01T15:37:56.502Z</time></trkpt><trkpt lat="42.3602922" lon="14.116364"><ele>37.0</ele><time>2026-05-01T15:37:57.497Z</time></trkpt><trkpt lat="42.3604647" lon="14.1164324"><ele>37.0</ele><time>2026-05-01T15:37:58.503Z</time></trkpt><trkpt lat="42.3606269" lon="14.1164988"><ele>37.0</ele><time>2026-05-01T15:37:59.5Z</time></trkpt><trkpt lat="42.3607908" lon="14.1165657"><ele>34.66666666666667</ele><time>2026-05-01T15:38:00.499Z</time></trkpt><trkpt lat="42.3609576" lon="14.1166321"><ele>32.333333333333336</ele><time>2026-05-01T15:38:01.496Z</time></trkpt><trkpt lat="42.3611202" lon="14.1166965"><ele>30.0</ele><time>2026-05-01T15:38:02.51Z</time></trkpt><trkpt lat="42.361285" lon="14.1167669"><ele>32.0</ele><time>2026-05-01T15:38:03.501Z</time></trkpt><trkpt lat="42.3614465" lon="14.116837"><ele>34.0</ele><time>2026-05-01T15:38:04.507Z</time></trkpt><trkpt lat="42.3616091" lon="14.1169244"><ele>36.0</ele><time>2026-05-01T15:38:05.504Z</time></trkpt><trkpt lat="42.3617774" lon="14.116996"><ele>36.0</ele><time>2026-05-01T15:38:06.508Z</time></trkpt><trkpt lat="42.3619448" lon="14.1170786"><ele>36.0</ele><time>2026-05-01T15:38:07.508Z</time></trkpt><trkpt lat="42.3621152" lon="14.1171507"><ele>36.0</ele><time>2026-05-01T15:38:08.501Z</time></trkpt><trkpt lat="42.3622746" lon="14.1172226"><ele>33.666666666666664</ele><time>2026-05-01T15:38:09.502Z</time></trkpt><trkpt lat="42.3624321" lon="14.1172801"><ele>31.333333333333332</ele><time>2026-05-01T15:38:10.499Z</time></trkpt><trkpt lat="42.3625917" lon="14.1173481"><ele>29.0</ele><time>2026-05-01T15:38:11.499Z</time></trkpt><trkpt lat="42.3627566" lon="14.1174052"><ele>29.0</ele><time>2026-05-01T15:38:12.495Z</time></trkpt><trkpt lat="42.3629309" lon="14.1174406"><ele>29.0</ele><time>2026-05-01T15:38:13.496Z</time></trkpt><trkpt lat="42.363101" lon="14.1174568"><ele>29.0</ele><time>2026-05-01T15:38:14.497Z</time></trkpt><trkpt lat="42.3632712" lon="14.1174656"><ele>29.666666666666664</ele><time>2026-05-01T15:38:15.501Z</time></trkpt><trkpt lat="42.3634456" lon="14.1174748"><ele>30.333333333333336</ele><time>2026-05-01T15:38:16.501Z</time></trkpt><trkpt lat="42.3636154" lon="14.1174758"><ele>31.0</ele><time>2026-05-01T15:38:17.496Z</time></trkpt><trkpt lat="42.3637919" lon="14.1174878"><ele>31.666666666666668</ele><time>2026-05-01T15:38:18.505Z</time></trkpt><trkpt lat="42.3639638" lon="14.1175001"><ele>32.333333333333336</ele><time>2026-05-01T15:38:19.502Z</time></trkpt><trkpt lat="42.3641308" lon="14.1175073"><ele>33.0</ele><time>2026-05-01T15:38:20.509Z</time></trkpt><trkpt lat="42.3642987" lon="14.1175239"><ele>33.0</ele><time>2026-05-01T15:38:21.498Z</time></trkpt><trkpt lat="42.364466" lon="14.1175793"><ele>33.0</ele><time>2026-05-01T15:38:22.501Z</time></trkpt><trkpt lat="42.3646255" lon="14.1176726"><ele>33.0</ele><time>2026-05-01T15:38:23.498Z</time></trkpt><trkpt lat="42.3647857" lon="14.1177833"><ele>32.666666666666664</ele><time>2026-05-01T15:38:24.506Z</time></trkpt><trkpt lat="42.3649445" lon="14.1179011"><ele>32.33333333333333</ele><time>2026-05-01T15:38:25.5Z</time></trkpt><trkpt lat="42.3651071" lon="14.1180015"><ele>32.0</ele><time>2026-05-01T15:38:26.505Z</time></trkpt><trkpt lat="42.3652644" lon="14.1181012"><ele>32.0</ele><time>2026-05-01T15:38:27.502Z</time></trkpt><trkpt lat="42.3654206" lon="14.1182051"><ele>32.0</ele><time>2026-05-01T15:38:28.503Z</time></trkpt><trkpt lat="42.3655749" lon="14.1183229"><ele>32.0</ele><time>2026-05-01T15:38:29.499Z</time></trkpt><trkpt lat="42.3657234" lon="14.1184432"><ele>30.666666666666664</ele><time>2026-05-01T15:38:30.506Z</time></trkpt><trkpt lat="42.3658757" lon="14.1185505"><ele>29.333333333333336</ele><time>2026-05-01T15:38:31.506Z</time></trkpt><trkpt lat="42.3660306" lon="14.1186638"><ele>28.0</ele><time>2026-05-01T15:38:32.504Z</time></trkpt><trkpt lat="42.3661801" lon="14.1187617"><ele>28.0</ele><time>2026-05-01T15:38:33.507Z</time></trkpt><trkpt lat="42.3663312" lon="14.1188684"><ele>28.0</ele><time>2026-05-01T15:38:34.504Z</time></trkpt><trkpt lat="42.3664894" lon="14.1189786"><ele>28.0</ele><time>2026-05-01T15:38:35.523Z</time></trkpt><trkpt lat="42.3666449" lon="14.119088"><ele>27.666666666666668</ele><time>2026-05-01T15:38:36.59Z</time></trkpt><trkpt lat="42.3668034" lon="14.1191947"><ele>27.333333333333336</ele><time>2026-05-01T15:38:37.592Z</time></trkpt><trkpt lat="42.3669612" lon="14.1193047"><ele>27.0</ele><time>2026-05-01T15:38:38.593Z</time></trkpt><trkpt lat="42.3671202" lon="14.1194127"><ele>27.333333333333336</ele><time>2026-05-01T15:38:39.589Z</time></trkpt><trkpt lat="42.3672779" lon="14.1195222"><ele>27.666666666666668</ele><time>2026-05-01T15:38:40.595Z</time></trkpt><trkpt lat="42.3674398" lon="14.1196263"><ele>28.0</ele><time>2026-05-01T15:38:41.589Z</time></trkpt><trkpt lat="42.3675943" lon="14.1197292"><ele>28.0</ele><time>2026-05-01T15:38:42.592Z</time></trkpt><trkpt lat="42.3677489" lon="14.1198305"><ele>28.0</ele><time>2026-05-01T15:38:43.593Z</time></trkpt><trkpt lat="42.3679018" lon="14.1199324"><ele>28.0</ele><time>2026-05-01T15:38:44.591Z</time></trkpt><trkpt lat="42.3680505" lon="14.1200314"><ele>28.25</ele><time>2026-05-01T15:38:45.594Z</time></trkpt><trkpt lat="42.3681879" lon="14.120118"><ele>28.5</ele><time>2026-05-01T15:38:46.584Z</time></trkpt><trkpt lat="42.368316" lon="14.1201805"><ele>28.75</ele><time>2026-05-01T15:38:47.586Z</time></trkpt><trkpt lat="42.3684525" lon="14.1202349"><ele>29.0</ele><time>2026-05-01T15:38:48.583Z</time></trkpt><trkpt lat="42.3685964" lon="14.1202694"><ele>29.0</ele><time>2026-05-01T15:38:49.583Z</time></trkpt><trkpt lat="42.3687485" lon="14.120296"><ele>29.0</ele><time>2026-05-01T15:38:50.578Z</time></trkpt><trkpt lat="42.3689061" lon="14.1203211"><ele>29.0</ele><time>2026-05-01T15:38:51.578Z</time></trkpt><trkpt lat="42.3690691" lon="14.1203462"><ele>31.666666666666664</ele><time>2026-05-01T15:38:52.575Z</time></trkpt><trkpt lat="42.3692328" lon="14.1203727"><ele>34.333333333333336</ele><time>2026-05-01T15:38:53.573Z</time></trkpt><trkpt lat="42.3693953" lon="14.1203954"><ele>37.0</ele><time>2026-05-01T15:38:54.589Z</time></trkpt><trkpt lat="42.3695606" lon="14.1204157"><ele>37.0</ele><time>2026-05-01T15:38:55.59Z</time></trkpt><trkpt lat="42.3697269" lon="14.1204334"><ele>37.0</ele><time>2026-05-01T15:38:56.592Z</time></trkpt><trkpt lat="42.3698926" lon="14.1204515"><ele>37.0</ele><time>2026-05-01T15:38:57.587Z</time></trkpt><trkpt lat="42.3700585" lon="14.1204725"><ele>37.0</ele><time>2026-05-01T15:38:58.595Z</time></trkpt><trkpt lat="42.3702211" lon="14.1204929"><ele>37.0</ele><time>2026-05-01T15:38:59.585Z</time></trkpt><trkpt lat="42.3703873" lon="14.1205139"><ele>37.0</ele><time>2026-05-01T15:39:00.588Z</time></trkpt><trkpt lat="42.3705541" lon="14.1205393"><ele>37.333333333333336</ele><time>2026-05-01T15:39:01.584Z</time></trkpt><trkpt lat="42.3707208" lon="14.1205701"><ele>37.666666666666664</ele><time>2026-05-01T15:39:02.589Z</time></trkpt><trkpt lat="42.3708849" lon="14.1206136"><ele>38.0</ele><time>2026-05-01T15:39:03.581Z</time></trkpt><trkpt lat="42.3710431" lon="14.1206679"><ele>38.0</ele><time>2026-05-01T15:39:04.577Z</time></trkpt><trkpt lat="42.3711975" lon="14.1207302"><ele>38.0</ele><time>2026-05-01T15:39:05.582Z</time></trkpt><trkpt lat="42.3713541" lon="14.1207951"><ele>38.0</ele><time>2026-05-01T15:39:06.595Z</time></trkpt><trkpt lat="42.3715061" lon="14.1208599"><ele>36.33333333333333</ele><time>2026-05-01T15:39:07.592Z</time></trkpt><trkpt lat="42.3716569" lon="14.1209271"><ele>34.666666666666664</ele><time>2026-05-01T15:39:08.589Z</time></trkpt><trkpt lat="42.3718041" lon="14.1209991"><ele>33.0</ele><time>2026-05-01T15:39:09.591Z</time></trkpt><trkpt lat="42.37195" lon="14.1210784"><ele>33.0</ele><time>2026-05-01T15:39:10.584Z</time></trkpt><trkpt lat="42.3720944" lon="14.1211689"><ele>33.0</ele><time>2026-05-01T15:39:11.589Z</time></trkpt><trkpt lat="42.3722331" lon="14.1212627"><ele>33.0</ele><time>2026-05-01T15:39:12.587Z</time></trkpt><trkpt lat="42.3723718" lon="14.1213703"><ele>33.333333333333336</ele><time>2026-05-01T15:39:13.587Z</time></trkpt><trkpt lat="42.3725129" lon="14.1214788"><ele>33.66666666666667</ele><time>2026-05-01T15:39:14.58Z</time></trkpt><trkpt lat="42.3726561" lon="14.1215938"><ele>34.0</ele><time>2026-05-01T15:39:15.589Z</time></trkpt><trkpt lat="42.3728007" lon="14.1217106"><ele>34.0</ele><time>2026-05-01T15:39:16.585Z</time></trkpt><trkpt lat="42.3729413" lon="14.1218184"><ele>34.0</ele><time>2026-05-01T15:39:17.583Z</time></trkpt><trkpt lat="42.3730711" lon="14.1219193"><ele>34.0</ele><time>2026-05-01T15:39:18.585Z</time></trkpt><trkpt lat="42.3731918" lon="14.1220138"><ele>35.4</ele><time>2026-05-01T15:39:19.58Z</time></trkpt><trkpt lat="42.3732994" lon="14.1221008"><ele>36.8</ele><time>2026-05-01T15:39:20.583Z</time></trkpt><trkpt lat="42.3733895" lon="14.1221767"><ele>38.199999999999996</ele><time>2026-05-01T15:39:21.576Z</time></trkpt><trkpt lat="42.373469" lon="14.1222401"><ele>39.599999999999994</ele><time>2026-05-01T15:39:22.586Z</time></trkpt><trkpt lat="42.3735376" lon="14.1222889"><ele>41.0</ele><time>2026-05-01T15:39:23.585Z</time></trkpt><trkpt lat="42.373599" lon="14.1223365"><ele>41.0</ele><time>2026-05-01T15:39:24.584Z</time></trkpt><trkpt lat="42.3737104" lon="14.1224199"><ele>41.0</ele><time>2026-05-01T15:39:26.591Z</time></trkpt><trkpt lat="42.3738084" lon="14.1225025"><ele>41.0</ele><time>2026-05-01T15:39:28.575Z</time></trkpt><trkpt lat="42.3738888" lon="14.12256"><ele>41.0</ele><time>2026-05-01T15:39:30.576Z</time></trkpt><trkpt lat="42.3739658" lon="14.1226143"><ele>41.0</ele><time>2026-05-01T15:39:32.591Z</time></trkpt><trkpt lat="42.3740369" lon="14.1226844"><ele>41.0</ele><time>2026-05-01T15:39:34.591Z</time></trkpt><trkpt lat="42.3740981" lon="14.122743"><ele>41.0</ele><time>2026-05-01T15:39:37.596Z</time></trkpt><trkpt lat="42.3741703" lon="14.1227903"><ele>41.0</ele><time>2026-05-01T15:40:47.592Z</time></trkpt><trkpt lat="42.3742349" lon="14.1228307"><ele>41.0</ele><time>2026-05-01T15:40:48.579Z</time></trkpt><trkpt lat="42.3743288" lon="14.1229045"><ele>41.0</ele><time>2026-05-01T15:40:49.586Z</time></trkpt><trkpt lat="42.3744335" lon="14.1229863"><ele>41.0</ele><time>2026-05-01T15:40:50.593Z</time></trkpt><trkpt lat="42.374547" lon="14.1230764"><ele>41.0</ele><time>2026-05-01T15:40:51.598Z</time></trkpt><trkpt lat="42.3746678" lon="14.123169"><ele>41.0</ele><time>2026-05-01T15:40:52.592Z</time></trkpt><trkpt lat="42.3747941" lon="14.1232628"><ele>41.0</ele><time>2026-05-01T15:40:53.595Z</time></trkpt><trkpt lat="42.3749304" lon="14.1233657"><ele>40.33333333333333</ele><time>2026-05-01T15:40:54.591Z</time></trkpt><trkpt lat="42.3750746" lon="14.1234773"><ele>39.666666666666664</ele><time>2026-05-01T15:40:55.59Z</time></trkpt><trkpt lat="42.3752215" lon="14.1235958"><ele>39.0</ele><time>2026-05-01T15:40:56.592Z</time></trkpt><trkpt lat="42.3753674" lon="14.1237115"><ele>39.0</ele><time>2026-05-01T15:40:57.597Z</time></trkpt><trkpt lat="42.3755135" lon="14.1238218"><ele>39.0</ele><time>2026-05-01T15:40:58.593Z</time></trkpt><trkpt lat="42.3756652" lon="14.1239227"><ele>39.0</ele><time>2026-05-01T15:40:59.592Z</time></trkpt><trkpt lat="42.3758138" lon="14.123993"><ele>38.75</ele><time>2026-05-01T15:41:00.59Z</time></trkpt><trkpt lat="42.3759581" lon="14.1240348"><ele>38.5</ele><time>2026-05-01T15:41:01.576Z</time></trkpt><trkpt lat="42.3760867" lon="14.124058"><ele>38.25</ele><time>2026-05-01T15:41:02.579Z</time></trkpt><trkpt lat="42.3761966" lon="14.1241"><ele>38.0</ele><time>2026-05-01T15:41:03.488Z</time></trkpt><trkpt lat="42.3762741" lon="14.1241446"><ele>38.0</ele><time>2026-05-01T15:41:04.494Z</time></trkpt><trkpt lat="42.3763267" lon="14.1242264"><ele>38.0</ele><time>2026-05-01T15:41:05.505Z</time></trkpt><trkpt lat="42.376378" lon="14.124308"><ele>38.0</ele><time>2026-05-01T15:41:06.511Z</time></trkpt><trkpt lat="42.3764162" lon="14.1244062"><ele>38.0</ele><time>2026-05-01T15:41:07.513Z</time></trkpt><trkpt lat="42.3764518" lon="14.124489"><ele>38.0</ele><time>2026-05-01T15:41:08.509Z</time></trkpt><trkpt lat="42.3765552" lon="14.1245721"><ele>38.0</ele><time>2026-05-01T15:41:10.515Z</time></trkpt><trkpt lat="42.3766596" lon="14.1244986"><ele>37.83333333333333</ele><time>2026-05-01T15:41:12.508Z</time></trkpt><trkpt lat="42.3767141" lon="14.1243634"><ele>37.666666666666664</ele><time>2026-05-01T15:41:14.509Z</time></trkpt><trkpt lat="42.3767402" lon="14.1242698"><ele>37.5</ele><time>2026-05-01T15:41:15.507Z</time></trkpt><trkpt lat="42.3767839" lon="14.1241578"><ele>37.333333333333336</ele><time>2026-05-01T15:41:16.511Z</time></trkpt><trkpt lat="42.3768365" lon="14.1240704"><ele>37.16666666666667</ele><time>2026-05-01T15:41:17.509Z</time></trkpt><trkpt lat="42.3768905" lon="14.1240059"><ele>37.0</ele><time>2026-05-01T15:41:18.512Z</time></trkpt><trkpt lat="42.3769538" lon="14.1239382"><ele>38.400000000000006</ele><time>2026-05-01T15:41:19.514Z</time></trkpt><trkpt lat="42.3770216" lon="14.1238499"><ele>39.800000000000004</ele><time>2026-05-01T15:41:20.511Z</time></trkpt><trkpt lat="42.3770819" lon="14.1237541"><ele>41.2</ele><time>2026-05-01T15:41:21.513Z</time></trkpt><trkpt lat="42.3771332" lon="14.1236436"><ele>42.6</ele><time>2026-05-01T15:41:22.514Z</time></trkpt><trkpt lat="42.3771948" lon="14.1235461"><ele>44.0</ele><time>2026-05-01T15:41:23.508Z</time></trkpt><trkpt lat="42.3772691" lon="14.1234626"><ele>44.400000000000006</ele><time>2026-05-01T15:41:24.499Z</time></trkpt><trkpt lat="42.3773554" lon="14.123412"><ele>44.8</ele><time>2026-05-01T15:41:25.505Z</time></trkpt><trkpt lat="42.3774514" lon="14.1233989"><ele>45.2</ele><time>2026-05-01T15:41:26.509Z</time></trkpt><trkpt lat="42.3775552" lon="14.123393"><ele>45.599999999999994</ele><time>2026-05-01T15:41:27.501Z</time></trkpt><trkpt lat="42.3776566" lon="14.1234026"><ele>46.0</ele><time>2026-05-01T15:41:28.502Z</time></trkpt><trkpt lat="42.3777549" lon="14.1234372"><ele>46.0</ele><time>2026-05-01T15:41:29.505Z</time></trkpt><trkpt lat="42.3778556" lon="14.1234693"><ele>46.0</ele><time>2026-05-01T15:41:30.506Z</time></trkpt><trkpt lat="42.3779536" lon="14.1234845"><ele>46.0</ele><time>2026-05-01T15:41:31.507Z</time></trkpt><trkpt lat="42.3780704" lon="14.1234934"><ele>46.0</ele><time>2026-05-01T15:41:32.511Z</time></trkpt><trkpt lat="42.3781902" lon="14.123509"><ele>46.0</ele><time>2026-05-01T15:41:33.509Z</time></trkpt><trkpt lat="42.3783158" lon="14.1235378"><ele>48.25</ele><time>2026-05-01T15:41:34.51Z</time></trkpt><trkpt lat="42.3784384" lon="14.123558"><ele>50.5</ele><time>2026-05-01T15:41:35.51Z</time></trkpt><trkpt lat="42.3785687" lon="14.1235777"><ele>52.75</ele><time>2026-05-01T15:41:36.507Z</time></trkpt><trkpt lat="42.3787044" lon="14.1235944"><ele>55.0</ele><time>2026-05-01T15:41:37.514Z</time></trkpt><trkpt lat="42.3788375" lon="14.1236082"><ele>56.0</ele><time>2026-05-01T15:41:38.51Z</time></trkpt><trkpt lat="42.3789742" lon="14.1236296"><ele>57.0</ele><time>2026-05-01T15:41:39.508Z</time></trkpt><trkpt lat="42.37911" lon="14.1236561"><ele>58.0</ele><time>2026-05-01T15:41:40.511Z</time></trkpt><trkpt lat="42.3792326" lon="14.1236882"><ele>59.0</ele><time>2026-05-01T15:41:41.511Z</time></trkpt><trkpt lat="42.3793324" lon="14.1237394"><ele>59.0</ele><time>2026-05-01T15:41:42.508Z</time></trkpt><trkpt lat="42.3794227" lon="14.1238003"><ele>59.00000000000001</ele><time>2026-05-01T15:41:43.505Z</time></trkpt><trkpt lat="42.379506" lon="14.123867"><ele>59.00000000000001</ele><time>2026-05-01T15:41:44.505Z</time></trkpt><trkpt lat="42.3795809" lon="14.1239623"><ele>59.0</ele><time>2026-05-01T15:41:45.509Z</time></trkpt><trkpt lat="42.3796487" lon="14.1240591"><ele>59.0</ele><time>2026-05-01T15:41:46.511Z</time></trkpt><trkpt lat="42.379737" lon="14.1241505"><ele>57.25</ele><time>2026-05-01T15:41:47.509Z</time></trkpt><trkpt lat="42.3798467" lon="14.1242382"><ele>55.5</ele><time>2026-05-01T15:41:48.509Z</time></trkpt><trkpt lat="42.3799711" lon="14.1243301"><ele>53.75</ele><time>2026-05-01T15:41:49.513Z</time></trkpt><trkpt lat="42.3801001" lon="14.1244311"><ele>52.0</ele><time>2026-05-01T15:41:50.512Z</time></trkpt><trkpt lat="42.3802263" lon="14.1245291"><ele>52.0</ele><time>2026-05-01T15:41:51.514Z</time></trkpt><trkpt lat="42.3803523" lon="14.1246326"><ele>52.0</ele><time>2026-05-01T15:41:52.512Z</time></trkpt><trkpt lat="42.3804748" lon="14.1247335"><ele>52.0</ele><time>2026-05-01T15:41:53.511Z</time></trkpt><trkpt lat="42.3805971" lon="14.124826"><ele>52.0</ele><time>2026-05-01T15:41:54.518Z</time></trkpt><trkpt lat="42.3807259" lon="14.1249032"><ele>50.666666666666664</ele><time>2026-05-01T15:41:55.514Z</time></trkpt><trkpt lat="42.3808624" lon="14.1250022"><ele>49.33333333333333</ele><time>2026-05-01T15:41:56.514Z</time></trkpt><trkpt lat="42.3810002" lon="14.1251109"><ele>48.0</ele><time>2026-05-01T15:41:57.513Z</time></trkpt><trkpt lat="42.3811365" lon="14.1252104"><ele>48.0</ele><time>2026-05-01T15:41:58.511Z</time></trkpt><trkpt lat="42.3812634" lon="14.1253035"><ele>48.0</ele><time>2026-05-01T15:41:59.512Z</time></trkpt><trkpt lat="42.3814011" lon="14.125393"><ele>48.0</ele><time>2026-05-01T15:42:00.514Z</time></trkpt><trkpt lat="42.3815262" lon="14.1254881"><ele>48.0</ele><time>2026-05-01T15:42:01.511Z</time></trkpt><trkpt lat="42.3816676" lon="14.1255826"><ele>46.666666666666664</ele><time>2026-05-01T15:42:02.51Z</time></trkpt><trkpt lat="42.3818019" lon="14.1256867"><ele>45.33333333333333</ele><time>2026-05-01T15:42:03.513Z</time></trkpt><trkpt lat="42.3819367" lon="14.1257898"><ele>44.0</ele><time>2026-05-01T15:42:04.513Z</time></trkpt><trkpt lat="42.3820782" lon="14.1259095"><ele>46.25</ele><time>2026-05-01T15:42:05.512Z</time></trkpt><trkpt lat="42.3822021" lon="14.126031"><ele>48.5</ele><time>2026-05-01T15:42:06.517Z</time></trkpt><trkpt lat="42.3823154" lon="14.1261403"><ele>50.75</ele><time>2026-05-01T15:42:07.51Z</time></trkpt><trkpt lat="42.3824253" lon="14.1262286"><ele>53.0</ele><time>2026-05-01T15:42:08.512Z</time></trkpt><trkpt lat="42.382546" lon="14.1263018"><ele>53.0</ele><time>2026-05-01T15:42:09.511Z</time></trkpt><trkpt lat="42.3826868" lon="14.1263553"><ele>53.0</ele><time>2026-05-01T15:42:10.509Z</time></trkpt><trkpt lat="42.3828451" lon="14.1264021"><ele>53.0</ele><time>2026-05-01T15:42:11.512Z</time></trkpt><trkpt lat="42.3830176" lon="14.1264298"><ele>53.0</ele><time>2026-05-01T15:42:12.511Z</time></trkpt><trkpt lat="42.3831677" lon="14.1264303"><ele>53.0</ele><time>2026-05-01T15:42:13.507Z</time></trkpt><trkpt lat="42.3833177" lon="14.1264226"><ele>53.0</ele><time>2026-05-01T15:42:14.511Z</time></trkpt><trkpt lat="42.3834497" lon="14.1264488"><ele>53.0</ele><time>2026-05-01T15:42:15.513Z</time></trkpt><trkpt lat="42.3835906" lon="14.1265051"><ele>49.333333333333336</ele><time>2026-05-01T15:42:16.517Z</time></trkpt><trkpt lat="42.3837351" lon="14.1266066"><ele>45.66666666666667</ele><time>2026-05-01T15:42:17.495Z</time></trkpt><trkpt lat="42.3838876" lon="14.1267077"><ele>42.0</ele><time>2026-05-01T15:42:18.509Z</time></trkpt><trkpt lat="42.3840413" lon="14.1267975"><ele>42.0</ele><time>2026-05-01T15:42:19.509Z</time></trkpt><trkpt lat="42.3841912" lon="14.1268698"><ele>42.0</ele><time>2026-05-01T15:42:20.511Z</time></trkpt><trkpt lat="42.3843374" lon="14.126949"><ele>42.0</ele><time>2026-05-01T15:42:21.518Z</time></trkpt><trkpt lat="42.3844847" lon="14.1270039"><ele>42.0</ele><time>2026-05-01T15:42:22.518Z</time></trkpt><trkpt lat="42.3846136" lon="14.1270446"><ele>42.0</ele><time>2026-05-01T15:42:23.514Z</time></trkpt><trkpt lat="42.384758" lon="14.1270949"><ele>42.0</ele><time>2026-05-01T15:42:24.509Z</time></trkpt><trkpt lat="42.3848859" lon="14.1271374"><ele>42.0</ele><time>2026-05-01T15:42:25.503Z</time></trkpt><trkpt lat="42.3850101" lon="14.1272129"><ele>43.0</ele><time>2026-05-01T15:42:26.503Z</time></trkpt><trkpt lat="42.3851469" lon="14.1273087"><ele>44.0</ele><time>2026-05-01T15:42:27.504Z</time></trkpt><trkpt lat="42.3852742" lon="14.1274327"><ele>45.0</ele><time>2026-05-01T15:42:28.505Z</time></trkpt><trkpt lat="42.3853886" lon="14.1275696"><ele>42.0</ele><time>2026-05-01T15:42:29.505Z</time></trkpt><trkpt lat="42.3855405" lon="14.1277194"><ele>39.0</ele><time>2026-05-01T15:42:30.499Z</time></trkpt><trkpt lat="42.3856728" lon="14.1278606"><ele>36.0</ele><time>2026-05-01T15:42:31.501Z</time></trkpt><trkpt lat="42.3858057" lon="14.1279853"><ele>36.0</ele><time>2026-05-01T15:42:32.505Z</time></trkpt><trkpt lat="42.385943" lon="14.1281236"><ele>36.0</ele><time>2026-05-01T15:42:33.497Z</time></trkpt><trkpt lat="42.3860719" lon="14.1282524"><ele>36.0</ele><time>2026-05-01T15:42:34.502Z</time></trkpt><trkpt lat="42.3862056" lon="14.1283838"><ele>35.666666666666664</ele><time>2026-05-01T15:42:35.498Z</time></trkpt><trkpt lat="42.3863165" lon="14.1285288"><ele>35.33333333333333</ele><time>2026-05-01T15:42:36.499Z</time></trkpt><trkpt lat="42.3864198" lon="14.1286817"><ele>35.0</ele><time>2026-05-01T15:42:37.497Z</time></trkpt><trkpt lat="42.3865146" lon="14.1288445"><ele>35.5</ele><time>2026-05-01T15:42:38.498Z</time></trkpt><trkpt lat="42.3866081" lon="14.1290092"><ele>36.0</ele><time>2026-05-01T15:42:39.507Z</time></trkpt><trkpt lat="42.3866921" lon="14.1291553"><ele>36.5</ele><time>2026-05-01T15:42:40.503Z</time></trkpt><trkpt lat="42.3867642" lon="14.129273"><ele>37.0</ele><time>2026-05-01T15:42:41.497Z</time></trkpt><trkpt lat="42.3868429" lon="14.1293808"><ele>36.800000000000004</ele><time>2026-05-01T15:42:42.506Z</time></trkpt><trkpt lat="42.3869152" lon="14.1294668"><ele>36.6</ele><time>2026-05-01T15:42:43.511Z</time></trkpt><trkpt lat="42.3869924" lon="14.1295507"><ele>36.400000000000006</ele><time>2026-05-01T15:42:44.517Z</time></trkpt><trkpt lat="42.3870629" lon="14.1296379"><ele>36.2</ele><time>2026-05-01T15:42:45.513Z</time></trkpt><trkpt lat="42.3871331" lon="14.1297271"><ele>36.0</ele><time>2026-05-01T15:42:46.509Z</time></trkpt><trkpt lat="42.3872062" lon="14.1298095"><ele>36.0</ele><time>2026-05-01T15:42:47.51Z</time></trkpt><trkpt lat="42.3872866" lon="14.1298868"><ele>36.0</ele><time>2026-05-01T15:42:48.509Z</time></trkpt><trkpt lat="42.3873686" lon="14.12996"><ele>36.0</ele><time>2026-05-01T15:42:49.512Z</time></trkpt><trkpt lat="42.3874636" lon="14.130025"><ele>36.0</ele><time>2026-05-01T15:42:50.51Z</time></trkpt><trkpt lat="42.3875444" lon="14.130095"><ele>36.0</ele><time>2026-05-01T15:42:51.515Z</time></trkpt><trkpt lat="42.3876137" lon="14.1301689"><ele>35.333333333333336</ele><time>2026-05-01T15:42:52.51Z</time></trkpt><trkpt lat="42.3876771" lon="14.1302454"><ele>34.666666666666664</ele><time>2026-05-01T15:42:53.518Z</time></trkpt><trkpt lat="42.3877433" lon="14.1303074"><ele>34.0</ele><time>2026-05-01T15:42:54.514Z</time></trkpt><trkpt lat="42.3878102" lon="14.1303693"><ele>33.33333333333333</ele><time>2026-05-01T15:42:55.515Z</time></trkpt><trkpt lat="42.3878791" lon="14.130423"><ele>32.666666666666664</ele><time>2026-05-01T15:42:56.513Z</time></trkpt><trkpt lat="42.3879409" lon="14.1304643"><ele>32.0</ele><time>2026-05-01T15:42:57.513Z</time></trkpt><trkpt lat="42.3880035" lon="14.1305007"><ele>31.999999999999996</ele><time>2026-05-01T15:42:58.511Z</time></trkpt><trkpt lat="42.3880623" lon="14.130533"><ele>32.0</ele><time>2026-05-01T15:42:59.518Z</time></trkpt><trkpt lat="42.3881283" lon="14.1305597"><ele>32.0</ele><time>2026-05-01T15:43:00.519Z</time></trkpt><trkpt lat="42.3881974" lon="14.1305914"><ele>32.0</ele><time>2026-05-01T15:43:01.51Z</time></trkpt><trkpt lat="42.3882766" lon="14.1306389"><ele>31.999999999999996</ele><time>2026-05-01T15:43:02.51Z</time></trkpt><trkpt lat="42.3883656" lon="14.1306896"><ele>32.0</ele><time>2026-05-01T15:43:03.516Z</time></trkpt><trkpt lat="42.3884661" lon="14.1307414"><ele>32.0</ele><time>2026-05-01T15:43:04.538Z</time></trkpt><trkpt lat="42.38858" lon="14.1307988"><ele>32.0</ele><time>2026-05-01T15:43:05.596Z</time></trkpt><trkpt lat="42.388702" lon="14.130865"><ele>32.0</ele><time>2026-05-01T15:43:06.603Z</time></trkpt><trkpt lat="42.3888262" lon="14.1309428"><ele>32.0</ele><time>2026-05-01T15:43:07.602Z</time></trkpt><trkpt lat="42.3889493" lon="14.1310289"><ele>32.25</ele><time>2026-05-01T15:43:08.606Z</time></trkpt><trkpt lat="42.3890672" lon="14.1311125"><ele>32.5</ele><time>2026-05-01T15:43:09.604Z</time></trkpt><trkpt lat="42.3891841" lon="14.1311895"><ele>32.75</ele><time>2026-05-01T15:43:10.611Z</time></trkpt><trkpt lat="42.3892872" lon="14.1312742"><ele>33.0</ele><time>2026-05-01T15:43:11.6Z</time></trkpt><trkpt lat="42.3893918" lon="14.1313618"><ele>33.0</ele><time>2026-05-01T15:43:12.609Z</time></trkpt><trkpt lat="42.3894849" lon="14.1314463"><ele>33.0</ele><time>2026-05-01T15:43:13.605Z</time></trkpt><trkpt lat="42.3895705" lon="14.1315217"><ele>33.0</ele><time>2026-05-01T15:43:14.604Z</time></trkpt><trkpt lat="42.3896499" lon="14.1315929"><ele>33.0</ele><time>2026-05-01T15:43:15.609Z</time></trkpt><trkpt lat="42.3897392" lon="14.1316675"><ele>33.0</ele><time>2026-05-01T15:43:16.608Z</time></trkpt><trkpt lat="42.3898184" lon="14.1317401"><ele>32.5</ele><time>2026-05-01T15:43:17.605Z</time></trkpt><trkpt lat="42.3899006" lon="14.1318147"><ele>32.0</ele><time>2026-05-01T15:43:18.602Z</time></trkpt><trkpt lat="42.3899896" lon="14.1318963"><ele>31.5</ele><time>2026-05-01T15:43:19.592Z</time></trkpt><trkpt lat="42.3900917" lon="14.1319866"><ele>31.0</ele><time>2026-05-01T15:43:20.596Z</time></trkpt><trkpt lat="42.3902063" lon="14.1320845"><ele>31.0</ele><time>2026-05-01T15:43:21.602Z</time></trkpt><trkpt lat="42.3903318" lon="14.1321885"><ele>31.0</ele><time>2026-05-01T15:43:22.599Z</time></trkpt><trkpt lat="42.3904756" lon="14.1323083"><ele>31.0</ele><time>2026-05-01T15:43:23.596Z</time></trkpt><trkpt lat="42.3906269" lon="14.1324447"><ele>30.666666666666668</ele><time>2026-05-01T15:43:24.597Z</time></trkpt><trkpt lat="42.3907624" lon="14.1325725"><ele>30.333333333333336</ele><time>2026-05-01T15:43:25.602Z</time></trkpt><trkpt lat="42.3908992" lon="14.1327036"><ele>30.0</ele><time>2026-05-01T15:43:26.601Z</time></trkpt><trkpt lat="42.3910371" lon="14.1328296"><ele>30.0</ele><time>2026-05-01T15:43:27.602Z</time></trkpt><trkpt lat="42.3911681" lon="14.1329475"><ele>30.0</ele><time>2026-05-01T15:43:28.604Z</time></trkpt><trkpt lat="42.3912918" lon="14.1330566"><ele>30.0</ele><time>2026-05-01T15:43:29.589Z</time></trkpt><trkpt lat="42.3914085" lon="14.1331554"><ele>30.0</ele><time>2026-05-01T15:43:30.602Z</time></trkpt><trkpt lat="42.3915218" lon="14.1332484"><ele>30.0</ele><time>2026-05-01T15:43:31.602Z</time></trkpt><trkpt lat="42.39163" lon="14.1333409"><ele>30.0</ele><time>2026-05-01T15:43:32.603Z</time></trkpt><trkpt lat="42.3917407" lon="14.1334358"><ele>30.0</ele><time>2026-05-01T15:43:33.598Z</time></trkpt><trkpt lat="42.3918527" lon="14.133535"><ele>30.0</ele><time>2026-05-01T15:43:34.597Z</time></trkpt><trkpt lat="42.3919573" lon="14.1336317"><ele>30.0</ele><time>2026-05-01T15:43:35.596Z</time></trkpt><trkpt lat="42.3920722" lon="14.1337388"><ele>30.0</ele><time>2026-05-01T15:43:36.59Z</time></trkpt><trkpt lat="42.392186" lon="14.1338473"><ele>30.0</ele><time>2026-05-01T15:43:37.575Z</time></trkpt><trkpt lat="42.3923029" lon="14.1339636"><ele>30.0</ele><time>2026-05-01T15:43:38.57Z</time></trkpt><trkpt lat="42.3924201" lon="14.1340746"><ele>29.666666666666664</ele><time>2026-05-01T15:43:39.558Z</time></trkpt><trkpt lat="42.3925413" lon="14.1341849"><ele>29.333333333333332</ele><time>2026-05-01T15:43:40.545Z</time></trkpt><trkpt lat="42.3926825" lon="14.1343094"><ele>29.0</ele><time>2026-05-01T15:43:41.547Z</time></trkpt><trkpt lat="42.3928208" lon="14.1344304"><ele>29.0</ele><time>2026-05-01T15:43:42.55Z</time></trkpt><trkpt lat="42.3929594" lon="14.134556"><ele>29.0</ele><time>2026-05-01T15:43:43.572Z</time></trkpt><trkpt lat="42.3931147" lon="14.1347069"><ele>29.0</ele><time>2026-05-01T15:43:44.584Z</time></trkpt><trkpt lat="42.3932616" lon="14.1348295"><ele>28.333333333333332</ele><time>2026-05-01T15:43:45.597Z</time></trkpt><trkpt lat="42.3934031" lon="14.1349461"><ele>27.666666666666664</ele><time>2026-05-01T15:43:46.608Z</time></trkpt><trkpt lat="42.3935446" lon="14.1350678"><ele>27.0</ele><time>2026-05-01T15:43:47.606Z</time></trkpt><trkpt lat="42.3936849" lon="14.1351942"><ele>27.0</ele><time>2026-05-01T15:43:48.607Z</time></trkpt><trkpt lat="42.3938266" lon="14.1353221"><ele>27.0</ele><time>2026-05-01T15:43:49.605Z</time></trkpt><trkpt lat="42.3939673" lon="14.1354489"><ele>27.0</ele><time>2026-05-01T15:43:50.607Z</time></trkpt><trkpt lat="42.3940962" lon="14.1355659"><ele>26.666666666666664</ele><time>2026-05-01T15:43:51.602Z</time></trkpt><trkpt lat="42.3942207" lon="14.1356801"><ele>26.333333333333332</ele><time>2026-05-01T15:43:52.61Z</time></trkpt><trkpt lat="42.3943488" lon="14.1357969"><ele>26.0</ele><time>2026-05-01T15:43:53.61Z</time></trkpt><trkpt lat="42.3944791" lon="14.1359136"><ele>26.0</ele><time>2026-05-01T15:43:54.612Z</time></trkpt><trkpt lat="42.3946032" lon="14.1360255"><ele>26.0</ele><time>2026-05-01T15:43:55.609Z</time></trkpt><trkpt lat="42.3947251" lon="14.1361382"><ele>26.0</ele><time>2026-05-01T15:43:56.611Z</time></trkpt><trkpt lat="42.3948473" lon="14.1362486"><ele>26.0</ele><time>2026-05-01T15:43:57.611Z</time></trkpt><trkpt lat="42.3949651" lon="14.1363558"><ele>26.0</ele><time>2026-05-01T15:43:58.613Z</time></trkpt><trkpt lat="42.3950817" lon="14.1364586"><ele>26.0</ele><time>2026-05-01T15:43:59.617Z</time></trkpt><trkpt lat="42.3951991" lon="14.136559"><ele>26.0</ele><time>2026-05-01T15:44:00.615Z</time></trkpt><trkpt lat="42.3953143" lon="14.1366597"><ele>26.0</ele><time>2026-05-01T15:44:01.613Z</time></trkpt><trkpt lat="42.3954355" lon="14.136766"><ele>26.0</ele><time>2026-05-01T15:44:02.612Z</time></trkpt><trkpt lat="42.3955554" lon="14.1368692"><ele>26.0</ele><time>2026-05-01T15:44:03.611Z</time></trkpt><trkpt lat="42.3956724" lon="14.1369752"><ele>26.0</ele><time>2026-05-01T15:44:04.612Z</time></trkpt><trkpt lat="42.3957863" lon="14.13708"><ele>26.0</ele><time>2026-05-01T15:44:05.608Z</time></trkpt><trkpt lat="42.395902" lon="14.1371832"><ele>26.0</ele><time>2026-05-01T15:44:06.612Z</time></trkpt><trkpt lat="42.3960131" lon="14.137282"><ele>26.0</ele><time>2026-05-01T15:44:07.608Z</time></trkpt><trkpt lat="42.3961165" lon="14.1373739"><ele>26.0</ele><time>2026-05-01T15:44:08.608Z</time></trkpt><trkpt lat="42.3962198" lon="14.1374648"><ele>26.0</ele><time>2026-05-01T15:44:09.608Z</time></trkpt><trkpt lat="42.3963253" lon="14.1375617"><ele>26.25</ele><time>2026-05-01T15:44:10.61Z</time></trkpt><trkpt lat="42.3964343" lon="14.1376619"><ele>26.5</ele><time>2026-05-01T15:44:11.612Z</time></trkpt><trkpt lat="42.3965466" lon="14.1377629"><ele>26.75</ele><time>2026-05-01T15:44:12.611Z</time></trkpt><trkpt lat="42.3966614" lon="14.1378631"><ele>27.0</ele><time>2026-05-01T15:44:13.606Z</time></trkpt><trkpt lat="42.3967768" lon="14.137966"><ele>27.0</ele><time>2026-05-01T15:44:14.603Z</time></trkpt><trkpt lat="42.3968951" lon="14.138068"><ele>27.0</ele><time>2026-05-01T15:44:15.614Z</time></trkpt><trkpt lat="42.3970121" lon="14.1381683"><ele>27.0</ele><time>2026-05-01T15:44:16.604Z</time></trkpt><trkpt lat="42.3971282" lon="14.1382711"><ele>27.0</ele><time>2026-05-01T15:44:17.607Z</time></trkpt><trkpt lat="42.3972431" lon="14.138372"><ele>26.75</ele><time>2026-05-01T15:44:18.607Z</time></trkpt><trkpt lat="42.3973588" lon="14.1384779"><ele>26.5</ele><time>2026-05-01T15:44:19.598Z</time></trkpt><trkpt lat="42.3974772" lon="14.13859"><ele>26.25</ele><time>2026-05-01T15:44:20.615Z</time></trkpt><trkpt lat="42.3975943" lon="14.1386991"><ele>26.0</ele><time>2026-05-01T15:44:21.61Z</time></trkpt><trkpt lat="42.3977134" lon="14.1388077"><ele>26.0</ele><time>2026-05-01T15:44:22.611Z</time></trkpt><trkpt lat="42.3978315" lon="14.1389129"><ele>26.0</ele><time>2026-05-01T15:44:23.609Z</time></trkpt><trkpt lat="42.3979532" lon="14.1390179"><ele>26.0</ele><time>2026-05-01T15:44:24.61Z</time></trkpt><trkpt lat="42.3980747" lon="14.1391256"><ele>26.0</ele><time>2026-05-01T15:44:25.609Z</time></trkpt><trkpt lat="42.3981942" lon="14.1392333"><ele>26.0</ele><time>2026-05-01T15:44:26.607Z</time></trkpt><trkpt lat="42.3983112" lon="14.1393369"><ele>26.0</ele><time>2026-05-01T15:44:27.612Z</time></trkpt><trkpt lat="42.3984276" lon="14.1394369"><ele>26.0</ele><time>2026-05-01T15:44:28.616Z</time></trkpt><trkpt lat="42.3985463" lon="14.1395394"><ele>26.0</ele><time>2026-05-01T15:44:29.616Z</time></trkpt><trkpt lat="42.3986597" lon="14.1396425"><ele>26.0</ele><time>2026-05-01T15:44:30.614Z</time></trkpt><trkpt lat="42.3987735" lon="14.1397461"><ele>26.0</ele><time>2026-05-01T15:44:31.616Z</time></trkpt><trkpt lat="42.3988861" lon="14.1398475"><ele>26.0</ele><time>2026-05-01T15:44:32.619Z</time></trkpt><trkpt lat="42.3989985" lon="14.1399452"><ele>26.0</ele><time>2026-05-01T15:44:33.613Z</time></trkpt><trkpt lat="42.3991143" lon="14.1400448"><ele>25.75</ele><time>2026-05-01T15:44:34.612Z</time></trkpt><trkpt lat="42.3992269" lon="14.1401442"><ele>25.5</ele><time>2026-05-01T15:44:35.612Z</time></trkpt><trkpt lat="42.3993378" lon="14.1402437"><ele>25.25</ele><time>2026-05-01T15:44:36.609Z</time></trkpt><trkpt lat="42.399453" lon="14.1403436"><ele>25.0</ele><time>2026-05-01T15:44:37.615Z</time></trkpt><trkpt lat="42.3995714" lon="14.1404466"><ele>24.75</ele><time>2026-05-01T15:44:38.615Z</time></trkpt><trkpt lat="42.3996897" lon="14.1405539"><ele>24.5</ele><time>2026-05-01T15:44:39.613Z</time></trkpt><trkpt lat="42.3998102" lon="14.1406664"><ele>24.25</ele><time>2026-05-01T15:44:40.614Z</time></trkpt><trkpt lat="42.3999322" lon="14.1407794"><ele>24.0</ele><time>2026-05-01T15:44:41.614Z</time></trkpt><trkpt lat="42.400058" lon="14.1408921"><ele>24.666666666666664</ele><time>2026-05-01T15:44:42.618Z</time></trkpt><trkpt lat="42.400186" lon="14.1410039"><ele>25.333333333333332</ele><time>2026-05-01T15:44:43.613Z</time></trkpt><trkpt lat="42.4003142" lon="14.1411165"><ele>26.0</ele><time>2026-05-01T15:44:44.614Z</time></trkpt><trkpt lat="42.4004442" lon="14.1412309"><ele>25.666666666666664</ele><time>2026-05-01T15:44:45.619Z</time></trkpt><trkpt lat="42.4005728" lon="14.141348"><ele>25.333333333333336</ele><time>2026-05-01T15:44:46.61Z</time></trkpt><trkpt lat="42.4007034" lon="14.1414674"><ele>25.0</ele><time>2026-05-01T15:44:47.61Z</time></trkpt><trkpt lat="42.4008335" lon="14.1415847"><ele>25.0</ele><time>2026-05-01T15:44:48.614Z</time></trkpt><trkpt lat="42.4009611" lon="14.1416995"><ele>25.0</ele><time>2026-05-01T15:44:49.611Z</time></trkpt><trkpt lat="42.4010896" lon="14.1418114"><ele>25.0</ele><time>2026-05-01T15:44:50.611Z</time></trkpt><trkpt lat="42.4012177" lon="14.1419225"><ele>25.0</ele><time>2026-05-01T15:44:51.616Z</time></trkpt><trkpt lat="42.4013439" lon="14.142034"><ele>25.0</ele><time>2026-05-01T15:44:52.615Z</time></trkpt><trkpt lat="42.4014708" lon="14.1421454"><ele>25.0</ele><time>2026-05-01T15:44:53.613Z</time></trkpt><trkpt lat="42.4015981" lon="14.1422557"><ele>25.0</ele><time>2026-05-01T15:44:54.612Z</time></trkpt><trkpt lat="42.4017236" lon="14.1423664"><ele>25.0</ele><time>2026-05-01T15:44:55.614Z</time></trkpt><trkpt lat="42.4018495" lon="14.1424833"><ele>25.0</ele><time>2026-05-01T15:44:56.614Z</time></trkpt><trkpt lat="42.4019742" lon="14.1425973"><ele>24.666666666666668</ele><time>2026-05-01T15:44:57.612Z</time></trkpt><trkpt lat="42.4021019" lon="14.1427121"><ele>24.333333333333336</ele><time>2026-05-01T15:44:58.619Z</time></trkpt><trkpt lat="42.4022321" lon="14.1428306"><ele>24.0</ele><time>2026-05-01T15:44:59.616Z</time></trkpt><trkpt lat="42.4023641" lon="14.1429488"><ele>24.0</ele><time>2026-05-01T15:45:00.62Z</time></trkpt><trkpt lat="42.4024998" lon="14.1430636"><ele>24.0</ele><time>2026-05-01T15:45:01.614Z</time></trkpt><trkpt lat="42.4026372" lon="14.1431757"><ele>24.0</ele><time>2026-05-01T15:45:02.615Z</time></trkpt><trkpt lat="42.4027734" lon="14.1432911"><ele>24.0</ele><time>2026-05-01T15:45:03.609Z</time></trkpt><trkpt lat="42.4029069" lon="14.1434115"><ele>24.0</ele><time>2026-05-01T15:45:04.612Z</time></trkpt><trkpt lat="42.4030395" lon="14.1435298"><ele>24.0</ele><time>2026-05-01T15:45:05.612Z</time></trkpt><trkpt lat="42.4031734" lon="14.1436488"><ele>24.0</ele><time>2026-05-01T15:45:06.613Z</time></trkpt><trkpt lat="42.4033076" lon="14.143764"><ele>24.0</ele><time>2026-05-01T15:45:07.614Z</time></trkpt><trkpt lat="42.4034415" lon="14.1438776"><ele>24.0</ele><time>2026-05-01T15:45:08.628Z</time></trkpt><trkpt lat="42.4035728" lon="14.1439927"><ele>24.333333333333336</ele><time>2026-05-01T15:45:09.625Z</time></trkpt><trkpt lat="42.4037012" lon="14.1441052"><ele>24.666666666666668</ele><time>2026-05-01T15:45:10.626Z</time></trkpt><trkpt lat="42.4038283" lon="14.1442204"><ele>25.0</ele><time>2026-05-01T15:45:11.627Z</time></trkpt><trkpt lat="42.4039556" lon="14.1443356"><ele>25.0</ele><time>2026-05-01T15:45:12.626Z</time></trkpt><trkpt lat="42.4040787" lon="14.1444484"><ele>25.0</ele><time>2026-05-01T15:45:13.626Z</time></trkpt><trkpt lat="42.4041984" lon="14.1445604"><ele>25.0</ele><time>2026-05-01T15:45:14.624Z</time></trkpt><trkpt lat="42.4043197" lon="14.1446749"><ele>25.0</ele><time>2026-05-01T15:45:15.627Z</time></trkpt><trkpt lat="42.4044451" lon="14.1447914"><ele>25.25</ele><time>2026-05-01T15:45:16.626Z</time></trkpt><trkpt lat="42.4045688" lon="14.1449025"><ele>25.5</ele><time>2026-05-01T15:45:17.623Z</time></trkpt><trkpt lat="42.4046903" lon="14.1450106"><ele>25.75</ele><time>2026-05-01T15:45:18.626Z</time></trkpt><trkpt lat="42.404811" lon="14.1451192"><ele>26.0</ele><time>2026-05-01T15:45:19.613Z</time></trkpt><trkpt lat="42.4049346" lon="14.1452341"><ele>25.25</ele><time>2026-05-01T15:45:20.616Z</time></trkpt><trkpt lat="42.4050513" lon="14.1453408"><ele>24.5</ele><time>2026-05-01T15:45:21.619Z</time></trkpt><trkpt lat="42.4051593" lon="14.1454369"><ele>23.75</ele><time>2026-05-01T15:45:22.618Z</time></trkpt><trkpt lat="42.4052588" lon="14.145524"><ele>23.0</ele><time>2026-05-01T15:45:23.617Z</time></trkpt><trkpt lat="42.4053506" lon="14.1456112"><ele>23.0</ele><time>2026-05-01T15:45:24.61Z</time></trkpt><trkpt lat="42.4054214" lon="14.1456939"><ele>23.0</ele><time>2026-05-01T15:45:25.609Z</time></trkpt><trkpt lat="42.4054676" lon="14.1457815"><ele>23.0</ele><time>2026-05-01T15:45:26.611Z</time></trkpt><trkpt lat="42.4054814" lon="14.1458746"><ele>23.0</ele><time>2026-05-01T15:45:27.588Z</time></trkpt><trkpt lat="42.4054771" lon="14.1459618"><ele>23.0</ele><time>2026-05-01T15:45:28.594Z</time></trkpt><trkpt lat="42.4055127" lon="14.1460877"><ele>23.0</ele><time>2026-05-01T15:45:30.598Z</time></trkpt><trkpt lat="42.4056126" lon="14.1461056"><ele>22.799999999999997</ele><time>2026-05-01T15:45:32.606Z</time></trkpt><trkpt lat="42.405676" lon="14.146076"><ele>22.6</ele><time>2026-05-01T15:45:33.589Z</time></trkpt><trkpt lat="42.4057506" lon="14.146049"><ele>22.4</ele><time>2026-05-01T15:45:34.507Z</time></trkpt><trkpt lat="42.4058392" lon="14.1460449"><ele>22.200000000000003</ele><time>2026-05-01T15:45:35.505Z</time></trkpt><trkpt lat="42.4059336" lon="14.1461015"><ele>22.0</ele><time>2026-05-01T15:45:36.509Z</time></trkpt><trkpt lat="42.4060372" lon="14.1462055"><ele>22.0</ele><time>2026-05-01T15:45:37.522Z</time></trkpt><trkpt lat="42.4061268" lon="14.1463104"><ele>22.0</ele><time>2026-05-01T15:45:38.517Z</time></trkpt><trkpt lat="42.406236" lon="14.1464218"><ele>22.0</ele><time>2026-05-01T15:45:39.515Z</time></trkpt><trkpt lat="42.4063616" lon="14.1465371"><ele>22.0</ele><time>2026-05-01T15:45:40.521Z</time></trkpt><trkpt lat="42.4064884" lon="14.1466496"><ele>22.0</ele><time>2026-05-01T15:45:41.519Z</time></trkpt><trkpt lat="42.406618" lon="14.1467557"><ele>22.0</ele><time>2026-05-01T15:45:42.522Z</time></trkpt><trkpt lat="42.4067381" lon="14.1468406"><ele>22.0</ele><time>2026-05-01T15:45:43.52Z</time></trkpt><trkpt lat="42.4068695" lon="14.1469112"><ele>22.0</ele><time>2026-05-01T15:45:44.53Z</time></trkpt><trkpt lat="42.4069964" lon="14.1469759"><ele>22.0</ele><time>2026-05-01T15:45:45.529Z</time></trkpt><trkpt lat="42.4071206" lon="14.1470246"><ele>22.0</ele><time>2026-05-01T15:45:46.528Z</time></trkpt><trkpt lat="42.4072466" lon="14.1470614"><ele>22.0</ele><time>2026-05-01T15:45:47.529Z</time></trkpt><trkpt lat="42.4073853" lon="14.1471019"><ele>22.0</ele><time>2026-05-01T15:45:48.529Z</time></trkpt><trkpt lat="42.4075216" lon="14.1471194"><ele>21.0</ele><time>2026-05-01T15:45:49.526Z</time></trkpt><trkpt lat="42.4076535" lon="14.1471376"><ele>20.0</ele><time>2026-05-01T15:45:50.525Z</time></trkpt><trkpt lat="42.4077898" lon="14.1471551"><ele>19.0</ele><time>2026-05-01T15:45:51.546Z</time></trkpt><trkpt lat="42.4079295" lon="14.1471862"><ele>18.0</ele><time>2026-05-01T15:45:52.537Z</time></trkpt><trkpt lat="42.4080756" lon="14.1472233"><ele>17.666666666666668</ele><time>2026-05-01T15:45:53.533Z</time></trkpt><trkpt lat="42.4082232" lon="14.1472557"><ele>17.333333333333336</ele><time>2026-05-01T15:45:54.528Z</time></trkpt><trkpt lat="42.4083793" lon="14.1473075"><ele>17.0</ele><time>2026-05-01T15:45:55.528Z</time></trkpt><trkpt lat="42.4085326" lon="14.1473731"><ele>17.0</ele><time>2026-05-01T15:45:56.53Z</time></trkpt><trkpt lat="42.4086823" lon="14.1474572"><ele>17.0</ele><time>2026-05-01T15:45:57.529Z</time></trkpt><trkpt lat="42.4088365" lon="14.1475573"><ele>17.0</ele><time>2026-05-01T15:45:58.527Z</time></trkpt><trkpt lat="42.4089855" lon="14.1476749"><ele>17.0</ele><time>2026-05-01T15:45:59.526Z</time></trkpt><trkpt lat="42.4091383" lon="14.1477986"><ele>17.0</ele><time>2026-05-01T15:46:00.532Z</time></trkpt><trkpt lat="42.4092967" lon="14.1479291"><ele>17.0</ele><time>2026-05-01T15:46:01.529Z</time></trkpt><trkpt lat="42.4094601" lon="14.1480559"><ele>17.0</ele><time>2026-05-01T15:46:02.53Z</time></trkpt><trkpt lat="42.4096164" lon="14.1481918"><ele>17.0</ele><time>2026-05-01T15:46:03.524Z</time></trkpt><trkpt lat="42.4097594" lon="14.148314"><ele>17.0</ele><time>2026-05-01T15:46:04.528Z</time></trkpt><trkpt lat="42.4099214" lon="14.1484353"><ele>17.666666666666668</ele><time>2026-05-01T15:46:05.527Z</time></trkpt><trkpt lat="42.4100769" lon="14.148561"><ele>18.333333333333332</ele><time>2026-05-01T15:46:06.528Z</time></trkpt><trkpt lat="42.4102304" lon="14.1486766"><ele>19.0</ele><time>2026-05-01T15:46:07.526Z</time></trkpt><trkpt lat="42.4103818" lon="14.1487967"><ele>19.0</ele><time>2026-05-01T15:46:08.529Z</time></trkpt><trkpt lat="42.4105286" lon="14.1489128"><ele>19.0</ele><time>2026-05-01T15:46:09.527Z</time></trkpt><trkpt lat="42.4106927" lon="14.1490381"><ele>19.0</ele><time>2026-05-01T15:46:10.53Z</time></trkpt><trkpt lat="42.4108433" lon="14.1491613"><ele>19.666666666666664</ele><time>2026-05-01T15:46:11.525Z</time></trkpt><trkpt lat="42.4109943" lon="14.1492863"><ele>20.333333333333332</ele><time>2026-05-01T15:46:12.529Z</time></trkpt><trkpt lat="42.4111471" lon="14.1494053"><ele>21.0</ele><time>2026-05-01T15:46:13.528Z</time></trkpt><trkpt lat="42.4113058" lon="14.1495257"><ele>21.0</ele><time>2026-05-01T15:46:14.526Z</time></trkpt><trkpt lat="42.4114566" lon="14.1496493"><ele>21.0</ele><time>2026-05-01T15:46:15.528Z</time></trkpt><trkpt lat="42.4116057" lon="14.1497639"><ele>21.0</ele><time>2026-05-01T15:46:16.528Z</time></trkpt><trkpt lat="42.4117618" lon="14.1498947"><ele>20.0</ele><time>2026-05-01T15:46:17.527Z</time></trkpt><trkpt lat="42.4119108" lon="14.1500169"><ele>19.0</ele><time>2026-05-01T15:46:18.529Z</time></trkpt><trkpt lat="42.4120629" lon="14.1501414"><ele>18.0</ele><time>2026-05-01T15:46:19.525Z</time></trkpt><trkpt lat="42.4122134" lon="14.1502714"><ele>17.0</ele><time>2026-05-01T15:46:20.532Z</time></trkpt><trkpt lat="42.4123599" lon="14.1503836"><ele>16.0</ele><time>2026-05-01T15:46:21.53Z</time></trkpt><trkpt lat="42.4125158" lon="14.1505037"><ele>15.0</ele><time>2026-05-01T15:46:22.534Z</time></trkpt><trkpt lat="42.4126685" lon="14.1506239"><ele>15.0</ele><time>2026-05-01T15:46:23.529Z</time></trkpt><trkpt lat="42.412804" lon="14.1507306"><ele>15.0</ele><time>2026-05-01T15:46:24.526Z</time></trkpt><trkpt lat="42.4129391" lon="14.1508451"><ele>15.0</ele><time>2026-05-01T15:46:25.528Z</time></trkpt><trkpt lat="42.4130635" lon="14.150965"><ele>15.0</ele><time>2026-05-01T15:46:26.525Z</time></trkpt><trkpt lat="42.4131914" lon="14.1511029"><ele>15.0</ele><time>2026-05-01T15:46:27.53Z</time></trkpt><trkpt lat="42.4133157" lon="14.1512442"><ele>15.0</ele><time>2026-05-01T15:46:28.536Z</time></trkpt><trkpt lat="42.413437" lon="14.1513631"><ele>15.0</ele><time>2026-05-01T15:46:29.533Z</time></trkpt><trkpt lat="42.4135586" lon="14.15148"><ele>15.0</ele><time>2026-05-01T15:46:30.532Z</time></trkpt><trkpt lat="42.413708" lon="14.1516021"><ele>15.0</ele><time>2026-05-01T15:46:31.524Z</time></trkpt><trkpt lat="42.4138397" lon="14.1516929"><ele>15.333333333333332</ele><time>2026-05-01T15:46:32.528Z</time></trkpt><trkpt lat="42.41398" lon="14.1517689"><ele>15.666666666666666</ele><time>2026-05-01T15:46:33.524Z</time></trkpt><trkpt lat="42.4141248" lon="14.1518563"><ele>16.0</ele><time>2026-05-01T15:46:34.526Z</time></trkpt><trkpt lat="42.4142769" lon="14.1519185"><ele>16.0</ele><time>2026-05-01T15:46:35.527Z</time></trkpt><trkpt lat="42.4144226" lon="14.1519753"><ele>16.0</ele><time>2026-05-01T15:46:36.526Z</time></trkpt><trkpt lat="42.4145843" lon="14.1520095"><ele>16.0</ele><time>2026-05-01T15:46:37.521Z</time></trkpt><trkpt lat="42.4147358" lon="14.1520324"><ele>15.666666666666666</ele><time>2026-05-01T15:46:38.524Z</time></trkpt><trkpt lat="42.4148831" lon="14.152046"><ele>15.333333333333332</ele><time>2026-05-01T15:46:39.527Z</time></trkpt><trkpt lat="42.4150349" lon="14.1520553"><ele>15.0</ele><time>2026-05-01T15:46:40.527Z</time></trkpt><trkpt lat="42.4152004" lon="14.1520646"><ele>15.0</ele><time>2026-05-01T15:46:41.522Z</time></trkpt><trkpt lat="42.4153476" lon="14.1520758"><ele>15.0</ele><time>2026-05-01T15:46:42.527Z</time></trkpt><trkpt lat="42.4154994" lon="14.1520946"><ele>15.0</ele><time>2026-05-01T15:46:43.527Z</time></trkpt><trkpt lat="42.41565" lon="14.1521167"><ele>15.333333333333332</ele><time>2026-05-01T15:46:44.528Z</time></trkpt><trkpt lat="42.4158057" lon="14.1521468"><ele>15.666666666666666</ele><time>2026-05-01T15:46:45.527Z</time></trkpt><trkpt lat="42.4159674" lon="14.1521879"><ele>16.0</ele><time>2026-05-01T15:46:46.525Z</time></trkpt><trkpt lat="42.4161142" lon="14.1522616"><ele>16.0</ele><time>2026-05-01T15:46:47.512Z</time></trkpt><trkpt lat="42.4162448" lon="14.1523583"><ele>16.0</ele><time>2026-05-01T15:46:48.523Z</time></trkpt><trkpt lat="42.4163754" lon="14.1524926"><ele>16.0</ele><time>2026-05-01T15:46:49.525Z</time></trkpt><trkpt lat="42.4164841" lon="14.1526433"><ele>17.0</ele><time>2026-05-01T15:46:50.516Z</time></trkpt><trkpt lat="42.4165962" lon="14.1527813"><ele>18.0</ele><time>2026-05-01T15:46:51.519Z</time></trkpt><trkpt lat="42.4166875" lon="14.1529163"><ele>19.0</ele><time>2026-05-01T15:46:52.52Z</time></trkpt><trkpt lat="42.4167852" lon="14.1530551"><ele>20.0</ele><time>2026-05-01T15:46:53.521Z</time></trkpt><trkpt lat="42.4168854" lon="14.1531871"><ele>19.75</ele><time>2026-05-01T15:46:54.524Z</time></trkpt><trkpt lat="42.4169823" lon="14.1533169"><ele>19.5</ele><time>2026-05-01T15:46:55.522Z</time></trkpt><trkpt lat="42.4170804" lon="14.1534523"><ele>19.25</ele><time>2026-05-01T15:46:56.522Z</time></trkpt><trkpt lat="42.4171876" lon="14.1535967"><ele>19.0</ele><time>2026-05-01T15:46:57.522Z</time></trkpt><trkpt lat="42.417288" lon="14.1537236"><ele>19.0</ele><time>2026-05-01T15:46:58.526Z</time></trkpt><trkpt lat="42.4173942" lon="14.1538716"><ele>19.0</ele><time>2026-05-01T15:46:59.527Z</time></trkpt><trkpt lat="42.4174928" lon="14.1540113"><ele>19.0</ele><time>2026-05-01T15:47:00.524Z</time></trkpt><trkpt lat="42.417601" lon="14.1541494"><ele>19.0</ele><time>2026-05-01T15:47:01.518Z</time></trkpt><trkpt lat="42.417702" lon="14.1542723"><ele>19.0</ele><time>2026-05-01T15:47:02.522Z</time></trkpt><trkpt lat="42.4178045" lon="14.154413"><ele>19.0</ele><time>2026-05-01T15:47:03.518Z</time></trkpt><trkpt lat="42.4178994" lon="14.1545528"><ele>19.0</ele><time>2026-05-01T15:47:04.519Z</time></trkpt><trkpt lat="42.4180026" lon="14.1547038"><ele>19.0</ele><time>2026-05-01T15:47:05.518Z</time></trkpt><trkpt lat="42.4181163" lon="14.1548483"><ele>18.333333333333332</ele><time>2026-05-01T15:47:06.519Z</time></trkpt><trkpt lat="42.4182262" lon="14.1549921"><ele>17.666666666666668</ele><time>2026-05-01T15:47:07.516Z</time></trkpt><trkpt lat="42.4183397" lon="14.1551438"><ele>17.0</ele><time>2026-05-01T15:47:08.52Z</time></trkpt><trkpt lat="42.4184322" lon="14.1552896"><ele>17.0</ele><time>2026-05-01T15:47:09.52Z</time></trkpt><trkpt lat="42.4185225" lon="14.1554033"><ele>17.0</ele><time>2026-05-01T15:47:10.524Z</time></trkpt><trkpt lat="42.4186309" lon="14.1555403"><ele>17.0</ele><time>2026-05-01T15:47:11.521Z</time></trkpt><trkpt lat="42.4187359" lon="14.1556761"><ele>17.0</ele><time>2026-05-01T15:47:12.522Z</time></trkpt><trkpt lat="42.4188415" lon="14.1558263"><ele>19.0</ele><time>2026-05-01T15:47:13.52Z</time></trkpt><trkpt lat="42.4189537" lon="14.155988"><ele>21.0</ele><time>2026-05-01T15:47:14.524Z</time></trkpt><trkpt lat="42.4190483" lon="14.1561379"><ele>23.0</ele><time>2026-05-01T15:47:15.546Z</time></trkpt><trkpt lat="42.4191536" lon="14.1562701"><ele>23.0</ele><time>2026-05-01T15:47:16.604Z</time></trkpt><trkpt lat="42.419268" lon="14.1563811"><ele>23.0</ele><time>2026-05-01T15:47:17.599Z</time></trkpt><trkpt lat="42.4193919" lon="14.1564644"><ele>23.0</ele><time>2026-05-01T15:47:18.599Z</time></trkpt><trkpt lat="42.4195396" lon="14.1565501"><ele>23.0</ele><time>2026-05-01T15:47:19.587Z</time></trkpt><trkpt lat="42.4196847" lon="14.1566345"><ele>22.25</ele><time>2026-05-01T15:47:20.597Z</time></trkpt><trkpt lat="42.4198172" lon="14.1567098"><ele>21.5</ele><time>2026-05-01T15:47:21.591Z</time></trkpt><trkpt lat="42.4199502" lon="14.1567852"><ele>20.75</ele><time>2026-05-01T15:47:22.592Z</time></trkpt><trkpt lat="42.4200878" lon="14.1568517"><ele>20.0</ele><time>2026-05-01T15:47:23.61Z</time></trkpt><trkpt lat="42.4202241" lon="14.1569141"><ele>20.0</ele><time>2026-05-01T15:47:24.614Z</time></trkpt><trkpt lat="42.4203573" lon="14.1569731"><ele>20.0</ele><time>2026-05-01T15:47:25.611Z</time></trkpt><trkpt lat="42.4204885" lon="14.1570281"><ele>20.0</ele><time>2026-05-01T15:47:26.612Z</time></trkpt><trkpt lat="42.4206187" lon="14.1570146"><ele>20.0</ele><time>2026-05-01T15:47:27.613Z</time></trkpt><trkpt lat="42.4207426" lon="14.1570376"><ele>20.25</ele><time>2026-05-01T15:47:28.612Z</time></trkpt><trkpt lat="42.4208623" lon="14.1570723"><ele>20.5</ele><time>2026-05-01T15:47:29.611Z</time></trkpt><trkpt lat="42.4209795" lon="14.1571134"><ele>20.75</ele><time>2026-05-01T15:47:30.607Z</time></trkpt><trkpt lat="42.4210914" lon="14.1571558"><ele>21.0</ele><time>2026-05-01T15:47:31.611Z</time></trkpt><trkpt lat="42.4211918" lon="14.1571961"><ele>21.0</ele><time>2026-05-01T15:47:32.612Z</time></trkpt><trkpt lat="42.4212778" lon="14.1572339"><ele>21.0</ele><time>2026-05-01T15:47:33.608Z</time></trkpt><trkpt lat="42.4213629" lon="14.1572684"><ele>21.0</ele><time>2026-05-01T15:47:34.61Z</time></trkpt><trkpt lat="42.4214459" lon="14.1573006"><ele>21.0</ele><time>2026-05-01T15:47:35.611Z</time></trkpt><trkpt lat="42.4215296" lon="14.1573348"><ele>21.0</ele><time>2026-05-01T15:47:36.613Z</time></trkpt><trkpt lat="42.4216121" lon="14.157366"><ele>21.0</ele><time>2026-05-01T15:47:37.611Z</time></trkpt><trkpt lat="42.4216887" lon="14.1573935"><ele>20.833333333333332</ele><time>2026-05-01T15:47:38.61Z</time></trkpt><trkpt lat="42.4217607" lon="14.1574188"><ele>20.666666666666668</ele><time>2026-05-01T15:47:39.607Z</time></trkpt><trkpt lat="42.4218308" lon="14.1574326"><ele>20.5</ele><time>2026-05-01T15:47:40.601Z</time></trkpt><trkpt lat="42.4218969" lon="14.1574318"><ele>20.333333333333336</ele><time>2026-05-01T15:47:41.602Z</time></trkpt><trkpt lat="42.4219612" lon="14.1574279"><ele>20.166666666666668</ele><time>2026-05-01T15:47:42.602Z</time></trkpt><trkpt lat="42.4220767" lon="14.1574156"><ele>20.0</ele><time>2026-05-01T15:47:44.59Z</time></trkpt><trkpt lat="42.4221677" lon="14.1574085"><ele>20.0</ele><time>2026-05-01T15:47:46.586Z</time></trkpt><trkpt lat="42.4222678" lon="14.1574459"><ele>20.0</ele><time>2026-05-01T15:47:48.613Z</time></trkpt><trkpt lat="42.4223342" lon="14.1574778"><ele>20.0</ele><time>2026-05-01T15:47:49.589Z</time></trkpt><trkpt lat="42.4224032" lon="14.1575063"><ele>20.0</ele><time>2026-05-01T15:47:50.59Z</time></trkpt><trkpt lat="42.4224728" lon="14.1575337"><ele>20.0</ele><time>2026-05-01T15:47:51.596Z</time></trkpt><trkpt lat="42.422536" lon="14.157563"><ele>20.0</ele><time>2026-05-01T15:47:52.589Z</time></trkpt><trkpt lat="42.4225947" lon="14.1576035"><ele>20.0</ele><time>2026-05-01T15:47:53.608Z</time></trkpt><trkpt lat="42.4226513" lon="14.1576519"><ele>20.0</ele><time>2026-05-01T15:47:54.608Z</time></trkpt><trkpt lat="42.4227049" lon="14.1577002"><ele>20.0</ele><time>2026-05-01T15:47:55.61Z</time></trkpt><trkpt lat="42.4227688" lon="14.1577476"><ele>20.0</ele><time>2026-05-01T15:47:56.593Z</time></trkpt><trkpt lat="42.4228434" lon="14.1577848"><ele>20.0</ele><time>2026-05-01T15:47:57.588Z</time></trkpt><trkpt lat="42.4229377" lon="14.1578239"><ele>20.0</ele><time>2026-05-01T15:47:58.598Z</time></trkpt><trkpt lat="42.4230352" lon="14.1578664"><ele>19.5</ele><time>2026-05-01T15:47:59.594Z</time></trkpt><trkpt lat="42.4231339" lon="14.1579222"><ele>19.0</ele><time>2026-05-01T15:48:00.616Z</time></trkpt><trkpt lat="42.4232426" lon="14.1579825"><ele>18.5</ele><time>2026-05-01T15:48:01.611Z</time></trkpt><trkpt lat="42.4233564" lon="14.1580391"><ele>18.0</ele><time>2026-05-01T15:48:02.611Z</time></trkpt><trkpt lat="42.4234716" lon="14.1580944"><ele>18.0</ele><time>2026-05-01T15:48:03.609Z</time></trkpt><trkpt lat="42.4235856" lon="14.1581449"><ele>18.0</ele><time>2026-05-01T15:48:04.611Z</time></trkpt><trkpt lat="42.4236938" lon="14.1581871"><ele>18.0</ele><time>2026-05-01T15:48:05.619Z</time></trkpt><trkpt lat="42.4238011" lon="14.1582263"><ele>18.0</ele><time>2026-05-01T15:48:06.606Z</time></trkpt><trkpt lat="42.4239057" lon="14.1582686"><ele>17.833333333333332</ele><time>2026-05-01T15:48:07.604Z</time></trkpt><trkpt lat="42.4240026" lon="14.1583112"><ele>17.666666666666668</ele><time>2026-05-01T15:48:08.606Z</time></trkpt><trkpt lat="42.4240918" lon="14.1583529"><ele>17.5</ele><time>2026-05-01T15:48:09.606Z</time></trkpt><trkpt lat="42.4241714" lon="14.1583906"><ele>17.333333333333336</ele><time>2026-05-01T15:48:10.602Z</time></trkpt><trkpt lat="42.4242409" lon="14.1584247"><ele>17.166666666666668</ele><time>2026-05-01T15:48:11.599Z</time></trkpt><trkpt lat="42.4243214" lon="14.1584562"><ele>17.0</ele><time>2026-05-01T15:48:12.602Z</time></trkpt><trkpt lat="42.4244111" lon="14.1584903"><ele>17.0</ele><time>2026-05-01T15:48:13.603Z</time></trkpt><trkpt lat="42.424511" lon="14.1585266"><ele>17.0</ele><time>2026-05-01T15:48:14.606Z</time></trkpt><trkpt lat="42.424617" lon="14.1585636"><ele>17.0</ele><time>2026-05-01T15:48:15.61Z</time></trkpt><trkpt lat="42.4247266" lon="14.1586034"><ele>17.0</ele><time>2026-05-01T15:48:16.605Z</time></trkpt><trkpt lat="42.4248284" lon="14.1586462"><ele>17.0</ele><time>2026-05-01T15:48:17.607Z</time></trkpt><trkpt lat="42.4249306" lon="14.1586924"><ele>17.2</ele><time>2026-05-01T15:48:18.606Z</time></trkpt><trkpt lat="42.4250247" lon="14.1587347"><ele>17.4</ele><time>2026-05-01T15:48:19.603Z</time></trkpt><trkpt lat="42.4251182" lon="14.158777"><ele>17.6</ele><time>2026-05-01T15:48:20.611Z</time></trkpt><trkpt lat="42.425208" lon="14.1588196"><ele>17.8</ele><time>2026-05-01T15:48:21.613Z</time></trkpt><trkpt lat="42.4252939" lon="14.1588627"><ele>18.0</ele><time>2026-05-01T15:48:22.614Z</time></trkpt><trkpt lat="42.4253742" lon="14.1589014"><ele>18.0</ele><time>2026-05-01T15:48:23.613Z</time></trkpt><trkpt lat="42.4254493" lon="14.1589361"><ele>18.0</ele><time>2026-05-01T15:48:24.613Z</time></trkpt><trkpt lat="42.4255194" lon="14.1589703"><ele>18.0</ele><time>2026-05-01T15:48:25.61Z</time></trkpt><trkpt lat="42.4255889" lon="14.1590036"><ele>18.0</ele><time>2026-05-01T15:48:26.61Z</time></trkpt><trkpt lat="42.425658" lon="14.1590354"><ele>18.0</ele><time>2026-05-01T15:48:27.608Z</time></trkpt><trkpt lat="42.4257271" lon="14.1590684"><ele>18.0</ele><time>2026-05-01T15:48:28.609Z</time></trkpt><trkpt lat="42.4257989" lon="14.1591073"><ele>18.166666666666668</ele><time>2026-05-01T15:48:29.612Z</time></trkpt><trkpt lat="42.4258786" lon="14.1591519"><ele>18.333333333333332</ele><time>2026-05-01T15:48:30.611Z</time></trkpt><trkpt lat="42.4259554" lon="14.1591941"><ele>18.5</ele><time>2026-05-01T15:48:31.605Z</time></trkpt><trkpt lat="42.4260248" lon="14.1592355"><ele>18.666666666666664</ele><time>2026-05-01T15:48:32.612Z</time></trkpt><trkpt lat="42.4260926" lon="14.159276"><ele>18.833333333333332</ele><time>2026-05-01T15:48:33.604Z</time></trkpt><trkpt lat="42.4261615" lon="14.159318"><ele>19.0</ele><time>2026-05-01T15:48:34.609Z</time></trkpt><trkpt lat="42.4262327" lon="14.1593653"><ele>19.0</ele><time>2026-05-01T15:48:35.615Z</time></trkpt><trkpt lat="42.4263051" lon="14.1594151"><ele>19.0</ele><time>2026-05-01T15:48:36.619Z</time></trkpt><trkpt lat="42.4263789" lon="14.1594645"><ele>19.0</ele><time>2026-05-01T15:48:37.607Z</time></trkpt><trkpt lat="42.4264471" lon="14.1595136"><ele>19.0</ele><time>2026-05-01T15:48:38.612Z</time></trkpt><trkpt lat="42.4265101" lon="14.1595607"><ele>19.0</ele><time>2026-05-01T15:48:39.607Z</time></trkpt><trkpt lat="42.4265711" lon="14.1596046"><ele>19.0</ele><time>2026-05-01T15:48:40.609Z</time></trkpt><trkpt lat="42.4266279" lon="14.159646"><ele>19.0</ele><time>2026-05-01T15:48:41.606Z</time></trkpt><trkpt lat="42.4266909" lon="14.1596921"><ele>19.0</ele><time>2026-05-01T15:48:42.592Z</time></trkpt><trkpt lat="42.4267612" lon="14.1597468"><ele>19.0</ele><time>2026-05-01T15:48:43.585Z</time></trkpt><trkpt lat="42.4268367" lon="14.1598064"><ele>19.0</ele><time>2026-05-01T15:48:44.588Z</time></trkpt><trkpt lat="42.4269162" lon="14.1598726"><ele>19.0</ele><time>2026-05-01T15:48:45.588Z</time></trkpt><trkpt lat="42.4269986" lon="14.1599349"><ele>19.0</ele><time>2026-05-01T15:48:46.611Z</time></trkpt><trkpt lat="42.4270819" lon="14.1600011"><ele>18.8</ele><time>2026-05-01T15:48:47.607Z</time></trkpt><trkpt lat="42.4271653" lon="14.160069"><ele>18.599999999999998</ele><time>2026-05-01T15:48:48.608Z</time></trkpt><trkpt lat="42.4272513" lon="14.1601437"><ele>18.4</ele><time>2026-05-01T15:48:49.604Z</time></trkpt><trkpt lat="42.4273461" lon="14.1602285"><ele>18.2</ele><time>2026-05-01T15:48:50.603Z</time></trkpt><trkpt lat="42.4274468" lon="14.1603174"><ele>18.0</ele><time>2026-05-01T15:48:51.607Z</time></trkpt><trkpt lat="42.4275514" lon="14.1604115"><ele>18.0</ele><time>2026-05-01T15:48:52.603Z</time></trkpt><trkpt lat="42.4276593" lon="14.1605127"><ele>18.0</ele><time>2026-05-01T15:48:53.615Z</time></trkpt><trkpt lat="42.4277649" lon="14.1606115"><ele>18.0</ele><time>2026-05-01T15:48:54.608Z</time></trkpt><trkpt lat="42.427868" lon="14.1607142"><ele>18.0</ele><time>2026-05-01T15:48:55.607Z</time></trkpt><trkpt lat="42.4279697" lon="14.1608188"><ele>17.75</ele><time>2026-05-01T15:48:56.605Z</time></trkpt><trkpt lat="42.4280699" lon="14.1609191"><ele>17.5</ele><time>2026-05-01T15:48:57.611Z</time></trkpt><trkpt lat="42.4281652" lon="14.1610155"><ele>17.25</ele><time>2026-05-01T15:48:58.612Z</time></trkpt><trkpt lat="42.4282545" lon="14.1611035"><ele>17.0</ele><time>2026-05-01T15:48:59.611Z</time></trkpt><trkpt lat="42.4283421" lon="14.161186"><ele>17.0</ele><time>2026-05-01T15:49:00.614Z</time></trkpt><trkpt lat="42.4284293" lon="14.1612716"><ele>17.0</ele><time>2026-05-01T15:49:01.609Z</time></trkpt><trkpt lat="42.4285148" lon="14.1613558"><ele>17.0</ele><time>2026-05-01T15:49:02.609Z</time></trkpt><trkpt lat="42.4285995" lon="14.1614346"><ele>17.0</ele><time>2026-05-01T15:49:03.604Z</time></trkpt><trkpt lat="42.4286793" lon="14.1615094"><ele>17.0</ele><time>2026-05-01T15:49:04.603Z</time></trkpt><trkpt lat="42.4287545" lon="14.1615843"><ele>19.0</ele><time>2026-05-01T15:49:05.603Z</time></trkpt><trkpt lat="42.4288285" lon="14.1616556"><ele>21.0</ele><time>2026-05-01T15:49:06.604Z</time></trkpt><trkpt lat="42.4289057" lon="14.1617296"><ele>23.000000000000004</ele><time>2026-05-01T15:49:07.605Z</time></trkpt><trkpt lat="42.4289809" lon="14.1618041"><ele>25.0</ele><time>2026-05-01T15:49:08.602Z</time></trkpt><trkpt lat="42.4290543" lon="14.1618722"><ele>27.0</ele><time>2026-05-01T15:49:09.606Z</time></trkpt><trkpt lat="42.429123" lon="14.1619402"><ele>27.0</ele><time>2026-05-01T15:49:10.605Z</time></trkpt><trkpt lat="42.4291874" lon="14.1620068"><ele>27.000000000000004</ele><time>2026-05-01T15:49:11.61Z</time></trkpt><trkpt lat="42.4292741" lon="14.1620978"><ele>27.000000000000004</ele><time>2026-05-01T15:49:13.6Z</time></trkpt><trkpt lat="42.4293517" lon="14.1621784"><ele>27.0</ele><time>2026-05-01T15:49:15.61Z</time></trkpt><trkpt lat="42.4294468" lon="14.1622671"><ele>27.0</ele><time>2026-05-01T15:49:17.605Z</time></trkpt><trkpt lat="42.429494" lon="14.1623249"><ele>25.8</ele><time>2026-05-01T15:49:18.606Z</time></trkpt><trkpt lat="42.4295528" lon="14.1623879"><ele>24.6</ele><time>2026-05-01T15:49:19.604Z</time></trkpt><trkpt lat="42.4296203" lon="14.162461"><ele>23.400000000000002</ele><time>2026-05-01T15:49:20.614Z</time></trkpt><trkpt lat="42.4296995" lon="14.1625363"><ele>22.200000000000003</ele><time>2026-05-01T15:49:21.604Z</time></trkpt><trkpt lat="42.4297897" lon="14.1626061"><ele>21.0</ele><time>2026-05-01T15:49:22.608Z</time></trkpt><trkpt lat="42.4298911" lon="14.1626687"><ele>21.0</ele><time>2026-05-01T15:49:23.614Z</time></trkpt><trkpt lat="42.43" lon="14.1627189"><ele>21.0</ele><time>2026-05-01T15:49:24.589Z</time></trkpt><trkpt lat="42.4301221" lon="14.1627593"><ele>21.0</ele><time>2026-05-01T15:49:25.585Z</time></trkpt><trkpt lat="42.4302421" lon="14.1627895"><ele>21.0</ele><time>2026-05-01T15:49:26.588Z</time></trkpt><trkpt lat="42.4303519" lon="14.1628126"><ele>21.0</ele><time>2026-05-01T15:49:27.586Z</time></trkpt><trkpt lat="42.4304515" lon="14.1628282"><ele>21.0</ele><time>2026-05-01T15:49:28.607Z</time></trkpt><trkpt lat="42.4305259" lon="14.1628376"><ele>21.0</ele><time>2026-05-01T15:49:29.598Z</time></trkpt><trkpt lat="42.4305984" lon="14.1627846"><ele>21.0</ele><time>2026-05-01T15:49:31.61Z</time></trkpt><trkpt lat="42.4305387" lon="14.1626805"><ele>21.0</ele><time>2026-05-01T15:49:34.518Z</time></trkpt><trkpt lat="42.4304222" lon="14.1625972"><ele>21.0</ele><time>2026-05-01T15:49:36.511Z</time></trkpt><trkpt lat="42.4303666" lon="14.162528"><ele>21.0</ele><time>2026-05-01T15:49:37.515Z</time></trkpt><trkpt lat="42.4303284" lon="14.162458"><ele>21.0</ele><time>2026-05-01T15:49:38.508Z</time></trkpt><trkpt lat="42.4303483" lon="14.1623052"><ele>21.0</ele><time>2026-05-01T15:49:40.511Z</time></trkpt><trkpt lat="42.43039" lon="14.1622195"><ele>21.0</ele><time>2026-05-01T15:49:41.504Z</time></trkpt><trkpt lat="42.4304357" lon="14.162127"><ele>21.0</ele><time>2026-05-01T15:49:42.511Z</time></trkpt><trkpt lat="42.430479" lon="14.162043"><ele>21.333333333333332</ele><time>2026-05-01T15:49:43.513Z</time></trkpt><trkpt lat="42.43051" lon="14.1619687"><ele>21.666666666666668</ele><time>2026-05-01T15:49:44.513Z</time></trkpt><trkpt lat="42.4305478" lon="14.1618922"><ele>22.0</ele><time>2026-05-01T15:49:45.516Z</time></trkpt><trkpt lat="42.4305856" lon="14.1618099"><ele>22.333333333333336</ele><time>2026-05-01T15:49:46.517Z</time></trkpt><trkpt lat="42.4306475" lon="14.1616637"><ele>22.666666666666668</ele><time>2026-05-01T15:49:48.513Z</time></trkpt><trkpt lat="42.430674" lon="14.1615806"><ele>23.0</ele><time>2026-05-01T15:49:49.512Z</time></trkpt><trkpt lat="42.4307034" lon="14.1614969"><ele>23.666666666666668</ele><time>2026-05-01T15:49:50.513Z</time></trkpt><trkpt lat="42.4307373" lon="14.1614217"><ele>24.333333333333336</ele><time>2026-05-01T15:49:51.509Z</time></trkpt><trkpt lat="42.4307763" lon="14.1613173"><ele>25.0</ele><time>2026-05-01T15:49:53.519Z</time></trkpt><trkpt lat="42.4308108" lon="14.1612342"><ele>25.666666666666668</ele><time>2026-05-01T15:49:55.525Z</time></trkpt><trkpt lat="42.4308469" lon="14.1611577"><ele>26.333333333333332</ele><time>2026-05-01T15:49:57.528Z</time></trkpt><trkpt lat="42.4309095" lon="14.16107"><ele>27.0</ele><time>2026-05-01T15:50:10.521Z</time></trkpt><trkpt lat="42.4309445" lon="14.1609855"><ele>27.0</ele><time>2026-05-01T15:50:11.508Z</time></trkpt><trkpt lat="42.4309806" lon="14.1608811"><ele>27.0</ele><time>2026-05-01T15:50:12.513Z</time></trkpt><trkpt lat="42.4310073" lon="14.1607844"><ele>27.0</ele><time>2026-05-01T15:50:13.509Z</time></trkpt><trkpt lat="42.4310397" lon="14.1606907"><ele>27.0</ele><time>2026-05-01T15:50:14.512Z</time></trkpt><trkpt lat="42.4310821" lon="14.1605903"><ele>27.0</ele><time>2026-05-01T15:50:15.515Z</time></trkpt><trkpt lat="42.4311171" lon="14.160506"><ele>27.0</ele><time>2026-05-01T15:50:16.518Z</time></trkpt><trkpt lat="42.4311555" lon="14.1604146"><ele>27.0</ele><time>2026-05-01T15:50:17.512Z</time></trkpt><trkpt lat="42.4311979" lon="14.1603076"><ele>27.000000000000004</ele><time>2026-05-01T15:50:18.511Z</time></trkpt><trkpt lat="42.4312456" lon="14.1601916"><ele>27.000000000000004</ele><time>2026-05-01T15:50:19.51Z</time></trkpt><trkpt lat="42.4312914" lon="14.1600699"><ele>27.0</ele><time>2026-05-01T15:50:20.512Z</time></trkpt><trkpt lat="42.4313355" lon="14.15994"><ele>27.0</ele><time>2026-05-01T15:50:21.51Z</time></trkpt><trkpt lat="42.4313871" lon="14.1598033"><ele>28.25</ele><time>2026-05-01T15:50:22.509Z</time></trkpt><trkpt lat="42.4314425" lon="14.1596628"><ele>29.5</ele><time>2026-05-01T15:50:23.51Z</time></trkpt><trkpt lat="42.4315055" lon="14.1595223"><ele>30.75</ele><time>2026-05-01T15:50:24.511Z</time></trkpt><trkpt lat="42.4315664" lon="14.1593925"><ele>32.0</ele><time>2026-05-01T15:50:25.515Z</time></trkpt><trkpt lat="42.4316279" lon="14.1592575"><ele>32.0</ele><time>2026-05-01T15:50:26.512Z</time></trkpt><trkpt lat="42.4316921" lon="14.1591249"><ele>32.0</ele><time>2026-05-01T15:50:27.517Z</time></trkpt><trkpt lat="42.4317498" lon="14.1589891"><ele>32.0</ele><time>2026-05-01T15:50:28.514Z</time></trkpt><trkpt lat="42.431804" lon="14.1588605"><ele>32.0</ele><time>2026-05-01T15:50:29.515Z</time></trkpt><trkpt lat="42.4318569" lon="14.1587341"><ele>32.0</ele><time>2026-05-01T15:50:30.516Z</time></trkpt><trkpt lat="42.4319051" lon="14.1586204"><ele>32.166666666666664</ele><time>2026-05-01T15:50:31.513Z</time></trkpt><trkpt lat="42.4319509" lon="14.1585018"><ele>32.33333333333333</ele><time>2026-05-01T15:50:32.515Z</time></trkpt><trkpt lat="42.4319972" lon="14.1583948"><ele>32.5</ele><time>2026-05-01T15:50:33.519Z</time></trkpt><trkpt lat="42.432039" lon="14.1582936"><ele>32.666666666666664</ele><time>2026-05-01T15:50:34.519Z</time></trkpt><trkpt lat="42.4320876" lon="14.1582004"><ele>32.833333333333336</ele><time>2026-05-01T15:50:35.512Z</time></trkpt><trkpt lat="42.4321354" lon="14.1580987"><ele>33.0</ele><time>2026-05-01T15:50:36.507Z</time></trkpt><trkpt lat="42.4321737" lon="14.1579945"><ele>34.599999999999994</ele><time>2026-05-01T15:50:37.506Z</time></trkpt><trkpt lat="42.4322148" lon="14.1578792"><ele>36.199999999999996</ele><time>2026-05-01T15:50:38.507Z</time></trkpt><trkpt lat="42.4322593" lon="14.1577639"><ele>37.8</ele><time>2026-05-01T15:50:39.51Z</time></trkpt><trkpt lat="42.432302" lon="14.1576471"><ele>39.4</ele><time>2026-05-01T15:50:40.512Z</time></trkpt><trkpt lat="42.432358" lon="14.1575424"><ele>41.0</ele><time>2026-05-01T15:50:41.508Z</time></trkpt><trkpt lat="42.4324246" lon="14.1574215"><ele>42.0</ele><time>2026-05-01T15:50:42.511Z</time></trkpt><trkpt lat="42.4325077" lon="14.1573115"><ele>43.0</ele><time>2026-05-01T15:50:43.509Z</time></trkpt><trkpt lat="42.4325929" lon="14.1571999"><ele>44.0</ele><time>2026-05-01T15:50:44.505Z</time></trkpt><trkpt lat="42.4326878" lon="14.157103"><ele>45.0</ele><time>2026-05-01T15:50:45.507Z</time></trkpt><trkpt lat="42.4327796" lon="14.1570091"><ele>45.0</ele><time>2026-05-01T15:50:46.513Z</time></trkpt><trkpt lat="42.4328748" lon="14.1569388"><ele>45.0</ele><time>2026-05-01T15:50:47.518Z</time></trkpt><trkpt lat="42.4329722" lon="14.1568617"><ele>45.0</ele><time>2026-05-01T15:50:48.519Z</time></trkpt><trkpt lat="42.4330697" lon="14.1567783"><ele>45.0</ele><time>2026-05-01T15:50:49.517Z</time></trkpt><trkpt lat="42.433166" lon="14.1566991"><ele>45.0</ele><time>2026-05-01T15:50:50.516Z</time></trkpt><trkpt lat="42.4332624" lon="14.1566182"><ele>46.0</ele><time>2026-05-01T15:50:51.522Z</time></trkpt><trkpt lat="42.4333588" lon="14.1565504"><ele>47.0</ele><time>2026-05-01T15:50:52.515Z</time></trkpt><trkpt lat="42.4334437" lon="14.1564928"><ele>48.0</ele><time>2026-05-01T15:50:53.517Z</time></trkpt><trkpt lat="42.4335125" lon="14.1564461"><ele>49.0</ele><time>2026-05-01T15:50:54.512Z</time></trkpt><trkpt lat="42.4335682" lon="14.1563983"><ele>50.0</ele><time>2026-05-01T15:50:55.511Z</time></trkpt><trkpt lat="42.4336821" lon="14.1562962"><ele>50.4</ele><time>2026-05-01T15:50:57.515Z</time></trkpt><trkpt lat="42.4337526" lon="14.1562406"><ele>50.8</ele><time>2026-05-01T15:50:58.515Z</time></trkpt><trkpt lat="42.4338328" lon="14.1561956"><ele>51.2</ele><time>2026-05-01T15:50:59.511Z</time></trkpt><trkpt lat="42.4339307" lon="14.1561366"><ele>51.6</ele><time>2026-05-01T15:51:00.523Z</time></trkpt><trkpt lat="42.434024" lon="14.1560714"><ele>52.0</ele><time>2026-05-01T15:51:01.513Z</time></trkpt><trkpt lat="42.4341173" lon="14.15599"><ele>52.5</ele><time>2026-05-01T15:51:02.521Z</time></trkpt><trkpt lat="42.4342158" lon="14.1559104"><ele>53.0</ele><time>2026-05-01T15:51:03.517Z</time></trkpt><trkpt lat="42.4343272" lon="14.1558321"><ele>53.5</ele><time>2026-05-01T15:51:04.518Z</time></trkpt><trkpt lat="42.4344394" lon="14.1557498"><ele>54.0</ele><time>2026-05-01T15:51:05.522Z</time></trkpt><trkpt lat="42.4345474" lon="14.1556769"><ele>55.25</ele><time>2026-05-01T15:51:06.524Z</time></trkpt><trkpt lat="42.4346579" lon="14.1555954"><ele>56.5</ele><time>2026-05-01T15:51:07.52Z</time></trkpt><trkpt lat="42.4347687" lon="14.1555091"><ele>57.75</ele><time>2026-05-01T15:51:08.521Z</time></trkpt><trkpt lat="42.4348778" lon="14.1554249"><ele>59.0</ele><time>2026-05-01T15:51:09.517Z</time></trkpt><trkpt lat="42.4349878" lon="14.1553423"><ele>59.0</ele><time>2026-05-01T15:51:10.519Z</time></trkpt><trkpt lat="42.4350992" lon="14.1552525"><ele>59.0</ele><time>2026-05-01T15:51:11.521Z</time></trkpt><trkpt lat="42.4352126" lon="14.1551683"><ele>59.0</ele><time>2026-05-01T15:51:12.521Z</time></trkpt><trkpt lat="42.435332" lon="14.1550856"><ele>59.0</ele><time>2026-05-01T15:51:13.522Z</time></trkpt><trkpt lat="42.4354614" lon="14.1549965"><ele>58.66666666666667</ele><time>2026-05-01T15:51:14.521Z</time></trkpt><trkpt lat="42.435593" lon="14.1548954"><ele>58.33333333333333</ele><time>2026-05-01T15:51:15.519Z</time></trkpt><trkpt lat="42.4357212" lon="14.1547983"><ele>58.0</ele><time>2026-05-01T15:51:16.513Z</time></trkpt><trkpt lat="42.4358571" lon="14.1546813"><ele>59.25</ele><time>2026-05-01T15:51:17.514Z</time></trkpt><trkpt lat="42.4359854" lon="14.1545759"><ele>60.5</ele><time>2026-05-01T15:51:18.517Z</time></trkpt><trkpt lat="42.4361087" lon="14.1544799"><ele>61.75</ele><time>2026-05-01T15:51:19.517Z</time></trkpt><trkpt lat="42.4362411" lon="14.1543758"><ele>63.0</ele><time>2026-05-01T15:51:20.515Z</time></trkpt><trkpt lat="42.4363689" lon="14.1542759"><ele>63.25</ele><time>2026-05-01T15:51:21.52Z</time></trkpt><trkpt lat="42.436496" lon="14.1541585"><ele>63.5</ele><time>2026-05-01T15:51:22.518Z</time></trkpt><trkpt lat="42.4366168" lon="14.1540552"><ele>63.75</ele><time>2026-05-01T15:51:23.523Z</time></trkpt><trkpt lat="42.4367463" lon="14.1539502"><ele>64.0</ele><time>2026-05-01T15:51:24.523Z</time></trkpt><trkpt lat="42.4368689" lon="14.153838"><ele>65.66666666666666</ele><time>2026-05-01T15:51:25.517Z</time></trkpt><trkpt lat="42.4369919" lon="14.1537229"><ele>67.33333333333333</ele><time>2026-05-01T15:51:26.515Z</time></trkpt><trkpt lat="42.4371268" lon="14.1536078"><ele>69.0</ele><time>2026-05-01T15:51:27.523Z</time></trkpt><trkpt lat="42.4372624" lon="14.1534891"><ele>69.0</ele><time>2026-05-01T15:51:28.519Z</time></trkpt><trkpt lat="42.4373949" lon="14.1533747"><ele>69.0</ele><time>2026-05-01T15:51:29.522Z</time></trkpt><trkpt lat="42.4375401" lon="14.1532895"><ele>69.0</ele><time>2026-05-01T15:51:30.515Z</time></trkpt><trkpt lat="42.4376849" lon="14.1532434"><ele>69.0</ele><time>2026-05-01T15:51:31.511Z</time></trkpt><trkpt lat="42.4378431" lon="14.1532071"><ele>69.0</ele><time>2026-05-01T15:51:32.518Z</time></trkpt><trkpt lat="42.4379927" lon="14.1531811"><ele>69.0</ele><time>2026-05-01T15:51:33.52Z</time></trkpt><trkpt lat="42.4381544" lon="14.153139"><ele>67.0</ele><time>2026-05-01T15:51:34.515Z</time></trkpt><trkpt lat="42.4383095" lon="14.1530601"><ele>65.0</ele><time>2026-05-01T15:51:35.513Z</time></trkpt><trkpt lat="42.4384509" lon="14.1529704"><ele>63.0</ele><time>2026-05-01T15:51:36.512Z</time></trkpt><trkpt lat="42.4385788" lon="14.1528509"><ele>63.0</ele><time>2026-05-01T15:51:37.518Z</time></trkpt><trkpt lat="42.4387015" lon="14.1527114"><ele>63.0</ele><time>2026-05-01T15:51:38.514Z</time></trkpt><trkpt lat="42.4388257" lon="14.1525593"><ele>63.0</ele><time>2026-05-01T15:51:39.519Z</time></trkpt><trkpt lat="42.4389425" lon="14.1523991"><ele>66.33333333333333</ele><time>2026-05-01T15:51:40.522Z</time></trkpt><trkpt lat="42.4390506" lon="14.1522336"><ele>69.66666666666666</ele><time>2026-05-01T15:51:41.52Z</time></trkpt><trkpt lat="42.4391645" lon="14.1520613"><ele>73.0</ele><time>2026-05-01T15:51:42.522Z</time></trkpt><trkpt lat="42.4392715" lon="14.151901"><ele>73.0</ele><time>2026-05-01T15:51:43.515Z</time></trkpt><trkpt lat="42.4393917" lon="14.1517588"><ele>73.0</ele><time>2026-05-01T15:51:44.515Z</time></trkpt><trkpt lat="42.4395203" lon="14.151629"><ele>73.0</ele><time>2026-05-01T15:51:45.508Z</time></trkpt><trkpt lat="42.4396606" lon="14.1515273"><ele>74.0</ele><time>2026-05-01T15:51:46.512Z</time></trkpt><trkpt lat="42.4398135" lon="14.1514545"><ele>75.0</ele><time>2026-05-01T15:51:47.512Z</time></trkpt><trkpt lat="42.4399613" lon="14.151395"><ele>76.0</ele><time>2026-05-01T15:51:48.514Z</time></trkpt><trkpt lat="42.4401149" lon="14.1513341"><ele>76.0</ele><time>2026-05-01T15:51:49.524Z</time></trkpt><trkpt lat="42.4402564" lon="14.1512686"><ele>76.0</ele><time>2026-05-01T15:51:50.532Z</time></trkpt><trkpt lat="42.4403854" lon="14.1511811"><ele>76.0</ele><time>2026-05-01T15:51:51.512Z</time></trkpt><trkpt lat="42.4405052" lon="14.1510761"><ele>76.0</ele><time>2026-05-01T15:51:52.512Z</time></trkpt><trkpt lat="42.4406352" lon="14.1509678"><ele>79.0</ele><time>2026-05-01T15:51:53.523Z</time></trkpt><trkpt lat="42.4407504" lon="14.1508841"><ele>82.0</ele><time>2026-05-01T15:51:54.51Z</time></trkpt><trkpt lat="42.4408559" lon="14.1508282"><ele>85.0</ele><time>2026-05-01T15:51:55.511Z</time></trkpt><trkpt lat="42.4409882" lon="14.15079"><ele>88.0</ele><time>2026-05-01T15:51:56.507Z</time></trkpt><trkpt lat="42.4411231" lon="14.1507765"><ele>88.0</ele><time>2026-05-01T15:51:57.507Z</time></trkpt><trkpt lat="42.4412586" lon="14.1507958"><ele>88.0</ele><time>2026-05-01T15:51:58.508Z</time></trkpt><trkpt lat="42.4414024" lon="14.1508358"><ele>88.0</ele><time>2026-05-01T15:51:59.505Z</time></trkpt><trkpt lat="42.4415406" lon="14.1508696"><ele>88.0</ele><time>2026-05-01T15:52:00.503Z</time></trkpt><trkpt lat="42.4416918" lon="14.1509114"><ele>88.75</ele><time>2026-05-01T15:52:01.495Z</time></trkpt><trkpt lat="42.4418291" lon="14.1508989"><ele>89.5</ele><time>2026-05-01T15:52:02.498Z</time></trkpt><trkpt lat="42.4419658" lon="14.1508665"><ele>90.25</ele><time>2026-05-01T15:52:03.489Z</time></trkpt><trkpt lat="42.4420941" lon="14.1508241"><ele>91.0</ele><time>2026-05-01T15:52:04.502Z</time></trkpt><trkpt lat="42.4422314" lon="14.1507626"><ele>91.75</ele><time>2026-05-01T15:52:05.495Z</time></trkpt><trkpt lat="42.442315" lon="14.1506579"><ele>92.5</ele><time>2026-05-01T15:52:06.495Z</time></trkpt><trkpt lat="42.4423679" lon="14.1505145"><ele>93.25</ele><time>2026-05-01T15:52:07.505Z</time></trkpt><trkpt lat="42.4424016" lon="14.1503493"><ele>94.0</ele><time>2026-05-01T15:52:08.496Z</time></trkpt><trkpt lat="42.4424257" lon="14.1501836"><ele>94.0</ele><time>2026-05-01T15:52:09.504Z</time></trkpt><trkpt lat="42.4424642" lon="14.1500346"><ele>94.0</ele><time>2026-05-01T15:52:10.52Z</time></trkpt><trkpt lat="42.442505" lon="14.1498875"><ele>94.0</ele><time>2026-05-01T15:52:11.521Z</time></trkpt><trkpt lat="42.4425501" lon="14.1497323"><ele>94.0</ele><time>2026-05-01T15:52:12.523Z</time></trkpt><trkpt lat="42.4425881" lon="14.149565"><ele>95.0</ele><time>2026-05-01T15:52:13.522Z</time></trkpt><trkpt lat="42.4426342" lon="14.1493999"><ele>96.0</ele><time>2026-05-01T15:52:14.521Z</time></trkpt><trkpt lat="42.4426912" lon="14.1492318"><ele>97.0</ele><time>2026-05-01T15:52:15.522Z</time></trkpt><trkpt lat="42.4427554" lon="14.1490602"><ele>98.0</ele><time>2026-05-01T15:52:16.519Z</time></trkpt><trkpt lat="42.4428371" lon="14.1488825"><ele>99.5</ele><time>2026-05-01T15:52:17.538Z</time></trkpt><trkpt lat="42.4429201" lon="14.1487157"><ele>101.0</ele><time>2026-05-01T15:52:18.602Z</time></trkpt><trkpt lat="42.4430096" lon="14.1485517"><ele>102.5</ele><time>2026-05-01T15:52:19.597Z</time></trkpt><trkpt lat="42.4431064" lon="14.1484016"><ele>104.0</ele><time>2026-05-01T15:52:20.608Z</time></trkpt><trkpt lat="42.4432112" lon="14.1482547"><ele>109.0</ele><time>2026-05-01T15:52:21.589Z</time></trkpt><trkpt lat="42.4433162" lon="14.1481129"><ele>114.0</ele><time>2026-05-01T15:52:22.589Z</time></trkpt><trkpt lat="42.4434269" lon="14.1479646"><ele>119.0</ele><time>2026-05-01T15:52:23.594Z</time></trkpt><trkpt lat="42.4435373" lon="14.1478206"><ele>119.0</ele><time>2026-05-01T15:52:24.59Z</time></trkpt><trkpt lat="42.4436579" lon="14.1476885"><ele>119.0</ele><time>2026-05-01T15:52:25.602Z</time></trkpt><trkpt lat="42.4437807" lon="14.1475874"><ele>119.0</ele><time>2026-05-01T15:52:26.512Z</time></trkpt><trkpt lat="42.4439031" lon="14.1475101"><ele>119.0</ele><time>2026-05-01T15:52:27.509Z</time></trkpt><trkpt lat="42.4440373" lon="14.1474529"><ele>117.75</ele><time>2026-05-01T15:52:28.511Z</time></trkpt><trkpt lat="42.4441846" lon="14.1474282"><ele>116.5</ele><time>2026-05-01T15:52:29.522Z</time></trkpt><trkpt lat="42.4443202" lon="14.1473933"><ele>115.25</ele><time>2026-05-01T15:52:30.517Z</time></trkpt><trkpt lat="42.4444318" lon="14.1473401"><ele>114.0</ele><time>2026-05-01T15:52:31.509Z</time></trkpt><trkpt lat="42.4445073" lon="14.1472496"><ele>115.16666666666667</ele><time>2026-05-01T15:52:32.508Z</time></trkpt><trkpt lat="42.4445463" lon="14.1471436"><ele>116.33333333333334</ele><time>2026-05-01T15:52:33.518Z</time></trkpt><trkpt lat="42.4445698" lon="14.1470391"><ele>117.5</ele><time>2026-05-01T15:52:34.513Z</time></trkpt><trkpt lat="42.4445983" lon="14.146956"><ele>118.66666666666667</ele><time>2026-05-01T15:52:35.519Z</time></trkpt><trkpt lat="42.4446394" lon="14.146867"><ele>119.83333333333334</ele><time>2026-05-01T15:52:36.515Z</time></trkpt><trkpt lat="42.4447039" lon="14.146769"><ele>121.0</ele><time>2026-05-01T15:52:37.512Z</time></trkpt><trkpt lat="42.4447797" lon="14.1466715"><ele>121.0</ele><time>2026-05-01T15:52:38.511Z</time></trkpt><trkpt lat="42.4448594" lon="14.1465514"><ele>121.0</ele><time>2026-05-01T15:52:39.512Z</time></trkpt><trkpt lat="42.4449463" lon="14.1464077"><ele>121.0</ele><time>2026-05-01T15:52:40.513Z</time></trkpt><trkpt lat="42.4450337" lon="14.1462424"><ele>121.0</ele><time>2026-05-01T15:52:41.515Z</time></trkpt><trkpt lat="42.4451203" lon="14.1460874"><ele>120.75</ele><time>2026-05-01T15:52:42.521Z</time></trkpt><trkpt lat="42.4452182" lon="14.1459246"><ele>120.5</ele><time>2026-05-01T15:52:43.519Z</time></trkpt><trkpt lat="42.4453067" lon="14.1457759"><ele>120.25</ele><time>2026-05-01T15:52:44.522Z</time></trkpt><trkpt lat="42.4453933" lon="14.1456217"><ele>120.0</ele><time>2026-05-01T15:52:45.523Z</time></trkpt><trkpt lat="42.4454889" lon="14.1454691"><ele>120.0</ele><time>2026-05-01T15:52:46.52Z</time></trkpt><trkpt lat="42.4455887" lon="14.1453189"><ele>120.0</ele><time>2026-05-01T15:52:47.52Z</time></trkpt><trkpt lat="42.4457033" lon="14.1451966"><ele>120.0</ele><time>2026-05-01T15:52:48.517Z</time></trkpt><trkpt lat="42.4458254" lon="14.1450903"><ele>120.0</ele><time>2026-05-01T15:52:49.517Z</time></trkpt><trkpt lat="42.4459635" lon="14.1449921"><ele>120.0</ele><time>2026-05-01T15:52:50.52Z</time></trkpt><trkpt lat="42.4461016" lon="14.1449108"><ele>120.0</ele><time>2026-05-01T15:52:51.522Z</time></trkpt><trkpt lat="42.4462174" lon="14.1448479"><ele>120.0</ele><time>2026-05-01T15:52:52.52Z</time></trkpt><trkpt lat="42.4463247" lon="14.144784"><ele>120.0</ele><time>2026-05-01T15:52:53.52Z</time></trkpt><trkpt lat="42.4464499" lon="14.1447275"><ele>120.25</ele><time>2026-05-01T15:52:54.524Z</time></trkpt><trkpt lat="42.4465744" lon="14.1446914"><ele>120.5</ele><time>2026-05-01T15:52:55.516Z</time></trkpt><trkpt lat="42.4467033" lon="14.1446575"><ele>120.75</ele><time>2026-05-01T15:52:56.518Z</time></trkpt><trkpt lat="42.4468298" lon="14.1446184"><ele>121.0</ele><time>2026-05-01T15:52:57.516Z</time></trkpt><trkpt lat="42.4469501" lon="14.1445711"><ele>121.0</ele><time>2026-05-01T15:52:58.516Z</time></trkpt><trkpt lat="42.4470748" lon="14.1445473"><ele>121.0</ele><time>2026-05-01T15:52:59.514Z</time></trkpt><trkpt lat="42.447192" lon="14.144524"><ele>121.0</ele><time>2026-05-01T15:53:00.522Z</time></trkpt><trkpt lat="42.4473054" lon="14.144515"><ele>121.0</ele><time>2026-05-01T15:53:01.504Z</time></trkpt><trkpt lat="42.447408" lon="14.1445416"><ele>122.0</ele><time>2026-05-01T15:53:02.506Z</time></trkpt><trkpt lat="42.4474931" lon="14.1446265"><ele>123.0</ele><time>2026-05-01T15:53:03.511Z</time></trkpt><trkpt lat="42.4475597" lon="14.1447419"><ele>124.0</ele><time>2026-05-01T15:53:04.504Z</time></trkpt><trkpt lat="42.4475969" lon="14.1448814"><ele>125.0</ele><time>2026-05-01T15:53:05.497Z</time></trkpt><trkpt lat="42.4476098" lon="14.1450437"><ele>126.0</ele><time>2026-05-01T15:53:06.508Z</time></trkpt><trkpt lat="42.4475971" lon="14.1452115"><ele>126.19999999999999</ele><time>2026-05-01T15:53:07.509Z</time></trkpt><trkpt lat="42.4475915" lon="14.1453808"><ele>126.39999999999999</ele><time>2026-05-01T15:53:08.513Z</time></trkpt><trkpt lat="42.4475939" lon="14.1455371"><ele>126.6</ele><time>2026-05-01T15:53:09.505Z</time></trkpt><trkpt lat="42.447608" lon="14.1456824"><ele>126.8</ele><time>2026-05-01T15:53:10.512Z</time></trkpt><trkpt lat="42.447635" lon="14.1458103"><ele>127.0</ele><time>2026-05-01T15:53:11.507Z</time></trkpt><trkpt lat="42.4476905" lon="14.1459373"><ele>127.5</ele><time>2026-05-01T15:53:12.513Z</time></trkpt><trkpt lat="42.4477711" lon="14.1460568"><ele>128.0</ele><time>2026-05-01T15:53:13.516Z</time></trkpt><trkpt lat="42.4478653" lon="14.1461603"><ele>128.5</ele><time>2026-05-01T15:53:14.515Z</time></trkpt><trkpt lat="42.447968" lon="14.1462513"><ele>129.0</ele><time>2026-05-01T15:53:15.519Z</time></trkpt><trkpt lat="42.4480623" lon="14.1463161"><ele>131.6</ele><time>2026-05-01T15:53:16.514Z</time></trkpt><trkpt lat="42.4481672" lon="14.1463736"><ele>134.2</ele><time>2026-05-01T15:53:17.519Z</time></trkpt><trkpt lat="42.4482686" lon="14.1464094"><ele>136.79999999999998</ele><time>2026-05-01T15:53:18.519Z</time></trkpt><trkpt lat="42.4483711" lon="14.1464465"><ele>139.4</ele><time>2026-05-01T15:53:19.518Z</time></trkpt><trkpt lat="42.4484726" lon="14.1464696"><ele>142.0</ele><time>2026-05-01T15:53:20.52Z</time></trkpt><trkpt lat="42.4485747" lon="14.1464833"><ele>142.0</ele><time>2026-05-01T15:53:21.519Z</time></trkpt><trkpt lat="42.4486888" lon="14.1464802"><ele>142.0</ele><time>2026-05-01T15:53:22.52Z</time></trkpt><trkpt lat="42.4488041" lon="14.1464626"><ele>142.0</ele><time>2026-05-01T15:53:23.51Z</time></trkpt><trkpt lat="42.4489213" lon="14.1464155"><ele>142.0</ele><time>2026-05-01T15:53:24.507Z</time></trkpt><trkpt lat="42.4490313" lon="14.1463499"><ele>142.5</ele><time>2026-05-01T15:53:25.503Z</time></trkpt><trkpt lat="42.4491217" lon="14.146262"><ele>143.0</ele><time>2026-05-01T15:53:26.501Z</time></trkpt><trkpt lat="42.4491941" lon="14.1461493"><ele>143.5</ele><time>2026-05-01T15:53:27.511Z</time></trkpt><trkpt lat="42.4492606" lon="14.1460208"><ele>144.0</ele><time>2026-05-01T15:53:28.516Z</time></trkpt><trkpt lat="42.4493302" lon="14.1458871"><ele>144.0</ele><time>2026-05-01T15:53:29.517Z</time></trkpt><trkpt lat="42.4494001" lon="14.1457603"><ele>144.0</ele><time>2026-05-01T15:53:30.517Z</time></trkpt><trkpt lat="42.4494636" lon="14.1456314"><ele>144.0</ele><time>2026-05-01T15:53:31.516Z</time></trkpt><trkpt lat="42.4495241" lon="14.1455107"><ele>144.0</ele><time>2026-05-01T15:53:32.522Z</time></trkpt><trkpt lat="42.4495912" lon="14.1453841"><ele>143.5</ele><time>2026-05-01T15:53:33.522Z</time></trkpt><trkpt lat="42.4496579" lon="14.145248"><ele>143.0</ele><time>2026-05-01T15:53:34.52Z</time></trkpt><trkpt lat="42.4497239" lon="14.1450942"><ele>142.5</ele><time>2026-05-01T15:53:35.524Z</time></trkpt><trkpt lat="42.4497791" lon="14.1449412"><ele>142.0</ele><time>2026-05-01T15:53:36.52Z</time></trkpt><trkpt lat="42.4498337" lon="14.1447865"><ele>142.0</ele><time>2026-05-01T15:53:37.521Z</time></trkpt><trkpt lat="42.4498816" lon="14.1446349"><ele>142.0</ele><time>2026-05-01T15:53:38.521Z</time></trkpt><trkpt lat="42.4499164" lon="14.1444757"><ele>142.0</ele><time>2026-05-01T15:53:39.52Z</time></trkpt><trkpt lat="42.4499457" lon="14.1443204"><ele>142.0</ele><time>2026-05-01T15:53:40.517Z</time></trkpt><trkpt lat="42.4499593" lon="14.144146"><ele>141.0</ele><time>2026-05-01T15:53:41.515Z</time></trkpt><trkpt lat="42.4499702" lon="14.1439787"><ele>140.0</ele><time>2026-05-01T15:53:42.517Z</time></trkpt><trkpt lat="42.4499614" lon="14.1438097"><ele>139.0</ele><time>2026-05-01T15:53:43.524Z</time></trkpt><trkpt lat="42.4499454" lon="14.1436426"><ele>138.0</ele><time>2026-05-01T15:53:44.523Z</time></trkpt><trkpt lat="42.4499277" lon="14.1434834"><ele>138.0</ele><time>2026-05-01T15:53:45.527Z</time></trkpt><trkpt lat="42.4499172" lon="14.1433342"><ele>138.0</ele><time>2026-05-01T15:53:46.525Z</time></trkpt><trkpt lat="42.4499069" lon="14.1431738"><ele>138.0</ele><time>2026-05-01T15:53:47.519Z</time></trkpt><trkpt lat="42.4498836" lon="14.1430266"><ele>138.0</ele><time>2026-05-01T15:53:48.523Z</time></trkpt><trkpt lat="42.4498564" lon="14.1428808"><ele>137.75</ele><time>2026-05-01T15:53:49.521Z</time></trkpt><trkpt lat="42.4498146" lon="14.1427409"><ele>137.5</ele><time>2026-05-01T15:53:50.524Z</time></trkpt><trkpt lat="42.4497662" lon="14.1426038"><ele>137.25</ele><time>2026-05-01T15:53:51.524Z</time></trkpt><trkpt lat="42.4497139" lon="14.1424556"><ele>137.0</ele><time>2026-05-01T15:53:52.523Z</time></trkpt><trkpt lat="42.4496624" lon="14.1423126"><ele>139.2</ele><time>2026-05-01T15:53:53.529Z</time></trkpt><trkpt lat="42.4496102" lon="14.1421815"><ele>141.39999999999998</ele><time>2026-05-01T15:53:54.52Z</time></trkpt><trkpt lat="42.4495614" lon="14.1420772"><ele>143.60000000000002</ele><time>2026-05-01T15:53:55.512Z</time></trkpt><trkpt lat="42.4495378" lon="14.1419683"><ele>145.8</ele><time>2026-05-01T15:53:56.51Z</time></trkpt><trkpt lat="42.4495515" lon="14.1418496"><ele>148.0</ele><time>2026-05-01T15:53:57.506Z</time></trkpt><trkpt lat="42.4496004" lon="14.1417399"><ele>147.25</ele><time>2026-05-01T15:53:58.52Z</time></trkpt><trkpt lat="42.449687" lon="14.1416493"><ele>146.5</ele><time>2026-05-01T15:53:59.505Z</time></trkpt><trkpt lat="42.4497791" lon="14.1415734"><ele>145.75</ele><time>2026-05-01T15:54:00.503Z</time></trkpt><trkpt lat="42.4498848" lon="14.1415103"><ele>145.0</ele><time>2026-05-01T15:54:01.51Z</time></trkpt><trkpt lat="42.4499921" lon="14.1414429"><ele>145.0</ele><time>2026-05-01T15:54:02.512Z</time></trkpt><trkpt lat="42.4500965" lon="14.1413928"><ele>145.0</ele><time>2026-05-01T15:54:03.507Z</time></trkpt><trkpt lat="42.450205" lon="14.1413539"><ele>145.0</ele><time>2026-05-01T15:54:04.517Z</time></trkpt><trkpt lat="42.4503073" lon="14.1413091"><ele>145.0</ele><time>2026-05-01T15:54:05.514Z</time></trkpt><trkpt lat="42.4504029" lon="14.141268"><ele>145.0</ele><time>2026-05-01T15:54:06.521Z</time></trkpt><trkpt lat="42.4505025" lon="14.1412257"><ele>146.25</ele><time>2026-05-01T15:54:07.513Z</time></trkpt><trkpt lat="42.4506084" lon="14.1411909"><ele>147.5</ele><time>2026-05-01T15:54:08.514Z</time></trkpt><trkpt lat="42.4507205" lon="14.1411626"><ele>148.75</ele><time>2026-05-01T15:54:09.514Z</time></trkpt><trkpt lat="42.4508314" lon="14.1411324"><ele>150.0</ele><time>2026-05-01T15:54:10.509Z</time></trkpt><trkpt lat="42.4509444" lon="14.1411108"><ele>150.0</ele><time>2026-05-01T15:54:11.513Z</time></trkpt><trkpt lat="42.4510479" lon="14.1410854"><ele>150.0</ele><time>2026-05-01T15:54:12.533Z</time></trkpt><trkpt lat="42.4511436" lon="14.1410478"><ele>150.0</ele><time>2026-05-01T15:54:13.597Z</time></trkpt><trkpt lat="42.4512392" lon="14.1410106"><ele>150.0</ele><time>2026-05-01T15:54:14.595Z</time></trkpt><trkpt lat="42.4513259" lon="14.1409815"><ele>150.0</ele><time>2026-05-01T15:54:15.597Z</time></trkpt><trkpt lat="42.4514112" lon="14.1409562"><ele>150.4</ele><time>2026-05-01T15:54:16.597Z</time></trkpt><trkpt lat="42.4514993" lon="14.1409291"><ele>150.8</ele><time>2026-05-01T15:54:17.592Z</time></trkpt><trkpt lat="42.4515887" lon="14.1409025"><ele>151.2</ele><time>2026-05-01T15:54:18.59Z</time></trkpt><trkpt lat="42.4516818" lon="14.1408758"><ele>151.6</ele><time>2026-05-01T15:54:19.584Z</time></trkpt><trkpt lat="42.4517725" lon="14.140853"><ele>152.0</ele><time>2026-05-01T15:54:20.596Z</time></trkpt><trkpt lat="42.4518657" lon="14.1408353"><ele>152.0</ele><time>2026-05-01T15:54:21.597Z</time></trkpt><trkpt lat="42.4519606" lon="14.1408164"><ele>152.0</ele><time>2026-05-01T15:54:22.594Z</time></trkpt><trkpt lat="42.4520546" lon="14.1407961"><ele>152.0</ele><time>2026-05-01T15:54:23.597Z</time></trkpt><trkpt lat="42.4521552" lon="14.1407815"><ele>152.0</ele><time>2026-05-01T15:54:24.598Z</time></trkpt><trkpt lat="42.4522518" lon="14.140761"><ele>152.0</ele><time>2026-05-01T15:54:25.597Z</time></trkpt><trkpt lat="42.4523492" lon="14.1407414"><ele>152.0</ele><time>2026-05-01T15:54:26.595Z</time></trkpt><trkpt lat="42.4524393" lon="14.1407231"><ele>152.0</ele><time>2026-05-01T15:54:27.601Z</time></trkpt><trkpt lat="42.4525229" lon="14.1407059"><ele>152.0</ele><time>2026-05-01T15:54:28.597Z</time></trkpt><trkpt lat="42.4526007" lon="14.1406885"><ele>152.0</ele><time>2026-05-01T15:54:29.601Z</time></trkpt><trkpt lat="42.4526694" lon="14.1406718"><ele>152.0</ele><time>2026-05-01T15:54:30.597Z</time></trkpt><trkpt lat="42.4527381" lon="14.140654"><ele>152.0</ele><time>2026-05-01T15:54:31.597Z</time></trkpt><trkpt lat="42.4528011" lon="14.1406379"><ele>152.0</ele><time>2026-05-01T15:54:32.602Z</time></trkpt><trkpt lat="42.4529073" lon="14.1406043"><ele>152.0</ele><time>2026-05-01T15:54:34.601Z</time></trkpt><trkpt lat="42.4529978" lon="14.1405834"><ele>152.0</ele><time>2026-05-01T15:54:36.603Z</time></trkpt><trkpt lat="42.4531175" lon="14.1405485"><ele>152.0</ele><time>2026-05-01T15:54:38.611Z</time></trkpt><trkpt lat="42.4531907" lon="14.1405087"><ele>152.0</ele><time>2026-05-01T15:54:39.597Z</time></trkpt><trkpt lat="42.4532726" lon="14.1404583"><ele>155.39999999999998</ele><time>2026-05-01T15:54:40.596Z</time></trkpt><trkpt lat="42.4533722" lon="14.1403923"><ele>158.79999999999998</ele><time>2026-05-01T15:54:42.599Z</time></trkpt><trkpt lat="42.453474" lon="14.140328"><ele>162.2</ele><time>2026-05-01T15:54:44.597Z</time></trkpt><trkpt lat="42.4535341" lon="14.1402952"><ele>165.6</ele><time>2026-05-01T15:54:45.594Z</time></trkpt><trkpt lat="42.4536363" lon="14.1402389"><ele>169.0</ele><time>2026-05-01T15:54:47.6Z</time></trkpt><trkpt lat="42.4537198" lon="14.140191"><ele>169.5</ele><time>2026-05-01T15:54:49.601Z</time></trkpt><trkpt lat="42.4538268" lon="14.1401058"><ele>170.0</ele><time>2026-05-01T15:54:51.6Z</time></trkpt><trkpt lat="42.4538817" lon="14.1400463"><ele>170.5</ele><time>2026-05-01T15:54:52.596Z</time></trkpt><trkpt lat="42.453924" lon="14.1399774"><ele>171.0</ele><time>2026-05-01T15:54:53.595Z</time></trkpt><trkpt lat="42.453962" lon="14.1399046"><ele>171.5</ele><time>2026-05-01T15:54:54.603Z</time></trkpt><trkpt lat="42.4540011" lon="14.1398262"><ele>172.0</ele><time>2026-05-01T15:54:55.585Z</time></trkpt><trkpt lat="42.4540363" lon="14.1397541"><ele>172.33333333333334</ele><time>2026-05-01T15:54:56.586Z</time></trkpt><trkpt lat="42.4540752" lon="14.1396761"><ele>172.66666666666669</ele><time>2026-05-01T15:54:57.591Z</time></trkpt><trkpt lat="42.4541132" lon="14.1396019"><ele>173.0</ele><time>2026-05-01T15:54:58.584Z</time></trkpt><trkpt lat="42.4541508" lon="14.1395329"><ele>173.33333333333334</ele><time>2026-05-01T15:54:59.591Z</time></trkpt><trkpt lat="42.4542185" lon="14.1393913"><ele>173.66666666666666</ele><time>2026-05-01T15:55:01.59Z</time></trkpt><trkpt lat="42.454291" lon="14.1392604"><ele>174.0</ele><time>2026-05-01T15:55:03.604Z</time></trkpt><trkpt lat="42.454349" lon="14.1391548"><ele>173.79999999999998</ele><time>2026-05-01T15:55:05.596Z</time></trkpt><trkpt lat="42.4544182" lon="14.1390309"><ele>173.6</ele><time>2026-05-01T15:55:07.603Z</time></trkpt><trkpt lat="42.454491" lon="14.1388905"><ele>173.4</ele><time>2026-05-01T15:55:09.588Z</time></trkpt><trkpt lat="42.4545344" lon="14.1388153"><ele>173.2</ele><time>2026-05-01T15:55:10.589Z</time></trkpt><trkpt lat="42.4545765" lon="14.1387442"><ele>173.0</ele><time>2026-05-01T15:55:11.583Z</time></trkpt><trkpt lat="42.4546226" lon="14.1386709"><ele>173.0</ele><time>2026-05-01T15:55:12.582Z</time></trkpt><trkpt lat="42.4546687" lon="14.1385891"><ele>173.0</ele><time>2026-05-01T15:55:13.6Z</time></trkpt><trkpt lat="42.454718" lon="14.1385047"><ele>173.0</ele><time>2026-05-01T15:55:14.597Z</time></trkpt><trkpt lat="42.4547743" lon="14.1384139"><ele>173.0</ele><time>2026-05-01T15:55:15.609Z</time></trkpt><trkpt lat="42.4548355" lon="14.1383168"><ele>173.0</ele><time>2026-05-01T15:55:16.606Z</time></trkpt><trkpt lat="42.4548974" lon="14.1382123"><ele>173.0</ele><time>2026-05-01T15:55:17.589Z</time></trkpt><trkpt lat="42.4549555" lon="14.1381045"><ele>172.4</ele><time>2026-05-01T15:55:18.594Z</time></trkpt><trkpt lat="42.4550076" lon="14.137988"><ele>171.8</ele><time>2026-05-01T15:55:19.597Z</time></trkpt><trkpt lat="42.4550453" lon="14.1378668"><ele>171.2</ele><time>2026-05-01T15:55:20.611Z</time></trkpt><trkpt lat="42.4550634" lon="14.1377389"><ele>170.6</ele><time>2026-05-01T15:55:21.59Z</time></trkpt><trkpt lat="42.4550712" lon="14.137605"><ele>170.0</ele><time>2026-05-01T15:55:22.597Z</time></trkpt><trkpt lat="42.4550716" lon="14.1374696"><ele>170.6</ele><time>2026-05-01T15:55:23.592Z</time></trkpt><trkpt lat="42.4550715" lon="14.1373379"><ele>171.2</ele><time>2026-05-01T15:55:24.593Z</time></trkpt><trkpt lat="42.4550664" lon="14.137212"><ele>171.8</ele><time>2026-05-01T15:55:25.609Z</time></trkpt><trkpt lat="42.4550623" lon="14.1370881"><ele>172.4</ele><time>2026-05-01T15:55:26.613Z</time></trkpt><trkpt lat="42.4550616" lon="14.1369699"><ele>173.0</ele><time>2026-05-01T15:55:27.616Z</time></trkpt><trkpt lat="42.4550614" lon="14.1368595"><ele>173.0</ele><time>2026-05-01T15:55:28.612Z</time></trkpt><trkpt lat="42.4550607" lon="14.1367633"><ele>173.0</ele><time>2026-05-01T15:55:29.613Z</time></trkpt><trkpt lat="42.4550657" lon="14.1365971"><ele>173.0</ele><time>2026-05-01T15:55:31.611Z</time></trkpt><trkpt lat="42.4551064" lon="14.1364607"><ele>173.0</ele><time>2026-05-01T15:55:33.591Z</time></trkpt><trkpt lat="42.4552211" lon="14.1363916"><ele>173.0</ele><time>2026-05-01T15:55:35.587Z</time></trkpt><trkpt lat="42.4553029" lon="14.1363502"><ele>174.4</ele><time>2026-05-01T15:55:36.581Z</time></trkpt><trkpt lat="42.4553903" lon="14.1363081"><ele>175.8</ele><time>2026-05-01T15:55:37.58Z</time></trkpt><trkpt lat="42.4554794" lon="14.1362625"><ele>177.2</ele><time>2026-05-01T15:55:38.588Z</time></trkpt><trkpt lat="42.4555703" lon="14.1362104"><ele>178.6</ele><time>2026-05-01T15:55:39.593Z</time></trkpt><trkpt lat="42.4556654" lon="14.1361513"><ele>180.0</ele><time>2026-05-01T15:55:40.601Z</time></trkpt><trkpt lat="42.4557661" lon="14.1360867"><ele>180.0</ele><time>2026-05-01T15:55:41.605Z</time></trkpt><trkpt lat="42.455862" lon="14.1360155"><ele>180.0</ele><time>2026-05-01T15:55:42.601Z</time></trkpt><trkpt lat="42.4559531" lon="14.1359232"><ele>180.0</ele><time>2026-05-01T15:55:43.596Z</time></trkpt><trkpt lat="42.4560382" lon="14.1358058"><ele>180.0</ele><time>2026-05-01T15:55:44.597Z</time></trkpt><trkpt lat="42.4561136" lon="14.1356718"><ele>183.5</ele><time>2026-05-01T15:55:45.587Z</time></trkpt><trkpt lat="42.4561734" lon="14.1355251"><ele>187.0</ele><time>2026-05-01T15:55:46.589Z</time></trkpt><trkpt lat="42.4562272" lon="14.13537"><ele>190.5</ele><time>2026-05-01T15:55:47.586Z</time></trkpt><trkpt lat="42.456272" lon="14.1352199"><ele>194.0</ele><time>2026-05-01T15:55:48.593Z</time></trkpt><trkpt lat="42.4563179" lon="14.1350656"><ele>187.5</ele><time>2026-05-01T15:55:49.606Z</time></trkpt><trkpt lat="42.4563641" lon="14.1349053"><ele>181.0</ele><time>2026-05-01T15:55:50.605Z</time></trkpt><trkpt lat="42.4564124" lon="14.1347432"><ele>174.5</ele><time>2026-05-01T15:55:51.611Z</time></trkpt><trkpt lat="42.4564646" lon="14.1345814"><ele>168.0</ele><time>2026-05-01T15:55:52.608Z</time></trkpt><trkpt lat="42.4565179" lon="14.1344172"><ele>168.0</ele><time>2026-05-01T15:55:53.612Z</time></trkpt><trkpt lat="42.4565733" lon="14.1342507"><ele>168.0</ele><time>2026-05-01T15:55:54.611Z</time></trkpt><trkpt lat="42.4566311" lon="14.1340765"><ele>168.0</ele><time>2026-05-01T15:55:55.614Z</time></trkpt><trkpt lat="42.4566821" lon="14.1338978"><ele>168.0</ele><time>2026-05-01T15:55:56.612Z</time></trkpt><trkpt lat="42.4567253" lon="14.1337137"><ele>168.0</ele><time>2026-05-01T15:55:57.607Z</time></trkpt><trkpt lat="42.4567614" lon="14.1335219"><ele>168.0</ele><time>2026-05-01T15:55:58.606Z</time></trkpt><trkpt lat="42.4567865" lon="14.1333334"><ele>168.0</ele><time>2026-05-01T15:55:59.615Z</time></trkpt><trkpt lat="42.4568059" lon="14.1331566"><ele>168.0</ele><time>2026-05-01T15:56:00.595Z</time></trkpt><trkpt lat="42.4568258" lon="14.132994"><ele>167.5</ele><time>2026-05-01T15:56:01.598Z</time></trkpt><trkpt lat="42.4568492" lon="14.1328388"><ele>167.0</ele><time>2026-05-01T15:56:02.597Z</time></trkpt><trkpt lat="42.4568802" lon="14.1326841"><ele>166.5</ele><time>2026-05-01T15:56:03.587Z</time></trkpt><trkpt lat="42.4569256" lon="14.132523"><ele>166.0</ele><time>2026-05-01T15:56:04.604Z</time></trkpt><trkpt lat="42.4569798" lon="14.1323627"><ele>166.0</ele><time>2026-05-01T15:56:05.607Z</time></trkpt><trkpt lat="42.4570393" lon="14.132198"><ele>166.0</ele><time>2026-05-01T15:56:06.592Z</time></trkpt><trkpt lat="42.4571042" lon="14.1320326"><ele>166.0</ele><time>2026-05-01T15:56:07.587Z</time></trkpt><trkpt lat="42.4571726" lon="14.1318697"><ele>166.0</ele><time>2026-05-01T15:56:08.587Z</time></trkpt><trkpt lat="42.4572445" lon="14.1317038"><ele>164.5</ele><time>2026-05-01T15:56:09.596Z</time></trkpt><trkpt lat="42.4573167" lon="14.1315395"><ele>163.0</ele><time>2026-05-01T15:56:10.607Z</time></trkpt><trkpt lat="42.4573926" lon="14.1313714"><ele>161.5</ele><time>2026-05-01T15:56:11.606Z</time></trkpt><trkpt lat="42.4574687" lon="14.1312031"><ele>160.0</ele><time>2026-05-01T15:56:12.608Z</time></trkpt><trkpt lat="42.4575442" lon="14.1310281"><ele>160.0</ele><time>2026-05-01T15:56:13.612Z</time></trkpt><trkpt lat="42.4576216" lon="14.13086"><ele>160.0</ele><time>2026-05-01T15:56:14.605Z</time></trkpt><trkpt lat="42.4577096" lon="14.1307101"><ele>160.0</ele><time>2026-05-01T15:56:15.609Z</time></trkpt><trkpt lat="42.4578063" lon="14.1305735"><ele>160.0</ele><time>2026-05-01T15:56:16.607Z</time></trkpt><trkpt lat="42.4579188" lon="14.1304495"><ele>159.5</ele><time>2026-05-01T15:56:17.597Z</time></trkpt><trkpt lat="42.4580311" lon="14.1303371"><ele>159.0</ele><time>2026-05-01T15:56:18.605Z</time></trkpt><trkpt lat="42.458144" lon="14.1302159"><ele>158.5</ele><time>2026-05-01T15:56:19.599Z</time></trkpt><trkpt lat="42.4582529" lon="14.1300872"><ele>158.0</ele><time>2026-05-01T15:56:20.604Z</time></trkpt><trkpt lat="42.4583538" lon="14.1299487"><ele>158.5</ele><time>2026-05-01T15:56:21.615Z</time></trkpt><trkpt lat="42.4584427" lon="14.1297966"><ele>159.0</ele><time>2026-05-01T15:56:22.606Z</time></trkpt><trkpt lat="42.458527" lon="14.1296306"><ele>159.5</ele><time>2026-05-01T15:56:23.611Z</time></trkpt><trkpt lat="42.4586021" lon="14.1294525"><ele>160.0</ele><time>2026-05-01T15:56:24.594Z</time></trkpt><trkpt lat="42.4586646" lon="14.1292688"><ele>160.0</ele><time>2026-05-01T15:56:25.596Z</time></trkpt><trkpt lat="42.4587123" lon="14.129081"><ele>160.0</ele><time>2026-05-01T15:56:26.593Z</time></trkpt><trkpt lat="42.4587437" lon="14.1288937"><ele>160.0</ele><time>2026-05-01T15:56:27.598Z</time></trkpt><trkpt lat="42.4587478" lon="14.1287028"><ele>160.0</ele><time>2026-05-01T15:56:28.601Z</time></trkpt><trkpt lat="42.4587272" lon="14.1285137"><ele>161.0</ele><time>2026-05-01T15:56:29.602Z</time></trkpt><trkpt lat="42.4586835" lon="14.1283205"><ele>162.0</ele><time>2026-05-01T15:56:30.583Z</time></trkpt><trkpt lat="42.45862" lon="14.128119"><ele>163.0</ele><time>2026-05-01T15:56:31.589Z</time></trkpt><trkpt lat="42.4585473" lon="14.1279181"><ele>163.0</ele><time>2026-05-01T15:56:32.596Z</time></trkpt><trkpt lat="42.4584739" lon="14.1277251"><ele>163.0</ele><time>2026-05-01T15:56:33.583Z</time></trkpt><trkpt lat="42.4584038" lon="14.1275407"><ele>163.0</ele><time>2026-05-01T15:56:34.601Z</time></trkpt><trkpt lat="42.4583264" lon="14.1273804"><ele>160.66666666666669</ele><time>2026-05-01T15:56:35.599Z</time></trkpt><trkpt lat="42.4582299" lon="14.1272508"><ele>158.33333333333334</ele><time>2026-05-01T15:56:36.598Z</time></trkpt><trkpt lat="42.4581217" lon="14.1271489"><ele>156.0</ele><time>2026-05-01T15:56:37.604Z</time></trkpt><trkpt lat="42.4579006" lon="14.1269325"><ele>156.0</ele><time>2026-05-01T15:56:39.493Z</time></trkpt><trkpt lat="42.45781" lon="14.126773"><ele>156.0</ele><time>2026-05-01T15:56:40.501Z</time></trkpt><trkpt lat="42.4577309" lon="14.1266029"><ele>156.0</ele><time>2026-05-01T15:56:41.508Z</time></trkpt><trkpt lat="42.4576653" lon="14.1264497"><ele>156.0</ele><time>2026-05-01T15:56:42.514Z</time></trkpt><trkpt lat="42.4575921" lon="14.126301"><ele>158.2</ele><time>2026-05-01T15:56:43.515Z</time></trkpt><trkpt lat="42.4575189" lon="14.1261547"><ele>160.39999999999998</ele><time>2026-05-01T15:56:44.513Z</time></trkpt><trkpt lat="42.4574542" lon="14.1260449"><ele>162.6</ele><time>2026-05-01T15:56:45.511Z</time></trkpt><trkpt lat="42.4573952" lon="14.1259232"><ele>164.79999999999998</ele><time>2026-05-01T15:56:46.512Z</time></trkpt><trkpt lat="42.4573455" lon="14.1258113"><ele>167.0</ele><time>2026-05-01T15:56:47.505Z</time></trkpt><trkpt lat="42.4573156" lon="14.1257052"><ele>168.39999999999998</ele><time>2026-05-01T15:56:48.516Z</time></trkpt><trkpt lat="42.4572916" lon="14.1255837"><ele>169.79999999999998</ele><time>2026-05-01T15:56:49.522Z</time></trkpt><trkpt lat="42.4572695" lon="14.1254523"><ele>171.2</ele><time>2026-05-01T15:56:50.523Z</time></trkpt><trkpt lat="42.4572456" lon="14.1253324"><ele>172.6</ele><time>2026-05-01T15:56:51.522Z</time></trkpt><trkpt lat="42.4572269" lon="14.125201"><ele>174.0</ele><time>2026-05-01T15:56:52.518Z</time></trkpt><trkpt lat="42.4572215" lon="14.1250837"><ele>174.0</ele><time>2026-05-01T15:56:53.524Z</time></trkpt><trkpt lat="42.4572216" lon="14.1249743"><ele>174.0</ele><time>2026-05-01T15:56:54.527Z</time></trkpt><trkpt lat="42.4572293" lon="14.1248453"><ele>174.0</ele><time>2026-05-01T15:56:55.522Z</time></trkpt><trkpt lat="42.4572463" lon="14.1247075"><ele>174.0</ele><time>2026-05-01T15:56:56.523Z</time></trkpt><trkpt lat="42.4572599" lon="14.1245599"><ele>174.0</ele><time>2026-05-01T15:56:57.525Z</time></trkpt><trkpt lat="42.4572761" lon="14.124404"><ele>173.25</ele><time>2026-05-01T15:56:58.527Z</time></trkpt><trkpt lat="42.4573047" lon="14.1242573"><ele>172.5</ele><time>2026-05-01T15:56:59.534Z</time></trkpt><trkpt lat="42.4573395" lon="14.1240959"><ele>171.75</ele><time>2026-05-01T15:57:00.52Z</time></trkpt><trkpt lat="42.4573815" lon="14.1239416"><ele>171.0</ele><time>2026-05-01T15:57:01.516Z</time></trkpt><trkpt lat="42.4574298" lon="14.1237698"><ele>169.25</ele><time>2026-05-01T15:57:02.523Z</time></trkpt><trkpt lat="42.4574881" lon="14.123601"><ele>167.5</ele><time>2026-05-01T15:57:03.518Z</time></trkpt><trkpt lat="42.4575428" lon="14.1234283"><ele>165.75</ele><time>2026-05-01T15:57:04.536Z</time></trkpt><trkpt lat="42.457599" lon="14.1232662"><ele>164.0</ele><time>2026-05-01T15:57:05.532Z</time></trkpt><trkpt lat="42.4576591" lon="14.1231015"><ele>163.5</ele><time>2026-05-01T15:57:06.534Z</time></trkpt><trkpt lat="42.4577065" lon="14.1229341"><ele>163.0</ele><time>2026-05-01T15:57:07.534Z</time></trkpt><trkpt lat="42.4577659" lon="14.1227745"><ele>162.5</ele><time>2026-05-01T15:57:08.537Z</time></trkpt><trkpt lat="42.4578169" lon="14.1225995"><ele>162.0</ele><time>2026-05-01T15:57:09.54Z</time></trkpt><trkpt lat="42.4578706" lon="14.1224425"><ele>161.5</ele><time>2026-05-01T15:57:10.535Z</time></trkpt><trkpt lat="42.4579309" lon="14.1222986"><ele>161.0</ele><time>2026-05-01T15:57:11.541Z</time></trkpt><trkpt lat="42.4579954" lon="14.1221525"><ele>160.5</ele><time>2026-05-01T15:57:12.54Z</time></trkpt><trkpt lat="42.4580724" lon="14.1220108"><ele>160.0</ele><time>2026-05-01T15:57:13.529Z</time></trkpt><trkpt lat="42.4581628" lon="14.1218807"><ele>160.0</ele><time>2026-05-01T15:57:14.527Z</time></trkpt><trkpt lat="42.4582641" lon="14.1217572"><ele>160.0</ele><time>2026-05-01T15:57:15.526Z</time></trkpt><trkpt lat="42.4583778" lon="14.121642"><ele>160.0</ele><time>2026-05-01T15:57:16.538Z</time></trkpt><trkpt lat="42.4584838" lon="14.1215204"><ele>160.0</ele><time>2026-05-01T15:57:17.539Z</time></trkpt><trkpt lat="42.4585966" lon="14.12141"><ele>160.0</ele><time>2026-05-01T15:57:18.523Z</time></trkpt><trkpt lat="42.4587086" lon="14.1213011"><ele>160.0</ele><time>2026-05-01T15:57:19.526Z</time></trkpt><trkpt lat="42.4588192" lon="14.121186"><ele>160.0</ele><time>2026-05-01T15:57:20.54Z</time></trkpt><trkpt lat="42.4589241" lon="14.1210678"><ele>160.0</ele><time>2026-05-01T15:57:21.542Z</time></trkpt><trkpt lat="42.4590279" lon="14.120952"><ele>160.0</ele><time>2026-05-01T15:57:22.533Z</time></trkpt><trkpt lat="42.4591353" lon="14.1208449"><ele>160.0</ele><time>2026-05-01T15:57:23.54Z</time></trkpt><trkpt lat="42.459237" lon="14.1207336"><ele>160.0</ele><time>2026-05-01T15:57:24.533Z</time></trkpt><trkpt lat="42.4593377" lon="14.1206238"><ele>160.0</ele><time>2026-05-01T15:57:25.539Z</time></trkpt><trkpt lat="42.4594385" lon="14.1205195"><ele>160.0</ele><time>2026-05-01T15:57:26.529Z</time></trkpt><trkpt lat="42.459548" lon="14.1204159"><ele>160.0</ele><time>2026-05-01T15:57:27.533Z</time></trkpt><trkpt lat="42.4596437" lon="14.1203173"><ele>160.0</ele><time>2026-05-01T15:57:28.536Z</time></trkpt><trkpt lat="42.4597332" lon="14.1202354"><ele>160.0</ele><time>2026-05-01T15:57:29.532Z</time></trkpt><trkpt lat="42.4598126" lon="14.1201618"><ele>160.0</ele><time>2026-05-01T15:57:30.535Z</time></trkpt><trkpt lat="42.4598845" lon="14.1201026"><ele>160.0</ele><time>2026-05-01T15:57:31.527Z</time></trkpt><trkpt lat="42.4599687" lon="14.1200739"><ele>160.0</ele><time>2026-05-01T15:57:32.528Z</time></trkpt><trkpt lat="42.4600634" lon="14.120047"><ele>160.0</ele><time>2026-05-01T15:57:33.534Z</time></trkpt><trkpt lat="42.4601684" lon="14.1200234"><ele>160.0</ele><time>2026-05-01T15:57:34.531Z</time></trkpt><trkpt lat="42.460255" lon="14.1200041"><ele>160.0</ele><time>2026-05-01T15:57:35.53Z</time></trkpt><trkpt lat="42.4603397" lon="14.1200152"><ele>160.0</ele><time>2026-05-01T15:57:36.514Z</time></trkpt><trkpt lat="42.4604318" lon="14.1200437"><ele>160.0</ele><time>2026-05-01T15:57:37.513Z</time></trkpt><trkpt lat="42.4605349" lon="14.120096"><ele>160.0</ele><time>2026-05-01T15:57:38.524Z</time></trkpt><trkpt lat="42.460654" lon="14.1201584"><ele>160.0</ele><time>2026-05-01T15:57:39.523Z</time></trkpt><trkpt lat="42.4607822" lon="14.1202197"><ele>160.5</ele><time>2026-05-01T15:57:40.526Z</time></trkpt><trkpt lat="42.4609194" lon="14.1202676"><ele>161.0</ele><time>2026-05-01T15:57:41.524Z</time></trkpt><trkpt lat="42.4610621" lon="14.1203101"><ele>161.5</ele><time>2026-05-01T15:57:42.527Z</time></trkpt><trkpt lat="42.4611887" lon="14.1203386"><ele>162.0</ele><time>2026-05-01T15:57:43.519Z</time></trkpt><trkpt lat="42.4613042" lon="14.1203697"><ele>163.75</ele><time>2026-05-01T15:57:44.512Z</time></trkpt><trkpt lat="42.461429" lon="14.1204215"><ele>165.5</ele><time>2026-05-01T15:57:45.515Z</time></trkpt><trkpt lat="42.4615408" lon="14.1205245"><ele>167.25</ele><time>2026-05-01T15:57:46.52Z</time></trkpt><trkpt lat="42.4616474" lon="14.1206136"><ele>169.0</ele><time>2026-05-01T15:57:47.521Z</time></trkpt><trkpt lat="42.4617596" lon="14.1206911"><ele>168.25</ele><time>2026-05-01T15:57:48.528Z</time></trkpt><trkpt lat="42.4618691" lon="14.1207661"><ele>167.5</ele><time>2026-05-01T15:57:49.524Z</time></trkpt><trkpt lat="42.4619745" lon="14.1208476"><ele>166.75</ele><time>2026-05-01T15:57:50.522Z</time></trkpt><trkpt lat="42.4620849" lon="14.1209303"><ele>166.0</ele><time>2026-05-01T15:57:51.519Z</time></trkpt><trkpt lat="42.4621875" lon="14.1210111"><ele>166.0</ele><time>2026-05-01T15:57:52.524Z</time></trkpt><trkpt lat="42.462299" lon="14.1211044"><ele>166.0</ele><time>2026-05-01T15:57:53.55Z</time></trkpt><trkpt lat="42.4624034" lon="14.1211894"><ele>166.0</ele><time>2026-05-01T15:57:54.53Z</time></trkpt><trkpt lat="42.4625151" lon="14.1212809"><ele>166.0</ele><time>2026-05-01T15:57:55.521Z</time></trkpt><trkpt lat="42.4626268" lon="14.1213647"><ele>166.0</ele><time>2026-05-01T15:57:56.526Z</time></trkpt><trkpt lat="42.4627415" lon="14.1214499"><ele>166.0</ele><time>2026-05-01T15:57:57.53Z</time></trkpt><trkpt lat="42.4628591" lon="14.1215355"><ele>166.0</ele><time>2026-05-01T15:57:58.527Z</time></trkpt><trkpt lat="42.4629784" lon="14.1216265"><ele>166.0</ele><time>2026-05-01T15:57:59.527Z</time></trkpt><trkpt lat="42.4631006" lon="14.1217167"><ele>163.25</ele><time>2026-05-01T15:58:00.526Z</time></trkpt><trkpt lat="42.4632167" lon="14.121793"><ele>160.5</ele><time>2026-05-01T15:58:01.528Z</time></trkpt><trkpt lat="42.4633475" lon="14.1218743"><ele>157.75</ele><time>2026-05-01T15:58:02.526Z</time></trkpt><trkpt lat="42.4634432" lon="14.1219389"><ele>155.0</ele><time>2026-05-01T15:58:03.525Z</time></trkpt><trkpt lat="42.4635424" lon="14.122028"><ele>155.0</ele><time>2026-05-01T15:58:04.526Z</time></trkpt><trkpt lat="42.4636342" lon="14.1220983"><ele>155.0</ele><time>2026-05-01T15:58:05.529Z</time></trkpt><trkpt lat="42.4637279" lon="14.1221757"><ele>155.0</ele><time>2026-05-01T15:58:06.529Z</time></trkpt><trkpt lat="42.4638192" lon="14.1222701"><ele>155.0</ele><time>2026-05-01T15:58:07.523Z</time></trkpt><trkpt lat="42.4639035" lon="14.1223791"><ele>155.0</ele><time>2026-05-01T15:58:08.527Z</time></trkpt><trkpt lat="42.4639934" lon="14.1225159"><ele>153.5</ele><time>2026-05-01T15:58:09.526Z</time></trkpt><trkpt lat="42.4640752" lon="14.122658"><ele>152.0</ele><time>2026-05-01T15:58:10.532Z</time></trkpt><trkpt lat="42.4641467" lon="14.1228132"><ele>150.5</ele><time>2026-05-01T15:58:11.537Z</time></trkpt><trkpt lat="42.464218" lon="14.1229851"><ele>149.0</ele><time>2026-05-01T15:58:12.526Z</time></trkpt><trkpt lat="42.4642821" lon="14.1231474"><ele>149.0</ele><time>2026-05-01T15:58:13.521Z</time></trkpt><trkpt lat="42.464329" lon="14.1233027"><ele>149.0</ele><time>2026-05-01T15:58:14.523Z</time></trkpt><trkpt lat="42.4643735" lon="14.123483"><ele>149.0</ele><time>2026-05-01T15:58:15.526Z</time></trkpt><trkpt lat="42.4644115" lon="14.1236616"><ele>149.0</ele><time>2026-05-01T15:58:16.526Z</time></trkpt><trkpt lat="42.4644567" lon="14.1238329"><ele>149.0</ele><time>2026-05-01T15:58:17.525Z</time></trkpt><trkpt lat="42.4645181" lon="14.123989"><ele>149.0</ele><time>2026-05-01T15:58:18.534Z</time></trkpt><trkpt lat="42.4645821" lon="14.1241255"><ele>149.0</ele><time>2026-05-01T15:58:19.528Z</time></trkpt><trkpt lat="42.4646703" lon="14.1242613"><ele>149.0</ele><time>2026-05-01T15:58:20.53Z</time></trkpt><trkpt lat="42.4647634" lon="14.1243916"><ele>148.75</ele><time>2026-05-01T15:58:21.535Z</time></trkpt><trkpt lat="42.4648626" lon="14.1245164"><ele>148.5</ele><time>2026-05-01T15:58:22.53Z</time></trkpt><trkpt lat="42.4649695" lon="14.1246444"><ele>148.25</ele><time>2026-05-01T15:58:23.537Z</time></trkpt><trkpt lat="42.465062" lon="14.1247822"><ele>148.0</ele><time>2026-05-01T15:58:24.53Z</time></trkpt><trkpt lat="42.4651389" lon="14.1249389"><ele>148.0</ele><time>2026-05-01T15:58:25.525Z</time></trkpt><trkpt lat="42.4652202" lon="14.1250952"><ele>148.0</ele><time>2026-05-01T15:58:26.526Z</time></trkpt><trkpt lat="42.4652994" lon="14.1252564"><ele>148.0</ele><time>2026-05-01T15:58:27.529Z</time></trkpt><trkpt lat="42.4653821" lon="14.1253973"><ele>148.0</ele><time>2026-05-01T15:58:28.541Z</time></trkpt><trkpt lat="42.4654965" lon="14.1255348"><ele>146.75</ele><time>2026-05-01T15:58:29.546Z</time></trkpt><trkpt lat="42.4656038" lon="14.1256617"><ele>145.5</ele><time>2026-05-01T15:58:30.539Z</time></trkpt><trkpt lat="42.4657002" lon="14.1258"><ele>144.25</ele><time>2026-05-01T15:58:31.538Z</time></trkpt><trkpt lat="42.4658044" lon="14.1259225"><ele>143.0</ele><time>2026-05-01T15:58:32.537Z</time></trkpt><trkpt lat="42.4659309" lon="14.1260209"><ele>143.0</ele><time>2026-05-01T15:58:33.533Z</time></trkpt><trkpt lat="42.4660575" lon="14.1260968"><ele>143.0</ele><time>2026-05-01T15:58:34.532Z</time></trkpt><trkpt lat="42.4661981" lon="14.1261372"><ele>143.0</ele><time>2026-05-01T15:58:35.522Z</time></trkpt><trkpt lat="42.4663322" lon="14.1261563"><ele>143.0</ele><time>2026-05-01T15:58:36.532Z</time></trkpt><trkpt lat="42.4664688" lon="14.1261685"><ele>140.75</ele><time>2026-05-01T15:58:37.531Z</time></trkpt><trkpt lat="42.4665913" lon="14.1261974"><ele>138.5</ele><time>2026-05-01T15:58:38.527Z</time></trkpt><trkpt lat="42.4667072" lon="14.1262421"><ele>136.25</ele><time>2026-05-01T15:58:39.518Z</time></trkpt><trkpt lat="42.4668098" lon="14.1263514"><ele>134.0</ele><time>2026-05-01T15:58:40.525Z</time></trkpt><trkpt lat="42.4668742" lon="14.1264892"><ele>134.25</ele><time>2026-05-01T15:58:41.512Z</time></trkpt><trkpt lat="42.4669444" lon="14.1266588"><ele>134.5</ele><time>2026-05-01T15:58:42.517Z</time></trkpt><trkpt lat="42.4670062" lon="14.1268284"><ele>134.75</ele><time>2026-05-01T15:58:43.522Z</time></trkpt><trkpt lat="42.4670859" lon="14.1269914"><ele>135.0</ele><time>2026-05-01T15:58:44.512Z</time></trkpt><trkpt lat="42.4671601" lon="14.12715"><ele>135.0</ele><time>2026-05-01T15:58:45.516Z</time></trkpt><trkpt lat="42.4672506" lon="14.1273291"><ele>135.0</ele><time>2026-05-01T15:58:46.521Z</time></trkpt><trkpt lat="42.4673336" lon="14.1275121"><ele>135.0</ele><time>2026-05-01T15:58:47.524Z</time></trkpt><trkpt lat="42.4674043" lon="14.1276932"><ele>137.5</ele><time>2026-05-01T15:58:48.515Z</time></trkpt><trkpt lat="42.4674712" lon="14.1278745"><ele>140.0</ele><time>2026-05-01T15:58:49.513Z</time></trkpt><trkpt lat="42.4675306" lon="14.1280541"><ele>142.5</ele><time>2026-05-01T15:58:50.523Z</time></trkpt><trkpt lat="42.4675888" lon="14.1282271"><ele>145.0</ele><time>2026-05-01T15:58:51.523Z</time></trkpt><trkpt lat="42.4676565" lon="14.1283932"><ele>145.5</ele><time>2026-05-01T15:58:52.537Z</time></trkpt><trkpt lat="42.4677202" lon="14.1285306"><ele>146.0</ele><time>2026-05-01T15:58:53.532Z</time></trkpt><trkpt lat="42.4677951" lon="14.1286408"><ele>146.5</ele><time>2026-05-01T15:58:54.525Z</time></trkpt><trkpt lat="42.4679014" lon="14.1287372"><ele>147.0</ele><time>2026-05-01T15:58:55.516Z</time></trkpt><trkpt lat="42.4680236" lon="14.1288124"><ele>149.5</ele><time>2026-05-01T15:58:56.514Z</time></trkpt><trkpt lat="42.4681493" lon="14.1288611"><ele>152.0</ele><time>2026-05-01T15:58:57.521Z</time></trkpt><trkpt lat="42.4682841" lon="14.128896"><ele>154.5</ele><time>2026-05-01T15:58:58.527Z</time></trkpt><trkpt lat="42.4684327" lon="14.1289398"><ele>157.0</ele><time>2026-05-01T15:58:59.561Z</time></trkpt><trkpt lat="42.4685828" lon="14.1289944"><ele>157.0</ele><time>2026-05-01T15:59:00.623Z</time></trkpt><trkpt lat="42.4687293" lon="14.1290507"><ele>157.0</ele><time>2026-05-01T15:59:01.623Z</time></trkpt><trkpt lat="42.4688709" lon="14.1291022"><ele>157.0</ele><time>2026-05-01T15:59:02.629Z</time></trkpt><trkpt lat="42.4690092" lon="14.1291515"><ele>157.0</ele><time>2026-05-01T15:59:03.626Z</time></trkpt><trkpt lat="42.4691364" lon="14.1292096"><ele>155.5</ele><time>2026-05-01T15:59:04.62Z</time></trkpt><trkpt lat="42.4692641" lon="14.1292833"><ele>154.0</ele><time>2026-05-01T15:59:05.619Z</time></trkpt><trkpt lat="42.4693883" lon="14.1293751"><ele>152.5</ele><time>2026-05-01T15:59:06.613Z</time></trkpt><trkpt lat="42.469505" lon="14.1294927"><ele>151.0</ele><time>2026-05-01T15:59:07.6Z</time></trkpt><trkpt lat="42.4696143" lon="14.1296066"><ele>151.0</ele><time>2026-05-01T15:59:08.602Z</time></trkpt><trkpt lat="42.4697203" lon="14.1297209"><ele>151.0</ele><time>2026-05-01T15:59:09.598Z</time></trkpt><trkpt lat="42.4698238" lon="14.1298412"><ele>151.0</ele><time>2026-05-01T15:59:10.601Z</time></trkpt><trkpt lat="42.4699289" lon="14.1299696"><ele>151.0</ele><time>2026-05-01T15:59:11.619Z</time></trkpt><trkpt lat="42.4700402" lon="14.1301086"><ele>150.75</ele><time>2026-05-01T15:59:12.616Z</time></trkpt><trkpt lat="42.4701499" lon="14.1302425"><ele>150.5</ele><time>2026-05-01T15:59:13.617Z</time></trkpt><trkpt lat="42.4702597" lon="14.1303715"><ele>150.25</ele><time>2026-05-01T15:59:14.617Z</time></trkpt><trkpt lat="42.47037" lon="14.1305057"><ele>150.0</ele><time>2026-05-01T15:59:15.623Z</time></trkpt><trkpt lat="42.4704806" lon="14.1306396"><ele>148.0</ele><time>2026-05-01T15:59:16.622Z</time></trkpt><trkpt lat="42.4705927" lon="14.1307764"><ele>146.0</ele><time>2026-05-01T15:59:17.623Z</time></trkpt><trkpt lat="42.4707083" lon="14.130919"><ele>144.0</ele><time>2026-05-01T15:59:18.621Z</time></trkpt><trkpt lat="42.4708258" lon="14.1310643"><ele>144.0</ele><time>2026-05-01T15:59:19.615Z</time></trkpt><trkpt lat="42.4709395" lon="14.1312072"><ele>144.0</ele><time>2026-05-01T15:59:20.62Z</time></trkpt><trkpt lat="42.4710461" lon="14.1313381"><ele>144.0</ele><time>2026-05-01T15:59:21.612Z</time></trkpt><trkpt lat="42.4711538" lon="14.1314754"><ele>144.0</ele><time>2026-05-01T15:59:22.615Z</time></trkpt><trkpt lat="42.4712603" lon="14.1316141"><ele>143.5</ele><time>2026-05-01T15:59:23.62Z</time></trkpt><trkpt lat="42.4713638" lon="14.131744"><ele>143.0</ele><time>2026-05-01T15:59:24.609Z</time></trkpt><trkpt lat="42.4714473" lon="14.13187"><ele>142.5</ele><time>2026-05-01T15:59:25.595Z</time></trkpt><trkpt lat="42.471523" lon="14.1320223"><ele>142.0</ele><time>2026-05-01T15:59:26.516Z</time></trkpt><trkpt lat="42.4715426" lon="14.1322031"><ele>142.0</ele><time>2026-05-01T15:59:27.517Z</time></trkpt><trkpt lat="42.4715521" lon="14.1323862"><ele>142.0</ele><time>2026-05-01T15:59:28.52Z</time></trkpt><trkpt lat="42.4715523" lon="14.1325637"><ele>142.0</ele><time>2026-05-01T15:59:29.527Z</time></trkpt><trkpt lat="42.4715675" lon="14.1327475"><ele>142.0</ele><time>2026-05-01T15:59:30.527Z</time></trkpt><trkpt lat="42.4715987" lon="14.1329243"><ele>143.5</ele><time>2026-05-01T15:59:31.519Z</time></trkpt><trkpt lat="42.4716666" lon="14.133089"><ele>145.0</ele><time>2026-05-01T15:59:32.529Z</time></trkpt><trkpt lat="42.4717393" lon="14.133219"><ele>146.5</ele><time>2026-05-01T15:59:33.53Z</time></trkpt><trkpt lat="42.4718349" lon="14.1333308"><ele>148.0</ele><time>2026-05-01T15:59:34.533Z</time></trkpt><trkpt lat="42.4719406" lon="14.1333789"><ele>148.0</ele><time>2026-05-01T15:59:35.533Z</time></trkpt><trkpt lat="42.4720623" lon="14.1333861"><ele>148.0</ele><time>2026-05-01T15:59:36.517Z</time></trkpt><trkpt lat="42.4721953" lon="14.1333799"><ele>148.0</ele><time>2026-05-01T15:59:37.529Z</time></trkpt><trkpt lat="42.4723254" lon="14.1333698"><ele>148.0</ele><time>2026-05-01T15:59:38.532Z</time></trkpt><trkpt lat="42.4724557" lon="14.1334008"><ele>150.5</ele><time>2026-05-01T15:59:39.521Z</time></trkpt><trkpt lat="42.472581" lon="14.1334711"><ele>153.0</ele><time>2026-05-01T15:59:40.538Z</time></trkpt><trkpt lat="42.4726886" lon="14.1336023"><ele>155.5</ele><time>2026-05-01T15:59:41.53Z</time></trkpt><trkpt lat="42.4727868" lon="14.1337384"><ele>158.0</ele><time>2026-05-01T15:59:42.522Z</time></trkpt><trkpt lat="42.472911" lon="14.1338756"><ele>160.0</ele><time>2026-05-01T15:59:43.518Z</time></trkpt><trkpt lat="42.4730556" lon="14.1339788"><ele>162.0</ele><time>2026-05-01T15:59:44.52Z</time></trkpt><trkpt lat="42.4731749" lon="14.1340609"><ele>164.0</ele><time>2026-05-01T15:59:45.521Z</time></trkpt><trkpt lat="42.4733039" lon="14.1341591"><ele>166.0</ele><time>2026-05-01T15:59:46.52Z</time></trkpt><trkpt lat="42.4734196" lon="14.1342838"><ele>166.0</ele><time>2026-05-01T15:59:47.509Z</time></trkpt><trkpt lat="42.4735042" lon="14.1344272"><ele>166.0</ele><time>2026-05-01T15:59:48.515Z</time></trkpt><trkpt lat="42.473565" lon="14.1345739"><ele>166.0</ele><time>2026-05-01T15:59:49.512Z</time></trkpt><trkpt lat="42.473604" lon="14.1347434"><ele>166.0</ele><time>2026-05-01T15:59:50.521Z</time></trkpt><trkpt lat="42.4736066" lon="14.1349139"><ele>164.0</ele><time>2026-05-01T15:59:51.523Z</time></trkpt><trkpt lat="42.4736399" lon="14.1350938"><ele>162.0</ele><time>2026-05-01T15:59:52.522Z</time></trkpt><trkpt lat="42.473677" lon="14.1352457"><ele>160.0</ele><time>2026-05-01T15:59:53.529Z</time></trkpt><trkpt lat="42.4737353" lon="14.1353841"><ele>158.0</ele><time>2026-05-01T15:59:54.522Z</time></trkpt><trkpt lat="42.4738138" lon="14.135491"><ele>160.0</ele><time>2026-05-01T15:59:55.517Z</time></trkpt><trkpt lat="42.4739139" lon="14.1355756"><ele>162.0</ele><time>2026-05-01T15:59:56.521Z</time></trkpt><trkpt lat="42.4740337" lon="14.1356369"><ele>164.0</ele><time>2026-05-01T15:59:57.504Z</time></trkpt><trkpt lat="42.4741638" lon="14.1356881"><ele>166.0</ele><time>2026-05-01T15:59:58.516Z</time></trkpt><trkpt lat="42.4743037" lon="14.135734"><ele>166.0</ele><time>2026-05-01T15:59:59.534Z</time></trkpt><trkpt lat="42.4744261" lon="14.1358253"><ele>166.0</ele><time>2026-05-01T16:00:00.516Z</time></trkpt><trkpt lat="42.4745435" lon="14.1359554"><ele>166.0</ele><time>2026-05-01T16:00:01.522Z</time></trkpt><trkpt lat="42.4746633" lon="14.1360646"><ele>166.0</ele><time>2026-05-01T16:00:02.519Z</time></trkpt><trkpt lat="42.4747764" lon="14.136128"><ele>170.25</ele><time>2026-05-01T16:00:03.519Z</time></trkpt><trkpt lat="42.4749046" lon="14.1361715"><ele>174.5</ele><time>2026-05-01T16:00:04.518Z</time></trkpt><trkpt lat="42.475008" lon="14.1362025"><ele>178.75</ele><time>2026-05-01T16:00:05.517Z</time></trkpt><trkpt lat="42.4751041" lon="14.1362331"><ele>183.0</ele><time>2026-05-01T16:00:06.52Z</time></trkpt><trkpt lat="42.4751954" lon="14.1363296"><ele>183.0</ele><time>2026-05-01T16:00:07.518Z</time></trkpt><trkpt lat="42.4752952" lon="14.1364531"><ele>183.0</ele><time>2026-05-01T16:00:08.523Z</time></trkpt><trkpt lat="42.4753652" lon="14.1366007"><ele>183.0</ele><time>2026-05-01T16:00:09.52Z</time></trkpt><trkpt lat="42.4754611" lon="14.1367293"><ele>183.0</ele><time>2026-05-01T16:00:10.512Z</time></trkpt><trkpt lat="42.4755864" lon="14.1368405"><ele>183.0</ele><time>2026-05-01T16:00:11.517Z</time></trkpt><trkpt lat="42.4757287" lon="14.1369331"><ele>183.0</ele><time>2026-05-01T16:00:12.515Z</time></trkpt><trkpt lat="42.4758777" lon="14.1370097"><ele>183.0</ele><time>2026-05-01T16:00:13.521Z</time></trkpt><trkpt lat="42.4760254" lon="14.1371029"><ele>183.0</ele><time>2026-05-01T16:00:14.521Z</time></trkpt><trkpt lat="42.4761555" lon="14.1371989"><ele>183.0</ele><time>2026-05-01T16:00:15.525Z</time></trkpt><trkpt lat="42.4763096" lon="14.1372876"><ele>183.0</ele><time>2026-05-01T16:00:16.519Z</time></trkpt><trkpt lat="42.476462" lon="14.1373635"><ele>182.0</ele><time>2026-05-01T16:00:17.512Z</time></trkpt><trkpt lat="42.4765942" lon="14.1373997"><ele>181.0</ele><time>2026-05-01T16:00:18.517Z</time></trkpt><trkpt lat="42.4767327" lon="14.1374457"><ele>180.0</ele><time>2026-05-01T16:00:19.511Z</time></trkpt><trkpt lat="42.4768686" lon="14.1374648"><ele>179.0</ele><time>2026-05-01T16:00:20.516Z</time></trkpt><trkpt lat="42.4769938" lon="14.1374773"><ele>179.75</ele><time>2026-05-01T16:00:21.517Z</time></trkpt><trkpt lat="42.4771198" lon="14.1374705"><ele>180.5</ele><time>2026-05-01T16:00:22.516Z</time></trkpt><trkpt lat="42.4772602" lon="14.1374666"><ele>181.25</ele><time>2026-05-01T16:00:23.516Z</time></trkpt><trkpt lat="42.4774139" lon="14.137448"><ele>182.0</ele><time>2026-05-01T16:00:24.514Z</time></trkpt><trkpt lat="42.4775619" lon="14.1374033"><ele>180.0</ele><time>2026-05-01T16:00:25.514Z</time></trkpt><trkpt lat="42.4777068" lon="14.1373609"><ele>178.0</ele><time>2026-05-01T16:00:26.506Z</time></trkpt><trkpt lat="42.4778492" lon="14.1372928"><ele>176.0</ele><time>2026-05-01T16:00:27.512Z</time></trkpt><trkpt lat="42.4779776" lon="14.1372277"><ele>174.0</ele><time>2026-05-01T16:00:28.506Z</time></trkpt><trkpt lat="42.4780985" lon="14.1371853"><ele>172.5</ele><time>2026-05-01T16:00:29.507Z</time></trkpt><trkpt lat="42.4782066" lon="14.137166"><ele>171.0</ele><time>2026-05-01T16:00:30.505Z</time></trkpt><trkpt lat="42.4783288" lon="14.1371861"><ele>169.5</ele><time>2026-05-01T16:00:31.501Z</time></trkpt><trkpt lat="42.4784405" lon="14.1372428"><ele>168.0</ele><time>2026-05-01T16:00:32.514Z</time></trkpt><trkpt lat="42.4785528" lon="14.1372813"><ele>168.0</ele><time>2026-05-01T16:00:33.515Z</time></trkpt><trkpt lat="42.4786689" lon="14.1373072"><ele>168.0</ele><time>2026-05-01T16:00:34.506Z</time></trkpt><trkpt lat="42.4787932" lon="14.1373076"><ele>168.0</ele><time>2026-05-01T16:00:35.501Z</time></trkpt><trkpt lat="42.4789178" lon="14.1372518"><ele>168.0</ele><time>2026-05-01T16:00:36.506Z</time></trkpt><trkpt lat="42.4790393" lon="14.1371804"><ele>167.75</ele><time>2026-05-01T16:00:37.499Z</time></trkpt><trkpt lat="42.4791515" lon="14.1371023"><ele>167.5</ele><time>2026-05-01T16:00:38.508Z</time></trkpt><trkpt lat="42.4792534" lon="14.1370144"><ele>167.25</ele><time>2026-05-01T16:00:39.509Z</time></trkpt><trkpt lat="42.4793372" lon="14.1369005"><ele>167.0</ele><time>2026-05-01T16:00:40.51Z</time></trkpt><trkpt lat="42.4794147" lon="14.13677"><ele>167.0</ele><time>2026-05-01T16:00:41.507Z</time></trkpt><trkpt lat="42.4794908" lon="14.1366216"><ele>167.0</ele><time>2026-05-01T16:00:42.514Z</time></trkpt><trkpt lat="42.4795614" lon="14.1364789"><ele>167.0</ele><time>2026-05-01T16:00:43.509Z</time></trkpt><trkpt lat="42.4796347" lon="14.136348"><ele>167.0</ele><time>2026-05-01T16:00:44.502Z</time></trkpt><trkpt lat="42.4797364" lon="14.1362411"><ele>166.5</ele><time>2026-05-01T16:00:45.508Z</time></trkpt><trkpt lat="42.4798358" lon="14.1361203"><ele>166.0</ele><time>2026-05-01T16:00:46.51Z</time></trkpt><trkpt lat="42.4799272" lon="14.1359781"><ele>165.5</ele><time>2026-05-01T16:00:47.504Z</time></trkpt><trkpt lat="42.4799739" lon="14.1358256"><ele>165.0</ele><time>2026-05-01T16:00:48.505Z</time></trkpt><trkpt lat="42.4799984" lon="14.1356675"><ele>163.0</ele><time>2026-05-01T16:00:49.511Z</time></trkpt><trkpt lat="42.4800311" lon="14.1355091"><ele>161.0</ele><time>2026-05-01T16:00:50.516Z</time></trkpt><trkpt lat="42.4800563" lon="14.1353609"><ele>159.0</ele><time>2026-05-01T16:00:51.512Z</time></trkpt><trkpt lat="42.4801094" lon="14.135227"><ele>157.0</ele><time>2026-05-01T16:00:52.504Z</time></trkpt><trkpt lat="42.4801983" lon="14.1351173"><ele>157.0</ele><time>2026-05-01T16:00:53.509Z</time></trkpt><trkpt lat="42.4802955" lon="14.1350026"><ele>157.0</ele><time>2026-05-01T16:00:54.513Z</time></trkpt><trkpt lat="42.4804049" lon="14.1349135"><ele>157.0</ele><time>2026-05-01T16:00:55.506Z</time></trkpt><trkpt lat="42.4805157" lon="14.1348336"><ele>157.0</ele><time>2026-05-01T16:00:56.515Z</time></trkpt><trkpt lat="42.4806198" lon="14.1347672"><ele>157.2</ele><time>2026-05-01T16:00:57.503Z</time></trkpt><trkpt lat="42.4807255" lon="14.1347445"><ele>157.39999999999998</ele><time>2026-05-01T16:00:58.515Z</time></trkpt><trkpt lat="42.4808195" lon="14.1347744"><ele>157.60000000000002</ele><time>2026-05-01T16:00:59.518Z</time></trkpt><trkpt lat="42.4809085" lon="14.1348587"><ele>157.8</ele><time>2026-05-01T16:01:00.52Z</time></trkpt><trkpt lat="42.4809913" lon="14.1349542"><ele>158.0</ele><time>2026-05-01T16:01:01.517Z</time></trkpt><trkpt lat="42.481068" lon="14.1350716"><ele>158.0</ele><time>2026-05-01T16:01:02.518Z</time></trkpt><trkpt lat="42.481128" lon="14.1351988"><ele>158.0</ele><time>2026-05-01T16:01:03.513Z</time></trkpt><trkpt lat="42.4811775" lon="14.1353485"><ele>158.0</ele><time>2026-05-01T16:01:04.503Z</time></trkpt><trkpt lat="42.4812207" lon="14.1355195"><ele>158.0</ele><time>2026-05-01T16:01:05.519Z</time></trkpt><trkpt lat="42.4812748" lon="14.1357024"><ele>155.25</ele><time>2026-05-01T16:01:06.51Z</time></trkpt><trkpt lat="42.4813457" lon="14.1358717"><ele>152.5</ele><time>2026-05-01T16:01:07.527Z</time></trkpt><trkpt lat="42.481407" lon="14.1360271"><ele>149.75</ele><time>2026-05-01T16:01:08.52Z</time></trkpt><trkpt lat="42.4814518" lon="14.1361781"><ele>147.0</ele><time>2026-05-01T16:01:09.516Z</time></trkpt><trkpt lat="42.4815095" lon="14.1363247"><ele>147.0</ele><time>2026-05-01T16:01:10.523Z</time></trkpt><trkpt lat="42.4815651" lon="14.1364436"><ele>147.0</ele><time>2026-05-01T16:01:11.51Z</time></trkpt><trkpt lat="42.4816389" lon="14.1365305"><ele>147.0</ele><time>2026-05-01T16:01:12.51Z</time></trkpt><trkpt lat="42.4817326" lon="14.1365631"><ele>147.0</ele><time>2026-05-01T16:01:13.516Z</time></trkpt><trkpt lat="42.4818406" lon="14.1365628"><ele>147.0</ele><time>2026-05-01T16:01:14.509Z</time></trkpt><trkpt lat="42.481945" lon="14.1365248"><ele>147.0</ele><time>2026-05-01T16:01:15.509Z</time></trkpt><trkpt lat="42.4820312" lon="14.1364419"><ele>147.0</ele><time>2026-05-01T16:01:16.52Z</time></trkpt><trkpt lat="42.4821059" lon="14.1363174"><ele>147.0</ele><time>2026-05-01T16:01:17.506Z</time></trkpt><trkpt lat="42.4821714" lon="14.1361598"><ele>147.0</ele><time>2026-05-01T16:01:18.525Z</time></trkpt><trkpt lat="42.4822059" lon="14.1359702"><ele>145.33333333333334</ele><time>2026-05-01T16:01:19.513Z</time></trkpt><trkpt lat="42.4822384" lon="14.1357668"><ele>143.66666666666669</ele><time>2026-05-01T16:01:20.521Z</time></trkpt><trkpt lat="42.4822838" lon="14.1355624"><ele>142.0</ele><time>2026-05-01T16:01:21.525Z</time></trkpt><trkpt lat="42.4823186" lon="14.1353688"><ele>141.25</ele><time>2026-05-01T16:01:22.518Z</time></trkpt><trkpt lat="42.4823533" lon="14.1351985"><ele>140.5</ele><time>2026-05-01T16:01:23.52Z</time></trkpt><trkpt lat="42.482392" lon="14.1350303"><ele>139.75</ele><time>2026-05-01T16:01:24.524Z</time></trkpt><trkpt lat="42.482438" lon="14.1348798"><ele>139.0</ele><time>2026-05-01T16:01:25.537Z</time></trkpt><trkpt lat="42.4824742" lon="14.1347183"><ele>138.5</ele><time>2026-05-01T16:01:26.608Z</time></trkpt><trkpt lat="42.4825075" lon="14.1345521"><ele>138.0</ele><time>2026-05-01T16:01:27.603Z</time></trkpt><trkpt lat="42.4825423" lon="14.1343857"><ele>137.5</ele><time>2026-05-01T16:01:28.597Z</time></trkpt><trkpt lat="42.482577" lon="14.1342133"><ele>137.0</ele><time>2026-05-01T16:01:29.603Z</time></trkpt><trkpt lat="42.4826097" lon="14.134042"><ele>136.0</ele><time>2026-05-01T16:01:30.604Z</time></trkpt><trkpt lat="42.4826417" lon="14.1338762"><ele>135.0</ele><time>2026-05-01T16:01:31.603Z</time></trkpt><trkpt lat="42.4826776" lon="14.1337189"><ele>134.0</ele><time>2026-05-01T16:01:32.606Z</time></trkpt><trkpt lat="42.4827237" lon="14.1335614"><ele>133.0</ele><time>2026-05-01T16:01:33.597Z</time></trkpt><trkpt lat="42.4827878" lon="14.133418"><ele>133.0</ele><time>2026-05-01T16:01:34.59Z</time></trkpt><trkpt lat="42.4828769" lon="14.1333099"><ele>133.0</ele><time>2026-05-01T16:01:35.585Z</time></trkpt><trkpt lat="42.4829825" lon="14.1332376"><ele>133.0</ele><time>2026-05-01T16:01:36.587Z</time></trkpt><trkpt lat="42.4830917" lon="14.1331234"><ele>133.0</ele><time>2026-05-01T16:01:37.578Z</time></trkpt><trkpt lat="42.4832367" lon="14.1330579"><ele>131.66666666666669</ele><time>2026-05-01T16:01:38.582Z</time></trkpt><trkpt lat="42.4833881" lon="14.1329934"><ele>130.33333333333334</ele><time>2026-05-01T16:01:39.588Z</time></trkpt><trkpt lat="42.4835365" lon="14.1329262"><ele>129.0</ele><time>2026-05-01T16:01:40.608Z</time></trkpt><trkpt lat="42.4836757" lon="14.1328569"><ele>128.0</ele><time>2026-05-01T16:01:41.604Z</time></trkpt><trkpt lat="42.4838093" lon="14.1327919"><ele>127.0</ele><time>2026-05-01T16:01:42.612Z</time></trkpt><trkpt lat="42.4839381" lon="14.1327346"><ele>126.0</ele><time>2026-05-01T16:01:43.612Z</time></trkpt><trkpt lat="42.4840698" lon="14.1326783"><ele>125.0</ele><time>2026-05-01T16:01:44.617Z</time></trkpt><trkpt lat="42.4842068" lon="14.132616"><ele>125.0</ele><time>2026-05-01T16:01:45.617Z</time></trkpt><trkpt lat="42.4843456" lon="14.1325504"><ele>125.0</ele><time>2026-05-01T16:01:46.614Z</time></trkpt><trkpt lat="42.4844827" lon="14.1324877"><ele>125.0</ele><time>2026-05-01T16:01:47.615Z</time></trkpt><trkpt lat="42.4846156" lon="14.132428"><ele>125.0</ele><time>2026-05-01T16:01:48.623Z</time></trkpt><trkpt lat="42.4847422" lon="14.132371"><ele>123.5</ele><time>2026-05-01T16:01:49.617Z</time></trkpt><trkpt lat="42.484859" lon="14.1323239"><ele>122.0</ele><time>2026-05-01T16:01:50.612Z</time></trkpt><trkpt lat="42.4849725" lon="14.1322957"><ele>120.5</ele><time>2026-05-01T16:01:51.61Z</time></trkpt><trkpt lat="42.4850917" lon="14.1323001"><ele>119.0</ele><time>2026-05-01T16:01:52.599Z</time></trkpt><trkpt lat="42.485216" lon="14.132335"><ele>119.25</ele><time>2026-05-01T16:01:53.586Z</time></trkpt><trkpt lat="42.4853352" lon="14.1324055"><ele>119.5</ele><time>2026-05-01T16:01:54.595Z</time></trkpt><trkpt lat="42.4854503" lon="14.1325125"><ele>119.75</ele><time>2026-05-01T16:01:55.582Z</time></trkpt><trkpt lat="42.4855522" lon="14.1326372"><ele>120.0</ele><time>2026-05-01T16:01:56.59Z</time></trkpt><trkpt lat="42.485655" lon="14.1327653"><ele>119.5</ele><time>2026-05-01T16:01:57.598Z</time></trkpt><trkpt lat="42.485756" lon="14.1328862"><ele>119.0</ele><time>2026-05-01T16:01:58.602Z</time></trkpt><trkpt lat="42.4858515" lon="14.1330001"><ele>118.5</ele><time>2026-05-01T16:01:59.601Z</time></trkpt><trkpt lat="42.4859437" lon="14.1331043"><ele>118.0</ele><time>2026-05-01T16:02:00.61Z</time></trkpt><trkpt lat="42.4860247" lon="14.1331992"><ele>117.80000000000001</ele><time>2026-05-01T16:02:01.602Z</time></trkpt><trkpt lat="42.486097" lon="14.1332918"><ele>117.60000000000001</ele><time>2026-05-01T16:02:02.606Z</time></trkpt><trkpt lat="42.4861706" lon="14.133382"><ele>117.39999999999999</ele><time>2026-05-01T16:02:03.608Z</time></trkpt><trkpt lat="42.4862414" lon="14.133471"><ele>117.19999999999999</ele><time>2026-05-01T16:02:04.6Z</time></trkpt><trkpt lat="42.4863138" lon="14.1335589"><ele>117.0</ele><time>2026-05-01T16:02:05.602Z</time></trkpt><trkpt lat="42.4863827" lon="14.1336441"><ele>117.0</ele><time>2026-05-01T16:02:06.602Z</time></trkpt><trkpt lat="42.486452" lon="14.133733"><ele>116.99999999999999</ele><time>2026-05-01T16:02:07.603Z</time></trkpt><trkpt lat="42.4865197" lon="14.1338193"><ele>116.99999999999999</ele><time>2026-05-01T16:02:08.604Z</time></trkpt><trkpt lat="42.4865865" lon="14.1339091"><ele>117.0</ele><time>2026-05-01T16:02:09.617Z</time></trkpt><trkpt lat="42.4866446" lon="14.1340187"><ele>117.0</ele><time>2026-05-01T16:02:10.597Z</time></trkpt><trkpt lat="42.4866817" lon="14.1341494"><ele>117.0</ele><time>2026-05-01T16:02:11.589Z</time></trkpt><trkpt lat="42.4867074" lon="14.1343007"><ele>117.0</ele><time>2026-05-01T16:02:12.587Z</time></trkpt><trkpt lat="42.4867347" lon="14.1344672"><ele>117.0</ele><time>2026-05-01T16:02:13.584Z</time></trkpt><trkpt lat="42.4867601" lon="14.1346402"><ele>117.0</ele><time>2026-05-01T16:02:14.589Z</time></trkpt><trkpt lat="42.4867861" lon="14.1348182"><ele>117.0</ele><time>2026-05-01T16:02:15.586Z</time></trkpt><trkpt lat="42.4868151" lon="14.1350007"><ele>117.0</ele><time>2026-05-01T16:02:16.599Z</time></trkpt><trkpt lat="42.4868463" lon="14.1351797"><ele>117.0</ele><time>2026-05-01T16:02:17.605Z</time></trkpt><trkpt lat="42.4868799" lon="14.1353584"><ele>117.0</ele><time>2026-05-01T16:02:18.606Z</time></trkpt><trkpt lat="42.4869188" lon="14.135539"><ele>117.0</ele><time>2026-05-01T16:02:19.601Z</time></trkpt><trkpt lat="42.4869608" lon="14.1357126"><ele>117.0</ele><time>2026-05-01T16:02:20.601Z</time></trkpt><trkpt lat="42.4870089" lon="14.1358849"><ele>117.0</ele><time>2026-05-01T16:02:21.601Z</time></trkpt><trkpt lat="42.4870651" lon="14.1360558"><ele>117.0</ele><time>2026-05-01T16:02:22.595Z</time></trkpt><trkpt lat="42.487129" lon="14.1362232"><ele>117.5</ele><time>2026-05-01T16:02:23.596Z</time></trkpt><trkpt lat="42.4871984" lon="14.1363886"><ele>118.0</ele><time>2026-05-01T16:02:24.6Z</time></trkpt><trkpt lat="42.487265" lon="14.1365508"><ele>118.5</ele><time>2026-05-01T16:02:25.601Z</time></trkpt><trkpt lat="42.4873226" lon="14.1367055"><ele>119.0</ele><time>2026-05-01T16:02:26.598Z</time></trkpt><trkpt lat="42.4873827" lon="14.1368691"><ele>120.25</ele><time>2026-05-01T16:02:27.603Z</time></trkpt><trkpt lat="42.4874394" lon="14.1370297"><ele>121.5</ele><time>2026-05-01T16:02:28.595Z</time></trkpt><trkpt lat="42.4874866" lon="14.1371773"><ele>122.75</ele><time>2026-05-01T16:02:29.594Z</time></trkpt><trkpt lat="42.4875267" lon="14.1373167"><ele>124.0</ele><time>2026-05-01T16:02:30.607Z</time></trkpt><trkpt lat="42.4875642" lon="14.13745"><ele>124.0</ele><time>2026-05-01T16:02:31.596Z</time></trkpt><trkpt lat="42.487599" lon="14.1375806"><ele>124.0</ele><time>2026-05-01T16:02:32.6Z</time></trkpt><trkpt lat="42.4876293" lon="14.1377265"><ele>124.0</ele><time>2026-05-01T16:02:33.591Z</time></trkpt><trkpt lat="42.4876429" lon="14.1378833"><ele>124.0</ele><time>2026-05-01T16:02:34.595Z</time></trkpt><trkpt lat="42.4876437" lon="14.1380509"><ele>124.0</ele><time>2026-05-01T16:02:35.586Z</time></trkpt><trkpt lat="42.487636" lon="14.1382169"><ele>124.0</ele><time>2026-05-01T16:02:36.585Z</time></trkpt><trkpt lat="42.4876308" lon="14.1383808"><ele>124.0</ele><time>2026-05-01T16:02:37.583Z</time></trkpt><trkpt lat="42.4876406" lon="14.138538"><ele>124.0</ele><time>2026-05-01T16:02:38.579Z</time></trkpt><trkpt lat="42.4876727" lon="14.1386871"><ele>124.25</ele><time>2026-05-01T16:02:39.572Z</time></trkpt><trkpt lat="42.4877208" lon="14.1388349"><ele>124.5</ele><time>2026-05-01T16:02:40.595Z</time></trkpt><trkpt lat="42.4877863" lon="14.1389764"><ele>124.75</ele><time>2026-05-01T16:02:41.59Z</time></trkpt><trkpt lat="42.4878686" lon="14.1391022"><ele>125.0</ele><time>2026-05-01T16:02:42.576Z</time></trkpt><trkpt lat="42.4879662" lon="14.1392045"><ele>127.25</ele><time>2026-05-01T16:02:43.569Z</time></trkpt><trkpt lat="42.4880807" lon="14.1392821"><ele>129.5</ele><time>2026-05-01T16:02:44.577Z</time></trkpt><trkpt lat="42.4881973" lon="14.1393295"><ele>131.75</ele><time>2026-05-01T16:02:45.574Z</time></trkpt><trkpt lat="42.4883204" lon="14.139357"><ele>134.0</ele><time>2026-05-01T16:02:46.587Z</time></trkpt><trkpt lat="42.4884451" lon="14.139371"><ele>134.0</ele><time>2026-05-01T16:02:47.592Z</time></trkpt><trkpt lat="42.4885587" lon="14.1393784"><ele>134.0</ele><time>2026-05-01T16:02:48.579Z</time></trkpt><trkpt lat="42.4886695" lon="14.1393866"><ele>134.0</ele><time>2026-05-01T16:02:49.583Z</time></trkpt><trkpt lat="42.4887791" lon="14.1393999"><ele>134.0</ele><time>2026-05-01T16:02:50.581Z</time></trkpt><trkpt lat="42.4888803" lon="14.1394194"><ele>134.0</ele><time>2026-05-01T16:02:51.583Z</time></trkpt><trkpt lat="42.4889734" lon="14.1394463"><ele>134.6</ele><time>2026-05-01T16:02:52.59Z</time></trkpt><trkpt lat="42.4890344" lon="14.1394784"><ele>135.2</ele><time>2026-05-01T16:02:53.588Z</time></trkpt><trkpt lat="42.4891174" lon="14.1395489"><ele>135.79999999999998</ele><time>2026-05-01T16:02:55.578Z</time></trkpt><trkpt lat="42.4891932" lon="14.139613"><ele>136.4</ele><time>2026-05-01T16:02:57.583Z</time></trkpt><trkpt lat="42.4892822" lon="14.1396532"><ele>137.0</ele><time>2026-05-01T16:02:59.584Z</time></trkpt><trkpt lat="42.489388" lon="14.1395879"><ele>137.0</ele><time>2026-05-01T16:03:01.579Z</time></trkpt><trkpt lat="42.4894644" lon="14.1395206"><ele>137.0</ele><time>2026-05-01T16:03:02.497Z</time></trkpt><trkpt lat="42.4895504" lon="14.1394651"><ele>137.0</ele><time>2026-05-01T16:03:03.494Z</time></trkpt><trkpt lat="42.489658" lon="14.1394452"><ele>137.0</ele><time>2026-05-01T16:03:04.491Z</time></trkpt><trkpt lat="42.4897736" lon="14.1394513"><ele>137.0</ele><time>2026-05-01T16:03:05.506Z</time></trkpt><trkpt lat="42.4898871" lon="14.1394568"><ele>138.0</ele><time>2026-05-01T16:03:06.502Z</time></trkpt><trkpt lat="42.4900105" lon="14.139467"><ele>139.0</ele><time>2026-05-01T16:03:07.508Z</time></trkpt><trkpt lat="42.4901369" lon="14.1394772"><ele>140.0</ele><time>2026-05-01T16:03:08.503Z</time></trkpt><trkpt lat="42.4902595" lon="14.1394899"><ele>141.0</ele><time>2026-05-01T16:03:09.511Z</time></trkpt><trkpt lat="42.4903767" lon="14.1394997"><ele>143.0</ele><time>2026-05-01T16:03:10.51Z</time></trkpt><trkpt lat="42.4904931" lon="14.139497"><ele>145.0</ele><time>2026-05-01T16:03:11.512Z</time></trkpt><trkpt lat="42.4906022" lon="14.1394987"><ele>147.0</ele><time>2026-05-01T16:03:12.512Z</time></trkpt><trkpt lat="42.4907102" lon="14.1394979"><ele>149.0</ele><time>2026-05-01T16:03:13.501Z</time></trkpt><trkpt lat="42.4908035" lon="14.1395232"><ele>151.0</ele><time>2026-05-01T16:03:14.51Z</time></trkpt><trkpt lat="42.4908804" lon="14.1395816"><ele>151.0</ele><time>2026-05-01T16:03:15.502Z</time></trkpt><trkpt lat="42.4909358" lon="14.1396702"><ele>151.0</ele><time>2026-05-01T16:03:16.515Z</time></trkpt><trkpt lat="42.4909582" lon="14.1398034"><ele>151.0</ele><time>2026-05-01T16:03:17.508Z</time></trkpt><trkpt lat="42.4909521" lon="14.139948"><ele>151.0</ele><time>2026-05-01T16:03:18.506Z</time></trkpt><trkpt lat="42.4909373" lon="14.1401108"><ele>151.0</ele><time>2026-05-01T16:03:19.509Z</time></trkpt><trkpt lat="42.4909243" lon="14.1402765"><ele>152.0</ele><time>2026-05-01T16:03:20.512Z</time></trkpt><trkpt lat="42.4909135" lon="14.140452"><ele>153.0</ele><time>2026-05-01T16:03:21.519Z</time></trkpt><trkpt lat="42.4909107" lon="14.1406245"><ele>154.0</ele><time>2026-05-01T16:03:22.511Z</time></trkpt><trkpt lat="42.4909193" lon="14.1407732"><ele>155.0</ele><time>2026-05-01T16:03:23.512Z</time></trkpt><trkpt lat="42.4909529" lon="14.1408883"><ele>155.66666666666666</ele><time>2026-05-01T16:03:24.51Z</time></trkpt><trkpt lat="42.4910079" lon="14.1409503"><ele>156.33333333333331</ele><time>2026-05-01T16:03:25.513Z</time></trkpt><trkpt lat="42.4910754" lon="14.1409564"><ele>157.0</ele><time>2026-05-01T16:03:26.505Z</time></trkpt><trkpt lat="42.4911353" lon="14.1409095"><ele>157.66666666666666</ele><time>2026-05-01T16:03:27.508Z</time></trkpt><trkpt lat="42.4911902" lon="14.140829"><ele>158.33333333333334</ele><time>2026-05-01T16:03:28.505Z</time></trkpt><trkpt lat="42.4912339" lon="14.1407294"><ele>159.0</ele><time>2026-05-01T16:03:29.506Z</time></trkpt><trkpt lat="42.49128" lon="14.1406435"><ele>159.33333333333334</ele><time>2026-05-01T16:03:30.513Z</time></trkpt><trkpt lat="42.4913171" lon="14.1405605"><ele>159.66666666666666</ele><time>2026-05-01T16:03:31.514Z</time></trkpt><trkpt lat="42.4913781" lon="14.1404184"><ele>160.0</ele><time>2026-05-01T16:03:33.506Z</time></trkpt><trkpt lat="42.4914104" lon="14.1403431"><ele>160.33333333333331</ele><time>2026-05-01T16:03:34.504Z</time></trkpt><trkpt lat="42.4915187" lon="14.1403131"><ele>160.66666666666666</ele><time>2026-05-01T16:03:36.52Z</time></trkpt><trkpt lat="42.4915713" lon="14.1403666"><ele>161.0</ele><time>2026-05-01T16:03:37.521Z</time></trkpt><trkpt lat="42.4916128" lon="14.1404707"><ele>161.0</ele><time>2026-05-01T16:03:38.513Z</time></trkpt><trkpt lat="42.4916509" lon="14.1406156"><ele>161.0</ele><time>2026-05-01T16:03:39.512Z</time></trkpt><trkpt lat="42.4916875" lon="14.1407872"><ele>161.0</ele><time>2026-05-01T16:03:40.521Z</time></trkpt><trkpt lat="42.4917293" lon="14.1409519"><ele>161.0</ele><time>2026-05-01T16:03:41.515Z</time></trkpt><trkpt lat="42.4917643" lon="14.1411006"><ele>161.0</ele><time>2026-05-01T16:03:42.525Z</time></trkpt><trkpt lat="42.4917907" lon="14.1412565"><ele>161.0</ele><time>2026-05-01T16:03:43.512Z</time></trkpt><trkpt lat="42.4917985" lon="14.1414217"><ele>161.0</ele><time>2026-05-01T16:03:44.515Z</time></trkpt><trkpt lat="42.4917992" lon="14.1415939"><ele>161.0</ele><time>2026-05-01T16:03:45.511Z</time></trkpt><trkpt lat="42.4917581" lon="14.1417493"><ele>161.0</ele><time>2026-05-01T16:03:46.522Z</time></trkpt><trkpt lat="42.4917082" lon="14.1419046"><ele>161.0</ele><time>2026-05-01T16:03:47.517Z</time></trkpt><trkpt lat="42.4916462" lon="14.1420456"><ele>161.0</ele><time>2026-05-01T16:03:48.506Z</time></trkpt><trkpt lat="42.4915962" lon="14.1421729"><ele>161.0</ele><time>2026-05-01T16:03:49.51Z</time></trkpt><trkpt lat="42.4915701" lon="14.1422846"><ele>161.0</ele><time>2026-05-01T16:03:50.504Z</time></trkpt><trkpt lat="42.4915891" lon="14.1424044"><ele>160.20000000000002</ele><time>2026-05-01T16:03:51.514Z</time></trkpt><trkpt lat="42.4916522" lon="14.1425241"><ele>159.4</ele><time>2026-05-01T16:03:52.502Z</time></trkpt><trkpt lat="42.4917247" lon="14.1426424"><ele>158.6</ele><time>2026-05-01T16:03:53.505Z</time></trkpt><trkpt lat="42.4917906" lon="14.1427648"><ele>157.8</ele><time>2026-05-01T16:03:54.508Z</time></trkpt><trkpt lat="42.4918256" lon="14.1428834"><ele>157.0</ele><time>2026-05-01T16:03:55.502Z</time></trkpt><trkpt lat="42.4918267" lon="14.1430188"><ele>157.0</ele><time>2026-05-01T16:03:56.497Z</time></trkpt><trkpt lat="42.4917761" lon="14.1431258"><ele>157.0</ele><time>2026-05-01T16:03:57.506Z</time></trkpt><trkpt lat="42.4916795" lon="14.1432336"><ele>157.0</ele><time>2026-05-01T16:03:58.507Z</time></trkpt><trkpt lat="42.4915874" lon="14.1433295"><ele>157.0</ele><time>2026-05-01T16:03:59.505Z</time></trkpt><trkpt lat="42.4915332" lon="14.1434294"><ele>157.0</ele><time>2026-05-01T16:04:00.507Z</time></trkpt><trkpt lat="42.4915088" lon="14.1435407"><ele>157.0</ele><time>2026-05-01T16:04:01.513Z</time></trkpt><trkpt lat="42.4915318" lon="14.1436659"><ele>157.0</ele><time>2026-05-01T16:04:02.509Z</time></trkpt><trkpt lat="42.4915783" lon="14.143799"><ele>157.0</ele><time>2026-05-01T16:04:03.499Z</time></trkpt><trkpt lat="42.4916536" lon="14.143914"><ele>157.0</ele><time>2026-05-01T16:04:04.503Z</time></trkpt><trkpt lat="42.4917223" lon="14.1440299"><ele>157.0</ele><time>2026-05-01T16:04:05.504Z</time></trkpt><trkpt lat="42.4917987" lon="14.1441364"><ele>157.0</ele><time>2026-05-01T16:04:06.492Z</time></trkpt><trkpt lat="42.4919025" lon="14.1442197"><ele>157.0</ele><time>2026-05-01T16:04:07.509Z</time></trkpt><trkpt lat="42.4920303" lon="14.1442691"><ele>157.0</ele><time>2026-05-01T16:04:08.506Z</time></trkpt><trkpt lat="42.4921504" lon="14.1443154"><ele>157.0</ele><time>2026-05-01T16:04:09.506Z</time></trkpt><trkpt lat="42.4922775" lon="14.1443511"><ele>150.75</ele><time>2026-05-01T16:04:10.508Z</time></trkpt><trkpt lat="42.4924159" lon="14.1444119"><ele>144.5</ele><time>2026-05-01T16:04:11.507Z</time></trkpt><trkpt lat="42.4925503" lon="14.1444862"><ele>138.25</ele><time>2026-05-01T16:04:12.509Z</time></trkpt><trkpt lat="42.4926924" lon="14.1445582"><ele>132.0</ele><time>2026-05-01T16:04:13.511Z</time></trkpt><trkpt lat="42.4928083" lon="14.1446257"><ele>132.0</ele><time>2026-05-01T16:04:14.498Z</time></trkpt><trkpt lat="42.4928811" lon="14.1446963"><ele>132.0</ele><time>2026-05-01T16:04:15.502Z</time></trkpt><trkpt lat="42.4929673" lon="14.1447684"><ele>132.0</ele><time>2026-05-01T16:04:16.504Z</time></trkpt><trkpt lat="42.4930551" lon="14.1448837"><ele>132.0</ele><time>2026-05-01T16:04:17.504Z</time></trkpt><trkpt lat="42.4931114" lon="14.1450091"><ele>132.0</ele><time>2026-05-01T16:04:18.502Z</time></trkpt><trkpt lat="42.4932147" lon="14.1451109"><ele>133.0</ele><time>2026-05-01T16:04:19.503Z</time></trkpt><trkpt lat="42.493303" lon="14.1452076"><ele>134.0</ele><time>2026-05-01T16:04:20.5Z</time></trkpt><trkpt lat="42.4933968" lon="14.1452786"><ele>135.0</ele><time>2026-05-01T16:04:21.497Z</time></trkpt><trkpt lat="42.4934948" lon="14.1453244"><ele>136.0</ele><time>2026-05-01T16:04:22.499Z</time></trkpt><trkpt lat="42.4935984" lon="14.1453342"><ele>137.0</ele><time>2026-05-01T16:04:23.498Z</time></trkpt><trkpt lat="42.4936943" lon="14.1453182"><ele>135.79999999999998</ele><time>2026-05-01T16:04:24.499Z</time></trkpt><trkpt lat="42.493788" lon="14.1452827"><ele>134.6</ele><time>2026-05-01T16:04:25.492Z</time></trkpt><trkpt lat="42.4938694" lon="14.1452051"><ele>133.39999999999998</ele><time>2026-05-01T16:04:26.488Z</time></trkpt><trkpt lat="42.4939429" lon="14.1450992"><ele>132.2</ele><time>2026-05-01T16:04:27.488Z</time></trkpt><trkpt lat="42.4939945" lon="14.1449767"><ele>131.0</ele><time>2026-05-01T16:04:28.496Z</time></trkpt><trkpt lat="42.494024" lon="14.1448103"><ele>127.75</ele><time>2026-05-01T16:04:29.492Z</time></trkpt><trkpt lat="42.4940468" lon="14.1446203"><ele>124.5</ele><time>2026-05-01T16:04:30.5Z</time></trkpt><trkpt lat="42.4940691" lon="14.1444467"><ele>121.25</ele><time>2026-05-01T16:04:31.504Z</time></trkpt><trkpt lat="42.4940922" lon="14.1442879"><ele>118.0</ele><time>2026-05-01T16:04:32.506Z</time></trkpt><trkpt lat="42.4941323" lon="14.144155"><ele>118.0</ele><time>2026-05-01T16:04:33.503Z</time></trkpt><trkpt lat="42.4941893" lon="14.1440469"><ele>118.00000000000001</ele><time>2026-05-01T16:04:34.497Z</time></trkpt><trkpt lat="42.4942672" lon="14.1439486"><ele>118.00000000000001</ele><time>2026-05-01T16:04:35.497Z</time></trkpt><trkpt lat="42.4943717" lon="14.1438872"><ele>118.0</ele><time>2026-05-01T16:04:36.507Z</time></trkpt><trkpt lat="42.4944796" lon="14.1438365"><ele>118.0</ele><time>2026-05-01T16:04:37.498Z</time></trkpt><trkpt lat="42.4945885" lon="14.143792"><ele>114.5</ele><time>2026-05-01T16:04:38.5Z</time></trkpt><trkpt lat="42.4946986" lon="14.1437734"><ele>111.0</ele><time>2026-05-01T16:04:39.497Z</time></trkpt><trkpt lat="42.4948145" lon="14.1437707"><ele>107.5</ele><time>2026-05-01T16:04:40.504Z</time></trkpt><trkpt lat="42.4949287" lon="14.143791"><ele>104.0</ele><time>2026-05-01T16:04:41.508Z</time></trkpt><trkpt lat="42.4950508" lon="14.1438057"><ele>104.0</ele><time>2026-05-01T16:04:42.517Z</time></trkpt><trkpt lat="42.4951713" lon="14.1438152"><ele>104.0</ele><time>2026-05-01T16:04:43.511Z</time></trkpt><trkpt lat="42.495292" lon="14.1437913"><ele>104.0</ele><time>2026-05-01T16:04:44.512Z</time></trkpt><trkpt lat="42.4954086" lon="14.1437497"><ele>104.0</ele><time>2026-05-01T16:04:45.506Z</time></trkpt><trkpt lat="42.4955334" lon="14.1437094"><ele>105.75</ele><time>2026-05-01T16:04:46.507Z</time></trkpt><trkpt lat="42.4956583" lon="14.1436496"><ele>107.5</ele><time>2026-05-01T16:04:47.505Z</time></trkpt><trkpt lat="42.4957805" lon="14.1435645"><ele>109.25</ele><time>2026-05-01T16:04:48.508Z</time></trkpt><trkpt lat="42.4958872" lon="14.1434667"><ele>111.0</ele><time>2026-05-01T16:04:49.512Z</time></trkpt><trkpt lat="42.4959937" lon="14.1433582"><ele>111.0</ele><time>2026-05-01T16:04:50.515Z</time></trkpt><trkpt lat="42.4960927" lon="14.1432616"><ele>111.0</ele><time>2026-05-01T16:04:51.512Z</time></trkpt><trkpt lat="42.4962081" lon="14.1431631"><ele>111.0</ele><time>2026-05-01T16:04:52.51Z</time></trkpt><trkpt lat="42.4963302" lon="14.1430575"><ele>111.0</ele><time>2026-05-01T16:04:53.513Z</time></trkpt><trkpt lat="42.4964372" lon="14.1429584"><ele>108.25</ele><time>2026-05-01T16:04:54.518Z</time></trkpt><trkpt lat="42.4965541" lon="14.1428711"><ele>105.5</ele><time>2026-05-01T16:04:55.508Z</time></trkpt><trkpt lat="42.496677" lon="14.1427864"><ele>102.75</ele><time>2026-05-01T16:04:56.512Z</time></trkpt><trkpt lat="42.4967936" lon="14.1426908"><ele>100.0</ele><time>2026-05-01T16:04:57.522Z</time></trkpt><trkpt lat="42.4969031" lon="14.1425807"><ele>100.0</ele><time>2026-05-01T16:04:58.525Z</time></trkpt><trkpt lat="42.4970087" lon="14.142469"><ele>100.0</ele><time>2026-05-01T16:04:59.51Z</time></trkpt><trkpt lat="42.4971196" lon="14.1423507"><ele>100.0</ele><time>2026-05-01T16:05:00.522Z</time></trkpt><trkpt lat="42.4972163" lon="14.1422259"><ele>100.0</ele><time>2026-05-01T16:05:01.519Z</time></trkpt><trkpt lat="42.497297" lon="14.1421055"><ele>97.0</ele><time>2026-05-01T16:05:02.52Z</time></trkpt><trkpt lat="42.4973653" lon="14.1420008"><ele>94.0</ele><time>2026-05-01T16:05:03.51Z</time></trkpt><trkpt lat="42.4974618" lon="14.1419404"><ele>91.0</ele><time>2026-05-01T16:05:04.508Z</time></trkpt><trkpt lat="42.497542" lon="14.1419172"><ele>88.0</ele><time>2026-05-01T16:05:05.501Z</time></trkpt><trkpt lat="42.4976153" lon="14.1419543"><ele>85.0</ele><time>2026-05-01T16:05:06.521Z</time></trkpt><trkpt lat="42.4976659" lon="14.1420434"><ele>85.0</ele><time>2026-05-01T16:05:07.511Z</time></trkpt><trkpt lat="42.4976671" lon="14.1421652"><ele>85.0</ele><time>2026-05-01T16:05:08.506Z</time></trkpt><trkpt lat="42.4976298" lon="14.1422853"><ele>85.0</ele><time>2026-05-01T16:05:09.511Z</time></trkpt><trkpt lat="42.4975569" lon="14.1424153"><ele>85.0</ele><time>2026-05-01T16:05:10.504Z</time></trkpt><trkpt lat="42.4974645" lon="14.1425661"><ele>85.25</ele><time>2026-05-01T16:05:11.513Z</time></trkpt><trkpt lat="42.4973686" lon="14.1427263"><ele>85.5</ele><time>2026-05-01T16:05:12.514Z</time></trkpt><trkpt lat="42.4972779" lon="14.1428738"><ele>85.75</ele><time>2026-05-01T16:05:13.507Z</time></trkpt><trkpt lat="42.4971927" lon="14.1430008"><ele>86.0</ele><time>2026-05-01T16:05:14.514Z</time></trkpt><trkpt lat="42.497116" lon="14.1431332"><ele>88.5</ele><time>2026-05-01T16:05:15.514Z</time></trkpt><trkpt lat="42.4970331" lon="14.1432576"><ele>91.0</ele><time>2026-05-01T16:05:16.506Z</time></trkpt><trkpt lat="42.4969627" lon="14.143385"><ele>93.5</ele><time>2026-05-01T16:05:17.515Z</time></trkpt><trkpt lat="42.4968875" lon="14.1435192"><ele>96.0</ele><time>2026-05-01T16:05:18.521Z</time></trkpt><trkpt lat="42.4967996" lon="14.1436627"><ele>96.0</ele><time>2026-05-01T16:05:19.512Z</time></trkpt><trkpt lat="42.4967141" lon="14.1438065"><ele>96.0</ele><time>2026-05-01T16:05:20.511Z</time></trkpt><trkpt lat="42.4966285" lon="14.1439335"><ele>96.0</ele><time>2026-05-01T16:05:21.516Z</time></trkpt><trkpt lat="42.4965431" lon="14.144059"><ele>96.0</ele><time>2026-05-01T16:05:22.516Z</time></trkpt><trkpt lat="42.4964629" lon="14.1441777"><ele>93.19999999999999</ele><time>2026-05-01T16:05:23.512Z</time></trkpt><trkpt lat="42.496407" lon="14.1442989"><ele>90.39999999999999</ele><time>2026-05-01T16:05:24.509Z</time></trkpt><trkpt lat="42.4963797" lon="14.1444477"><ele>87.6</ele><time>2026-05-01T16:05:25.506Z</time></trkpt><trkpt lat="42.4963768" lon="14.1446"><ele>84.8</ele><time>2026-05-01T16:05:26.5Z</time></trkpt><trkpt lat="42.4963952" lon="14.1447509"><ele>82.0</ele><time>2026-05-01T16:05:27.502Z</time></trkpt><trkpt lat="42.4964124" lon="14.1449096"><ele>84.5</ele><time>2026-05-01T16:05:28.501Z</time></trkpt><trkpt lat="42.4964093" lon="14.1450581"><ele>87.0</ele><time>2026-05-01T16:05:29.496Z</time></trkpt><trkpt lat="42.4963674" lon="14.1452065"><ele>89.5</ele><time>2026-05-01T16:05:30.498Z</time></trkpt><trkpt lat="42.4963042" lon="14.1453608"><ele>92.0</ele><time>2026-05-01T16:05:31.504Z</time></trkpt><trkpt lat="42.4962237" lon="14.1455091"><ele>92.0</ele><time>2026-05-01T16:05:32.51Z</time></trkpt><trkpt lat="42.4961638" lon="14.1456464"><ele>92.0</ele><time>2026-05-01T16:05:33.503Z</time></trkpt><trkpt lat="42.4961476" lon="14.1457773"><ele>92.0</ele><time>2026-05-01T16:05:34.503Z</time></trkpt><trkpt lat="42.4961656" lon="14.1458945"><ele>92.0</ele><time>2026-05-01T16:05:35.529Z</time></trkpt><trkpt lat="42.4962281" lon="14.1460113"><ele>92.0</ele><time>2026-05-01T16:05:36.526Z</time></trkpt><trkpt lat="42.4963273" lon="14.1460852"><ele>88.0</ele><time>2026-05-01T16:05:37.519Z</time></trkpt><trkpt lat="42.4964315" lon="14.1461124"><ele>84.0</ele><time>2026-05-01T16:05:38.517Z</time></trkpt><trkpt lat="42.4965341" lon="14.1461034"><ele>80.0</ele><time>2026-05-01T16:05:39.52Z</time></trkpt><trkpt lat="42.4966255" lon="14.1460392"><ele>76.0</ele><time>2026-05-01T16:05:40.512Z</time></trkpt><trkpt lat="42.4967111" lon="14.1459391"><ele>72.0</ele><time>2026-05-01T16:05:41.509Z</time></trkpt><trkpt lat="42.4967463" lon="14.1458018"><ele>71.5</ele><time>2026-05-01T16:05:42.504Z</time></trkpt><trkpt lat="42.4967528" lon="14.1456239"><ele>71.0</ele><time>2026-05-01T16:05:43.51Z</time></trkpt><trkpt lat="42.4967544" lon="14.1454443"><ele>70.5</ele><time>2026-05-01T16:05:44.591Z</time></trkpt><trkpt lat="42.4967555" lon="14.1452404"><ele>70.0</ele><time>2026-05-01T16:05:45.511Z</time></trkpt><trkpt lat="42.4967983" lon="14.1450741"><ele>70.0</ele><time>2026-05-01T16:05:46.508Z</time></trkpt><trkpt lat="42.4968659" lon="14.1449207"><ele>70.0</ele><time>2026-05-01T16:05:47.502Z</time></trkpt><trkpt lat="42.4969334" lon="14.1447812"><ele>70.0</ele><time>2026-05-01T16:05:48.504Z</time></trkpt><trkpt lat="42.497015" lon="14.1446586"><ele>70.0</ele><time>2026-05-01T16:05:49.504Z</time></trkpt><trkpt lat="42.4971077" lon="14.1445602"><ele>68.0</ele><time>2026-05-01T16:05:50.504Z</time></trkpt><trkpt lat="42.4972038" lon="14.1444902"><ele>66.0</ele><time>2026-05-01T16:05:51.509Z</time></trkpt><trkpt lat="42.4973008" lon="14.1444383"><ele>64.0</ele><time>2026-05-01T16:05:52.506Z</time></trkpt><trkpt lat="42.4974062" lon="14.1443819"><ele>62.0</ele><time>2026-05-01T16:05:53.51Z</time></trkpt><trkpt lat="42.4975186" lon="14.1443156"><ele>60.0</ele><time>2026-05-01T16:05:54.505Z</time></trkpt><trkpt lat="42.497623" lon="14.1442307"><ele>60.0</ele><time>2026-05-01T16:05:55.505Z</time></trkpt><trkpt lat="42.4977233" lon="14.144144"><ele>60.0</ele><time>2026-05-01T16:05:56.493Z</time></trkpt><trkpt lat="42.4978093" lon="14.1440552"><ele>60.0</ele><time>2026-05-01T16:05:57.503Z</time></trkpt><trkpt lat="42.4978908" lon="14.1439505"><ele>60.0</ele><time>2026-05-01T16:05:58.502Z</time></trkpt><trkpt lat="42.4979715" lon="14.1438368"><ele>57.75</ele><time>2026-05-01T16:05:59.503Z</time></trkpt><trkpt lat="42.49806" lon="14.143713"><ele>55.5</ele><time>2026-05-01T16:06:00.508Z</time></trkpt><trkpt lat="42.4981284" lon="14.1435819"><ele>53.25</ele><time>2026-05-01T16:06:01.51Z</time></trkpt><trkpt lat="42.4981969" lon="14.1434575"><ele>51.0</ele><time>2026-05-01T16:06:02.509Z</time></trkpt><trkpt lat="42.4982545" lon="14.143344"><ele>51.0</ele><time>2026-05-01T16:06:03.506Z</time></trkpt><trkpt lat="42.4983104" lon="14.1432404"><ele>51.0</ele><time>2026-05-01T16:06:04.513Z</time></trkpt><trkpt lat="42.4983573" lon="14.1431414"><ele>51.0</ele><time>2026-05-01T16:06:05.51Z</time></trkpt><trkpt lat="42.4983955" lon="14.1430553"><ele>51.0</ele><time>2026-05-01T16:06:06.51Z</time></trkpt><trkpt lat="42.4984355" lon="14.1429784"><ele>51.0</ele><time>2026-05-01T16:06:07.507Z</time></trkpt><trkpt lat="42.4985182" lon="14.1428692"><ele>51.0</ele><time>2026-05-01T16:06:09.504Z</time></trkpt><trkpt lat="42.498577" lon="14.1428138"><ele>49.4</ele><time>2026-05-01T16:06:12.522Z</time></trkpt><trkpt lat="42.4986286" lon="14.1427281"><ele>47.8</ele><time>2026-05-01T16:06:16.521Z</time></trkpt><trkpt lat="42.4986842" lon="14.1426615"><ele>46.199999999999996</ele><time>2026-05-01T16:06:56.511Z</time></trkpt><trkpt lat="42.4987331" lon="14.1425442"><ele>44.599999999999994</ele><time>2026-05-01T16:06:58.523Z</time></trkpt><trkpt lat="42.49876" lon="14.1424329"><ele>43.0</ele><time>2026-05-01T16:06:59.51Z</time></trkpt><trkpt lat="42.4987952" lon="14.1422912"><ele>43.0</ele><time>2026-05-01T16:07:00.518Z</time></trkpt><trkpt lat="42.4988329" lon="14.1421657"><ele>43.0</ele><time>2026-05-01T16:07:01.518Z</time></trkpt><trkpt lat="42.4988697" lon="14.1420462"><ele>43.0</ele><time>2026-05-01T16:07:02.517Z</time></trkpt><trkpt lat="42.4989135" lon="14.1419495"><ele>43.0</ele><time>2026-05-01T16:07:03.515Z</time></trkpt><trkpt lat="42.4989607" lon="14.1418439"><ele>43.0</ele><time>2026-05-01T16:07:04.514Z</time></trkpt><trkpt lat="42.4990214" lon="14.1417468"><ele>43.0</ele><time>2026-05-01T16:07:05.516Z</time></trkpt><trkpt lat="42.499081" lon="14.1416397"><ele>43.0</ele><time>2026-05-01T16:07:06.512Z</time></trkpt><trkpt lat="42.4991442" lon="14.1415468"><ele>43.0</ele><time>2026-05-01T16:07:07.511Z</time></trkpt><trkpt lat="42.4992029" lon="14.1414561"><ele>43.0</ele><time>2026-05-01T16:07:08.513Z</time></trkpt><trkpt lat="42.4992699" lon="14.1413795"><ele>43.0</ele><time>2026-05-01T16:07:09.513Z</time></trkpt><trkpt lat="42.4993323" lon="14.1413047"><ele>44.5</ele><time>2026-05-01T16:07:10.519Z</time></trkpt><trkpt lat="42.4993866" lon="14.1412384"><ele>46.0</ele><time>2026-05-01T16:07:11.514Z</time></trkpt><trkpt lat="42.4994366" lon="14.1411663"><ele>47.5</ele><time>2026-05-01T16:07:12.51Z</time></trkpt><trkpt lat="42.4994994" lon="14.1410956"><ele>49.0</ele><time>2026-05-01T16:07:13.513Z</time></trkpt><trkpt lat="42.4995854" lon="14.1410212"><ele>50.49999999999999</ele><time>2026-05-01T16:07:14.51Z</time></trkpt><trkpt lat="42.4996794" lon="14.1409326"><ele>52.0</ele><time>2026-05-01T16:07:15.513Z</time></trkpt><trkpt lat="42.4997847" lon="14.1408369"><ele>48.75</ele><time>2026-05-01T16:07:16.509Z</time></trkpt><trkpt lat="42.4998853" lon="14.1407209"><ele>45.5</ele><time>2026-05-01T16:07:17.512Z</time></trkpt><trkpt lat="42.4999787" lon="14.1406008"><ele>42.25</ele><time>2026-05-01T16:07:18.515Z</time></trkpt><trkpt lat="42.5000559" lon="14.1404715"><ele>39.0</ele><time>2026-05-01T16:07:19.515Z</time></trkpt><trkpt lat="42.5001377" lon="14.1403504"><ele>39.0</ele><time>2026-05-01T16:07:20.517Z</time></trkpt><trkpt lat="42.5002121" lon="14.1402375"><ele>39.0</ele><time>2026-05-01T16:07:21.518Z</time></trkpt><trkpt lat="42.5002825" lon="14.1401343"><ele>39.0</ele><time>2026-05-01T16:07:22.512Z</time></trkpt><trkpt lat="42.5003401" lon="14.140031"><ele>39.0</ele><time>2026-05-01T16:07:23.514Z</time></trkpt><trkpt lat="42.5003987" lon="14.1399338"><ele>39.0</ele><time>2026-05-01T16:07:24.511Z</time></trkpt><trkpt lat="42.5004549" lon="14.1398397"><ele>36.833333333333336</ele><time>2026-05-01T16:07:25.511Z</time></trkpt><trkpt lat="42.5005035" lon="14.1397549"><ele>34.666666666666664</ele><time>2026-05-01T16:07:26.512Z</time></trkpt><trkpt lat="42.5005487" lon="14.1396558"><ele>32.5</ele><time>2026-05-01T16:07:27.515Z</time></trkpt><trkpt lat="42.500601" lon="14.139556"><ele>30.333333333333332</ele><time>2026-05-01T16:07:28.514Z</time></trkpt><trkpt lat="42.5006575" lon="14.1394628"><ele>28.166666666666664</ele><time>2026-05-01T16:07:29.51Z</time></trkpt><trkpt lat="42.5007052" lon="14.1393595"><ele>26.0</ele><time>2026-05-01T16:07:30.511Z</time></trkpt><trkpt lat="42.5007688" lon="14.1392406"><ele>25.999999999999996</ele><time>2026-05-01T16:07:31.516Z</time></trkpt><trkpt lat="42.5008231" lon="14.139137"><ele>26.0</ele><time>2026-05-01T16:07:32.519Z</time></trkpt><trkpt lat="42.5008786" lon="14.1390379"><ele>26.0</ele><time>2026-05-01T16:07:33.517Z</time></trkpt><trkpt lat="42.500921" lon="14.1389464"><ele>26.0</ele><time>2026-05-01T16:07:34.515Z</time></trkpt><trkpt lat="42.5009592" lon="14.1388561"><ele>25.999999999999996</ele><time>2026-05-01T16:07:35.519Z</time></trkpt><trkpt lat="42.5009951" lon="14.1387766"><ele>26.0</ele><time>2026-05-01T16:07:36.514Z</time></trkpt><trkpt lat="42.5010318" lon="14.1386863"><ele>25.166666666666664</ele><time>2026-05-01T16:07:37.514Z</time></trkpt><trkpt lat="42.5010694" lon="14.1386024"><ele>24.333333333333332</ele><time>2026-05-01T16:07:38.516Z</time></trkpt><trkpt lat="42.5011049" lon="14.1385289"><ele>23.5</ele><time>2026-05-01T16:07:39.515Z</time></trkpt><trkpt lat="42.5011648" lon="14.1384415"><ele>22.666666666666664</ele><time>2026-05-01T16:07:41.536Z</time></trkpt><trkpt lat="42.5012008" lon="14.1383606"><ele>21.833333333333332</ele><time>2026-05-01T16:07:43.541Z</time></trkpt><trkpt lat="42.5012426" lon="14.1382079"><ele>21.0</ele><time>2026-05-01T16:07:45.53Z</time></trkpt><trkpt lat="42.5012584" lon="14.1381059"><ele>20.166666666666668</ele><time>2026-05-01T16:07:46.542Z</time></trkpt><trkpt lat="42.5012802" lon="14.1380057"><ele>19.333333333333332</ele><time>2026-05-01T16:07:47.539Z</time></trkpt><trkpt lat="42.5012944" lon="14.1379041"><ele>18.5</ele><time>2026-05-01T16:07:48.533Z</time></trkpt><trkpt lat="42.501319" lon="14.1378123"><ele>17.666666666666664</ele><time>2026-05-01T16:07:49.53Z</time></trkpt><trkpt lat="42.5013521" lon="14.1377079"><ele>16.833333333333332</ele><time>2026-05-01T16:07:50.531Z</time></trkpt><trkpt lat="42.5013735" lon="14.137603"><ele>16.0</ele><time>2026-05-01T16:07:51.528Z</time></trkpt><trkpt lat="42.5014017" lon="14.1374969"><ele>15.999999999999998</ele><time>2026-05-01T16:07:52.528Z</time></trkpt><trkpt lat="42.50143" lon="14.1373933"><ele>16.0</ele><time>2026-05-01T16:07:53.531Z</time></trkpt><trkpt lat="42.5014551" lon="14.1372838"><ele>16.0</ele><time>2026-05-01T16:07:54.53Z</time></trkpt><trkpt lat="42.5014902" lon="14.1371837"><ele>16.0</ele><time>2026-05-01T16:07:55.531Z</time></trkpt><trkpt lat="42.5015241" lon="14.1370714"><ele>15.999999999999998</ele><time>2026-05-01T16:07:56.529Z</time></trkpt><trkpt lat="42.501554" lon="14.1369573"><ele>16.0</ele><time>2026-05-01T16:07:57.604Z</time></trkpt><trkpt lat="42.5015816" lon="14.1368508"><ele>15.666666666666666</ele><time>2026-05-01T16:07:58.604Z</time></trkpt><trkpt lat="42.5016085" lon="14.1367463"><ele>15.333333333333332</ele><time>2026-05-01T16:07:59.606Z</time></trkpt><trkpt lat="42.5016337" lon="14.1366579"><ele>15.0</ele><time>2026-05-01T16:08:00.6Z</time></trkpt><trkpt lat="42.5016598" lon="14.1365494"><ele>14.666666666666668</ele><time>2026-05-01T16:08:02.605Z</time></trkpt><trkpt lat="42.5016864" lon="14.1364508"><ele>14.333333333333334</ele><time>2026-05-01T16:08:04.608Z</time></trkpt><trkpt lat="42.5017152" lon="14.1363338"><ele>14.0</ele><time>2026-05-01T16:08:06.603Z</time></trkpt><trkpt lat="42.5017544" lon="14.1361975"><ele>14.0</ele><time>2026-05-01T16:08:08.591Z</time></trkpt><trkpt lat="42.5017994" lon="14.136055"><ele>14.0</ele><time>2026-05-01T16:08:10.595Z</time></trkpt><trkpt lat="42.501839" lon="14.1359113"><ele>14.0</ele><time>2026-05-01T16:08:12.591Z</time></trkpt><trkpt lat="42.501878" lon="14.1357581"><ele>14.0</ele><time>2026-05-01T16:08:14.6Z</time></trkpt><trkpt lat="42.5019109" lon="14.135624"><ele>14.166666666666668</ele><time>2026-05-01T16:08:16.583Z</time></trkpt><trkpt lat="42.5019415" lon="14.1354888"><ele>14.333333333333334</ele><time>2026-05-01T16:08:18.581Z</time></trkpt><trkpt lat="42.5019661" lon="14.135397"><ele>14.5</ele><time>2026-05-01T16:08:19.601Z</time></trkpt><trkpt lat="42.5019922" lon="14.1353093"><ele>14.666666666666668</ele><time>2026-05-01T16:08:20.603Z</time></trkpt><trkpt lat="42.502016" lon="14.1352237"><ele>14.833333333333334</ele><time>2026-05-01T16:08:21.603Z</time></trkpt><trkpt lat="42.502059" lon="14.1350792"><ele>15.0</ele><time>2026-05-01T16:08:23.596Z</time></trkpt><trkpt lat="42.5020806" lon="14.1349987"><ele>14.833333333333334</ele><time>2026-05-01T16:08:25.61Z</time></trkpt><trkpt lat="42.5021192" lon="14.1349135"><ele>14.666666666666668</ele><time>2026-05-01T16:08:28.606Z</time></trkpt><trkpt lat="42.5021783" lon="14.1348275"><ele>14.5</ele><time>2026-05-01T16:08:30.61Z</time></trkpt><trkpt lat="42.5022486" lon="14.1347795"><ele>14.333333333333334</ele><time>2026-05-01T16:08:32.612Z</time></trkpt><trkpt lat="42.5023286" lon="14.1347374"><ele>14.166666666666668</ele><time>2026-05-01T16:08:34.606Z</time></trkpt><trkpt lat="42.502405" lon="14.1347093"><ele>14.0</ele><time>2026-05-01T16:08:36.596Z</time></trkpt><trkpt lat="42.502469" lon="14.1346976"><ele>14.0</ele><time>2026-05-01T16:08:37.509Z</time></trkpt><trkpt lat="42.5025604" lon="14.1347781"><ele>13.999999999999998</ele><time>2026-05-01T16:08:39.517Z</time></trkpt><trkpt lat="42.5026393" lon="14.1348709"><ele>13.999999999999998</ele><time>2026-05-01T16:08:41.519Z</time></trkpt><trkpt lat="42.5026922" lon="14.1349266"><ele>14.0</ele><time>2026-05-01T16:08:42.516Z</time></trkpt><trkpt lat="42.5027585" lon="14.1349989"><ele>14.0</ele><time>2026-05-01T16:08:43.519Z</time></trkpt><trkpt lat="42.5028268" lon="14.1350833"><ele>14.000000000000002</ele><time>2026-05-01T16:08:44.531Z</time></trkpt><trkpt lat="42.5028945" lon="14.1351692"><ele>14.0</ele><time>2026-05-01T16:08:45.523Z</time></trkpt><trkpt lat="42.5029471" lon="14.1352345"><ele>14.0</ele><time>2026-05-01T16:08:46.511Z</time></trkpt><trkpt lat="42.5030346" lon="14.1353064"><ele>14.0</ele><time>2026-05-01T16:08:48.51Z</time></trkpt><trkpt lat="42.5031112" lon="14.1352927"><ele>14.000000000000002</ele><time>2026-05-01T16:08:50.52Z</time></trkpt><trkpt lat="42.5031626" lon="14.1352293"><ele>14.0</ele><time>2026-05-01T16:08:51.516Z</time></trkpt><trkpt lat="42.5032018" lon="14.1351347"><ele>13.799999999999999</ele><time>2026-05-01T16:08:52.51Z</time></trkpt><trkpt lat="42.5032288" lon="14.1350072"><ele>13.599999999999998</ele><time>2026-05-01T16:08:53.504Z</time></trkpt><trkpt lat="42.5032575" lon="14.1348846"><ele>13.4</ele><time>2026-05-01T16:08:54.512Z</time></trkpt><trkpt lat="42.5032824" lon="14.1347641"><ele>13.2</ele><time>2026-05-01T16:08:55.51Z</time></trkpt><trkpt lat="42.503313" lon="14.1346514"><ele>13.0</ele><time>2026-05-01T16:08:56.505Z</time></trkpt><trkpt lat="42.5033369" lon="14.1345398"><ele>12.999999999999998</ele><time>2026-05-01T16:08:57.509Z</time></trkpt><trkpt lat="42.5033574" lon="14.1344357"><ele>13.0</ele><time>2026-05-01T16:08:58.505Z</time></trkpt><trkpt lat="42.5033716" lon="14.1343461"><ele>13.0</ele><time>2026-05-01T16:08:59.51Z</time></trkpt><trkpt lat="42.50339" lon="14.1342528"><ele>13.0</ele><time>2026-05-01T16:09:00.511Z</time></trkpt><trkpt lat="42.5034121" lon="14.1341523"><ele>12.999999999999998</ele><time>2026-05-01T16:09:01.509Z</time></trkpt><trkpt lat="42.503445" lon="14.1340539"><ele>13.0</ele><time>2026-05-01T16:09:02.509Z</time></trkpt><trkpt lat="42.503467" lon="14.1339549"><ele>13.0</ele><time>2026-05-01T16:09:03.506Z</time></trkpt><trkpt lat="42.5035173" lon="14.1337903"><ele>13.0</ele><time>2026-05-01T16:09:05.508Z</time></trkpt><trkpt lat="42.5035578" lon="14.1337075"><ele>13.0</ele><time>2026-05-01T16:09:06.509Z</time></trkpt><trkpt lat="42.5036214" lon="14.133629"><ele>13.0</ele><time>2026-05-01T16:09:07.502Z</time></trkpt><trkpt lat="42.5036999" lon="14.1335534"><ele>13.0</ele><time>2026-05-01T16:09:08.508Z</time></trkpt><trkpt lat="42.5037852" lon="14.133478"><ele>13.0</ele><time>2026-05-01T16:09:09.508Z</time></trkpt><trkpt lat="42.5038825" lon="14.133388"><ele>13.0</ele><time>2026-05-01T16:09:10.508Z</time></trkpt><trkpt lat="42.5039853" lon="14.1333051"><ele>13.0</ele><time>2026-05-01T16:09:11.502Z</time></trkpt><trkpt lat="42.5040804" lon="14.1332306"><ele>13.0</ele><time>2026-05-01T16:09:12.509Z</time></trkpt><trkpt lat="42.5041673" lon="14.1331427"><ele>13.0</ele><time>2026-05-01T16:09:13.515Z</time></trkpt><trkpt lat="42.5042563" lon="14.1330608"><ele>13.0</ele><time>2026-05-01T16:09:14.511Z</time></trkpt><trkpt lat="42.5043529" lon="14.1329855"><ele>13.0</ele><time>2026-05-01T16:09:15.509Z</time></trkpt><trkpt lat="42.5044473" lon="14.1329003"><ele>13.0</ele><time>2026-05-01T16:09:16.514Z</time></trkpt><trkpt lat="42.5045352" lon="14.1328099"><ele>13.0</ele><time>2026-05-01T16:09:17.51Z</time></trkpt><trkpt lat="42.5046259" lon="14.1327362"><ele>12.0</ele><time>2026-05-01T16:09:18.512Z</time></trkpt><trkpt lat="42.5047209" lon="14.1326566"><ele>11.0</ele><time>2026-05-01T16:09:19.508Z</time></trkpt><trkpt lat="42.5048103" lon="14.1325512"><ele>10.0</ele><time>2026-05-01T16:09:20.512Z</time></trkpt><trkpt lat="42.504914" lon="14.132441"><ele>9.0</ele><time>2026-05-01T16:09:21.514Z</time></trkpt><trkpt lat="42.5050292" lon="14.132314"><ele>9.0</ele><time>2026-05-01T16:09:22.508Z</time></trkpt><trkpt lat="42.5051637" lon="14.1321814"><ele>9.0</ele><time>2026-05-01T16:09:23.506Z</time></trkpt><trkpt lat="42.5053122" lon="14.1320436"><ele>9.0</ele><time>2026-05-01T16:09:24.514Z</time></trkpt><trkpt lat="42.5054544" lon="14.1319354"><ele>9.0</ele><time>2026-05-01T16:09:25.509Z</time></trkpt><trkpt lat="42.5055801" lon="14.1318413"><ele>9.0</ele><time>2026-05-01T16:09:26.513Z</time></trkpt><trkpt lat="42.5056852" lon="14.1317419"><ele>9.0</ele><time>2026-05-01T16:09:27.51Z</time></trkpt><trkpt lat="42.5057727" lon="14.1316619"><ele>9.0</ele><time>2026-05-01T16:09:28.507Z</time></trkpt><trkpt lat="42.5058513" lon="14.1315859"><ele>9.0</ele><time>2026-05-01T16:09:29.508Z</time></trkpt><trkpt lat="42.5059323" lon="14.1315154"><ele>9.0</ele><time>2026-05-01T16:09:30.511Z</time></trkpt><trkpt lat="42.506007" lon="14.1314454"><ele>9.0</ele><time>2026-05-01T16:09:31.517Z</time></trkpt><trkpt lat="42.5060687" lon="14.1313759"><ele>9.0</ele><time>2026-05-01T16:09:32.509Z</time></trkpt><trkpt lat="42.5061546" lon="14.1312868"><ele>9.0</ele><time>2026-05-01T16:09:33.506Z</time></trkpt><trkpt lat="42.5062365" lon="14.131214"><ele>9.0</ele><time>2026-05-01T16:09:34.507Z</time></trkpt><trkpt lat="42.5063153" lon="14.1311443"><ele>9.0</ele><time>2026-05-01T16:09:35.512Z</time></trkpt><trkpt lat="42.5064011" lon="14.1310831"><ele>9.0</ele><time>2026-05-01T16:09:36.513Z</time></trkpt><trkpt lat="42.5064975" lon="14.1310208"><ele>9.0</ele><time>2026-05-01T16:09:37.513Z</time></trkpt><trkpt lat="42.5066035" lon="14.1309595"><ele>9.0</ele><time>2026-05-01T16:09:38.514Z</time></trkpt><trkpt lat="42.506716" lon="14.1309088"><ele>9.0</ele><time>2026-05-01T16:09:39.515Z</time></trkpt><trkpt lat="42.5068136" lon="14.1308571"><ele>9.0</ele><time>2026-05-01T16:09:40.515Z</time></trkpt><trkpt lat="42.5069107" lon="14.1308181"><ele>9.0</ele><time>2026-05-01T16:09:41.513Z</time></trkpt><trkpt lat="42.507019" lon="14.1307798"><ele>9.0</ele><time>2026-05-01T16:09:42.513Z</time></trkpt><trkpt lat="42.5071266" lon="14.1307327"><ele>9.0</ele><time>2026-05-01T16:09:43.512Z</time></trkpt><trkpt lat="42.5072287" lon="14.1307069"><ele>9.6</ele><time>2026-05-01T16:09:44.516Z</time></trkpt><trkpt lat="42.507332" lon="14.1306849"><ele>10.2</ele><time>2026-05-01T16:09:45.512Z</time></trkpt><trkpt lat="42.5074293" lon="14.1306534"><ele>10.799999999999999</ele><time>2026-05-01T16:09:46.513Z</time></trkpt><trkpt lat="42.5075308" lon="14.1306202"><ele>11.4</ele><time>2026-05-01T16:09:47.514Z</time></trkpt><trkpt lat="42.5076286" lon="14.1305803"><ele>12.0</ele><time>2026-05-01T16:09:48.51Z</time></trkpt><trkpt lat="42.507727" lon="14.1305302"><ele>12.0</ele><time>2026-05-01T16:09:49.51Z</time></trkpt><trkpt lat="42.5078106" lon="14.1304829"><ele>12.0</ele><time>2026-05-01T16:09:50.514Z</time></trkpt><trkpt lat="42.5078977" lon="14.1304243"><ele>12.0</ele><time>2026-05-01T16:09:51.51Z</time></trkpt><trkpt lat="42.5079916" lon="14.1303605"><ele>12.0</ele><time>2026-05-01T16:09:52.51Z</time></trkpt><trkpt lat="42.5080857" lon="14.13031"><ele>12.0</ele><time>2026-05-01T16:09:53.512Z</time></trkpt><trkpt lat="42.5081744" lon="14.1302439"><ele>12.0</ele><time>2026-05-01T16:09:54.515Z</time></trkpt><trkpt lat="42.5082641" lon="14.1301801"><ele>12.0</ele><time>2026-05-01T16:09:55.512Z</time></trkpt><trkpt lat="42.5083403" lon="14.130119"><ele>12.0</ele><time>2026-05-01T16:09:56.508Z</time></trkpt><trkpt lat="42.5084088" lon="14.1300671"><ele>12.0</ele><time>2026-05-01T16:09:57.517Z</time></trkpt><trkpt lat="42.5084702" lon="14.1300144"><ele>12.0</ele><time>2026-05-01T16:09:58.514Z</time></trkpt><trkpt lat="42.5085268" lon="14.1299564"><ele>12.0</ele><time>2026-05-01T16:09:59.508Z</time></trkpt><trkpt lat="42.5085809" lon="14.1299002"><ele>11.0</ele><time>2026-05-01T16:10:00.515Z</time></trkpt><trkpt lat="42.5086433" lon="14.1298513"><ele>10.0</ele><time>2026-05-01T16:10:01.519Z</time></trkpt><trkpt lat="42.5087359" lon="14.1297835"><ele>9.0</ele><time>2026-05-01T16:10:03.514Z</time></trkpt><trkpt lat="42.5088256" lon="14.1297572"><ele>8.0</ele><time>2026-05-01T16:10:05.513Z</time></trkpt><trkpt lat="42.5089049" lon="14.129777"><ele>7.0</ele><time>2026-05-01T16:10:06.511Z</time></trkpt><trkpt lat="42.5089906" lon="14.1298139"><ele>6.0</ele><time>2026-05-01T16:10:07.505Z</time></trkpt><trkpt lat="42.5090792" lon="14.1298793"><ele>6.25</ele><time>2026-05-01T16:10:08.503Z</time></trkpt><trkpt lat="42.5091665" lon="14.1299815"><ele>6.5</ele><time>2026-05-01T16:10:09.52Z</time></trkpt><trkpt lat="42.5092657" lon="14.1301239"><ele>6.75</ele><time>2026-05-01T16:10:10.514Z</time></trkpt><trkpt lat="42.5093687" lon="14.130281"><ele>7.0</ele><time>2026-05-01T16:10:11.514Z</time></trkpt><trkpt lat="42.5094796" lon="14.1304546"><ele>7.0</ele><time>2026-05-01T16:10:12.521Z</time></trkpt><trkpt lat="42.5096002" lon="14.1306262"><ele>7.0</ele><time>2026-05-01T16:10:13.519Z</time></trkpt><trkpt lat="42.5097129" lon="14.1307868"><ele>7.0</ele><time>2026-05-01T16:10:14.519Z</time></trkpt><trkpt lat="42.5098249" lon="14.1309515"><ele>6.333333333333334</ele><time>2026-05-01T16:10:15.523Z</time></trkpt><trkpt lat="42.5099367" lon="14.131128"><ele>5.666666666666667</ele><time>2026-05-01T16:10:16.512Z</time></trkpt><trkpt lat="42.5100524" lon="14.1313032"><ele>5.0</ele><time>2026-05-01T16:10:17.515Z</time></trkpt><trkpt lat="42.5101667" lon="14.1314819"><ele>5.333333333333334</ele><time>2026-05-01T16:10:18.524Z</time></trkpt><trkpt lat="42.5102716" lon="14.1316711"><ele>5.666666666666667</ele><time>2026-05-01T16:10:19.517Z</time></trkpt><trkpt lat="42.5103785" lon="14.1318573"><ele>6.0</ele><time>2026-05-01T16:10:20.52Z</time></trkpt><trkpt lat="42.5104786" lon="14.1320588"><ele>6.0</ele><time>2026-05-01T16:10:21.519Z</time></trkpt><trkpt lat="42.5105885" lon="14.1322477"><ele>6.0</ele><time>2026-05-01T16:10:22.518Z</time></trkpt><trkpt lat="42.5106839" lon="14.1324414"><ele>6.0</ele><time>2026-05-01T16:10:23.521Z</time></trkpt><trkpt lat="42.510772" lon="14.1326295"><ele>6.0</ele><time>2026-05-01T16:10:24.525Z</time></trkpt><trkpt lat="42.5108716" lon="14.1328124"><ele>6.0</ele><time>2026-05-01T16:10:25.525Z</time></trkpt><trkpt lat="42.510979" lon="14.1329949"><ele>6.0</ele><time>2026-05-01T16:10:26.526Z</time></trkpt><trkpt lat="42.5110916" lon="14.133184"><ele>6.333333333333334</ele><time>2026-05-01T16:10:27.528Z</time></trkpt><trkpt lat="42.5112093" lon="14.1333758"><ele>6.666666666666667</ele><time>2026-05-01T16:10:28.526Z</time></trkpt><trkpt lat="42.5113249" lon="14.1335675"><ele>7.0</ele><time>2026-05-01T16:10:29.524Z</time></trkpt><trkpt lat="42.5114275" lon="14.1337512"><ele>6.333333333333334</ele><time>2026-05-01T16:10:30.524Z</time></trkpt><trkpt lat="42.511512" lon="14.1339415"><ele>5.666666666666667</ele><time>2026-05-01T16:10:31.524Z</time></trkpt><trkpt lat="42.5115925" lon="14.1341167"><ele>5.0</ele><time>2026-05-01T16:10:32.526Z</time></trkpt><trkpt lat="42.511691" lon="14.1342901"><ele>5.0</ele><time>2026-05-01T16:10:33.515Z</time></trkpt><trkpt lat="42.5118076" lon="14.134444"><ele>5.0</ele><time>2026-05-01T16:10:34.514Z</time></trkpt><trkpt lat="42.5119533" lon="14.1345646"><ele>5.0</ele><time>2026-05-01T16:10:35.515Z</time></trkpt><trkpt lat="42.5121051" lon="14.1346658"><ele>4.333333333333334</ele><time>2026-05-01T16:10:36.51Z</time></trkpt><trkpt lat="42.5122653" lon="14.1347596"><ele>3.666666666666667</ele><time>2026-05-01T16:10:37.539Z</time></trkpt><trkpt lat="42.5124269" lon="14.134873"><ele>3.0</ele><time>2026-05-01T16:10:38.607Z</time></trkpt><trkpt lat="42.5125922" lon="14.1349846"><ele>3.0</ele><time>2026-05-01T16:10:39.605Z</time></trkpt><trkpt lat="42.5127534" lon="14.1351055"><ele>3.0</ele><time>2026-05-01T16:10:40.603Z</time></trkpt><trkpt lat="42.51289" lon="14.1352319"><ele>3.0</ele><time>2026-05-01T16:10:41.602Z</time></trkpt><trkpt lat="42.5130154" lon="14.1353829"><ele>3.0</ele><time>2026-05-01T16:10:42.597Z</time></trkpt><trkpt lat="42.5131245" lon="14.1355589"><ele>3.0</ele><time>2026-05-01T16:10:43.584Z</time></trkpt><trkpt lat="42.5132167" lon="14.1357547"><ele>3.0</ele><time>2026-05-01T16:10:44.578Z</time></trkpt><trkpt lat="42.5132897" lon="14.1359635"><ele>3.0</ele><time>2026-05-01T16:10:45.58Z</time></trkpt><trkpt lat="42.5133494" lon="14.1361937"><ele>3.0</ele><time>2026-05-01T16:10:46.579Z</time></trkpt><trkpt lat="42.5133924" lon="14.1364071"><ele>3.0</ele><time>2026-05-01T16:10:47.596Z</time></trkpt><trkpt lat="42.5134403" lon="14.1366113"><ele>3.25</ele><time>2026-05-01T16:10:48.6Z</time></trkpt><trkpt lat="42.5134918" lon="14.1368006"><ele>3.5</ele><time>2026-05-01T16:10:49.596Z</time></trkpt><trkpt lat="42.513546" lon="14.1369735"><ele>3.75</ele><time>2026-05-01T16:10:50.597Z</time></trkpt><trkpt lat="42.5136012" lon="14.1371306"><ele>4.0</ele><time>2026-05-01T16:10:51.592Z</time></trkpt><trkpt lat="42.513646" lon="14.1372571"><ele>3.9999999999999996</ele><time>2026-05-01T16:10:52.592Z</time></trkpt><trkpt lat="42.5136897" lon="14.1373655"><ele>4.0</ele><time>2026-05-01T16:10:53.599Z</time></trkpt><trkpt lat="42.5137226" lon="14.1374543"><ele>4.0</ele><time>2026-05-01T16:10:54.602Z</time></trkpt><trkpt lat="42.5137486" lon="14.1375433"><ele>4.0</ele><time>2026-05-01T16:10:55.602Z</time></trkpt><trkpt lat="42.5137609" lon="14.1376322"><ele>3.9999999999999996</ele><time>2026-05-01T16:10:56.602Z</time></trkpt><trkpt lat="42.5137608" lon="14.1377336"><ele>4.0</ele><time>2026-05-01T16:10:57.586Z</time></trkpt><trkpt lat="42.5137411" lon="14.1378391"><ele>4.25</ele><time>2026-05-01T16:10:58.585Z</time></trkpt><trkpt lat="42.5137049" lon="14.1379571"><ele>4.5</ele><time>2026-05-01T16:10:59.587Z</time></trkpt><trkpt lat="42.5136545" lon="14.1380964"><ele>4.75</ele><time>2026-05-01T16:11:00.582Z</time></trkpt><trkpt lat="42.5135893" lon="14.1382544"><ele>5.0</ele><time>2026-05-01T16:11:01.601Z</time></trkpt><trkpt lat="42.5135164" lon="14.1384352"><ele>5.0</ele><time>2026-05-01T16:11:02.603Z</time></trkpt><trkpt lat="42.5134512" lon="14.1385842"><ele>5.0</ele><time>2026-05-01T16:11:03.59Z</time></trkpt><trkpt lat="42.5133976" lon="14.1387167"><ele>5.0</ele><time>2026-05-01T16:11:04.59Z</time></trkpt><trkpt lat="42.5133534" lon="14.1388388"><ele>5.0</ele><time>2026-05-01T16:11:05.592Z</time></trkpt><trkpt lat="42.5133226" lon="14.1389183"><ele>5.0</ele><time>2026-05-01T16:11:06.596Z</time></trkpt><trkpt lat="42.5132913" lon="14.1389951"><ele>5.4</ele><time>2026-05-01T16:11:07.586Z</time></trkpt><trkpt lat="42.5132481" lon="14.1391014"><ele>5.8</ele><time>2026-05-01T16:11:08.594Z</time></trkpt><trkpt lat="42.5132006" lon="14.1392082"><ele>6.199999999999999</ele><time>2026-05-01T16:11:09.585Z</time></trkpt><trkpt lat="42.5131489" lon="14.1393377"><ele>6.6</ele><time>2026-05-01T16:11:10.59Z</time></trkpt><trkpt lat="42.5130988" lon="14.1394788"><ele>7.0</ele><time>2026-05-01T16:11:11.599Z</time></trkpt><trkpt lat="42.5130452" lon="14.1396307"><ele>7.0</ele><time>2026-05-01T16:11:12.595Z</time></trkpt><trkpt lat="42.5129894" lon="14.1397856"><ele>7.0</ele><time>2026-05-01T16:11:13.599Z</time></trkpt><trkpt lat="42.5129359" lon="14.1399264"><ele>7.0</ele><time>2026-05-01T16:11:14.597Z</time></trkpt><trkpt lat="42.5128853" lon="14.1400643"><ele>7.0</ele><time>2026-05-01T16:11:15.603Z</time></trkpt><trkpt lat="42.5128352" lon="14.1401977"><ele>6.8</ele><time>2026-05-01T16:11:16.606Z</time></trkpt><trkpt lat="42.512792" lon="14.1403221"><ele>6.6</ele><time>2026-05-01T16:11:17.602Z</time></trkpt><trkpt lat="42.5127505" lon="14.1404392"><ele>6.3999999999999995</ele><time>2026-05-01T16:11:18.605Z</time></trkpt><trkpt lat="42.5127136" lon="14.1405482"><ele>6.199999999999999</ele><time>2026-05-01T16:11:19.603Z</time></trkpt><trkpt lat="42.5126741" lon="14.1406554"><ele>6.0</ele><time>2026-05-01T16:11:20.601Z</time></trkpt><trkpt lat="42.5126318" lon="14.1407673"><ele>6.333333333333333</ele><time>2026-05-01T16:11:21.597Z</time></trkpt><trkpt lat="42.5125901" lon="14.140878"><ele>6.666666666666666</ele><time>2026-05-01T16:11:22.594Z</time></trkpt><trkpt lat="42.5125533" lon="14.1409754"><ele>7.0</ele><time>2026-05-01T16:11:23.599Z</time></trkpt><trkpt lat="42.5125195" lon="14.1410636"><ele>7.333333333333333</ele><time>2026-05-01T16:11:24.604Z</time></trkpt><trkpt lat="42.5124873" lon="14.1411436"><ele>7.666666666666666</ele><time>2026-05-01T16:11:25.607Z</time></trkpt><trkpt lat="42.5124436" lon="14.141289"><ele>8.0</ele><time>2026-05-01T16:11:27.603Z</time></trkpt><trkpt lat="42.5124573" lon="14.141416"><ele>8.0</ele><time>2026-05-01T16:11:29.58Z</time></trkpt><trkpt lat="42.5125309" lon="14.1414992"><ele>8.0</ele><time>2026-05-01T16:11:31.588Z</time></trkpt><trkpt lat="42.5126575" lon="14.1414946"><ele>8.0</ele><time>2026-05-01T16:11:33.597Z</time></trkpt><trkpt lat="42.5127461" lon="14.1414668"><ele>8.0</ele><time>2026-05-01T16:11:34.593Z</time></trkpt><trkpt lat="42.5128492" lon="14.141435"><ele>8.0</ele><time>2026-05-01T16:11:35.581Z</time></trkpt><trkpt lat="42.5129698" lon="14.1414114"><ele>7.5</ele><time>2026-05-01T16:11:36.581Z</time></trkpt><trkpt lat="42.5131048" lon="14.1414112"><ele>7.0</ele><time>2026-05-01T16:11:37.578Z</time></trkpt><trkpt lat="42.5132342" lon="14.1414253"><ele>6.5</ele><time>2026-05-01T16:11:38.579Z</time></trkpt><trkpt lat="42.5133516" lon="14.1414579"><ele>6.0</ele><time>2026-05-01T16:11:39.593Z</time></trkpt><trkpt lat="42.5134562" lon="14.1414979"><ele>6.0</ele><time>2026-05-01T16:11:40.597Z</time></trkpt><trkpt lat="42.5135467" lon="14.141539"><ele>6.0</ele><time>2026-05-01T16:11:41.573Z</time></trkpt><trkpt lat="42.5136226" lon="14.1415823"><ele>6.0</ele><time>2026-05-01T16:11:42.573Z</time></trkpt><trkpt lat="42.5136917" lon="14.1416303"><ele>6.0</ele><time>2026-05-01T16:11:43.576Z</time></trkpt><trkpt lat="42.5137635" lon="14.1416811"><ele>6.0</ele><time>2026-05-01T16:11:44.581Z</time></trkpt><trkpt lat="42.513834" lon="14.1417299"><ele>6.0</ele><time>2026-05-01T16:11:45.6Z</time></trkpt><trkpt lat="42.5139016" lon="14.1417788"><ele>5.5</ele><time>2026-05-01T16:11:46.604Z</time></trkpt><trkpt lat="42.5139582" lon="14.141817"><ele>5.0</ele><time>2026-05-01T16:11:47.598Z</time></trkpt><trkpt lat="42.5140236" lon="14.1418647"><ele>4.5</ele><time>2026-05-01T16:11:48.611Z</time></trkpt><trkpt lat="42.514093" lon="14.1419144"><ele>4.0</ele><time>2026-05-01T16:11:49.606Z</time></trkpt><trkpt lat="42.5141539" lon="14.1419649"><ele>3.5</ele><time>2026-05-01T16:11:50.605Z</time></trkpt><trkpt lat="42.5142077" lon="14.1420146"><ele>3.0</ele><time>2026-05-01T16:11:51.605Z</time></trkpt><trkpt lat="42.5142804" lon="14.142128"><ele>3.0</ele><time>2026-05-01T16:11:53.598Z</time></trkpt><trkpt lat="42.5143058" lon="14.1422512"><ele>3.0</ele><time>2026-05-01T16:11:55.58Z</time></trkpt><trkpt lat="42.5143329" lon="14.1423822"><ele>3.0</ele><time>2026-05-01T16:11:57.586Z</time></trkpt><trkpt lat="42.5144104" lon="14.1424735"><ele>3.0</ele><time>2026-05-01T16:11:59.591Z</time></trkpt><trkpt lat="42.5145309" lon="14.1424548"><ele>3.0</ele><time>2026-05-01T16:12:01.577Z</time></trkpt><trkpt lat="42.5145973" lon="14.142435"><ele>2.8333333333333335</ele><time>2026-05-01T16:12:02.495Z</time></trkpt><trkpt lat="42.5146687" lon="14.1424105"><ele>2.6666666666666665</ele><time>2026-05-01T16:12:03.484Z</time></trkpt><trkpt lat="42.5147334" lon="14.1424271"><ele>2.5</ele><time>2026-05-01T16:12:04.488Z</time></trkpt><trkpt lat="42.5148482" lon="14.1424897"><ele>2.333333333333333</ele><time>2026-05-01T16:12:06.504Z</time></trkpt><trkpt lat="42.5149121" lon="14.1425419"><ele>2.1666666666666665</ele><time>2026-05-01T16:12:07.499Z</time></trkpt><trkpt lat="42.5149852" lon="14.1426"><ele>2.0</ele><time>2026-05-01T16:12:08.505Z</time></trkpt><trkpt lat="42.515064" lon="14.1426604"><ele>2.0</ele><time>2026-05-01T16:12:09.508Z</time></trkpt><trkpt lat="42.5151412" lon="14.1427202"><ele>2.0</ele><time>2026-05-01T16:12:10.508Z</time></trkpt><trkpt lat="42.5152211" lon="14.1427797"><ele>2.0</ele><time>2026-05-01T16:12:11.509Z</time></trkpt><trkpt lat="42.5153068" lon="14.1428381"><ele>2.0</ele><time>2026-05-01T16:12:12.503Z</time></trkpt><trkpt lat="42.5153885" lon="14.1429026"><ele>2.0</ele><time>2026-05-01T16:12:13.505Z</time></trkpt><trkpt lat="42.515464" lon="14.1429539"><ele>2.2</ele><time>2026-05-01T16:12:14.503Z</time></trkpt><trkpt lat="42.5155472" lon="14.1430125"><ele>2.4000000000000004</ele><time>2026-05-01T16:12:15.508Z</time></trkpt><trkpt lat="42.5156411" lon="14.143081"><ele>2.5999999999999996</ele><time>2026-05-01T16:12:16.501Z</time></trkpt><trkpt lat="42.5157341" lon="14.1431409"><ele>2.8</ele><time>2026-05-01T16:12:17.507Z</time></trkpt><trkpt lat="42.5158283" lon="14.1432065"><ele>3.0</ele><time>2026-05-01T16:12:18.512Z</time></trkpt><trkpt lat="42.5159328" lon="14.1432783"><ele>3.25</ele><time>2026-05-01T16:12:19.514Z</time></trkpt><trkpt lat="42.5160278" lon="14.1433528"><ele>3.5</ele><time>2026-05-01T16:12:20.51Z</time></trkpt><trkpt lat="42.5161235" lon="14.1434333"><ele>3.75</ele><time>2026-05-01T16:12:21.519Z</time></trkpt><trkpt lat="42.5162269" lon="14.1435067"><ele>4.0</ele><time>2026-05-01T16:12:22.52Z</time></trkpt><trkpt lat="42.5163307" lon="14.1435899"><ele>4.5</ele><time>2026-05-01T16:12:23.514Z</time></trkpt><trkpt lat="42.5164305" lon="14.1436702"><ele>5.0</ele><time>2026-05-01T16:12:24.512Z</time></trkpt><trkpt lat="42.5165311" lon="14.1437407"><ele>5.5</ele><time>2026-05-01T16:12:25.517Z</time></trkpt><trkpt lat="42.5166413" lon="14.1438189"><ele>6.0</ele><time>2026-05-01T16:12:26.518Z</time></trkpt><trkpt lat="42.5167561" lon="14.143894"><ele>6.0</ele><time>2026-05-01T16:12:27.516Z</time></trkpt><trkpt lat="42.5168681" lon="14.1439779"><ele>6.0</ele><time>2026-05-01T16:12:28.518Z</time></trkpt><trkpt lat="42.5169793" lon="14.1440658"><ele>6.0</ele><time>2026-05-01T16:12:29.516Z</time></trkpt><trkpt lat="42.5170828" lon="14.1441391"><ele>6.0</ele><time>2026-05-01T16:12:30.511Z</time></trkpt><trkpt lat="42.5171896" lon="14.1442197"><ele>5.3999999999999995</ele><time>2026-05-01T16:12:31.518Z</time></trkpt><trkpt lat="42.5172924" lon="14.1443055"><ele>4.8</ele><time>2026-05-01T16:12:32.525Z</time></trkpt><trkpt lat="42.5173902" lon="14.1443776"><ele>4.199999999999999</ele><time>2026-05-01T16:12:33.515Z</time></trkpt><trkpt lat="42.5174819" lon="14.1444437"><ele>3.5999999999999996</ele><time>2026-05-01T16:12:34.517Z</time></trkpt><trkpt lat="42.517573" lon="14.1445131"><ele>3.0</ele><time>2026-05-01T16:12:35.513Z</time></trkpt><trkpt lat="42.5176763" lon="14.144587"><ele>3.0</ele><time>2026-05-01T16:12:36.514Z</time></trkpt><trkpt lat="42.5177789" lon="14.1446602"><ele>3.0</ele><time>2026-05-01T16:12:37.516Z</time></trkpt><trkpt lat="42.5178811" lon="14.1447298"><ele>3.0</ele><time>2026-05-01T16:12:38.514Z</time></trkpt><trkpt lat="42.5179858" lon="14.1447931"><ele>3.0</ele><time>2026-05-01T16:12:39.515Z</time></trkpt><trkpt lat="42.5180875" lon="14.1448594"><ele>3.0</ele><time>2026-05-01T16:12:40.516Z</time></trkpt><trkpt lat="42.5181922" lon="14.1449352"><ele>3.0</ele><time>2026-05-01T16:12:41.522Z</time></trkpt><trkpt lat="42.518303" lon="14.1450122"><ele>3.0</ele><time>2026-05-01T16:12:42.519Z</time></trkpt><trkpt lat="42.5184181" lon="14.1450911"><ele>3.0</ele><time>2026-05-01T16:12:43.52Z</time></trkpt><trkpt lat="42.5185418" lon="14.1451821"><ele>3.0</ele><time>2026-05-01T16:12:44.523Z</time></trkpt><trkpt lat="42.5186827" lon="14.1452821"><ele>3.0</ele><time>2026-05-01T16:12:45.518Z</time></trkpt><trkpt lat="42.5188136" lon="14.1453734"><ele>3.0</ele><time>2026-05-01T16:12:46.522Z</time></trkpt><trkpt lat="42.5189298" lon="14.1454585"><ele>3.0</ele><time>2026-05-01T16:12:47.521Z</time></trkpt><trkpt lat="42.5190401" lon="14.1455373"><ele>3.0</ele><time>2026-05-01T16:12:48.517Z</time></trkpt><trkpt lat="42.5191286" lon="14.1456049"><ele>3.0</ele><time>2026-05-01T16:12:49.517Z</time></trkpt><trkpt lat="42.5192099" lon="14.1456735"><ele>3.0</ele><time>2026-05-01T16:12:50.517Z</time></trkpt><trkpt lat="42.5192815" lon="14.1457216"><ele>3.0</ele><time>2026-05-01T16:12:51.517Z</time></trkpt><trkpt lat="42.519354" lon="14.1457701"><ele>3.0</ele><time>2026-05-01T16:12:52.508Z</time></trkpt><trkpt lat="42.5194289" lon="14.1458276"><ele>3.0</ele><time>2026-05-01T16:12:53.518Z</time></trkpt><trkpt lat="42.5194873" lon="14.1458936"><ele>3.0</ele><time>2026-05-01T16:12:54.51Z</time></trkpt><trkpt lat="42.5195408" lon="14.1459651"><ele>3.0</ele><time>2026-05-01T16:12:55.505Z</time></trkpt><trkpt lat="42.5196015" lon="14.1460801"><ele>3.0</ele><time>2026-05-01T16:12:57.509Z</time></trkpt><trkpt lat="42.5195337" lon="14.1462316"><ele>3.0</ele><time>2026-05-01T16:12:59.514Z</time></trkpt><trkpt lat="42.5194569" lon="14.1463391"><ele>3.0</ele><time>2026-05-01T16:13:00.505Z</time></trkpt><trkpt lat="42.5193748" lon="14.1464541"><ele>3.0</ele><time>2026-05-01T16:13:01.513Z</time></trkpt><trkpt lat="42.519304" lon="14.1465456"><ele>3.0</ele><time>2026-05-01T16:13:02.506Z</time></trkpt><trkpt lat="42.5192324" lon="14.1466231"><ele>3.0</ele><time>2026-05-01T16:13:03.501Z</time></trkpt><trkpt lat="42.5191753" lon="14.1466969"><ele>3.0</ele><time>2026-05-01T16:13:04.499Z</time></trkpt><trkpt lat="42.51911" lon="14.1467767"><ele>3.0</ele><time>2026-05-01T16:13:06.495Z</time></trkpt><trkpt lat="42.5190655" lon="14.1468389"><ele>3.0</ele><time>2026-05-01T16:13:10.515Z</time></trkpt><trkpt lat="42.5190476" lon="14.14694"><ele>3.0</ele><time>2026-05-01T16:13:12.519Z</time></trkpt><trkpt lat="42.5190672" lon="14.1470909"><ele>3.0</ele><time>2026-05-01T16:13:14.506Z</time></trkpt><trkpt lat="42.5191002" lon="14.1471798"><ele>3.0</ele><time>2026-05-01T16:13:15.509Z</time></trkpt><trkpt lat="42.5191526" lon="14.1472361"><ele>3.0</ele><time>2026-05-01T16:13:16.495Z</time></trkpt><trkpt lat="42.5192248" lon="14.1472745"><ele>3.0</ele><time>2026-05-01T16:13:17.495Z</time></trkpt><trkpt lat="42.5193134" lon="14.1473184"><ele>3.0</ele><time>2026-05-01T16:13:18.497Z</time></trkpt><trkpt lat="42.5194243" lon="14.1473718"><ele>3.0</ele><time>2026-05-01T16:13:19.498Z</time></trkpt><trkpt lat="42.5195114" lon="14.1474124"><ele>3.0</ele><time>2026-05-01T16:13:20.497Z</time></trkpt><trkpt lat="42.5195805" lon="14.1474783"><ele>3.0</ele><time>2026-05-01T16:13:21.497Z</time></trkpt><trkpt lat="42.5196441" lon="14.1475687"><ele>3.0</ele><time>2026-05-01T16:13:22.5Z</time></trkpt><trkpt lat="42.5196915" lon="14.1476702"><ele>3.0</ele><time>2026-05-01T16:13:23.505Z</time></trkpt><trkpt lat="42.5197437" lon="14.1477667"><ele>3.0</ele><time>2026-05-01T16:13:24.514Z</time></trkpt><trkpt lat="42.5197932" lon="14.1478582"><ele>2.8</ele><time>2026-05-01T16:13:25.507Z</time></trkpt><trkpt lat="42.5198463" lon="14.1479498"><ele>2.5999999999999996</ele><time>2026-05-01T16:13:26.509Z</time></trkpt><trkpt lat="42.5198967" lon="14.148042"><ele>2.4000000000000004</ele><time>2026-05-01T16:13:27.509Z</time></trkpt><trkpt lat="42.5199501" lon="14.1481434"><ele>2.2</ele><time>2026-05-01T16:13:28.506Z</time></trkpt><trkpt lat="42.5199997" lon="14.1482616"><ele>2.0</ele><time>2026-05-01T16:13:29.505Z</time></trkpt><trkpt lat="42.5200426" lon="14.148378"><ele>2.0</ele><time>2026-05-01T16:13:30.507Z</time></trkpt><trkpt lat="42.5200895" lon="14.1484982"><ele>2.0</ele><time>2026-05-01T16:13:31.508Z</time></trkpt><trkpt lat="42.5201292" lon="14.1486135"><ele>2.0</ele><time>2026-05-01T16:13:32.505Z</time></trkpt><trkpt lat="42.5201697" lon="14.1487108"><ele>2.0</ele><time>2026-05-01T16:13:33.504Z</time></trkpt><trkpt lat="42.5202043" lon="14.1487853"><ele>2.0</ele><time>2026-05-01T16:13:34.506Z</time></trkpt><trkpt lat="42.5202687" lon="14.1489597"><ele>2.0</ele><time>2026-05-01T16:13:36.5Z</time></trkpt><trkpt lat="42.5203016" lon="14.1490798"><ele>2.0</ele><time>2026-05-01T16:13:37.503Z</time></trkpt><trkpt lat="42.5203359" lon="14.1492012"><ele>2.0</ele><time>2026-05-01T16:13:38.507Z</time></trkpt><trkpt lat="42.5203786" lon="14.1493154"><ele>2.0</ele><time>2026-05-01T16:13:39.504Z</time></trkpt><trkpt lat="42.5204161" lon="14.1494381"><ele>2.0</ele><time>2026-05-01T16:13:40.503Z</time></trkpt><trkpt lat="42.5204659" lon="14.1495716"><ele>1.9999999999999998</ele><time>2026-05-01T16:13:41.502Z</time></trkpt><trkpt lat="42.5205109" lon="14.1497037"><ele>2.0</ele><time>2026-05-01T16:13:42.509Z</time></trkpt><trkpt lat="42.5205533" lon="14.1498242"><ele>2.0</ele><time>2026-05-01T16:13:43.51Z</time></trkpt><trkpt lat="42.5205864" lon="14.1499305"><ele>2.0</ele><time>2026-05-01T16:13:44.508Z</time></trkpt><trkpt lat="42.5206127" lon="14.1500297"><ele>1.9999999999999998</ele><time>2026-05-01T16:13:45.512Z</time></trkpt><trkpt lat="42.5206468" lon="14.1501177"><ele>2.0</ele><time>2026-05-01T16:13:46.511Z</time></trkpt><trkpt lat="42.5206746" lon="14.1501971"><ele>2.0</ele><time>2026-05-01T16:13:47.508Z</time></trkpt><trkpt lat="42.5207339" lon="14.150326"><ele>2.0</ele><time>2026-05-01T16:13:49.505Z</time></trkpt><trkpt lat="42.5207792" lon="14.1504903"><ele>2.0</ele><time>2026-05-01T16:13:51.507Z</time></trkpt><trkpt lat="42.5208103" lon="14.1505684"><ele>2.0</ele><time>2026-05-01T16:13:52.507Z</time></trkpt><trkpt lat="42.520841" lon="14.1506642"><ele>2.0</ele><time>2026-05-01T16:13:53.511Z</time></trkpt><trkpt lat="42.5208752" lon="14.1507772"><ele>2.0</ele><time>2026-05-01T16:13:54.507Z</time></trkpt><trkpt lat="42.5209205" lon="14.1509059"><ele>2.0</ele><time>2026-05-01T16:13:55.518Z</time></trkpt><trkpt lat="42.5209682" lon="14.1510467"><ele>2.0</ele><time>2026-05-01T16:13:56.509Z</time></trkpt><trkpt lat="42.5210066" lon="14.1511699"><ele>2.0</ele><time>2026-05-01T16:13:57.514Z</time></trkpt><trkpt lat="42.5210416" lon="14.1512855"><ele>2.0</ele><time>2026-05-01T16:13:58.512Z</time></trkpt><trkpt lat="42.5210753" lon="14.1513859"><ele>1.9999999999999998</ele><time>2026-05-01T16:13:59.515Z</time></trkpt><trkpt lat="42.5211027" lon="14.1514674"><ele>2.0</ele><time>2026-05-01T16:14:00.53Z</time></trkpt><trkpt lat="42.5211332" lon="14.1515422"><ele>2.0</ele><time>2026-05-01T16:14:01.53Z</time></trkpt><trkpt lat="42.5211815" lon="14.1516654"><ele>2.0</ele><time>2026-05-01T16:14:03.522Z</time></trkpt><trkpt lat="42.5212128" lon="14.1517702"><ele>1.9999999999999998</ele><time>2026-05-01T16:14:05.516Z</time></trkpt><trkpt lat="42.5212416" lon="14.1518667"><ele>2.0</ele><time>2026-05-01T16:14:08.529Z</time></trkpt><trkpt lat="42.5212685" lon="14.151947"><ele>1.6</ele><time>2026-05-01T16:14:11.529Z</time></trkpt><trkpt lat="42.5212957" lon="14.1520541"><ele>1.2000000000000002</ele><time>2026-05-01T16:14:13.53Z</time></trkpt><trkpt lat="42.5213449" lon="14.1522"><ele>0.8</ele><time>2026-05-01T16:14:15.518Z</time></trkpt><trkpt lat="42.5214191" lon="14.152356"><ele>0.4</ele><time>2026-05-01T16:14:17.518Z</time></trkpt><trkpt lat="42.5214721" lon="14.1524796"><ele>0.0</ele><time>2026-05-01T16:14:18.523Z</time></trkpt><trkpt lat="42.5215221" lon="14.1526283"><ele>0.0</ele><time>2026-05-01T16:14:19.515Z</time></trkpt><trkpt lat="42.5215654" lon="14.1527453"><ele>0.0</ele><time>2026-05-01T16:14:21.593Z</time></trkpt><trkpt lat="42.5216109" lon="14.1528634"><ele>0.0</ele><time>2026-05-01T16:14:23.596Z</time></trkpt><trkpt lat="42.5216408" lon="14.152958"><ele>0.0</ele><time>2026-05-01T16:14:24.591Z</time></trkpt><trkpt lat="42.5216796" lon="14.1530731"><ele>0.0</ele><time>2026-05-01T16:14:25.584Z</time></trkpt><trkpt lat="42.5217337" lon="14.153231"><ele>0.0</ele><time>2026-05-01T16:14:26.605Z</time></trkpt><trkpt lat="42.5217767" lon="14.1533668"><ele>0.0</ele><time>2026-05-01T16:14:27.596Z</time></trkpt><trkpt lat="42.5218151" lon="14.1534785"><ele>0.0</ele><time>2026-05-01T16:14:28.59Z</time></trkpt><trkpt lat="42.5218517" lon="14.1535755"><ele>0.0</ele><time>2026-05-01T16:14:29.597Z</time></trkpt><trkpt lat="42.5218792" lon="14.1536552"><ele>0.0</ele><time>2026-05-01T16:14:30.59Z</time></trkpt><trkpt lat="42.5219185" lon="14.1537271"><ele>0.0</ele><time>2026-05-01T16:14:33.609Z</time></trkpt><trkpt lat="42.5220016" lon="14.1536646"><ele>0.3333333333333333</ele><time>2026-05-01T16:14:36.514Z</time></trkpt><trkpt lat="42.522072" lon="14.1535733"><ele>0.6666666666666666</ele><time>2026-05-01T16:14:37.511Z</time></trkpt><trkpt lat="42.5221452" lon="14.1535069"><ele>1.0</ele><time>2026-05-01T16:14:38.508Z</time></trkpt><trkpt lat="42.522238" lon="14.1534487"><ele>1.3333333333333333</ele><time>2026-05-01T16:14:40.508Z</time></trkpt><trkpt lat="42.5222857" lon="14.1533731"><ele>1.6666666666666665</ele><time>2026-05-01T16:14:43.513Z</time></trkpt><trkpt lat="42.5222901" lon="14.1532666"><ele>2.0</ele><time>2026-05-01T16:14:46.511Z</time></trkpt><trkpt lat="42.5222874" lon="14.1531733"><ele>1.9999999999999998</ele><time>2026-05-01T16:14:55.516Z</time></trkpt><trkpt lat="42.5223516" lon="14.1531163"><ele>2.0</ele><time>2026-05-01T16:14:58.514Z</time></trkpt><trkpt lat="42.5224078" lon="14.1530577"><ele>2.0</ele><time>2026-05-01T16:15:06.517Z</time></trkpt><trkpt lat="42.5223433" lon="14.1530908"><ele>2.0</ele><time>2026-05-01T16:15:29.517Z</time></trkpt><trkpt lat="42.5222698" lon="14.1531401"><ele>1.9999999999999998</ele><time>2026-05-01T16:15:31.515Z</time></trkpt><trkpt lat="42.5222084" lon="14.1530781"><ele>2.0</ele><time>2026-05-01T16:15:35.511Z</time></trkpt><trkpt lat="42.5221467" lon="14.1529792"><ele>1.9999999999999998</ele><time>2026-05-01T16:15:41.513Z</time></trkpt><trkpt lat="42.5221048" lon="14.1528833"><ele>2.0</ele><time>2026-05-01T16:15:43.514Z</time></trkpt><trkpt lat="42.5220795" lon="14.1527696"><ele>2.0</ele><time>2026-05-01T16:15:46.516Z</time></trkpt><trkpt lat="42.5220489" lon="14.1526861"><ele>2.0</ele><time>2026-05-01T16:15:50.523Z</time></trkpt><trkpt lat="42.5219903" lon="14.152601"><ele>1.9999999999999998</ele><time>2026-05-01T16:15:55.53Z</time></trkpt><trkpt lat="42.5219354" lon="14.1525265"><ele>2.0</ele><time>2026-05-01T16:15:59.534Z</time></trkpt><trkpt lat="42.5218993" lon="14.1524285"><ele>1.6666666666666665</ele><time>2026-05-01T16:16:09.509Z</time></trkpt><trkpt lat="42.5218825" lon="14.1523373"><ele>1.3333333333333333</ele><time>2026-05-01T16:16:13.513Z</time></trkpt><trkpt lat="42.5218397" lon="14.1522449"><ele>1.0</ele><time>2026-05-01T16:16:16.512Z</time></trkpt><trkpt lat="42.521794" lon="14.1521426"><ele>0.6666666666666666</ele><time>2026-05-01T16:16:19.52Z</time></trkpt><trkpt lat="42.5217302" lon="14.1521045"><ele>0.3333333333333333</ele><time>2026-05-01T16:16:21.507Z</time></trkpt><trkpt lat="42.5216883" lon="14.1521856"><ele>0.0</ele><time>2026-05-01T16:16:24.514Z</time></trkpt><trkpt lat="42.5217473" lon="14.1521144"><ele>0.0</ele><time>2026-05-01T16:16:35.521Z</time></trkpt><trkpt lat="42.5217944" lon="14.1520256"><ele>0.0</ele><time>2026-05-01T16:16:38.515Z</time></trkpt><trkpt lat="42.5218646" lon="14.1519619"><ele>0.0</ele><time>2026-05-01T16:16:40.505Z</time></trkpt><trkpt lat="42.5219482" lon="14.1520134"><ele>0.0</ele><time>2026-05-01T16:16:42.516Z</time></trkpt><trkpt lat="42.5220059" lon="14.1521496"><ele>0.0</ele><time>2026-05-01T16:16:44.508Z</time></trkpt><trkpt lat="42.522053" lon="14.1522583"><ele>0.3333333333333333</ele><time>2026-05-01T16:16:46.518Z</time></trkpt><trkpt lat="42.5221046" lon="14.1523416"><ele>0.6666666666666666</ele><time>2026-05-01T16:16:49.519Z</time></trkpt><trkpt lat="42.5221269" lon="14.1524306"><ele>1.0</ele><time>2026-05-01T16:16:53.538Z</time></trkpt><trkpt lat="42.522161" lon="14.1525041"><ele>1.3333333333333333</ele><time>2026-05-01T16:17:01.539Z</time></trkpt><trkpt lat="42.5222127" lon="14.1526054"><ele>1.6666666666666665</ele><time>2026-05-01T16:17:04.526Z</time></trkpt><trkpt lat="42.5222543" lon="14.1527435"><ele>2.0</ele><time>2026-05-01T16:17:06.517Z</time></trkpt><trkpt lat="42.522301" lon="14.1528746"><ele>2.0</ele><time>2026-05-01T16:17:08.526Z</time></trkpt><trkpt lat="42.5223622" lon="14.1529941"><ele>2.0</ele><time>2026-05-01T16:17:10.515Z</time></trkpt><trkpt lat="42.5224093" lon="14.1530511"><ele>2.0</ele><time>2026-05-01T16:17:12.524Z</time></trkpt></trkseg></trk></gpx>